<?xml version="1.0" encoding="UTF-8" standalone="no" ?>
<gpx xmlns="http://www.topografix.com/GPX/1/1" xmlns:xsi="http://www.w3.org/2001/XMLSchema-instance" xsi:schemaLocation="http://www.topografix.com/GPX/1/1 http://www.topografix.com/GPX/1/1/gpx.xsd" version="1.1" creator="VisuGPX - https://www.visugpx.com">
  <metadata>
    <name>MN 94 bois Notre-Dame Rapide 10km</name>
    <desc><![CDATA[Marche nordique dans le bois de notre-dame (Boissy-st-léger) à allure rapide]]></desc>
  </metadata>
  <trk>
    <name><![CDATA[MN 94 BG Notre-Dame 10]]></name>
    <cmt><![CDATA[10 km ]]></cmt>
    <desc><![CDATA[comment ...]]></desc>
    <trkseg>
      <trkpt lat="48.751" lon="2.51552">
        <ele>94</ele>
        <time>2014-05-25T09:56:31Z</time>
      </trkpt>
      <trkpt lat="48.751" lon="2.51552">
        <ele>94</ele>
        <time>2014-05-25T09:56:32Z</time>
      </trkpt>
      <trkpt lat="48.751" lon="2.51552">
        <ele>94</ele>
        <time>2014-05-25T09:56:33Z</time>
      </trkpt>
      <trkpt lat="48.751" lon="2.51552">
        <ele>94</ele>
        <time>2014-05-25T09:56:34Z</time>
      </trkpt>
      <trkpt lat="48.751" lon="2.51552">
        <ele>94</ele>
        <time>2014-05-25T09:56:35Z</time>
      </trkpt>
      <trkpt lat="48.751" lon="2.51552">
        <ele>94</ele>
        <time>2014-05-25T09:56:36Z</time>
      </trkpt>
      <trkpt lat="48.751" lon="2.51552">
        <ele>142</ele>
        <time>2014-05-25T09:56:38Z</time>
      </trkpt>
      <trkpt lat="48.751" lon="2.51552">
        <ele>94</ele>
        <time>2014-05-25T09:56:39Z</time>
      </trkpt>
      <trkpt lat="48.751" lon="2.51552">
        <ele>94</ele>
        <time>2014-05-25T09:56:40Z</time>
      </trkpt>
      <trkpt lat="48.751" lon="2.51552">
        <ele>94</ele>
        <time>2014-05-25T09:56:41Z</time>
      </trkpt>
      <trkpt lat="48.751" lon="2.51552">
        <ele>94</ele>
        <time>2014-05-25T09:56:42Z</time>
      </trkpt>
      <trkpt lat="48.751" lon="2.51552">
        <ele>94</ele>
        <time>2014-05-25T09:56:43Z</time>
      </trkpt>
      <trkpt lat="48.751" lon="2.51552">
        <ele>94</ele>
        <time>2014-05-25T09:56:44Z</time>
      </trkpt>
      <trkpt lat="48.751" lon="2.51552">
        <ele>94</ele>
        <time>2014-05-25T09:56:45Z</time>
      </trkpt>
      <trkpt lat="48.751" lon="2.51552">
        <ele>94</ele>
        <time>2014-05-25T09:56:46Z</time>
      </trkpt>
      <trkpt lat="48.751" lon="2.51552">
        <ele>94</ele>
        <time>2014-05-25T09:56:47Z</time>
      </trkpt>
      <trkpt lat="48.751" lon="2.51552">
        <ele>94</ele>
        <time>2014-05-25T09:56:48Z</time>
      </trkpt>
      <trkpt lat="48.751" lon="2.51552">
        <ele>94</ele>
        <time>2014-05-25T09:56:49Z</time>
      </trkpt>
      <trkpt lat="48.751" lon="2.51552">
        <ele>94</ele>
        <time>2014-05-25T09:56:50Z</time>
      </trkpt>
      <trkpt lat="48.751" lon="2.51552">
        <ele>94</ele>
        <time>2014-05-25T09:56:51Z</time>
      </trkpt>
      <trkpt lat="48.751" lon="2.51552">
        <ele>94</ele>
        <time>2014-05-25T09:56:52Z</time>
      </trkpt>
      <trkpt lat="48.751" lon="2.51552">
        <ele>94</ele>
        <time>2014-05-25T09:56:53Z</time>
      </trkpt>
      <trkpt lat="48.751" lon="2.51552">
        <ele>95</ele>
        <time>2014-05-25T09:56:54Z</time>
      </trkpt>
      <trkpt lat="48.751" lon="2.51552">
        <ele>95</ele>
        <time>2014-05-25T09:56:55Z</time>
      </trkpt>
      <trkpt lat="48.751" lon="2.51552">
        <ele>95</ele>
        <time>2014-05-25T09:56:56Z</time>
      </trkpt>
      <trkpt lat="48.751" lon="2.51552">
        <ele>95</ele>
        <time>2014-05-25T09:56:57Z</time>
      </trkpt>
      <trkpt lat="48.751" lon="2.51552">
        <ele>95</ele>
        <time>2014-05-25T09:56:58Z</time>
      </trkpt>
      <trkpt lat="48.751" lon="2.51552">
        <ele>95</ele>
        <time>2014-05-25T09:56:59Z</time>
      </trkpt>
      <trkpt lat="48.751" lon="2.51552">
        <ele>95</ele>
        <time>2014-05-25T09:57:00Z</time>
      </trkpt>
      <trkpt lat="48.751" lon="2.51552">
        <ele>95</ele>
        <time>2014-05-25T09:57:01Z</time>
      </trkpt>
      <trkpt lat="48.751" lon="2.51552">
        <ele>95</ele>
        <time>2014-05-25T09:57:02Z</time>
      </trkpt>
      <trkpt lat="48.751" lon="2.51552">
        <ele>95</ele>
        <time>2014-05-25T09:57:03Z</time>
      </trkpt>
      <trkpt lat="48.751" lon="2.51552">
        <ele>95</ele>
        <time>2014-05-25T09:57:04Z</time>
      </trkpt>
      <trkpt lat="48.751" lon="2.51552">
        <ele>95</ele>
        <time>2014-05-25T09:57:05Z</time>
      </trkpt>
      <trkpt lat="48.751" lon="2.51552">
        <ele>95</ele>
        <time>2014-05-25T09:57:06Z</time>
      </trkpt>
      <trkpt lat="48.751" lon="2.51552">
        <ele>95</ele>
        <time>2014-05-25T09:57:07Z</time>
      </trkpt>
      <trkpt lat="48.751" lon="2.51552">
        <ele>95</ele>
        <time>2014-05-25T09:57:08Z</time>
      </trkpt>
      <trkpt lat="48.751" lon="2.51552">
        <ele>95</ele>
        <time>2014-05-25T09:57:09Z</time>
      </trkpt>
      <trkpt lat="48.751" lon="2.51552">
        <ele>95</ele>
        <time>2014-05-25T09:57:10Z</time>
      </trkpt>
      <trkpt lat="48.751" lon="2.51552">
        <ele>95</ele>
        <time>2014-05-25T09:57:11Z</time>
      </trkpt>
      <trkpt lat="48.751" lon="2.51552">
        <ele>95</ele>
        <time>2014-05-25T09:57:12Z</time>
      </trkpt>
      <trkpt lat="48.751" lon="2.51552">
        <ele>95</ele>
        <time>2014-05-25T09:57:13Z</time>
      </trkpt>
      <trkpt lat="48.751" lon="2.51552">
        <ele>95</ele>
        <time>2014-05-25T09:57:14Z</time>
      </trkpt>
      <trkpt lat="48.751" lon="2.51552">
        <ele>95</ele>
        <time>2014-05-25T09:57:15Z</time>
      </trkpt>
      <trkpt lat="48.751" lon="2.51552">
        <ele>95</ele>
        <time>2014-05-25T09:57:16Z</time>
      </trkpt>
      <trkpt lat="48.751" lon="2.51552">
        <ele>95</ele>
        <time>2014-05-25T09:57:17Z</time>
      </trkpt>
      <trkpt lat="48.751" lon="2.51552">
        <ele>95</ele>
        <time>2014-05-25T09:57:18Z</time>
      </trkpt>
      <trkpt lat="48.751" lon="2.51552">
        <ele>95</ele>
        <time>2014-05-25T09:57:19Z</time>
      </trkpt>
      <trkpt lat="48.751" lon="2.51552">
        <ele>95</ele>
        <time>2014-05-25T09:57:20Z</time>
      </trkpt>
      <trkpt lat="48.751" lon="2.51552">
        <ele>95</ele>
        <time>2014-05-25T09:57:21Z</time>
      </trkpt>
      <trkpt lat="48.751" lon="2.51552">
        <ele>95</ele>
        <time>2014-05-25T09:57:22Z</time>
      </trkpt>
      <trkpt lat="48.751" lon="2.51552">
        <ele>95</ele>
        <time>2014-05-25T09:57:23Z</time>
      </trkpt>
      <trkpt lat="48.751" lon="2.51552">
        <ele>95</ele>
        <time>2014-05-25T09:57:24Z</time>
      </trkpt>
      <trkpt lat="48.751" lon="2.51552">
        <ele>95</ele>
        <time>2014-05-25T09:57:25Z</time>
      </trkpt>
      <trkpt lat="48.751" lon="2.51552">
        <ele>95</ele>
        <time>2014-05-25T09:57:26Z</time>
      </trkpt>
      <trkpt lat="48.751" lon="2.51552">
        <ele>95</ele>
        <time>2014-05-25T09:57:27Z</time>
      </trkpt>
      <trkpt lat="48.751" lon="2.51552">
        <ele>95</ele>
        <time>2014-05-25T09:57:28Z</time>
      </trkpt>
      <trkpt lat="48.751" lon="2.51552">
        <ele>95</ele>
        <time>2014-05-25T09:57:29Z</time>
      </trkpt>
      <trkpt lat="48.751" lon="2.51552">
        <ele>95</ele>
        <time>2014-05-25T09:57:30Z</time>
      </trkpt>
      <trkpt lat="48.751" lon="2.51552">
        <ele>95</ele>
        <time>2014-05-25T09:57:31Z</time>
      </trkpt>
      <trkpt lat="48.751" lon="2.51552">
        <ele>95</ele>
        <time>2014-05-25T09:57:32Z</time>
      </trkpt>
      <trkpt lat="48.751" lon="2.51552">
        <ele>95</ele>
        <time>2014-05-25T09:57:33Z</time>
      </trkpt>
      <trkpt lat="48.751" lon="2.51552">
        <ele>95</ele>
        <time>2014-05-25T09:57:34Z</time>
      </trkpt>
      <trkpt lat="48.751" lon="2.51552">
        <ele>95</ele>
        <time>2014-05-25T09:57:35Z</time>
      </trkpt>
      <trkpt lat="48.751" lon="2.51552">
        <ele>95</ele>
        <time>2014-05-25T09:57:36Z</time>
      </trkpt>
      <trkpt lat="48.751" lon="2.51552">
        <ele>95</ele>
        <time>2014-05-25T09:57:37Z</time>
      </trkpt>
      <trkpt lat="48.751" lon="2.51552">
        <ele>95</ele>
        <time>2014-05-25T09:57:38Z</time>
      </trkpt>
      <trkpt lat="48.75101" lon="2.51552">
        <ele>95</ele>
        <time>2014-05-25T09:57:39Z</time>
      </trkpt>
      <trkpt lat="48.751" lon="2.51552">
        <ele>97</ele>
        <time>2014-05-25T09:57:40Z</time>
      </trkpt>
      <trkpt lat="48.751" lon="2.51551">
        <ele>97</ele>
        <time>2014-05-25T09:57:41Z</time>
      </trkpt>
      <trkpt lat="48.751" lon="2.51552">
        <ele>97</ele>
        <time>2014-05-25T09:57:42Z</time>
      </trkpt>
      <trkpt lat="48.751" lon="2.51552">
        <ele>97</ele>
        <time>2014-05-25T09:57:43Z</time>
      </trkpt>
      <trkpt lat="48.751" lon="2.51552">
        <ele>97</ele>
        <time>2014-05-25T09:57:44Z</time>
      </trkpt>
      <trkpt lat="48.751" lon="2.51553">
        <ele>98</ele>
        <time>2014-05-25T09:57:45Z</time>
      </trkpt>
      <trkpt lat="48.75099" lon="2.51553">
        <ele>99</ele>
        <time>2014-05-25T09:57:46Z</time>
      </trkpt>
      <trkpt lat="48.75099" lon="2.51553">
        <ele>99</ele>
        <time>2014-05-25T09:57:47Z</time>
      </trkpt>
      <trkpt lat="48.75099" lon="2.51553">
        <ele>99</ele>
        <time>2014-05-25T09:57:48Z</time>
      </trkpt>
      <trkpt lat="48.751" lon="2.51553">
        <ele>98</ele>
        <time>2014-05-25T09:57:49Z</time>
      </trkpt>
      <trkpt lat="48.751" lon="2.51551">
        <ele>98</ele>
        <time>2014-05-25T09:57:50Z</time>
      </trkpt>
      <trkpt lat="48.75101" lon="2.5155">
        <ele>98</ele>
        <time>2014-05-25T09:57:51Z</time>
      </trkpt>
      <trkpt lat="48.75101" lon="2.51548">
        <ele>97</ele>
        <time>2014-05-25T09:57:52Z</time>
      </trkpt>
      <trkpt lat="48.751" lon="2.51547">
        <ele>97</ele>
        <time>2014-05-25T09:57:53Z</time>
      </trkpt>
      <trkpt lat="48.751" lon="2.51545">
        <ele>96</ele>
        <time>2014-05-25T09:57:54Z</time>
      </trkpt>
      <trkpt lat="48.75102" lon="2.51545">
        <ele>97</ele>
        <time>2014-05-25T09:57:55Z</time>
      </trkpt>
      <trkpt lat="48.75102" lon="2.51545">
        <ele>99</ele>
        <time>2014-05-25T09:57:56Z</time>
      </trkpt>
      <trkpt lat="48.75103" lon="2.51545">
        <ele>99</ele>
        <time>2014-05-25T09:57:57Z</time>
      </trkpt>
      <trkpt lat="48.75104" lon="2.51545">
        <ele>99</ele>
        <time>2014-05-25T09:57:58Z</time>
      </trkpt>
      <trkpt lat="48.75105" lon="2.51545">
        <ele>99</ele>
        <time>2014-05-25T09:57:59Z</time>
      </trkpt>
      <trkpt lat="48.75107" lon="2.51545">
        <ele>99</ele>
        <time>2014-05-25T09:58:00Z</time>
      </trkpt>
      <trkpt lat="48.75108" lon="2.51546">
        <ele>100</ele>
        <time>2014-05-25T09:58:01Z</time>
      </trkpt>
      <trkpt lat="48.7511" lon="2.51547">
        <ele>100</ele>
        <time>2014-05-25T09:58:02Z</time>
      </trkpt>
      <trkpt lat="48.75111" lon="2.51547">
        <ele>100</ele>
        <time>2014-05-25T09:58:03Z</time>
      </trkpt>
      <trkpt lat="48.75112" lon="2.51548">
        <ele>100</ele>
        <time>2014-05-25T09:58:04Z</time>
      </trkpt>
      <trkpt lat="48.75114" lon="2.51549">
        <ele>101</ele>
        <time>2014-05-25T09:58:05Z</time>
      </trkpt>
      <trkpt lat="48.75115" lon="2.5155">
        <ele>100</ele>
        <time>2014-05-25T09:58:06Z</time>
      </trkpt>
      <trkpt lat="48.75116" lon="2.51551">
        <ele>101</ele>
        <time>2014-05-25T09:58:07Z</time>
      </trkpt>
      <trkpt lat="48.75118" lon="2.51551">
        <ele>101</ele>
        <time>2014-05-25T09:58:08Z</time>
      </trkpt>
      <trkpt lat="48.75119" lon="2.51552">
        <ele>101</ele>
        <time>2014-05-25T09:58:09Z</time>
      </trkpt>
      <trkpt lat="48.7512" lon="2.51553">
        <ele>101</ele>
        <time>2014-05-25T09:58:10Z</time>
      </trkpt>
      <trkpt lat="48.75121" lon="2.51554">
        <ele>101</ele>
        <time>2014-05-25T09:58:11Z</time>
      </trkpt>
      <trkpt lat="48.75122" lon="2.51555">
        <ele>101</ele>
        <time>2014-05-25T09:58:12Z</time>
      </trkpt>
      <trkpt lat="48.75123" lon="2.51556">
        <ele>101</ele>
        <time>2014-05-25T09:58:13Z</time>
      </trkpt>
      <trkpt lat="48.75123" lon="2.51557">
        <ele>101</ele>
        <time>2014-05-25T09:58:14Z</time>
      </trkpt>
      <trkpt lat="48.75124" lon="2.51558">
        <ele>101</ele>
        <time>2014-05-25T09:58:15Z</time>
      </trkpt>
      <trkpt lat="48.75124" lon="2.51558">
        <ele>101</ele>
        <time>2014-05-25T09:58:16Z</time>
      </trkpt>
      <trkpt lat="48.75124" lon="2.51559">
        <ele>101</ele>
        <time>2014-05-25T09:58:17Z</time>
      </trkpt>
      <trkpt lat="48.75125" lon="2.51559">
        <ele>101</ele>
        <time>2014-05-25T09:58:18Z</time>
      </trkpt>
      <trkpt lat="48.75125" lon="2.51559">
        <ele>101</ele>
        <time>2014-05-25T09:58:19Z</time>
      </trkpt>
      <trkpt lat="48.75125" lon="2.51559">
        <ele>101</ele>
        <time>2014-05-25T09:58:20Z</time>
      </trkpt>
      <trkpt lat="48.75125" lon="2.51559">
        <ele>101</ele>
        <time>2014-05-25T09:58:21Z</time>
      </trkpt>
      <trkpt lat="48.75126" lon="2.5156">
        <ele>101</ele>
        <time>2014-05-25T09:58:22Z</time>
      </trkpt>
      <trkpt lat="48.75126" lon="2.51561">
        <ele>101</ele>
        <time>2014-05-25T09:58:23Z</time>
      </trkpt>
      <trkpt lat="48.75127" lon="2.51561">
        <ele>101</ele>
        <time>2014-05-25T09:58:24Z</time>
      </trkpt>
      <trkpt lat="48.75127" lon="2.51562">
        <ele>100</ele>
        <time>2014-05-25T09:58:25Z</time>
      </trkpt>
      <trkpt lat="48.75127" lon="2.51562">
        <ele>100</ele>
        <time>2014-05-25T09:58:26Z</time>
      </trkpt>
      <trkpt lat="48.75128" lon="2.51562">
        <ele>100</ele>
        <time>2014-05-25T09:58:27Z</time>
      </trkpt>
      <trkpt lat="48.75128" lon="2.51562">
        <ele>100</ele>
        <time>2014-05-25T09:58:28Z</time>
      </trkpt>
      <trkpt lat="48.75128" lon="2.51561">
        <ele>100</ele>
        <time>2014-05-25T09:58:29Z</time>
      </trkpt>
      <trkpt lat="48.75127" lon="2.51561">
        <ele>100</ele>
        <time>2014-05-25T09:58:30Z</time>
      </trkpt>
      <trkpt lat="48.75127" lon="2.51561">
        <ele>100</ele>
        <time>2014-05-25T09:58:31Z</time>
      </trkpt>
      <trkpt lat="48.75127" lon="2.51561">
        <ele>100</ele>
        <time>2014-05-25T09:58:32Z</time>
      </trkpt>
      <trkpt lat="48.75127" lon="2.51561">
        <ele>101</ele>
        <time>2014-05-25T09:58:33Z</time>
      </trkpt>
      <trkpt lat="48.75127" lon="2.51561">
        <ele>101</ele>
        <time>2014-05-25T09:58:34Z</time>
      </trkpt>
      <trkpt lat="48.75127" lon="2.51561">
        <ele>101</ele>
        <time>2014-05-25T09:58:35Z</time>
      </trkpt>
      <trkpt lat="48.75127" lon="2.51561">
        <ele>101</ele>
        <time>2014-05-25T09:58:36Z</time>
      </trkpt>
      <trkpt lat="48.75127" lon="2.51561">
        <ele>101</ele>
        <time>2014-05-25T09:58:37Z</time>
      </trkpt>
      <trkpt lat="48.75127" lon="2.51561">
        <ele>101</ele>
        <time>2014-05-25T09:58:38Z</time>
      </trkpt>
      <trkpt lat="48.75127" lon="2.51561">
        <ele>101</ele>
        <time>2014-05-25T09:58:39Z</time>
      </trkpt>
      <trkpt lat="48.75127" lon="2.51561">
        <ele>101</ele>
        <time>2014-05-25T09:58:40Z</time>
      </trkpt>
      <trkpt lat="48.75127" lon="2.51561">
        <ele>100</ele>
        <time>2014-05-25T09:58:41Z</time>
      </trkpt>
      <trkpt lat="48.75127" lon="2.51562">
        <ele>101</ele>
        <time>2014-05-25T09:58:42Z</time>
      </trkpt>
      <trkpt lat="48.75127" lon="2.51562">
        <ele>100</ele>
        <time>2014-05-25T09:58:43Z</time>
      </trkpt>
      <trkpt lat="48.75127" lon="2.51562">
        <ele>100</ele>
        <time>2014-05-25T09:58:44Z</time>
      </trkpt>
      <trkpt lat="48.75127" lon="2.51562">
        <ele>100</ele>
        <time>2014-05-25T09:58:45Z</time>
      </trkpt>
      <trkpt lat="48.75127" lon="2.51563">
        <ele>100</ele>
        <time>2014-05-25T09:58:46Z</time>
      </trkpt>
      <trkpt lat="48.75127" lon="2.51563">
        <ele>100</ele>
        <time>2014-05-25T09:58:47Z</time>
      </trkpt>
      <trkpt lat="48.75127" lon="2.51563">
        <ele>100</ele>
        <time>2014-05-25T09:58:48Z</time>
      </trkpt>
      <trkpt lat="48.75127" lon="2.51563">
        <ele>100</ele>
        <time>2014-05-25T09:58:49Z</time>
      </trkpt>
      <trkpt lat="48.75127" lon="2.51563">
        <ele>100</ele>
        <time>2014-05-25T09:58:50Z</time>
      </trkpt>
      <trkpt lat="48.75127" lon="2.51563">
        <ele>100</ele>
        <time>2014-05-25T09:58:51Z</time>
      </trkpt>
      <trkpt lat="48.75127" lon="2.51563">
        <ele>100</ele>
        <time>2014-05-25T09:58:52Z</time>
      </trkpt>
      <trkpt lat="48.75127" lon="2.51563">
        <ele>100</ele>
        <time>2014-05-25T09:58:53Z</time>
      </trkpt>
      <trkpt lat="48.75127" lon="2.51563">
        <ele>100</ele>
        <time>2014-05-25T09:58:54Z</time>
      </trkpt>
      <trkpt lat="48.75128" lon="2.51564">
        <ele>100</ele>
        <time>2014-05-25T09:58:55Z</time>
      </trkpt>
      <trkpt lat="48.75128" lon="2.51564">
        <ele>100</ele>
        <time>2014-05-25T09:58:56Z</time>
      </trkpt>
      <trkpt lat="48.75129" lon="2.51565">
        <ele>100</ele>
        <time>2014-05-25T09:58:57Z</time>
      </trkpt>
      <trkpt lat="48.7513" lon="2.51566">
        <ele>100</ele>
        <time>2014-05-25T09:58:58Z</time>
      </trkpt>
      <trkpt lat="48.75132" lon="2.51568">
        <ele>100</ele>
        <time>2014-05-25T09:58:59Z</time>
      </trkpt>
      <trkpt lat="48.75133" lon="2.51569">
        <ele>101</ele>
        <time>2014-05-25T09:59:00Z</time>
      </trkpt>
      <trkpt lat="48.75134" lon="2.5157">
        <ele>101</ele>
        <time>2014-05-25T09:59:01Z</time>
      </trkpt>
      <trkpt lat="48.75135" lon="2.51571">
        <ele>101</ele>
        <time>2014-05-25T09:59:02Z</time>
      </trkpt>
      <trkpt lat="48.75136" lon="2.51572">
        <ele>101</ele>
        <time>2014-05-25T09:59:03Z</time>
      </trkpt>
      <trkpt lat="48.75137" lon="2.51573">
        <ele>102</ele>
        <time>2014-05-25T09:59:04Z</time>
      </trkpt>
      <trkpt lat="48.75138" lon="2.51574">
        <ele>102</ele>
        <time>2014-05-25T09:59:05Z</time>
      </trkpt>
      <trkpt lat="48.75139" lon="2.51575">
        <ele>102</ele>
        <time>2014-05-25T09:59:06Z</time>
      </trkpt>
      <trkpt lat="48.75141" lon="2.51576">
        <ele>102</ele>
        <time>2014-05-25T09:59:07Z</time>
      </trkpt>
      <trkpt lat="48.75142" lon="2.51577">
        <ele>102</ele>
        <time>2014-05-25T09:59:08Z</time>
      </trkpt>
      <trkpt lat="48.75143" lon="2.51578">
        <ele>102</ele>
        <time>2014-05-25T09:59:09Z</time>
      </trkpt>
      <trkpt lat="48.75144" lon="2.5158">
        <ele>102</ele>
        <time>2014-05-25T09:59:10Z</time>
      </trkpt>
      <trkpt lat="48.75145" lon="2.51581">
        <ele>102</ele>
        <time>2014-05-25T09:59:11Z</time>
      </trkpt>
      <trkpt lat="48.75146" lon="2.51582">
        <ele>102</ele>
        <time>2014-05-25T09:59:12Z</time>
      </trkpt>
      <trkpt lat="48.75147" lon="2.51583">
        <ele>102</ele>
        <time>2014-05-25T09:59:13Z</time>
      </trkpt>
      <trkpt lat="48.75149" lon="2.51584">
        <ele>102</ele>
        <time>2014-05-25T09:59:14Z</time>
      </trkpt>
      <trkpt lat="48.7515" lon="2.51585">
        <ele>102</ele>
        <time>2014-05-25T09:59:15Z</time>
      </trkpt>
      <trkpt lat="48.75151" lon="2.51586">
        <ele>102</ele>
        <time>2014-05-25T09:59:16Z</time>
      </trkpt>
      <trkpt lat="48.75152" lon="2.51587">
        <ele>102</ele>
        <time>2014-05-25T09:59:17Z</time>
      </trkpt>
      <trkpt lat="48.75153" lon="2.51588">
        <ele>102</ele>
        <time>2014-05-25T09:59:18Z</time>
      </trkpt>
      <trkpt lat="48.75154" lon="2.5159">
        <ele>102</ele>
        <time>2014-05-25T09:59:19Z</time>
      </trkpt>
      <trkpt lat="48.75156" lon="2.51591">
        <ele>102</ele>
        <time>2014-05-25T09:59:20Z</time>
      </trkpt>
      <trkpt lat="48.75157" lon="2.51592">
        <ele>102</ele>
        <time>2014-05-25T09:59:21Z</time>
      </trkpt>
      <trkpt lat="48.75158" lon="2.51593">
        <ele>102</ele>
        <time>2014-05-25T09:59:22Z</time>
      </trkpt>
      <trkpt lat="48.75159" lon="2.51594">
        <ele>102</ele>
        <time>2014-05-25T09:59:23Z</time>
      </trkpt>
      <trkpt lat="48.7516" lon="2.51596">
        <ele>102</ele>
        <time>2014-05-25T09:59:24Z</time>
      </trkpt>
      <trkpt lat="48.75161" lon="2.51597">
        <ele>102</ele>
        <time>2014-05-25T09:59:25Z</time>
      </trkpt>
      <trkpt lat="48.75162" lon="2.51598">
        <ele>102</ele>
        <time>2014-05-25T09:59:26Z</time>
      </trkpt>
      <trkpt lat="48.75164" lon="2.51599">
        <ele>102</ele>
        <time>2014-05-25T09:59:27Z</time>
      </trkpt>
      <trkpt lat="48.75165" lon="2.51601">
        <ele>102</ele>
        <time>2014-05-25T09:59:28Z</time>
      </trkpt>
      <trkpt lat="48.75166" lon="2.51602">
        <ele>102</ele>
        <time>2014-05-25T09:59:29Z</time>
      </trkpt>
      <trkpt lat="48.75167" lon="2.51603">
        <ele>102</ele>
        <time>2014-05-25T09:59:30Z</time>
      </trkpt>
      <trkpt lat="48.75168" lon="2.51605">
        <ele>102</ele>
        <time>2014-05-25T09:59:31Z</time>
      </trkpt>
      <trkpt lat="48.75169" lon="2.51606">
        <ele>102</ele>
        <time>2014-05-25T09:59:32Z</time>
      </trkpt>
      <trkpt lat="48.7517" lon="2.51607">
        <ele>103</ele>
        <time>2014-05-25T09:59:33Z</time>
      </trkpt>
      <trkpt lat="48.75172" lon="2.51608">
        <ele>103</ele>
        <time>2014-05-25T09:59:34Z</time>
      </trkpt>
      <trkpt lat="48.75173" lon="2.5161">
        <ele>103</ele>
        <time>2014-05-25T09:59:35Z</time>
      </trkpt>
      <trkpt lat="48.75174" lon="2.51611">
        <ele>102</ele>
        <time>2014-05-25T09:59:36Z</time>
      </trkpt>
      <trkpt lat="48.75175" lon="2.51612">
        <ele>103</ele>
        <time>2014-05-25T09:59:37Z</time>
      </trkpt>
      <trkpt lat="48.75176" lon="2.51614">
        <ele>103</ele>
        <time>2014-05-25T09:59:38Z</time>
      </trkpt>
      <trkpt lat="48.75178" lon="2.51615">
        <ele>102</ele>
        <time>2014-05-25T09:59:39Z</time>
      </trkpt>
      <trkpt lat="48.75179" lon="2.51616">
        <ele>102</ele>
        <time>2014-05-25T09:59:40Z</time>
      </trkpt>
      <trkpt lat="48.7518" lon="2.51618">
        <ele>103</ele>
        <time>2014-05-25T09:59:41Z</time>
      </trkpt>
      <trkpt lat="48.75181" lon="2.51619">
        <ele>103</ele>
        <time>2014-05-25T09:59:42Z</time>
      </trkpt>
      <trkpt lat="48.75182" lon="2.51621">
        <ele>103</ele>
        <time>2014-05-25T09:59:43Z</time>
      </trkpt>
      <trkpt lat="48.75183" lon="2.51622">
        <ele>103</ele>
        <time>2014-05-25T09:59:44Z</time>
      </trkpt>
      <trkpt lat="48.75184" lon="2.51624">
        <ele>103</ele>
        <time>2014-05-25T09:59:45Z</time>
      </trkpt>
      <trkpt lat="48.75186" lon="2.51625">
        <ele>103</ele>
        <time>2014-05-25T09:59:46Z</time>
      </trkpt>
      <trkpt lat="48.75187" lon="2.51626">
        <ele>104</ele>
        <time>2014-05-25T09:59:47Z</time>
      </trkpt>
      <trkpt lat="48.75187" lon="2.51628">
        <ele>105</ele>
        <time>2014-05-25T09:59:48Z</time>
      </trkpt>
      <trkpt lat="48.75188" lon="2.51629">
        <ele>105</ele>
        <time>2014-05-25T09:59:49Z</time>
      </trkpt>
      <trkpt lat="48.75189" lon="2.51631">
        <ele>106</ele>
        <time>2014-05-25T09:59:50Z</time>
      </trkpt>
      <trkpt lat="48.75189" lon="2.51632">
        <ele>106</ele>
        <time>2014-05-25T09:59:51Z</time>
      </trkpt>
      <trkpt lat="48.7519" lon="2.51634">
        <ele>106</ele>
        <time>2014-05-25T09:59:52Z</time>
      </trkpt>
      <trkpt lat="48.75191" lon="2.51635">
        <ele>106</ele>
        <time>2014-05-25T09:59:53Z</time>
      </trkpt>
      <trkpt lat="48.75192" lon="2.51636">
        <ele>106</ele>
        <time>2014-05-25T09:59:54Z</time>
      </trkpt>
      <trkpt lat="48.75193" lon="2.51637">
        <ele>105</ele>
        <time>2014-05-25T09:59:55Z</time>
      </trkpt>
      <trkpt lat="48.75194" lon="2.51638">
        <ele>105</ele>
        <time>2014-05-25T09:59:56Z</time>
      </trkpt>
      <trkpt lat="48.75196" lon="2.51639">
        <ele>104</ele>
        <time>2014-05-25T09:59:57Z</time>
      </trkpt>
      <trkpt lat="48.75197" lon="2.5164">
        <ele>103</ele>
        <time>2014-05-25T09:59:58Z</time>
      </trkpt>
      <trkpt lat="48.75199" lon="2.51642">
        <ele>103</ele>
        <time>2014-05-25T09:59:59Z</time>
      </trkpt>
      <trkpt lat="48.752" lon="2.51643">
        <ele>102</ele>
        <time>2014-05-25T10:00:00Z</time>
      </trkpt>
      <trkpt lat="48.75201" lon="2.51644">
        <ele>102</ele>
        <time>2014-05-25T10:00:01Z</time>
      </trkpt>
      <trkpt lat="48.75202" lon="2.51646">
        <ele>102</ele>
        <time>2014-05-25T10:00:02Z</time>
      </trkpt>
      <trkpt lat="48.75203" lon="2.51648">
        <ele>102</ele>
        <time>2014-05-25T10:00:03Z</time>
      </trkpt>
      <trkpt lat="48.75204" lon="2.51649">
        <ele>102</ele>
        <time>2014-05-25T10:00:04Z</time>
      </trkpt>
      <trkpt lat="48.75204" lon="2.51651">
        <ele>103</ele>
        <time>2014-05-25T10:00:05Z</time>
      </trkpt>
      <trkpt lat="48.75203" lon="2.51653">
        <ele>101</ele>
        <time>2014-05-25T10:00:06Z</time>
      </trkpt>
      <trkpt lat="48.75203" lon="2.51655">
        <ele>102</ele>
        <time>2014-05-25T10:00:07Z</time>
      </trkpt>
      <trkpt lat="48.75203" lon="2.51657">
        <ele>101</ele>
        <time>2014-05-25T10:00:08Z</time>
      </trkpt>
      <trkpt lat="48.75202" lon="2.51659">
        <ele>101</ele>
        <time>2014-05-25T10:00:09Z</time>
      </trkpt>
      <trkpt lat="48.75201" lon="2.5166">
        <ele>101</ele>
        <time>2014-05-25T10:00:10Z</time>
      </trkpt>
      <trkpt lat="48.752" lon="2.51662">
        <ele>101</ele>
        <time>2014-05-25T10:00:11Z</time>
      </trkpt>
      <trkpt lat="48.752" lon="2.51663">
        <ele>101</ele>
        <time>2014-05-25T10:00:12Z</time>
      </trkpt>
      <trkpt lat="48.75199" lon="2.51665">
        <ele>101</ele>
        <time>2014-05-25T10:00:13Z</time>
      </trkpt>
      <trkpt lat="48.75198" lon="2.51666">
        <ele>101</ele>
        <time>2014-05-25T10:00:14Z</time>
      </trkpt>
      <trkpt lat="48.75197" lon="2.51668">
        <ele>101</ele>
        <time>2014-05-25T10:00:15Z</time>
      </trkpt>
      <trkpt lat="48.75197" lon="2.51669">
        <ele>101</ele>
        <time>2014-05-25T10:00:16Z</time>
      </trkpt>
      <trkpt lat="48.75196" lon="2.51671">
        <ele>101</ele>
        <time>2014-05-25T10:00:17Z</time>
      </trkpt>
      <trkpt lat="48.75195" lon="2.51672">
        <ele>102</ele>
        <time>2014-05-25T10:00:18Z</time>
      </trkpt>
      <trkpt lat="48.75194" lon="2.51674">
        <ele>102</ele>
        <time>2014-05-25T10:00:19Z</time>
      </trkpt>
      <trkpt lat="48.75193" lon="2.51675">
        <ele>102</ele>
        <time>2014-05-25T10:00:20Z</time>
      </trkpt>
      <trkpt lat="48.75193" lon="2.51676">
        <ele>102</ele>
        <time>2014-05-25T10:00:21Z</time>
      </trkpt>
      <trkpt lat="48.75191" lon="2.51677">
        <ele>101</ele>
        <time>2014-05-25T10:00:22Z</time>
      </trkpt>
      <trkpt lat="48.7519" lon="2.51679">
        <ele>101</ele>
        <time>2014-05-25T10:00:23Z</time>
      </trkpt>
      <trkpt lat="48.7519" lon="2.5168">
        <ele>101</ele>
        <time>2014-05-25T10:00:24Z</time>
      </trkpt>
      <trkpt lat="48.75189" lon="2.51682">
        <ele>101</ele>
        <time>2014-05-25T10:00:25Z</time>
      </trkpt>
      <trkpt lat="48.75188" lon="2.51683">
        <ele>101</ele>
        <time>2014-05-25T10:00:26Z</time>
      </trkpt>
      <trkpt lat="48.75188" lon="2.51685">
        <ele>101</ele>
        <time>2014-05-25T10:00:27Z</time>
      </trkpt>
      <trkpt lat="48.75187" lon="2.51686">
        <ele>101</ele>
        <time>2014-05-25T10:00:28Z</time>
      </trkpt>
      <trkpt lat="48.75187" lon="2.51687">
        <ele>102</ele>
        <time>2014-05-25T10:00:29Z</time>
      </trkpt>
      <trkpt lat="48.75186" lon="2.51689">
        <ele>102</ele>
        <time>2014-05-25T10:00:30Z</time>
      </trkpt>
      <trkpt lat="48.75186" lon="2.5169">
        <ele>102</ele>
        <time>2014-05-25T10:00:31Z</time>
      </trkpt>
      <trkpt lat="48.75185" lon="2.51692">
        <ele>102</ele>
        <time>2014-05-25T10:00:32Z</time>
      </trkpt>
      <trkpt lat="48.75183" lon="2.51693">
        <ele>103</ele>
        <time>2014-05-25T10:00:33Z</time>
      </trkpt>
      <trkpt lat="48.75182" lon="2.51695">
        <ele>102</ele>
        <time>2014-05-25T10:00:34Z</time>
      </trkpt>
      <trkpt lat="48.75181" lon="2.51697">
        <ele>103</ele>
        <time>2014-05-25T10:00:35Z</time>
      </trkpt>
      <trkpt lat="48.7518" lon="2.51698">
        <ele>103</ele>
        <time>2014-05-25T10:00:36Z</time>
      </trkpt>
      <trkpt lat="48.75179" lon="2.517">
        <ele>103</ele>
        <time>2014-05-25T10:00:37Z</time>
      </trkpt>
      <trkpt lat="48.75178" lon="2.51702">
        <ele>104</ele>
        <time>2014-05-25T10:00:38Z</time>
      </trkpt>
      <trkpt lat="48.75177" lon="2.51703">
        <ele>104</ele>
        <time>2014-05-25T10:00:39Z</time>
      </trkpt>
      <trkpt lat="48.75176" lon="2.51705">
        <ele>105</ele>
        <time>2014-05-25T10:00:40Z</time>
      </trkpt>
      <trkpt lat="48.75176" lon="2.51706">
        <ele>105</ele>
        <time>2014-05-25T10:00:41Z</time>
      </trkpt>
      <trkpt lat="48.75175" lon="2.51708">
        <ele>107</ele>
        <time>2014-05-25T10:00:42Z</time>
      </trkpt>
      <trkpt lat="48.75174" lon="2.51709">
        <ele>108</ele>
        <time>2014-05-25T10:00:43Z</time>
      </trkpt>
      <trkpt lat="48.75173" lon="2.5171">
        <ele>108</ele>
        <time>2014-05-25T10:00:44Z</time>
      </trkpt>
      <trkpt lat="48.75173" lon="2.51712">
        <ele>108</ele>
        <time>2014-05-25T10:00:45Z</time>
      </trkpt>
      <trkpt lat="48.75172" lon="2.51713">
        <ele>108</ele>
        <time>2014-05-25T10:00:46Z</time>
      </trkpt>
      <trkpt lat="48.75171" lon="2.51715">
        <ele>108</ele>
        <time>2014-05-25T10:00:47Z</time>
      </trkpt>
      <trkpt lat="48.7517" lon="2.51716">
        <ele>107</ele>
        <time>2014-05-25T10:00:48Z</time>
      </trkpt>
      <trkpt lat="48.75169" lon="2.51718">
        <ele>108</ele>
        <time>2014-05-25T10:00:49Z</time>
      </trkpt>
      <trkpt lat="48.75168" lon="2.51719">
        <ele>107</ele>
        <time>2014-05-25T10:00:50Z</time>
      </trkpt>
      <trkpt lat="48.75167" lon="2.5172">
        <ele>106</ele>
        <time>2014-05-25T10:00:51Z</time>
      </trkpt>
      <trkpt lat="48.75166" lon="2.51722">
        <ele>105</ele>
        <time>2014-05-25T10:00:52Z</time>
      </trkpt>
      <trkpt lat="48.75165" lon="2.51723">
        <ele>104</ele>
        <time>2014-05-25T10:00:53Z</time>
      </trkpt>
      <trkpt lat="48.75165" lon="2.51725">
        <ele>104</ele>
        <time>2014-05-25T10:00:54Z</time>
      </trkpt>
      <trkpt lat="48.75164" lon="2.51727">
        <ele>103</ele>
        <time>2014-05-25T10:00:55Z</time>
      </trkpt>
      <trkpt lat="48.75163" lon="2.51728">
        <ele>104</ele>
        <time>2014-05-25T10:00:56Z</time>
      </trkpt>
      <trkpt lat="48.75162" lon="2.5173">
        <ele>104</ele>
        <time>2014-05-25T10:00:57Z</time>
      </trkpt>
      <trkpt lat="48.75161" lon="2.51731">
        <ele>104</ele>
        <time>2014-05-25T10:00:58Z</time>
      </trkpt>
      <trkpt lat="48.7516" lon="2.51733">
        <ele>104</ele>
        <time>2014-05-25T10:00:59Z</time>
      </trkpt>
      <trkpt lat="48.75159" lon="2.51734">
        <ele>104</ele>
        <time>2014-05-25T10:01:00Z</time>
      </trkpt>
      <trkpt lat="48.75159" lon="2.51736">
        <ele>105</ele>
        <time>2014-05-25T10:01:01Z</time>
      </trkpt>
      <trkpt lat="48.75158" lon="2.51737">
        <ele>105</ele>
        <time>2014-05-25T10:01:02Z</time>
      </trkpt>
      <trkpt lat="48.75157" lon="2.51739">
        <ele>106</ele>
        <time>2014-05-25T10:01:03Z</time>
      </trkpt>
      <trkpt lat="48.75156" lon="2.5174">
        <ele>107</ele>
        <time>2014-05-25T10:01:04Z</time>
      </trkpt>
      <trkpt lat="48.75155" lon="2.51741">
        <ele>107</ele>
        <time>2014-05-25T10:01:05Z</time>
      </trkpt>
      <trkpt lat="48.75154" lon="2.51743">
        <ele>108</ele>
        <time>2014-05-25T10:01:06Z</time>
      </trkpt>
      <trkpt lat="48.75153" lon="2.51745">
        <ele>108</ele>
        <time>2014-05-25T10:01:07Z</time>
      </trkpt>
      <trkpt lat="48.75152" lon="2.51746">
        <ele>108</ele>
        <time>2014-05-25T10:01:08Z</time>
      </trkpt>
      <trkpt lat="48.75151" lon="2.51748">
        <ele>107</ele>
        <time>2014-05-25T10:01:09Z</time>
      </trkpt>
      <trkpt lat="48.7515" lon="2.51749">
        <ele>107</ele>
        <time>2014-05-25T10:01:10Z</time>
      </trkpt>
      <trkpt lat="48.7515" lon="2.51751">
        <ele>107</ele>
        <time>2014-05-25T10:01:11Z</time>
      </trkpt>
      <trkpt lat="48.75149" lon="2.51753">
        <ele>106</ele>
        <time>2014-05-25T10:01:12Z</time>
      </trkpt>
      <trkpt lat="48.75148" lon="2.51754">
        <ele>106</ele>
        <time>2014-05-25T10:01:13Z</time>
      </trkpt>
      <trkpt lat="48.75148" lon="2.51756">
        <ele>106</ele>
        <time>2014-05-25T10:01:14Z</time>
      </trkpt>
      <trkpt lat="48.75146" lon="2.51757">
        <ele>106</ele>
        <time>2014-05-25T10:01:15Z</time>
      </trkpt>
      <trkpt lat="48.75145" lon="2.51759">
        <ele>105</ele>
        <time>2014-05-25T10:01:16Z</time>
      </trkpt>
      <trkpt lat="48.75145" lon="2.5176">
        <ele>105</ele>
        <time>2014-05-25T10:01:17Z</time>
      </trkpt>
      <trkpt lat="48.75144" lon="2.51762">
        <ele>105</ele>
        <time>2014-05-25T10:01:18Z</time>
      </trkpt>
      <trkpt lat="48.75143" lon="2.51763">
        <ele>105</ele>
        <time>2014-05-25T10:01:19Z</time>
      </trkpt>
      <trkpt lat="48.75142" lon="2.51765">
        <ele>106</ele>
        <time>2014-05-25T10:01:20Z</time>
      </trkpt>
      <trkpt lat="48.75141" lon="2.51767">
        <ele>106</ele>
        <time>2014-05-25T10:01:21Z</time>
      </trkpt>
      <trkpt lat="48.7514" lon="2.51768">
        <ele>106</ele>
        <time>2014-05-25T10:01:22Z</time>
      </trkpt>
      <trkpt lat="48.75139" lon="2.5177">
        <ele>105</ele>
        <time>2014-05-25T10:01:23Z</time>
      </trkpt>
      <trkpt lat="48.75139" lon="2.51772">
        <ele>105</ele>
        <time>2014-05-25T10:01:24Z</time>
      </trkpt>
      <trkpt lat="48.75138" lon="2.51774">
        <ele>105</ele>
        <time>2014-05-25T10:01:25Z</time>
      </trkpt>
      <trkpt lat="48.75137" lon="2.51776">
        <ele>104</ele>
        <time>2014-05-25T10:01:26Z</time>
      </trkpt>
      <trkpt lat="48.75137" lon="2.51777">
        <ele>104</ele>
        <time>2014-05-25T10:01:27Z</time>
      </trkpt>
      <trkpt lat="48.75136" lon="2.51778">
        <ele>104</ele>
        <time>2014-05-25T10:01:28Z</time>
      </trkpt>
      <trkpt lat="48.75135" lon="2.51779">
        <ele>103</ele>
        <time>2014-05-25T10:01:29Z</time>
      </trkpt>
      <trkpt lat="48.75134" lon="2.5178">
        <ele>103</ele>
        <time>2014-05-25T10:01:30Z</time>
      </trkpt>
      <trkpt lat="48.75133" lon="2.51781">
        <ele>104</ele>
        <time>2014-05-25T10:01:31Z</time>
      </trkpt>
      <trkpt lat="48.75132" lon="2.51782">
        <ele>104</ele>
        <time>2014-05-25T10:01:32Z</time>
      </trkpt>
      <trkpt lat="48.75131" lon="2.51783">
        <ele>103</ele>
        <time>2014-05-25T10:01:33Z</time>
      </trkpt>
      <trkpt lat="48.7513" lon="2.51784">
        <ele>103</ele>
        <time>2014-05-25T10:01:34Z</time>
      </trkpt>
      <trkpt lat="48.75129" lon="2.51786">
        <ele>104</ele>
        <time>2014-05-25T10:01:35Z</time>
      </trkpt>
      <trkpt lat="48.75128" lon="2.51788">
        <ele>104</ele>
        <time>2014-05-25T10:01:36Z</time>
      </trkpt>
      <trkpt lat="48.75128" lon="2.5179">
        <ele>104</ele>
        <time>2014-05-25T10:01:37Z</time>
      </trkpt>
      <trkpt lat="48.75127" lon="2.51791">
        <ele>104</ele>
        <time>2014-05-25T10:01:38Z</time>
      </trkpt>
      <trkpt lat="48.75127" lon="2.51793">
        <ele>103</ele>
        <time>2014-05-25T10:01:39Z</time>
      </trkpt>
      <trkpt lat="48.75127" lon="2.51795">
        <ele>103</ele>
        <time>2014-05-25T10:01:40Z</time>
      </trkpt>
      <trkpt lat="48.75128" lon="2.51796">
        <ele>103</ele>
        <time>2014-05-25T10:01:41Z</time>
      </trkpt>
      <trkpt lat="48.75129" lon="2.51797">
        <ele>104</ele>
        <time>2014-05-25T10:01:42Z</time>
      </trkpt>
      <trkpt lat="48.7513" lon="2.51798">
        <ele>104</ele>
        <time>2014-05-25T10:01:43Z</time>
      </trkpt>
      <trkpt lat="48.75131" lon="2.518">
        <ele>105</ele>
        <time>2014-05-25T10:01:44Z</time>
      </trkpt>
      <trkpt lat="48.75131" lon="2.51801">
        <ele>105</ele>
        <time>2014-05-25T10:01:45Z</time>
      </trkpt>
      <trkpt lat="48.75132" lon="2.51802">
        <ele>105</ele>
        <time>2014-05-25T10:01:46Z</time>
      </trkpt>
      <trkpt lat="48.75133" lon="2.51803">
        <ele>105</ele>
        <time>2014-05-25T10:01:47Z</time>
      </trkpt>
      <trkpt lat="48.75134" lon="2.51805">
        <ele>105</ele>
        <time>2014-05-25T10:01:48Z</time>
      </trkpt>
      <trkpt lat="48.75135" lon="2.51806">
        <ele>105</ele>
        <time>2014-05-25T10:01:49Z</time>
      </trkpt>
      <trkpt lat="48.75136" lon="2.51807">
        <ele>105</ele>
        <time>2014-05-25T10:01:50Z</time>
      </trkpt>
      <trkpt lat="48.75136" lon="2.51809">
        <ele>105</ele>
        <time>2014-05-25T10:01:51Z</time>
      </trkpt>
      <trkpt lat="48.75137" lon="2.5181">
        <ele>104</ele>
        <time>2014-05-25T10:01:52Z</time>
      </trkpt>
      <trkpt lat="48.75138" lon="2.51812">
        <ele>104</ele>
        <time>2014-05-25T10:01:53Z</time>
      </trkpt>
      <trkpt lat="48.75138" lon="2.51813">
        <ele>105</ele>
        <time>2014-05-25T10:01:54Z</time>
      </trkpt>
      <trkpt lat="48.75139" lon="2.51814">
        <ele>105</ele>
        <time>2014-05-25T10:01:55Z</time>
      </trkpt>
      <trkpt lat="48.7514" lon="2.51815">
        <ele>105</ele>
        <time>2014-05-25T10:01:56Z</time>
      </trkpt>
      <trkpt lat="48.75139" lon="2.51816">
        <ele>105</ele>
        <time>2014-05-25T10:01:57Z</time>
      </trkpt>
      <trkpt lat="48.7514" lon="2.51818">
        <ele>105</ele>
        <time>2014-05-25T10:01:58Z</time>
      </trkpt>
      <trkpt lat="48.7514" lon="2.51819">
        <ele>104</ele>
        <time>2014-05-25T10:01:59Z</time>
      </trkpt>
      <trkpt lat="48.75141" lon="2.5182">
        <ele>105</ele>
        <time>2014-05-25T10:02:00Z</time>
      </trkpt>
      <trkpt lat="48.75141" lon="2.51821">
        <ele>105</ele>
        <time>2014-05-25T10:02:01Z</time>
      </trkpt>
      <trkpt lat="48.75142" lon="2.51823">
        <ele>106</ele>
        <time>2014-05-25T10:02:02Z</time>
      </trkpt>
      <trkpt lat="48.75143" lon="2.51824">
        <ele>106</ele>
        <time>2014-05-25T10:02:03Z</time>
      </trkpt>
      <trkpt lat="48.75144" lon="2.51825">
        <ele>106</ele>
        <time>2014-05-25T10:02:04Z</time>
      </trkpt>
      <trkpt lat="48.75145" lon="2.51827">
        <ele>106</ele>
        <time>2014-05-25T10:02:05Z</time>
      </trkpt>
      <trkpt lat="48.75146" lon="2.51828">
        <ele>105</ele>
        <time>2014-05-25T10:02:06Z</time>
      </trkpt>
      <trkpt lat="48.75147" lon="2.5183">
        <ele>106</ele>
        <time>2014-05-25T10:02:07Z</time>
      </trkpt>
      <trkpt lat="48.75148" lon="2.51831">
        <ele>105</ele>
        <time>2014-05-25T10:02:08Z</time>
      </trkpt>
      <trkpt lat="48.7515" lon="2.51832">
        <ele>105</ele>
        <time>2014-05-25T10:02:09Z</time>
      </trkpt>
      <trkpt lat="48.75151" lon="2.51834">
        <ele>105</ele>
        <time>2014-05-25T10:02:10Z</time>
      </trkpt>
      <trkpt lat="48.75152" lon="2.51836">
        <ele>104</ele>
        <time>2014-05-25T10:02:11Z</time>
      </trkpt>
      <trkpt lat="48.75153" lon="2.51837">
        <ele>103</ele>
        <time>2014-05-25T10:02:12Z</time>
      </trkpt>
      <trkpt lat="48.75154" lon="2.51839">
        <ele>103</ele>
        <time>2014-05-25T10:02:13Z</time>
      </trkpt>
      <trkpt lat="48.75155" lon="2.51841">
        <ele>104</ele>
        <time>2014-05-25T10:02:14Z</time>
      </trkpt>
      <trkpt lat="48.75156" lon="2.51842">
        <ele>103</ele>
        <time>2014-05-25T10:02:15Z</time>
      </trkpt>
      <trkpt lat="48.75157" lon="2.51844">
        <ele>103</ele>
        <time>2014-05-25T10:02:16Z</time>
      </trkpt>
      <trkpt lat="48.75158" lon="2.51846">
        <ele>103</ele>
        <time>2014-05-25T10:02:17Z</time>
      </trkpt>
      <trkpt lat="48.7516" lon="2.51847">
        <ele>103</ele>
        <time>2014-05-25T10:02:18Z</time>
      </trkpt>
      <trkpt lat="48.75161" lon="2.51849">
        <ele>103</ele>
        <time>2014-05-25T10:02:19Z</time>
      </trkpt>
      <trkpt lat="48.75162" lon="2.5185">
        <ele>103</ele>
        <time>2014-05-25T10:02:20Z</time>
      </trkpt>
      <trkpt lat="48.75163" lon="2.51851">
        <ele>103</ele>
        <time>2014-05-25T10:02:21Z</time>
      </trkpt>
      <trkpt lat="48.75165" lon="2.51853">
        <ele>103</ele>
        <time>2014-05-25T10:02:22Z</time>
      </trkpt>
      <trkpt lat="48.75166" lon="2.51854">
        <ele>103</ele>
        <time>2014-05-25T10:02:23Z</time>
      </trkpt>
      <trkpt lat="48.75167" lon="2.51855">
        <ele>103</ele>
        <time>2014-05-25T10:02:24Z</time>
      </trkpt>
      <trkpt lat="48.75168" lon="2.51857">
        <ele>104</ele>
        <time>2014-05-25T10:02:25Z</time>
      </trkpt>
      <trkpt lat="48.75169" lon="2.51858">
        <ele>104</ele>
        <time>2014-05-25T10:02:26Z</time>
      </trkpt>
      <trkpt lat="48.7517" lon="2.5186">
        <ele>104</ele>
        <time>2014-05-25T10:02:27Z</time>
      </trkpt>
      <trkpt lat="48.75171" lon="2.51861">
        <ele>103</ele>
        <time>2014-05-25T10:02:28Z</time>
      </trkpt>
      <trkpt lat="48.75172" lon="2.51863">
        <ele>104</ele>
        <time>2014-05-25T10:02:29Z</time>
      </trkpt>
      <trkpt lat="48.75173" lon="2.51865">
        <ele>104</ele>
        <time>2014-05-25T10:02:30Z</time>
      </trkpt>
      <trkpt lat="48.75174" lon="2.51867">
        <ele>103</ele>
        <time>2014-05-25T10:02:31Z</time>
      </trkpt>
      <trkpt lat="48.75175" lon="2.51868">
        <ele>104</ele>
        <time>2014-05-25T10:02:32Z</time>
      </trkpt>
      <trkpt lat="48.75176" lon="2.5187">
        <ele>103</ele>
        <time>2014-05-25T10:02:33Z</time>
      </trkpt>
      <trkpt lat="48.75177" lon="2.51872">
        <ele>103</ele>
        <time>2014-05-25T10:02:34Z</time>
      </trkpt>
      <trkpt lat="48.75177" lon="2.51874">
        <ele>103</ele>
        <time>2014-05-25T10:02:35Z</time>
      </trkpt>
      <trkpt lat="48.75178" lon="2.51876">
        <ele>103</ele>
        <time>2014-05-25T10:02:36Z</time>
      </trkpt>
      <trkpt lat="48.75179" lon="2.51878">
        <ele>102</ele>
        <time>2014-05-25T10:02:37Z</time>
      </trkpt>
      <trkpt lat="48.7518" lon="2.5188">
        <ele>102</ele>
        <time>2014-05-25T10:02:38Z</time>
      </trkpt>
      <trkpt lat="48.7518" lon="2.51882">
        <ele>102</ele>
        <time>2014-05-25T10:02:39Z</time>
      </trkpt>
      <trkpt lat="48.75181" lon="2.51884">
        <ele>102</ele>
        <time>2014-05-25T10:02:40Z</time>
      </trkpt>
      <trkpt lat="48.75182" lon="2.51886">
        <ele>103</ele>
        <time>2014-05-25T10:02:41Z</time>
      </trkpt>
      <trkpt lat="48.75183" lon="2.51888">
        <ele>103</ele>
        <time>2014-05-25T10:02:42Z</time>
      </trkpt>
      <trkpt lat="48.75184" lon="2.5189">
        <ele>102</ele>
        <time>2014-05-25T10:02:43Z</time>
      </trkpt>
      <trkpt lat="48.75185" lon="2.51892">
        <ele>102</ele>
        <time>2014-05-25T10:02:44Z</time>
      </trkpt>
      <trkpt lat="48.75186" lon="2.51894">
        <ele>102</ele>
        <time>2014-05-25T10:02:45Z</time>
      </trkpt>
      <trkpt lat="48.75186" lon="2.51896">
        <ele>102</ele>
        <time>2014-05-25T10:02:46Z</time>
      </trkpt>
      <trkpt lat="48.75186" lon="2.51898">
        <ele>102</ele>
        <time>2014-05-25T10:02:47Z</time>
      </trkpt>
      <trkpt lat="48.75186" lon="2.519">
        <ele>104</ele>
        <time>2014-05-25T10:02:48Z</time>
      </trkpt>
      <trkpt lat="48.75186" lon="2.51902">
        <ele>104</ele>
        <time>2014-05-25T10:02:49Z</time>
      </trkpt>
      <trkpt lat="48.75185" lon="2.51904">
        <ele>104</ele>
        <time>2014-05-25T10:02:50Z</time>
      </trkpt>
      <trkpt lat="48.75185" lon="2.51906">
        <ele>104</ele>
        <time>2014-05-25T10:02:51Z</time>
      </trkpt>
      <trkpt lat="48.75184" lon="2.51907">
        <ele>104</ele>
        <time>2014-05-25T10:02:52Z</time>
      </trkpt>
      <trkpt lat="48.75183" lon="2.51908">
        <ele>105</ele>
        <time>2014-05-25T10:02:53Z</time>
      </trkpt>
      <trkpt lat="48.75183" lon="2.5191">
        <ele>105</ele>
        <time>2014-05-25T10:02:54Z</time>
      </trkpt>
      <trkpt lat="48.75182" lon="2.51911">
        <ele>104</ele>
        <time>2014-05-25T10:02:55Z</time>
      </trkpt>
      <trkpt lat="48.75181" lon="2.51913">
        <ele>105</ele>
        <time>2014-05-25T10:02:56Z</time>
      </trkpt>
      <trkpt lat="48.75181" lon="2.51915">
        <ele>105</ele>
        <time>2014-05-25T10:02:57Z</time>
      </trkpt>
      <trkpt lat="48.7518" lon="2.51916">
        <ele>106</ele>
        <time>2014-05-25T10:02:58Z</time>
      </trkpt>
      <trkpt lat="48.75179" lon="2.51918">
        <ele>106</ele>
        <time>2014-05-25T10:02:59Z</time>
      </trkpt>
      <trkpt lat="48.75179" lon="2.5192">
        <ele>106</ele>
        <time>2014-05-25T10:03:00Z</time>
      </trkpt>
      <trkpt lat="48.75178" lon="2.51921">
        <ele>107</ele>
        <time>2014-05-25T10:03:01Z</time>
      </trkpt>
      <trkpt lat="48.75177" lon="2.51923">
        <ele>107</ele>
        <time>2014-05-25T10:03:02Z</time>
      </trkpt>
      <trkpt lat="48.75176" lon="2.51925">
        <ele>107</ele>
        <time>2014-05-25T10:03:03Z</time>
      </trkpt>
      <trkpt lat="48.75175" lon="2.51927">
        <ele>107</ele>
        <time>2014-05-25T10:03:04Z</time>
      </trkpt>
      <trkpt lat="48.75175" lon="2.51928">
        <ele>108</ele>
        <time>2014-05-25T10:03:05Z</time>
      </trkpt>
      <trkpt lat="48.75174" lon="2.5193">
        <ele>108</ele>
        <time>2014-05-25T10:03:06Z</time>
      </trkpt>
      <trkpt lat="48.75173" lon="2.51932">
        <ele>108</ele>
        <time>2014-05-25T10:03:07Z</time>
      </trkpt>
      <trkpt lat="48.75172" lon="2.51934">
        <ele>108</ele>
        <time>2014-05-25T10:03:08Z</time>
      </trkpt>
      <trkpt lat="48.75171" lon="2.51935">
        <ele>108</ele>
        <time>2014-05-25T10:03:09Z</time>
      </trkpt>
      <trkpt lat="48.7517" lon="2.51937">
        <ele>108</ele>
        <time>2014-05-25T10:03:10Z</time>
      </trkpt>
      <trkpt lat="48.75169" lon="2.51939">
        <ele>108</ele>
        <time>2014-05-25T10:03:11Z</time>
      </trkpt>
      <trkpt lat="48.75169" lon="2.51941">
        <ele>108</ele>
        <time>2014-05-25T10:03:12Z</time>
      </trkpt>
      <trkpt lat="48.75168" lon="2.51942">
        <ele>109</ele>
        <time>2014-05-25T10:03:13Z</time>
      </trkpt>
      <trkpt lat="48.75167" lon="2.51944">
        <ele>109</ele>
        <time>2014-05-25T10:03:14Z</time>
      </trkpt>
      <trkpt lat="48.75166" lon="2.51946">
        <ele>109</ele>
        <time>2014-05-25T10:03:15Z</time>
      </trkpt>
      <trkpt lat="48.75165" lon="2.51947">
        <ele>110</ele>
        <time>2014-05-25T10:03:16Z</time>
      </trkpt>
      <trkpt lat="48.75164" lon="2.51949">
        <ele>109</ele>
        <time>2014-05-25T10:03:17Z</time>
      </trkpt>
      <trkpt lat="48.75163" lon="2.51951">
        <ele>109</ele>
        <time>2014-05-25T10:03:18Z</time>
      </trkpt>
      <trkpt lat="48.75162" lon="2.51953">
        <ele>109</ele>
        <time>2014-05-25T10:03:19Z</time>
      </trkpt>
      <trkpt lat="48.75161" lon="2.51954">
        <ele>109</ele>
        <time>2014-05-25T10:03:20Z</time>
      </trkpt>
      <trkpt lat="48.75161" lon="2.51956">
        <ele>109</ele>
        <time>2014-05-25T10:03:21Z</time>
      </trkpt>
      <trkpt lat="48.7516" lon="2.51957">
        <ele>109</ele>
        <time>2014-05-25T10:03:22Z</time>
      </trkpt>
      <trkpt lat="48.75159" lon="2.51959">
        <ele>109</ele>
        <time>2014-05-25T10:03:23Z</time>
      </trkpt>
      <trkpt lat="48.75158" lon="2.51961">
        <ele>109</ele>
        <time>2014-05-25T10:03:24Z</time>
      </trkpt>
      <trkpt lat="48.75157" lon="2.51963">
        <ele>109</ele>
        <time>2014-05-25T10:03:25Z</time>
      </trkpt>
      <trkpt lat="48.75156" lon="2.51964">
        <ele>109</ele>
        <time>2014-05-25T10:03:26Z</time>
      </trkpt>
      <trkpt lat="48.75155" lon="2.51966">
        <ele>109</ele>
        <time>2014-05-25T10:03:27Z</time>
      </trkpt>
      <trkpt lat="48.75154" lon="2.51968">
        <ele>109</ele>
        <time>2014-05-25T10:03:28Z</time>
      </trkpt>
      <trkpt lat="48.75153" lon="2.51969">
        <ele>110</ele>
        <time>2014-05-25T10:03:29Z</time>
      </trkpt>
      <trkpt lat="48.75152" lon="2.51971">
        <ele>110</ele>
        <time>2014-05-25T10:03:30Z</time>
      </trkpt>
      <trkpt lat="48.75152" lon="2.51973">
        <ele>110</ele>
        <time>2014-05-25T10:03:31Z</time>
      </trkpt>
      <trkpt lat="48.75151" lon="2.51974">
        <ele>111</ele>
        <time>2014-05-25T10:03:32Z</time>
      </trkpt>
      <trkpt lat="48.7515" lon="2.51976">
        <ele>111</ele>
        <time>2014-05-25T10:03:33Z</time>
      </trkpt>
      <trkpt lat="48.75149" lon="2.51978">
        <ele>111</ele>
        <time>2014-05-25T10:03:34Z</time>
      </trkpt>
      <trkpt lat="48.75148" lon="2.51979">
        <ele>111</ele>
        <time>2014-05-25T10:03:35Z</time>
      </trkpt>
      <trkpt lat="48.75147" lon="2.51981">
        <ele>111</ele>
        <time>2014-05-25T10:03:36Z</time>
      </trkpt>
      <trkpt lat="48.75146" lon="2.51983">
        <ele>112</ele>
        <time>2014-05-25T10:03:37Z</time>
      </trkpt>
      <trkpt lat="48.75145" lon="2.51984">
        <ele>111</ele>
        <time>2014-05-25T10:03:38Z</time>
      </trkpt>
      <trkpt lat="48.75144" lon="2.51986">
        <ele>111</ele>
        <time>2014-05-25T10:03:39Z</time>
      </trkpt>
      <trkpt lat="48.75144" lon="2.51987">
        <ele>111</ele>
        <time>2014-05-25T10:03:40Z</time>
      </trkpt>
      <trkpt lat="48.75143" lon="2.51989">
        <ele>112</ele>
        <time>2014-05-25T10:03:41Z</time>
      </trkpt>
      <trkpt lat="48.75142" lon="2.51991">
        <ele>112</ele>
        <time>2014-05-25T10:03:42Z</time>
      </trkpt>
      <trkpt lat="48.75141" lon="2.51992">
        <ele>112</ele>
        <time>2014-05-25T10:03:43Z</time>
      </trkpt>
      <trkpt lat="48.7514" lon="2.51994">
        <ele>112</ele>
        <time>2014-05-25T10:03:44Z</time>
      </trkpt>
      <trkpt lat="48.75139" lon="2.51995">
        <ele>112</ele>
        <time>2014-05-25T10:03:45Z</time>
      </trkpt>
      <trkpt lat="48.75138" lon="2.51997">
        <ele>112</ele>
        <time>2014-05-25T10:03:46Z</time>
      </trkpt>
      <trkpt lat="48.75138" lon="2.51998">
        <ele>112</ele>
        <time>2014-05-25T10:03:47Z</time>
      </trkpt>
      <trkpt lat="48.75137" lon="2.52">
        <ele>112</ele>
        <time>2014-05-25T10:03:48Z</time>
      </trkpt>
      <trkpt lat="48.75136" lon="2.52002">
        <ele>112</ele>
        <time>2014-05-25T10:03:49Z</time>
      </trkpt>
      <trkpt lat="48.75135" lon="2.52003">
        <ele>113</ele>
        <time>2014-05-25T10:03:50Z</time>
      </trkpt>
      <trkpt lat="48.75134" lon="2.52005">
        <ele>113</ele>
        <time>2014-05-25T10:03:51Z</time>
      </trkpt>
      <trkpt lat="48.75133" lon="2.52006">
        <ele>113</ele>
        <time>2014-05-25T10:03:52Z</time>
      </trkpt>
      <trkpt lat="48.75132" lon="2.52008">
        <ele>112</ele>
        <time>2014-05-25T10:03:53Z</time>
      </trkpt>
      <trkpt lat="48.75131" lon="2.52009">
        <ele>112</ele>
        <time>2014-05-25T10:03:54Z</time>
      </trkpt>
      <trkpt lat="48.7513" lon="2.5201">
        <ele>111</ele>
        <time>2014-05-25T10:03:55Z</time>
      </trkpt>
      <trkpt lat="48.75129" lon="2.52011">
        <ele>111</ele>
        <time>2014-05-25T10:03:56Z</time>
      </trkpt>
      <trkpt lat="48.75127" lon="2.52011">
        <ele>111</ele>
        <time>2014-05-25T10:03:57Z</time>
      </trkpt>
      <trkpt lat="48.75126" lon="2.5201">
        <ele>111</ele>
        <time>2014-05-25T10:03:58Z</time>
      </trkpt>
      <trkpt lat="48.75125" lon="2.52009">
        <ele>110</ele>
        <time>2014-05-25T10:03:59Z</time>
      </trkpt>
      <trkpt lat="48.75124" lon="2.52008">
        <ele>109</ele>
        <time>2014-05-25T10:04:00Z</time>
      </trkpt>
      <trkpt lat="48.75123" lon="2.52007">
        <ele>109</ele>
        <time>2014-05-25T10:04:01Z</time>
      </trkpt>
      <trkpt lat="48.75121" lon="2.52005">
        <ele>109</ele>
        <time>2014-05-25T10:04:02Z</time>
      </trkpt>
      <trkpt lat="48.7512" lon="2.52004">
        <ele>109</ele>
        <time>2014-05-25T10:04:03Z</time>
      </trkpt>
      <trkpt lat="48.7512" lon="2.52003">
        <ele>109</ele>
        <time>2014-05-25T10:04:04Z</time>
      </trkpt>
      <trkpt lat="48.75119" lon="2.52001">
        <ele>109</ele>
        <time>2014-05-25T10:04:05Z</time>
      </trkpt>
      <trkpt lat="48.75118" lon="2.52">
        <ele>109</ele>
        <time>2014-05-25T10:04:06Z</time>
      </trkpt>
      <trkpt lat="48.75117" lon="2.51999">
        <ele>107</ele>
        <time>2014-05-25T10:04:07Z</time>
      </trkpt>
      <trkpt lat="48.75116" lon="2.51998">
        <ele>106</ele>
        <time>2014-05-25T10:04:08Z</time>
      </trkpt>
      <trkpt lat="48.75115" lon="2.51997">
        <ele>104</ele>
        <time>2014-05-25T10:04:09Z</time>
      </trkpt>
      <trkpt lat="48.75114" lon="2.51996">
        <ele>104</ele>
        <time>2014-05-25T10:04:10Z</time>
      </trkpt>
      <trkpt lat="48.75113" lon="2.51995">
        <ele>103</ele>
        <time>2014-05-25T10:04:11Z</time>
      </trkpt>
      <trkpt lat="48.75112" lon="2.51994">
        <ele>103</ele>
        <time>2014-05-25T10:04:12Z</time>
      </trkpt>
      <trkpt lat="48.75111" lon="2.51994">
        <ele>102</ele>
        <time>2014-05-25T10:04:13Z</time>
      </trkpt>
      <trkpt lat="48.7511" lon="2.51993">
        <ele>102</ele>
        <time>2014-05-25T10:04:14Z</time>
      </trkpt>
      <trkpt lat="48.75109" lon="2.51992">
        <ele>101</ele>
        <time>2014-05-25T10:04:15Z</time>
      </trkpt>
      <trkpt lat="48.75108" lon="2.51991">
        <ele>100</ele>
        <time>2014-05-25T10:04:16Z</time>
      </trkpt>
      <trkpt lat="48.75107" lon="2.5199">
        <ele>100</ele>
        <time>2014-05-25T10:04:17Z</time>
      </trkpt>
      <trkpt lat="48.75106" lon="2.51989">
        <ele>100</ele>
        <time>2014-05-25T10:04:18Z</time>
      </trkpt>
      <trkpt lat="48.75105" lon="2.51988">
        <ele>100</ele>
        <time>2014-05-25T10:04:19Z</time>
      </trkpt>
      <trkpt lat="48.75104" lon="2.51988">
        <ele>100</ele>
        <time>2014-05-25T10:04:20Z</time>
      </trkpt>
      <trkpt lat="48.75103" lon="2.51987">
        <ele>101</ele>
        <time>2014-05-25T10:04:21Z</time>
      </trkpt>
      <trkpt lat="48.75103" lon="2.51986">
        <ele>101</ele>
        <time>2014-05-25T10:04:22Z</time>
      </trkpt>
      <trkpt lat="48.75102" lon="2.51985">
        <ele>101</ele>
        <time>2014-05-25T10:04:23Z</time>
      </trkpt>
      <trkpt lat="48.75101" lon="2.51984">
        <ele>100</ele>
        <time>2014-05-25T10:04:24Z</time>
      </trkpt>
      <trkpt lat="48.751" lon="2.51983">
        <ele>100</ele>
        <time>2014-05-25T10:04:25Z</time>
      </trkpt>
      <trkpt lat="48.75099" lon="2.51982">
        <ele>100</ele>
        <time>2014-05-25T10:04:26Z</time>
      </trkpt>
      <trkpt lat="48.75097" lon="2.51982">
        <ele>100</ele>
        <time>2014-05-25T10:04:27Z</time>
      </trkpt>
      <trkpt lat="48.75096" lon="2.51982">
        <ele>99</ele>
        <time>2014-05-25T10:04:28Z</time>
      </trkpt>
      <trkpt lat="48.75095" lon="2.51983">
        <ele>99</ele>
        <time>2014-05-25T10:04:29Z</time>
      </trkpt>
      <trkpt lat="48.75095" lon="2.51984">
        <ele>99</ele>
        <time>2014-05-25T10:04:30Z</time>
      </trkpt>
      <trkpt lat="48.75095" lon="2.51986">
        <ele>99</ele>
        <time>2014-05-25T10:04:31Z</time>
      </trkpt>
      <trkpt lat="48.75094" lon="2.51987">
        <ele>99</ele>
        <time>2014-05-25T10:04:32Z</time>
      </trkpt>
      <trkpt lat="48.75094" lon="2.51988">
        <ele>99</ele>
        <time>2014-05-25T10:04:33Z</time>
      </trkpt>
      <trkpt lat="48.75094" lon="2.51989">
        <ele>99</ele>
        <time>2014-05-25T10:04:34Z</time>
      </trkpt>
      <trkpt lat="48.75093" lon="2.51989">
        <ele>98</ele>
        <time>2014-05-25T10:04:35Z</time>
      </trkpt>
      <trkpt lat="48.75092" lon="2.5199">
        <ele>99</ele>
        <time>2014-05-25T10:04:36Z</time>
      </trkpt>
      <trkpt lat="48.75091" lon="2.5199">
        <ele>99</ele>
        <time>2014-05-25T10:04:37Z</time>
      </trkpt>
      <trkpt lat="48.75091" lon="2.51991">
        <ele>98</ele>
        <time>2014-05-25T10:04:38Z</time>
      </trkpt>
      <trkpt lat="48.7509" lon="2.51992">
        <ele>99</ele>
        <time>2014-05-25T10:04:39Z</time>
      </trkpt>
      <trkpt lat="48.75089" lon="2.51993">
        <ele>99</ele>
        <time>2014-05-25T10:04:40Z</time>
      </trkpt>
      <trkpt lat="48.75089" lon="2.51994">
        <ele>99</ele>
        <time>2014-05-25T10:04:41Z</time>
      </trkpt>
      <trkpt lat="48.75088" lon="2.51995">
        <ele>99</ele>
        <time>2014-05-25T10:04:42Z</time>
      </trkpt>
      <trkpt lat="48.75087" lon="2.51995">
        <ele>99</ele>
        <time>2014-05-25T10:04:43Z</time>
      </trkpt>
      <trkpt lat="48.75087" lon="2.51996">
        <ele>100</ele>
        <time>2014-05-25T10:04:44Z</time>
      </trkpt>
      <trkpt lat="48.75086" lon="2.51997">
        <ele>99</ele>
        <time>2014-05-25T10:04:45Z</time>
      </trkpt>
      <trkpt lat="48.75085" lon="2.51997">
        <ele>99</ele>
        <time>2014-05-25T10:04:46Z</time>
      </trkpt>
      <trkpt lat="48.75083" lon="2.51999">
        <ele>100</ele>
        <time>2014-05-25T10:04:47Z</time>
      </trkpt>
      <trkpt lat="48.75081" lon="2.52">
        <ele>99</ele>
        <time>2014-05-25T10:04:48Z</time>
      </trkpt>
      <trkpt lat="48.7508" lon="2.52001">
        <ele>100</ele>
        <time>2014-05-25T10:04:49Z</time>
      </trkpt>
      <trkpt lat="48.75078" lon="2.52002">
        <ele>100</ele>
        <time>2014-05-25T10:04:50Z</time>
      </trkpt>
      <trkpt lat="48.75077" lon="2.52004">
        <ele>101</ele>
        <time>2014-05-25T10:04:51Z</time>
      </trkpt>
      <trkpt lat="48.75076" lon="2.52006">
        <ele>101</ele>
        <time>2014-05-25T10:04:52Z</time>
      </trkpt>
      <trkpt lat="48.75075" lon="2.52007">
        <ele>102</ele>
        <time>2014-05-25T10:04:53Z</time>
      </trkpt>
      <trkpt lat="48.75074" lon="2.52009">
        <ele>101</ele>
        <time>2014-05-25T10:04:54Z</time>
      </trkpt>
      <trkpt lat="48.75073" lon="2.52011">
        <ele>102</ele>
        <time>2014-05-25T10:04:55Z</time>
      </trkpt>
      <trkpt lat="48.75072" lon="2.52013">
        <ele>102</ele>
        <time>2014-05-25T10:04:56Z</time>
      </trkpt>
      <trkpt lat="48.75071" lon="2.52015">
        <ele>102</ele>
        <time>2014-05-25T10:04:57Z</time>
      </trkpt>
      <trkpt lat="48.7507" lon="2.52017">
        <ele>102</ele>
        <time>2014-05-25T10:04:58Z</time>
      </trkpt>
      <trkpt lat="48.75069" lon="2.52018">
        <ele>103</ele>
        <time>2014-05-25T10:04:59Z</time>
      </trkpt>
      <trkpt lat="48.75067" lon="2.5202">
        <ele>102</ele>
        <time>2014-05-25T10:05:00Z</time>
      </trkpt>
      <trkpt lat="48.75066" lon="2.52021">
        <ele>102</ele>
        <time>2014-05-25T10:05:01Z</time>
      </trkpt>
      <trkpt lat="48.75065" lon="2.52022">
        <ele>102</ele>
        <time>2014-05-25T10:05:02Z</time>
      </trkpt>
      <trkpt lat="48.75063" lon="2.52023">
        <ele>102</ele>
        <time>2014-05-25T10:05:03Z</time>
      </trkpt>
      <trkpt lat="48.75062" lon="2.52024">
        <ele>102</ele>
        <time>2014-05-25T10:05:04Z</time>
      </trkpt>
      <trkpt lat="48.75061" lon="2.52026">
        <ele>104</ele>
        <time>2014-05-25T10:05:05Z</time>
      </trkpt>
      <trkpt lat="48.7506" lon="2.52027">
        <ele>105</ele>
        <time>2014-05-25T10:05:06Z</time>
      </trkpt>
      <trkpt lat="48.7506" lon="2.52029">
        <ele>105</ele>
        <time>2014-05-25T10:05:07Z</time>
      </trkpt>
      <trkpt lat="48.75059" lon="2.5203">
        <ele>107</ele>
        <time>2014-05-25T10:05:08Z</time>
      </trkpt>
      <trkpt lat="48.75058" lon="2.52032">
        <ele>105</ele>
        <time>2014-05-25T10:05:09Z</time>
      </trkpt>
      <trkpt lat="48.75057" lon="2.52033">
        <ele>104</ele>
        <time>2014-05-25T10:05:10Z</time>
      </trkpt>
      <trkpt lat="48.75056" lon="2.52035">
        <ele>104</ele>
        <time>2014-05-25T10:05:11Z</time>
      </trkpt>
      <trkpt lat="48.75056" lon="2.52036">
        <ele>105</ele>
        <time>2014-05-25T10:05:12Z</time>
      </trkpt>
      <trkpt lat="48.75055" lon="2.52038">
        <ele>105</ele>
        <time>2014-05-25T10:05:13Z</time>
      </trkpt>
      <trkpt lat="48.75054" lon="2.52039">
        <ele>106</ele>
        <time>2014-05-25T10:05:14Z</time>
      </trkpt>
      <trkpt lat="48.75053" lon="2.52041">
        <ele>106</ele>
        <time>2014-05-25T10:05:15Z</time>
      </trkpt>
      <trkpt lat="48.75052" lon="2.52042">
        <ele>106</ele>
        <time>2014-05-25T10:05:16Z</time>
      </trkpt>
      <trkpt lat="48.75051" lon="2.52043">
        <ele>107</ele>
        <time>2014-05-25T10:05:17Z</time>
      </trkpt>
      <trkpt lat="48.7505" lon="2.52045">
        <ele>107</ele>
        <time>2014-05-25T10:05:18Z</time>
      </trkpt>
      <trkpt lat="48.75049" lon="2.52046">
        <ele>107</ele>
        <time>2014-05-25T10:05:19Z</time>
      </trkpt>
      <trkpt lat="48.75048" lon="2.52048">
        <ele>108</ele>
        <time>2014-05-25T10:05:20Z</time>
      </trkpt>
      <trkpt lat="48.75047" lon="2.52049">
        <ele>110</ele>
        <time>2014-05-25T10:05:21Z</time>
      </trkpt>
      <trkpt lat="48.75046" lon="2.52051">
        <ele>110</ele>
        <time>2014-05-25T10:05:22Z</time>
      </trkpt>
      <trkpt lat="48.75045" lon="2.52053">
        <ele>110</ele>
        <time>2014-05-25T10:05:23Z</time>
      </trkpt>
      <trkpt lat="48.75044" lon="2.52055">
        <ele>110</ele>
        <time>2014-05-25T10:05:24Z</time>
      </trkpt>
      <trkpt lat="48.75043" lon="2.52057">
        <ele>110</ele>
        <time>2014-05-25T10:05:25Z</time>
      </trkpt>
      <trkpt lat="48.75042" lon="2.52059">
        <ele>110</ele>
        <time>2014-05-25T10:05:26Z</time>
      </trkpt>
      <trkpt lat="48.75042" lon="2.5206">
        <ele>110</ele>
        <time>2014-05-25T10:05:27Z</time>
      </trkpt>
      <trkpt lat="48.75041" lon="2.52063">
        <ele>110</ele>
        <time>2014-05-25T10:05:28Z</time>
      </trkpt>
      <trkpt lat="48.7504" lon="2.52065">
        <ele>111</ele>
        <time>2014-05-25T10:05:29Z</time>
      </trkpt>
      <trkpt lat="48.7504" lon="2.52067">
        <ele>110</ele>
        <time>2014-05-25T10:05:30Z</time>
      </trkpt>
      <trkpt lat="48.75039" lon="2.52069">
        <ele>109</ele>
        <time>2014-05-25T10:05:31Z</time>
      </trkpt>
      <trkpt lat="48.75039" lon="2.52071">
        <ele>108</ele>
        <time>2014-05-25T10:05:32Z</time>
      </trkpt>
      <trkpt lat="48.75038" lon="2.52073">
        <ele>108</ele>
        <time>2014-05-25T10:05:33Z</time>
      </trkpt>
      <trkpt lat="48.75038" lon="2.52075">
        <ele>108</ele>
        <time>2014-05-25T10:05:34Z</time>
      </trkpt>
      <trkpt lat="48.75037" lon="2.52077">
        <ele>107</ele>
        <time>2014-05-25T10:05:35Z</time>
      </trkpt>
      <trkpt lat="48.75038" lon="2.52079">
        <ele>105</ele>
        <time>2014-05-25T10:05:36Z</time>
      </trkpt>
      <trkpt lat="48.75038" lon="2.52081">
        <ele>104</ele>
        <time>2014-05-25T10:05:37Z</time>
      </trkpt>
      <trkpt lat="48.75039" lon="2.52083">
        <ele>103</ele>
        <time>2014-05-25T10:05:38Z</time>
      </trkpt>
      <trkpt lat="48.7504" lon="2.52085">
        <ele>103</ele>
        <time>2014-05-25T10:05:39Z</time>
      </trkpt>
      <trkpt lat="48.75041" lon="2.52086">
        <ele>103</ele>
        <time>2014-05-25T10:05:40Z</time>
      </trkpt>
      <trkpt lat="48.75042" lon="2.52088">
        <ele>104</ele>
        <time>2014-05-25T10:05:41Z</time>
      </trkpt>
      <trkpt lat="48.75043" lon="2.52089">
        <ele>103</ele>
        <time>2014-05-25T10:05:42Z</time>
      </trkpt>
      <trkpt lat="48.75043" lon="2.5209">
        <ele>103</ele>
        <time>2014-05-25T10:05:43Z</time>
      </trkpt>
      <trkpt lat="48.75044" lon="2.52091">
        <ele>104</ele>
        <time>2014-05-25T10:05:44Z</time>
      </trkpt>
      <trkpt lat="48.75044" lon="2.52092">
        <ele>104</ele>
        <time>2014-05-25T10:05:45Z</time>
      </trkpt>
      <trkpt lat="48.75045" lon="2.52094">
        <ele>104</ele>
        <time>2014-05-25T10:05:46Z</time>
      </trkpt>
      <trkpt lat="48.75045" lon="2.52095">
        <ele>105</ele>
        <time>2014-05-25T10:05:47Z</time>
      </trkpt>
      <trkpt lat="48.75046" lon="2.52097">
        <ele>105</ele>
        <time>2014-05-25T10:05:48Z</time>
      </trkpt>
      <trkpt lat="48.75047" lon="2.52099">
        <ele>105</ele>
        <time>2014-05-25T10:05:49Z</time>
      </trkpt>
      <trkpt lat="48.75048" lon="2.521">
        <ele>105</ele>
        <time>2014-05-25T10:05:50Z</time>
      </trkpt>
      <trkpt lat="48.75049" lon="2.52102">
        <ele>106</ele>
        <time>2014-05-25T10:05:51Z</time>
      </trkpt>
      <trkpt lat="48.75051" lon="2.52103">
        <ele>107</ele>
        <time>2014-05-25T10:05:52Z</time>
      </trkpt>
      <trkpt lat="48.75052" lon="2.52105">
        <ele>107</ele>
        <time>2014-05-25T10:05:53Z</time>
      </trkpt>
      <trkpt lat="48.75053" lon="2.52107">
        <ele>107</ele>
        <time>2014-05-25T10:05:54Z</time>
      </trkpt>
      <trkpt lat="48.75054" lon="2.52109">
        <ele>106</ele>
        <time>2014-05-25T10:05:55Z</time>
      </trkpt>
      <trkpt lat="48.75055" lon="2.5211">
        <ele>106</ele>
        <time>2014-05-25T10:05:56Z</time>
      </trkpt>
      <trkpt lat="48.75056" lon="2.52112">
        <ele>106</ele>
        <time>2014-05-25T10:05:57Z</time>
      </trkpt>
      <trkpt lat="48.75057" lon="2.52113">
        <ele>106</ele>
        <time>2014-05-25T10:05:58Z</time>
      </trkpt>
      <trkpt lat="48.75058" lon="2.52115">
        <ele>106</ele>
        <time>2014-05-25T10:05:59Z</time>
      </trkpt>
      <trkpt lat="48.75059" lon="2.52117">
        <ele>107</ele>
        <time>2014-05-25T10:06:00Z</time>
      </trkpt>
      <trkpt lat="48.75059" lon="2.52119">
        <ele>107</ele>
        <time>2014-05-25T10:06:01Z</time>
      </trkpt>
      <trkpt lat="48.7506" lon="2.5212">
        <ele>107</ele>
        <time>2014-05-25T10:06:02Z</time>
      </trkpt>
      <trkpt lat="48.75062" lon="2.52121">
        <ele>107</ele>
        <time>2014-05-25T10:06:03Z</time>
      </trkpt>
      <trkpt lat="48.75062" lon="2.52122">
        <ele>108</ele>
        <time>2014-05-25T10:06:04Z</time>
      </trkpt>
      <trkpt lat="48.75063" lon="2.52124">
        <ele>108</ele>
        <time>2014-05-25T10:06:05Z</time>
      </trkpt>
      <trkpt lat="48.75064" lon="2.52125">
        <ele>107</ele>
        <time>2014-05-25T10:06:06Z</time>
      </trkpt>
      <trkpt lat="48.75065" lon="2.52126">
        <ele>107</ele>
        <time>2014-05-25T10:06:07Z</time>
      </trkpt>
      <trkpt lat="48.75066" lon="2.52127">
        <ele>107</ele>
        <time>2014-05-25T10:06:08Z</time>
      </trkpt>
      <trkpt lat="48.75066" lon="2.52129">
        <ele>105</ele>
        <time>2014-05-25T10:06:09Z</time>
      </trkpt>
      <trkpt lat="48.75067" lon="2.5213">
        <ele>105</ele>
        <time>2014-05-25T10:06:10Z</time>
      </trkpt>
      <trkpt lat="48.75067" lon="2.52132">
        <ele>104</ele>
        <time>2014-05-25T10:06:11Z</time>
      </trkpt>
      <trkpt lat="48.75068" lon="2.52133">
        <ele>105</ele>
        <time>2014-05-25T10:06:12Z</time>
      </trkpt>
      <trkpt lat="48.75069" lon="2.52135">
        <ele>105</ele>
        <time>2014-05-25T10:06:13Z</time>
      </trkpt>
      <trkpt lat="48.75069" lon="2.52137">
        <ele>105</ele>
        <time>2014-05-25T10:06:14Z</time>
      </trkpt>
      <trkpt lat="48.7507" lon="2.52138">
        <ele>105</ele>
        <time>2014-05-25T10:06:15Z</time>
      </trkpt>
      <trkpt lat="48.75071" lon="2.5214">
        <ele>105</ele>
        <time>2014-05-25T10:06:16Z</time>
      </trkpt>
      <trkpt lat="48.75072" lon="2.52141">
        <ele>105</ele>
        <time>2014-05-25T10:06:17Z</time>
      </trkpt>
      <trkpt lat="48.75074" lon="2.52142">
        <ele>105</ele>
        <time>2014-05-25T10:06:18Z</time>
      </trkpt>
      <trkpt lat="48.75075" lon="2.52144">
        <ele>105</ele>
        <time>2014-05-25T10:06:19Z</time>
      </trkpt>
      <trkpt lat="48.75075" lon="2.52145">
        <ele>106</ele>
        <time>2014-05-25T10:06:20Z</time>
      </trkpt>
      <trkpt lat="48.75076" lon="2.52146">
        <ele>106</ele>
        <time>2014-05-25T10:06:21Z</time>
      </trkpt>
      <trkpt lat="48.75077" lon="2.52147">
        <ele>105</ele>
        <time>2014-05-25T10:06:22Z</time>
      </trkpt>
      <trkpt lat="48.75077" lon="2.52148">
        <ele>105</ele>
        <time>2014-05-25T10:06:23Z</time>
      </trkpt>
      <trkpt lat="48.75078" lon="2.5215">
        <ele>106</ele>
        <time>2014-05-25T10:06:24Z</time>
      </trkpt>
      <trkpt lat="48.75079" lon="2.52151">
        <ele>106</ele>
        <time>2014-05-25T10:06:25Z</time>
      </trkpt>
      <trkpt lat="48.75079" lon="2.52153">
        <ele>107</ele>
        <time>2014-05-25T10:06:26Z</time>
      </trkpt>
      <trkpt lat="48.75079" lon="2.52155">
        <ele>109</ele>
        <time>2014-05-25T10:06:27Z</time>
      </trkpt>
      <trkpt lat="48.7508" lon="2.52156">
        <ele>109</ele>
        <time>2014-05-25T10:06:28Z</time>
      </trkpt>
      <trkpt lat="48.75081" lon="2.52157">
        <ele>109</ele>
        <time>2014-05-25T10:06:29Z</time>
      </trkpt>
      <trkpt lat="48.75082" lon="2.52158">
        <ele>109</ele>
        <time>2014-05-25T10:06:30Z</time>
      </trkpt>
      <trkpt lat="48.75083" lon="2.52159">
        <ele>109</ele>
        <time>2014-05-25T10:06:31Z</time>
      </trkpt>
      <trkpt lat="48.75083" lon="2.5216">
        <ele>109</ele>
        <time>2014-05-25T10:06:32Z</time>
      </trkpt>
      <trkpt lat="48.75083" lon="2.52161">
        <ele>110</ele>
        <time>2014-05-25T10:06:33Z</time>
      </trkpt>
      <trkpt lat="48.75083" lon="2.52163">
        <ele>109</ele>
        <time>2014-05-25T10:06:34Z</time>
      </trkpt>
      <trkpt lat="48.75084" lon="2.52164">
        <ele>110</ele>
        <time>2014-05-25T10:06:35Z</time>
      </trkpt>
      <trkpt lat="48.75084" lon="2.52165">
        <ele>109</ele>
        <time>2014-05-25T10:06:36Z</time>
      </trkpt>
      <trkpt lat="48.75085" lon="2.52166">
        <ele>108</ele>
        <time>2014-05-25T10:06:37Z</time>
      </trkpt>
      <trkpt lat="48.75086" lon="2.52167">
        <ele>109</ele>
        <time>2014-05-25T10:06:38Z</time>
      </trkpt>
      <trkpt lat="48.75086" lon="2.52169">
        <ele>108</ele>
        <time>2014-05-25T10:06:39Z</time>
      </trkpt>
      <trkpt lat="48.75087" lon="2.52169">
        <ele>108</ele>
        <time>2014-05-25T10:06:40Z</time>
      </trkpt>
      <trkpt lat="48.75088" lon="2.5217">
        <ele>108</ele>
        <time>2014-05-25T10:06:41Z</time>
      </trkpt>
      <trkpt lat="48.75089" lon="2.52171">
        <ele>106</ele>
        <time>2014-05-25T10:06:42Z</time>
      </trkpt>
      <trkpt lat="48.75091" lon="2.52172">
        <ele>106</ele>
        <time>2014-05-25T10:06:43Z</time>
      </trkpt>
      <trkpt lat="48.75093" lon="2.52173">
        <ele>106</ele>
        <time>2014-05-25T10:06:44Z</time>
      </trkpt>
      <trkpt lat="48.75094" lon="2.52174">
        <ele>105</ele>
        <time>2014-05-25T10:06:45Z</time>
      </trkpt>
      <trkpt lat="48.75095" lon="2.52175">
        <ele>105</ele>
        <time>2014-05-25T10:06:46Z</time>
      </trkpt>
      <trkpt lat="48.75097" lon="2.52176">
        <ele>105</ele>
        <time>2014-05-25T10:06:47Z</time>
      </trkpt>
      <trkpt lat="48.75098" lon="2.52178">
        <ele>104</ele>
        <time>2014-05-25T10:06:48Z</time>
      </trkpt>
      <trkpt lat="48.75099" lon="2.52179">
        <ele>105</ele>
        <time>2014-05-25T10:06:49Z</time>
      </trkpt>
      <trkpt lat="48.751" lon="2.52181">
        <ele>105</ele>
        <time>2014-05-25T10:06:50Z</time>
      </trkpt>
      <trkpt lat="48.75102" lon="2.52182">
        <ele>105</ele>
        <time>2014-05-25T10:06:51Z</time>
      </trkpt>
      <trkpt lat="48.75103" lon="2.52184">
        <ele>107</ele>
        <time>2014-05-25T10:06:52Z</time>
      </trkpt>
      <trkpt lat="48.75104" lon="2.52186">
        <ele>107</ele>
        <time>2014-05-25T10:06:53Z</time>
      </trkpt>
      <trkpt lat="48.75106" lon="2.52187">
        <ele>106</ele>
        <time>2014-05-25T10:06:54Z</time>
      </trkpt>
      <trkpt lat="48.75107" lon="2.52188">
        <ele>106</ele>
        <time>2014-05-25T10:06:55Z</time>
      </trkpt>
      <trkpt lat="48.75109" lon="2.52188">
        <ele>106</ele>
        <time>2014-05-25T10:06:56Z</time>
      </trkpt>
      <trkpt lat="48.7511" lon="2.52189">
        <ele>106</ele>
        <time>2014-05-25T10:06:57Z</time>
      </trkpt>
      <trkpt lat="48.75112" lon="2.52189">
        <ele>106</ele>
        <time>2014-05-25T10:06:58Z</time>
      </trkpt>
      <trkpt lat="48.75113" lon="2.52189">
        <ele>107</ele>
        <time>2014-05-25T10:06:59Z</time>
      </trkpt>
      <trkpt lat="48.75114" lon="2.5219">
        <ele>107</ele>
        <time>2014-05-25T10:07:00Z</time>
      </trkpt>
      <trkpt lat="48.75116" lon="2.52191">
        <ele>106</ele>
        <time>2014-05-25T10:07:01Z</time>
      </trkpt>
      <trkpt lat="48.75117" lon="2.52192">
        <ele>106</ele>
        <time>2014-05-25T10:07:02Z</time>
      </trkpt>
      <trkpt lat="48.75118" lon="2.52193">
        <ele>106</ele>
        <time>2014-05-25T10:07:03Z</time>
      </trkpt>
      <trkpt lat="48.75119" lon="2.52195">
        <ele>107</ele>
        <time>2014-05-25T10:07:04Z</time>
      </trkpt>
      <trkpt lat="48.7512" lon="2.52197">
        <ele>107</ele>
        <time>2014-05-25T10:07:05Z</time>
      </trkpt>
      <trkpt lat="48.75121" lon="2.52199">
        <ele>107</ele>
        <time>2014-05-25T10:07:06Z</time>
      </trkpt>
      <trkpt lat="48.75122" lon="2.52201">
        <ele>107</ele>
        <time>2014-05-25T10:07:07Z</time>
      </trkpt>
      <trkpt lat="48.75123" lon="2.52202">
        <ele>107</ele>
        <time>2014-05-25T10:07:08Z</time>
      </trkpt>
      <trkpt lat="48.75124" lon="2.52204">
        <ele>107</ele>
        <time>2014-05-25T10:07:09Z</time>
      </trkpt>
      <trkpt lat="48.75125" lon="2.52206">
        <ele>108</ele>
        <time>2014-05-25T10:07:10Z</time>
      </trkpt>
      <trkpt lat="48.75126" lon="2.52207">
        <ele>107</ele>
        <time>2014-05-25T10:07:11Z</time>
      </trkpt>
      <trkpt lat="48.75127" lon="2.52209">
        <ele>108</ele>
        <time>2014-05-25T10:07:12Z</time>
      </trkpt>
      <trkpt lat="48.75128" lon="2.5221">
        <ele>108</ele>
        <time>2014-05-25T10:07:13Z</time>
      </trkpt>
      <trkpt lat="48.7513" lon="2.52212">
        <ele>107</ele>
        <time>2014-05-25T10:07:14Z</time>
      </trkpt>
      <trkpt lat="48.75131" lon="2.52213">
        <ele>107</ele>
        <time>2014-05-25T10:07:15Z</time>
      </trkpt>
      <trkpt lat="48.75132" lon="2.52215">
        <ele>108</ele>
        <time>2014-05-25T10:07:16Z</time>
      </trkpt>
      <trkpt lat="48.75133" lon="2.52216">
        <ele>108</ele>
        <time>2014-05-25T10:07:17Z</time>
      </trkpt>
      <trkpt lat="48.75134" lon="2.52217">
        <ele>108</ele>
        <time>2014-05-25T10:07:18Z</time>
      </trkpt>
      <trkpt lat="48.75136" lon="2.52218">
        <ele>108</ele>
        <time>2014-05-25T10:07:19Z</time>
      </trkpt>
      <trkpt lat="48.75137" lon="2.52219">
        <ele>108</ele>
        <time>2014-05-25T10:07:20Z</time>
      </trkpt>
      <trkpt lat="48.75138" lon="2.5222">
        <ele>107</ele>
        <time>2014-05-25T10:07:21Z</time>
      </trkpt>
      <trkpt lat="48.7514" lon="2.52221">
        <ele>107</ele>
        <time>2014-05-25T10:07:22Z</time>
      </trkpt>
      <trkpt lat="48.75141" lon="2.52221">
        <ele>107</ele>
        <time>2014-05-25T10:07:23Z</time>
      </trkpt>
      <trkpt lat="48.75143" lon="2.52222">
        <ele>106</ele>
        <time>2014-05-25T10:07:24Z</time>
      </trkpt>
      <trkpt lat="48.75144" lon="2.52222">
        <ele>106</ele>
        <time>2014-05-25T10:07:25Z</time>
      </trkpt>
      <trkpt lat="48.75146" lon="2.52222">
        <ele>107</ele>
        <time>2014-05-25T10:07:26Z</time>
      </trkpt>
      <trkpt lat="48.75147" lon="2.52222">
        <ele>106</ele>
        <time>2014-05-25T10:07:27Z</time>
      </trkpt>
      <trkpt lat="48.75149" lon="2.52222">
        <ele>106</ele>
        <time>2014-05-25T10:07:28Z</time>
      </trkpt>
      <trkpt lat="48.7515" lon="2.52222">
        <ele>106</ele>
        <time>2014-05-25T10:07:29Z</time>
      </trkpt>
      <trkpt lat="48.75151" lon="2.52221">
        <ele>106</ele>
        <time>2014-05-25T10:07:30Z</time>
      </trkpt>
      <trkpt lat="48.75153" lon="2.52221">
        <ele>106</ele>
        <time>2014-05-25T10:07:31Z</time>
      </trkpt>
      <trkpt lat="48.75154" lon="2.52221">
        <ele>106</ele>
        <time>2014-05-25T10:07:32Z</time>
      </trkpt>
      <trkpt lat="48.75155" lon="2.52221">
        <ele>106</ele>
        <time>2014-05-25T10:07:33Z</time>
      </trkpt>
      <trkpt lat="48.75156" lon="2.52221">
        <ele>106</ele>
        <time>2014-05-25T10:07:34Z</time>
      </trkpt>
      <trkpt lat="48.75158" lon="2.52221">
        <ele>106</ele>
        <time>2014-05-25T10:07:35Z</time>
      </trkpt>
      <trkpt lat="48.75159" lon="2.52221">
        <ele>107</ele>
        <time>2014-05-25T10:07:36Z</time>
      </trkpt>
      <trkpt lat="48.7516" lon="2.52221">
        <ele>107</ele>
        <time>2014-05-25T10:07:37Z</time>
      </trkpt>
      <trkpt lat="48.75161" lon="2.5222">
        <ele>107</ele>
        <time>2014-05-25T10:07:38Z</time>
      </trkpt>
      <trkpt lat="48.75163" lon="2.5222">
        <ele>107</ele>
        <time>2014-05-25T10:07:39Z</time>
      </trkpt>
      <trkpt lat="48.75164" lon="2.5222">
        <ele>107</ele>
        <time>2014-05-25T10:07:40Z</time>
      </trkpt>
      <trkpt lat="48.75165" lon="2.5222">
        <ele>107</ele>
        <time>2014-05-25T10:07:41Z</time>
      </trkpt>
      <trkpt lat="48.75166" lon="2.5222">
        <ele>106</ele>
        <time>2014-05-25T10:07:42Z</time>
      </trkpt>
      <trkpt lat="48.75168" lon="2.5222">
        <ele>109</ele>
        <time>2014-05-25T10:07:43Z</time>
      </trkpt>
      <trkpt lat="48.75169" lon="2.5222">
        <ele>109</ele>
        <time>2014-05-25T10:07:44Z</time>
      </trkpt>
      <trkpt lat="48.7517" lon="2.52221">
        <ele>109</ele>
        <time>2014-05-25T10:07:45Z</time>
      </trkpt>
      <trkpt lat="48.75171" lon="2.52221">
        <ele>110</ele>
        <time>2014-05-25T10:07:46Z</time>
      </trkpt>
      <trkpt lat="48.75173" lon="2.52222">
        <ele>111</ele>
        <time>2014-05-25T10:07:47Z</time>
      </trkpt>
      <trkpt lat="48.75174" lon="2.52223">
        <ele>110</ele>
        <time>2014-05-25T10:07:48Z</time>
      </trkpt>
      <trkpt lat="48.75175" lon="2.52223">
        <ele>110</ele>
        <time>2014-05-25T10:07:49Z</time>
      </trkpt>
      <trkpt lat="48.75176" lon="2.52224">
        <ele>110</ele>
        <time>2014-05-25T10:07:50Z</time>
      </trkpt>
      <trkpt lat="48.75177" lon="2.52225">
        <ele>110</ele>
        <time>2014-05-25T10:07:51Z</time>
      </trkpt>
      <trkpt lat="48.75178" lon="2.52225">
        <ele>110</ele>
        <time>2014-05-25T10:07:52Z</time>
      </trkpt>
      <trkpt lat="48.7518" lon="2.52225">
        <ele>110</ele>
        <time>2014-05-25T10:07:53Z</time>
      </trkpt>
      <trkpt lat="48.75181" lon="2.52226">
        <ele>111</ele>
        <time>2014-05-25T10:07:54Z</time>
      </trkpt>
      <trkpt lat="48.75182" lon="2.52226">
        <ele>111</ele>
        <time>2014-05-25T10:07:55Z</time>
      </trkpt>
      <trkpt lat="48.75183" lon="2.52227">
        <ele>111</ele>
        <time>2014-05-25T10:07:56Z</time>
      </trkpt>
      <trkpt lat="48.75185" lon="2.52227">
        <ele>111</ele>
        <time>2014-05-25T10:07:57Z</time>
      </trkpt>
      <trkpt lat="48.75186" lon="2.52228">
        <ele>112</ele>
        <time>2014-05-25T10:07:58Z</time>
      </trkpt>
      <trkpt lat="48.75187" lon="2.52228">
        <ele>112</ele>
        <time>2014-05-25T10:07:59Z</time>
      </trkpt>
      <trkpt lat="48.75188" lon="2.52229">
        <ele>112</ele>
        <time>2014-05-25T10:08:00Z</time>
      </trkpt>
      <trkpt lat="48.7519" lon="2.52229">
        <ele>113</ele>
        <time>2014-05-25T10:08:01Z</time>
      </trkpt>
      <trkpt lat="48.75191" lon="2.5223">
        <ele>113</ele>
        <time>2014-05-25T10:08:02Z</time>
      </trkpt>
      <trkpt lat="48.75192" lon="2.5223">
        <ele>113</ele>
        <time>2014-05-25T10:08:03Z</time>
      </trkpt>
      <trkpt lat="48.75194" lon="2.52231">
        <ele>113</ele>
        <time>2014-05-25T10:08:04Z</time>
      </trkpt>
      <trkpt lat="48.75195" lon="2.52232">
        <ele>113</ele>
        <time>2014-05-25T10:08:05Z</time>
      </trkpt>
      <trkpt lat="48.75196" lon="2.52233">
        <ele>113</ele>
        <time>2014-05-25T10:08:06Z</time>
      </trkpt>
      <trkpt lat="48.75198" lon="2.52233">
        <ele>112</ele>
        <time>2014-05-25T10:08:07Z</time>
      </trkpt>
      <trkpt lat="48.75198" lon="2.52234">
        <ele>112</ele>
        <time>2014-05-25T10:08:08Z</time>
      </trkpt>
      <trkpt lat="48.75199" lon="2.52236">
        <ele>112</ele>
        <time>2014-05-25T10:08:09Z</time>
      </trkpt>
      <trkpt lat="48.752" lon="2.52237">
        <ele>113</ele>
        <time>2014-05-25T10:08:10Z</time>
      </trkpt>
      <trkpt lat="48.75201" lon="2.52237">
        <ele>112</ele>
        <time>2014-05-25T10:08:11Z</time>
      </trkpt>
      <trkpt lat="48.75202" lon="2.52237">
        <ele>111</ele>
        <time>2014-05-25T10:08:12Z</time>
      </trkpt>
      <trkpt lat="48.75204" lon="2.52237">
        <ele>110</ele>
        <time>2014-05-25T10:08:13Z</time>
      </trkpt>
      <trkpt lat="48.75205" lon="2.52237">
        <ele>110</ele>
        <time>2014-05-25T10:08:14Z</time>
      </trkpt>
      <trkpt lat="48.75205" lon="2.52238">
        <ele>110</ele>
        <time>2014-05-25T10:08:15Z</time>
      </trkpt>
      <trkpt lat="48.75206" lon="2.52239">
        <ele>110</ele>
        <time>2014-05-25T10:08:16Z</time>
      </trkpt>
      <trkpt lat="48.75207" lon="2.5224">
        <ele>109</ele>
        <time>2014-05-25T10:08:17Z</time>
      </trkpt>
      <trkpt lat="48.75208" lon="2.52241">
        <ele>109</ele>
        <time>2014-05-25T10:08:18Z</time>
      </trkpt>
      <trkpt lat="48.75208" lon="2.52243">
        <ele>109</ele>
        <time>2014-05-25T10:08:19Z</time>
      </trkpt>
      <trkpt lat="48.75209" lon="2.52245">
        <ele>110</ele>
        <time>2014-05-25T10:08:20Z</time>
      </trkpt>
      <trkpt lat="48.75209" lon="2.52246">
        <ele>111</ele>
        <time>2014-05-25T10:08:21Z</time>
      </trkpt>
      <trkpt lat="48.7521" lon="2.52248">
        <ele>112</ele>
        <time>2014-05-25T10:08:22Z</time>
      </trkpt>
      <trkpt lat="48.7521" lon="2.5225">
        <ele>112</ele>
        <time>2014-05-25T10:08:23Z</time>
      </trkpt>
      <trkpt lat="48.75211" lon="2.52252">
        <ele>112</ele>
        <time>2014-05-25T10:08:24Z</time>
      </trkpt>
      <trkpt lat="48.75211" lon="2.52253">
        <ele>112</ele>
        <time>2014-05-25T10:08:25Z</time>
      </trkpt>
      <trkpt lat="48.75212" lon="2.52255">
        <ele>112</ele>
        <time>2014-05-25T10:08:26Z</time>
      </trkpt>
      <trkpt lat="48.75212" lon="2.52257">
        <ele>112</ele>
        <time>2014-05-25T10:08:27Z</time>
      </trkpt>
      <trkpt lat="48.75213" lon="2.52259">
        <ele>113</ele>
        <time>2014-05-25T10:08:28Z</time>
      </trkpt>
      <trkpt lat="48.75214" lon="2.5226">
        <ele>112</ele>
        <time>2014-05-25T10:08:29Z</time>
      </trkpt>
      <trkpt lat="48.75216" lon="2.5226">
        <ele>108</ele>
        <time>2014-05-25T10:08:30Z</time>
      </trkpt>
      <trkpt lat="48.75217" lon="2.5226">
        <ele>109</ele>
        <time>2014-05-25T10:08:31Z</time>
      </trkpt>
      <trkpt lat="48.75219" lon="2.5226">
        <ele>109</ele>
        <time>2014-05-25T10:08:32Z</time>
      </trkpt>
      <trkpt lat="48.75221" lon="2.5226">
        <ele>109</ele>
        <time>2014-05-25T10:08:33Z</time>
      </trkpt>
      <trkpt lat="48.75222" lon="2.5226">
        <ele>108</ele>
        <time>2014-05-25T10:08:34Z</time>
      </trkpt>
      <trkpt lat="48.75224" lon="2.5226">
        <ele>108</ele>
        <time>2014-05-25T10:08:35Z</time>
      </trkpt>
      <trkpt lat="48.75225" lon="2.5226">
        <ele>108</ele>
        <time>2014-05-25T10:08:36Z</time>
      </trkpt>
      <trkpt lat="48.75227" lon="2.5226">
        <ele>108</ele>
        <time>2014-05-25T10:08:37Z</time>
      </trkpt>
      <trkpt lat="48.75228" lon="2.5226">
        <ele>108</ele>
        <time>2014-05-25T10:08:38Z</time>
      </trkpt>
      <trkpt lat="48.7523" lon="2.5226">
        <ele>108</ele>
        <time>2014-05-25T10:08:39Z</time>
      </trkpt>
      <trkpt lat="48.75231" lon="2.5226">
        <ele>109</ele>
        <time>2014-05-25T10:08:40Z</time>
      </trkpt>
      <trkpt lat="48.75232" lon="2.5226">
        <ele>109</ele>
        <time>2014-05-25T10:08:41Z</time>
      </trkpt>
      <trkpt lat="48.75234" lon="2.5226">
        <ele>110</ele>
        <time>2014-05-25T10:08:42Z</time>
      </trkpt>
      <trkpt lat="48.75235" lon="2.52261">
        <ele>109</ele>
        <time>2014-05-25T10:08:43Z</time>
      </trkpt>
      <trkpt lat="48.75236" lon="2.52261">
        <ele>110</ele>
        <time>2014-05-25T10:08:44Z</time>
      </trkpt>
      <trkpt lat="48.75238" lon="2.52262">
        <ele>109</ele>
        <time>2014-05-25T10:08:45Z</time>
      </trkpt>
      <trkpt lat="48.75239" lon="2.52262">
        <ele>109</ele>
        <time>2014-05-25T10:08:46Z</time>
      </trkpt>
      <trkpt lat="48.75241" lon="2.52263">
        <ele>109</ele>
        <time>2014-05-25T10:08:47Z</time>
      </trkpt>
      <trkpt lat="48.75242" lon="2.52263">
        <ele>109</ele>
        <time>2014-05-25T10:08:48Z</time>
      </trkpt>
      <trkpt lat="48.75243" lon="2.52263">
        <ele>109</ele>
        <time>2014-05-25T10:08:49Z</time>
      </trkpt>
      <trkpt lat="48.75244" lon="2.52264">
        <ele>109</ele>
        <time>2014-05-25T10:08:50Z</time>
      </trkpt>
      <trkpt lat="48.75245" lon="2.52265">
        <ele>109</ele>
        <time>2014-05-25T10:08:51Z</time>
      </trkpt>
      <trkpt lat="48.75247" lon="2.52266">
        <ele>108</ele>
        <time>2014-05-25T10:08:52Z</time>
      </trkpt>
      <trkpt lat="48.75248" lon="2.52267">
        <ele>109</ele>
        <time>2014-05-25T10:08:53Z</time>
      </trkpt>
      <trkpt lat="48.75249" lon="2.52268">
        <ele>108</ele>
        <time>2014-05-25T10:08:54Z</time>
      </trkpt>
      <trkpt lat="48.75249" lon="2.52269">
        <ele>107</ele>
        <time>2014-05-25T10:08:55Z</time>
      </trkpt>
      <trkpt lat="48.7525" lon="2.52271">
        <ele>106</ele>
        <time>2014-05-25T10:08:56Z</time>
      </trkpt>
      <trkpt lat="48.7525" lon="2.52272">
        <ele>107</ele>
        <time>2014-05-25T10:08:57Z</time>
      </trkpt>
      <trkpt lat="48.7525" lon="2.52274">
        <ele>107</ele>
        <time>2014-05-25T10:08:58Z</time>
      </trkpt>
      <trkpt lat="48.75251" lon="2.52275">
        <ele>107</ele>
        <time>2014-05-25T10:08:59Z</time>
      </trkpt>
      <trkpt lat="48.75251" lon="2.52277">
        <ele>107</ele>
        <time>2014-05-25T10:09:00Z</time>
      </trkpt>
      <trkpt lat="48.75252" lon="2.52278">
        <ele>107</ele>
        <time>2014-05-25T10:09:01Z</time>
      </trkpt>
      <trkpt lat="48.75252" lon="2.5228">
        <ele>107</ele>
        <time>2014-05-25T10:09:02Z</time>
      </trkpt>
      <trkpt lat="48.75252" lon="2.52282">
        <ele>107</ele>
        <time>2014-05-25T10:09:03Z</time>
      </trkpt>
      <trkpt lat="48.75252" lon="2.52284">
        <ele>106</ele>
        <time>2014-05-25T10:09:04Z</time>
      </trkpt>
      <trkpt lat="48.75252" lon="2.52286">
        <ele>106</ele>
        <time>2014-05-25T10:09:05Z</time>
      </trkpt>
      <trkpt lat="48.75252" lon="2.52287">
        <ele>106</ele>
        <time>2014-05-25T10:09:06Z</time>
      </trkpt>
      <trkpt lat="48.75252" lon="2.52289">
        <ele>107</ele>
        <time>2014-05-25T10:09:07Z</time>
      </trkpt>
      <trkpt lat="48.75252" lon="2.52291">
        <ele>106</ele>
        <time>2014-05-25T10:09:08Z</time>
      </trkpt>
      <trkpt lat="48.75252" lon="2.52293">
        <ele>107</ele>
        <time>2014-05-25T10:09:09Z</time>
      </trkpt>
      <trkpt lat="48.75252" lon="2.52295">
        <ele>107</ele>
        <time>2014-05-25T10:09:10Z</time>
      </trkpt>
      <trkpt lat="48.75252" lon="2.52297">
        <ele>107</ele>
        <time>2014-05-25T10:09:11Z</time>
      </trkpt>
      <trkpt lat="48.75252" lon="2.52299">
        <ele>107</ele>
        <time>2014-05-25T10:09:12Z</time>
      </trkpt>
      <trkpt lat="48.75251" lon="2.52301">
        <ele>106</ele>
        <time>2014-05-25T10:09:13Z</time>
      </trkpt>
      <trkpt lat="48.75251" lon="2.52303">
        <ele>106</ele>
        <time>2014-05-25T10:09:14Z</time>
      </trkpt>
      <trkpt lat="48.75251" lon="2.52305">
        <ele>106</ele>
        <time>2014-05-25T10:09:15Z</time>
      </trkpt>
      <trkpt lat="48.75251" lon="2.52307">
        <ele>106</ele>
        <time>2014-05-25T10:09:16Z</time>
      </trkpt>
      <trkpt lat="48.75251" lon="2.52309">
        <ele>106</ele>
        <time>2014-05-25T10:09:17Z</time>
      </trkpt>
      <trkpt lat="48.75251" lon="2.52311">
        <ele>106</ele>
        <time>2014-05-25T10:09:18Z</time>
      </trkpt>
      <trkpt lat="48.75251" lon="2.52313">
        <ele>106</ele>
        <time>2014-05-25T10:09:19Z</time>
      </trkpt>
      <trkpt lat="48.75251" lon="2.52316">
        <ele>106</ele>
        <time>2014-05-25T10:09:20Z</time>
      </trkpt>
      <trkpt lat="48.7525" lon="2.52318">
        <ele>106</ele>
        <time>2014-05-25T10:09:21Z</time>
      </trkpt>
      <trkpt lat="48.7525" lon="2.5232">
        <ele>106</ele>
        <time>2014-05-25T10:09:22Z</time>
      </trkpt>
      <trkpt lat="48.7525" lon="2.52322">
        <ele>106</ele>
        <time>2014-05-25T10:09:23Z</time>
      </trkpt>
      <trkpt lat="48.7525" lon="2.52325">
        <ele>105</ele>
        <time>2014-05-25T10:09:24Z</time>
      </trkpt>
      <trkpt lat="48.7525" lon="2.52327">
        <ele>105</ele>
        <time>2014-05-25T10:09:25Z</time>
      </trkpt>
      <trkpt lat="48.7525" lon="2.52329">
        <ele>105</ele>
        <time>2014-05-25T10:09:26Z</time>
      </trkpt>
      <trkpt lat="48.7525" lon="2.52332">
        <ele>106</ele>
        <time>2014-05-25T10:09:27Z</time>
      </trkpt>
      <trkpt lat="48.7525" lon="2.52334">
        <ele>106</ele>
        <time>2014-05-25T10:09:28Z</time>
      </trkpt>
      <trkpt lat="48.7525" lon="2.52336">
        <ele>105</ele>
        <time>2014-05-25T10:09:29Z</time>
      </trkpt>
      <trkpt lat="48.7525" lon="2.52338">
        <ele>105</ele>
        <time>2014-05-25T10:09:30Z</time>
      </trkpt>
      <trkpt lat="48.7525" lon="2.5234">
        <ele>105</ele>
        <time>2014-05-25T10:09:31Z</time>
      </trkpt>
      <trkpt lat="48.7525" lon="2.52342">
        <ele>105</ele>
        <time>2014-05-25T10:09:32Z</time>
      </trkpt>
      <trkpt lat="48.7525" lon="2.52345">
        <ele>105</ele>
        <time>2014-05-25T10:09:33Z</time>
      </trkpt>
      <trkpt lat="48.7525" lon="2.52347">
        <ele>105</ele>
        <time>2014-05-25T10:09:34Z</time>
      </trkpt>
      <trkpt lat="48.75249" lon="2.52349">
        <ele>105</ele>
        <time>2014-05-25T10:09:35Z</time>
      </trkpt>
      <trkpt lat="48.75249" lon="2.52351">
        <ele>105</ele>
        <time>2014-05-25T10:09:36Z</time>
      </trkpt>
      <trkpt lat="48.75249" lon="2.52353">
        <ele>105</ele>
        <time>2014-05-25T10:09:37Z</time>
      </trkpt>
      <trkpt lat="48.75249" lon="2.52356">
        <ele>105</ele>
        <time>2014-05-25T10:09:38Z</time>
      </trkpt>
      <trkpt lat="48.75249" lon="2.52358">
        <ele>105</ele>
        <time>2014-05-25T10:09:39Z</time>
      </trkpt>
      <trkpt lat="48.75249" lon="2.5236">
        <ele>105</ele>
        <time>2014-05-25T10:09:40Z</time>
      </trkpt>
      <trkpt lat="48.75249" lon="2.52363">
        <ele>105</ele>
        <time>2014-05-25T10:09:41Z</time>
      </trkpt>
      <trkpt lat="48.75248" lon="2.52365">
        <ele>105</ele>
        <time>2014-05-25T10:09:42Z</time>
      </trkpt>
      <trkpt lat="48.75248" lon="2.52367">
        <ele>106</ele>
        <time>2014-05-25T10:09:43Z</time>
      </trkpt>
      <trkpt lat="48.75248" lon="2.5237">
        <ele>106</ele>
        <time>2014-05-25T10:09:44Z</time>
      </trkpt>
      <trkpt lat="48.75248" lon="2.52372">
        <ele>106</ele>
        <time>2014-05-25T10:09:45Z</time>
      </trkpt>
      <trkpt lat="48.75248" lon="2.52374">
        <ele>106</ele>
        <time>2014-05-25T10:09:46Z</time>
      </trkpt>
      <trkpt lat="48.75247" lon="2.52377">
        <ele>106</ele>
        <time>2014-05-25T10:09:47Z</time>
      </trkpt>
      <trkpt lat="48.75247" lon="2.52379">
        <ele>106</ele>
        <time>2014-05-25T10:09:48Z</time>
      </trkpt>
      <trkpt lat="48.75247" lon="2.52381">
        <ele>106</ele>
        <time>2014-05-25T10:09:49Z</time>
      </trkpt>
      <trkpt lat="48.75246" lon="2.52383">
        <ele>105</ele>
        <time>2014-05-25T10:09:50Z</time>
      </trkpt>
      <trkpt lat="48.75246" lon="2.52386">
        <ele>106</ele>
        <time>2014-05-25T10:09:51Z</time>
      </trkpt>
      <trkpt lat="48.75245" lon="2.52388">
        <ele>105</ele>
        <time>2014-05-25T10:09:52Z</time>
      </trkpt>
      <trkpt lat="48.75244" lon="2.5239">
        <ele>104</ele>
        <time>2014-05-25T10:09:53Z</time>
      </trkpt>
      <trkpt lat="48.75243" lon="2.52391">
        <ele>104</ele>
        <time>2014-05-25T10:09:54Z</time>
      </trkpt>
      <trkpt lat="48.75242" lon="2.52393">
        <ele>103</ele>
        <time>2014-05-25T10:09:55Z</time>
      </trkpt>
      <trkpt lat="48.75241" lon="2.52395">
        <ele>103</ele>
        <time>2014-05-25T10:09:56Z</time>
      </trkpt>
      <trkpt lat="48.7524" lon="2.52397">
        <ele>102</ele>
        <time>2014-05-25T10:09:57Z</time>
      </trkpt>
      <trkpt lat="48.75239" lon="2.52399">
        <ele>102</ele>
        <time>2014-05-25T10:09:58Z</time>
      </trkpt>
      <trkpt lat="48.75238" lon="2.52401">
        <ele>102</ele>
        <time>2014-05-25T10:09:59Z</time>
      </trkpt>
      <trkpt lat="48.75237" lon="2.52403">
        <ele>101</ele>
        <time>2014-05-25T10:10:00Z</time>
      </trkpt>
      <trkpt lat="48.75236" lon="2.52405">
        <ele>101</ele>
        <time>2014-05-25T10:10:01Z</time>
      </trkpt>
      <trkpt lat="48.75235" lon="2.52407">
        <ele>100</ele>
        <time>2014-05-25T10:10:02Z</time>
      </trkpt>
      <trkpt lat="48.75234" lon="2.52409">
        <ele>100</ele>
        <time>2014-05-25T10:10:03Z</time>
      </trkpt>
      <trkpt lat="48.75233" lon="2.52411">
        <ele>100</ele>
        <time>2014-05-25T10:10:04Z</time>
      </trkpt>
      <trkpt lat="48.75232" lon="2.52413">
        <ele>100</ele>
        <time>2014-05-25T10:10:05Z</time>
      </trkpt>
      <trkpt lat="48.75231" lon="2.52415">
        <ele>100</ele>
        <time>2014-05-25T10:10:06Z</time>
      </trkpt>
      <trkpt lat="48.7523" lon="2.52416">
        <ele>100</ele>
        <time>2014-05-25T10:10:07Z</time>
      </trkpt>
      <trkpt lat="48.75229" lon="2.52418">
        <ele>100</ele>
        <time>2014-05-25T10:10:08Z</time>
      </trkpt>
      <trkpt lat="48.75228" lon="2.5242">
        <ele>100</ele>
        <time>2014-05-25T10:10:09Z</time>
      </trkpt>
      <trkpt lat="48.75228" lon="2.52422">
        <ele>100</ele>
        <time>2014-05-25T10:10:10Z</time>
      </trkpt>
      <trkpt lat="48.75227" lon="2.52424">
        <ele>100</ele>
        <time>2014-05-25T10:10:11Z</time>
      </trkpt>
      <trkpt lat="48.75226" lon="2.52425">
        <ele>101</ele>
        <time>2014-05-25T10:10:12Z</time>
      </trkpt>
      <trkpt lat="48.75225" lon="2.52427">
        <ele>100</ele>
        <time>2014-05-25T10:10:13Z</time>
      </trkpt>
      <trkpt lat="48.75224" lon="2.52429">
        <ele>100</ele>
        <time>2014-05-25T10:10:14Z</time>
      </trkpt>
      <trkpt lat="48.75223" lon="2.5243">
        <ele>100</ele>
        <time>2014-05-25T10:10:15Z</time>
      </trkpt>
      <trkpt lat="48.75222" lon="2.52432">
        <ele>100</ele>
        <time>2014-05-25T10:10:16Z</time>
      </trkpt>
      <trkpt lat="48.75221" lon="2.52434">
        <ele>100</ele>
        <time>2014-05-25T10:10:17Z</time>
      </trkpt>
      <trkpt lat="48.7522" lon="2.52435">
        <ele>100</ele>
        <time>2014-05-25T10:10:18Z</time>
      </trkpt>
      <trkpt lat="48.75219" lon="2.52437">
        <ele>100</ele>
        <time>2014-05-25T10:10:19Z</time>
      </trkpt>
      <trkpt lat="48.75218" lon="2.52439">
        <ele>100</ele>
        <time>2014-05-25T10:10:20Z</time>
      </trkpt>
      <trkpt lat="48.75217" lon="2.5244">
        <ele>100</ele>
        <time>2014-05-25T10:10:21Z</time>
      </trkpt>
      <trkpt lat="48.75216" lon="2.52442">
        <ele>100</ele>
        <time>2014-05-25T10:10:22Z</time>
      </trkpt>
      <trkpt lat="48.75215" lon="2.52444">
        <ele>100</ele>
        <time>2014-05-25T10:10:23Z</time>
      </trkpt>
      <trkpt lat="48.75214" lon="2.52445">
        <ele>100</ele>
        <time>2014-05-25T10:10:24Z</time>
      </trkpt>
      <trkpt lat="48.75213" lon="2.52447">
        <ele>101</ele>
        <time>2014-05-25T10:10:25Z</time>
      </trkpt>
      <trkpt lat="48.75212" lon="2.52449">
        <ele>100</ele>
        <time>2014-05-25T10:10:26Z</time>
      </trkpt>
      <trkpt lat="48.75211" lon="2.5245">
        <ele>100</ele>
        <time>2014-05-25T10:10:27Z</time>
      </trkpt>
      <trkpt lat="48.7521" lon="2.52452">
        <ele>100</ele>
        <time>2014-05-25T10:10:28Z</time>
      </trkpt>
      <trkpt lat="48.75209" lon="2.52453">
        <ele>101</ele>
        <time>2014-05-25T10:10:29Z</time>
      </trkpt>
      <trkpt lat="48.75208" lon="2.52455">
        <ele>100</ele>
        <time>2014-05-25T10:10:30Z</time>
      </trkpt>
      <trkpt lat="48.75208" lon="2.52457">
        <ele>101</ele>
        <time>2014-05-25T10:10:31Z</time>
      </trkpt>
      <trkpt lat="48.75206" lon="2.52458">
        <ele>100</ele>
        <time>2014-05-25T10:10:32Z</time>
      </trkpt>
      <trkpt lat="48.75205" lon="2.5246">
        <ele>100</ele>
        <time>2014-05-25T10:10:33Z</time>
      </trkpt>
      <trkpt lat="48.75204" lon="2.52461">
        <ele>100</ele>
        <time>2014-05-25T10:10:34Z</time>
      </trkpt>
      <trkpt lat="48.75204" lon="2.52463">
        <ele>100</ele>
        <time>2014-05-25T10:10:35Z</time>
      </trkpt>
      <trkpt lat="48.75203" lon="2.52465">
        <ele>100</ele>
        <time>2014-05-25T10:10:36Z</time>
      </trkpt>
      <trkpt lat="48.75202" lon="2.52466">
        <ele>100</ele>
        <time>2014-05-25T10:10:37Z</time>
      </trkpt>
      <trkpt lat="48.75201" lon="2.52468">
        <ele>99</ele>
        <time>2014-05-25T10:10:38Z</time>
      </trkpt>
      <trkpt lat="48.752" lon="2.5247">
        <ele>99</ele>
        <time>2014-05-25T10:10:39Z</time>
      </trkpt>
      <trkpt lat="48.75199" lon="2.52472">
        <ele>99</ele>
        <time>2014-05-25T10:10:40Z</time>
      </trkpt>
      <trkpt lat="48.75198" lon="2.52473">
        <ele>99</ele>
        <time>2014-05-25T10:10:41Z</time>
      </trkpt>
      <trkpt lat="48.75197" lon="2.52475">
        <ele>99</ele>
        <time>2014-05-25T10:10:42Z</time>
      </trkpt>
      <trkpt lat="48.75196" lon="2.52477">
        <ele>99</ele>
        <time>2014-05-25T10:10:43Z</time>
      </trkpt>
      <trkpt lat="48.75195" lon="2.52478">
        <ele>99</ele>
        <time>2014-05-25T10:10:44Z</time>
      </trkpt>
      <trkpt lat="48.75194" lon="2.5248">
        <ele>100</ele>
        <time>2014-05-25T10:10:45Z</time>
      </trkpt>
      <trkpt lat="48.75193" lon="2.52482">
        <ele>99</ele>
        <time>2014-05-25T10:10:46Z</time>
      </trkpt>
      <trkpt lat="48.75192" lon="2.52483">
        <ele>100</ele>
        <time>2014-05-25T10:10:47Z</time>
      </trkpt>
      <trkpt lat="48.75191" lon="2.52485">
        <ele>100</ele>
        <time>2014-05-25T10:10:48Z</time>
      </trkpt>
      <trkpt lat="48.7519" lon="2.52486">
        <ele>100</ele>
        <time>2014-05-25T10:10:49Z</time>
      </trkpt>
      <trkpt lat="48.7519" lon="2.52488">
        <ele>100</ele>
        <time>2014-05-25T10:10:50Z</time>
      </trkpt>
      <trkpt lat="48.75189" lon="2.52489">
        <ele>101</ele>
        <time>2014-05-25T10:10:51Z</time>
      </trkpt>
      <trkpt lat="48.75188" lon="2.52491">
        <ele>101</ele>
        <time>2014-05-25T10:10:52Z</time>
      </trkpt>
      <trkpt lat="48.75187" lon="2.52493">
        <ele>101</ele>
        <time>2014-05-25T10:10:53Z</time>
      </trkpt>
      <trkpt lat="48.75187" lon="2.52494">
        <ele>101</ele>
        <time>2014-05-25T10:10:54Z</time>
      </trkpt>
      <trkpt lat="48.75186" lon="2.52496">
        <ele>101</ele>
        <time>2014-05-25T10:10:55Z</time>
      </trkpt>
      <trkpt lat="48.75185" lon="2.52497">
        <ele>100</ele>
        <time>2014-05-25T10:10:56Z</time>
      </trkpt>
      <trkpt lat="48.75184" lon="2.52499">
        <ele>101</ele>
        <time>2014-05-25T10:10:57Z</time>
      </trkpt>
      <trkpt lat="48.75183" lon="2.52501">
        <ele>101</ele>
        <time>2014-05-25T10:10:58Z</time>
      </trkpt>
      <trkpt lat="48.75182" lon="2.52502">
        <ele>102</ele>
        <time>2014-05-25T10:10:59Z</time>
      </trkpt>
      <trkpt lat="48.75181" lon="2.52504">
        <ele>102</ele>
        <time>2014-05-25T10:11:00Z</time>
      </trkpt>
      <trkpt lat="48.7518" lon="2.52505">
        <ele>102</ele>
        <time>2014-05-25T10:11:01Z</time>
      </trkpt>
      <trkpt lat="48.75179" lon="2.52507">
        <ele>103</ele>
        <time>2014-05-25T10:11:02Z</time>
      </trkpt>
      <trkpt lat="48.75178" lon="2.52509">
        <ele>103</ele>
        <time>2014-05-25T10:11:03Z</time>
      </trkpt>
      <trkpt lat="48.75178" lon="2.5251">
        <ele>103</ele>
        <time>2014-05-25T10:11:04Z</time>
      </trkpt>
      <trkpt lat="48.75177" lon="2.52512">
        <ele>104</ele>
        <time>2014-05-25T10:11:05Z</time>
      </trkpt>
      <trkpt lat="48.75176" lon="2.52514">
        <ele>105</ele>
        <time>2014-05-25T10:11:06Z</time>
      </trkpt>
      <trkpt lat="48.75175" lon="2.52515">
        <ele>105</ele>
        <time>2014-05-25T10:11:07Z</time>
      </trkpt>
      <trkpt lat="48.75175" lon="2.52517">
        <ele>104</ele>
        <time>2014-05-25T10:11:08Z</time>
      </trkpt>
      <trkpt lat="48.75174" lon="2.52519">
        <ele>105</ele>
        <time>2014-05-25T10:11:09Z</time>
      </trkpt>
      <trkpt lat="48.75173" lon="2.5252">
        <ele>105</ele>
        <time>2014-05-25T10:11:10Z</time>
      </trkpt>
      <trkpt lat="48.75172" lon="2.52522">
        <ele>105</ele>
        <time>2014-05-25T10:11:11Z</time>
      </trkpt>
      <trkpt lat="48.75171" lon="2.52523">
        <ele>105</ele>
        <time>2014-05-25T10:11:12Z</time>
      </trkpt>
      <trkpt lat="48.75171" lon="2.52525">
        <ele>105</ele>
        <time>2014-05-25T10:11:13Z</time>
      </trkpt>
      <trkpt lat="48.7517" lon="2.52527">
        <ele>105</ele>
        <time>2014-05-25T10:11:14Z</time>
      </trkpt>
      <trkpt lat="48.75169" lon="2.52529">
        <ele>105</ele>
        <time>2014-05-25T10:11:15Z</time>
      </trkpt>
      <trkpt lat="48.75168" lon="2.52531">
        <ele>105</ele>
        <time>2014-05-25T10:11:16Z</time>
      </trkpt>
      <trkpt lat="48.75167" lon="2.52532">
        <ele>106</ele>
        <time>2014-05-25T10:11:17Z</time>
      </trkpt>
      <trkpt lat="48.75166" lon="2.52534">
        <ele>106</ele>
        <time>2014-05-25T10:11:18Z</time>
      </trkpt>
      <trkpt lat="48.75165" lon="2.52536">
        <ele>105</ele>
        <time>2014-05-25T10:11:19Z</time>
      </trkpt>
      <trkpt lat="48.75164" lon="2.52538">
        <ele>105</ele>
        <time>2014-05-25T10:11:20Z</time>
      </trkpt>
      <trkpt lat="48.75163" lon="2.52539">
        <ele>105</ele>
        <time>2014-05-25T10:11:21Z</time>
      </trkpt>
      <trkpt lat="48.75163" lon="2.52541">
        <ele>104</ele>
        <time>2014-05-25T10:11:22Z</time>
      </trkpt>
      <trkpt lat="48.75162" lon="2.52543">
        <ele>104</ele>
        <time>2014-05-25T10:11:23Z</time>
      </trkpt>
      <trkpt lat="48.75161" lon="2.52544">
        <ele>104</ele>
        <time>2014-05-25T10:11:24Z</time>
      </trkpt>
      <trkpt lat="48.7516" lon="2.52546">
        <ele>105</ele>
        <time>2014-05-25T10:11:25Z</time>
      </trkpt>
      <trkpt lat="48.75159" lon="2.52547">
        <ele>105</ele>
        <time>2014-05-25T10:11:26Z</time>
      </trkpt>
      <trkpt lat="48.75158" lon="2.52548">
        <ele>105</ele>
        <time>2014-05-25T10:11:27Z</time>
      </trkpt>
      <trkpt lat="48.75158" lon="2.5255">
        <ele>105</ele>
        <time>2014-05-25T10:11:28Z</time>
      </trkpt>
      <trkpt lat="48.75157" lon="2.52551">
        <ele>104</ele>
        <time>2014-05-25T10:11:29Z</time>
      </trkpt>
      <trkpt lat="48.75156" lon="2.52552">
        <ele>104</ele>
        <time>2014-05-25T10:11:30Z</time>
      </trkpt>
      <trkpt lat="48.75155" lon="2.52554">
        <ele>103</ele>
        <time>2014-05-25T10:11:31Z</time>
      </trkpt>
      <trkpt lat="48.75154" lon="2.52555">
        <ele>103</ele>
        <time>2014-05-25T10:11:32Z</time>
      </trkpt>
      <trkpt lat="48.75153" lon="2.52557">
        <ele>104</ele>
        <time>2014-05-25T10:11:33Z</time>
      </trkpt>
      <trkpt lat="48.75152" lon="2.52559">
        <ele>104</ele>
        <time>2014-05-25T10:11:34Z</time>
      </trkpt>
      <trkpt lat="48.75151" lon="2.52561">
        <ele>104</ele>
        <time>2014-05-25T10:11:35Z</time>
      </trkpt>
      <trkpt lat="48.7515" lon="2.52562">
        <ele>104</ele>
        <time>2014-05-25T10:11:36Z</time>
      </trkpt>
      <trkpt lat="48.75149" lon="2.52564">
        <ele>104</ele>
        <time>2014-05-25T10:11:37Z</time>
      </trkpt>
      <trkpt lat="48.75148" lon="2.52566">
        <ele>104</ele>
        <time>2014-05-25T10:11:38Z</time>
      </trkpt>
      <trkpt lat="48.75148" lon="2.52568">
        <ele>104</ele>
        <time>2014-05-25T10:11:39Z</time>
      </trkpt>
      <trkpt lat="48.75147" lon="2.52569">
        <ele>104</ele>
        <time>2014-05-25T10:11:40Z</time>
      </trkpt>
      <trkpt lat="48.75146" lon="2.52571">
        <ele>104</ele>
        <time>2014-05-25T10:11:41Z</time>
      </trkpt>
      <trkpt lat="48.75145" lon="2.52573">
        <ele>104</ele>
        <time>2014-05-25T10:11:42Z</time>
      </trkpt>
      <trkpt lat="48.75144" lon="2.52575">
        <ele>104</ele>
        <time>2014-05-25T10:11:43Z</time>
      </trkpt>
      <trkpt lat="48.75143" lon="2.52577">
        <ele>103</ele>
        <time>2014-05-25T10:11:44Z</time>
      </trkpt>
      <trkpt lat="48.75142" lon="2.52579">
        <ele>103</ele>
        <time>2014-05-25T10:11:45Z</time>
      </trkpt>
      <trkpt lat="48.75141" lon="2.5258">
        <ele>103</ele>
        <time>2014-05-25T10:11:46Z</time>
      </trkpt>
      <trkpt lat="48.7514" lon="2.52582">
        <ele>102</ele>
        <time>2014-05-25T10:11:47Z</time>
      </trkpt>
      <trkpt lat="48.75139" lon="2.52584">
        <ele>103</ele>
        <time>2014-05-25T10:11:48Z</time>
      </trkpt>
      <trkpt lat="48.75138" lon="2.52586">
        <ele>103</ele>
        <time>2014-05-25T10:11:49Z</time>
      </trkpt>
      <trkpt lat="48.75137" lon="2.52587">
        <ele>104</ele>
        <time>2014-05-25T10:11:50Z</time>
      </trkpt>
      <trkpt lat="48.75136" lon="2.52589">
        <ele>104</ele>
        <time>2014-05-25T10:11:51Z</time>
      </trkpt>
      <trkpt lat="48.75136" lon="2.52591">
        <ele>104</ele>
        <time>2014-05-25T10:11:52Z</time>
      </trkpt>
      <trkpt lat="48.75135" lon="2.52592">
        <ele>104</ele>
        <time>2014-05-25T10:11:53Z</time>
      </trkpt>
      <trkpt lat="48.75134" lon="2.52594">
        <ele>104</ele>
        <time>2014-05-25T10:11:54Z</time>
      </trkpt>
      <trkpt lat="48.75133" lon="2.52596">
        <ele>104</ele>
        <time>2014-05-25T10:11:55Z</time>
      </trkpt>
      <trkpt lat="48.75132" lon="2.52597">
        <ele>105</ele>
        <time>2014-05-25T10:11:56Z</time>
      </trkpt>
      <trkpt lat="48.75131" lon="2.52599">
        <ele>104</ele>
        <time>2014-05-25T10:11:57Z</time>
      </trkpt>
      <trkpt lat="48.75131" lon="2.52601">
        <ele>104</ele>
        <time>2014-05-25T10:11:58Z</time>
      </trkpt>
      <trkpt lat="48.75129" lon="2.52602">
        <ele>104</ele>
        <time>2014-05-25T10:11:59Z</time>
      </trkpt>
      <trkpt lat="48.75128" lon="2.52604">
        <ele>103</ele>
        <time>2014-05-25T10:12:00Z</time>
      </trkpt>
      <trkpt lat="48.75127" lon="2.52605">
        <ele>104</ele>
        <time>2014-05-25T10:12:01Z</time>
      </trkpt>
      <trkpt lat="48.75127" lon="2.52607">
        <ele>104</ele>
        <time>2014-05-25T10:12:02Z</time>
      </trkpt>
      <trkpt lat="48.75126" lon="2.52608">
        <ele>104</ele>
        <time>2014-05-25T10:12:03Z</time>
      </trkpt>
      <trkpt lat="48.75125" lon="2.5261">
        <ele>105</ele>
        <time>2014-05-25T10:12:04Z</time>
      </trkpt>
      <trkpt lat="48.75124" lon="2.52611">
        <ele>105</ele>
        <time>2014-05-25T10:12:05Z</time>
      </trkpt>
      <trkpt lat="48.75123" lon="2.52613">
        <ele>105</ele>
        <time>2014-05-25T10:12:06Z</time>
      </trkpt>
      <trkpt lat="48.75122" lon="2.52614">
        <ele>105</ele>
        <time>2014-05-25T10:12:07Z</time>
      </trkpt>
      <trkpt lat="48.75121" lon="2.52616">
        <ele>105</ele>
        <time>2014-05-25T10:12:08Z</time>
      </trkpt>
      <trkpt lat="48.7512" lon="2.52617">
        <ele>106</ele>
        <time>2014-05-25T10:12:09Z</time>
      </trkpt>
      <trkpt lat="48.7512" lon="2.52619">
        <ele>106</ele>
        <time>2014-05-25T10:12:10Z</time>
      </trkpt>
      <trkpt lat="48.75119" lon="2.5262">
        <ele>106</ele>
        <time>2014-05-25T10:12:11Z</time>
      </trkpt>
      <trkpt lat="48.75118" lon="2.52622">
        <ele>106</ele>
        <time>2014-05-25T10:12:12Z</time>
      </trkpt>
      <trkpt lat="48.75116" lon="2.52623">
        <ele>107</ele>
        <time>2014-05-25T10:12:13Z</time>
      </trkpt>
      <trkpt lat="48.75115" lon="2.52625">
        <ele>107</ele>
        <time>2014-05-25T10:12:14Z</time>
      </trkpt>
      <trkpt lat="48.75114" lon="2.52627">
        <ele>107</ele>
        <time>2014-05-25T10:12:15Z</time>
      </trkpt>
      <trkpt lat="48.75113" lon="2.52628">
        <ele>107</ele>
        <time>2014-05-25T10:12:16Z</time>
      </trkpt>
      <trkpt lat="48.75112" lon="2.5263">
        <ele>109</ele>
        <time>2014-05-25T10:12:17Z</time>
      </trkpt>
      <trkpt lat="48.75111" lon="2.52632">
        <ele>109</ele>
        <time>2014-05-25T10:12:18Z</time>
      </trkpt>
      <trkpt lat="48.7511" lon="2.52634">
        <ele>110</ele>
        <time>2014-05-25T10:12:19Z</time>
      </trkpt>
      <trkpt lat="48.75109" lon="2.52636">
        <ele>110</ele>
        <time>2014-05-25T10:12:20Z</time>
      </trkpt>
      <trkpt lat="48.75108" lon="2.52638">
        <ele>110</ele>
        <time>2014-05-25T10:12:21Z</time>
      </trkpt>
      <trkpt lat="48.75108" lon="2.52639">
        <ele>109</ele>
        <time>2014-05-25T10:12:22Z</time>
      </trkpt>
      <trkpt lat="48.75107" lon="2.52641">
        <ele>109</ele>
        <time>2014-05-25T10:12:23Z</time>
      </trkpt>
      <trkpt lat="48.75106" lon="2.52642">
        <ele>109</ele>
        <time>2014-05-25T10:12:24Z</time>
      </trkpt>
      <trkpt lat="48.75105" lon="2.52644">
        <ele>109</ele>
        <time>2014-05-25T10:12:25Z</time>
      </trkpt>
      <trkpt lat="48.75104" lon="2.52645">
        <ele>109</ele>
        <time>2014-05-25T10:12:26Z</time>
      </trkpt>
      <trkpt lat="48.75103" lon="2.52646">
        <ele>109</ele>
        <time>2014-05-25T10:12:27Z</time>
      </trkpt>
      <trkpt lat="48.75102" lon="2.52648">
        <ele>109</ele>
        <time>2014-05-25T10:12:28Z</time>
      </trkpt>
      <trkpt lat="48.751" lon="2.52649">
        <ele>108</ele>
        <time>2014-05-25T10:12:29Z</time>
      </trkpt>
      <trkpt lat="48.75099" lon="2.5265">
        <ele>108</ele>
        <time>2014-05-25T10:12:30Z</time>
      </trkpt>
      <trkpt lat="48.75098" lon="2.52652">
        <ele>108</ele>
        <time>2014-05-25T10:12:31Z</time>
      </trkpt>
      <trkpt lat="48.75097" lon="2.52653">
        <ele>108</ele>
        <time>2014-05-25T10:12:32Z</time>
      </trkpt>
      <trkpt lat="48.75097" lon="2.52655">
        <ele>108</ele>
        <time>2014-05-25T10:12:33Z</time>
      </trkpt>
      <trkpt lat="48.75096" lon="2.52656">
        <ele>108</ele>
        <time>2014-05-25T10:12:34Z</time>
      </trkpt>
      <trkpt lat="48.75095" lon="2.52658">
        <ele>109</ele>
        <time>2014-05-25T10:12:35Z</time>
      </trkpt>
      <trkpt lat="48.75094" lon="2.5266">
        <ele>108</ele>
        <time>2014-05-25T10:12:36Z</time>
      </trkpt>
      <trkpt lat="48.75093" lon="2.52661">
        <ele>109</ele>
        <time>2014-05-25T10:12:37Z</time>
      </trkpt>
      <trkpt lat="48.75092" lon="2.52663">
        <ele>109</ele>
        <time>2014-05-25T10:12:38Z</time>
      </trkpt>
      <trkpt lat="48.75091" lon="2.52665">
        <ele>110</ele>
        <time>2014-05-25T10:12:39Z</time>
      </trkpt>
      <trkpt lat="48.7509" lon="2.52667">
        <ele>110</ele>
        <time>2014-05-25T10:12:40Z</time>
      </trkpt>
      <trkpt lat="48.75089" lon="2.52668">
        <ele>110</ele>
        <time>2014-05-25T10:12:41Z</time>
      </trkpt>
      <trkpt lat="48.75088" lon="2.5267">
        <ele>110</ele>
        <time>2014-05-25T10:12:42Z</time>
      </trkpt>
      <trkpt lat="48.75087" lon="2.52672">
        <ele>110</ele>
        <time>2014-05-25T10:12:43Z</time>
      </trkpt>
      <trkpt lat="48.75086" lon="2.52674">
        <ele>110</ele>
        <time>2014-05-25T10:12:44Z</time>
      </trkpt>
      <trkpt lat="48.75085" lon="2.52676">
        <ele>109</ele>
        <time>2014-05-25T10:12:45Z</time>
      </trkpt>
      <trkpt lat="48.75084" lon="2.52678">
        <ele>109</ele>
        <time>2014-05-25T10:12:46Z</time>
      </trkpt>
      <trkpt lat="48.75083" lon="2.52679">
        <ele>109</ele>
        <time>2014-05-25T10:12:47Z</time>
      </trkpt>
      <trkpt lat="48.75082" lon="2.52681">
        <ele>110</ele>
        <time>2014-05-25T10:12:48Z</time>
      </trkpt>
      <trkpt lat="48.75081" lon="2.52683">
        <ele>110</ele>
        <time>2014-05-25T10:12:49Z</time>
      </trkpt>
      <trkpt lat="48.7508" lon="2.52685">
        <ele>110</ele>
        <time>2014-05-25T10:12:50Z</time>
      </trkpt>
      <trkpt lat="48.75079" lon="2.52687">
        <ele>109</ele>
        <time>2014-05-25T10:12:51Z</time>
      </trkpt>
      <trkpt lat="48.75078" lon="2.52688">
        <ele>109</ele>
        <time>2014-05-25T10:12:52Z</time>
      </trkpt>
      <trkpt lat="48.75077" lon="2.5269">
        <ele>108</ele>
        <time>2014-05-25T10:12:53Z</time>
      </trkpt>
      <trkpt lat="48.75076" lon="2.52692">
        <ele>107</ele>
        <time>2014-05-25T10:12:54Z</time>
      </trkpt>
      <trkpt lat="48.75076" lon="2.52694">
        <ele>107</ele>
        <time>2014-05-25T10:12:55Z</time>
      </trkpt>
      <trkpt lat="48.75075" lon="2.52696">
        <ele>106</ele>
        <time>2014-05-25T10:12:56Z</time>
      </trkpt>
      <trkpt lat="48.75074" lon="2.52697">
        <ele>107</ele>
        <time>2014-05-25T10:12:57Z</time>
      </trkpt>
      <trkpt lat="48.75073" lon="2.52699">
        <ele>107</ele>
        <time>2014-05-25T10:12:58Z</time>
      </trkpt>
      <trkpt lat="48.75072" lon="2.527">
        <ele>107</ele>
        <time>2014-05-25T10:12:59Z</time>
      </trkpt>
      <trkpt lat="48.75071" lon="2.52702">
        <ele>107</ele>
        <time>2014-05-25T10:13:00Z</time>
      </trkpt>
      <trkpt lat="48.7507" lon="2.52703">
        <ele>106</ele>
        <time>2014-05-25T10:13:01Z</time>
      </trkpt>
      <trkpt lat="48.75069" lon="2.52704">
        <ele>108</ele>
        <time>2014-05-25T10:13:02Z</time>
      </trkpt>
      <trkpt lat="48.75069" lon="2.52705">
        <ele>108</ele>
        <time>2014-05-25T10:13:03Z</time>
      </trkpt>
      <trkpt lat="48.75068" lon="2.52707">
        <ele>108</ele>
        <time>2014-05-25T10:13:04Z</time>
      </trkpt>
      <trkpt lat="48.75067" lon="2.52708">
        <ele>109</ele>
        <time>2014-05-25T10:13:05Z</time>
      </trkpt>
      <trkpt lat="48.75066" lon="2.5271">
        <ele>109</ele>
        <time>2014-05-25T10:13:06Z</time>
      </trkpt>
      <trkpt lat="48.75065" lon="2.52711">
        <ele>108</ele>
        <time>2014-05-25T10:13:07Z</time>
      </trkpt>
      <trkpt lat="48.75064" lon="2.52713">
        <ele>106</ele>
        <time>2014-05-25T10:13:08Z</time>
      </trkpt>
      <trkpt lat="48.75063" lon="2.52714">
        <ele>105</ele>
        <time>2014-05-25T10:13:09Z</time>
      </trkpt>
      <trkpt lat="48.75062" lon="2.52716">
        <ele>106</ele>
        <time>2014-05-25T10:13:10Z</time>
      </trkpt>
      <trkpt lat="48.75062" lon="2.52718">
        <ele>106</ele>
        <time>2014-05-25T10:13:11Z</time>
      </trkpt>
      <trkpt lat="48.75061" lon="2.52719">
        <ele>106</ele>
        <time>2014-05-25T10:13:12Z</time>
      </trkpt>
      <trkpt lat="48.7506" lon="2.5272">
        <ele>106</ele>
        <time>2014-05-25T10:13:13Z</time>
      </trkpt>
      <trkpt lat="48.75059" lon="2.52722">
        <ele>106</ele>
        <time>2014-05-25T10:13:14Z</time>
      </trkpt>
      <trkpt lat="48.75059" lon="2.52724">
        <ele>106</ele>
        <time>2014-05-25T10:13:15Z</time>
      </trkpt>
      <trkpt lat="48.75058" lon="2.52726">
        <ele>106</ele>
        <time>2014-05-25T10:13:16Z</time>
      </trkpt>
      <trkpt lat="48.75057" lon="2.52728">
        <ele>106</ele>
        <time>2014-05-25T10:13:17Z</time>
      </trkpt>
      <trkpt lat="48.75056" lon="2.5273">
        <ele>107</ele>
        <time>2014-05-25T10:13:18Z</time>
      </trkpt>
      <trkpt lat="48.75055" lon="2.52732">
        <ele>107</ele>
        <time>2014-05-25T10:13:19Z</time>
      </trkpt>
      <trkpt lat="48.75054" lon="2.52734">
        <ele>108</ele>
        <time>2014-05-25T10:13:20Z</time>
      </trkpt>
      <trkpt lat="48.75053" lon="2.52736">
        <ele>108</ele>
        <time>2014-05-25T10:13:21Z</time>
      </trkpt>
      <trkpt lat="48.75052" lon="2.52738">
        <ele>107</ele>
        <time>2014-05-25T10:13:22Z</time>
      </trkpt>
      <trkpt lat="48.75052" lon="2.5274">
        <ele>108</ele>
        <time>2014-05-25T10:13:23Z</time>
      </trkpt>
      <trkpt lat="48.75051" lon="2.52741">
        <ele>108</ele>
        <time>2014-05-25T10:13:24Z</time>
      </trkpt>
      <trkpt lat="48.7505" lon="2.52743">
        <ele>108</ele>
        <time>2014-05-25T10:13:25Z</time>
      </trkpt>
      <trkpt lat="48.75049" lon="2.52745">
        <ele>107</ele>
        <time>2014-05-25T10:13:26Z</time>
      </trkpt>
      <trkpt lat="48.75048" lon="2.52747">
        <ele>108</ele>
        <time>2014-05-25T10:13:27Z</time>
      </trkpt>
      <trkpt lat="48.75048" lon="2.52749">
        <ele>108</ele>
        <time>2014-05-25T10:13:28Z</time>
      </trkpt>
      <trkpt lat="48.75046" lon="2.52751">
        <ele>106</ele>
        <time>2014-05-25T10:13:29Z</time>
      </trkpt>
      <trkpt lat="48.75045" lon="2.52752">
        <ele>107</ele>
        <time>2014-05-25T10:13:30Z</time>
      </trkpt>
      <trkpt lat="48.75044" lon="2.52754">
        <ele>107</ele>
        <time>2014-05-25T10:13:31Z</time>
      </trkpt>
      <trkpt lat="48.75043" lon="2.52756">
        <ele>106</ele>
        <time>2014-05-25T10:13:32Z</time>
      </trkpt>
      <trkpt lat="48.75042" lon="2.52757">
        <ele>105</ele>
        <time>2014-05-25T10:13:33Z</time>
      </trkpt>
      <trkpt lat="48.75041" lon="2.52759">
        <ele>105</ele>
        <time>2014-05-25T10:13:34Z</time>
      </trkpt>
      <trkpt lat="48.7504" lon="2.52761">
        <ele>105</ele>
        <time>2014-05-25T10:13:35Z</time>
      </trkpt>
      <trkpt lat="48.7504" lon="2.52762">
        <ele>105</ele>
        <time>2014-05-25T10:13:36Z</time>
      </trkpt>
      <trkpt lat="48.75038" lon="2.52765">
        <ele>105</ele>
        <time>2014-05-25T10:13:37Z</time>
      </trkpt>
      <trkpt lat="48.75038" lon="2.52767">
        <ele>105</ele>
        <time>2014-05-25T10:13:38Z</time>
      </trkpt>
      <trkpt lat="48.75037" lon="2.52769">
        <ele>105</ele>
        <time>2014-05-25T10:13:39Z</time>
      </trkpt>
      <trkpt lat="48.75035" lon="2.52771">
        <ele>105</ele>
        <time>2014-05-25T10:13:40Z</time>
      </trkpt>
      <trkpt lat="48.75034" lon="2.52772">
        <ele>105</ele>
        <time>2014-05-25T10:13:41Z</time>
      </trkpt>
      <trkpt lat="48.75033" lon="2.52774">
        <ele>105</ele>
        <time>2014-05-25T10:13:42Z</time>
      </trkpt>
      <trkpt lat="48.75032" lon="2.52776">
        <ele>105</ele>
        <time>2014-05-25T10:13:43Z</time>
      </trkpt>
      <trkpt lat="48.75031" lon="2.52778">
        <ele>105</ele>
        <time>2014-05-25T10:13:44Z</time>
      </trkpt>
      <trkpt lat="48.7503" lon="2.5278">
        <ele>104</ele>
        <time>2014-05-25T10:13:45Z</time>
      </trkpt>
      <trkpt lat="48.7503" lon="2.52781">
        <ele>104</ele>
        <time>2014-05-25T10:13:46Z</time>
      </trkpt>
      <trkpt lat="48.75029" lon="2.52783">
        <ele>105</ele>
        <time>2014-05-25T10:13:47Z</time>
      </trkpt>
      <trkpt lat="48.75028" lon="2.52785">
        <ele>105</ele>
        <time>2014-05-25T10:13:48Z</time>
      </trkpt>
      <trkpt lat="48.75027" lon="2.52786">
        <ele>105</ele>
        <time>2014-05-25T10:13:49Z</time>
      </trkpt>
      <trkpt lat="48.75027" lon="2.52788">
        <ele>105</ele>
        <time>2014-05-25T10:13:50Z</time>
      </trkpt>
      <trkpt lat="48.75026" lon="2.5279">
        <ele>105</ele>
        <time>2014-05-25T10:13:51Z</time>
      </trkpt>
      <trkpt lat="48.75025" lon="2.52792">
        <ele>105</ele>
        <time>2014-05-25T10:13:52Z</time>
      </trkpt>
      <trkpt lat="48.75024" lon="2.52794">
        <ele>105</ele>
        <time>2014-05-25T10:13:53Z</time>
      </trkpt>
      <trkpt lat="48.75023" lon="2.52796">
        <ele>106</ele>
        <time>2014-05-25T10:13:54Z</time>
      </trkpt>
      <trkpt lat="48.75022" lon="2.52798">
        <ele>106</ele>
        <time>2014-05-25T10:13:55Z</time>
      </trkpt>
      <trkpt lat="48.75021" lon="2.52799">
        <ele>106</ele>
        <time>2014-05-25T10:13:56Z</time>
      </trkpt>
      <trkpt lat="48.7502" lon="2.52801">
        <ele>106</ele>
        <time>2014-05-25T10:13:57Z</time>
      </trkpt>
      <trkpt lat="48.75019" lon="2.52803">
        <ele>107</ele>
        <time>2014-05-25T10:13:58Z</time>
      </trkpt>
      <trkpt lat="48.75018" lon="2.52805">
        <ele>108</ele>
        <time>2014-05-25T10:13:59Z</time>
      </trkpt>
      <trkpt lat="48.75017" lon="2.52806">
        <ele>108</ele>
        <time>2014-05-25T10:14:00Z</time>
      </trkpt>
      <trkpt lat="48.75016" lon="2.52808">
        <ele>109</ele>
        <time>2014-05-25T10:14:01Z</time>
      </trkpt>
      <trkpt lat="48.75016" lon="2.5281">
        <ele>109</ele>
        <time>2014-05-25T10:14:02Z</time>
      </trkpt>
      <trkpt lat="48.75014" lon="2.52812">
        <ele>109</ele>
        <time>2014-05-25T10:14:03Z</time>
      </trkpt>
      <trkpt lat="48.75013" lon="2.52814">
        <ele>109</ele>
        <time>2014-05-25T10:14:04Z</time>
      </trkpt>
      <trkpt lat="48.75012" lon="2.52816">
        <ele>109</ele>
        <time>2014-05-25T10:14:05Z</time>
      </trkpt>
      <trkpt lat="48.75011" lon="2.52818">
        <ele>109</ele>
        <time>2014-05-25T10:14:06Z</time>
      </trkpt>
      <trkpt lat="48.7501" lon="2.52819">
        <ele>110</ele>
        <time>2014-05-25T10:14:07Z</time>
      </trkpt>
      <trkpt lat="48.75009" lon="2.52821">
        <ele>110</ele>
        <time>2014-05-25T10:14:08Z</time>
      </trkpt>
      <trkpt lat="48.75008" lon="2.52823">
        <ele>109</ele>
        <time>2014-05-25T10:14:09Z</time>
      </trkpt>
      <trkpt lat="48.75007" lon="2.52824">
        <ele>109</ele>
        <time>2014-05-25T10:14:10Z</time>
      </trkpt>
      <trkpt lat="48.75006" lon="2.52826">
        <ele>110</ele>
        <time>2014-05-25T10:14:11Z</time>
      </trkpt>
      <trkpt lat="48.75005" lon="2.52828">
        <ele>110</ele>
        <time>2014-05-25T10:14:12Z</time>
      </trkpt>
      <trkpt lat="48.75004" lon="2.52829">
        <ele>110</ele>
        <time>2014-05-25T10:14:13Z</time>
      </trkpt>
      <trkpt lat="48.75003" lon="2.52831">
        <ele>110</ele>
        <time>2014-05-25T10:14:14Z</time>
      </trkpt>
      <trkpt lat="48.75002" lon="2.52833">
        <ele>109</ele>
        <time>2014-05-25T10:14:15Z</time>
      </trkpt>
      <trkpt lat="48.75001" lon="2.52834">
        <ele>109</ele>
        <time>2014-05-25T10:14:16Z</time>
      </trkpt>
      <trkpt lat="48.75" lon="2.52836">
        <ele>109</ele>
        <time>2014-05-25T10:14:17Z</time>
      </trkpt>
      <trkpt lat="48.74999" lon="2.52837">
        <ele>109</ele>
        <time>2014-05-25T10:14:18Z</time>
      </trkpt>
      <trkpt lat="48.74998" lon="2.52839">
        <ele>109</ele>
        <time>2014-05-25T10:14:19Z</time>
      </trkpt>
      <trkpt lat="48.74997" lon="2.5284">
        <ele>110</ele>
        <time>2014-05-25T10:14:20Z</time>
      </trkpt>
      <trkpt lat="48.74996" lon="2.52842">
        <ele>110</ele>
        <time>2014-05-25T10:14:21Z</time>
      </trkpt>
      <trkpt lat="48.74996" lon="2.52843">
        <ele>110</ele>
        <time>2014-05-25T10:14:22Z</time>
      </trkpt>
      <trkpt lat="48.74995" lon="2.52845">
        <ele>111</ele>
        <time>2014-05-25T10:14:23Z</time>
      </trkpt>
      <trkpt lat="48.74994" lon="2.52847">
        <ele>111</ele>
        <time>2014-05-25T10:14:24Z</time>
      </trkpt>
      <trkpt lat="48.74993" lon="2.52848">
        <ele>111</ele>
        <time>2014-05-25T10:14:25Z</time>
      </trkpt>
      <trkpt lat="48.74992" lon="2.5285">
        <ele>110</ele>
        <time>2014-05-25T10:14:26Z</time>
      </trkpt>
      <trkpt lat="48.74991" lon="2.52851">
        <ele>110</ele>
        <time>2014-05-25T10:14:27Z</time>
      </trkpt>
      <trkpt lat="48.7499" lon="2.52853">
        <ele>111</ele>
        <time>2014-05-25T10:14:28Z</time>
      </trkpt>
      <trkpt lat="48.74989" lon="2.52855">
        <ele>111</ele>
        <time>2014-05-25T10:14:29Z</time>
      </trkpt>
      <trkpt lat="48.74988" lon="2.52856">
        <ele>111</ele>
        <time>2014-05-25T10:14:30Z</time>
      </trkpt>
      <trkpt lat="48.74987" lon="2.52858">
        <ele>110</ele>
        <time>2014-05-25T10:14:31Z</time>
      </trkpt>
      <trkpt lat="48.74986" lon="2.5286">
        <ele>109</ele>
        <time>2014-05-25T10:14:32Z</time>
      </trkpt>
      <trkpt lat="48.74985" lon="2.52861">
        <ele>108</ele>
        <time>2014-05-25T10:14:33Z</time>
      </trkpt>
      <trkpt lat="48.74984" lon="2.52863">
        <ele>108</ele>
        <time>2014-05-25T10:14:34Z</time>
      </trkpt>
      <trkpt lat="48.74983" lon="2.52864">
        <ele>108</ele>
        <time>2014-05-25T10:14:35Z</time>
      </trkpt>
      <trkpt lat="48.74982" lon="2.52866">
        <ele>108</ele>
        <time>2014-05-25T10:14:36Z</time>
      </trkpt>
      <trkpt lat="48.74981" lon="2.52868">
        <ele>107</ele>
        <time>2014-05-25T10:14:37Z</time>
      </trkpt>
      <trkpt lat="48.7498" lon="2.52869">
        <ele>107</ele>
        <time>2014-05-25T10:14:38Z</time>
      </trkpt>
      <trkpt lat="48.74979" lon="2.52871">
        <ele>106</ele>
        <time>2014-05-25T10:14:39Z</time>
      </trkpt>
      <trkpt lat="48.74978" lon="2.52873">
        <ele>106</ele>
        <time>2014-05-25T10:14:40Z</time>
      </trkpt>
      <trkpt lat="48.74977" lon="2.52875">
        <ele>106</ele>
        <time>2014-05-25T10:14:41Z</time>
      </trkpt>
      <trkpt lat="48.74976" lon="2.52876">
        <ele>105</ele>
        <time>2014-05-25T10:14:42Z</time>
      </trkpt>
      <trkpt lat="48.74975" lon="2.52878">
        <ele>105</ele>
        <time>2014-05-25T10:14:43Z</time>
      </trkpt>
      <trkpt lat="48.74974" lon="2.5288">
        <ele>105</ele>
        <time>2014-05-25T10:14:44Z</time>
      </trkpt>
      <trkpt lat="48.74973" lon="2.52882">
        <ele>104</ele>
        <time>2014-05-25T10:14:45Z</time>
      </trkpt>
      <trkpt lat="48.74972" lon="2.52884">
        <ele>105</ele>
        <time>2014-05-25T10:14:46Z</time>
      </trkpt>
      <trkpt lat="48.74971" lon="2.52885">
        <ele>105</ele>
        <time>2014-05-25T10:14:47Z</time>
      </trkpt>
      <trkpt lat="48.7497" lon="2.52887">
        <ele>105</ele>
        <time>2014-05-25T10:14:48Z</time>
      </trkpt>
      <trkpt lat="48.74969" lon="2.52889">
        <ele>105</ele>
        <time>2014-05-25T10:14:49Z</time>
      </trkpt>
      <trkpt lat="48.74968" lon="2.5289">
        <ele>105</ele>
        <time>2014-05-25T10:14:50Z</time>
      </trkpt>
      <trkpt lat="48.74967" lon="2.52892">
        <ele>105</ele>
        <time>2014-05-25T10:14:51Z</time>
      </trkpt>
      <trkpt lat="48.74966" lon="2.52894">
        <ele>107</ele>
        <time>2014-05-25T10:14:52Z</time>
      </trkpt>
      <trkpt lat="48.74966" lon="2.52896">
        <ele>107</ele>
        <time>2014-05-25T10:14:53Z</time>
      </trkpt>
      <trkpt lat="48.74965" lon="2.52898">
        <ele>106</ele>
        <time>2014-05-25T10:14:54Z</time>
      </trkpt>
      <trkpt lat="48.74965" lon="2.52899">
        <ele>106</ele>
        <time>2014-05-25T10:14:55Z</time>
      </trkpt>
      <trkpt lat="48.74964" lon="2.52901">
        <ele>108</ele>
        <time>2014-05-25T10:14:56Z</time>
      </trkpt>
      <trkpt lat="48.74963" lon="2.52902">
        <ele>109</ele>
        <time>2014-05-25T10:14:57Z</time>
      </trkpt>
      <trkpt lat="48.74963" lon="2.52903">
        <ele>111</ele>
        <time>2014-05-25T10:14:58Z</time>
      </trkpt>
      <trkpt lat="48.74962" lon="2.52905">
        <ele>113</ele>
        <time>2014-05-25T10:14:59Z</time>
      </trkpt>
      <trkpt lat="48.74962" lon="2.52906">
        <ele>113</ele>
        <time>2014-05-25T10:15:00Z</time>
      </trkpt>
      <trkpt lat="48.74962" lon="2.52908">
        <ele>113</ele>
        <time>2014-05-25T10:15:01Z</time>
      </trkpt>
      <trkpt lat="48.74962" lon="2.52909">
        <ele>113</ele>
        <time>2014-05-25T10:15:02Z</time>
      </trkpt>
      <trkpt lat="48.74961" lon="2.52911">
        <ele>112</ele>
        <time>2014-05-25T10:15:03Z</time>
      </trkpt>
      <trkpt lat="48.7496" lon="2.52912">
        <ele>109</ele>
        <time>2014-05-25T10:15:04Z</time>
      </trkpt>
      <trkpt lat="48.74959" lon="2.52913">
        <ele>109</ele>
        <time>2014-05-25T10:15:05Z</time>
      </trkpt>
      <trkpt lat="48.74957" lon="2.52914">
        <ele>108</ele>
        <time>2014-05-25T10:15:06Z</time>
      </trkpt>
      <trkpt lat="48.74956" lon="2.52916">
        <ele>108</ele>
        <time>2014-05-25T10:15:07Z</time>
      </trkpt>
      <trkpt lat="48.74955" lon="2.52918">
        <ele>107</ele>
        <time>2014-05-25T10:15:08Z</time>
      </trkpt>
      <trkpt lat="48.74954" lon="2.5292">
        <ele>107</ele>
        <time>2014-05-25T10:15:09Z</time>
      </trkpt>
      <trkpt lat="48.74953" lon="2.52922">
        <ele>107</ele>
        <time>2014-05-25T10:15:10Z</time>
      </trkpt>
      <trkpt lat="48.74952" lon="2.52924">
        <ele>107</ele>
        <time>2014-05-25T10:15:11Z</time>
      </trkpt>
      <trkpt lat="48.74951" lon="2.52925">
        <ele>107</ele>
        <time>2014-05-25T10:15:12Z</time>
      </trkpt>
      <trkpt lat="48.7495" lon="2.52927">
        <ele>107</ele>
        <time>2014-05-25T10:15:13Z</time>
      </trkpt>
      <trkpt lat="48.7495" lon="2.52929">
        <ele>108</ele>
        <time>2014-05-25T10:15:14Z</time>
      </trkpt>
      <trkpt lat="48.74949" lon="2.52932">
        <ele>108</ele>
        <time>2014-05-25T10:15:15Z</time>
      </trkpt>
      <trkpt lat="48.74949" lon="2.52934">
        <ele>109</ele>
        <time>2014-05-25T10:15:16Z</time>
      </trkpt>
      <trkpt lat="48.74948" lon="2.52936">
        <ele>109</ele>
        <time>2014-05-25T10:15:17Z</time>
      </trkpt>
      <trkpt lat="48.74947" lon="2.52937">
        <ele>108</ele>
        <time>2014-05-25T10:15:18Z</time>
      </trkpt>
      <trkpt lat="48.74947" lon="2.52939">
        <ele>108</ele>
        <time>2014-05-25T10:15:19Z</time>
      </trkpt>
      <trkpt lat="48.74946" lon="2.52941">
        <ele>108</ele>
        <time>2014-05-25T10:15:20Z</time>
      </trkpt>
      <trkpt lat="48.74945" lon="2.52943">
        <ele>108</ele>
        <time>2014-05-25T10:15:21Z</time>
      </trkpt>
      <trkpt lat="48.74944" lon="2.52944">
        <ele>108</ele>
        <time>2014-05-25T10:15:22Z</time>
      </trkpt>
      <trkpt lat="48.74943" lon="2.52945">
        <ele>109</ele>
        <time>2014-05-25T10:15:23Z</time>
      </trkpt>
      <trkpt lat="48.74941" lon="2.52947">
        <ele>110</ele>
        <time>2014-05-25T10:15:24Z</time>
      </trkpt>
      <trkpt lat="48.7494" lon="2.52948">
        <ele>111</ele>
        <time>2014-05-25T10:15:25Z</time>
      </trkpt>
      <trkpt lat="48.74939" lon="2.5295">
        <ele>110</ele>
        <time>2014-05-25T10:15:26Z</time>
      </trkpt>
      <trkpt lat="48.74938" lon="2.52951">
        <ele>110</ele>
        <time>2014-05-25T10:15:27Z</time>
      </trkpt>
      <trkpt lat="48.74937" lon="2.52953">
        <ele>109</ele>
        <time>2014-05-25T10:15:28Z</time>
      </trkpt>
      <trkpt lat="48.74936" lon="2.52955">
        <ele>109</ele>
        <time>2014-05-25T10:15:29Z</time>
      </trkpt>
      <trkpt lat="48.74935" lon="2.52957">
        <ele>109</ele>
        <time>2014-05-25T10:15:30Z</time>
      </trkpt>
      <trkpt lat="48.74934" lon="2.52959">
        <ele>110</ele>
        <time>2014-05-25T10:15:31Z</time>
      </trkpt>
      <trkpt lat="48.74933" lon="2.52961">
        <ele>109</ele>
        <time>2014-05-25T10:15:32Z</time>
      </trkpt>
      <trkpt lat="48.74932" lon="2.52963">
        <ele>109</ele>
        <time>2014-05-25T10:15:33Z</time>
      </trkpt>
      <trkpt lat="48.74932" lon="2.52965">
        <ele>109</ele>
        <time>2014-05-25T10:15:34Z</time>
      </trkpt>
      <trkpt lat="48.74931" lon="2.52967">
        <ele>110</ele>
        <time>2014-05-25T10:15:35Z</time>
      </trkpt>
      <trkpt lat="48.74931" lon="2.52969">
        <ele>109</ele>
        <time>2014-05-25T10:15:36Z</time>
      </trkpt>
      <trkpt lat="48.74931" lon="2.52971">
        <ele>109</ele>
        <time>2014-05-25T10:15:37Z</time>
      </trkpt>
      <trkpt lat="48.7493" lon="2.52973">
        <ele>110</ele>
        <time>2014-05-25T10:15:38Z</time>
      </trkpt>
      <trkpt lat="48.74929" lon="2.52974">
        <ele>109</ele>
        <time>2014-05-25T10:15:39Z</time>
      </trkpt>
      <trkpt lat="48.74929" lon="2.52976">
        <ele>109</ele>
        <time>2014-05-25T10:15:40Z</time>
      </trkpt>
      <trkpt lat="48.74928" lon="2.52977">
        <ele>108</ele>
        <time>2014-05-25T10:15:41Z</time>
      </trkpt>
      <trkpt lat="48.74927" lon="2.52979">
        <ele>109</ele>
        <time>2014-05-25T10:15:42Z</time>
      </trkpt>
      <trkpt lat="48.74927" lon="2.5298">
        <ele>109</ele>
        <time>2014-05-25T10:15:43Z</time>
      </trkpt>
      <trkpt lat="48.74926" lon="2.52982">
        <ele>108</ele>
        <time>2014-05-25T10:15:44Z</time>
      </trkpt>
      <trkpt lat="48.74926" lon="2.52984">
        <ele>108</ele>
        <time>2014-05-25T10:15:45Z</time>
      </trkpt>
      <trkpt lat="48.74925" lon="2.52985">
        <ele>108</ele>
        <time>2014-05-25T10:15:46Z</time>
      </trkpt>
      <trkpt lat="48.74924" lon="2.52987">
        <ele>108</ele>
        <time>2014-05-25T10:15:47Z</time>
      </trkpt>
      <trkpt lat="48.74923" lon="2.52988">
        <ele>107</ele>
        <time>2014-05-25T10:15:48Z</time>
      </trkpt>
      <trkpt lat="48.74923" lon="2.5299">
        <ele>107</ele>
        <time>2014-05-25T10:15:49Z</time>
      </trkpt>
      <trkpt lat="48.74922" lon="2.52991">
        <ele>107</ele>
        <time>2014-05-25T10:15:50Z</time>
      </trkpt>
      <trkpt lat="48.74921" lon="2.52993">
        <ele>107</ele>
        <time>2014-05-25T10:15:51Z</time>
      </trkpt>
      <trkpt lat="48.7492" lon="2.52994">
        <ele>106</ele>
        <time>2014-05-25T10:15:52Z</time>
      </trkpt>
      <trkpt lat="48.74919" lon="2.52996">
        <ele>107</ele>
        <time>2014-05-25T10:15:53Z</time>
      </trkpt>
      <trkpt lat="48.74917" lon="2.52997">
        <ele>106</ele>
        <time>2014-05-25T10:15:54Z</time>
      </trkpt>
      <trkpt lat="48.74916" lon="2.52999">
        <ele>106</ele>
        <time>2014-05-25T10:15:55Z</time>
      </trkpt>
      <trkpt lat="48.74915" lon="2.53">
        <ele>106</ele>
        <time>2014-05-25T10:15:56Z</time>
      </trkpt>
      <trkpt lat="48.74914" lon="2.53002">
        <ele>106</ele>
        <time>2014-05-25T10:15:57Z</time>
      </trkpt>
      <trkpt lat="48.74912" lon="2.53003">
        <ele>107</ele>
        <time>2014-05-25T10:15:58Z</time>
      </trkpt>
      <trkpt lat="48.74911" lon="2.53004">
        <ele>107</ele>
        <time>2014-05-25T10:15:59Z</time>
      </trkpt>
      <trkpt lat="48.74911" lon="2.53006">
        <ele>107</ele>
        <time>2014-05-25T10:16:00Z</time>
      </trkpt>
      <trkpt lat="48.7491" lon="2.53007">
        <ele>107</ele>
        <time>2014-05-25T10:16:01Z</time>
      </trkpt>
      <trkpt lat="48.74909" lon="2.53009">
        <ele>107</ele>
        <time>2014-05-25T10:16:02Z</time>
      </trkpt>
      <trkpt lat="48.74908" lon="2.5301">
        <ele>106</ele>
        <time>2014-05-25T10:16:03Z</time>
      </trkpt>
      <trkpt lat="48.74907" lon="2.53012">
        <ele>106</ele>
        <time>2014-05-25T10:16:04Z</time>
      </trkpt>
      <trkpt lat="48.74905" lon="2.53014">
        <ele>106</ele>
        <time>2014-05-25T10:16:05Z</time>
      </trkpt>
      <trkpt lat="48.74904" lon="2.53016">
        <ele>105</ele>
        <time>2014-05-25T10:16:06Z</time>
      </trkpt>
      <trkpt lat="48.74903" lon="2.53018">
        <ele>105</ele>
        <time>2014-05-25T10:16:07Z</time>
      </trkpt>
      <trkpt lat="48.74902" lon="2.53019">
        <ele>106</ele>
        <time>2014-05-25T10:16:08Z</time>
      </trkpt>
      <trkpt lat="48.74901" lon="2.53021">
        <ele>106</ele>
        <time>2014-05-25T10:16:09Z</time>
      </trkpt>
      <trkpt lat="48.74899" lon="2.53023">
        <ele>105</ele>
        <time>2014-05-25T10:16:10Z</time>
      </trkpt>
      <trkpt lat="48.74898" lon="2.53025">
        <ele>106</ele>
        <time>2014-05-25T10:16:11Z</time>
      </trkpt>
      <trkpt lat="48.74897" lon="2.53027">
        <ele>106</ele>
        <time>2014-05-25T10:16:12Z</time>
      </trkpt>
      <trkpt lat="48.74896" lon="2.53029">
        <ele>106</ele>
        <time>2014-05-25T10:16:13Z</time>
      </trkpt>
      <trkpt lat="48.74894" lon="2.5303">
        <ele>107</ele>
        <time>2014-05-25T10:16:14Z</time>
      </trkpt>
      <trkpt lat="48.74893" lon="2.53032">
        <ele>106</ele>
        <time>2014-05-25T10:16:15Z</time>
      </trkpt>
      <trkpt lat="48.74892" lon="2.53033">
        <ele>106</ele>
        <time>2014-05-25T10:16:16Z</time>
      </trkpt>
      <trkpt lat="48.7489" lon="2.53035">
        <ele>106</ele>
        <time>2014-05-25T10:16:17Z</time>
      </trkpt>
      <trkpt lat="48.74889" lon="2.53036">
        <ele>107</ele>
        <time>2014-05-25T10:16:18Z</time>
      </trkpt>
      <trkpt lat="48.74888" lon="2.53038">
        <ele>106</ele>
        <time>2014-05-25T10:16:19Z</time>
      </trkpt>
      <trkpt lat="48.74887" lon="2.53039">
        <ele>106</ele>
        <time>2014-05-25T10:16:20Z</time>
      </trkpt>
      <trkpt lat="48.74886" lon="2.53041">
        <ele>107</ele>
        <time>2014-05-25T10:16:21Z</time>
      </trkpt>
      <trkpt lat="48.74884" lon="2.53042">
        <ele>107</ele>
        <time>2014-05-25T10:16:22Z</time>
      </trkpt>
      <trkpt lat="48.74883" lon="2.53044">
        <ele>107</ele>
        <time>2014-05-25T10:16:23Z</time>
      </trkpt>
      <trkpt lat="48.74882" lon="2.53046">
        <ele>107</ele>
        <time>2014-05-25T10:16:24Z</time>
      </trkpt>
      <trkpt lat="48.7488" lon="2.53047">
        <ele>107</ele>
        <time>2014-05-25T10:16:25Z</time>
      </trkpt>
      <trkpt lat="48.74879" lon="2.53049">
        <ele>107</ele>
        <time>2014-05-25T10:16:26Z</time>
      </trkpt>
      <trkpt lat="48.74878" lon="2.5305">
        <ele>107</ele>
        <time>2014-05-25T10:16:27Z</time>
      </trkpt>
      <trkpt lat="48.74876" lon="2.53052">
        <ele>106</ele>
        <time>2014-05-25T10:16:28Z</time>
      </trkpt>
      <trkpt lat="48.74875" lon="2.53054">
        <ele>106</ele>
        <time>2014-05-25T10:16:29Z</time>
      </trkpt>
      <trkpt lat="48.74874" lon="2.53055">
        <ele>105</ele>
        <time>2014-05-25T10:16:30Z</time>
      </trkpt>
      <trkpt lat="48.74873" lon="2.53057">
        <ele>106</ele>
        <time>2014-05-25T10:16:31Z</time>
      </trkpt>
      <trkpt lat="48.74872" lon="2.53059">
        <ele>105</ele>
        <time>2014-05-25T10:16:32Z</time>
      </trkpt>
      <trkpt lat="48.74871" lon="2.5306">
        <ele>106</ele>
        <time>2014-05-25T10:16:33Z</time>
      </trkpt>
      <trkpt lat="48.7487" lon="2.53062">
        <ele>105</ele>
        <time>2014-05-25T10:16:34Z</time>
      </trkpt>
      <trkpt lat="48.74869" lon="2.53064">
        <ele>105</ele>
        <time>2014-05-25T10:16:35Z</time>
      </trkpt>
      <trkpt lat="48.74867" lon="2.53065">
        <ele>105</ele>
        <time>2014-05-25T10:16:36Z</time>
      </trkpt>
      <trkpt lat="48.74866" lon="2.53067">
        <ele>106</ele>
        <time>2014-05-25T10:16:37Z</time>
      </trkpt>
      <trkpt lat="48.74865" lon="2.53068">
        <ele>107</ele>
        <time>2014-05-25T10:16:38Z</time>
      </trkpt>
      <trkpt lat="48.74864" lon="2.5307">
        <ele>108</ele>
        <time>2014-05-25T10:16:39Z</time>
      </trkpt>
      <trkpt lat="48.74863" lon="2.53072">
        <ele>109</ele>
        <time>2014-05-25T10:16:40Z</time>
      </trkpt>
      <trkpt lat="48.74863" lon="2.53073">
        <ele>110</ele>
        <time>2014-05-25T10:16:41Z</time>
      </trkpt>
      <trkpt lat="48.74861" lon="2.53075">
        <ele>111</ele>
        <time>2014-05-25T10:16:42Z</time>
      </trkpt>
      <trkpt lat="48.7486" lon="2.53076">
        <ele>109</ele>
        <time>2014-05-25T10:16:43Z</time>
      </trkpt>
      <trkpt lat="48.74859" lon="2.53077">
        <ele>109</ele>
        <time>2014-05-25T10:16:44Z</time>
      </trkpt>
      <trkpt lat="48.74859" lon="2.53079">
        <ele>108</ele>
        <time>2014-05-25T10:16:45Z</time>
      </trkpt>
      <trkpt lat="48.74858" lon="2.5308">
        <ele>109</ele>
        <time>2014-05-25T10:16:46Z</time>
      </trkpt>
      <trkpt lat="48.74857" lon="2.53082">
        <ele>111</ele>
        <time>2014-05-25T10:16:47Z</time>
      </trkpt>
      <trkpt lat="48.74857" lon="2.53083">
        <ele>113</ele>
        <time>2014-05-25T10:16:48Z</time>
      </trkpt>
      <trkpt lat="48.74856" lon="2.53085">
        <ele>113</ele>
        <time>2014-05-25T10:16:49Z</time>
      </trkpt>
      <trkpt lat="48.74855" lon="2.53086">
        <ele>113</ele>
        <time>2014-05-25T10:16:50Z</time>
      </trkpt>
      <trkpt lat="48.74854" lon="2.53088">
        <ele>112</ele>
        <time>2014-05-25T10:16:51Z</time>
      </trkpt>
      <trkpt lat="48.74853" lon="2.5309">
        <ele>112</ele>
        <time>2014-05-25T10:16:52Z</time>
      </trkpt>
      <trkpt lat="48.74852" lon="2.53092">
        <ele>112</ele>
        <time>2014-05-25T10:16:53Z</time>
      </trkpt>
      <trkpt lat="48.74851" lon="2.53093">
        <ele>112</ele>
        <time>2014-05-25T10:16:54Z</time>
      </trkpt>
      <trkpt lat="48.74851" lon="2.53095">
        <ele>111</ele>
        <time>2014-05-25T10:16:55Z</time>
      </trkpt>
      <trkpt lat="48.7485" lon="2.53097">
        <ele>112</ele>
        <time>2014-05-25T10:16:56Z</time>
      </trkpt>
      <trkpt lat="48.74849" lon="2.53099">
        <ele>110</ele>
        <time>2014-05-25T10:16:57Z</time>
      </trkpt>
      <trkpt lat="48.74848" lon="2.53101">
        <ele>107</ele>
        <time>2014-05-25T10:16:58Z</time>
      </trkpt>
      <trkpt lat="48.74848" lon="2.53103">
        <ele>107</ele>
        <time>2014-05-25T10:16:59Z</time>
      </trkpt>
      <trkpt lat="48.74847" lon="2.53105">
        <ele>109</ele>
        <time>2014-05-25T10:17:00Z</time>
      </trkpt>
      <trkpt lat="48.74847" lon="2.53106">
        <ele>107</ele>
        <time>2014-05-25T10:17:01Z</time>
      </trkpt>
      <trkpt lat="48.74847" lon="2.53108">
        <ele>108</ele>
        <time>2014-05-25T10:17:02Z</time>
      </trkpt>
      <trkpt lat="48.74847" lon="2.53109">
        <ele>107</ele>
        <time>2014-05-25T10:17:03Z</time>
      </trkpt>
      <trkpt lat="48.74847" lon="2.53111">
        <ele>107</ele>
        <time>2014-05-25T10:17:04Z</time>
      </trkpt>
      <trkpt lat="48.74846" lon="2.53112">
        <ele>107</ele>
        <time>2014-05-25T10:17:05Z</time>
      </trkpt>
      <trkpt lat="48.74845" lon="2.53114">
        <ele>107</ele>
        <time>2014-05-25T10:17:06Z</time>
      </trkpt>
      <trkpt lat="48.74845" lon="2.53115">
        <ele>106</ele>
        <time>2014-05-25T10:17:07Z</time>
      </trkpt>
      <trkpt lat="48.74844" lon="2.53116">
        <ele>106</ele>
        <time>2014-05-25T10:17:08Z</time>
      </trkpt>
      <trkpt lat="48.74843" lon="2.53117">
        <ele>107</ele>
        <time>2014-05-25T10:17:09Z</time>
      </trkpt>
      <trkpt lat="48.74842" lon="2.53119">
        <ele>107</ele>
        <time>2014-05-25T10:17:10Z</time>
      </trkpt>
      <trkpt lat="48.74841" lon="2.5312">
        <ele>107</ele>
        <time>2014-05-25T10:17:11Z</time>
      </trkpt>
      <trkpt lat="48.7484" lon="2.53122">
        <ele>107</ele>
        <time>2014-05-25T10:17:12Z</time>
      </trkpt>
      <trkpt lat="48.74839" lon="2.53123">
        <ele>107</ele>
        <time>2014-05-25T10:17:13Z</time>
      </trkpt>
      <trkpt lat="48.74838" lon="2.53125">
        <ele>107</ele>
        <time>2014-05-25T10:17:14Z</time>
      </trkpt>
      <trkpt lat="48.74837" lon="2.53126">
        <ele>108</ele>
        <time>2014-05-25T10:17:15Z</time>
      </trkpt>
      <trkpt lat="48.74836" lon="2.53128">
        <ele>108</ele>
        <time>2014-05-25T10:17:16Z</time>
      </trkpt>
      <trkpt lat="48.74836" lon="2.5313">
        <ele>108</ele>
        <time>2014-05-25T10:17:17Z</time>
      </trkpt>
      <trkpt lat="48.74835" lon="2.53131">
        <ele>108</ele>
        <time>2014-05-25T10:17:18Z</time>
      </trkpt>
      <trkpt lat="48.74834" lon="2.53133">
        <ele>108</ele>
        <time>2014-05-25T10:17:19Z</time>
      </trkpt>
      <trkpt lat="48.74833" lon="2.53135">
        <ele>109</ele>
        <time>2014-05-25T10:17:20Z</time>
      </trkpt>
      <trkpt lat="48.74832" lon="2.53137">
        <ele>110</ele>
        <time>2014-05-25T10:17:21Z</time>
      </trkpt>
      <trkpt lat="48.74831" lon="2.53139">
        <ele>108</ele>
        <time>2014-05-25T10:17:22Z</time>
      </trkpt>
      <trkpt lat="48.7483" lon="2.53141">
        <ele>107</ele>
        <time>2014-05-25T10:17:23Z</time>
      </trkpt>
      <trkpt lat="48.7483" lon="2.53142">
        <ele>108</ele>
        <time>2014-05-25T10:17:24Z</time>
      </trkpt>
      <trkpt lat="48.74829" lon="2.53144">
        <ele>108</ele>
        <time>2014-05-25T10:17:25Z</time>
      </trkpt>
      <trkpt lat="48.74828" lon="2.53146">
        <ele>109</ele>
        <time>2014-05-25T10:17:26Z</time>
      </trkpt>
      <trkpt lat="48.74827" lon="2.53148">
        <ele>108</ele>
        <time>2014-05-25T10:17:27Z</time>
      </trkpt>
      <trkpt lat="48.74826" lon="2.53149">
        <ele>108</ele>
        <time>2014-05-25T10:17:28Z</time>
      </trkpt>
      <trkpt lat="48.74825" lon="2.53152">
        <ele>109</ele>
        <time>2014-05-25T10:17:29Z</time>
      </trkpt>
      <trkpt lat="48.74824" lon="2.53154">
        <ele>109</ele>
        <time>2014-05-25T10:17:30Z</time>
      </trkpt>
      <trkpt lat="48.74823" lon="2.53155">
        <ele>109</ele>
        <time>2014-05-25T10:17:31Z</time>
      </trkpt>
      <trkpt lat="48.74823" lon="2.53157">
        <ele>108</ele>
        <time>2014-05-25T10:17:32Z</time>
      </trkpt>
      <trkpt lat="48.74822" lon="2.53159">
        <ele>109</ele>
        <time>2014-05-25T10:17:33Z</time>
      </trkpt>
      <trkpt lat="48.74821" lon="2.5316">
        <ele>109</ele>
        <time>2014-05-25T10:17:34Z</time>
      </trkpt>
      <trkpt lat="48.7482" lon="2.53162">
        <ele>109</ele>
        <time>2014-05-25T10:17:35Z</time>
      </trkpt>
      <trkpt lat="48.7482" lon="2.53163">
        <ele>109</ele>
        <time>2014-05-25T10:17:36Z</time>
      </trkpt>
      <trkpt lat="48.74819" lon="2.53165">
        <ele>108</ele>
        <time>2014-05-25T10:17:37Z</time>
      </trkpt>
      <trkpt lat="48.74818" lon="2.53167">
        <ele>109</ele>
        <time>2014-05-25T10:17:38Z</time>
      </trkpt>
      <trkpt lat="48.74818" lon="2.53168">
        <ele>108</ele>
        <time>2014-05-25T10:17:39Z</time>
      </trkpt>
      <trkpt lat="48.74817" lon="2.5317">
        <ele>107</ele>
        <time>2014-05-25T10:17:40Z</time>
      </trkpt>
      <trkpt lat="48.74816" lon="2.53172">
        <ele>108</ele>
        <time>2014-05-25T10:17:41Z</time>
      </trkpt>
      <trkpt lat="48.74816" lon="2.53174">
        <ele>107</ele>
        <time>2014-05-25T10:17:42Z</time>
      </trkpt>
      <trkpt lat="48.74815" lon="2.53175">
        <ele>107</ele>
        <time>2014-05-25T10:17:43Z</time>
      </trkpt>
      <trkpt lat="48.74815" lon="2.53177">
        <ele>108</ele>
        <time>2014-05-25T10:17:44Z</time>
      </trkpt>
      <trkpt lat="48.74814" lon="2.53179">
        <ele>108</ele>
        <time>2014-05-25T10:17:45Z</time>
      </trkpt>
      <trkpt lat="48.74813" lon="2.53181">
        <ele>108</ele>
        <time>2014-05-25T10:17:46Z</time>
      </trkpt>
      <trkpt lat="48.74812" lon="2.53182">
        <ele>107</ele>
        <time>2014-05-25T10:17:47Z</time>
      </trkpt>
      <trkpt lat="48.74811" lon="2.53184">
        <ele>107</ele>
        <time>2014-05-25T10:17:48Z</time>
      </trkpt>
      <trkpt lat="48.74811" lon="2.53185">
        <ele>108</ele>
        <time>2014-05-25T10:17:49Z</time>
      </trkpt>
      <trkpt lat="48.74809" lon="2.53187">
        <ele>107</ele>
        <time>2014-05-25T10:17:50Z</time>
      </trkpt>
      <trkpt lat="48.74808" lon="2.53189">
        <ele>107</ele>
        <time>2014-05-25T10:17:51Z</time>
      </trkpt>
      <trkpt lat="48.74807" lon="2.5319">
        <ele>108</ele>
        <time>2014-05-25T10:17:52Z</time>
      </trkpt>
      <trkpt lat="48.74806" lon="2.53192">
        <ele>108</ele>
        <time>2014-05-25T10:17:53Z</time>
      </trkpt>
      <trkpt lat="48.74805" lon="2.53193">
        <ele>108</ele>
        <time>2014-05-25T10:17:54Z</time>
      </trkpt>
      <trkpt lat="48.74804" lon="2.53195">
        <ele>107</ele>
        <time>2014-05-25T10:17:55Z</time>
      </trkpt>
      <trkpt lat="48.74803" lon="2.53196">
        <ele>108</ele>
        <time>2014-05-25T10:17:56Z</time>
      </trkpt>
      <trkpt lat="48.74802" lon="2.53198">
        <ele>110</ele>
        <time>2014-05-25T10:17:57Z</time>
      </trkpt>
      <trkpt lat="48.74801" lon="2.53199">
        <ele>109</ele>
        <time>2014-05-25T10:17:58Z</time>
      </trkpt>
      <trkpt lat="48.74799" lon="2.53201">
        <ele>109</ele>
        <time>2014-05-25T10:17:59Z</time>
      </trkpt>
      <trkpt lat="48.74799" lon="2.53202">
        <ele>111</ele>
        <time>2014-05-25T10:18:00Z</time>
      </trkpt>
      <trkpt lat="48.74797" lon="2.53204">
        <ele>109</ele>
        <time>2014-05-25T10:18:01Z</time>
      </trkpt>
      <trkpt lat="48.74796" lon="2.53205">
        <ele>109</ele>
        <time>2014-05-25T10:18:02Z</time>
      </trkpt>
      <trkpt lat="48.74794" lon="2.53207">
        <ele>109</ele>
        <time>2014-05-25T10:18:03Z</time>
      </trkpt>
      <trkpt lat="48.74793" lon="2.53208">
        <ele>109</ele>
        <time>2014-05-25T10:18:04Z</time>
      </trkpt>
      <trkpt lat="48.74792" lon="2.53209">
        <ele>109</ele>
        <time>2014-05-25T10:18:05Z</time>
      </trkpt>
      <trkpt lat="48.74791" lon="2.53211">
        <ele>109</ele>
        <time>2014-05-25T10:18:06Z</time>
      </trkpt>
      <trkpt lat="48.7479" lon="2.53212">
        <ele>109</ele>
        <time>2014-05-25T10:18:07Z</time>
      </trkpt>
      <trkpt lat="48.74788" lon="2.53214">
        <ele>108</ele>
        <time>2014-05-25T10:18:08Z</time>
      </trkpt>
      <trkpt lat="48.74787" lon="2.53215">
        <ele>108</ele>
        <time>2014-05-25T10:18:09Z</time>
      </trkpt>
      <trkpt lat="48.74786" lon="2.53216">
        <ele>108</ele>
        <time>2014-05-25T10:18:10Z</time>
      </trkpt>
      <trkpt lat="48.74784" lon="2.53218">
        <ele>107</ele>
        <time>2014-05-25T10:18:11Z</time>
      </trkpt>
      <trkpt lat="48.74783" lon="2.53219">
        <ele>107</ele>
        <time>2014-05-25T10:18:12Z</time>
      </trkpt>
      <trkpt lat="48.74782" lon="2.5322">
        <ele>107</ele>
        <time>2014-05-25T10:18:13Z</time>
      </trkpt>
      <trkpt lat="48.7478" lon="2.53222">
        <ele>107</ele>
        <time>2014-05-25T10:18:14Z</time>
      </trkpt>
      <trkpt lat="48.74779" lon="2.53223">
        <ele>108</ele>
        <time>2014-05-25T10:18:15Z</time>
      </trkpt>
      <trkpt lat="48.74778" lon="2.53225">
        <ele>107</ele>
        <time>2014-05-25T10:18:16Z</time>
      </trkpt>
      <trkpt lat="48.74777" lon="2.53226">
        <ele>108</ele>
        <time>2014-05-25T10:18:17Z</time>
      </trkpt>
      <trkpt lat="48.74777" lon="2.53229">
        <ele>108</ele>
        <time>2014-05-25T10:18:18Z</time>
      </trkpt>
      <trkpt lat="48.74776" lon="2.5323">
        <ele>109</ele>
        <time>2014-05-25T10:18:19Z</time>
      </trkpt>
      <trkpt lat="48.74776" lon="2.53232">
        <ele>108</ele>
        <time>2014-05-25T10:18:20Z</time>
      </trkpt>
      <trkpt lat="48.74775" lon="2.53233">
        <ele>109</ele>
        <time>2014-05-25T10:18:21Z</time>
      </trkpt>
      <trkpt lat="48.74775" lon="2.53236">
        <ele>107</ele>
        <time>2014-05-25T10:18:22Z</time>
      </trkpt>
      <trkpt lat="48.74775" lon="2.53238">
        <ele>107</ele>
        <time>2014-05-25T10:18:23Z</time>
      </trkpt>
      <trkpt lat="48.74774" lon="2.5324">
        <ele>107</ele>
        <time>2014-05-25T10:18:24Z</time>
      </trkpt>
      <trkpt lat="48.74773" lon="2.53242">
        <ele>107</ele>
        <time>2014-05-25T10:18:25Z</time>
      </trkpt>
      <trkpt lat="48.74772" lon="2.53244">
        <ele>106</ele>
        <time>2014-05-25T10:18:26Z</time>
      </trkpt>
      <trkpt lat="48.74771" lon="2.53247">
        <ele>107</ele>
        <time>2014-05-25T10:18:27Z</time>
      </trkpt>
      <trkpt lat="48.7477" lon="2.53248">
        <ele>107</ele>
        <time>2014-05-25T10:18:28Z</time>
      </trkpt>
      <trkpt lat="48.74769" lon="2.53249">
        <ele>105</ele>
        <time>2014-05-25T10:18:29Z</time>
      </trkpt>
      <trkpt lat="48.74768" lon="2.53251">
        <ele>104</ele>
        <time>2014-05-25T10:18:30Z</time>
      </trkpt>
      <trkpt lat="48.74767" lon="2.53252">
        <ele>105</ele>
        <time>2014-05-25T10:18:31Z</time>
      </trkpt>
      <trkpt lat="48.74766" lon="2.53254">
        <ele>105</ele>
        <time>2014-05-25T10:18:32Z</time>
      </trkpt>
      <trkpt lat="48.74765" lon="2.53255">
        <ele>106</ele>
        <time>2014-05-25T10:18:33Z</time>
      </trkpt>
      <trkpt lat="48.74764" lon="2.53257">
        <ele>105</ele>
        <time>2014-05-25T10:18:34Z</time>
      </trkpt>
      <trkpt lat="48.74763" lon="2.53259">
        <ele>106</ele>
        <time>2014-05-25T10:18:35Z</time>
      </trkpt>
      <trkpt lat="48.74762" lon="2.53261">
        <ele>106</ele>
        <time>2014-05-25T10:18:36Z</time>
      </trkpt>
      <trkpt lat="48.74761" lon="2.53262">
        <ele>106</ele>
        <time>2014-05-25T10:18:37Z</time>
      </trkpt>
      <trkpt lat="48.7476" lon="2.53264">
        <ele>106</ele>
        <time>2014-05-25T10:18:38Z</time>
      </trkpt>
      <trkpt lat="48.74759" lon="2.53265">
        <ele>106</ele>
        <time>2014-05-25T10:18:39Z</time>
      </trkpt>
      <trkpt lat="48.74758" lon="2.53266">
        <ele>107</ele>
        <time>2014-05-25T10:18:40Z</time>
      </trkpt>
      <trkpt lat="48.74758" lon="2.53268">
        <ele>106</ele>
        <time>2014-05-25T10:18:41Z</time>
      </trkpt>
      <trkpt lat="48.74757" lon="2.5327">
        <ele>106</ele>
        <time>2014-05-25T10:18:42Z</time>
      </trkpt>
      <trkpt lat="48.74756" lon="2.53271">
        <ele>106</ele>
        <time>2014-05-25T10:18:43Z</time>
      </trkpt>
      <trkpt lat="48.74755" lon="2.53274">
        <ele>106</ele>
        <time>2014-05-25T10:18:44Z</time>
      </trkpt>
      <trkpt lat="48.74754" lon="2.53276">
        <ele>106</ele>
        <time>2014-05-25T10:18:45Z</time>
      </trkpt>
      <trkpt lat="48.74754" lon="2.53277">
        <ele>106</ele>
        <time>2014-05-25T10:18:46Z</time>
      </trkpt>
      <trkpt lat="48.74753" lon="2.53279">
        <ele>106</ele>
        <time>2014-05-25T10:18:47Z</time>
      </trkpt>
      <trkpt lat="48.74752" lon="2.53281">
        <ele>106</ele>
        <time>2014-05-25T10:18:48Z</time>
      </trkpt>
      <trkpt lat="48.74751" lon="2.53283">
        <ele>106</ele>
        <time>2014-05-25T10:18:49Z</time>
      </trkpt>
      <trkpt lat="48.7475" lon="2.53285">
        <ele>106</ele>
        <time>2014-05-25T10:18:50Z</time>
      </trkpt>
      <trkpt lat="48.74749" lon="2.53287">
        <ele>106</ele>
        <time>2014-05-25T10:18:51Z</time>
      </trkpt>
      <trkpt lat="48.74748" lon="2.53289">
        <ele>106</ele>
        <time>2014-05-25T10:18:52Z</time>
      </trkpt>
      <trkpt lat="48.74746" lon="2.53291">
        <ele>106</ele>
        <time>2014-05-25T10:18:53Z</time>
      </trkpt>
      <trkpt lat="48.74745" lon="2.53293">
        <ele>106</ele>
        <time>2014-05-25T10:18:54Z</time>
      </trkpt>
      <trkpt lat="48.74744" lon="2.53294">
        <ele>107</ele>
        <time>2014-05-25T10:18:55Z</time>
      </trkpt>
      <trkpt lat="48.74742" lon="2.53297">
        <ele>106</ele>
        <time>2014-05-25T10:18:56Z</time>
      </trkpt>
      <trkpt lat="48.74741" lon="2.53299">
        <ele>106</ele>
        <time>2014-05-25T10:18:57Z</time>
      </trkpt>
      <trkpt lat="48.7474" lon="2.53301">
        <ele>106</ele>
        <time>2014-05-25T10:18:58Z</time>
      </trkpt>
      <trkpt lat="48.74739" lon="2.53303">
        <ele>106</ele>
        <time>2014-05-25T10:18:59Z</time>
      </trkpt>
      <trkpt lat="48.74739" lon="2.53305">
        <ele>105</ele>
        <time>2014-05-25T10:19:00Z</time>
      </trkpt>
      <trkpt lat="48.74738" lon="2.53307">
        <ele>105</ele>
        <time>2014-05-25T10:19:01Z</time>
      </trkpt>
      <trkpt lat="48.74738" lon="2.53309">
        <ele>105</ele>
        <time>2014-05-25T10:19:02Z</time>
      </trkpt>
      <trkpt lat="48.74737" lon="2.53311">
        <ele>106</ele>
        <time>2014-05-25T10:19:03Z</time>
      </trkpt>
      <trkpt lat="48.74736" lon="2.53312">
        <ele>106</ele>
        <time>2014-05-25T10:19:04Z</time>
      </trkpt>
      <trkpt lat="48.74735" lon="2.53314">
        <ele>106</ele>
        <time>2014-05-25T10:19:05Z</time>
      </trkpt>
      <trkpt lat="48.74734" lon="2.53316">
        <ele>106</ele>
        <time>2014-05-25T10:19:06Z</time>
      </trkpt>
      <trkpt lat="48.74733" lon="2.53317">
        <ele>106</ele>
        <time>2014-05-25T10:19:07Z</time>
      </trkpt>
      <trkpt lat="48.74732" lon="2.53319">
        <ele>106</ele>
        <time>2014-05-25T10:19:08Z</time>
      </trkpt>
      <trkpt lat="48.74731" lon="2.53321">
        <ele>106</ele>
        <time>2014-05-25T10:19:09Z</time>
      </trkpt>
      <trkpt lat="48.74729" lon="2.53323">
        <ele>106</ele>
        <time>2014-05-25T10:19:10Z</time>
      </trkpt>
      <trkpt lat="48.74728" lon="2.53325">
        <ele>106</ele>
        <time>2014-05-25T10:19:11Z</time>
      </trkpt>
      <trkpt lat="48.74727" lon="2.53327">
        <ele>106</ele>
        <time>2014-05-25T10:19:12Z</time>
      </trkpt>
      <trkpt lat="48.74727" lon="2.53329">
        <ele>105</ele>
        <time>2014-05-25T10:19:13Z</time>
      </trkpt>
      <trkpt lat="48.74725" lon="2.53331">
        <ele>106</ele>
        <time>2014-05-25T10:19:14Z</time>
      </trkpt>
      <trkpt lat="48.74724" lon="2.53332">
        <ele>106</ele>
        <time>2014-05-25T10:19:15Z</time>
      </trkpt>
      <trkpt lat="48.74724" lon="2.53332">
        <ele>106</ele>
        <time>2014-05-25T10:19:16Z</time>
      </trkpt>
      <trkpt lat="48.74723" lon="2.53333">
        <ele>106</ele>
        <time>2014-05-25T10:19:17Z</time>
      </trkpt>
      <trkpt lat="48.74723" lon="2.53334">
        <ele>106</ele>
        <time>2014-05-25T10:19:18Z</time>
      </trkpt>
      <trkpt lat="48.74722" lon="2.53335">
        <ele>106</ele>
        <time>2014-05-25T10:19:19Z</time>
      </trkpt>
      <trkpt lat="48.74721" lon="2.53337">
        <ele>106</ele>
        <time>2014-05-25T10:19:20Z</time>
      </trkpt>
      <trkpt lat="48.7472" lon="2.53338">
        <ele>106</ele>
        <time>2014-05-25T10:19:21Z</time>
      </trkpt>
      <trkpt lat="48.74719" lon="2.53339">
        <ele>106</ele>
        <time>2014-05-25T10:19:22Z</time>
      </trkpt>
      <trkpt lat="48.74718" lon="2.5334">
        <ele>105</ele>
        <time>2014-05-25T10:19:23Z</time>
      </trkpt>
      <trkpt lat="48.74717" lon="2.53342">
        <ele>107</ele>
        <time>2014-05-25T10:19:24Z</time>
      </trkpt>
      <trkpt lat="48.74716" lon="2.53344">
        <ele>107</ele>
        <time>2014-05-25T10:19:25Z</time>
      </trkpt>
      <trkpt lat="48.74715" lon="2.53345">
        <ele>107</ele>
        <time>2014-05-25T10:19:26Z</time>
      </trkpt>
      <trkpt lat="48.74714" lon="2.53347">
        <ele>107</ele>
        <time>2014-05-25T10:19:27Z</time>
      </trkpt>
      <trkpt lat="48.74713" lon="2.53348">
        <ele>108</ele>
        <time>2014-05-25T10:19:28Z</time>
      </trkpt>
      <trkpt lat="48.74711" lon="2.5335">
        <ele>109</ele>
        <time>2014-05-25T10:19:29Z</time>
      </trkpt>
      <trkpt lat="48.7471" lon="2.53352">
        <ele>109</ele>
        <time>2014-05-25T10:19:30Z</time>
      </trkpt>
      <trkpt lat="48.74709" lon="2.53354">
        <ele>109</ele>
        <time>2014-05-25T10:19:31Z</time>
      </trkpt>
      <trkpt lat="48.74708" lon="2.53356">
        <ele>110</ele>
        <time>2014-05-25T10:19:32Z</time>
      </trkpt>
      <trkpt lat="48.74707" lon="2.53358">
        <ele>111</ele>
        <time>2014-05-25T10:19:33Z</time>
      </trkpt>
      <trkpt lat="48.74706" lon="2.5336">
        <ele>112</ele>
        <time>2014-05-25T10:19:34Z</time>
      </trkpt>
      <trkpt lat="48.74705" lon="2.53362">
        <ele>113</ele>
        <time>2014-05-25T10:19:35Z</time>
      </trkpt>
      <trkpt lat="48.74704" lon="2.53364">
        <ele>114</ele>
        <time>2014-05-25T10:19:36Z</time>
      </trkpt>
      <trkpt lat="48.74703" lon="2.53366">
        <ele>114</ele>
        <time>2014-05-25T10:19:37Z</time>
      </trkpt>
      <trkpt lat="48.74702" lon="2.53367">
        <ele>114</ele>
        <time>2014-05-25T10:19:38Z</time>
      </trkpt>
      <trkpt lat="48.74701" lon="2.53369">
        <ele>114</ele>
        <time>2014-05-25T10:19:39Z</time>
      </trkpt>
      <trkpt lat="48.747" lon="2.53371">
        <ele>114</ele>
        <time>2014-05-25T10:19:40Z</time>
      </trkpt>
      <trkpt lat="48.74693" lon="2.53384">
        <ele>114</ele>
        <time>2014-05-25T10:19:47Z</time>
      </trkpt>
      <trkpt lat="48.74692" lon="2.53386">
        <ele>114</ele>
        <time>2014-05-25T10:19:49Z</time>
      </trkpt>
      <trkpt lat="48.74691" lon="2.53388">
        <ele>115</ele>
        <time>2014-05-25T10:19:50Z</time>
      </trkpt>
      <trkpt lat="48.7469" lon="2.53389">
        <ele>114</ele>
        <time>2014-05-25T10:19:51Z</time>
      </trkpt>
      <trkpt lat="48.74689" lon="2.53391">
        <ele>114</ele>
        <time>2014-05-25T10:19:52Z</time>
      </trkpt>
      <trkpt lat="48.74688" lon="2.53393">
        <ele>115</ele>
        <time>2014-05-25T10:19:53Z</time>
      </trkpt>
      <trkpt lat="48.74687" lon="2.53394">
        <ele>115</ele>
        <time>2014-05-25T10:19:54Z</time>
      </trkpt>
      <trkpt lat="48.74686" lon="2.53396">
        <ele>116</ele>
        <time>2014-05-25T10:19:55Z</time>
      </trkpt>
      <trkpt lat="48.74685" lon="2.53398">
        <ele>115</ele>
        <time>2014-05-25T10:19:56Z</time>
      </trkpt>
      <trkpt lat="48.74684" lon="2.53399">
        <ele>116</ele>
        <time>2014-05-25T10:19:57Z</time>
      </trkpt>
      <trkpt lat="48.74683" lon="2.53401">
        <ele>116</ele>
        <time>2014-05-25T10:19:58Z</time>
      </trkpt>
      <trkpt lat="48.74682" lon="2.53403">
        <ele>116</ele>
        <time>2014-05-25T10:19:59Z</time>
      </trkpt>
      <trkpt lat="48.74682" lon="2.53404">
        <ele>115</ele>
        <time>2014-05-25T10:20:00Z</time>
      </trkpt>
      <trkpt lat="48.74681" lon="2.53406">
        <ele>116</ele>
        <time>2014-05-25T10:20:01Z</time>
      </trkpt>
      <trkpt lat="48.7468" lon="2.53407">
        <ele>116</ele>
        <time>2014-05-25T10:20:02Z</time>
      </trkpt>
      <trkpt lat="48.7468" lon="2.53409">
        <ele>117</ele>
        <time>2014-05-25T10:20:03Z</time>
      </trkpt>
      <trkpt lat="48.7468" lon="2.5341">
        <ele>118</ele>
        <time>2014-05-25T10:20:04Z</time>
      </trkpt>
      <trkpt lat="48.74679" lon="2.53412">
        <ele>118</ele>
        <time>2014-05-25T10:20:05Z</time>
      </trkpt>
      <trkpt lat="48.74678" lon="2.53414">
        <ele>120</ele>
        <time>2014-05-25T10:20:06Z</time>
      </trkpt>
      <trkpt lat="48.74677" lon="2.53415">
        <ele>121</ele>
        <time>2014-05-25T10:20:07Z</time>
      </trkpt>
      <trkpt lat="48.74676" lon="2.53417">
        <ele>121</ele>
        <time>2014-05-25T10:20:08Z</time>
      </trkpt>
      <trkpt lat="48.74675" lon="2.53418">
        <ele>122</ele>
        <time>2014-05-25T10:20:09Z</time>
      </trkpt>
      <trkpt lat="48.74674" lon="2.53419">
        <ele>122</ele>
        <time>2014-05-25T10:20:10Z</time>
      </trkpt>
      <trkpt lat="48.74673" lon="2.53421">
        <ele>124</ele>
        <time>2014-05-25T10:20:11Z</time>
      </trkpt>
      <trkpt lat="48.74672" lon="2.53423">
        <ele>125</ele>
        <time>2014-05-25T10:20:12Z</time>
      </trkpt>
      <trkpt lat="48.74672" lon="2.53424">
        <ele>126</ele>
        <time>2014-05-25T10:20:13Z</time>
      </trkpt>
      <trkpt lat="48.74671" lon="2.53426">
        <ele>127</ele>
        <time>2014-05-25T10:20:14Z</time>
      </trkpt>
      <trkpt lat="48.7467" lon="2.53427">
        <ele>127</ele>
        <time>2014-05-25T10:20:15Z</time>
      </trkpt>
      <trkpt lat="48.74669" lon="2.53429">
        <ele>123</ele>
        <time>2014-05-25T10:20:16Z</time>
      </trkpt>
      <trkpt lat="48.74668" lon="2.5343">
        <ele>123</ele>
        <time>2014-05-25T10:20:17Z</time>
      </trkpt>
      <trkpt lat="48.74667" lon="2.53432">
        <ele>123</ele>
        <time>2014-05-25T10:20:18Z</time>
      </trkpt>
      <trkpt lat="48.74666" lon="2.53433">
        <ele>120</ele>
        <time>2014-05-25T10:20:19Z</time>
      </trkpt>
      <trkpt lat="48.74665" lon="2.53433">
        <ele>118</ele>
        <time>2014-05-25T10:20:20Z</time>
      </trkpt>
      <trkpt lat="48.74663" lon="2.53434">
        <ele>116</ele>
        <time>2014-05-25T10:20:21Z</time>
      </trkpt>
      <trkpt lat="48.74662" lon="2.53435">
        <ele>117</ele>
        <time>2014-05-25T10:20:22Z</time>
      </trkpt>
      <trkpt lat="48.74661" lon="2.53436">
        <ele>117</ele>
        <time>2014-05-25T10:20:23Z</time>
      </trkpt>
      <trkpt lat="48.74661" lon="2.53437">
        <ele>117</ele>
        <time>2014-05-25T10:20:24Z</time>
      </trkpt>
      <trkpt lat="48.7466" lon="2.53439">
        <ele>117</ele>
        <time>2014-05-25T10:20:25Z</time>
      </trkpt>
      <trkpt lat="48.74659" lon="2.5344">
        <ele>117</ele>
        <time>2014-05-25T10:20:26Z</time>
      </trkpt>
      <trkpt lat="48.74658" lon="2.53442">
        <ele>118</ele>
        <time>2014-05-25T10:20:27Z</time>
      </trkpt>
      <trkpt lat="48.74657" lon="2.53443">
        <ele>118</ele>
        <time>2014-05-25T10:20:28Z</time>
      </trkpt>
      <trkpt lat="48.74656" lon="2.53445">
        <ele>118</ele>
        <time>2014-05-25T10:20:29Z</time>
      </trkpt>
      <trkpt lat="48.74655" lon="2.53447">
        <ele>118</ele>
        <time>2014-05-25T10:20:30Z</time>
      </trkpt>
      <trkpt lat="48.74654" lon="2.53448">
        <ele>117</ele>
        <time>2014-05-25T10:20:31Z</time>
      </trkpt>
      <trkpt lat="48.74654" lon="2.5345">
        <ele>119</ele>
        <time>2014-05-25T10:20:32Z</time>
      </trkpt>
      <trkpt lat="48.74653" lon="2.53452">
        <ele>118</ele>
        <time>2014-05-25T10:20:33Z</time>
      </trkpt>
      <trkpt lat="48.74652" lon="2.53454">
        <ele>119</ele>
        <time>2014-05-25T10:20:34Z</time>
      </trkpt>
      <trkpt lat="48.74651" lon="2.53456">
        <ele>119</ele>
        <time>2014-05-25T10:20:35Z</time>
      </trkpt>
      <trkpt lat="48.74651" lon="2.53457">
        <ele>119</ele>
        <time>2014-05-25T10:20:36Z</time>
      </trkpt>
      <trkpt lat="48.7465" lon="2.53459">
        <ele>120</ele>
        <time>2014-05-25T10:20:37Z</time>
      </trkpt>
      <trkpt lat="48.74649" lon="2.53461">
        <ele>120</ele>
        <time>2014-05-25T10:20:38Z</time>
      </trkpt>
      <trkpt lat="48.74648" lon="2.53463">
        <ele>121</ele>
        <time>2014-05-25T10:20:39Z</time>
      </trkpt>
      <trkpt lat="48.74647" lon="2.53465">
        <ele>121</ele>
        <time>2014-05-25T10:20:40Z</time>
      </trkpt>
      <trkpt lat="48.74646" lon="2.53466">
        <ele>121</ele>
        <time>2014-05-25T10:20:41Z</time>
      </trkpt>
      <trkpt lat="48.74645" lon="2.53468">
        <ele>121</ele>
        <time>2014-05-25T10:20:42Z</time>
      </trkpt>
      <trkpt lat="48.74644" lon="2.5347">
        <ele>120</ele>
        <time>2014-05-25T10:20:43Z</time>
      </trkpt>
      <trkpt lat="48.74643" lon="2.53472">
        <ele>119</ele>
        <time>2014-05-25T10:20:44Z</time>
      </trkpt>
      <trkpt lat="48.74643" lon="2.53473">
        <ele>117</ele>
        <time>2014-05-25T10:20:45Z</time>
      </trkpt>
      <trkpt lat="48.74642" lon="2.53475">
        <ele>117</ele>
        <time>2014-05-25T10:20:46Z</time>
      </trkpt>
      <trkpt lat="48.74641" lon="2.53476">
        <ele>117</ele>
        <time>2014-05-25T10:20:47Z</time>
      </trkpt>
      <trkpt lat="48.7464" lon="2.53478">
        <ele>118</ele>
        <time>2014-05-25T10:20:48Z</time>
      </trkpt>
      <trkpt lat="48.74639" lon="2.5348">
        <ele>119</ele>
        <time>2014-05-25T10:20:49Z</time>
      </trkpt>
      <trkpt lat="48.74639" lon="2.53481">
        <ele>117</ele>
        <time>2014-05-25T10:20:50Z</time>
      </trkpt>
      <trkpt lat="48.74638" lon="2.53482">
        <ele>117</ele>
        <time>2014-05-25T10:20:51Z</time>
      </trkpt>
      <trkpt lat="48.74637" lon="2.53484">
        <ele>116</ele>
        <time>2014-05-25T10:20:52Z</time>
      </trkpt>
      <trkpt lat="48.74636" lon="2.53485">
        <ele>115</ele>
        <time>2014-05-25T10:20:53Z</time>
      </trkpt>
      <trkpt lat="48.74635" lon="2.53487">
        <ele>115</ele>
        <time>2014-05-25T10:20:54Z</time>
      </trkpt>
      <trkpt lat="48.74635" lon="2.53489">
        <ele>114</ele>
        <time>2014-05-25T10:20:55Z</time>
      </trkpt>
      <trkpt lat="48.74636" lon="2.5349">
        <ele>113</ele>
        <time>2014-05-25T10:20:56Z</time>
      </trkpt>
      <trkpt lat="48.74636" lon="2.53492">
        <ele>111</ele>
        <time>2014-05-25T10:20:57Z</time>
      </trkpt>
      <trkpt lat="48.74637" lon="2.53494">
        <ele>111</ele>
        <time>2014-05-25T10:20:58Z</time>
      </trkpt>
      <trkpt lat="48.74637" lon="2.53496">
        <ele>110</ele>
        <time>2014-05-25T10:20:59Z</time>
      </trkpt>
      <trkpt lat="48.74638" lon="2.53497">
        <ele>110</ele>
        <time>2014-05-25T10:21:00Z</time>
      </trkpt>
      <trkpt lat="48.74639" lon="2.53499">
        <ele>110</ele>
        <time>2014-05-25T10:21:01Z</time>
      </trkpt>
      <trkpt lat="48.74639" lon="2.53501">
        <ele>109</ele>
        <time>2014-05-25T10:21:02Z</time>
      </trkpt>
      <trkpt lat="48.7464" lon="2.53503">
        <ele>108</ele>
        <time>2014-05-25T10:21:03Z</time>
      </trkpt>
      <trkpt lat="48.7464" lon="2.53505">
        <ele>108</ele>
        <time>2014-05-25T10:21:04Z</time>
      </trkpt>
      <trkpt lat="48.74641" lon="2.53507">
        <ele>108</ele>
        <time>2014-05-25T10:21:05Z</time>
      </trkpt>
      <trkpt lat="48.74641" lon="2.53509">
        <ele>108</ele>
        <time>2014-05-25T10:21:06Z</time>
      </trkpt>
      <trkpt lat="48.74642" lon="2.53511">
        <ele>107</ele>
        <time>2014-05-25T10:21:07Z</time>
      </trkpt>
      <trkpt lat="48.74642" lon="2.53513">
        <ele>107</ele>
        <time>2014-05-25T10:21:08Z</time>
      </trkpt>
      <trkpt lat="48.74643" lon="2.53515">
        <ele>107</ele>
        <time>2014-05-25T10:21:09Z</time>
      </trkpt>
      <trkpt lat="48.74643" lon="2.53517">
        <ele>107</ele>
        <time>2014-05-25T10:21:10Z</time>
      </trkpt>
      <trkpt lat="48.74643" lon="2.53519">
        <ele>108</ele>
        <time>2014-05-25T10:21:11Z</time>
      </trkpt>
      <trkpt lat="48.74643" lon="2.53521">
        <ele>108</ele>
        <time>2014-05-25T10:21:12Z</time>
      </trkpt>
      <trkpt lat="48.74643" lon="2.53522">
        <ele>109</ele>
        <time>2014-05-25T10:21:13Z</time>
      </trkpt>
      <trkpt lat="48.74644" lon="2.53524">
        <ele>109</ele>
        <time>2014-05-25T10:21:14Z</time>
      </trkpt>
      <trkpt lat="48.74644" lon="2.53526">
        <ele>109</ele>
        <time>2014-05-25T10:21:15Z</time>
      </trkpt>
      <trkpt lat="48.74645" lon="2.53527">
        <ele>108</ele>
        <time>2014-05-25T10:21:16Z</time>
      </trkpt>
      <trkpt lat="48.74645" lon="2.53529">
        <ele>109</ele>
        <time>2014-05-25T10:21:17Z</time>
      </trkpt>
      <trkpt lat="48.74645" lon="2.53531">
        <ele>109</ele>
        <time>2014-05-25T10:21:18Z</time>
      </trkpt>
      <trkpt lat="48.74645" lon="2.53532">
        <ele>109</ele>
        <time>2014-05-25T10:21:19Z</time>
      </trkpt>
      <trkpt lat="48.74646" lon="2.53534">
        <ele>109</ele>
        <time>2014-05-25T10:21:20Z</time>
      </trkpt>
      <trkpt lat="48.74646" lon="2.53535">
        <ele>109</ele>
        <time>2014-05-25T10:21:21Z</time>
      </trkpt>
      <trkpt lat="48.74647" lon="2.53537">
        <ele>110</ele>
        <time>2014-05-25T10:21:22Z</time>
      </trkpt>
      <trkpt lat="48.74647" lon="2.53539">
        <ele>113</ele>
        <time>2014-05-25T10:21:23Z</time>
      </trkpt>
      <trkpt lat="48.74647" lon="2.5354">
        <ele>114</ele>
        <time>2014-05-25T10:21:24Z</time>
      </trkpt>
      <trkpt lat="48.74648" lon="2.53542">
        <ele>113</ele>
        <time>2014-05-25T10:21:25Z</time>
      </trkpt>
      <trkpt lat="48.74648" lon="2.53543">
        <ele>113</ele>
        <time>2014-05-25T10:21:26Z</time>
      </trkpt>
      <trkpt lat="48.74648" lon="2.53545">
        <ele>114</ele>
        <time>2014-05-25T10:21:27Z</time>
      </trkpt>
      <trkpt lat="48.74649" lon="2.53546">
        <ele>114</ele>
        <time>2014-05-25T10:21:28Z</time>
      </trkpt>
      <trkpt lat="48.74649" lon="2.53548">
        <ele>115</ele>
        <time>2014-05-25T10:21:29Z</time>
      </trkpt>
      <trkpt lat="48.74649" lon="2.5355">
        <ele>116</ele>
        <time>2014-05-25T10:21:30Z</time>
      </trkpt>
      <trkpt lat="48.74649" lon="2.53551">
        <ele>117</ele>
        <time>2014-05-25T10:21:31Z</time>
      </trkpt>
      <trkpt lat="48.7465" lon="2.53553">
        <ele>117</ele>
        <time>2014-05-25T10:21:32Z</time>
      </trkpt>
      <trkpt lat="48.7465" lon="2.53555">
        <ele>117</ele>
        <time>2014-05-25T10:21:33Z</time>
      </trkpt>
      <trkpt lat="48.74651" lon="2.53556">
        <ele>118</ele>
        <time>2014-05-25T10:21:34Z</time>
      </trkpt>
      <trkpt lat="48.74651" lon="2.53558">
        <ele>118</ele>
        <time>2014-05-25T10:21:35Z</time>
      </trkpt>
      <trkpt lat="48.74652" lon="2.53559">
        <ele>118</ele>
        <time>2014-05-25T10:21:36Z</time>
      </trkpt>
      <trkpt lat="48.74653" lon="2.5356">
        <ele>118</ele>
        <time>2014-05-25T10:21:37Z</time>
      </trkpt>
      <trkpt lat="48.74654" lon="2.53561">
        <ele>118</ele>
        <time>2014-05-25T10:21:38Z</time>
      </trkpt>
      <trkpt lat="48.74655" lon="2.53563">
        <ele>117</ele>
        <time>2014-05-25T10:21:39Z</time>
      </trkpt>
      <trkpt lat="48.74655" lon="2.53564">
        <ele>118</ele>
        <time>2014-05-25T10:21:40Z</time>
      </trkpt>
      <trkpt lat="48.74655" lon="2.53565">
        <ele>116</ele>
        <time>2014-05-25T10:21:41Z</time>
      </trkpt>
      <trkpt lat="48.74655" lon="2.53566">
        <ele>116</ele>
        <time>2014-05-25T10:21:42Z</time>
      </trkpt>
      <trkpt lat="48.74656" lon="2.53567">
        <ele>116</ele>
        <time>2014-05-25T10:21:43Z</time>
      </trkpt>
      <trkpt lat="48.74656" lon="2.53568">
        <ele>118</ele>
        <time>2014-05-25T10:21:44Z</time>
      </trkpt>
      <trkpt lat="48.74656" lon="2.53569">
        <ele>119</ele>
        <time>2014-05-25T10:21:45Z</time>
      </trkpt>
      <trkpt lat="48.74657" lon="2.53571">
        <ele>120</ele>
        <time>2014-05-25T10:21:46Z</time>
      </trkpt>
      <trkpt lat="48.74657" lon="2.53572">
        <ele>119</ele>
        <time>2014-05-25T10:21:47Z</time>
      </trkpt>
      <trkpt lat="48.74658" lon="2.53574">
        <ele>117</ele>
        <time>2014-05-25T10:21:48Z</time>
      </trkpt>
      <trkpt lat="48.74658" lon="2.53575">
        <ele>117</ele>
        <time>2014-05-25T10:21:49Z</time>
      </trkpt>
      <trkpt lat="48.74659" lon="2.53577">
        <ele>118</ele>
        <time>2014-05-25T10:21:50Z</time>
      </trkpt>
      <trkpt lat="48.74659" lon="2.53579">
        <ele>118</ele>
        <time>2014-05-25T10:21:51Z</time>
      </trkpt>
      <trkpt lat="48.7466" lon="2.5358">
        <ele>119</ele>
        <time>2014-05-25T10:21:52Z</time>
      </trkpt>
      <trkpt lat="48.7466" lon="2.53581">
        <ele>118</ele>
        <time>2014-05-25T10:21:53Z</time>
      </trkpt>
      <trkpt lat="48.7466" lon="2.53583">
        <ele>119</ele>
        <time>2014-05-25T10:21:54Z</time>
      </trkpt>
      <trkpt lat="48.7466" lon="2.53584">
        <ele>118</ele>
        <time>2014-05-25T10:21:55Z</time>
      </trkpt>
      <trkpt lat="48.7466" lon="2.53586">
        <ele>118</ele>
        <time>2014-05-25T10:21:56Z</time>
      </trkpt>
      <trkpt lat="48.74661" lon="2.53587">
        <ele>117</ele>
        <time>2014-05-25T10:21:57Z</time>
      </trkpt>
      <trkpt lat="48.74662" lon="2.53588">
        <ele>117</ele>
        <time>2014-05-25T10:21:58Z</time>
      </trkpt>
      <trkpt lat="48.74662" lon="2.53589">
        <ele>116</ele>
        <time>2014-05-25T10:21:59Z</time>
      </trkpt>
      <trkpt lat="48.74663" lon="2.53592">
        <ele>118</ele>
        <time>2014-05-25T10:22:00Z</time>
      </trkpt>
      <trkpt lat="48.74663" lon="2.53593">
        <ele>119</ele>
        <time>2014-05-25T10:22:01Z</time>
      </trkpt>
      <trkpt lat="48.74664" lon="2.53594">
        <ele>118</ele>
        <time>2014-05-25T10:22:02Z</time>
      </trkpt>
      <trkpt lat="48.74665" lon="2.53595">
        <ele>118</ele>
        <time>2014-05-25T10:22:03Z</time>
      </trkpt>
      <trkpt lat="48.74666" lon="2.53596">
        <ele>117</ele>
        <time>2014-05-25T10:22:04Z</time>
      </trkpt>
      <trkpt lat="48.74666" lon="2.53597">
        <ele>118</ele>
        <time>2014-05-25T10:22:05Z</time>
      </trkpt>
      <trkpt lat="48.74666" lon="2.53599">
        <ele>117</ele>
        <time>2014-05-25T10:22:06Z</time>
      </trkpt>
      <trkpt lat="48.74666" lon="2.53601">
        <ele>108</ele>
        <time>2014-05-25T10:22:07Z</time>
      </trkpt>
      <trkpt lat="48.74666" lon="2.53602">
        <ele>108</ele>
        <time>2014-05-25T10:22:08Z</time>
      </trkpt>
      <trkpt lat="48.74667" lon="2.53604">
        <ele>108</ele>
        <time>2014-05-25T10:22:09Z</time>
      </trkpt>
      <trkpt lat="48.74667" lon="2.53606">
        <ele>108</ele>
        <time>2014-05-25T10:22:10Z</time>
      </trkpt>
      <trkpt lat="48.74668" lon="2.53608">
        <ele>108</ele>
        <time>2014-05-25T10:22:11Z</time>
      </trkpt>
      <trkpt lat="48.74669" lon="2.53611">
        <ele>108</ele>
        <time>2014-05-25T10:22:12Z</time>
      </trkpt>
      <trkpt lat="48.74669" lon="2.53613">
        <ele>109</ele>
        <time>2014-05-25T10:22:13Z</time>
      </trkpt>
      <trkpt lat="48.7467" lon="2.53614">
        <ele>109</ele>
        <time>2014-05-25T10:22:14Z</time>
      </trkpt>
      <trkpt lat="48.7467" lon="2.53615">
        <ele>109</ele>
        <time>2014-05-25T10:22:15Z</time>
      </trkpt>
      <trkpt lat="48.7467" lon="2.53615">
        <ele>110</ele>
        <time>2014-05-25T10:22:16Z</time>
      </trkpt>
      <trkpt lat="48.74671" lon="2.53617">
        <ele>109</ele>
        <time>2014-05-25T10:22:17Z</time>
      </trkpt>
      <trkpt lat="48.74671" lon="2.53618">
        <ele>107</ele>
        <time>2014-05-25T10:22:18Z</time>
      </trkpt>
      <trkpt lat="48.74672" lon="2.5362">
        <ele>109</ele>
        <time>2014-05-25T10:22:19Z</time>
      </trkpt>
      <trkpt lat="48.74673" lon="2.53621">
        <ele>108</ele>
        <time>2014-05-25T10:22:20Z</time>
      </trkpt>
      <trkpt lat="48.74673" lon="2.53622">
        <ele>107</ele>
        <time>2014-05-25T10:22:21Z</time>
      </trkpt>
      <trkpt lat="48.74673" lon="2.53625">
        <ele>108</ele>
        <time>2014-05-25T10:22:22Z</time>
      </trkpt>
      <trkpt lat="48.74673" lon="2.53627">
        <ele>107</ele>
        <time>2014-05-25T10:22:23Z</time>
      </trkpt>
      <trkpt lat="48.74673" lon="2.53628">
        <ele>107</ele>
        <time>2014-05-25T10:22:24Z</time>
      </trkpt>
      <trkpt lat="48.74675" lon="2.53631">
        <ele>107</ele>
        <time>2014-05-25T10:22:25Z</time>
      </trkpt>
      <trkpt lat="48.74676" lon="2.53634">
        <ele>107</ele>
        <time>2014-05-25T10:22:26Z</time>
      </trkpt>
      <trkpt lat="48.74677" lon="2.53636">
        <ele>107</ele>
        <time>2014-05-25T10:22:27Z</time>
      </trkpt>
      <trkpt lat="48.74678" lon="2.53639">
        <ele>107</ele>
        <time>2014-05-25T10:22:28Z</time>
      </trkpt>
      <trkpt lat="48.74678" lon="2.53641">
        <ele>107</ele>
        <time>2014-05-25T10:22:29Z</time>
      </trkpt>
      <trkpt lat="48.74678" lon="2.53642">
        <ele>108</ele>
        <time>2014-05-25T10:22:30Z</time>
      </trkpt>
      <trkpt lat="48.7468" lon="2.53646">
        <ele>107</ele>
        <time>2014-05-25T10:22:31Z</time>
      </trkpt>
      <trkpt lat="48.74681" lon="2.53648">
        <ele>107</ele>
        <time>2014-05-25T10:22:32Z</time>
      </trkpt>
      <trkpt lat="48.74682" lon="2.53651">
        <ele>107</ele>
        <time>2014-05-25T10:22:33Z</time>
      </trkpt>
      <trkpt lat="48.74682" lon="2.53653">
        <ele>107</ele>
        <time>2014-05-25T10:22:34Z</time>
      </trkpt>
      <trkpt lat="48.74683" lon="2.53656">
        <ele>107</ele>
        <time>2014-05-25T10:22:35Z</time>
      </trkpt>
      <trkpt lat="48.74684" lon="2.53658">
        <ele>107</ele>
        <time>2014-05-25T10:22:36Z</time>
      </trkpt>
      <trkpt lat="48.74684" lon="2.53661">
        <ele>108</ele>
        <time>2014-05-25T10:22:37Z</time>
      </trkpt>
      <trkpt lat="48.74685" lon="2.53663">
        <ele>108</ele>
        <time>2014-05-25T10:22:38Z</time>
      </trkpt>
      <trkpt lat="48.74686" lon="2.53664">
        <ele>108</ele>
        <time>2014-05-25T10:22:39Z</time>
      </trkpt>
      <trkpt lat="48.74687" lon="2.53667">
        <ele>107</ele>
        <time>2014-05-25T10:22:40Z</time>
      </trkpt>
      <trkpt lat="48.74687" lon="2.53669">
        <ele>107</ele>
        <time>2014-05-25T10:22:41Z</time>
      </trkpt>
      <trkpt lat="48.74688" lon="2.53671">
        <ele>107</ele>
        <time>2014-05-25T10:22:42Z</time>
      </trkpt>
      <trkpt lat="48.74689" lon="2.53672">
        <ele>107</ele>
        <time>2014-05-25T10:22:43Z</time>
      </trkpt>
      <trkpt lat="48.7469" lon="2.53675">
        <ele>107</ele>
        <time>2014-05-25T10:22:44Z</time>
      </trkpt>
      <trkpt lat="48.7469" lon="2.53676">
        <ele>107</ele>
        <time>2014-05-25T10:22:45Z</time>
      </trkpt>
      <trkpt lat="48.74691" lon="2.53679">
        <ele>107</ele>
        <time>2014-05-25T10:22:46Z</time>
      </trkpt>
      <trkpt lat="48.74692" lon="2.53681">
        <ele>107</ele>
        <time>2014-05-25T10:22:47Z</time>
      </trkpt>
      <trkpt lat="48.74692" lon="2.53682">
        <ele>107</ele>
        <time>2014-05-25T10:22:48Z</time>
      </trkpt>
      <trkpt lat="48.74693" lon="2.53685">
        <ele>107</ele>
        <time>2014-05-25T10:22:49Z</time>
      </trkpt>
      <trkpt lat="48.74693" lon="2.53687">
        <ele>107</ele>
        <time>2014-05-25T10:22:50Z</time>
      </trkpt>
      <trkpt lat="48.74693" lon="2.53688">
        <ele>106</ele>
        <time>2014-05-25T10:22:51Z</time>
      </trkpt>
      <trkpt lat="48.74693" lon="2.53691">
        <ele>107</ele>
        <time>2014-05-25T10:22:52Z</time>
      </trkpt>
      <trkpt lat="48.74693" lon="2.53693">
        <ele>107</ele>
        <time>2014-05-25T10:22:53Z</time>
      </trkpt>
      <trkpt lat="48.74694" lon="2.53694">
        <ele>106</ele>
        <time>2014-05-25T10:22:54Z</time>
      </trkpt>
      <trkpt lat="48.74694" lon="2.53697">
        <ele>106</ele>
        <time>2014-05-25T10:22:55Z</time>
      </trkpt>
      <trkpt lat="48.74694" lon="2.53699">
        <ele>106</ele>
        <time>2014-05-25T10:22:56Z</time>
      </trkpt>
      <trkpt lat="48.74694" lon="2.53701">
        <ele>106</ele>
        <time>2014-05-25T10:22:57Z</time>
      </trkpt>
      <trkpt lat="48.74695" lon="2.53703">
        <ele>106</ele>
        <time>2014-05-25T10:22:58Z</time>
      </trkpt>
      <trkpt lat="48.74695" lon="2.53705">
        <ele>107</ele>
        <time>2014-05-25T10:22:59Z</time>
      </trkpt>
      <trkpt lat="48.74697" lon="2.53707">
        <ele>107</ele>
        <time>2014-05-25T10:23:00Z</time>
      </trkpt>
      <trkpt lat="48.74697" lon="2.5371">
        <ele>106</ele>
        <time>2014-05-25T10:23:01Z</time>
      </trkpt>
      <trkpt lat="48.74697" lon="2.53711">
        <ele>106</ele>
        <time>2014-05-25T10:23:02Z</time>
      </trkpt>
      <trkpt lat="48.74698" lon="2.53714">
        <ele>105</ele>
        <time>2014-05-25T10:23:03Z</time>
      </trkpt>
      <trkpt lat="48.74698" lon="2.53715">
        <ele>106</ele>
        <time>2014-05-25T10:23:04Z</time>
      </trkpt>
      <trkpt lat="48.74698" lon="2.53717">
        <ele>105</ele>
        <time>2014-05-25T10:23:05Z</time>
      </trkpt>
      <trkpt lat="48.74698" lon="2.53719">
        <ele>105</ele>
        <time>2014-05-25T10:23:06Z</time>
      </trkpt>
      <trkpt lat="48.74699" lon="2.53721">
        <ele>106</ele>
        <time>2014-05-25T10:23:07Z</time>
      </trkpt>
      <trkpt lat="48.74699" lon="2.53723">
        <ele>106</ele>
        <time>2014-05-25T10:23:08Z</time>
      </trkpt>
      <trkpt lat="48.74699" lon="2.53726">
        <ele>106</ele>
        <time>2014-05-25T10:23:09Z</time>
      </trkpt>
      <trkpt lat="48.747" lon="2.53728">
        <ele>106</ele>
        <time>2014-05-25T10:23:10Z</time>
      </trkpt>
      <trkpt lat="48.747" lon="2.5373">
        <ele>107</ele>
        <time>2014-05-25T10:23:11Z</time>
      </trkpt>
      <trkpt lat="48.74701" lon="2.53732">
        <ele>107</ele>
        <time>2014-05-25T10:23:12Z</time>
      </trkpt>
      <trkpt lat="48.74702" lon="2.53734">
        <ele>107</ele>
        <time>2014-05-25T10:23:13Z</time>
      </trkpt>
      <trkpt lat="48.74702" lon="2.53737">
        <ele>106</ele>
        <time>2014-05-25T10:23:14Z</time>
      </trkpt>
      <trkpt lat="48.74703" lon="2.53739">
        <ele>106</ele>
        <time>2014-05-25T10:23:15Z</time>
      </trkpt>
      <trkpt lat="48.74704" lon="2.5374">
        <ele>106</ele>
        <time>2014-05-25T10:23:16Z</time>
      </trkpt>
      <trkpt lat="48.74705" lon="2.53742">
        <ele>106</ele>
        <time>2014-05-25T10:23:17Z</time>
      </trkpt>
      <trkpt lat="48.74706" lon="2.53744">
        <ele>106</ele>
        <time>2014-05-25T10:23:18Z</time>
      </trkpt>
      <trkpt lat="48.74707" lon="2.53746">
        <ele>106</ele>
        <time>2014-05-25T10:23:19Z</time>
      </trkpt>
      <trkpt lat="48.74708" lon="2.53747">
        <ele>105</ele>
        <time>2014-05-25T10:23:20Z</time>
      </trkpt>
      <trkpt lat="48.74708" lon="2.53749">
        <ele>105</ele>
        <time>2014-05-25T10:23:21Z</time>
      </trkpt>
      <trkpt lat="48.7471" lon="2.53751">
        <ele>105</ele>
        <time>2014-05-25T10:23:22Z</time>
      </trkpt>
      <trkpt lat="48.74711" lon="2.53752">
        <ele>104</ele>
        <time>2014-05-25T10:23:23Z</time>
      </trkpt>
      <trkpt lat="48.74712" lon="2.53754">
        <ele>105</ele>
        <time>2014-05-25T10:23:24Z</time>
      </trkpt>
      <trkpt lat="48.74713" lon="2.53755">
        <ele>105</ele>
        <time>2014-05-25T10:23:25Z</time>
      </trkpt>
      <trkpt lat="48.74714" lon="2.53757">
        <ele>104</ele>
        <time>2014-05-25T10:23:26Z</time>
      </trkpt>
      <trkpt lat="48.74715" lon="2.53759">
        <ele>105</ele>
        <time>2014-05-25T10:23:27Z</time>
      </trkpt>
      <trkpt lat="48.74716" lon="2.53761">
        <ele>104</ele>
        <time>2014-05-25T10:23:28Z</time>
      </trkpt>
      <trkpt lat="48.74716" lon="2.53763">
        <ele>105</ele>
        <time>2014-05-25T10:23:29Z</time>
      </trkpt>
      <trkpt lat="48.74717" lon="2.53765">
        <ele>105</ele>
        <time>2014-05-25T10:23:30Z</time>
      </trkpt>
      <trkpt lat="48.74718" lon="2.53767">
        <ele>105</ele>
        <time>2014-05-25T10:23:31Z</time>
      </trkpt>
      <trkpt lat="48.74719" lon="2.53768">
        <ele>105</ele>
        <time>2014-05-25T10:23:32Z</time>
      </trkpt>
      <trkpt lat="48.7472" lon="2.53769">
        <ele>104</ele>
        <time>2014-05-25T10:23:33Z</time>
      </trkpt>
      <trkpt lat="48.74721" lon="2.5377">
        <ele>104</ele>
        <time>2014-05-25T10:23:34Z</time>
      </trkpt>
      <trkpt lat="48.74722" lon="2.53771">
        <ele>104</ele>
        <time>2014-05-25T10:23:35Z</time>
      </trkpt>
      <trkpt lat="48.74723" lon="2.53772">
        <ele>104</ele>
        <time>2014-05-25T10:23:36Z</time>
      </trkpt>
      <trkpt lat="48.74724" lon="2.53772">
        <ele>105</ele>
        <time>2014-05-25T10:23:37Z</time>
      </trkpt>
      <trkpt lat="48.74725" lon="2.53773">
        <ele>105</ele>
        <time>2014-05-25T10:23:38Z</time>
      </trkpt>
      <trkpt lat="48.74726" lon="2.53775">
        <ele>105</ele>
        <time>2014-05-25T10:23:39Z</time>
      </trkpt>
      <trkpt lat="48.74727" lon="2.53776">
        <ele>104</ele>
        <time>2014-05-25T10:23:40Z</time>
      </trkpt>
      <trkpt lat="48.74727" lon="2.53777">
        <ele>104</ele>
        <time>2014-05-25T10:23:41Z</time>
      </trkpt>
      <trkpt lat="48.74727" lon="2.53779">
        <ele>104</ele>
        <time>2014-05-25T10:23:42Z</time>
      </trkpt>
      <trkpt lat="48.74728" lon="2.5378">
        <ele>104</ele>
        <time>2014-05-25T10:23:43Z</time>
      </trkpt>
      <trkpt lat="48.74728" lon="2.53783">
        <ele>105</ele>
        <time>2014-05-25T10:23:44Z</time>
      </trkpt>
      <trkpt lat="48.74729" lon="2.53784">
        <ele>106</ele>
        <time>2014-05-25T10:23:45Z</time>
      </trkpt>
      <trkpt lat="48.7473" lon="2.53788">
        <ele>104</ele>
        <time>2014-05-25T10:23:46Z</time>
      </trkpt>
      <trkpt lat="48.74731" lon="2.5379">
        <ele>104</ele>
        <time>2014-05-25T10:23:47Z</time>
      </trkpt>
      <trkpt lat="48.74732" lon="2.53792">
        <ele>104</ele>
        <time>2014-05-25T10:23:48Z</time>
      </trkpt>
      <trkpt lat="48.74733" lon="2.53794">
        <ele>105</ele>
        <time>2014-05-25T10:23:49Z</time>
      </trkpt>
      <trkpt lat="48.74734" lon="2.53796">
        <ele>104</ele>
        <time>2014-05-25T10:23:50Z</time>
      </trkpt>
      <trkpt lat="48.74735" lon="2.53797">
        <ele>104</ele>
        <time>2014-05-25T10:23:51Z</time>
      </trkpt>
      <trkpt lat="48.74736" lon="2.53799">
        <ele>104</ele>
        <time>2014-05-25T10:23:52Z</time>
      </trkpt>
      <trkpt lat="48.74737" lon="2.53801">
        <ele>104</ele>
        <time>2014-05-25T10:23:53Z</time>
      </trkpt>
      <trkpt lat="48.74738" lon="2.53802">
        <ele>104</ele>
        <time>2014-05-25T10:23:54Z</time>
      </trkpt>
      <trkpt lat="48.74739" lon="2.53803">
        <ele>104</ele>
        <time>2014-05-25T10:23:55Z</time>
      </trkpt>
      <trkpt lat="48.7474" lon="2.53805">
        <ele>102</ele>
        <time>2014-05-25T10:23:56Z</time>
      </trkpt>
      <trkpt lat="48.74741" lon="2.53807">
        <ele>103</ele>
        <time>2014-05-25T10:23:57Z</time>
      </trkpt>
      <trkpt lat="48.74743" lon="2.53808">
        <ele>104</ele>
        <time>2014-05-25T10:23:58Z</time>
      </trkpt>
      <trkpt lat="48.74744" lon="2.5381">
        <ele>104</ele>
        <time>2014-05-25T10:23:59Z</time>
      </trkpt>
      <trkpt lat="48.74745" lon="2.53811">
        <ele>104</ele>
        <time>2014-05-25T10:24:00Z</time>
      </trkpt>
      <trkpt lat="48.74745" lon="2.53812">
        <ele>104</ele>
        <time>2014-05-25T10:24:01Z</time>
      </trkpt>
      <trkpt lat="48.74746" lon="2.53815">
        <ele>104</ele>
        <time>2014-05-25T10:24:02Z</time>
      </trkpt>
      <trkpt lat="48.74747" lon="2.53816">
        <ele>104</ele>
        <time>2014-05-25T10:24:03Z</time>
      </trkpt>
      <trkpt lat="48.74748" lon="2.53818">
        <ele>104</ele>
        <time>2014-05-25T10:24:04Z</time>
      </trkpt>
      <trkpt lat="48.74749" lon="2.5382">
        <ele>104</ele>
        <time>2014-05-25T10:24:05Z</time>
      </trkpt>
      <trkpt lat="48.74749" lon="2.53821">
        <ele>104</ele>
        <time>2014-05-25T10:24:06Z</time>
      </trkpt>
      <trkpt lat="48.7475" lon="2.53823">
        <ele>105</ele>
        <time>2014-05-25T10:24:07Z</time>
      </trkpt>
      <trkpt lat="48.7475" lon="2.53825">
        <ele>105</ele>
        <time>2014-05-25T10:24:08Z</time>
      </trkpt>
      <trkpt lat="48.74751" lon="2.53826">
        <ele>106</ele>
        <time>2014-05-25T10:24:09Z</time>
      </trkpt>
      <trkpt lat="48.74751" lon="2.53828">
        <ele>106</ele>
        <time>2014-05-25T10:24:10Z</time>
      </trkpt>
      <trkpt lat="48.74752" lon="2.53829">
        <ele>105</ele>
        <time>2014-05-25T10:24:11Z</time>
      </trkpt>
      <trkpt lat="48.74753" lon="2.53831">
        <ele>105</ele>
        <time>2014-05-25T10:24:12Z</time>
      </trkpt>
      <trkpt lat="48.74754" lon="2.53832">
        <ele>106</ele>
        <time>2014-05-25T10:24:13Z</time>
      </trkpt>
      <trkpt lat="48.74755" lon="2.53833">
        <ele>105</ele>
        <time>2014-05-25T10:24:14Z</time>
      </trkpt>
      <trkpt lat="48.74756" lon="2.53834">
        <ele>105</ele>
        <time>2014-05-25T10:24:15Z</time>
      </trkpt>
      <trkpt lat="48.74757" lon="2.53835">
        <ele>105</ele>
        <time>2014-05-25T10:24:16Z</time>
      </trkpt>
      <trkpt lat="48.74758" lon="2.53836">
        <ele>105</ele>
        <time>2014-05-25T10:24:17Z</time>
      </trkpt>
      <trkpt lat="48.7476" lon="2.53836">
        <ele>105</ele>
        <time>2014-05-25T10:24:18Z</time>
      </trkpt>
      <trkpt lat="48.74761" lon="2.53837">
        <ele>106</ele>
        <time>2014-05-25T10:24:19Z</time>
      </trkpt>
      <trkpt lat="48.74762" lon="2.53838">
        <ele>108</ele>
        <time>2014-05-25T10:24:20Z</time>
      </trkpt>
      <trkpt lat="48.74763" lon="2.53839">
        <ele>106</ele>
        <time>2014-05-25T10:24:21Z</time>
      </trkpt>
      <trkpt lat="48.74765" lon="2.5384">
        <ele>106</ele>
        <time>2014-05-25T10:24:22Z</time>
      </trkpt>
      <trkpt lat="48.74766" lon="2.53841">
        <ele>106</ele>
        <time>2014-05-25T10:24:23Z</time>
      </trkpt>
      <trkpt lat="48.74767" lon="2.53842">
        <ele>106</ele>
        <time>2014-05-25T10:24:24Z</time>
      </trkpt>
      <trkpt lat="48.74769" lon="2.53842">
        <ele>106</ele>
        <time>2014-05-25T10:24:25Z</time>
      </trkpt>
      <trkpt lat="48.7477" lon="2.53843">
        <ele>105</ele>
        <time>2014-05-25T10:24:26Z</time>
      </trkpt>
      <trkpt lat="48.74772" lon="2.53844">
        <ele>106</ele>
        <time>2014-05-25T10:24:27Z</time>
      </trkpt>
      <trkpt lat="48.74773" lon="2.53844">
        <ele>106</ele>
        <time>2014-05-25T10:24:28Z</time>
      </trkpt>
      <trkpt lat="48.74774" lon="2.53846">
        <ele>106</ele>
        <time>2014-05-25T10:24:29Z</time>
      </trkpt>
      <trkpt lat="48.74775" lon="2.53848">
        <ele>106</ele>
        <time>2014-05-25T10:24:30Z</time>
      </trkpt>
      <trkpt lat="48.74776" lon="2.53848">
        <ele>105</ele>
        <time>2014-05-25T10:24:31Z</time>
      </trkpt>
      <trkpt lat="48.74778" lon="2.53849">
        <ele>106</ele>
        <time>2014-05-25T10:24:32Z</time>
      </trkpt>
      <trkpt lat="48.74779" lon="2.53851">
        <ele>105</ele>
        <time>2014-05-25T10:24:33Z</time>
      </trkpt>
      <trkpt lat="48.7478" lon="2.53851">
        <ele>105</ele>
        <time>2014-05-25T10:24:34Z</time>
      </trkpt>
      <trkpt lat="48.74782" lon="2.53853">
        <ele>105</ele>
        <time>2014-05-25T10:24:35Z</time>
      </trkpt>
      <trkpt lat="48.74784" lon="2.53853">
        <ele>105</ele>
        <time>2014-05-25T10:24:36Z</time>
      </trkpt>
      <trkpt lat="48.74785" lon="2.53855">
        <ele>105</ele>
        <time>2014-05-25T10:24:37Z</time>
      </trkpt>
      <trkpt lat="48.74787" lon="2.53856">
        <ele>105</ele>
        <time>2014-05-25T10:24:38Z</time>
      </trkpt>
      <trkpt lat="48.74788" lon="2.53857">
        <ele>104</ele>
        <time>2014-05-25T10:24:39Z</time>
      </trkpt>
      <trkpt lat="48.74789" lon="2.53858">
        <ele>104</ele>
        <time>2014-05-25T10:24:40Z</time>
      </trkpt>
      <trkpt lat="48.74791" lon="2.53859">
        <ele>104</ele>
        <time>2014-05-25T10:24:41Z</time>
      </trkpt>
      <trkpt lat="48.74792" lon="2.5386">
        <ele>104</ele>
        <time>2014-05-25T10:24:42Z</time>
      </trkpt>
      <trkpt lat="48.74794" lon="2.53861">
        <ele>104</ele>
        <time>2014-05-25T10:24:43Z</time>
      </trkpt>
      <trkpt lat="48.74795" lon="2.53861">
        <ele>104</ele>
        <time>2014-05-25T10:24:44Z</time>
      </trkpt>
      <trkpt lat="48.74797" lon="2.53864">
        <ele>105</ele>
        <time>2014-05-25T10:24:45Z</time>
      </trkpt>
      <trkpt lat="48.74798" lon="2.53865">
        <ele>105</ele>
        <time>2014-05-25T10:24:46Z</time>
      </trkpt>
      <trkpt lat="48.74798" lon="2.53867">
        <ele>105</ele>
        <time>2014-05-25T10:24:47Z</time>
      </trkpt>
      <trkpt lat="48.748" lon="2.53868">
        <ele>103</ele>
        <time>2014-05-25T10:24:48Z</time>
      </trkpt>
      <trkpt lat="48.748" lon="2.53869">
        <ele>102</ele>
        <time>2014-05-25T10:24:49Z</time>
      </trkpt>
      <trkpt lat="48.74802" lon="2.53871">
        <ele>100</ele>
        <time>2014-05-25T10:24:50Z</time>
      </trkpt>
      <trkpt lat="48.74803" lon="2.53872">
        <ele>100</ele>
        <time>2014-05-25T10:24:51Z</time>
      </trkpt>
      <trkpt lat="48.74804" lon="2.53874">
        <ele>100</ele>
        <time>2014-05-25T10:24:52Z</time>
      </trkpt>
      <trkpt lat="48.74804" lon="2.53876">
        <ele>101</ele>
        <time>2014-05-25T10:24:53Z</time>
      </trkpt>
      <trkpt lat="48.74804" lon="2.53878">
        <ele>101</ele>
        <time>2014-05-25T10:24:54Z</time>
      </trkpt>
      <trkpt lat="48.74804" lon="2.53879">
        <ele>102</ele>
        <time>2014-05-25T10:24:55Z</time>
      </trkpt>
      <trkpt lat="48.74805" lon="2.53881">
        <ele>102</ele>
        <time>2014-05-25T10:24:56Z</time>
      </trkpt>
      <trkpt lat="48.74806" lon="2.53881">
        <ele>103</ele>
        <time>2014-05-25T10:24:57Z</time>
      </trkpt>
      <trkpt lat="48.74807" lon="2.53881">
        <ele>104</ele>
        <time>2014-05-25T10:24:58Z</time>
      </trkpt>
      <trkpt lat="48.74808" lon="2.53881">
        <ele>105</ele>
        <time>2014-05-25T10:24:59Z</time>
      </trkpt>
      <trkpt lat="48.74809" lon="2.53879">
        <ele>105</ele>
        <time>2014-05-25T10:25:00Z</time>
      </trkpt>
      <trkpt lat="48.7481" lon="2.53879">
        <ele>106</ele>
        <time>2014-05-25T10:25:01Z</time>
      </trkpt>
      <trkpt lat="48.74811" lon="2.53878">
        <ele>105</ele>
        <time>2014-05-25T10:25:02Z</time>
      </trkpt>
      <trkpt lat="48.74813" lon="2.53878">
        <ele>104</ele>
        <time>2014-05-25T10:25:03Z</time>
      </trkpt>
      <trkpt lat="48.74814" lon="2.53878">
        <ele>105</ele>
        <time>2014-05-25T10:25:04Z</time>
      </trkpt>
      <trkpt lat="48.74815" lon="2.53879">
        <ele>106</ele>
        <time>2014-05-25T10:25:05Z</time>
      </trkpt>
      <trkpt lat="48.74816" lon="2.53878">
        <ele>105</ele>
        <time>2014-05-25T10:25:06Z</time>
      </trkpt>
      <trkpt lat="48.74817" lon="2.53878">
        <ele>107</ele>
        <time>2014-05-25T10:25:07Z</time>
      </trkpt>
      <trkpt lat="48.74819" lon="2.53878">
        <ele>108</ele>
        <time>2014-05-25T10:25:08Z</time>
      </trkpt>
      <trkpt lat="48.7482" lon="2.53878">
        <ele>107</ele>
        <time>2014-05-25T10:25:09Z</time>
      </trkpt>
      <trkpt lat="48.74821" lon="2.53878">
        <ele>108</ele>
        <time>2014-05-25T10:25:10Z</time>
      </trkpt>
      <trkpt lat="48.74823" lon="2.53878">
        <ele>109</ele>
        <time>2014-05-25T10:25:11Z</time>
      </trkpt>
      <trkpt lat="48.74824" lon="2.53878">
        <ele>109</ele>
        <time>2014-05-25T10:25:12Z</time>
      </trkpt>
      <trkpt lat="48.74825" lon="2.53879">
        <ele>111</ele>
        <time>2014-05-25T10:25:13Z</time>
      </trkpt>
      <trkpt lat="48.74827" lon="2.53879">
        <ele>112</ele>
        <time>2014-05-25T10:25:14Z</time>
      </trkpt>
      <trkpt lat="48.74828" lon="2.5388">
        <ele>113</ele>
        <time>2014-05-25T10:25:15Z</time>
      </trkpt>
      <trkpt lat="48.74829" lon="2.5388">
        <ele>113</ele>
        <time>2014-05-25T10:25:16Z</time>
      </trkpt>
      <trkpt lat="48.7483" lon="2.5388">
        <ele>114</ele>
        <time>2014-05-25T10:25:17Z</time>
      </trkpt>
      <trkpt lat="48.74832" lon="2.53881">
        <ele>115</ele>
        <time>2014-05-25T10:25:18Z</time>
      </trkpt>
      <trkpt lat="48.74833" lon="2.53882">
        <ele>117</ele>
        <time>2014-05-25T10:25:19Z</time>
      </trkpt>
      <trkpt lat="48.74834" lon="2.53883">
        <ele>117</ele>
        <time>2014-05-25T10:25:20Z</time>
      </trkpt>
      <trkpt lat="48.74835" lon="2.53884">
        <ele>118</ele>
        <time>2014-05-25T10:25:21Z</time>
      </trkpt>
      <trkpt lat="48.74836" lon="2.53885">
        <ele>116</ele>
        <time>2014-05-25T10:25:22Z</time>
      </trkpt>
      <trkpt lat="48.74837" lon="2.53885">
        <ele>116</ele>
        <time>2014-05-25T10:25:23Z</time>
      </trkpt>
      <trkpt lat="48.74839" lon="2.53885">
        <ele>117</ele>
        <time>2014-05-25T10:25:24Z</time>
      </trkpt>
      <trkpt lat="48.7484" lon="2.53885">
        <ele>116</ele>
        <time>2014-05-25T10:25:25Z</time>
      </trkpt>
      <trkpt lat="48.74841" lon="2.53885">
        <ele>116</ele>
        <time>2014-05-25T10:25:26Z</time>
      </trkpt>
      <trkpt lat="48.74843" lon="2.53886">
        <ele>114</ele>
        <time>2014-05-25T10:25:27Z</time>
      </trkpt>
      <trkpt lat="48.74844" lon="2.53886">
        <ele>113</ele>
        <time>2014-05-25T10:25:28Z</time>
      </trkpt>
      <trkpt lat="48.74846" lon="2.53887">
        <ele>113</ele>
        <time>2014-05-25T10:25:29Z</time>
      </trkpt>
      <trkpt lat="48.74847" lon="2.53887">
        <ele>113</ele>
        <time>2014-05-25T10:25:30Z</time>
      </trkpt>
      <trkpt lat="48.74848" lon="2.53887">
        <ele>112</ele>
        <time>2014-05-25T10:25:31Z</time>
      </trkpt>
      <trkpt lat="48.7485" lon="2.53888">
        <ele>112</ele>
        <time>2014-05-25T10:25:32Z</time>
      </trkpt>
      <trkpt lat="48.74851" lon="2.53888">
        <ele>111</ele>
        <time>2014-05-25T10:25:33Z</time>
      </trkpt>
      <trkpt lat="48.74853" lon="2.53889">
        <ele>112</ele>
        <time>2014-05-25T10:25:34Z</time>
      </trkpt>
      <trkpt lat="48.74854" lon="2.5389">
        <ele>111</ele>
        <time>2014-05-25T10:25:35Z</time>
      </trkpt>
      <trkpt lat="48.74856" lon="2.53891">
        <ele>111</ele>
        <time>2014-05-25T10:25:36Z</time>
      </trkpt>
      <trkpt lat="48.74857" lon="2.53892">
        <ele>111</ele>
        <time>2014-05-25T10:25:37Z</time>
      </trkpt>
      <trkpt lat="48.74859" lon="2.53893">
        <ele>111</ele>
        <time>2014-05-25T10:25:38Z</time>
      </trkpt>
      <trkpt lat="48.7486" lon="2.53894">
        <ele>110</ele>
        <time>2014-05-25T10:25:39Z</time>
      </trkpt>
      <trkpt lat="48.74862" lon="2.53894">
        <ele>110</ele>
        <time>2014-05-25T10:25:40Z</time>
      </trkpt>
      <trkpt lat="48.74863" lon="2.53895">
        <ele>110</ele>
        <time>2014-05-25T10:25:41Z</time>
      </trkpt>
      <trkpt lat="48.74865" lon="2.53895">
        <ele>110</ele>
        <time>2014-05-25T10:25:42Z</time>
      </trkpt>
      <trkpt lat="48.74866" lon="2.53896">
        <ele>110</ele>
        <time>2014-05-25T10:25:43Z</time>
      </trkpt>
      <trkpt lat="48.74868" lon="2.53896">
        <ele>109</ele>
        <time>2014-05-25T10:25:44Z</time>
      </trkpt>
      <trkpt lat="48.74869" lon="2.53896">
        <ele>110</ele>
        <time>2014-05-25T10:25:45Z</time>
      </trkpt>
      <trkpt lat="48.7487" lon="2.53896">
        <ele>110</ele>
        <time>2014-05-25T10:25:46Z</time>
      </trkpt>
      <trkpt lat="48.74871" lon="2.53896">
        <ele>110</ele>
        <time>2014-05-25T10:25:47Z</time>
      </trkpt>
      <trkpt lat="48.74872" lon="2.53896">
        <ele>111</ele>
        <time>2014-05-25T10:25:48Z</time>
      </trkpt>
      <trkpt lat="48.74874" lon="2.53896">
        <ele>112</ele>
        <time>2014-05-25T10:25:49Z</time>
      </trkpt>
      <trkpt lat="48.74875" lon="2.53896">
        <ele>112</ele>
        <time>2014-05-25T10:25:50Z</time>
      </trkpt>
      <trkpt lat="48.74877" lon="2.53896">
        <ele>113</ele>
        <time>2014-05-25T10:25:51Z</time>
      </trkpt>
      <trkpt lat="48.74878" lon="2.53896">
        <ele>111</ele>
        <time>2014-05-25T10:25:52Z</time>
      </trkpt>
      <trkpt lat="48.74879" lon="2.53896">
        <ele>111</ele>
        <time>2014-05-25T10:25:53Z</time>
      </trkpt>
      <trkpt lat="48.7488" lon="2.53896">
        <ele>111</ele>
        <time>2014-05-25T10:25:54Z</time>
      </trkpt>
      <trkpt lat="48.74881" lon="2.53897">
        <ele>112</ele>
        <time>2014-05-25T10:25:55Z</time>
      </trkpt>
      <trkpt lat="48.74883" lon="2.53898">
        <ele>111</ele>
        <time>2014-05-25T10:25:56Z</time>
      </trkpt>
      <trkpt lat="48.74884" lon="2.53899">
        <ele>111</ele>
        <time>2014-05-25T10:25:57Z</time>
      </trkpt>
      <trkpt lat="48.74885" lon="2.539">
        <ele>111</ele>
        <time>2014-05-25T10:25:58Z</time>
      </trkpt>
      <trkpt lat="48.74886" lon="2.53901">
        <ele>110</ele>
        <time>2014-05-25T10:25:59Z</time>
      </trkpt>
      <trkpt lat="48.74887" lon="2.53903">
        <ele>110</ele>
        <time>2014-05-25T10:26:00Z</time>
      </trkpt>
      <trkpt lat="48.74888" lon="2.53904">
        <ele>111</ele>
        <time>2014-05-25T10:26:01Z</time>
      </trkpt>
      <trkpt lat="48.74889" lon="2.53905">
        <ele>111</ele>
        <time>2014-05-25T10:26:02Z</time>
      </trkpt>
      <trkpt lat="48.7489" lon="2.53906">
        <ele>109</ele>
        <time>2014-05-25T10:26:03Z</time>
      </trkpt>
      <trkpt lat="48.74891" lon="2.53907">
        <ele>109</ele>
        <time>2014-05-25T10:26:04Z</time>
      </trkpt>
      <trkpt lat="48.74892" lon="2.53908">
        <ele>109</ele>
        <time>2014-05-25T10:26:05Z</time>
      </trkpt>
      <trkpt lat="48.74893" lon="2.5391">
        <ele>108</ele>
        <time>2014-05-25T10:26:06Z</time>
      </trkpt>
      <trkpt lat="48.74894" lon="2.53911">
        <ele>108</ele>
        <time>2014-05-25T10:26:07Z</time>
      </trkpt>
      <trkpt lat="48.74895" lon="2.53912">
        <ele>108</ele>
        <time>2014-05-25T10:26:08Z</time>
      </trkpt>
      <trkpt lat="48.74896" lon="2.53914">
        <ele>107</ele>
        <time>2014-05-25T10:26:09Z</time>
      </trkpt>
      <trkpt lat="48.74897" lon="2.53915">
        <ele>107</ele>
        <time>2014-05-25T10:26:10Z</time>
      </trkpt>
      <trkpt lat="48.74898" lon="2.53917">
        <ele>107</ele>
        <time>2014-05-25T10:26:11Z</time>
      </trkpt>
      <trkpt lat="48.74899" lon="2.53918">
        <ele>107</ele>
        <time>2014-05-25T10:26:12Z</time>
      </trkpt>
      <trkpt lat="48.749" lon="2.5392">
        <ele>107</ele>
        <time>2014-05-25T10:26:13Z</time>
      </trkpt>
      <trkpt lat="48.74901" lon="2.53922">
        <ele>106</ele>
        <time>2014-05-25T10:26:14Z</time>
      </trkpt>
      <trkpt lat="48.74902" lon="2.53924">
        <ele>105</ele>
        <time>2014-05-25T10:26:15Z</time>
      </trkpt>
      <trkpt lat="48.74903" lon="2.53925">
        <ele>105</ele>
        <time>2014-05-25T10:26:16Z</time>
      </trkpt>
      <trkpt lat="48.74904" lon="2.53927">
        <ele>105</ele>
        <time>2014-05-25T10:26:17Z</time>
      </trkpt>
      <trkpt lat="48.74905" lon="2.53929">
        <ele>105</ele>
        <time>2014-05-25T10:26:18Z</time>
      </trkpt>
      <trkpt lat="48.74906" lon="2.53931">
        <ele>104</ele>
        <time>2014-05-25T10:26:19Z</time>
      </trkpt>
      <trkpt lat="48.74907" lon="2.53933">
        <ele>104</ele>
        <time>2014-05-25T10:26:20Z</time>
      </trkpt>
      <trkpt lat="48.74907" lon="2.53935">
        <ele>104</ele>
        <time>2014-05-25T10:26:21Z</time>
      </trkpt>
      <trkpt lat="48.74907" lon="2.53937">
        <ele>104</ele>
        <time>2014-05-25T10:26:22Z</time>
      </trkpt>
      <trkpt lat="48.74908" lon="2.53939">
        <ele>104</ele>
        <time>2014-05-25T10:26:23Z</time>
      </trkpt>
      <trkpt lat="48.74909" lon="2.53941">
        <ele>104</ele>
        <time>2014-05-25T10:26:24Z</time>
      </trkpt>
      <trkpt lat="48.74909" lon="2.53943">
        <ele>104</ele>
        <time>2014-05-25T10:26:25Z</time>
      </trkpt>
      <trkpt lat="48.7491" lon="2.53945">
        <ele>103</ele>
        <time>2014-05-25T10:26:26Z</time>
      </trkpt>
      <trkpt lat="48.74911" lon="2.53947">
        <ele>103</ele>
        <time>2014-05-25T10:26:27Z</time>
      </trkpt>
      <trkpt lat="48.74912" lon="2.53949">
        <ele>103</ele>
        <time>2014-05-25T10:26:28Z</time>
      </trkpt>
      <trkpt lat="48.74913" lon="2.5395">
        <ele>103</ele>
        <time>2014-05-25T10:26:29Z</time>
      </trkpt>
      <trkpt lat="48.74914" lon="2.53952">
        <ele>103</ele>
        <time>2014-05-25T10:26:30Z</time>
      </trkpt>
      <trkpt lat="48.74915" lon="2.53954">
        <ele>103</ele>
        <time>2014-05-25T10:26:31Z</time>
      </trkpt>
      <trkpt lat="48.74916" lon="2.53955">
        <ele>103</ele>
        <time>2014-05-25T10:26:32Z</time>
      </trkpt>
      <trkpt lat="48.74916" lon="2.53957">
        <ele>103</ele>
        <time>2014-05-25T10:26:33Z</time>
      </trkpt>
      <trkpt lat="48.74917" lon="2.53959">
        <ele>103</ele>
        <time>2014-05-25T10:26:34Z</time>
      </trkpt>
      <trkpt lat="48.74918" lon="2.53961">
        <ele>103</ele>
        <time>2014-05-25T10:26:35Z</time>
      </trkpt>
      <trkpt lat="48.74919" lon="2.53963">
        <ele>102</ele>
        <time>2014-05-25T10:26:36Z</time>
      </trkpt>
      <trkpt lat="48.7492" lon="2.53965">
        <ele>102</ele>
        <time>2014-05-25T10:26:37Z</time>
      </trkpt>
      <trkpt lat="48.7492" lon="2.53967">
        <ele>102</ele>
        <time>2014-05-25T10:26:38Z</time>
      </trkpt>
      <trkpt lat="48.74921" lon="2.53969">
        <ele>102</ele>
        <time>2014-05-25T10:26:39Z</time>
      </trkpt>
      <trkpt lat="48.74922" lon="2.53971">
        <ele>102</ele>
        <time>2014-05-25T10:26:40Z</time>
      </trkpt>
      <trkpt lat="48.74922" lon="2.53973">
        <ele>102</ele>
        <time>2014-05-25T10:26:41Z</time>
      </trkpt>
      <trkpt lat="48.74923" lon="2.53975">
        <ele>102</ele>
        <time>2014-05-25T10:26:42Z</time>
      </trkpt>
      <trkpt lat="48.74923" lon="2.53977">
        <ele>102</ele>
        <time>2014-05-25T10:26:43Z</time>
      </trkpt>
      <trkpt lat="48.74924" lon="2.53979">
        <ele>102</ele>
        <time>2014-05-25T10:26:44Z</time>
      </trkpt>
      <trkpt lat="48.74924" lon="2.53981">
        <ele>102</ele>
        <time>2014-05-25T10:26:45Z</time>
      </trkpt>
      <trkpt lat="48.74925" lon="2.53983">
        <ele>102</ele>
        <time>2014-05-25T10:26:46Z</time>
      </trkpt>
      <trkpt lat="48.74925" lon="2.53985">
        <ele>102</ele>
        <time>2014-05-25T10:26:47Z</time>
      </trkpt>
      <trkpt lat="48.74926" lon="2.53987">
        <ele>102</ele>
        <time>2014-05-25T10:26:48Z</time>
      </trkpt>
      <trkpt lat="48.74927" lon="2.53988">
        <ele>102</ele>
        <time>2014-05-25T10:26:49Z</time>
      </trkpt>
      <trkpt lat="48.74928" lon="2.5399">
        <ele>102</ele>
        <time>2014-05-25T10:26:50Z</time>
      </trkpt>
      <trkpt lat="48.74929" lon="2.53991">
        <ele>102</ele>
        <time>2014-05-25T10:26:51Z</time>
      </trkpt>
      <trkpt lat="48.7493" lon="2.53992">
        <ele>102</ele>
        <time>2014-05-25T10:26:52Z</time>
      </trkpt>
      <trkpt lat="48.74931" lon="2.53993">
        <ele>103</ele>
        <time>2014-05-25T10:26:53Z</time>
      </trkpt>
      <trkpt lat="48.74933" lon="2.53994">
        <ele>103</ele>
        <time>2014-05-25T10:26:54Z</time>
      </trkpt>
      <trkpt lat="48.74934" lon="2.53995">
        <ele>104</ele>
        <time>2014-05-25T10:26:55Z</time>
      </trkpt>
      <trkpt lat="48.74935" lon="2.53996">
        <ele>104</ele>
        <time>2014-05-25T10:26:56Z</time>
      </trkpt>
      <trkpt lat="48.74937" lon="2.53996">
        <ele>104</ele>
        <time>2014-05-25T10:26:57Z</time>
      </trkpt>
      <trkpt lat="48.74938" lon="2.53997">
        <ele>105</ele>
        <time>2014-05-25T10:26:58Z</time>
      </trkpt>
      <trkpt lat="48.7494" lon="2.53998">
        <ele>105</ele>
        <time>2014-05-25T10:26:59Z</time>
      </trkpt>
      <trkpt lat="48.74941" lon="2.53999">
        <ele>106</ele>
        <time>2014-05-25T10:27:00Z</time>
      </trkpt>
      <trkpt lat="48.74942" lon="2.54">
        <ele>106</ele>
        <time>2014-05-25T10:27:01Z</time>
      </trkpt>
      <trkpt lat="48.74944" lon="2.54">
        <ele>106</ele>
        <time>2014-05-25T10:27:02Z</time>
      </trkpt>
      <trkpt lat="48.74945" lon="2.54">
        <ele>106</ele>
        <time>2014-05-25T10:27:03Z</time>
      </trkpt>
      <trkpt lat="48.74946" lon="2.54001">
        <ele>105</ele>
        <time>2014-05-25T10:27:04Z</time>
      </trkpt>
      <trkpt lat="48.74947" lon="2.54002">
        <ele>105</ele>
        <time>2014-05-25T10:27:05Z</time>
      </trkpt>
      <trkpt lat="48.74949" lon="2.54002">
        <ele>105</ele>
        <time>2014-05-25T10:27:06Z</time>
      </trkpt>
      <trkpt lat="48.7495" lon="2.54005">
        <ele>104</ele>
        <time>2014-05-25T10:27:07Z</time>
      </trkpt>
      <trkpt lat="48.74951" lon="2.54006">
        <ele>103</ele>
        <time>2014-05-25T10:27:08Z</time>
      </trkpt>
      <trkpt lat="48.74952" lon="2.54007">
        <ele>103</ele>
        <time>2014-05-25T10:27:09Z</time>
      </trkpt>
      <trkpt lat="48.74954" lon="2.54008">
        <ele>104</ele>
        <time>2014-05-25T10:27:10Z</time>
      </trkpt>
      <trkpt lat="48.74955" lon="2.54009">
        <ele>103</ele>
        <time>2014-05-25T10:27:11Z</time>
      </trkpt>
      <trkpt lat="48.74957" lon="2.54009">
        <ele>101</ele>
        <time>2014-05-25T10:27:12Z</time>
      </trkpt>
      <trkpt lat="48.74958" lon="2.5401">
        <ele>101</ele>
        <time>2014-05-25T10:27:13Z</time>
      </trkpt>
      <trkpt lat="48.7496" lon="2.5401">
        <ele>100</ele>
        <time>2014-05-25T10:27:14Z</time>
      </trkpt>
      <trkpt lat="48.74961" lon="2.54011">
        <ele>98</ele>
        <time>2014-05-25T10:27:15Z</time>
      </trkpt>
      <trkpt lat="48.74963" lon="2.54012">
        <ele>98</ele>
        <time>2014-05-25T10:27:16Z</time>
      </trkpt>
      <trkpt lat="48.74964" lon="2.54012">
        <ele>98</ele>
        <time>2014-05-25T10:27:17Z</time>
      </trkpt>
      <trkpt lat="48.74966" lon="2.54014">
        <ele>98</ele>
        <time>2014-05-25T10:27:18Z</time>
      </trkpt>
      <trkpt lat="48.74967" lon="2.54015">
        <ele>98</ele>
        <time>2014-05-25T10:27:19Z</time>
      </trkpt>
      <trkpt lat="48.74968" lon="2.54017">
        <ele>97</ele>
        <time>2014-05-25T10:27:20Z</time>
      </trkpt>
      <trkpt lat="48.7497" lon="2.54018">
        <ele>97</ele>
        <time>2014-05-25T10:27:21Z</time>
      </trkpt>
      <trkpt lat="48.74971" lon="2.5402">
        <ele>96</ele>
        <time>2014-05-25T10:27:22Z</time>
      </trkpt>
      <trkpt lat="48.74972" lon="2.54022">
        <ele>96</ele>
        <time>2014-05-25T10:27:23Z</time>
      </trkpt>
      <trkpt lat="48.74973" lon="2.54024">
        <ele>95</ele>
        <time>2014-05-25T10:27:24Z</time>
      </trkpt>
      <trkpt lat="48.74974" lon="2.54026">
        <ele>95</ele>
        <time>2014-05-25T10:27:25Z</time>
      </trkpt>
      <trkpt lat="48.74974" lon="2.54027">
        <ele>94</ele>
        <time>2014-05-25T10:27:26Z</time>
      </trkpt>
      <trkpt lat="48.74974" lon="2.54029">
        <ele>94</ele>
        <time>2014-05-25T10:27:27Z</time>
      </trkpt>
      <trkpt lat="48.74973" lon="2.54031">
        <ele>94</ele>
        <time>2014-05-25T10:27:28Z</time>
      </trkpt>
      <trkpt lat="48.74973" lon="2.54033">
        <ele>94</ele>
        <time>2014-05-25T10:27:29Z</time>
      </trkpt>
      <trkpt lat="48.74972" lon="2.54035">
        <ele>95</ele>
        <time>2014-05-25T10:27:30Z</time>
      </trkpt>
      <trkpt lat="48.74972" lon="2.54037">
        <ele>96</ele>
        <time>2014-05-25T10:27:31Z</time>
      </trkpt>
      <trkpt lat="48.74971" lon="2.54039">
        <ele>95</ele>
        <time>2014-05-25T10:27:32Z</time>
      </trkpt>
      <trkpt lat="48.74971" lon="2.54041">
        <ele>95</ele>
        <time>2014-05-25T10:27:33Z</time>
      </trkpt>
      <trkpt lat="48.7497" lon="2.54043">
        <ele>95</ele>
        <time>2014-05-25T10:27:34Z</time>
      </trkpt>
      <trkpt lat="48.74969" lon="2.54046">
        <ele>97</ele>
        <time>2014-05-25T10:27:35Z</time>
      </trkpt>
      <trkpt lat="48.74969" lon="2.54048">
        <ele>97</ele>
        <time>2014-05-25T10:27:36Z</time>
      </trkpt>
      <trkpt lat="48.74969" lon="2.54051">
        <ele>97</ele>
        <time>2014-05-25T10:27:37Z</time>
      </trkpt>
      <trkpt lat="48.74969" lon="2.54053">
        <ele>97</ele>
        <time>2014-05-25T10:27:38Z</time>
      </trkpt>
      <trkpt lat="48.74968" lon="2.54056">
        <ele>98</ele>
        <time>2014-05-25T10:27:39Z</time>
      </trkpt>
      <trkpt lat="48.74968" lon="2.54058">
        <ele>98</ele>
        <time>2014-05-25T10:27:40Z</time>
      </trkpt>
      <trkpt lat="48.74967" lon="2.54061">
        <ele>100</ele>
        <time>2014-05-25T10:27:41Z</time>
      </trkpt>
      <trkpt lat="48.74967" lon="2.54063">
        <ele>99</ele>
        <time>2014-05-25T10:27:42Z</time>
      </trkpt>
      <trkpt lat="48.74966" lon="2.54065">
        <ele>98</ele>
        <time>2014-05-25T10:27:43Z</time>
      </trkpt>
      <trkpt lat="48.74965" lon="2.54068">
        <ele>98</ele>
        <time>2014-05-25T10:27:44Z</time>
      </trkpt>
      <trkpt lat="48.74965" lon="2.5407">
        <ele>98</ele>
        <time>2014-05-25T10:27:45Z</time>
      </trkpt>
      <trkpt lat="48.74964" lon="2.54073">
        <ele>97</ele>
        <time>2014-05-25T10:27:46Z</time>
      </trkpt>
      <trkpt lat="48.74964" lon="2.54075">
        <ele>96</ele>
        <time>2014-05-25T10:27:47Z</time>
      </trkpt>
      <trkpt lat="48.74963" lon="2.54077">
        <ele>96</ele>
        <time>2014-05-25T10:27:48Z</time>
      </trkpt>
      <trkpt lat="48.74963" lon="2.54079">
        <ele>96</ele>
        <time>2014-05-25T10:27:49Z</time>
      </trkpt>
      <trkpt lat="48.74963" lon="2.54082">
        <ele>97</ele>
        <time>2014-05-25T10:27:50Z</time>
      </trkpt>
      <trkpt lat="48.74962" lon="2.54084">
        <ele>97</ele>
        <time>2014-05-25T10:27:51Z</time>
      </trkpt>
      <trkpt lat="48.74962" lon="2.54086">
        <ele>98</ele>
        <time>2014-05-25T10:27:52Z</time>
      </trkpt>
      <trkpt lat="48.74961" lon="2.54088">
        <ele>98</ele>
        <time>2014-05-25T10:27:53Z</time>
      </trkpt>
      <trkpt lat="48.74961" lon="2.54091">
        <ele>98</ele>
        <time>2014-05-25T10:27:54Z</time>
      </trkpt>
      <trkpt lat="48.7496" lon="2.54093">
        <ele>98</ele>
        <time>2014-05-25T10:27:55Z</time>
      </trkpt>
      <trkpt lat="48.7496" lon="2.54095">
        <ele>98</ele>
        <time>2014-05-25T10:27:56Z</time>
      </trkpt>
      <trkpt lat="48.7496" lon="2.54097">
        <ele>98</ele>
        <time>2014-05-25T10:27:57Z</time>
      </trkpt>
      <trkpt lat="48.74959" lon="2.541">
        <ele>99</ele>
        <time>2014-05-25T10:27:58Z</time>
      </trkpt>
      <trkpt lat="48.74959" lon="2.54102">
        <ele>99</ele>
        <time>2014-05-25T10:27:59Z</time>
      </trkpt>
      <trkpt lat="48.74958" lon="2.54104">
        <ele>99</ele>
        <time>2014-05-25T10:28:00Z</time>
      </trkpt>
      <trkpt lat="48.74958" lon="2.54106">
        <ele>99</ele>
        <time>2014-05-25T10:28:01Z</time>
      </trkpt>
      <trkpt lat="48.74957" lon="2.54108">
        <ele>99</ele>
        <time>2014-05-25T10:28:02Z</time>
      </trkpt>
      <trkpt lat="48.74957" lon="2.5411">
        <ele>100</ele>
        <time>2014-05-25T10:28:03Z</time>
      </trkpt>
      <trkpt lat="48.74957" lon="2.54112">
        <ele>100</ele>
        <time>2014-05-25T10:28:04Z</time>
      </trkpt>
      <trkpt lat="48.74956" lon="2.54114">
        <ele>101</ele>
        <time>2014-05-25T10:28:05Z</time>
      </trkpt>
      <trkpt lat="48.74956" lon="2.54116">
        <ele>102</ele>
        <time>2014-05-25T10:28:06Z</time>
      </trkpt>
      <trkpt lat="48.74955" lon="2.54118">
        <ele>102</ele>
        <time>2014-05-25T10:28:07Z</time>
      </trkpt>
      <trkpt lat="48.74955" lon="2.5412">
        <ele>101</ele>
        <time>2014-05-25T10:28:08Z</time>
      </trkpt>
      <trkpt lat="48.74955" lon="2.54122">
        <ele>101</ele>
        <time>2014-05-25T10:28:09Z</time>
      </trkpt>
      <trkpt lat="48.74954" lon="2.54124">
        <ele>101</ele>
        <time>2014-05-25T10:28:10Z</time>
      </trkpt>
      <trkpt lat="48.74954" lon="2.54126">
        <ele>101</ele>
        <time>2014-05-25T10:28:11Z</time>
      </trkpt>
      <trkpt lat="48.74953" lon="2.54129">
        <ele>102</ele>
        <time>2014-05-25T10:28:12Z</time>
      </trkpt>
      <trkpt lat="48.74953" lon="2.54131">
        <ele>102</ele>
        <time>2014-05-25T10:28:13Z</time>
      </trkpt>
      <trkpt lat="48.74952" lon="2.54133">
        <ele>102</ele>
        <time>2014-05-25T10:28:14Z</time>
      </trkpt>
      <trkpt lat="48.74952" lon="2.54136">
        <ele>102</ele>
        <time>2014-05-25T10:28:15Z</time>
      </trkpt>
      <trkpt lat="48.74951" lon="2.54138">
        <ele>102</ele>
        <time>2014-05-25T10:28:16Z</time>
      </trkpt>
      <trkpt lat="48.74951" lon="2.5414">
        <ele>102</ele>
        <time>2014-05-25T10:28:17Z</time>
      </trkpt>
      <trkpt lat="48.7495" lon="2.54143">
        <ele>102</ele>
        <time>2014-05-25T10:28:18Z</time>
      </trkpt>
      <trkpt lat="48.7495" lon="2.54145">
        <ele>103</ele>
        <time>2014-05-25T10:28:19Z</time>
      </trkpt>
      <trkpt lat="48.7495" lon="2.54147">
        <ele>102</ele>
        <time>2014-05-25T10:28:20Z</time>
      </trkpt>
      <trkpt lat="48.74949" lon="2.54149">
        <ele>102</ele>
        <time>2014-05-25T10:28:21Z</time>
      </trkpt>
      <trkpt lat="48.74949" lon="2.54151">
        <ele>102</ele>
        <time>2014-05-25T10:28:22Z</time>
      </trkpt>
      <trkpt lat="48.74948" lon="2.54154">
        <ele>102</ele>
        <time>2014-05-25T10:28:23Z</time>
      </trkpt>
      <trkpt lat="48.74948" lon="2.54156">
        <ele>102</ele>
        <time>2014-05-25T10:28:24Z</time>
      </trkpt>
      <trkpt lat="48.74947" lon="2.54158">
        <ele>103</ele>
        <time>2014-05-25T10:28:25Z</time>
      </trkpt>
      <trkpt lat="48.74947" lon="2.5416">
        <ele>103</ele>
        <time>2014-05-25T10:28:26Z</time>
      </trkpt>
      <trkpt lat="48.74946" lon="2.54163">
        <ele>103</ele>
        <time>2014-05-25T10:28:27Z</time>
      </trkpt>
      <trkpt lat="48.74946" lon="2.54165">
        <ele>103</ele>
        <time>2014-05-25T10:28:28Z</time>
      </trkpt>
      <trkpt lat="48.74945" lon="2.54167">
        <ele>103</ele>
        <time>2014-05-25T10:28:29Z</time>
      </trkpt>
      <trkpt lat="48.74945" lon="2.5417">
        <ele>103</ele>
        <time>2014-05-25T10:28:30Z</time>
      </trkpt>
      <trkpt lat="48.74944" lon="2.54172">
        <ele>103</ele>
        <time>2014-05-25T10:28:31Z</time>
      </trkpt>
      <trkpt lat="48.74944" lon="2.54174">
        <ele>103</ele>
        <time>2014-05-25T10:28:32Z</time>
      </trkpt>
      <trkpt lat="48.74944" lon="2.54177">
        <ele>104</ele>
        <time>2014-05-25T10:28:33Z</time>
      </trkpt>
      <trkpt lat="48.74943" lon="2.54179">
        <ele>104</ele>
        <time>2014-05-25T10:28:34Z</time>
      </trkpt>
      <trkpt lat="48.74943" lon="2.54181">
        <ele>104</ele>
        <time>2014-05-25T10:28:35Z</time>
      </trkpt>
      <trkpt lat="48.74943" lon="2.54183">
        <ele>105</ele>
        <time>2014-05-25T10:28:36Z</time>
      </trkpt>
      <trkpt lat="48.74942" lon="2.54186">
        <ele>105</ele>
        <time>2014-05-25T10:28:37Z</time>
      </trkpt>
      <trkpt lat="48.74942" lon="2.54188">
        <ele>106</ele>
        <time>2014-05-25T10:28:38Z</time>
      </trkpt>
      <trkpt lat="48.74942" lon="2.5419">
        <ele>106</ele>
        <time>2014-05-25T10:28:39Z</time>
      </trkpt>
      <trkpt lat="48.74942" lon="2.54192">
        <ele>106</ele>
        <time>2014-05-25T10:28:40Z</time>
      </trkpt>
      <trkpt lat="48.74941" lon="2.54194">
        <ele>107</ele>
        <time>2014-05-25T10:28:41Z</time>
      </trkpt>
      <trkpt lat="48.74941" lon="2.54196">
        <ele>107</ele>
        <time>2014-05-25T10:28:42Z</time>
      </trkpt>
      <trkpt lat="48.7494" lon="2.54198">
        <ele>106</ele>
        <time>2014-05-25T10:28:43Z</time>
      </trkpt>
      <trkpt lat="48.7494" lon="2.542">
        <ele>106</ele>
        <time>2014-05-25T10:28:44Z</time>
      </trkpt>
      <trkpt lat="48.74939" lon="2.54202">
        <ele>106</ele>
        <time>2014-05-25T10:28:45Z</time>
      </trkpt>
      <trkpt lat="48.74939" lon="2.54204">
        <ele>106</ele>
        <time>2014-05-25T10:28:46Z</time>
      </trkpt>
      <trkpt lat="48.74938" lon="2.54206">
        <ele>106</ele>
        <time>2014-05-25T10:28:47Z</time>
      </trkpt>
      <trkpt lat="48.74938" lon="2.54208">
        <ele>105</ele>
        <time>2014-05-25T10:28:48Z</time>
      </trkpt>
      <trkpt lat="48.74937" lon="2.54211">
        <ele>105</ele>
        <time>2014-05-25T10:28:49Z</time>
      </trkpt>
      <trkpt lat="48.74936" lon="2.54213">
        <ele>105</ele>
        <time>2014-05-25T10:28:50Z</time>
      </trkpt>
      <trkpt lat="48.74936" lon="2.54215">
        <ele>105</ele>
        <time>2014-05-25T10:28:51Z</time>
      </trkpt>
      <trkpt lat="48.74935" lon="2.54217">
        <ele>105</ele>
        <time>2014-05-25T10:28:52Z</time>
      </trkpt>
      <trkpt lat="48.74935" lon="2.54219">
        <ele>105</ele>
        <time>2014-05-25T10:28:53Z</time>
      </trkpt>
      <trkpt lat="48.74934" lon="2.54221">
        <ele>106</ele>
        <time>2014-05-25T10:28:54Z</time>
      </trkpt>
      <trkpt lat="48.74934" lon="2.54223">
        <ele>106</ele>
        <time>2014-05-25T10:28:55Z</time>
      </trkpt>
      <trkpt lat="48.74934" lon="2.54226">
        <ele>106</ele>
        <time>2014-05-25T10:28:56Z</time>
      </trkpt>
      <trkpt lat="48.74933" lon="2.54228">
        <ele>105</ele>
        <time>2014-05-25T10:28:57Z</time>
      </trkpt>
      <trkpt lat="48.74933" lon="2.5423">
        <ele>105</ele>
        <time>2014-05-25T10:28:58Z</time>
      </trkpt>
      <trkpt lat="48.74932" lon="2.54232">
        <ele>105</ele>
        <time>2014-05-25T10:28:59Z</time>
      </trkpt>
      <trkpt lat="48.74932" lon="2.54234">
        <ele>105</ele>
        <time>2014-05-25T10:29:00Z</time>
      </trkpt>
      <trkpt lat="48.74932" lon="2.54236">
        <ele>106</ele>
        <time>2014-05-25T10:29:01Z</time>
      </trkpt>
      <trkpt lat="48.74931" lon="2.54238">
        <ele>106</ele>
        <time>2014-05-25T10:29:02Z</time>
      </trkpt>
      <trkpt lat="48.74931" lon="2.54239">
        <ele>106</ele>
        <time>2014-05-25T10:29:03Z</time>
      </trkpt>
      <trkpt lat="48.7493" lon="2.54241">
        <ele>106</ele>
        <time>2014-05-25T10:29:04Z</time>
      </trkpt>
      <trkpt lat="48.74929" lon="2.54242">
        <ele>107</ele>
        <time>2014-05-25T10:29:05Z</time>
      </trkpt>
      <trkpt lat="48.74929" lon="2.54244">
        <ele>107</ele>
        <time>2014-05-25T10:29:06Z</time>
      </trkpt>
      <trkpt lat="48.74928" lon="2.54246">
        <ele>107</ele>
        <time>2014-05-25T10:29:07Z</time>
      </trkpt>
      <trkpt lat="48.74928" lon="2.54248">
        <ele>107</ele>
        <time>2014-05-25T10:29:08Z</time>
      </trkpt>
      <trkpt lat="48.74927" lon="2.54249">
        <ele>107</ele>
        <time>2014-05-25T10:29:09Z</time>
      </trkpt>
      <trkpt lat="48.74927" lon="2.54251">
        <ele>107</ele>
        <time>2014-05-25T10:29:10Z</time>
      </trkpt>
      <trkpt lat="48.74926" lon="2.54253">
        <ele>108</ele>
        <time>2014-05-25T10:29:11Z</time>
      </trkpt>
      <trkpt lat="48.74926" lon="2.54255">
        <ele>108</ele>
        <time>2014-05-25T10:29:12Z</time>
      </trkpt>
      <trkpt lat="48.74925" lon="2.54257">
        <ele>109</ele>
        <time>2014-05-25T10:29:13Z</time>
      </trkpt>
      <trkpt lat="48.74925" lon="2.54259">
        <ele>108</ele>
        <time>2014-05-25T10:29:14Z</time>
      </trkpt>
      <trkpt lat="48.74924" lon="2.5426">
        <ele>109</ele>
        <time>2014-05-25T10:29:15Z</time>
      </trkpt>
      <trkpt lat="48.74923" lon="2.54262">
        <ele>108</ele>
        <time>2014-05-25T10:29:16Z</time>
      </trkpt>
      <trkpt lat="48.74923" lon="2.54264">
        <ele>109</ele>
        <time>2014-05-25T10:29:17Z</time>
      </trkpt>
      <trkpt lat="48.74922" lon="2.54266">
        <ele>108</ele>
        <time>2014-05-25T10:29:18Z</time>
      </trkpt>
      <trkpt lat="48.74922" lon="2.54269">
        <ele>107</ele>
        <time>2014-05-25T10:29:19Z</time>
      </trkpt>
      <trkpt lat="48.74922" lon="2.54271">
        <ele>107</ele>
        <time>2014-05-25T10:29:20Z</time>
      </trkpt>
      <trkpt lat="48.74921" lon="2.54274">
        <ele>107</ele>
        <time>2014-05-25T10:29:21Z</time>
      </trkpt>
      <trkpt lat="48.74921" lon="2.54276">
        <ele>108</ele>
        <time>2014-05-25T10:29:22Z</time>
      </trkpt>
      <trkpt lat="48.74921" lon="2.54278">
        <ele>109</ele>
        <time>2014-05-25T10:29:23Z</time>
      </trkpt>
      <trkpt lat="48.74921" lon="2.5428">
        <ele>109</ele>
        <time>2014-05-25T10:29:24Z</time>
      </trkpt>
      <trkpt lat="48.74921" lon="2.54282">
        <ele>110</ele>
        <time>2014-05-25T10:29:25Z</time>
      </trkpt>
      <trkpt lat="48.74922" lon="2.54284">
        <ele>111</ele>
        <time>2014-05-25T10:29:26Z</time>
      </trkpt>
      <trkpt lat="48.74922" lon="2.54286">
        <ele>113</ele>
        <time>2014-05-25T10:29:27Z</time>
      </trkpt>
      <trkpt lat="48.74923" lon="2.54287">
        <ele>114</ele>
        <time>2014-05-25T10:29:28Z</time>
      </trkpt>
      <trkpt lat="48.74923" lon="2.54288">
        <ele>112</ele>
        <time>2014-05-25T10:29:29Z</time>
      </trkpt>
      <trkpt lat="48.74922" lon="2.5429">
        <ele>111</ele>
        <time>2014-05-25T10:29:30Z</time>
      </trkpt>
      <trkpt lat="48.74922" lon="2.54292">
        <ele>110</ele>
        <time>2014-05-25T10:29:31Z</time>
      </trkpt>
      <trkpt lat="48.74921" lon="2.54294">
        <ele>109</ele>
        <time>2014-05-25T10:29:32Z</time>
      </trkpt>
      <trkpt lat="48.74921" lon="2.54296">
        <ele>108</ele>
        <time>2014-05-25T10:29:33Z</time>
      </trkpt>
      <trkpt lat="48.7492" lon="2.54298">
        <ele>107</ele>
        <time>2014-05-25T10:29:34Z</time>
      </trkpt>
      <trkpt lat="48.74919" lon="2.543">
        <ele>107</ele>
        <time>2014-05-25T10:29:35Z</time>
      </trkpt>
      <trkpt lat="48.74918" lon="2.54302">
        <ele>106</ele>
        <time>2014-05-25T10:29:36Z</time>
      </trkpt>
      <trkpt lat="48.74917" lon="2.54304">
        <ele>106</ele>
        <time>2014-05-25T10:29:37Z</time>
      </trkpt>
      <trkpt lat="48.74916" lon="2.54306">
        <ele>106</ele>
        <time>2014-05-25T10:29:38Z</time>
      </trkpt>
      <trkpt lat="48.74915" lon="2.54307">
        <ele>105</ele>
        <time>2014-05-25T10:29:39Z</time>
      </trkpt>
      <trkpt lat="48.74914" lon="2.54309">
        <ele>105</ele>
        <time>2014-05-25T10:29:40Z</time>
      </trkpt>
      <trkpt lat="48.74913" lon="2.5431">
        <ele>105</ele>
        <time>2014-05-25T10:29:41Z</time>
      </trkpt>
      <trkpt lat="48.74913" lon="2.54312">
        <ele>105</ele>
        <time>2014-05-25T10:29:42Z</time>
      </trkpt>
      <trkpt lat="48.74912" lon="2.54314">
        <ele>104</ele>
        <time>2014-05-25T10:29:43Z</time>
      </trkpt>
      <trkpt lat="48.74912" lon="2.54316">
        <ele>104</ele>
        <time>2014-05-25T10:29:44Z</time>
      </trkpt>
      <trkpt lat="48.74911" lon="2.54318">
        <ele>103</ele>
        <time>2014-05-25T10:29:45Z</time>
      </trkpt>
      <trkpt lat="48.7491" lon="2.5432">
        <ele>103</ele>
        <time>2014-05-25T10:29:46Z</time>
      </trkpt>
      <trkpt lat="48.7491" lon="2.54323">
        <ele>103</ele>
        <time>2014-05-25T10:29:47Z</time>
      </trkpt>
      <trkpt lat="48.74909" lon="2.54325">
        <ele>103</ele>
        <time>2014-05-25T10:29:48Z</time>
      </trkpt>
      <trkpt lat="48.74908" lon="2.54327">
        <ele>102</ele>
        <time>2014-05-25T10:29:49Z</time>
      </trkpt>
      <trkpt lat="48.74908" lon="2.54329">
        <ele>102</ele>
        <time>2014-05-25T10:29:50Z</time>
      </trkpt>
      <trkpt lat="48.74907" lon="2.54331">
        <ele>102</ele>
        <time>2014-05-25T10:29:51Z</time>
      </trkpt>
      <trkpt lat="48.74907" lon="2.54333">
        <ele>103</ele>
        <time>2014-05-25T10:29:52Z</time>
      </trkpt>
      <trkpt lat="48.74906" lon="2.54335">
        <ele>102</ele>
        <time>2014-05-25T10:29:53Z</time>
      </trkpt>
      <trkpt lat="48.74906" lon="2.54337">
        <ele>101</ele>
        <time>2014-05-25T10:29:54Z</time>
      </trkpt>
      <trkpt lat="48.74905" lon="2.54339">
        <ele>100</ele>
        <time>2014-05-25T10:29:55Z</time>
      </trkpt>
      <trkpt lat="48.74905" lon="2.54341">
        <ele>101</ele>
        <time>2014-05-25T10:29:56Z</time>
      </trkpt>
      <trkpt lat="48.74904" lon="2.54343">
        <ele>101</ele>
        <time>2014-05-25T10:29:57Z</time>
      </trkpt>
      <trkpt lat="48.74903" lon="2.54344">
        <ele>101</ele>
        <time>2014-05-25T10:29:58Z</time>
      </trkpt>
      <trkpt lat="48.74903" lon="2.54346">
        <ele>100</ele>
        <time>2014-05-25T10:29:59Z</time>
      </trkpt>
      <trkpt lat="48.74902" lon="2.54348">
        <ele>100</ele>
        <time>2014-05-25T10:30:00Z</time>
      </trkpt>
      <trkpt lat="48.74901" lon="2.5435">
        <ele>100</ele>
        <time>2014-05-25T10:30:01Z</time>
      </trkpt>
      <trkpt lat="48.74901" lon="2.54352">
        <ele>101</ele>
        <time>2014-05-25T10:30:02Z</time>
      </trkpt>
      <trkpt lat="48.74901" lon="2.54354">
        <ele>102</ele>
        <time>2014-05-25T10:30:03Z</time>
      </trkpt>
      <trkpt lat="48.74901" lon="2.54357">
        <ele>102</ele>
        <time>2014-05-25T10:30:04Z</time>
      </trkpt>
      <trkpt lat="48.749" lon="2.54359">
        <ele>102</ele>
        <time>2014-05-25T10:30:05Z</time>
      </trkpt>
      <trkpt lat="48.749" lon="2.54361">
        <ele>103</ele>
        <time>2014-05-25T10:30:06Z</time>
      </trkpt>
      <trkpt lat="48.749" lon="2.54364">
        <ele>103</ele>
        <time>2014-05-25T10:30:07Z</time>
      </trkpt>
      <trkpt lat="48.749" lon="2.54366">
        <ele>104</ele>
        <time>2014-05-25T10:30:08Z</time>
      </trkpt>
      <trkpt lat="48.74899" lon="2.54369">
        <ele>104</ele>
        <time>2014-05-25T10:30:09Z</time>
      </trkpt>
      <trkpt lat="48.74899" lon="2.54371">
        <ele>104</ele>
        <time>2014-05-25T10:30:10Z</time>
      </trkpt>
      <trkpt lat="48.74898" lon="2.54374">
        <ele>104</ele>
        <time>2014-05-25T10:30:11Z</time>
      </trkpt>
      <trkpt lat="48.74898" lon="2.54376">
        <ele>104</ele>
        <time>2014-05-25T10:30:12Z</time>
      </trkpt>
      <trkpt lat="48.74897" lon="2.54379">
        <ele>104</ele>
        <time>2014-05-25T10:30:13Z</time>
      </trkpt>
      <trkpt lat="48.74896" lon="2.54381">
        <ele>105</ele>
        <time>2014-05-25T10:30:14Z</time>
      </trkpt>
      <trkpt lat="48.74896" lon="2.54384">
        <ele>105</ele>
        <time>2014-05-25T10:30:15Z</time>
      </trkpt>
      <trkpt lat="48.74895" lon="2.54386">
        <ele>106</ele>
        <time>2014-05-25T10:30:16Z</time>
      </trkpt>
      <trkpt lat="48.74894" lon="2.54388">
        <ele>107</ele>
        <time>2014-05-25T10:30:17Z</time>
      </trkpt>
      <trkpt lat="48.74894" lon="2.5439">
        <ele>108</ele>
        <time>2014-05-25T10:30:18Z</time>
      </trkpt>
      <trkpt lat="48.74894" lon="2.54392">
        <ele>109</ele>
        <time>2014-05-25T10:30:19Z</time>
      </trkpt>
      <trkpt lat="48.74893" lon="2.54394">
        <ele>109</ele>
        <time>2014-05-25T10:30:20Z</time>
      </trkpt>
      <trkpt lat="48.74893" lon="2.54396">
        <ele>107</ele>
        <time>2014-05-25T10:30:21Z</time>
      </trkpt>
      <trkpt lat="48.74893" lon="2.54399">
        <ele>108</ele>
        <time>2014-05-25T10:30:22Z</time>
      </trkpt>
      <trkpt lat="48.74893" lon="2.54401">
        <ele>107</ele>
        <time>2014-05-25T10:30:23Z</time>
      </trkpt>
      <trkpt lat="48.74893" lon="2.54404">
        <ele>107</ele>
        <time>2014-05-25T10:30:24Z</time>
      </trkpt>
      <trkpt lat="48.74893" lon="2.54406">
        <ele>108</ele>
        <time>2014-05-25T10:30:25Z</time>
      </trkpt>
      <trkpt lat="48.74892" lon="2.54409">
        <ele>108</ele>
        <time>2014-05-25T10:30:26Z</time>
      </trkpt>
      <trkpt lat="48.74892" lon="2.54411">
        <ele>109</ele>
        <time>2014-05-25T10:30:27Z</time>
      </trkpt>
      <trkpt lat="48.74891" lon="2.54414">
        <ele>108</ele>
        <time>2014-05-25T10:30:28Z</time>
      </trkpt>
      <trkpt lat="48.74891" lon="2.54416">
        <ele>108</ele>
        <time>2014-05-25T10:30:29Z</time>
      </trkpt>
      <trkpt lat="48.74891" lon="2.54418">
        <ele>107</ele>
        <time>2014-05-25T10:30:30Z</time>
      </trkpt>
      <trkpt lat="48.74891" lon="2.54421">
        <ele>107</ele>
        <time>2014-05-25T10:30:31Z</time>
      </trkpt>
      <trkpt lat="48.74891" lon="2.54423">
        <ele>107</ele>
        <time>2014-05-25T10:30:32Z</time>
      </trkpt>
      <trkpt lat="48.74892" lon="2.54426">
        <ele>106</ele>
        <time>2014-05-25T10:30:33Z</time>
      </trkpt>
      <trkpt lat="48.74893" lon="2.54428">
        <ele>105</ele>
        <time>2014-05-25T10:30:34Z</time>
      </trkpt>
      <trkpt lat="48.74894" lon="2.5443">
        <ele>104</ele>
        <time>2014-05-25T10:30:35Z</time>
      </trkpt>
      <trkpt lat="48.74895" lon="2.54431">
        <ele>104</ele>
        <time>2014-05-25T10:30:36Z</time>
      </trkpt>
      <trkpt lat="48.74896" lon="2.54432">
        <ele>104</ele>
        <time>2014-05-25T10:30:37Z</time>
      </trkpt>
      <trkpt lat="48.74898" lon="2.54433">
        <ele>104</ele>
        <time>2014-05-25T10:30:38Z</time>
      </trkpt>
      <trkpt lat="48.74899" lon="2.54435">
        <ele>104</ele>
        <time>2014-05-25T10:30:39Z</time>
      </trkpt>
      <trkpt lat="48.749" lon="2.54436">
        <ele>104</ele>
        <time>2014-05-25T10:30:40Z</time>
      </trkpt>
      <trkpt lat="48.74901" lon="2.54437">
        <ele>105</ele>
        <time>2014-05-25T10:30:41Z</time>
      </trkpt>
      <trkpt lat="48.74902" lon="2.54437">
        <ele>105</ele>
        <time>2014-05-25T10:30:42Z</time>
      </trkpt>
      <trkpt lat="48.74903" lon="2.54438">
        <ele>104</ele>
        <time>2014-05-25T10:30:43Z</time>
      </trkpt>
      <trkpt lat="48.74904" lon="2.54439">
        <ele>103</ele>
        <time>2014-05-25T10:30:44Z</time>
      </trkpt>
      <trkpt lat="48.74906" lon="2.5444">
        <ele>104</ele>
        <time>2014-05-25T10:30:45Z</time>
      </trkpt>
      <trkpt lat="48.74907" lon="2.54442">
        <ele>103</ele>
        <time>2014-05-25T10:30:46Z</time>
      </trkpt>
      <trkpt lat="48.74908" lon="2.54443">
        <ele>104</ele>
        <time>2014-05-25T10:30:47Z</time>
      </trkpt>
      <trkpt lat="48.74909" lon="2.54444">
        <ele>104</ele>
        <time>2014-05-25T10:30:48Z</time>
      </trkpt>
      <trkpt lat="48.7491" lon="2.54446">
        <ele>103</ele>
        <time>2014-05-25T10:30:49Z</time>
      </trkpt>
      <trkpt lat="48.74911" lon="2.54447">
        <ele>103</ele>
        <time>2014-05-25T10:30:50Z</time>
      </trkpt>
      <trkpt lat="48.74912" lon="2.54448">
        <ele>102</ele>
        <time>2014-05-25T10:30:51Z</time>
      </trkpt>
      <trkpt lat="48.74913" lon="2.54449">
        <ele>101</ele>
        <time>2014-05-25T10:30:52Z</time>
      </trkpt>
      <trkpt lat="48.74914" lon="2.54449">
        <ele>100</ele>
        <time>2014-05-25T10:30:53Z</time>
      </trkpt>
      <trkpt lat="48.74915" lon="2.5445">
        <ele>100</ele>
        <time>2014-05-25T10:30:54Z</time>
      </trkpt>
      <trkpt lat="48.74916" lon="2.54451">
        <ele>101</ele>
        <time>2014-05-25T10:30:55Z</time>
      </trkpt>
      <trkpt lat="48.74917" lon="2.54452">
        <ele>100</ele>
        <time>2014-05-25T10:30:56Z</time>
      </trkpt>
      <trkpt lat="48.74918" lon="2.54453">
        <ele>98</ele>
        <time>2014-05-25T10:30:57Z</time>
      </trkpt>
      <trkpt lat="48.7492" lon="2.54454">
        <ele>96</ele>
        <time>2014-05-25T10:30:58Z</time>
      </trkpt>
      <trkpt lat="48.74921" lon="2.54455">
        <ele>95</ele>
        <time>2014-05-25T10:30:59Z</time>
      </trkpt>
      <trkpt lat="48.74923" lon="2.54456">
        <ele>95</ele>
        <time>2014-05-25T10:31:00Z</time>
      </trkpt>
      <trkpt lat="48.74924" lon="2.54456">
        <ele>95</ele>
        <time>2014-05-25T10:31:01Z</time>
      </trkpt>
      <trkpt lat="48.74925" lon="2.54457">
        <ele>96</ele>
        <time>2014-05-25T10:31:02Z</time>
      </trkpt>
      <trkpt lat="48.74927" lon="2.54458">
        <ele>97</ele>
        <time>2014-05-25T10:31:03Z</time>
      </trkpt>
      <trkpt lat="48.74928" lon="2.54459">
        <ele>97</ele>
        <time>2014-05-25T10:31:04Z</time>
      </trkpt>
      <trkpt lat="48.74929" lon="2.54461">
        <ele>97</ele>
        <time>2014-05-25T10:31:05Z</time>
      </trkpt>
      <trkpt lat="48.74931" lon="2.54462">
        <ele>97</ele>
        <time>2014-05-25T10:31:06Z</time>
      </trkpt>
      <trkpt lat="48.74932" lon="2.54463">
        <ele>98</ele>
        <time>2014-05-25T10:31:07Z</time>
      </trkpt>
      <trkpt lat="48.74933" lon="2.54463">
        <ele>98</ele>
        <time>2014-05-25T10:31:08Z</time>
      </trkpt>
      <trkpt lat="48.74934" lon="2.54464">
        <ele>99</ele>
        <time>2014-05-25T10:31:09Z</time>
      </trkpt>
      <trkpt lat="48.74935" lon="2.54464">
        <ele>99</ele>
        <time>2014-05-25T10:31:10Z</time>
      </trkpt>
      <trkpt lat="48.74937" lon="2.54465">
        <ele>101</ele>
        <time>2014-05-25T10:31:11Z</time>
      </trkpt>
      <trkpt lat="48.74938" lon="2.54466">
        <ele>101</ele>
        <time>2014-05-25T10:31:12Z</time>
      </trkpt>
      <trkpt lat="48.74939" lon="2.54467">
        <ele>101</ele>
        <time>2014-05-25T10:31:13Z</time>
      </trkpt>
      <trkpt lat="48.7494" lon="2.54468">
        <ele>101</ele>
        <time>2014-05-25T10:31:14Z</time>
      </trkpt>
      <trkpt lat="48.74941" lon="2.54469">
        <ele>100</ele>
        <time>2014-05-25T10:31:15Z</time>
      </trkpt>
      <trkpt lat="48.74942" lon="2.5447">
        <ele>100</ele>
        <time>2014-05-25T10:31:16Z</time>
      </trkpt>
      <trkpt lat="48.74943" lon="2.5447">
        <ele>102</ele>
        <time>2014-05-25T10:31:17Z</time>
      </trkpt>
      <trkpt lat="48.74944" lon="2.54471">
        <ele>102</ele>
        <time>2014-05-25T10:31:18Z</time>
      </trkpt>
      <trkpt lat="48.74945" lon="2.54473">
        <ele>103</ele>
        <time>2014-05-25T10:31:19Z</time>
      </trkpt>
      <trkpt lat="48.74946" lon="2.54474">
        <ele>103</ele>
        <time>2014-05-25T10:31:20Z</time>
      </trkpt>
      <trkpt lat="48.74947" lon="2.54474">
        <ele>103</ele>
        <time>2014-05-25T10:31:21Z</time>
      </trkpt>
      <trkpt lat="48.74948" lon="2.54475">
        <ele>103</ele>
        <time>2014-05-25T10:31:22Z</time>
      </trkpt>
      <trkpt lat="48.7495" lon="2.54477">
        <ele>102</ele>
        <time>2014-05-25T10:31:23Z</time>
      </trkpt>
      <trkpt lat="48.74951" lon="2.54478">
        <ele>102</ele>
        <time>2014-05-25T10:31:24Z</time>
      </trkpt>
      <trkpt lat="48.74952" lon="2.5448">
        <ele>103</ele>
        <time>2014-05-25T10:31:25Z</time>
      </trkpt>
      <trkpt lat="48.74954" lon="2.54481">
        <ele>103</ele>
        <time>2014-05-25T10:31:26Z</time>
      </trkpt>
      <trkpt lat="48.74955" lon="2.54482">
        <ele>104</ele>
        <time>2014-05-25T10:31:27Z</time>
      </trkpt>
      <trkpt lat="48.74957" lon="2.54483">
        <ele>104</ele>
        <time>2014-05-25T10:31:28Z</time>
      </trkpt>
      <trkpt lat="48.74958" lon="2.54484">
        <ele>105</ele>
        <time>2014-05-25T10:31:29Z</time>
      </trkpt>
      <trkpt lat="48.7496" lon="2.54485">
        <ele>106</ele>
        <time>2014-05-25T10:31:30Z</time>
      </trkpt>
      <trkpt lat="48.74961" lon="2.54487">
        <ele>107</ele>
        <time>2014-05-25T10:31:31Z</time>
      </trkpt>
      <trkpt lat="48.74963" lon="2.54488">
        <ele>107</ele>
        <time>2014-05-25T10:31:32Z</time>
      </trkpt>
      <trkpt lat="48.74964" lon="2.54489">
        <ele>105</ele>
        <time>2014-05-25T10:31:33Z</time>
      </trkpt>
      <trkpt lat="48.74966" lon="2.5449">
        <ele>105</ele>
        <time>2014-05-25T10:31:34Z</time>
      </trkpt>
      <trkpt lat="48.74967" lon="2.5449">
        <ele>107</ele>
        <time>2014-05-25T10:31:35Z</time>
      </trkpt>
      <trkpt lat="48.74968" lon="2.54491">
        <ele>105</ele>
        <time>2014-05-25T10:31:36Z</time>
      </trkpt>
      <trkpt lat="48.7497" lon="2.54492">
        <ele>105</ele>
        <time>2014-05-25T10:31:37Z</time>
      </trkpt>
      <trkpt lat="48.74971" lon="2.54493">
        <ele>105</ele>
        <time>2014-05-25T10:31:38Z</time>
      </trkpt>
      <trkpt lat="48.74972" lon="2.54494">
        <ele>106</ele>
        <time>2014-05-25T10:31:39Z</time>
      </trkpt>
      <trkpt lat="48.74974" lon="2.54495">
        <ele>108</ele>
        <time>2014-05-25T10:31:40Z</time>
      </trkpt>
      <trkpt lat="48.74975" lon="2.54496">
        <ele>108</ele>
        <time>2014-05-25T10:31:41Z</time>
      </trkpt>
      <trkpt lat="48.74977" lon="2.54498">
        <ele>108</ele>
        <time>2014-05-25T10:31:42Z</time>
      </trkpt>
      <trkpt lat="48.74978" lon="2.54499">
        <ele>109</ele>
        <time>2014-05-25T10:31:43Z</time>
      </trkpt>
      <trkpt lat="48.7498" lon="2.545">
        <ele>110</ele>
        <time>2014-05-25T10:31:44Z</time>
      </trkpt>
      <trkpt lat="48.74982" lon="2.54501">
        <ele>110</ele>
        <time>2014-05-25T10:31:45Z</time>
      </trkpt>
      <trkpt lat="48.74983" lon="2.54502">
        <ele>110</ele>
        <time>2014-05-25T10:31:46Z</time>
      </trkpt>
      <trkpt lat="48.74985" lon="2.54503">
        <ele>110</ele>
        <time>2014-05-25T10:31:47Z</time>
      </trkpt>
      <trkpt lat="48.74985" lon="2.54504">
        <ele>110</ele>
        <time>2014-05-25T10:31:48Z</time>
      </trkpt>
      <trkpt lat="48.74986" lon="2.54505">
        <ele>109</ele>
        <time>2014-05-25T10:31:49Z</time>
      </trkpt>
      <trkpt lat="48.74986" lon="2.54505">
        <ele>110</ele>
        <time>2014-05-25T10:31:50Z</time>
      </trkpt>
      <trkpt lat="48.74987" lon="2.54506">
        <ele>109</ele>
        <time>2014-05-25T10:31:51Z</time>
      </trkpt>
      <trkpt lat="48.74988" lon="2.54506">
        <ele>108</ele>
        <time>2014-05-25T10:31:52Z</time>
      </trkpt>
      <trkpt lat="48.74989" lon="2.54507">
        <ele>107</ele>
        <time>2014-05-25T10:31:53Z</time>
      </trkpt>
      <trkpt lat="48.7499" lon="2.54508">
        <ele>107</ele>
        <time>2014-05-25T10:31:54Z</time>
      </trkpt>
      <trkpt lat="48.74991" lon="2.54509">
        <ele>107</ele>
        <time>2014-05-25T10:31:55Z</time>
      </trkpt>
      <trkpt lat="48.74992" lon="2.5451">
        <ele>107</ele>
        <time>2014-05-25T10:31:56Z</time>
      </trkpt>
      <trkpt lat="48.74993" lon="2.54511">
        <ele>107</ele>
        <time>2014-05-25T10:31:57Z</time>
      </trkpt>
      <trkpt lat="48.74995" lon="2.54512">
        <ele>107</ele>
        <time>2014-05-25T10:31:58Z</time>
      </trkpt>
      <trkpt lat="48.74996" lon="2.54513">
        <ele>105</ele>
        <time>2014-05-25T10:31:59Z</time>
      </trkpt>
      <trkpt lat="48.74997" lon="2.54514">
        <ele>105</ele>
        <time>2014-05-25T10:32:00Z</time>
      </trkpt>
      <trkpt lat="48.74998" lon="2.54515">
        <ele>106</ele>
        <time>2014-05-25T10:32:01Z</time>
      </trkpt>
      <trkpt lat="48.75" lon="2.54516">
        <ele>106</ele>
        <time>2014-05-25T10:32:02Z</time>
      </trkpt>
      <trkpt lat="48.75001" lon="2.54517">
        <ele>106</ele>
        <time>2014-05-25T10:32:03Z</time>
      </trkpt>
      <trkpt lat="48.75002" lon="2.54518">
        <ele>106</ele>
        <time>2014-05-25T10:32:04Z</time>
      </trkpt>
      <trkpt lat="48.75003" lon="2.54519">
        <ele>107</ele>
        <time>2014-05-25T10:32:05Z</time>
      </trkpt>
      <trkpt lat="48.75005" lon="2.5452">
        <ele>107</ele>
        <time>2014-05-25T10:32:06Z</time>
      </trkpt>
      <trkpt lat="48.75006" lon="2.54521">
        <ele>105</ele>
        <time>2014-05-25T10:32:07Z</time>
      </trkpt>
      <trkpt lat="48.75007" lon="2.54522">
        <ele>106</ele>
        <time>2014-05-25T10:32:08Z</time>
      </trkpt>
      <trkpt lat="48.75009" lon="2.54523">
        <ele>106</ele>
        <time>2014-05-25T10:32:09Z</time>
      </trkpt>
      <trkpt lat="48.7501" lon="2.54524">
        <ele>108</ele>
        <time>2014-05-25T10:32:10Z</time>
      </trkpt>
      <trkpt lat="48.75011" lon="2.54525">
        <ele>109</ele>
        <time>2014-05-25T10:32:11Z</time>
      </trkpt>
      <trkpt lat="48.75012" lon="2.54526">
        <ele>109</ele>
        <time>2014-05-25T10:32:12Z</time>
      </trkpt>
      <trkpt lat="48.75014" lon="2.54528">
        <ele>109</ele>
        <time>2014-05-25T10:32:13Z</time>
      </trkpt>
      <trkpt lat="48.75015" lon="2.54529">
        <ele>109</ele>
        <time>2014-05-25T10:32:14Z</time>
      </trkpt>
      <trkpt lat="48.75016" lon="2.5453">
        <ele>109</ele>
        <time>2014-05-25T10:32:15Z</time>
      </trkpt>
      <trkpt lat="48.75018" lon="2.5453">
        <ele>109</ele>
        <time>2014-05-25T10:32:16Z</time>
      </trkpt>
      <trkpt lat="48.75019" lon="2.54531">
        <ele>109</ele>
        <time>2014-05-25T10:32:17Z</time>
      </trkpt>
      <trkpt lat="48.75021" lon="2.54532">
        <ele>109</ele>
        <time>2014-05-25T10:32:18Z</time>
      </trkpt>
      <trkpt lat="48.75022" lon="2.54533">
        <ele>109</ele>
        <time>2014-05-25T10:32:19Z</time>
      </trkpt>
      <trkpt lat="48.75024" lon="2.54534">
        <ele>108</ele>
        <time>2014-05-25T10:32:20Z</time>
      </trkpt>
      <trkpt lat="48.75025" lon="2.54535">
        <ele>107</ele>
        <time>2014-05-25T10:32:21Z</time>
      </trkpt>
      <trkpt lat="48.75027" lon="2.54536">
        <ele>107</ele>
        <time>2014-05-25T10:32:22Z</time>
      </trkpt>
      <trkpt lat="48.75028" lon="2.54537">
        <ele>107</ele>
        <time>2014-05-25T10:32:23Z</time>
      </trkpt>
      <trkpt lat="48.75029" lon="2.54538">
        <ele>107</ele>
        <time>2014-05-25T10:32:24Z</time>
      </trkpt>
      <trkpt lat="48.75031" lon="2.54539">
        <ele>106</ele>
        <time>2014-05-25T10:32:25Z</time>
      </trkpt>
      <trkpt lat="48.75032" lon="2.5454">
        <ele>105</ele>
        <time>2014-05-25T10:32:26Z</time>
      </trkpt>
      <trkpt lat="48.75034" lon="2.54541">
        <ele>104</ele>
        <time>2014-05-25T10:32:27Z</time>
      </trkpt>
      <trkpt lat="48.75035" lon="2.54542">
        <ele>104</ele>
        <time>2014-05-25T10:32:28Z</time>
      </trkpt>
      <trkpt lat="48.75036" lon="2.54542">
        <ele>102</ele>
        <time>2014-05-25T10:32:29Z</time>
      </trkpt>
      <trkpt lat="48.75038" lon="2.54543">
        <ele>102</ele>
        <time>2014-05-25T10:32:30Z</time>
      </trkpt>
      <trkpt lat="48.75039" lon="2.54543">
        <ele>103</ele>
        <time>2014-05-25T10:32:31Z</time>
      </trkpt>
      <trkpt lat="48.7504" lon="2.54544">
        <ele>106</ele>
        <time>2014-05-25T10:32:32Z</time>
      </trkpt>
      <trkpt lat="48.75042" lon="2.54545">
        <ele>105</ele>
        <time>2014-05-25T10:32:33Z</time>
      </trkpt>
      <trkpt lat="48.75043" lon="2.54546">
        <ele>104</ele>
        <time>2014-05-25T10:32:34Z</time>
      </trkpt>
      <trkpt lat="48.75044" lon="2.54547">
        <ele>104</ele>
        <time>2014-05-25T10:32:35Z</time>
      </trkpt>
      <trkpt lat="48.75045" lon="2.54548">
        <ele>104</ele>
        <time>2014-05-25T10:32:36Z</time>
      </trkpt>
      <trkpt lat="48.75047" lon="2.54549">
        <ele>103</ele>
        <time>2014-05-25T10:32:37Z</time>
      </trkpt>
      <trkpt lat="48.75048" lon="2.5455">
        <ele>103</ele>
        <time>2014-05-25T10:32:38Z</time>
      </trkpt>
      <trkpt lat="48.75049" lon="2.54551">
        <ele>103</ele>
        <time>2014-05-25T10:32:39Z</time>
      </trkpt>
      <trkpt lat="48.75049" lon="2.54551">
        <ele>103</ele>
        <time>2014-05-25T10:32:40Z</time>
      </trkpt>
      <trkpt lat="48.7505" lon="2.54552">
        <ele>103</ele>
        <time>2014-05-25T10:32:41Z</time>
      </trkpt>
      <trkpt lat="48.75051" lon="2.54553">
        <ele>103</ele>
        <time>2014-05-25T10:32:42Z</time>
      </trkpt>
      <trkpt lat="48.75053" lon="2.54554">
        <ele>104</ele>
        <time>2014-05-25T10:32:43Z</time>
      </trkpt>
      <trkpt lat="48.75054" lon="2.54555">
        <ele>103</ele>
        <time>2014-05-25T10:32:44Z</time>
      </trkpt>
      <trkpt lat="48.75055" lon="2.54556">
        <ele>104</ele>
        <time>2014-05-25T10:32:45Z</time>
      </trkpt>
      <trkpt lat="48.75057" lon="2.54558">
        <ele>104</ele>
        <time>2014-05-25T10:32:46Z</time>
      </trkpt>
      <trkpt lat="48.75058" lon="2.54559">
        <ele>104</ele>
        <time>2014-05-25T10:32:47Z</time>
      </trkpt>
      <trkpt lat="48.7506" lon="2.54561">
        <ele>103</ele>
        <time>2014-05-25T10:32:48Z</time>
      </trkpt>
      <trkpt lat="48.75061" lon="2.54562">
        <ele>104</ele>
        <time>2014-05-25T10:32:49Z</time>
      </trkpt>
      <trkpt lat="48.75063" lon="2.54563">
        <ele>104</ele>
        <time>2014-05-25T10:32:50Z</time>
      </trkpt>
      <trkpt lat="48.75065" lon="2.54564">
        <ele>104</ele>
        <time>2014-05-25T10:32:51Z</time>
      </trkpt>
      <trkpt lat="48.75066" lon="2.54566">
        <ele>104</ele>
        <time>2014-05-25T10:32:52Z</time>
      </trkpt>
      <trkpt lat="48.75068" lon="2.54567">
        <ele>104</ele>
        <time>2014-05-25T10:32:53Z</time>
      </trkpt>
      <trkpt lat="48.7507" lon="2.54568">
        <ele>104</ele>
        <time>2014-05-25T10:32:54Z</time>
      </trkpt>
      <trkpt lat="48.75071" lon="2.54569">
        <ele>105</ele>
        <time>2014-05-25T10:32:55Z</time>
      </trkpt>
      <trkpt lat="48.75073" lon="2.54571">
        <ele>104</ele>
        <time>2014-05-25T10:32:56Z</time>
      </trkpt>
      <trkpt lat="48.75075" lon="2.54572">
        <ele>104</ele>
        <time>2014-05-25T10:32:57Z</time>
      </trkpt>
      <trkpt lat="48.75076" lon="2.54573">
        <ele>103</ele>
        <time>2014-05-25T10:32:58Z</time>
      </trkpt>
      <trkpt lat="48.75078" lon="2.54575">
        <ele>103</ele>
        <time>2014-05-25T10:32:59Z</time>
      </trkpt>
      <trkpt lat="48.7508" lon="2.54576">
        <ele>103</ele>
        <time>2014-05-25T10:33:00Z</time>
      </trkpt>
      <trkpt lat="48.75081" lon="2.54577">
        <ele>103</ele>
        <time>2014-05-25T10:33:01Z</time>
      </trkpt>
      <trkpt lat="48.75083" lon="2.54578">
        <ele>104</ele>
        <time>2014-05-25T10:33:02Z</time>
      </trkpt>
      <trkpt lat="48.75085" lon="2.5458">
        <ele>105</ele>
        <time>2014-05-25T10:33:03Z</time>
      </trkpt>
      <trkpt lat="48.75086" lon="2.54581">
        <ele>105</ele>
        <time>2014-05-25T10:33:04Z</time>
      </trkpt>
      <trkpt lat="48.75088" lon="2.54583">
        <ele>105</ele>
        <time>2014-05-25T10:33:05Z</time>
      </trkpt>
      <trkpt lat="48.7509" lon="2.54584">
        <ele>105</ele>
        <time>2014-05-25T10:33:06Z</time>
      </trkpt>
      <trkpt lat="48.75091" lon="2.54585">
        <ele>105</ele>
        <time>2014-05-25T10:33:07Z</time>
      </trkpt>
      <trkpt lat="48.75093" lon="2.54586">
        <ele>105</ele>
        <time>2014-05-25T10:33:08Z</time>
      </trkpt>
      <trkpt lat="48.75094" lon="2.54588">
        <ele>104</ele>
        <time>2014-05-25T10:33:09Z</time>
      </trkpt>
      <trkpt lat="48.75096" lon="2.54589">
        <ele>104</ele>
        <time>2014-05-25T10:33:10Z</time>
      </trkpt>
      <trkpt lat="48.75097" lon="2.5459">
        <ele>103</ele>
        <time>2014-05-25T10:33:11Z</time>
      </trkpt>
      <trkpt lat="48.75099" lon="2.54591">
        <ele>104</ele>
        <time>2014-05-25T10:33:12Z</time>
      </trkpt>
      <trkpt lat="48.751" lon="2.54592">
        <ele>105</ele>
        <time>2014-05-25T10:33:13Z</time>
      </trkpt>
      <trkpt lat="48.75102" lon="2.54594">
        <ele>105</ele>
        <time>2014-05-25T10:33:14Z</time>
      </trkpt>
      <trkpt lat="48.75103" lon="2.54595">
        <ele>105</ele>
        <time>2014-05-25T10:33:15Z</time>
      </trkpt>
      <trkpt lat="48.75105" lon="2.54596">
        <ele>105</ele>
        <time>2014-05-25T10:33:16Z</time>
      </trkpt>
      <trkpt lat="48.75106" lon="2.54597">
        <ele>105</ele>
        <time>2014-05-25T10:33:17Z</time>
      </trkpt>
      <trkpt lat="48.75107" lon="2.54598">
        <ele>105</ele>
        <time>2014-05-25T10:33:18Z</time>
      </trkpt>
      <trkpt lat="48.75109" lon="2.54599">
        <ele>105</ele>
        <time>2014-05-25T10:33:19Z</time>
      </trkpt>
      <trkpt lat="48.7511" lon="2.54601">
        <ele>105</ele>
        <time>2014-05-25T10:33:20Z</time>
      </trkpt>
      <trkpt lat="48.75111" lon="2.54602">
        <ele>105</ele>
        <time>2014-05-25T10:33:21Z</time>
      </trkpt>
      <trkpt lat="48.75113" lon="2.54603">
        <ele>105</ele>
        <time>2014-05-25T10:33:22Z</time>
      </trkpt>
      <trkpt lat="48.75114" lon="2.54604">
        <ele>105</ele>
        <time>2014-05-25T10:33:23Z</time>
      </trkpt>
      <trkpt lat="48.75115" lon="2.54604">
        <ele>105</ele>
        <time>2014-05-25T10:33:24Z</time>
      </trkpt>
      <trkpt lat="48.75117" lon="2.54605">
        <ele>105</ele>
        <time>2014-05-25T10:33:25Z</time>
      </trkpt>
      <trkpt lat="48.75118" lon="2.54606">
        <ele>104</ele>
        <time>2014-05-25T10:33:26Z</time>
      </trkpt>
      <trkpt lat="48.75119" lon="2.54606">
        <ele>104</ele>
        <time>2014-05-25T10:33:27Z</time>
      </trkpt>
      <trkpt lat="48.7512" lon="2.54607">
        <ele>104</ele>
        <time>2014-05-25T10:33:28Z</time>
      </trkpt>
      <trkpt lat="48.7512" lon="2.54607">
        <ele>104</ele>
        <time>2014-05-25T10:33:29Z</time>
      </trkpt>
      <trkpt lat="48.75121" lon="2.54607">
        <ele>103</ele>
        <time>2014-05-25T10:33:30Z</time>
      </trkpt>
      <trkpt lat="48.75123" lon="2.54608">
        <ele>103</ele>
        <time>2014-05-25T10:33:31Z</time>
      </trkpt>
      <trkpt lat="48.75124" lon="2.54609">
        <ele>103</ele>
        <time>2014-05-25T10:33:32Z</time>
      </trkpt>
      <trkpt lat="48.75125" lon="2.54611">
        <ele>103</ele>
        <time>2014-05-25T10:33:33Z</time>
      </trkpt>
      <trkpt lat="48.75126" lon="2.54612">
        <ele>104</ele>
        <time>2014-05-25T10:33:34Z</time>
      </trkpt>
      <trkpt lat="48.75127" lon="2.54613">
        <ele>105</ele>
        <time>2014-05-25T10:33:35Z</time>
      </trkpt>
      <trkpt lat="48.75129" lon="2.54614">
        <ele>105</ele>
        <time>2014-05-25T10:33:36Z</time>
      </trkpt>
      <trkpt lat="48.7513" lon="2.54615">
        <ele>106</ele>
        <time>2014-05-25T10:33:37Z</time>
      </trkpt>
      <trkpt lat="48.75131" lon="2.54616">
        <ele>106</ele>
        <time>2014-05-25T10:33:38Z</time>
      </trkpt>
      <trkpt lat="48.75132" lon="2.54617">
        <ele>106</ele>
        <time>2014-05-25T10:33:39Z</time>
      </trkpt>
      <trkpt lat="48.75133" lon="2.54618">
        <ele>106</ele>
        <time>2014-05-25T10:33:40Z</time>
      </trkpt>
      <trkpt lat="48.75134" lon="2.54618">
        <ele>106</ele>
        <time>2014-05-25T10:33:41Z</time>
      </trkpt>
      <trkpt lat="48.75135" lon="2.54619">
        <ele>108</ele>
        <time>2014-05-25T10:33:42Z</time>
      </trkpt>
      <trkpt lat="48.75136" lon="2.5462">
        <ele>108</ele>
        <time>2014-05-25T10:33:43Z</time>
      </trkpt>
      <trkpt lat="48.75137" lon="2.54621">
        <ele>106</ele>
        <time>2014-05-25T10:33:44Z</time>
      </trkpt>
      <trkpt lat="48.75138" lon="2.54622">
        <ele>107</ele>
        <time>2014-05-25T10:33:45Z</time>
      </trkpt>
      <trkpt lat="48.75139" lon="2.54623">
        <ele>107</ele>
        <time>2014-05-25T10:33:46Z</time>
      </trkpt>
      <trkpt lat="48.7514" lon="2.54623">
        <ele>105</ele>
        <time>2014-05-25T10:33:47Z</time>
      </trkpt>
      <trkpt lat="48.75141" lon="2.54624">
        <ele>106</ele>
        <time>2014-05-25T10:33:48Z</time>
      </trkpt>
      <trkpt lat="48.75142" lon="2.54624">
        <ele>106</ele>
        <time>2014-05-25T10:33:49Z</time>
      </trkpt>
      <trkpt lat="48.75143" lon="2.54625">
        <ele>106</ele>
        <time>2014-05-25T10:33:50Z</time>
      </trkpt>
      <trkpt lat="48.75144" lon="2.54626">
        <ele>106</ele>
        <time>2014-05-25T10:33:51Z</time>
      </trkpt>
      <trkpt lat="48.75145" lon="2.54627">
        <ele>105</ele>
        <time>2014-05-25T10:33:52Z</time>
      </trkpt>
      <trkpt lat="48.75146" lon="2.54628">
        <ele>106</ele>
        <time>2014-05-25T10:33:53Z</time>
      </trkpt>
      <trkpt lat="48.75147" lon="2.54629">
        <ele>107</ele>
        <time>2014-05-25T10:33:54Z</time>
      </trkpt>
      <trkpt lat="48.75148" lon="2.5463">
        <ele>105</ele>
        <time>2014-05-25T10:33:55Z</time>
      </trkpt>
      <trkpt lat="48.7515" lon="2.54631">
        <ele>106</ele>
        <time>2014-05-25T10:33:56Z</time>
      </trkpt>
      <trkpt lat="48.75151" lon="2.54632">
        <ele>105</ele>
        <time>2014-05-25T10:33:57Z</time>
      </trkpt>
      <trkpt lat="48.75153" lon="2.54633">
        <ele>105</ele>
        <time>2014-05-25T10:33:58Z</time>
      </trkpt>
      <trkpt lat="48.75154" lon="2.54634">
        <ele>105</ele>
        <time>2014-05-25T10:33:59Z</time>
      </trkpt>
      <trkpt lat="48.75155" lon="2.54635">
        <ele>106</ele>
        <time>2014-05-25T10:34:00Z</time>
      </trkpt>
      <trkpt lat="48.75157" lon="2.54635">
        <ele>106</ele>
        <time>2014-05-25T10:34:01Z</time>
      </trkpt>
      <trkpt lat="48.75158" lon="2.54636">
        <ele>106</ele>
        <time>2014-05-25T10:34:02Z</time>
      </trkpt>
      <trkpt lat="48.75159" lon="2.54637">
        <ele>107</ele>
        <time>2014-05-25T10:34:03Z</time>
      </trkpt>
      <trkpt lat="48.7516" lon="2.54638">
        <ele>107</ele>
        <time>2014-05-25T10:34:04Z</time>
      </trkpt>
      <trkpt lat="48.75161" lon="2.54639">
        <ele>107</ele>
        <time>2014-05-25T10:34:05Z</time>
      </trkpt>
      <trkpt lat="48.75162" lon="2.5464">
        <ele>107</ele>
        <time>2014-05-25T10:34:06Z</time>
      </trkpt>
      <trkpt lat="48.75163" lon="2.54641">
        <ele>108</ele>
        <time>2014-05-25T10:34:07Z</time>
      </trkpt>
      <trkpt lat="48.75165" lon="2.54642">
        <ele>107</ele>
        <time>2014-05-25T10:34:08Z</time>
      </trkpt>
      <trkpt lat="48.75166" lon="2.54643">
        <ele>108</ele>
        <time>2014-05-25T10:34:09Z</time>
      </trkpt>
      <trkpt lat="48.75167" lon="2.54644">
        <ele>108</ele>
        <time>2014-05-25T10:34:10Z</time>
      </trkpt>
      <trkpt lat="48.75168" lon="2.54645">
        <ele>108</ele>
        <time>2014-05-25T10:34:11Z</time>
      </trkpt>
      <trkpt lat="48.7517" lon="2.54645">
        <ele>109</ele>
        <time>2014-05-25T10:34:12Z</time>
      </trkpt>
      <trkpt lat="48.75171" lon="2.54646">
        <ele>109</ele>
        <time>2014-05-25T10:34:13Z</time>
      </trkpt>
      <trkpt lat="48.75172" lon="2.54646">
        <ele>109</ele>
        <time>2014-05-25T10:34:14Z</time>
      </trkpt>
      <trkpt lat="48.75173" lon="2.54647">
        <ele>108</ele>
        <time>2014-05-25T10:34:15Z</time>
      </trkpt>
      <trkpt lat="48.75174" lon="2.54648">
        <ele>108</ele>
        <time>2014-05-25T10:34:16Z</time>
      </trkpt>
      <trkpt lat="48.75176" lon="2.54649">
        <ele>108</ele>
        <time>2014-05-25T10:34:17Z</time>
      </trkpt>
      <trkpt lat="48.75177" lon="2.54651">
        <ele>108</ele>
        <time>2014-05-25T10:34:18Z</time>
      </trkpt>
      <trkpt lat="48.75178" lon="2.54652">
        <ele>108</ele>
        <time>2014-05-25T10:34:19Z</time>
      </trkpt>
      <trkpt lat="48.75179" lon="2.54653">
        <ele>108</ele>
        <time>2014-05-25T10:34:20Z</time>
      </trkpt>
      <trkpt lat="48.75181" lon="2.54654">
        <ele>108</ele>
        <time>2014-05-25T10:34:21Z</time>
      </trkpt>
      <trkpt lat="48.75182" lon="2.54655">
        <ele>106</ele>
        <time>2014-05-25T10:34:22Z</time>
      </trkpt>
      <trkpt lat="48.75183" lon="2.54656">
        <ele>106</ele>
        <time>2014-05-25T10:34:23Z</time>
      </trkpt>
      <trkpt lat="48.75185" lon="2.54657">
        <ele>107</ele>
        <time>2014-05-25T10:34:24Z</time>
      </trkpt>
      <trkpt lat="48.75186" lon="2.54658">
        <ele>106</ele>
        <time>2014-05-25T10:34:25Z</time>
      </trkpt>
      <trkpt lat="48.75188" lon="2.54659">
        <ele>106</ele>
        <time>2014-05-25T10:34:26Z</time>
      </trkpt>
      <trkpt lat="48.75189" lon="2.5466">
        <ele>106</ele>
        <time>2014-05-25T10:34:27Z</time>
      </trkpt>
      <trkpt lat="48.7519" lon="2.54661">
        <ele>106</ele>
        <time>2014-05-25T10:34:28Z</time>
      </trkpt>
      <trkpt lat="48.75191" lon="2.54662">
        <ele>107</ele>
        <time>2014-05-25T10:34:29Z</time>
      </trkpt>
      <trkpt lat="48.75193" lon="2.54663">
        <ele>107</ele>
        <time>2014-05-25T10:34:30Z</time>
      </trkpt>
      <trkpt lat="48.75194" lon="2.54663">
        <ele>107</ele>
        <time>2014-05-25T10:34:31Z</time>
      </trkpt>
      <trkpt lat="48.75195" lon="2.54664">
        <ele>107</ele>
        <time>2014-05-25T10:34:32Z</time>
      </trkpt>
      <trkpt lat="48.75196" lon="2.54665">
        <ele>107</ele>
        <time>2014-05-25T10:34:33Z</time>
      </trkpt>
      <trkpt lat="48.75198" lon="2.54666">
        <ele>108</ele>
        <time>2014-05-25T10:34:34Z</time>
      </trkpt>
      <trkpt lat="48.75199" lon="2.54668">
        <ele>108</ele>
        <time>2014-05-25T10:34:35Z</time>
      </trkpt>
      <trkpt lat="48.752" lon="2.54669">
        <ele>107</ele>
        <time>2014-05-25T10:34:36Z</time>
      </trkpt>
      <trkpt lat="48.75202" lon="2.5467">
        <ele>107</ele>
        <time>2014-05-25T10:34:37Z</time>
      </trkpt>
      <trkpt lat="48.75203" lon="2.5467">
        <ele>107</ele>
        <time>2014-05-25T10:34:38Z</time>
      </trkpt>
      <trkpt lat="48.75204" lon="2.54671">
        <ele>107</ele>
        <time>2014-05-25T10:34:39Z</time>
      </trkpt>
      <trkpt lat="48.75205" lon="2.54671">
        <ele>106</ele>
        <time>2014-05-25T10:34:40Z</time>
      </trkpt>
      <trkpt lat="48.75206" lon="2.54672">
        <ele>107</ele>
        <time>2014-05-25T10:34:41Z</time>
      </trkpt>
      <trkpt lat="48.75208" lon="2.54673">
        <ele>107</ele>
        <time>2014-05-25T10:34:42Z</time>
      </trkpt>
      <trkpt lat="48.75209" lon="2.54674">
        <ele>107</ele>
        <time>2014-05-25T10:34:43Z</time>
      </trkpt>
      <trkpt lat="48.75211" lon="2.54675">
        <ele>105</ele>
        <time>2014-05-25T10:34:44Z</time>
      </trkpt>
      <trkpt lat="48.75212" lon="2.54676">
        <ele>105</ele>
        <time>2014-05-25T10:34:45Z</time>
      </trkpt>
      <trkpt lat="48.75213" lon="2.54677">
        <ele>105</ele>
        <time>2014-05-25T10:34:46Z</time>
      </trkpt>
      <trkpt lat="48.75215" lon="2.54678">
        <ele>105</ele>
        <time>2014-05-25T10:34:47Z</time>
      </trkpt>
      <trkpt lat="48.75216" lon="2.54679">
        <ele>106</ele>
        <time>2014-05-25T10:34:48Z</time>
      </trkpt>
      <trkpt lat="48.75217" lon="2.5468">
        <ele>106</ele>
        <time>2014-05-25T10:34:49Z</time>
      </trkpt>
      <trkpt lat="48.75219" lon="2.54681">
        <ele>106</ele>
        <time>2014-05-25T10:34:50Z</time>
      </trkpt>
      <trkpt lat="48.7522" lon="2.54682">
        <ele>105</ele>
        <time>2014-05-25T10:34:51Z</time>
      </trkpt>
      <trkpt lat="48.75221" lon="2.54683">
        <ele>106</ele>
        <time>2014-05-25T10:34:52Z</time>
      </trkpt>
      <trkpt lat="48.75222" lon="2.54684">
        <ele>106</ele>
        <time>2014-05-25T10:34:53Z</time>
      </trkpt>
      <trkpt lat="48.75224" lon="2.54685">
        <ele>106</ele>
        <time>2014-05-25T10:34:54Z</time>
      </trkpt>
      <trkpt lat="48.75225" lon="2.54685">
        <ele>106</ele>
        <time>2014-05-25T10:34:55Z</time>
      </trkpt>
      <trkpt lat="48.75227" lon="2.54686">
        <ele>105</ele>
        <time>2014-05-25T10:34:56Z</time>
      </trkpt>
      <trkpt lat="48.75229" lon="2.54687">
        <ele>105</ele>
        <time>2014-05-25T10:34:57Z</time>
      </trkpt>
      <trkpt lat="48.7523" lon="2.54689">
        <ele>105</ele>
        <time>2014-05-25T10:34:58Z</time>
      </trkpt>
      <trkpt lat="48.75232" lon="2.5469">
        <ele>106</ele>
        <time>2014-05-25T10:34:59Z</time>
      </trkpt>
      <trkpt lat="48.75233" lon="2.54691">
        <ele>106</ele>
        <time>2014-05-25T10:35:00Z</time>
      </trkpt>
      <trkpt lat="48.75234" lon="2.54691">
        <ele>106</ele>
        <time>2014-05-25T10:35:01Z</time>
      </trkpt>
      <trkpt lat="48.75236" lon="2.54693">
        <ele>106</ele>
        <time>2014-05-25T10:35:02Z</time>
      </trkpt>
      <trkpt lat="48.75237" lon="2.54694">
        <ele>106</ele>
        <time>2014-05-25T10:35:03Z</time>
      </trkpt>
      <trkpt lat="48.75238" lon="2.54695">
        <ele>105</ele>
        <time>2014-05-25T10:35:04Z</time>
      </trkpt>
      <trkpt lat="48.7524" lon="2.54696">
        <ele>105</ele>
        <time>2014-05-25T10:35:05Z</time>
      </trkpt>
      <trkpt lat="48.75242" lon="2.54698">
        <ele>105</ele>
        <time>2014-05-25T10:35:06Z</time>
      </trkpt>
      <trkpt lat="48.75243" lon="2.54699">
        <ele>104</ele>
        <time>2014-05-25T10:35:07Z</time>
      </trkpt>
      <trkpt lat="48.75244" lon="2.54701">
        <ele>104</ele>
        <time>2014-05-25T10:35:08Z</time>
      </trkpt>
      <trkpt lat="48.75246" lon="2.54702">
        <ele>104</ele>
        <time>2014-05-25T10:35:09Z</time>
      </trkpt>
      <trkpt lat="48.75247" lon="2.54703">
        <ele>103</ele>
        <time>2014-05-25T10:35:10Z</time>
      </trkpt>
      <trkpt lat="48.75248" lon="2.54705">
        <ele>103</ele>
        <time>2014-05-25T10:35:11Z</time>
      </trkpt>
      <trkpt lat="48.7525" lon="2.54706">
        <ele>102</ele>
        <time>2014-05-25T10:35:12Z</time>
      </trkpt>
      <trkpt lat="48.75251" lon="2.54707">
        <ele>102</ele>
        <time>2014-05-25T10:35:13Z</time>
      </trkpt>
      <trkpt lat="48.75253" lon="2.54707">
        <ele>103</ele>
        <time>2014-05-25T10:35:14Z</time>
      </trkpt>
      <trkpt lat="48.75254" lon="2.54708">
        <ele>103</ele>
        <time>2014-05-25T10:35:15Z</time>
      </trkpt>
      <trkpt lat="48.75255" lon="2.54709">
        <ele>104</ele>
        <time>2014-05-25T10:35:16Z</time>
      </trkpt>
      <trkpt lat="48.75256" lon="2.5471">
        <ele>105</ele>
        <time>2014-05-25T10:35:17Z</time>
      </trkpt>
      <trkpt lat="48.75257" lon="2.54711">
        <ele>106</ele>
        <time>2014-05-25T10:35:18Z</time>
      </trkpt>
      <trkpt lat="48.75258" lon="2.54713">
        <ele>106</ele>
        <time>2014-05-25T10:35:19Z</time>
      </trkpt>
      <trkpt lat="48.7526" lon="2.54713">
        <ele>107</ele>
        <time>2014-05-25T10:35:20Z</time>
      </trkpt>
      <trkpt lat="48.75261" lon="2.54714">
        <ele>106</ele>
        <time>2014-05-25T10:35:21Z</time>
      </trkpt>
      <trkpt lat="48.75262" lon="2.54715">
        <ele>106</ele>
        <time>2014-05-25T10:35:22Z</time>
      </trkpt>
      <trkpt lat="48.75263" lon="2.54716">
        <ele>107</ele>
        <time>2014-05-25T10:35:23Z</time>
      </trkpt>
      <trkpt lat="48.75265" lon="2.54717">
        <ele>107</ele>
        <time>2014-05-25T10:35:24Z</time>
      </trkpt>
      <trkpt lat="48.75266" lon="2.54719">
        <ele>108</ele>
        <time>2014-05-25T10:35:25Z</time>
      </trkpt>
      <trkpt lat="48.75267" lon="2.54719">
        <ele>106</ele>
        <time>2014-05-25T10:35:26Z</time>
      </trkpt>
      <trkpt lat="48.75268" lon="2.5472">
        <ele>107</ele>
        <time>2014-05-25T10:35:27Z</time>
      </trkpt>
      <trkpt lat="48.75269" lon="2.54721">
        <ele>108</ele>
        <time>2014-05-25T10:35:28Z</time>
      </trkpt>
      <trkpt lat="48.7527" lon="2.54722">
        <ele>109</ele>
        <time>2014-05-25T10:35:29Z</time>
      </trkpt>
      <trkpt lat="48.75272" lon="2.54723">
        <ele>107</ele>
        <time>2014-05-25T10:35:30Z</time>
      </trkpt>
      <trkpt lat="48.75273" lon="2.54724">
        <ele>106</ele>
        <time>2014-05-25T10:35:31Z</time>
      </trkpt>
      <trkpt lat="48.75274" lon="2.54724">
        <ele>106</ele>
        <time>2014-05-25T10:35:32Z</time>
      </trkpt>
      <trkpt lat="48.75276" lon="2.54725">
        <ele>105</ele>
        <time>2014-05-25T10:35:33Z</time>
      </trkpt>
      <trkpt lat="48.75277" lon="2.54726">
        <ele>105</ele>
        <time>2014-05-25T10:35:34Z</time>
      </trkpt>
      <trkpt lat="48.75279" lon="2.54727">
        <ele>105</ele>
        <time>2014-05-25T10:35:35Z</time>
      </trkpt>
      <trkpt lat="48.7528" lon="2.54729">
        <ele>105</ele>
        <time>2014-05-25T10:35:36Z</time>
      </trkpt>
      <trkpt lat="48.75282" lon="2.5473">
        <ele>104</ele>
        <time>2014-05-25T10:35:37Z</time>
      </trkpt>
      <trkpt lat="48.75283" lon="2.54731">
        <ele>104</ele>
        <time>2014-05-25T10:35:38Z</time>
      </trkpt>
      <trkpt lat="48.75284" lon="2.54732">
        <ele>104</ele>
        <time>2014-05-25T10:35:39Z</time>
      </trkpt>
      <trkpt lat="48.75286" lon="2.54733">
        <ele>104</ele>
        <time>2014-05-25T10:35:40Z</time>
      </trkpt>
      <trkpt lat="48.75287" lon="2.54734">
        <ele>105</ele>
        <time>2014-05-25T10:35:41Z</time>
      </trkpt>
      <trkpt lat="48.75288" lon="2.54735">
        <ele>104</ele>
        <time>2014-05-25T10:35:42Z</time>
      </trkpt>
      <trkpt lat="48.75289" lon="2.54736">
        <ele>105</ele>
        <time>2014-05-25T10:35:43Z</time>
      </trkpt>
      <trkpt lat="48.7529" lon="2.54736">
        <ele>105</ele>
        <time>2014-05-25T10:35:44Z</time>
      </trkpt>
      <trkpt lat="48.75292" lon="2.54736">
        <ele>106</ele>
        <time>2014-05-25T10:35:45Z</time>
      </trkpt>
      <trkpt lat="48.75293" lon="2.54737">
        <ele>105</ele>
        <time>2014-05-25T10:35:46Z</time>
      </trkpt>
      <trkpt lat="48.75294" lon="2.54737">
        <ele>105</ele>
        <time>2014-05-25T10:35:47Z</time>
      </trkpt>
      <trkpt lat="48.75295" lon="2.54738">
        <ele>106</ele>
        <time>2014-05-25T10:35:48Z</time>
      </trkpt>
      <trkpt lat="48.75296" lon="2.54739">
        <ele>105</ele>
        <time>2014-05-25T10:35:49Z</time>
      </trkpt>
      <trkpt lat="48.75298" lon="2.5474">
        <ele>106</ele>
        <time>2014-05-25T10:35:50Z</time>
      </trkpt>
      <trkpt lat="48.75299" lon="2.5474">
        <ele>107</ele>
        <time>2014-05-25T10:35:51Z</time>
      </trkpt>
      <trkpt lat="48.753" lon="2.54741">
        <ele>107</ele>
        <time>2014-05-25T10:35:52Z</time>
      </trkpt>
      <trkpt lat="48.75301" lon="2.54742">
        <ele>107</ele>
        <time>2014-05-25T10:35:53Z</time>
      </trkpt>
      <trkpt lat="48.75303" lon="2.54742">
        <ele>108</ele>
        <time>2014-05-25T10:35:54Z</time>
      </trkpt>
      <trkpt lat="48.75304" lon="2.54743">
        <ele>107</ele>
        <time>2014-05-25T10:35:55Z</time>
      </trkpt>
      <trkpt lat="48.75305" lon="2.54744">
        <ele>107</ele>
        <time>2014-05-25T10:35:56Z</time>
      </trkpt>
      <trkpt lat="48.75306" lon="2.54745">
        <ele>107</ele>
        <time>2014-05-25T10:35:57Z</time>
      </trkpt>
      <trkpt lat="48.75308" lon="2.54747">
        <ele>106</ele>
        <time>2014-05-25T10:35:58Z</time>
      </trkpt>
      <trkpt lat="48.75309" lon="2.54748">
        <ele>106</ele>
        <time>2014-05-25T10:35:59Z</time>
      </trkpt>
      <trkpt lat="48.75311" lon="2.54749">
        <ele>106</ele>
        <time>2014-05-25T10:36:00Z</time>
      </trkpt>
      <trkpt lat="48.75312" lon="2.54751">
        <ele>106</ele>
        <time>2014-05-25T10:36:01Z</time>
      </trkpt>
      <trkpt lat="48.75314" lon="2.54753">
        <ele>106</ele>
        <time>2014-05-25T10:36:02Z</time>
      </trkpt>
      <trkpt lat="48.75316" lon="2.54754">
        <ele>106</ele>
        <time>2014-05-25T10:36:03Z</time>
      </trkpt>
      <trkpt lat="48.75318" lon="2.54756">
        <ele>106</ele>
        <time>2014-05-25T10:36:04Z</time>
      </trkpt>
      <trkpt lat="48.75319" lon="2.54758">
        <ele>107</ele>
        <time>2014-05-25T10:36:05Z</time>
      </trkpt>
      <trkpt lat="48.75321" lon="2.54761">
        <ele>107</ele>
        <time>2014-05-25T10:36:06Z</time>
      </trkpt>
      <trkpt lat="48.75322" lon="2.54763">
        <ele>107</ele>
        <time>2014-05-25T10:36:07Z</time>
      </trkpt>
      <trkpt lat="48.75323" lon="2.54766">
        <ele>106</ele>
        <time>2014-05-25T10:36:08Z</time>
      </trkpt>
      <trkpt lat="48.75324" lon="2.54768">
        <ele>106</ele>
        <time>2014-05-25T10:36:09Z</time>
      </trkpt>
      <trkpt lat="48.75325" lon="2.54771">
        <ele>105</ele>
        <time>2014-05-25T10:36:10Z</time>
      </trkpt>
      <trkpt lat="48.75326" lon="2.54773">
        <ele>105</ele>
        <time>2014-05-25T10:36:11Z</time>
      </trkpt>
      <trkpt lat="48.75327" lon="2.54775">
        <ele>105</ele>
        <time>2014-05-25T10:36:12Z</time>
      </trkpt>
      <trkpt lat="48.75328" lon="2.54777">
        <ele>105</ele>
        <time>2014-05-25T10:36:13Z</time>
      </trkpt>
      <trkpt lat="48.75329" lon="2.5478">
        <ele>104</ele>
        <time>2014-05-25T10:36:14Z</time>
      </trkpt>
      <trkpt lat="48.7533" lon="2.54782">
        <ele>104</ele>
        <time>2014-05-25T10:36:15Z</time>
      </trkpt>
      <trkpt lat="48.75331" lon="2.54784">
        <ele>104</ele>
        <time>2014-05-25T10:36:16Z</time>
      </trkpt>
      <trkpt lat="48.75332" lon="2.54786">
        <ele>104</ele>
        <time>2014-05-25T10:36:17Z</time>
      </trkpt>
      <trkpt lat="48.75333" lon="2.54788">
        <ele>104</ele>
        <time>2014-05-25T10:36:18Z</time>
      </trkpt>
      <trkpt lat="48.75334" lon="2.5479">
        <ele>105</ele>
        <time>2014-05-25T10:36:19Z</time>
      </trkpt>
      <trkpt lat="48.75334" lon="2.54791">
        <ele>105</ele>
        <time>2014-05-25T10:36:20Z</time>
      </trkpt>
      <trkpt lat="48.75335" lon="2.54792">
        <ele>106</ele>
        <time>2014-05-25T10:36:21Z</time>
      </trkpt>
      <trkpt lat="48.75335" lon="2.54793">
        <ele>106</ele>
        <time>2014-05-25T10:36:22Z</time>
      </trkpt>
      <trkpt lat="48.75335" lon="2.54795">
        <ele>106</ele>
        <time>2014-05-25T10:36:23Z</time>
      </trkpt>
      <trkpt lat="48.75336" lon="2.54796">
        <ele>106</ele>
        <time>2014-05-25T10:36:24Z</time>
      </trkpt>
      <trkpt lat="48.75336" lon="2.54798">
        <ele>106</ele>
        <time>2014-05-25T10:36:25Z</time>
      </trkpt>
      <trkpt lat="48.75336" lon="2.548">
        <ele>105</ele>
        <time>2014-05-25T10:36:26Z</time>
      </trkpt>
      <trkpt lat="48.75336" lon="2.54803">
        <ele>104</ele>
        <time>2014-05-25T10:36:27Z</time>
      </trkpt>
      <trkpt lat="48.75336" lon="2.54805">
        <ele>105</ele>
        <time>2014-05-25T10:36:28Z</time>
      </trkpt>
      <trkpt lat="48.75337" lon="2.54807">
        <ele>105</ele>
        <time>2014-05-25T10:36:29Z</time>
      </trkpt>
      <trkpt lat="48.75337" lon="2.54808">
        <ele>105</ele>
        <time>2014-05-25T10:36:30Z</time>
      </trkpt>
      <trkpt lat="48.75337" lon="2.54808">
        <ele>105</ele>
        <time>2014-05-25T10:36:31Z</time>
      </trkpt>
      <trkpt lat="48.75337" lon="2.54809">
        <ele>105</ele>
        <time>2014-05-25T10:36:32Z</time>
      </trkpt>
      <trkpt lat="48.75338" lon="2.54809">
        <ele>104</ele>
        <time>2014-05-25T10:36:33Z</time>
      </trkpt>
      <trkpt lat="48.75338" lon="2.5481">
        <ele>104</ele>
        <time>2014-05-25T10:36:34Z</time>
      </trkpt>
      <trkpt lat="48.75338" lon="2.54812">
        <ele>104</ele>
        <time>2014-05-25T10:36:35Z</time>
      </trkpt>
      <trkpt lat="48.75338" lon="2.54813">
        <ele>104</ele>
        <time>2014-05-25T10:36:36Z</time>
      </trkpt>
      <trkpt lat="48.75338" lon="2.54814">
        <ele>104</ele>
        <time>2014-05-25T10:36:37Z</time>
      </trkpt>
      <trkpt lat="48.75339" lon="2.54815">
        <ele>103</ele>
        <time>2014-05-25T10:36:38Z</time>
      </trkpt>
      <trkpt lat="48.75339" lon="2.54816">
        <ele>104</ele>
        <time>2014-05-25T10:36:39Z</time>
      </trkpt>
      <trkpt lat="48.75338" lon="2.54817">
        <ele>103</ele>
        <time>2014-05-25T10:36:40Z</time>
      </trkpt>
      <trkpt lat="48.75338" lon="2.54818">
        <ele>103</ele>
        <time>2014-05-25T10:36:41Z</time>
      </trkpt>
      <trkpt lat="48.75339" lon="2.54819">
        <ele>104</ele>
        <time>2014-05-25T10:36:42Z</time>
      </trkpt>
      <trkpt lat="48.75339" lon="2.54821">
        <ele>104</ele>
        <time>2014-05-25T10:36:43Z</time>
      </trkpt>
      <trkpt lat="48.75339" lon="2.54824">
        <ele>104</ele>
        <time>2014-05-25T10:36:44Z</time>
      </trkpt>
      <trkpt lat="48.75339" lon="2.54826">
        <ele>103</ele>
        <time>2014-05-25T10:36:45Z</time>
      </trkpt>
      <trkpt lat="48.75339" lon="2.54829">
        <ele>103</ele>
        <time>2014-05-25T10:36:46Z</time>
      </trkpt>
      <trkpt lat="48.7534" lon="2.54832">
        <ele>102</ele>
        <time>2014-05-25T10:36:47Z</time>
      </trkpt>
      <trkpt lat="48.75341" lon="2.54835">
        <ele>102</ele>
        <time>2014-05-25T10:36:48Z</time>
      </trkpt>
      <trkpt lat="48.75341" lon="2.54838">
        <ele>102</ele>
        <time>2014-05-25T10:36:49Z</time>
      </trkpt>
      <trkpt lat="48.75342" lon="2.54839">
        <ele>101</ele>
        <time>2014-05-25T10:36:50Z</time>
      </trkpt>
      <trkpt lat="48.75342" lon="2.54841">
        <ele>101</ele>
        <time>2014-05-25T10:36:51Z</time>
      </trkpt>
      <trkpt lat="48.75343" lon="2.54844">
        <ele>100</ele>
        <time>2014-05-25T10:36:52Z</time>
      </trkpt>
      <trkpt lat="48.75343" lon="2.54845">
        <ele>100</ele>
        <time>2014-05-25T10:36:53Z</time>
      </trkpt>
      <trkpt lat="48.75343" lon="2.54846">
        <ele>100</ele>
        <time>2014-05-25T10:36:54Z</time>
      </trkpt>
      <trkpt lat="48.75343" lon="2.54847">
        <ele>99</ele>
        <time>2014-05-25T10:36:55Z</time>
      </trkpt>
      <trkpt lat="48.75343" lon="2.54848">
        <ele>99</ele>
        <time>2014-05-25T10:36:56Z</time>
      </trkpt>
      <trkpt lat="48.75343" lon="2.5485">
        <ele>99</ele>
        <time>2014-05-25T10:36:57Z</time>
      </trkpt>
      <trkpt lat="48.75343" lon="2.54852">
        <ele>98</ele>
        <time>2014-05-25T10:36:58Z</time>
      </trkpt>
      <trkpt lat="48.75343" lon="2.54854">
        <ele>99</ele>
        <time>2014-05-25T10:36:59Z</time>
      </trkpt>
      <trkpt lat="48.75343" lon="2.54856">
        <ele>99</ele>
        <time>2014-05-25T10:37:00Z</time>
      </trkpt>
      <trkpt lat="48.75343" lon="2.54859">
        <ele>100</ele>
        <time>2014-05-25T10:37:01Z</time>
      </trkpt>
      <trkpt lat="48.75343" lon="2.54861">
        <ele>101</ele>
        <time>2014-05-25T10:37:02Z</time>
      </trkpt>
      <trkpt lat="48.75343" lon="2.54864">
        <ele>102</ele>
        <time>2014-05-25T10:37:03Z</time>
      </trkpt>
      <trkpt lat="48.75342" lon="2.54866">
        <ele>103</ele>
        <time>2014-05-25T10:37:04Z</time>
      </trkpt>
      <trkpt lat="48.75342" lon="2.54869">
        <ele>105</ele>
        <time>2014-05-25T10:37:05Z</time>
      </trkpt>
      <trkpt lat="48.75342" lon="2.54872">
        <ele>105</ele>
        <time>2014-05-25T10:37:06Z</time>
      </trkpt>
      <trkpt lat="48.75341" lon="2.54876">
        <ele>105</ele>
        <time>2014-05-25T10:37:07Z</time>
      </trkpt>
      <trkpt lat="48.75341" lon="2.54879">
        <ele>106</ele>
        <time>2014-05-25T10:37:08Z</time>
      </trkpt>
      <trkpt lat="48.75341" lon="2.54882">
        <ele>107</ele>
        <time>2014-05-25T10:37:09Z</time>
      </trkpt>
      <trkpt lat="48.75341" lon="2.54885">
        <ele>106</ele>
        <time>2014-05-25T10:37:10Z</time>
      </trkpt>
      <trkpt lat="48.75341" lon="2.54888">
        <ele>107</ele>
        <time>2014-05-25T10:37:11Z</time>
      </trkpt>
      <trkpt lat="48.75341" lon="2.54891">
        <ele>107</ele>
        <time>2014-05-25T10:37:12Z</time>
      </trkpt>
      <trkpt lat="48.75342" lon="2.54893">
        <ele>107</ele>
        <time>2014-05-25T10:37:13Z</time>
      </trkpt>
      <trkpt lat="48.75343" lon="2.54896">
        <ele>108</ele>
        <time>2014-05-25T10:37:14Z</time>
      </trkpt>
      <trkpt lat="48.75343" lon="2.54898">
        <ele>106</ele>
        <time>2014-05-25T10:37:15Z</time>
      </trkpt>
      <trkpt lat="48.75344" lon="2.54901">
        <ele>105</ele>
        <time>2014-05-25T10:37:16Z</time>
      </trkpt>
      <trkpt lat="48.75344" lon="2.54904">
        <ele>105</ele>
        <time>2014-05-25T10:37:17Z</time>
      </trkpt>
      <trkpt lat="48.75344" lon="2.54906">
        <ele>104</ele>
        <time>2014-05-25T10:37:18Z</time>
      </trkpt>
      <trkpt lat="48.75344" lon="2.54909">
        <ele>105</ele>
        <time>2014-05-25T10:37:19Z</time>
      </trkpt>
      <trkpt lat="48.75344" lon="2.54911">
        <ele>104</ele>
        <time>2014-05-25T10:37:20Z</time>
      </trkpt>
      <trkpt lat="48.75344" lon="2.54915">
        <ele>105</ele>
        <time>2014-05-25T10:37:21Z</time>
      </trkpt>
      <trkpt lat="48.75344" lon="2.54918">
        <ele>105</ele>
        <time>2014-05-25T10:37:22Z</time>
      </trkpt>
      <trkpt lat="48.75344" lon="2.54921">
        <ele>104</ele>
        <time>2014-05-25T10:37:23Z</time>
      </trkpt>
      <trkpt lat="48.75345" lon="2.54924">
        <ele>104</ele>
        <time>2014-05-25T10:37:24Z</time>
      </trkpt>
      <trkpt lat="48.75345" lon="2.54926">
        <ele>104</ele>
        <time>2014-05-25T10:37:25Z</time>
      </trkpt>
      <trkpt lat="48.75345" lon="2.54928">
        <ele>103</ele>
        <time>2014-05-25T10:37:26Z</time>
      </trkpt>
      <trkpt lat="48.75345" lon="2.5493">
        <ele>104</ele>
        <time>2014-05-25T10:37:27Z</time>
      </trkpt>
      <trkpt lat="48.75345" lon="2.54933">
        <ele>104</ele>
        <time>2014-05-25T10:37:28Z</time>
      </trkpt>
      <trkpt lat="48.75345" lon="2.54934">
        <ele>104</ele>
        <time>2014-05-25T10:37:29Z</time>
      </trkpt>
      <trkpt lat="48.75345" lon="2.54935">
        <ele>103</ele>
        <time>2014-05-25T10:37:30Z</time>
      </trkpt>
      <trkpt lat="48.75345" lon="2.54937">
        <ele>103</ele>
        <time>2014-05-25T10:37:31Z</time>
      </trkpt>
      <trkpt lat="48.75345" lon="2.5494">
        <ele>103</ele>
        <time>2014-05-25T10:37:32Z</time>
      </trkpt>
      <trkpt lat="48.75346" lon="2.54942">
        <ele>103</ele>
        <time>2014-05-25T10:37:33Z</time>
      </trkpt>
      <trkpt lat="48.75346" lon="2.54944">
        <ele>102</ele>
        <time>2014-05-25T10:37:34Z</time>
      </trkpt>
      <trkpt lat="48.75346" lon="2.54947">
        <ele>102</ele>
        <time>2014-05-25T10:37:35Z</time>
      </trkpt>
      <trkpt lat="48.75346" lon="2.5495">
        <ele>103</ele>
        <time>2014-05-25T10:37:36Z</time>
      </trkpt>
      <trkpt lat="48.75346" lon="2.54952">
        <ele>103</ele>
        <time>2014-05-25T10:37:37Z</time>
      </trkpt>
      <trkpt lat="48.75346" lon="2.54955">
        <ele>102</ele>
        <time>2014-05-25T10:37:38Z</time>
      </trkpt>
      <trkpt lat="48.75346" lon="2.54958">
        <ele>102</ele>
        <time>2014-05-25T10:37:39Z</time>
      </trkpt>
      <trkpt lat="48.75346" lon="2.5496">
        <ele>103</ele>
        <time>2014-05-25T10:37:40Z</time>
      </trkpt>
      <trkpt lat="48.75347" lon="2.54963">
        <ele>103</ele>
        <time>2014-05-25T10:37:41Z</time>
      </trkpt>
      <trkpt lat="48.75347" lon="2.54966">
        <ele>103</ele>
        <time>2014-05-25T10:37:42Z</time>
      </trkpt>
      <trkpt lat="48.75347" lon="2.54968">
        <ele>102</ele>
        <time>2014-05-25T10:37:43Z</time>
      </trkpt>
      <trkpt lat="48.75347" lon="2.54971">
        <ele>103</ele>
        <time>2014-05-25T10:37:44Z</time>
      </trkpt>
      <trkpt lat="48.75347" lon="2.54973">
        <ele>103</ele>
        <time>2014-05-25T10:37:45Z</time>
      </trkpt>
      <trkpt lat="48.75347" lon="2.54975">
        <ele>102</ele>
        <time>2014-05-25T10:37:46Z</time>
      </trkpt>
      <trkpt lat="48.75347" lon="2.54977">
        <ele>102</ele>
        <time>2014-05-25T10:37:47Z</time>
      </trkpt>
      <trkpt lat="48.75348" lon="2.5498">
        <ele>103</ele>
        <time>2014-05-25T10:37:48Z</time>
      </trkpt>
      <trkpt lat="48.75348" lon="2.54982">
        <ele>102</ele>
        <time>2014-05-25T10:37:49Z</time>
      </trkpt>
      <trkpt lat="48.75348" lon="2.54984">
        <ele>102</ele>
        <time>2014-05-25T10:37:50Z</time>
      </trkpt>
      <trkpt lat="48.75348" lon="2.54987">
        <ele>102</ele>
        <time>2014-05-25T10:37:51Z</time>
      </trkpt>
      <trkpt lat="48.75348" lon="2.54989">
        <ele>102</ele>
        <time>2014-05-25T10:37:52Z</time>
      </trkpt>
      <trkpt lat="48.75348" lon="2.54991">
        <ele>102</ele>
        <time>2014-05-25T10:37:53Z</time>
      </trkpt>
      <trkpt lat="48.75348" lon="2.54993">
        <ele>101</ele>
        <time>2014-05-25T10:37:54Z</time>
      </trkpt>
      <trkpt lat="48.75348" lon="2.54996">
        <ele>102</ele>
        <time>2014-05-25T10:37:55Z</time>
      </trkpt>
      <trkpt lat="48.75348" lon="2.54998">
        <ele>103</ele>
        <time>2014-05-25T10:37:56Z</time>
      </trkpt>
      <trkpt lat="48.75348" lon="2.55">
        <ele>103</ele>
        <time>2014-05-25T10:37:57Z</time>
      </trkpt>
      <trkpt lat="48.75348" lon="2.55002">
        <ele>104</ele>
        <time>2014-05-25T10:37:58Z</time>
      </trkpt>
      <trkpt lat="48.75348" lon="2.55004">
        <ele>104</ele>
        <time>2014-05-25T10:37:59Z</time>
      </trkpt>
      <trkpt lat="48.75348" lon="2.55006">
        <ele>104</ele>
        <time>2014-05-25T10:38:00Z</time>
      </trkpt>
      <trkpt lat="48.75349" lon="2.55009">
        <ele>103</ele>
        <time>2014-05-25T10:38:01Z</time>
      </trkpt>
      <trkpt lat="48.75349" lon="2.55011">
        <ele>103</ele>
        <time>2014-05-25T10:38:02Z</time>
      </trkpt>
      <trkpt lat="48.75349" lon="2.55013">
        <ele>104</ele>
        <time>2014-05-25T10:38:03Z</time>
      </trkpt>
      <trkpt lat="48.75348" lon="2.55014">
        <ele>105</ele>
        <time>2014-05-25T10:38:04Z</time>
      </trkpt>
      <trkpt lat="48.75348" lon="2.55016">
        <ele>105</ele>
        <time>2014-05-25T10:38:05Z</time>
      </trkpt>
      <trkpt lat="48.75348" lon="2.55018">
        <ele>107</ele>
        <time>2014-05-25T10:38:06Z</time>
      </trkpt>
      <trkpt lat="48.75348" lon="2.55019">
        <ele>107</ele>
        <time>2014-05-25T10:38:07Z</time>
      </trkpt>
      <trkpt lat="48.75348" lon="2.55021">
        <ele>107</ele>
        <time>2014-05-25T10:38:08Z</time>
      </trkpt>
      <trkpt lat="48.75348" lon="2.55023">
        <ele>106</ele>
        <time>2014-05-25T10:38:09Z</time>
      </trkpt>
      <trkpt lat="48.75347" lon="2.55025">
        <ele>105</ele>
        <time>2014-05-25T10:38:10Z</time>
      </trkpt>
      <trkpt lat="48.75347" lon="2.55027">
        <ele>104</ele>
        <time>2014-05-25T10:38:11Z</time>
      </trkpt>
      <trkpt lat="48.75347" lon="2.55029">
        <ele>102</ele>
        <time>2014-05-25T10:38:12Z</time>
      </trkpt>
      <trkpt lat="48.75347" lon="2.5503">
        <ele>102</ele>
        <time>2014-05-25T10:38:13Z</time>
      </trkpt>
      <trkpt lat="48.75347" lon="2.55032">
        <ele>100</ele>
        <time>2014-05-25T10:38:14Z</time>
      </trkpt>
      <trkpt lat="48.75347" lon="2.55034">
        <ele>101</ele>
        <time>2014-05-25T10:38:15Z</time>
      </trkpt>
      <trkpt lat="48.75347" lon="2.55036">
        <ele>100</ele>
        <time>2014-05-25T10:38:16Z</time>
      </trkpt>
      <trkpt lat="48.75347" lon="2.55038">
        <ele>100</ele>
        <time>2014-05-25T10:38:17Z</time>
      </trkpt>
      <trkpt lat="48.75347" lon="2.5504">
        <ele>101</ele>
        <time>2014-05-25T10:38:18Z</time>
      </trkpt>
      <trkpt lat="48.75347" lon="2.55043">
        <ele>100</ele>
        <time>2014-05-25T10:38:19Z</time>
      </trkpt>
      <trkpt lat="48.75348" lon="2.55045">
        <ele>100</ele>
        <time>2014-05-25T10:38:20Z</time>
      </trkpt>
      <trkpt lat="48.75348" lon="2.55048">
        <ele>99</ele>
        <time>2014-05-25T10:38:21Z</time>
      </trkpt>
      <trkpt lat="48.75348" lon="2.5505">
        <ele>99</ele>
        <time>2014-05-25T10:38:22Z</time>
      </trkpt>
      <trkpt lat="48.75348" lon="2.55051">
        <ele>98</ele>
        <time>2014-05-25T10:38:23Z</time>
      </trkpt>
      <trkpt lat="48.75348" lon="2.55052">
        <ele>99</ele>
        <time>2014-05-25T10:38:24Z</time>
      </trkpt>
      <trkpt lat="48.75348" lon="2.55054">
        <ele>98</ele>
        <time>2014-05-25T10:38:25Z</time>
      </trkpt>
      <trkpt lat="48.75348" lon="2.55055">
        <ele>98</ele>
        <time>2014-05-25T10:38:26Z</time>
      </trkpt>
      <trkpt lat="48.75348" lon="2.55056">
        <ele>97</ele>
        <time>2014-05-25T10:38:27Z</time>
      </trkpt>
      <trkpt lat="48.75348" lon="2.55058">
        <ele>97</ele>
        <time>2014-05-25T10:38:28Z</time>
      </trkpt>
      <trkpt lat="48.75348" lon="2.5506">
        <ele>98</ele>
        <time>2014-05-25T10:38:29Z</time>
      </trkpt>
      <trkpt lat="48.75348" lon="2.55062">
        <ele>100</ele>
        <time>2014-05-25T10:38:30Z</time>
      </trkpt>
      <trkpt lat="48.75348" lon="2.55064">
        <ele>99</ele>
        <time>2014-05-25T10:38:31Z</time>
      </trkpt>
      <trkpt lat="48.75348" lon="2.55067">
        <ele>100</ele>
        <time>2014-05-25T10:38:32Z</time>
      </trkpt>
      <trkpt lat="48.75348" lon="2.55069">
        <ele>100</ele>
        <time>2014-05-25T10:38:33Z</time>
      </trkpt>
      <trkpt lat="48.75349" lon="2.55072">
        <ele>100</ele>
        <time>2014-05-25T10:38:34Z</time>
      </trkpt>
      <trkpt lat="48.75349" lon="2.55075">
        <ele>100</ele>
        <time>2014-05-25T10:38:35Z</time>
      </trkpt>
      <trkpt lat="48.75349" lon="2.55077">
        <ele>100</ele>
        <time>2014-05-25T10:38:36Z</time>
      </trkpt>
      <trkpt lat="48.7535" lon="2.5508">
        <ele>99</ele>
        <time>2014-05-25T10:38:37Z</time>
      </trkpt>
      <trkpt lat="48.7535" lon="2.55082">
        <ele>98</ele>
        <time>2014-05-25T10:38:38Z</time>
      </trkpt>
      <trkpt lat="48.7535" lon="2.55085">
        <ele>98</ele>
        <time>2014-05-25T10:38:39Z</time>
      </trkpt>
      <trkpt lat="48.7535" lon="2.55087">
        <ele>98</ele>
        <time>2014-05-25T10:38:40Z</time>
      </trkpt>
      <trkpt lat="48.7535" lon="2.55089">
        <ele>101</ele>
        <time>2014-05-25T10:38:41Z</time>
      </trkpt>
      <trkpt lat="48.75351" lon="2.55091">
        <ele>101</ele>
        <time>2014-05-25T10:38:42Z</time>
      </trkpt>
      <trkpt lat="48.75351" lon="2.55093">
        <ele>102</ele>
        <time>2014-05-25T10:38:43Z</time>
      </trkpt>
      <trkpt lat="48.75351" lon="2.55095">
        <ele>103</ele>
        <time>2014-05-25T10:38:44Z</time>
      </trkpt>
      <trkpt lat="48.75351" lon="2.55097">
        <ele>104</ele>
        <time>2014-05-25T10:38:45Z</time>
      </trkpt>
      <trkpt lat="48.75351" lon="2.55099">
        <ele>104</ele>
        <time>2014-05-25T10:38:46Z</time>
      </trkpt>
      <trkpt lat="48.75351" lon="2.55101">
        <ele>106</ele>
        <time>2014-05-25T10:38:47Z</time>
      </trkpt>
      <trkpt lat="48.75351" lon="2.55103">
        <ele>107</ele>
        <time>2014-05-25T10:38:48Z</time>
      </trkpt>
      <trkpt lat="48.75351" lon="2.55105">
        <ele>108</ele>
        <time>2014-05-25T10:38:49Z</time>
      </trkpt>
      <trkpt lat="48.75351" lon="2.55107">
        <ele>108</ele>
        <time>2014-05-25T10:38:50Z</time>
      </trkpt>
      <trkpt lat="48.75351" lon="2.55109">
        <ele>108</ele>
        <time>2014-05-25T10:38:51Z</time>
      </trkpt>
      <trkpt lat="48.75351" lon="2.55111">
        <ele>108</ele>
        <time>2014-05-25T10:38:52Z</time>
      </trkpt>
      <trkpt lat="48.75352" lon="2.55113">
        <ele>109</ele>
        <time>2014-05-25T10:38:53Z</time>
      </trkpt>
      <trkpt lat="48.75352" lon="2.55116">
        <ele>109</ele>
        <time>2014-05-25T10:38:54Z</time>
      </trkpt>
      <trkpt lat="48.75352" lon="2.55117">
        <ele>109</ele>
        <time>2014-05-25T10:38:55Z</time>
      </trkpt>
      <trkpt lat="48.75353" lon="2.55119">
        <ele>108</ele>
        <time>2014-05-25T10:38:56Z</time>
      </trkpt>
      <trkpt lat="48.75353" lon="2.55121">
        <ele>108</ele>
        <time>2014-05-25T10:38:57Z</time>
      </trkpt>
      <trkpt lat="48.75353" lon="2.55122">
        <ele>108</ele>
        <time>2014-05-25T10:38:58Z</time>
      </trkpt>
      <trkpt lat="48.75353" lon="2.55123">
        <ele>107</ele>
        <time>2014-05-25T10:38:59Z</time>
      </trkpt>
      <trkpt lat="48.75354" lon="2.55124">
        <ele>107</ele>
        <time>2014-05-25T10:39:00Z</time>
      </trkpt>
      <trkpt lat="48.75354" lon="2.55125">
        <ele>106</ele>
        <time>2014-05-25T10:39:01Z</time>
      </trkpt>
      <trkpt lat="48.75354" lon="2.55125">
        <ele>106</ele>
        <time>2014-05-25T10:39:02Z</time>
      </trkpt>
      <trkpt lat="48.75354" lon="2.55126">
        <ele>104</ele>
        <time>2014-05-25T10:39:03Z</time>
      </trkpt>
      <trkpt lat="48.75354" lon="2.55128">
        <ele>104</ele>
        <time>2014-05-25T10:39:04Z</time>
      </trkpt>
      <trkpt lat="48.75354" lon="2.55129">
        <ele>102</ele>
        <time>2014-05-25T10:39:05Z</time>
      </trkpt>
      <trkpt lat="48.75354" lon="2.55132">
        <ele>101</ele>
        <time>2014-05-25T10:39:06Z</time>
      </trkpt>
      <trkpt lat="48.75354" lon="2.55135">
        <ele>101</ele>
        <time>2014-05-25T10:39:07Z</time>
      </trkpt>
      <trkpt lat="48.75354" lon="2.55137">
        <ele>99</ele>
        <time>2014-05-25T10:39:08Z</time>
      </trkpt>
      <trkpt lat="48.75355" lon="2.5514">
        <ele>99</ele>
        <time>2014-05-25T10:39:09Z</time>
      </trkpt>
      <trkpt lat="48.75355" lon="2.55143">
        <ele>98</ele>
        <time>2014-05-25T10:39:10Z</time>
      </trkpt>
      <trkpt lat="48.75355" lon="2.55146">
        <ele>98</ele>
        <time>2014-05-25T10:39:11Z</time>
      </trkpt>
      <trkpt lat="48.75356" lon="2.55149">
        <ele>98</ele>
        <time>2014-05-25T10:39:12Z</time>
      </trkpt>
      <trkpt lat="48.75356" lon="2.55151">
        <ele>98</ele>
        <time>2014-05-25T10:39:13Z</time>
      </trkpt>
      <trkpt lat="48.75356" lon="2.55155">
        <ele>99</ele>
        <time>2014-05-25T10:39:14Z</time>
      </trkpt>
      <trkpt lat="48.75356" lon="2.55158">
        <ele>99</ele>
        <time>2014-05-25T10:39:15Z</time>
      </trkpt>
      <trkpt lat="48.75356" lon="2.5516">
        <ele>100</ele>
        <time>2014-05-25T10:39:16Z</time>
      </trkpt>
      <trkpt lat="48.75356" lon="2.55162">
        <ele>100</ele>
        <time>2014-05-25T10:39:17Z</time>
      </trkpt>
      <trkpt lat="48.75355" lon="2.55163">
        <ele>100</ele>
        <time>2014-05-25T10:39:18Z</time>
      </trkpt>
      <trkpt lat="48.75355" lon="2.55165">
        <ele>101</ele>
        <time>2014-05-25T10:39:19Z</time>
      </trkpt>
      <trkpt lat="48.75355" lon="2.55166">
        <ele>101</ele>
        <time>2014-05-25T10:39:20Z</time>
      </trkpt>
      <trkpt lat="48.75355" lon="2.55168">
        <ele>103</ele>
        <time>2014-05-25T10:39:21Z</time>
      </trkpt>
      <trkpt lat="48.75355" lon="2.5517">
        <ele>104</ele>
        <time>2014-05-25T10:39:22Z</time>
      </trkpt>
      <trkpt lat="48.75355" lon="2.55172">
        <ele>103</ele>
        <time>2014-05-25T10:39:23Z</time>
      </trkpt>
      <trkpt lat="48.75355" lon="2.55175">
        <ele>102</ele>
        <time>2014-05-25T10:39:24Z</time>
      </trkpt>
      <trkpt lat="48.75355" lon="2.55179">
        <ele>103</ele>
        <time>2014-05-25T10:39:25Z</time>
      </trkpt>
      <trkpt lat="48.75355" lon="2.55182">
        <ele>102</ele>
        <time>2014-05-25T10:39:26Z</time>
      </trkpt>
      <trkpt lat="48.75355" lon="2.55184">
        <ele>101</ele>
        <time>2014-05-25T10:39:27Z</time>
      </trkpt>
      <trkpt lat="48.75355" lon="2.55185">
        <ele>100</ele>
        <time>2014-05-25T10:39:28Z</time>
      </trkpt>
      <trkpt lat="48.75355" lon="2.55188">
        <ele>100</ele>
        <time>2014-05-25T10:39:29Z</time>
      </trkpt>
      <trkpt lat="48.75354" lon="2.5519">
        <ele>98</ele>
        <time>2014-05-25T10:39:30Z</time>
      </trkpt>
      <trkpt lat="48.75354" lon="2.55192">
        <ele>99</ele>
        <time>2014-05-25T10:39:31Z</time>
      </trkpt>
      <trkpt lat="48.75354" lon="2.55195">
        <ele>98</ele>
        <time>2014-05-25T10:39:32Z</time>
      </trkpt>
      <trkpt lat="48.75354" lon="2.55197">
        <ele>98</ele>
        <time>2014-05-25T10:39:33Z</time>
      </trkpt>
      <trkpt lat="48.75354" lon="2.552">
        <ele>97</ele>
        <time>2014-05-25T10:39:34Z</time>
      </trkpt>
      <trkpt lat="48.75354" lon="2.55202">
        <ele>97</ele>
        <time>2014-05-25T10:39:35Z</time>
      </trkpt>
      <trkpt lat="48.75354" lon="2.55204">
        <ele>98</ele>
        <time>2014-05-25T10:39:36Z</time>
      </trkpt>
      <trkpt lat="48.75354" lon="2.55205">
        <ele>98</ele>
        <time>2014-05-25T10:39:37Z</time>
      </trkpt>
      <trkpt lat="48.75354" lon="2.55207">
        <ele>97</ele>
        <time>2014-05-25T10:39:38Z</time>
      </trkpt>
      <trkpt lat="48.75354" lon="2.55209">
        <ele>97</ele>
        <time>2014-05-25T10:39:39Z</time>
      </trkpt>
      <trkpt lat="48.75354" lon="2.5521">
        <ele>97</ele>
        <time>2014-05-25T10:39:40Z</time>
      </trkpt>
      <trkpt lat="48.75354" lon="2.55211">
        <ele>91</ele>
        <time>2014-05-25T10:39:41Z</time>
      </trkpt>
      <trkpt lat="48.75354" lon="2.55213">
        <ele>91</ele>
        <time>2014-05-25T10:39:42Z</time>
      </trkpt>
      <trkpt lat="48.75353" lon="2.55214">
        <ele>90</ele>
        <time>2014-05-25T10:39:43Z</time>
      </trkpt>
      <trkpt lat="48.75353" lon="2.55216">
        <ele>91</ele>
        <time>2014-05-25T10:39:44Z</time>
      </trkpt>
      <trkpt lat="48.75353" lon="2.55219">
        <ele>93</ele>
        <time>2014-05-25T10:39:45Z</time>
      </trkpt>
      <trkpt lat="48.75352" lon="2.55222">
        <ele>94</ele>
        <time>2014-05-25T10:39:46Z</time>
      </trkpt>
      <trkpt lat="48.75353" lon="2.55225">
        <ele>93</ele>
        <time>2014-05-25T10:39:47Z</time>
      </trkpt>
      <trkpt lat="48.75354" lon="2.55228">
        <ele>94</ele>
        <time>2014-05-25T10:39:48Z</time>
      </trkpt>
      <trkpt lat="48.75354" lon="2.55231">
        <ele>94</ele>
        <time>2014-05-25T10:39:49Z</time>
      </trkpt>
      <trkpt lat="48.75355" lon="2.55234">
        <ele>95</ele>
        <time>2014-05-25T10:39:50Z</time>
      </trkpt>
      <trkpt lat="48.75355" lon="2.55237">
        <ele>95</ele>
        <time>2014-05-25T10:39:51Z</time>
      </trkpt>
      <trkpt lat="48.75356" lon="2.5524">
        <ele>95</ele>
        <time>2014-05-25T10:39:52Z</time>
      </trkpt>
      <trkpt lat="48.75356" lon="2.55243">
        <ele>95</ele>
        <time>2014-05-25T10:39:53Z</time>
      </trkpt>
      <trkpt lat="48.75356" lon="2.55247">
        <ele>94</ele>
        <time>2014-05-25T10:39:54Z</time>
      </trkpt>
      <trkpt lat="48.75356" lon="2.5525">
        <ele>94</ele>
        <time>2014-05-25T10:39:55Z</time>
      </trkpt>
      <trkpt lat="48.75356" lon="2.55253">
        <ele>94</ele>
        <time>2014-05-25T10:39:56Z</time>
      </trkpt>
      <trkpt lat="48.75357" lon="2.55255">
        <ele>95</ele>
        <time>2014-05-25T10:39:57Z</time>
      </trkpt>
      <trkpt lat="48.75357" lon="2.55257">
        <ele>95</ele>
        <time>2014-05-25T10:39:58Z</time>
      </trkpt>
      <trkpt lat="48.75357" lon="2.5526">
        <ele>96</ele>
        <time>2014-05-25T10:39:59Z</time>
      </trkpt>
      <trkpt lat="48.75357" lon="2.55262">
        <ele>98</ele>
        <time>2014-05-25T10:40:00Z</time>
      </trkpt>
      <trkpt lat="48.75357" lon="2.55266">
        <ele>99</ele>
        <time>2014-05-25T10:40:01Z</time>
      </trkpt>
      <trkpt lat="48.75357" lon="2.55269">
        <ele>101</ele>
        <time>2014-05-25T10:40:02Z</time>
      </trkpt>
      <trkpt lat="48.75357" lon="2.55272">
        <ele>102</ele>
        <time>2014-05-25T10:40:03Z</time>
      </trkpt>
      <trkpt lat="48.75358" lon="2.55275">
        <ele>104</ele>
        <time>2014-05-25T10:40:04Z</time>
      </trkpt>
      <trkpt lat="48.75358" lon="2.55278">
        <ele>104</ele>
        <time>2014-05-25T10:40:05Z</time>
      </trkpt>
      <trkpt lat="48.75358" lon="2.55281">
        <ele>105</ele>
        <time>2014-05-25T10:40:06Z</time>
      </trkpt>
      <trkpt lat="48.75358" lon="2.55285">
        <ele>105</ele>
        <time>2014-05-25T10:40:07Z</time>
      </trkpt>
      <trkpt lat="48.75358" lon="2.55288">
        <ele>106</ele>
        <time>2014-05-25T10:40:08Z</time>
      </trkpt>
      <trkpt lat="48.75358" lon="2.55291">
        <ele>106</ele>
        <time>2014-05-25T10:40:09Z</time>
      </trkpt>
      <trkpt lat="48.75358" lon="2.55294">
        <ele>107</ele>
        <time>2014-05-25T10:40:10Z</time>
      </trkpt>
      <trkpt lat="48.75358" lon="2.55296">
        <ele>107</ele>
        <time>2014-05-25T10:40:11Z</time>
      </trkpt>
      <trkpt lat="48.75358" lon="2.55299">
        <ele>109</ele>
        <time>2014-05-25T10:40:12Z</time>
      </trkpt>
      <trkpt lat="48.75359" lon="2.55302">
        <ele>108</ele>
        <time>2014-05-25T10:40:13Z</time>
      </trkpt>
      <trkpt lat="48.75359" lon="2.55304">
        <ele>108</ele>
        <time>2014-05-25T10:40:14Z</time>
      </trkpt>
      <trkpt lat="48.75359" lon="2.55306">
        <ele>108</ele>
        <time>2014-05-25T10:40:15Z</time>
      </trkpt>
      <trkpt lat="48.7536" lon="2.55309">
        <ele>106</ele>
        <time>2014-05-25T10:40:16Z</time>
      </trkpt>
      <trkpt lat="48.7536" lon="2.55311">
        <ele>105</ele>
        <time>2014-05-25T10:40:17Z</time>
      </trkpt>
      <trkpt lat="48.7536" lon="2.55314">
        <ele>104</ele>
        <time>2014-05-25T10:40:18Z</time>
      </trkpt>
      <trkpt lat="48.75359" lon="2.55317">
        <ele>104</ele>
        <time>2014-05-25T10:40:19Z</time>
      </trkpt>
      <trkpt lat="48.75359" lon="2.55319">
        <ele>104</ele>
        <time>2014-05-25T10:40:20Z</time>
      </trkpt>
      <trkpt lat="48.75359" lon="2.55322">
        <ele>104</ele>
        <time>2014-05-25T10:40:21Z</time>
      </trkpt>
      <trkpt lat="48.75359" lon="2.55324">
        <ele>104</ele>
        <time>2014-05-25T10:40:22Z</time>
      </trkpt>
      <trkpt lat="48.75359" lon="2.55327">
        <ele>104</ele>
        <time>2014-05-25T10:40:23Z</time>
      </trkpt>
      <trkpt lat="48.75359" lon="2.55329">
        <ele>105</ele>
        <time>2014-05-25T10:40:24Z</time>
      </trkpt>
      <trkpt lat="48.75358" lon="2.55331">
        <ele>104</ele>
        <time>2014-05-25T10:40:25Z</time>
      </trkpt>
      <trkpt lat="48.75358" lon="2.55333">
        <ele>105</ele>
        <time>2014-05-25T10:40:26Z</time>
      </trkpt>
      <trkpt lat="48.75358" lon="2.55335">
        <ele>106</ele>
        <time>2014-05-25T10:40:27Z</time>
      </trkpt>
      <trkpt lat="48.75359" lon="2.55337">
        <ele>107</ele>
        <time>2014-05-25T10:40:28Z</time>
      </trkpt>
      <trkpt lat="48.75359" lon="2.55339">
        <ele>108</ele>
        <time>2014-05-25T10:40:29Z</time>
      </trkpt>
      <trkpt lat="48.7536" lon="2.55341">
        <ele>109</ele>
        <time>2014-05-25T10:40:30Z</time>
      </trkpt>
      <trkpt lat="48.7536" lon="2.55343">
        <ele>108</ele>
        <time>2014-05-25T10:40:31Z</time>
      </trkpt>
      <trkpt lat="48.7536" lon="2.55344">
        <ele>109</ele>
        <time>2014-05-25T10:40:32Z</time>
      </trkpt>
      <trkpt lat="48.75361" lon="2.55346">
        <ele>109</ele>
        <time>2014-05-25T10:40:33Z</time>
      </trkpt>
      <trkpt lat="48.75361" lon="2.55349">
        <ele>109</ele>
        <time>2014-05-25T10:40:34Z</time>
      </trkpt>
      <trkpt lat="48.75361" lon="2.55351">
        <ele>108</ele>
        <time>2014-05-25T10:40:35Z</time>
      </trkpt>
      <trkpt lat="48.75361" lon="2.55353">
        <ele>108</ele>
        <time>2014-05-25T10:40:36Z</time>
      </trkpt>
      <trkpt lat="48.75361" lon="2.55355">
        <ele>108</ele>
        <time>2014-05-25T10:40:37Z</time>
      </trkpt>
      <trkpt lat="48.75362" lon="2.55357">
        <ele>109</ele>
        <time>2014-05-25T10:40:38Z</time>
      </trkpt>
      <trkpt lat="48.75362" lon="2.5536">
        <ele>108</ele>
        <time>2014-05-25T10:40:39Z</time>
      </trkpt>
      <trkpt lat="48.75362" lon="2.55362">
        <ele>108</ele>
        <time>2014-05-25T10:40:40Z</time>
      </trkpt>
      <trkpt lat="48.75362" lon="2.55364">
        <ele>107</ele>
        <time>2014-05-25T10:40:41Z</time>
      </trkpt>
      <trkpt lat="48.75362" lon="2.55366">
        <ele>108</ele>
        <time>2014-05-25T10:40:42Z</time>
      </trkpt>
      <trkpt lat="48.75362" lon="2.55369">
        <ele>109</ele>
        <time>2014-05-25T10:40:43Z</time>
      </trkpt>
      <trkpt lat="48.75362" lon="2.55371">
        <ele>109</ele>
        <time>2014-05-25T10:40:44Z</time>
      </trkpt>
      <trkpt lat="48.75362" lon="2.55373">
        <ele>108</ele>
        <time>2014-05-25T10:40:45Z</time>
      </trkpt>
      <trkpt lat="48.75362" lon="2.55376">
        <ele>107</ele>
        <time>2014-05-25T10:40:46Z</time>
      </trkpt>
      <trkpt lat="48.75362" lon="2.55378">
        <ele>107</ele>
        <time>2014-05-25T10:40:47Z</time>
      </trkpt>
      <trkpt lat="48.75362" lon="2.5538">
        <ele>107</ele>
        <time>2014-05-25T10:40:48Z</time>
      </trkpt>
      <trkpt lat="48.75361" lon="2.55382">
        <ele>107</ele>
        <time>2014-05-25T10:40:49Z</time>
      </trkpt>
      <trkpt lat="48.75361" lon="2.55385">
        <ele>106</ele>
        <time>2014-05-25T10:40:50Z</time>
      </trkpt>
      <trkpt lat="48.75361" lon="2.55387">
        <ele>107</ele>
        <time>2014-05-25T10:40:51Z</time>
      </trkpt>
      <trkpt lat="48.75362" lon="2.55389">
        <ele>108</ele>
        <time>2014-05-25T10:40:52Z</time>
      </trkpt>
      <trkpt lat="48.75362" lon="2.55391">
        <ele>108</ele>
        <time>2014-05-25T10:40:53Z</time>
      </trkpt>
      <trkpt lat="48.75362" lon="2.55393">
        <ele>109</ele>
        <time>2014-05-25T10:40:54Z</time>
      </trkpt>
      <trkpt lat="48.75362" lon="2.55395">
        <ele>110</ele>
        <time>2014-05-25T10:40:55Z</time>
      </trkpt>
      <trkpt lat="48.75362" lon="2.55396">
        <ele>110</ele>
        <time>2014-05-25T10:40:56Z</time>
      </trkpt>
      <trkpt lat="48.75362" lon="2.55398">
        <ele>110</ele>
        <time>2014-05-25T10:40:57Z</time>
      </trkpt>
      <trkpt lat="48.75361" lon="2.554">
        <ele>109</ele>
        <time>2014-05-25T10:40:58Z</time>
      </trkpt>
      <trkpt lat="48.75361" lon="2.55402">
        <ele>109</ele>
        <time>2014-05-25T10:40:59Z</time>
      </trkpt>
      <trkpt lat="48.75361" lon="2.55403">
        <ele>109</ele>
        <time>2014-05-25T10:41:00Z</time>
      </trkpt>
      <trkpt lat="48.75362" lon="2.55405">
        <ele>110</ele>
        <time>2014-05-25T10:41:01Z</time>
      </trkpt>
      <trkpt lat="48.75362" lon="2.55407">
        <ele>111</ele>
        <time>2014-05-25T10:41:02Z</time>
      </trkpt>
      <trkpt lat="48.75362" lon="2.55409">
        <ele>112</ele>
        <time>2014-05-25T10:41:03Z</time>
      </trkpt>
      <trkpt lat="48.75362" lon="2.55412">
        <ele>111</ele>
        <time>2014-05-25T10:41:04Z</time>
      </trkpt>
      <trkpt lat="48.75363" lon="2.55414">
        <ele>111</ele>
        <time>2014-05-25T10:41:05Z</time>
      </trkpt>
      <trkpt lat="48.75363" lon="2.55416">
        <ele>111</ele>
        <time>2014-05-25T10:41:06Z</time>
      </trkpt>
      <trkpt lat="48.75363" lon="2.55418">
        <ele>111</ele>
        <time>2014-05-25T10:41:07Z</time>
      </trkpt>
      <trkpt lat="48.75363" lon="2.5542">
        <ele>110</ele>
        <time>2014-05-25T10:41:08Z</time>
      </trkpt>
      <trkpt lat="48.75363" lon="2.55422">
        <ele>110</ele>
        <time>2014-05-25T10:41:09Z</time>
      </trkpt>
      <trkpt lat="48.75363" lon="2.55424">
        <ele>110</ele>
        <time>2014-05-25T10:41:10Z</time>
      </trkpt>
      <trkpt lat="48.75363" lon="2.55426">
        <ele>110</ele>
        <time>2014-05-25T10:41:11Z</time>
      </trkpt>
      <trkpt lat="48.75363" lon="2.55428">
        <ele>110</ele>
        <time>2014-05-25T10:41:12Z</time>
      </trkpt>
      <trkpt lat="48.75364" lon="2.55431">
        <ele>111</ele>
        <time>2014-05-25T10:41:13Z</time>
      </trkpt>
      <trkpt lat="48.75364" lon="2.55433">
        <ele>109</ele>
        <time>2014-05-25T10:41:14Z</time>
      </trkpt>
      <trkpt lat="48.75365" lon="2.55435">
        <ele>109</ele>
        <time>2014-05-25T10:41:15Z</time>
      </trkpt>
      <trkpt lat="48.75365" lon="2.55438">
        <ele>110</ele>
        <time>2014-05-25T10:41:16Z</time>
      </trkpt>
      <trkpt lat="48.75365" lon="2.55441">
        <ele>110</ele>
        <time>2014-05-25T10:41:17Z</time>
      </trkpt>
      <trkpt lat="48.75365" lon="2.55443">
        <ele>110</ele>
        <time>2014-05-25T10:41:18Z</time>
      </trkpt>
      <trkpt lat="48.75365" lon="2.55446">
        <ele>110</ele>
        <time>2014-05-25T10:41:19Z</time>
      </trkpt>
      <trkpt lat="48.75366" lon="2.55448">
        <ele>109</ele>
        <time>2014-05-25T10:41:20Z</time>
      </trkpt>
      <trkpt lat="48.75366" lon="2.5545">
        <ele>109</ele>
        <time>2014-05-25T10:41:21Z</time>
      </trkpt>
      <trkpt lat="48.75366" lon="2.55452">
        <ele>108</ele>
        <time>2014-05-25T10:41:22Z</time>
      </trkpt>
      <trkpt lat="48.75365" lon="2.55454">
        <ele>108</ele>
        <time>2014-05-25T10:41:23Z</time>
      </trkpt>
      <trkpt lat="48.75365" lon="2.55457">
        <ele>109</ele>
        <time>2014-05-25T10:41:24Z</time>
      </trkpt>
      <trkpt lat="48.75366" lon="2.55459">
        <ele>109</ele>
        <time>2014-05-25T10:41:25Z</time>
      </trkpt>
      <trkpt lat="48.75366" lon="2.55461">
        <ele>109</ele>
        <time>2014-05-25T10:41:26Z</time>
      </trkpt>
      <trkpt lat="48.75366" lon="2.55463">
        <ele>109</ele>
        <time>2014-05-25T10:41:27Z</time>
      </trkpt>
      <trkpt lat="48.75366" lon="2.55465">
        <ele>108</ele>
        <time>2014-05-25T10:41:28Z</time>
      </trkpt>
      <trkpt lat="48.75365" lon="2.55467">
        <ele>108</ele>
        <time>2014-05-25T10:41:29Z</time>
      </trkpt>
      <trkpt lat="48.75365" lon="2.5547">
        <ele>109</ele>
        <time>2014-05-25T10:41:30Z</time>
      </trkpt>
      <trkpt lat="48.75366" lon="2.55472">
        <ele>109</ele>
        <time>2014-05-25T10:41:31Z</time>
      </trkpt>
      <trkpt lat="48.75366" lon="2.55474">
        <ele>109</ele>
        <time>2014-05-25T10:41:32Z</time>
      </trkpt>
      <trkpt lat="48.75366" lon="2.55476">
        <ele>109</ele>
        <time>2014-05-25T10:41:33Z</time>
      </trkpt>
      <trkpt lat="48.75365" lon="2.55478">
        <ele>108</ele>
        <time>2014-05-25T10:41:34Z</time>
      </trkpt>
      <trkpt lat="48.75365" lon="2.5548">
        <ele>108</ele>
        <time>2014-05-25T10:41:35Z</time>
      </trkpt>
      <trkpt lat="48.75365" lon="2.55483">
        <ele>108</ele>
        <time>2014-05-25T10:41:36Z</time>
      </trkpt>
      <trkpt lat="48.75365" lon="2.55485">
        <ele>109</ele>
        <time>2014-05-25T10:41:37Z</time>
      </trkpt>
      <trkpt lat="48.75365" lon="2.55487">
        <ele>109</ele>
        <time>2014-05-25T10:41:38Z</time>
      </trkpt>
      <trkpt lat="48.75364" lon="2.55489">
        <ele>109</ele>
        <time>2014-05-25T10:41:39Z</time>
      </trkpt>
      <trkpt lat="48.75364" lon="2.55491">
        <ele>109</ele>
        <time>2014-05-25T10:41:40Z</time>
      </trkpt>
      <trkpt lat="48.75364" lon="2.55493">
        <ele>109</ele>
        <time>2014-05-25T10:41:41Z</time>
      </trkpt>
      <trkpt lat="48.75365" lon="2.55495">
        <ele>109</ele>
        <time>2014-05-25T10:41:42Z</time>
      </trkpt>
      <trkpt lat="48.75365" lon="2.55497">
        <ele>109</ele>
        <time>2014-05-25T10:41:43Z</time>
      </trkpt>
      <trkpt lat="48.75365" lon="2.55499">
        <ele>109</ele>
        <time>2014-05-25T10:41:44Z</time>
      </trkpt>
      <trkpt lat="48.75365" lon="2.55501">
        <ele>109</ele>
        <time>2014-05-25T10:41:45Z</time>
      </trkpt>
      <trkpt lat="48.75365" lon="2.55503">
        <ele>109</ele>
        <time>2014-05-25T10:41:46Z</time>
      </trkpt>
      <trkpt lat="48.75364" lon="2.55505">
        <ele>109</ele>
        <time>2014-05-25T10:41:47Z</time>
      </trkpt>
      <trkpt lat="48.75364" lon="2.55508">
        <ele>109</ele>
        <time>2014-05-25T10:41:48Z</time>
      </trkpt>
      <trkpt lat="48.75364" lon="2.5551">
        <ele>108</ele>
        <time>2014-05-25T10:41:49Z</time>
      </trkpt>
      <trkpt lat="48.75365" lon="2.55513">
        <ele>109</ele>
        <time>2014-05-25T10:41:50Z</time>
      </trkpt>
      <trkpt lat="48.75365" lon="2.55515">
        <ele>110</ele>
        <time>2014-05-25T10:41:51Z</time>
      </trkpt>
      <trkpt lat="48.75365" lon="2.55518">
        <ele>110</ele>
        <time>2014-05-25T10:41:52Z</time>
      </trkpt>
      <trkpt lat="48.75365" lon="2.5552">
        <ele>110</ele>
        <time>2014-05-25T10:41:53Z</time>
      </trkpt>
      <trkpt lat="48.75365" lon="2.55522">
        <ele>110</ele>
        <time>2014-05-25T10:41:54Z</time>
      </trkpt>
      <trkpt lat="48.75365" lon="2.55524">
        <ele>111</ele>
        <time>2014-05-25T10:41:55Z</time>
      </trkpt>
      <trkpt lat="48.75366" lon="2.55526">
        <ele>112</ele>
        <time>2014-05-25T10:41:56Z</time>
      </trkpt>
      <trkpt lat="48.75366" lon="2.55528">
        <ele>111</ele>
        <time>2014-05-25T10:41:57Z</time>
      </trkpt>
      <trkpt lat="48.75366" lon="2.5553">
        <ele>111</ele>
        <time>2014-05-25T10:41:58Z</time>
      </trkpt>
      <trkpt lat="48.75366" lon="2.55532">
        <ele>111</ele>
        <time>2014-05-25T10:41:59Z</time>
      </trkpt>
      <trkpt lat="48.75367" lon="2.55534">
        <ele>112</ele>
        <time>2014-05-25T10:42:00Z</time>
      </trkpt>
      <trkpt lat="48.75367" lon="2.55535">
        <ele>111</ele>
        <time>2014-05-25T10:42:01Z</time>
      </trkpt>
      <trkpt lat="48.75367" lon="2.55537">
        <ele>112</ele>
        <time>2014-05-25T10:42:02Z</time>
      </trkpt>
      <trkpt lat="48.75366" lon="2.55539">
        <ele>110</ele>
        <time>2014-05-25T10:42:03Z</time>
      </trkpt>
      <trkpt lat="48.75366" lon="2.55541">
        <ele>111</ele>
        <time>2014-05-25T10:42:04Z</time>
      </trkpt>
      <trkpt lat="48.75366" lon="2.55543">
        <ele>108</ele>
        <time>2014-05-25T10:42:05Z</time>
      </trkpt>
      <trkpt lat="48.75366" lon="2.55546">
        <ele>108</ele>
        <time>2014-05-25T10:42:06Z</time>
      </trkpt>
      <trkpt lat="48.75367" lon="2.55548">
        <ele>108</ele>
        <time>2014-05-25T10:42:07Z</time>
      </trkpt>
      <trkpt lat="48.75367" lon="2.55551">
        <ele>109</ele>
        <time>2014-05-25T10:42:08Z</time>
      </trkpt>
      <trkpt lat="48.75367" lon="2.55553">
        <ele>109</ele>
        <time>2014-05-25T10:42:09Z</time>
      </trkpt>
      <trkpt lat="48.75367" lon="2.55555">
        <ele>109</ele>
        <time>2014-05-25T10:42:10Z</time>
      </trkpt>
      <trkpt lat="48.75367" lon="2.55558">
        <ele>109</ele>
        <time>2014-05-25T10:42:11Z</time>
      </trkpt>
      <trkpt lat="48.75367" lon="2.5556">
        <ele>109</ele>
        <time>2014-05-25T10:42:12Z</time>
      </trkpt>
      <trkpt lat="48.75367" lon="2.55563">
        <ele>109</ele>
        <time>2014-05-25T10:42:13Z</time>
      </trkpt>
      <trkpt lat="48.75366" lon="2.55565">
        <ele>108</ele>
        <time>2014-05-25T10:42:14Z</time>
      </trkpt>
      <trkpt lat="48.75366" lon="2.55567">
        <ele>109</ele>
        <time>2014-05-25T10:42:15Z</time>
      </trkpt>
      <trkpt lat="48.75366" lon="2.55569">
        <ele>108</ele>
        <time>2014-05-25T10:42:16Z</time>
      </trkpt>
      <trkpt lat="48.75366" lon="2.55572">
        <ele>108</ele>
        <time>2014-05-25T10:42:17Z</time>
      </trkpt>
      <trkpt lat="48.75366" lon="2.55574">
        <ele>108</ele>
        <time>2014-05-25T10:42:18Z</time>
      </trkpt>
      <trkpt lat="48.75366" lon="2.55576">
        <ele>107</ele>
        <time>2014-05-25T10:42:19Z</time>
      </trkpt>
      <trkpt lat="48.75365" lon="2.55579">
        <ele>107</ele>
        <time>2014-05-25T10:42:20Z</time>
      </trkpt>
      <trkpt lat="48.75365" lon="2.55581">
        <ele>107</ele>
        <time>2014-05-25T10:42:21Z</time>
      </trkpt>
      <trkpt lat="48.75365" lon="2.55584">
        <ele>107</ele>
        <time>2014-05-25T10:42:22Z</time>
      </trkpt>
      <trkpt lat="48.75365" lon="2.55586">
        <ele>106</ele>
        <time>2014-05-25T10:42:23Z</time>
      </trkpt>
      <trkpt lat="48.75365" lon="2.55589">
        <ele>105</ele>
        <time>2014-05-25T10:42:24Z</time>
      </trkpt>
      <trkpt lat="48.75365" lon="2.55591">
        <ele>106</ele>
        <time>2014-05-25T10:42:25Z</time>
      </trkpt>
      <trkpt lat="48.75365" lon="2.55593">
        <ele>105</ele>
        <time>2014-05-25T10:42:26Z</time>
      </trkpt>
      <trkpt lat="48.75365" lon="2.55596">
        <ele>105</ele>
        <time>2014-05-25T10:42:27Z</time>
      </trkpt>
      <trkpt lat="48.75365" lon="2.55598">
        <ele>104</ele>
        <time>2014-05-25T10:42:28Z</time>
      </trkpt>
      <trkpt lat="48.75365" lon="2.55601">
        <ele>104</ele>
        <time>2014-05-25T10:42:29Z</time>
      </trkpt>
      <trkpt lat="48.75365" lon="2.55604">
        <ele>104</ele>
        <time>2014-05-25T10:42:30Z</time>
      </trkpt>
      <trkpt lat="48.75366" lon="2.55606">
        <ele>103</ele>
        <time>2014-05-25T10:42:31Z</time>
      </trkpt>
      <trkpt lat="48.75366" lon="2.55609">
        <ele>102</ele>
        <time>2014-05-25T10:42:32Z</time>
      </trkpt>
      <trkpt lat="48.75366" lon="2.55611">
        <ele>103</ele>
        <time>2014-05-25T10:42:33Z</time>
      </trkpt>
      <trkpt lat="48.75366" lon="2.55614">
        <ele>102</ele>
        <time>2014-05-25T10:42:34Z</time>
      </trkpt>
      <trkpt lat="48.75366" lon="2.55617">
        <ele>101</ele>
        <time>2014-05-25T10:42:35Z</time>
      </trkpt>
      <trkpt lat="48.75366" lon="2.55619">
        <ele>101</ele>
        <time>2014-05-25T10:42:36Z</time>
      </trkpt>
      <trkpt lat="48.75366" lon="2.55622">
        <ele>102</ele>
        <time>2014-05-25T10:42:37Z</time>
      </trkpt>
      <trkpt lat="48.75367" lon="2.55624">
        <ele>102</ele>
        <time>2014-05-25T10:42:38Z</time>
      </trkpt>
      <trkpt lat="48.75367" lon="2.55626">
        <ele>102</ele>
        <time>2014-05-25T10:42:39Z</time>
      </trkpt>
      <trkpt lat="48.75368" lon="2.55629">
        <ele>102</ele>
        <time>2014-05-25T10:42:40Z</time>
      </trkpt>
      <trkpt lat="48.75368" lon="2.55631">
        <ele>102</ele>
        <time>2014-05-25T10:42:41Z</time>
      </trkpt>
      <trkpt lat="48.75368" lon="2.55634">
        <ele>102</ele>
        <time>2014-05-25T10:42:42Z</time>
      </trkpt>
      <trkpt lat="48.75368" lon="2.55636">
        <ele>102</ele>
        <time>2014-05-25T10:42:43Z</time>
      </trkpt>
      <trkpt lat="48.75368" lon="2.55639">
        <ele>103</ele>
        <time>2014-05-25T10:42:44Z</time>
      </trkpt>
      <trkpt lat="48.75368" lon="2.55641">
        <ele>102</ele>
        <time>2014-05-25T10:42:45Z</time>
      </trkpt>
      <trkpt lat="48.75368" lon="2.55644">
        <ele>102</ele>
        <time>2014-05-25T10:42:46Z</time>
      </trkpt>
      <trkpt lat="48.75368" lon="2.55646">
        <ele>102</ele>
        <time>2014-05-25T10:42:47Z</time>
      </trkpt>
      <trkpt lat="48.75368" lon="2.55649">
        <ele>102</ele>
        <time>2014-05-25T10:42:48Z</time>
      </trkpt>
      <trkpt lat="48.75368" lon="2.55651">
        <ele>102</ele>
        <time>2014-05-25T10:42:49Z</time>
      </trkpt>
      <trkpt lat="48.75367" lon="2.55653">
        <ele>102</ele>
        <time>2014-05-25T10:42:50Z</time>
      </trkpt>
      <trkpt lat="48.75367" lon="2.55656">
        <ele>102</ele>
        <time>2014-05-25T10:42:51Z</time>
      </trkpt>
      <trkpt lat="48.75367" lon="2.55658">
        <ele>102</ele>
        <time>2014-05-25T10:42:52Z</time>
      </trkpt>
      <trkpt lat="48.75367" lon="2.5566">
        <ele>102</ele>
        <time>2014-05-25T10:42:53Z</time>
      </trkpt>
      <trkpt lat="48.75368" lon="2.55663">
        <ele>103</ele>
        <time>2014-05-25T10:42:54Z</time>
      </trkpt>
      <trkpt lat="48.75368" lon="2.55665">
        <ele>102</ele>
        <time>2014-05-25T10:42:55Z</time>
      </trkpt>
      <trkpt lat="48.75368" lon="2.55667">
        <ele>102</ele>
        <time>2014-05-25T10:42:56Z</time>
      </trkpt>
      <trkpt lat="48.75368" lon="2.55669">
        <ele>102</ele>
        <time>2014-05-25T10:42:57Z</time>
      </trkpt>
      <trkpt lat="48.75368" lon="2.55672">
        <ele>101</ele>
        <time>2014-05-25T10:42:58Z</time>
      </trkpt>
      <trkpt lat="48.75368" lon="2.55674">
        <ele>101</ele>
        <time>2014-05-25T10:42:59Z</time>
      </trkpt>
      <trkpt lat="48.75368" lon="2.55676">
        <ele>101</ele>
        <time>2014-05-25T10:43:00Z</time>
      </trkpt>
      <trkpt lat="48.75369" lon="2.55678">
        <ele>102</ele>
        <time>2014-05-25T10:43:01Z</time>
      </trkpt>
      <trkpt lat="48.75369" lon="2.55681">
        <ele>102</ele>
        <time>2014-05-25T10:43:02Z</time>
      </trkpt>
      <trkpt lat="48.75369" lon="2.55683">
        <ele>103</ele>
        <time>2014-05-25T10:43:03Z</time>
      </trkpt>
      <trkpt lat="48.75369" lon="2.55685">
        <ele>104</ele>
        <time>2014-05-25T10:43:04Z</time>
      </trkpt>
      <trkpt lat="48.75369" lon="2.55687">
        <ele>104</ele>
        <time>2014-05-25T10:43:05Z</time>
      </trkpt>
      <trkpt lat="48.75369" lon="2.55689">
        <ele>105</ele>
        <time>2014-05-25T10:43:06Z</time>
      </trkpt>
      <trkpt lat="48.7537" lon="2.55691">
        <ele>105</ele>
        <time>2014-05-25T10:43:07Z</time>
      </trkpt>
      <trkpt lat="48.7537" lon="2.55694">
        <ele>104</ele>
        <time>2014-05-25T10:43:08Z</time>
      </trkpt>
      <trkpt lat="48.7537" lon="2.55696">
        <ele>105</ele>
        <time>2014-05-25T10:43:09Z</time>
      </trkpt>
      <trkpt lat="48.7537" lon="2.55698">
        <ele>105</ele>
        <time>2014-05-25T10:43:10Z</time>
      </trkpt>
      <trkpt lat="48.7537" lon="2.557">
        <ele>104</ele>
        <time>2014-05-25T10:43:11Z</time>
      </trkpt>
      <trkpt lat="48.7537" lon="2.55702">
        <ele>104</ele>
        <time>2014-05-25T10:43:12Z</time>
      </trkpt>
      <trkpt lat="48.7537" lon="2.55704">
        <ele>103</ele>
        <time>2014-05-25T10:43:13Z</time>
      </trkpt>
      <trkpt lat="48.7537" lon="2.55707">
        <ele>103</ele>
        <time>2014-05-25T10:43:14Z</time>
      </trkpt>
      <trkpt lat="48.7537" lon="2.55709">
        <ele>103</ele>
        <time>2014-05-25T10:43:15Z</time>
      </trkpt>
      <trkpt lat="48.7537" lon="2.55711">
        <ele>103</ele>
        <time>2014-05-25T10:43:16Z</time>
      </trkpt>
      <trkpt lat="48.7537" lon="2.55713">
        <ele>103</ele>
        <time>2014-05-25T10:43:17Z</time>
      </trkpt>
      <trkpt lat="48.7537" lon="2.55715">
        <ele>103</ele>
        <time>2014-05-25T10:43:18Z</time>
      </trkpt>
      <trkpt lat="48.7537" lon="2.55717">
        <ele>103</ele>
        <time>2014-05-25T10:43:19Z</time>
      </trkpt>
      <trkpt lat="48.7537" lon="2.55719">
        <ele>103</ele>
        <time>2014-05-25T10:43:20Z</time>
      </trkpt>
      <trkpt lat="48.7537" lon="2.55721">
        <ele>103</ele>
        <time>2014-05-25T10:43:21Z</time>
      </trkpt>
      <trkpt lat="48.7537" lon="2.55723">
        <ele>103</ele>
        <time>2014-05-25T10:43:22Z</time>
      </trkpt>
      <trkpt lat="48.75371" lon="2.55725">
        <ele>103</ele>
        <time>2014-05-25T10:43:23Z</time>
      </trkpt>
      <trkpt lat="48.75371" lon="2.55727">
        <ele>103</ele>
        <time>2014-05-25T10:43:24Z</time>
      </trkpt>
      <trkpt lat="48.75371" lon="2.55729">
        <ele>103</ele>
        <time>2014-05-25T10:43:25Z</time>
      </trkpt>
      <trkpt lat="48.7537" lon="2.55731">
        <ele>103</ele>
        <time>2014-05-25T10:43:26Z</time>
      </trkpt>
      <trkpt lat="48.75369" lon="2.55732">
        <ele>103</ele>
        <time>2014-05-25T10:43:27Z</time>
      </trkpt>
      <trkpt lat="48.75368" lon="2.55733">
        <ele>103</ele>
        <time>2014-05-25T10:43:28Z</time>
      </trkpt>
      <trkpt lat="48.75367" lon="2.55734">
        <ele>104</ele>
        <time>2014-05-25T10:43:29Z</time>
      </trkpt>
      <trkpt lat="48.75367" lon="2.55733">
        <ele>104</ele>
        <time>2014-05-25T10:43:30Z</time>
      </trkpt>
      <trkpt lat="48.75367" lon="2.55733">
        <ele>104</ele>
        <time>2014-05-25T10:43:31Z</time>
      </trkpt>
      <trkpt lat="48.75368" lon="2.55733">
        <ele>104</ele>
        <time>2014-05-25T10:43:32Z</time>
      </trkpt>
      <trkpt lat="48.75368" lon="2.55734">
        <ele>103</ele>
        <time>2014-05-25T10:43:33Z</time>
      </trkpt>
      <trkpt lat="48.75368" lon="2.55734">
        <ele>103</ele>
        <time>2014-05-25T10:43:34Z</time>
      </trkpt>
      <trkpt lat="48.75368" lon="2.55734">
        <ele>103</ele>
        <time>2014-05-25T10:43:35Z</time>
      </trkpt>
      <trkpt lat="48.75368" lon="2.55734">
        <ele>103</ele>
        <time>2014-05-25T10:43:36Z</time>
      </trkpt>
      <trkpt lat="48.75368" lon="2.55735">
        <ele>103</ele>
        <time>2014-05-25T10:43:37Z</time>
      </trkpt>
      <trkpt lat="48.75369" lon="2.55735">
        <ele>104</ele>
        <time>2014-05-25T10:43:38Z</time>
      </trkpt>
      <trkpt lat="48.75369" lon="2.55736">
        <ele>104</ele>
        <time>2014-05-25T10:43:39Z</time>
      </trkpt>
      <trkpt lat="48.75369" lon="2.55738">
        <ele>104</ele>
        <time>2014-05-25T10:43:40Z</time>
      </trkpt>
      <trkpt lat="48.75368" lon="2.55739">
        <ele>103</ele>
        <time>2014-05-25T10:43:41Z</time>
      </trkpt>
      <trkpt lat="48.75367" lon="2.5574">
        <ele>104</ele>
        <time>2014-05-25T10:43:42Z</time>
      </trkpt>
      <trkpt lat="48.75367" lon="2.55739">
        <ele>104</ele>
        <time>2014-05-25T10:43:43Z</time>
      </trkpt>
      <trkpt lat="48.75366" lon="2.55739">
        <ele>104</ele>
        <time>2014-05-25T10:43:44Z</time>
      </trkpt>
      <trkpt lat="48.75366" lon="2.55738">
        <ele>104</ele>
        <time>2014-05-25T10:43:45Z</time>
      </trkpt>
      <trkpt lat="48.75365" lon="2.55737">
        <ele>104</ele>
        <time>2014-05-25T10:43:46Z</time>
      </trkpt>
      <trkpt lat="48.75366" lon="2.55737">
        <ele>105</ele>
        <time>2014-05-25T10:43:47Z</time>
      </trkpt>
      <trkpt lat="48.75366" lon="2.55737">
        <ele>105</ele>
        <time>2014-05-25T10:43:48Z</time>
      </trkpt>
      <trkpt lat="48.75366" lon="2.55737">
        <ele>106</ele>
        <time>2014-05-25T10:43:49Z</time>
      </trkpt>
      <trkpt lat="48.75367" lon="2.55736">
        <ele>106</ele>
        <time>2014-05-25T10:43:50Z</time>
      </trkpt>
      <trkpt lat="48.75367" lon="2.55736">
        <ele>107</ele>
        <time>2014-05-25T10:43:51Z</time>
      </trkpt>
      <trkpt lat="48.75367" lon="2.55736">
        <ele>107</ele>
        <time>2014-05-25T10:43:52Z</time>
      </trkpt>
      <trkpt lat="48.75367" lon="2.55736">
        <ele>107</ele>
        <time>2014-05-25T10:43:53Z</time>
      </trkpt>
      <trkpt lat="48.75367" lon="2.55736">
        <ele>107</ele>
        <time>2014-05-25T10:43:54Z</time>
      </trkpt>
      <trkpt lat="48.75367" lon="2.55736">
        <ele>107</ele>
        <time>2014-05-25T10:43:55Z</time>
      </trkpt>
      <trkpt lat="48.75367" lon="2.55736">
        <ele>107</ele>
        <time>2014-05-25T10:43:56Z</time>
      </trkpt>
      <trkpt lat="48.75367" lon="2.55737">
        <ele>108</ele>
        <time>2014-05-25T10:43:57Z</time>
      </trkpt>
      <trkpt lat="48.75367" lon="2.55737">
        <ele>108</ele>
        <time>2014-05-25T10:43:58Z</time>
      </trkpt>
      <trkpt lat="48.75367" lon="2.55737">
        <ele>108</ele>
        <time>2014-05-25T10:43:59Z</time>
      </trkpt>
      <trkpt lat="48.75367" lon="2.55737">
        <ele>109</ele>
        <time>2014-05-25T10:44:00Z</time>
      </trkpt>
      <trkpt lat="48.75367" lon="2.55737">
        <ele>109</ele>
        <time>2014-05-25T10:44:01Z</time>
      </trkpt>
      <trkpt lat="48.75367" lon="2.55737">
        <ele>109</ele>
        <time>2014-05-25T10:44:02Z</time>
      </trkpt>
      <trkpt lat="48.75367" lon="2.55737">
        <ele>109</ele>
        <time>2014-05-25T10:44:03Z</time>
      </trkpt>
      <trkpt lat="48.75367" lon="2.55737">
        <ele>108</ele>
        <time>2014-05-25T10:44:04Z</time>
      </trkpt>
      <trkpt lat="48.75367" lon="2.55737">
        <ele>108</ele>
        <time>2014-05-25T10:44:05Z</time>
      </trkpt>
      <trkpt lat="48.75367" lon="2.55737">
        <ele>108</ele>
        <time>2014-05-25T10:44:06Z</time>
      </trkpt>
      <trkpt lat="48.75367" lon="2.55737">
        <ele>108</ele>
        <time>2014-05-25T10:44:07Z</time>
      </trkpt>
      <trkpt lat="48.75367" lon="2.55737">
        <ele>108</ele>
        <time>2014-05-25T10:44:08Z</time>
      </trkpt>
      <trkpt lat="48.75367" lon="2.55737">
        <ele>108</ele>
        <time>2014-05-25T10:44:09Z</time>
      </trkpt>
      <trkpt lat="48.75367" lon="2.55737">
        <ele>108</ele>
        <time>2014-05-25T10:44:10Z</time>
      </trkpt>
      <trkpt lat="48.75367" lon="2.55737">
        <ele>108</ele>
        <time>2014-05-25T10:44:11Z</time>
      </trkpt>
      <trkpt lat="48.75367" lon="2.55737">
        <ele>108</ele>
        <time>2014-05-25T10:44:12Z</time>
      </trkpt>
      <trkpt lat="48.75367" lon="2.55737">
        <ele>108</ele>
        <time>2014-05-25T10:44:13Z</time>
      </trkpt>
      <trkpt lat="48.75367" lon="2.55737">
        <ele>108</ele>
        <time>2014-05-25T10:44:14Z</time>
      </trkpt>
      <trkpt lat="48.75367" lon="2.55737">
        <ele>108</ele>
        <time>2014-05-25T10:44:15Z</time>
      </trkpt>
      <trkpt lat="48.75367" lon="2.55737">
        <ele>108</ele>
        <time>2014-05-25T10:44:16Z</time>
      </trkpt>
      <trkpt lat="48.75367" lon="2.55737">
        <ele>108</ele>
        <time>2014-05-25T10:44:17Z</time>
      </trkpt>
      <trkpt lat="48.75367" lon="2.55737">
        <ele>108</ele>
        <time>2014-05-25T10:44:18Z</time>
      </trkpt>
      <trkpt lat="48.75367" lon="2.55737">
        <ele>108</ele>
        <time>2014-05-25T10:44:19Z</time>
      </trkpt>
      <trkpt lat="48.75367" lon="2.55737">
        <ele>108</ele>
        <time>2014-05-25T10:44:20Z</time>
      </trkpt>
      <trkpt lat="48.75367" lon="2.55737">
        <ele>108</ele>
        <time>2014-05-25T10:44:21Z</time>
      </trkpt>
      <trkpt lat="48.75367" lon="2.55737">
        <ele>108</ele>
        <time>2014-05-25T10:44:22Z</time>
      </trkpt>
      <trkpt lat="48.75367" lon="2.55737">
        <ele>108</ele>
        <time>2014-05-25T10:44:23Z</time>
      </trkpt>
      <trkpt lat="48.75367" lon="2.55737">
        <ele>108</ele>
        <time>2014-05-25T10:44:24Z</time>
      </trkpt>
      <trkpt lat="48.75367" lon="2.55737">
        <ele>108</ele>
        <time>2014-05-25T10:44:25Z</time>
      </trkpt>
      <trkpt lat="48.75367" lon="2.55737">
        <ele>108</ele>
        <time>2014-05-25T10:44:26Z</time>
      </trkpt>
      <trkpt lat="48.75367" lon="2.55737">
        <ele>108</ele>
        <time>2014-05-25T10:44:27Z</time>
      </trkpt>
      <trkpt lat="48.75367" lon="2.55737">
        <ele>108</ele>
        <time>2014-05-25T10:44:28Z</time>
      </trkpt>
      <trkpt lat="48.75367" lon="2.55737">
        <ele>108</ele>
        <time>2014-05-25T10:44:29Z</time>
      </trkpt>
      <trkpt lat="48.75367" lon="2.55737">
        <ele>108</ele>
        <time>2014-05-25T10:44:30Z</time>
      </trkpt>
      <trkpt lat="48.75367" lon="2.55737">
        <ele>108</ele>
        <time>2014-05-25T10:44:31Z</time>
      </trkpt>
      <trkpt lat="48.75367" lon="2.55737">
        <ele>108</ele>
        <time>2014-05-25T10:44:32Z</time>
      </trkpt>
      <trkpt lat="48.75367" lon="2.55737">
        <ele>108</ele>
        <time>2014-05-25T10:44:33Z</time>
      </trkpt>
      <trkpt lat="48.75367" lon="2.55737">
        <ele>108</ele>
        <time>2014-05-25T10:44:34Z</time>
      </trkpt>
      <trkpt lat="48.75367" lon="2.55737">
        <ele>108</ele>
        <time>2014-05-25T10:44:35Z</time>
      </trkpt>
      <trkpt lat="48.75367" lon="2.55737">
        <ele>108</ele>
        <time>2014-05-25T10:44:36Z</time>
      </trkpt>
      <trkpt lat="48.75367" lon="2.55737">
        <ele>108</ele>
        <time>2014-05-25T10:44:37Z</time>
      </trkpt>
      <trkpt lat="48.75367" lon="2.55737">
        <ele>108</ele>
        <time>2014-05-25T10:44:38Z</time>
      </trkpt>
      <trkpt lat="48.75367" lon="2.55737">
        <ele>108</ele>
        <time>2014-05-25T10:44:39Z</time>
      </trkpt>
      <trkpt lat="48.75367" lon="2.55737">
        <ele>108</ele>
        <time>2014-05-25T10:44:40Z</time>
      </trkpt>
      <trkpt lat="48.75367" lon="2.55737">
        <ele>108</ele>
        <time>2014-05-25T10:44:41Z</time>
      </trkpt>
      <trkpt lat="48.75367" lon="2.55737">
        <ele>108</ele>
        <time>2014-05-25T10:44:42Z</time>
      </trkpt>
      <trkpt lat="48.75367" lon="2.55737">
        <ele>108</ele>
        <time>2014-05-25T10:44:43Z</time>
      </trkpt>
      <trkpt lat="48.75367" lon="2.55737">
        <ele>108</ele>
        <time>2014-05-25T10:44:44Z</time>
      </trkpt>
      <trkpt lat="48.75367" lon="2.55737">
        <ele>108</ele>
        <time>2014-05-25T10:44:45Z</time>
      </trkpt>
      <trkpt lat="48.75367" lon="2.55737">
        <ele>108</ele>
        <time>2014-05-25T10:44:46Z</time>
      </trkpt>
      <trkpt lat="48.75367" lon="2.55737">
        <ele>108</ele>
        <time>2014-05-25T10:44:47Z</time>
      </trkpt>
      <trkpt lat="48.75367" lon="2.55738">
        <ele>108</ele>
        <time>2014-05-25T10:44:48Z</time>
      </trkpt>
      <trkpt lat="48.75367" lon="2.55738">
        <ele>108</ele>
        <time>2014-05-25T10:44:49Z</time>
      </trkpt>
      <trkpt lat="48.75367" lon="2.55739">
        <ele>108</ele>
        <time>2014-05-25T10:44:50Z</time>
      </trkpt>
      <trkpt lat="48.75367" lon="2.55738">
        <ele>108</ele>
        <time>2014-05-25T10:44:51Z</time>
      </trkpt>
      <trkpt lat="48.75367" lon="2.55738">
        <ele>108</ele>
        <time>2014-05-25T10:44:52Z</time>
      </trkpt>
      <trkpt lat="48.75367" lon="2.55738">
        <ele>108</ele>
        <time>2014-05-25T10:44:53Z</time>
      </trkpt>
      <trkpt lat="48.75367" lon="2.55738">
        <ele>107</ele>
        <time>2014-05-25T10:44:54Z</time>
      </trkpt>
      <trkpt lat="48.75368" lon="2.55739">
        <ele>106</ele>
        <time>2014-05-25T10:44:55Z</time>
      </trkpt>
      <trkpt lat="48.75368" lon="2.55739">
        <ele>105</ele>
        <time>2014-05-25T10:44:56Z</time>
      </trkpt>
      <trkpt lat="48.75368" lon="2.55739">
        <ele>105</ele>
        <time>2014-05-25T10:44:57Z</time>
      </trkpt>
      <trkpt lat="48.75368" lon="2.55739">
        <ele>105</ele>
        <time>2014-05-25T10:44:58Z</time>
      </trkpt>
      <trkpt lat="48.75368" lon="2.55739">
        <ele>105</ele>
        <time>2014-05-25T10:44:59Z</time>
      </trkpt>
      <trkpt lat="48.75369" lon="2.55739">
        <ele>105</ele>
        <time>2014-05-25T10:45:00Z</time>
      </trkpt>
      <trkpt lat="48.75369" lon="2.55739">
        <ele>105</ele>
        <time>2014-05-25T10:45:01Z</time>
      </trkpt>
      <trkpt lat="48.75369" lon="2.55738">
        <ele>105</ele>
        <time>2014-05-25T10:45:02Z</time>
      </trkpt>
      <trkpt lat="48.75369" lon="2.55738">
        <ele>105</ele>
        <time>2014-05-25T10:45:03Z</time>
      </trkpt>
      <trkpt lat="48.75369" lon="2.55738">
        <ele>104</ele>
        <time>2014-05-25T10:45:04Z</time>
      </trkpt>
      <trkpt lat="48.75369" lon="2.55738">
        <ele>104</ele>
        <time>2014-05-25T10:45:05Z</time>
      </trkpt>
      <trkpt lat="48.75368" lon="2.55737">
        <ele>104</ele>
        <time>2014-05-25T10:45:06Z</time>
      </trkpt>
      <trkpt lat="48.75368" lon="2.55737">
        <ele>104</ele>
        <time>2014-05-25T10:45:07Z</time>
      </trkpt>
      <trkpt lat="48.75368" lon="2.55737">
        <ele>104</ele>
        <time>2014-05-25T10:45:08Z</time>
      </trkpt>
      <trkpt lat="48.75368" lon="2.55737">
        <ele>104</ele>
        <time>2014-05-25T10:45:09Z</time>
      </trkpt>
      <trkpt lat="48.75368" lon="2.55737">
        <ele>104</ele>
        <time>2014-05-25T10:45:10Z</time>
      </trkpt>
      <trkpt lat="48.75368" lon="2.55737">
        <ele>104</ele>
        <time>2014-05-25T10:45:11Z</time>
      </trkpt>
      <trkpt lat="48.75368" lon="2.55737">
        <ele>104</ele>
        <time>2014-05-25T10:45:12Z</time>
      </trkpt>
      <trkpt lat="48.75368" lon="2.55736">
        <ele>105</ele>
        <time>2014-05-25T10:45:13Z</time>
      </trkpt>
      <trkpt lat="48.75368" lon="2.55736">
        <ele>105</ele>
        <time>2014-05-25T10:45:14Z</time>
      </trkpt>
      <trkpt lat="48.75368" lon="2.55736">
        <ele>105</ele>
        <time>2014-05-25T10:45:15Z</time>
      </trkpt>
      <trkpt lat="48.75368" lon="2.55736">
        <ele>106</ele>
        <time>2014-05-25T10:45:16Z</time>
      </trkpt>
      <trkpt lat="48.75368" lon="2.55737">
        <ele>106</ele>
        <time>2014-05-25T10:45:17Z</time>
      </trkpt>
      <trkpt lat="48.75368" lon="2.55736">
        <ele>106</ele>
        <time>2014-05-25T10:45:18Z</time>
      </trkpt>
      <trkpt lat="48.75368" lon="2.55736">
        <ele>106</ele>
        <time>2014-05-25T10:45:19Z</time>
      </trkpt>
      <trkpt lat="48.75369" lon="2.55736">
        <ele>103</ele>
        <time>2014-05-25T10:45:20Z</time>
      </trkpt>
      <trkpt lat="48.75369" lon="2.55736">
        <ele>103</ele>
        <time>2014-05-25T10:45:21Z</time>
      </trkpt>
      <trkpt lat="48.75369" lon="2.55735">
        <ele>103</ele>
        <time>2014-05-25T10:45:22Z</time>
      </trkpt>
      <trkpt lat="48.75369" lon="2.55734">
        <ele>104</ele>
        <time>2014-05-25T10:45:23Z</time>
      </trkpt>
      <trkpt lat="48.75369" lon="2.55734">
        <ele>105</ele>
        <time>2014-05-25T10:45:24Z</time>
      </trkpt>
      <trkpt lat="48.75369" lon="2.55734">
        <ele>105</ele>
        <time>2014-05-25T10:45:25Z</time>
      </trkpt>
      <trkpt lat="48.75369" lon="2.55734">
        <ele>105</ele>
        <time>2014-05-25T10:45:26Z</time>
      </trkpt>
      <trkpt lat="48.75369" lon="2.55735">
        <ele>105</ele>
        <time>2014-05-25T10:45:27Z</time>
      </trkpt>
      <trkpt lat="48.75369" lon="2.55735">
        <ele>106</ele>
        <time>2014-05-25T10:45:28Z</time>
      </trkpt>
      <trkpt lat="48.75369" lon="2.55735">
        <ele>107</ele>
        <time>2014-05-25T10:45:29Z</time>
      </trkpt>
      <trkpt lat="48.75369" lon="2.55735">
        <ele>107</ele>
        <time>2014-05-25T10:45:30Z</time>
      </trkpt>
      <trkpt lat="48.75369" lon="2.55735">
        <ele>107</ele>
        <time>2014-05-25T10:45:31Z</time>
      </trkpt>
      <trkpt lat="48.75369" lon="2.55735">
        <ele>107</ele>
        <time>2014-05-25T10:45:32Z</time>
      </trkpt>
      <trkpt lat="48.75369" lon="2.55735">
        <ele>107</ele>
        <time>2014-05-25T10:45:33Z</time>
      </trkpt>
      <trkpt lat="48.7537" lon="2.55736">
        <ele>107</ele>
        <time>2014-05-25T10:45:34Z</time>
      </trkpt>
      <trkpt lat="48.7537" lon="2.55737">
        <ele>107</ele>
        <time>2014-05-25T10:45:35Z</time>
      </trkpt>
      <trkpt lat="48.7537" lon="2.55737">
        <ele>107</ele>
        <time>2014-05-25T10:45:36Z</time>
      </trkpt>
      <trkpt lat="48.7537" lon="2.55737">
        <ele>108</ele>
        <time>2014-05-25T10:45:37Z</time>
      </trkpt>
      <trkpt lat="48.75369" lon="2.55737">
        <ele>108</ele>
        <time>2014-05-25T10:45:38Z</time>
      </trkpt>
      <trkpt lat="48.75369" lon="2.55737">
        <ele>108</ele>
        <time>2014-05-25T10:45:39Z</time>
      </trkpt>
      <trkpt lat="48.75369" lon="2.55736">
        <ele>108</ele>
        <time>2014-05-25T10:45:40Z</time>
      </trkpt>
      <trkpt lat="48.75369" lon="2.55736">
        <ele>108</ele>
        <time>2014-05-25T10:45:41Z</time>
      </trkpt>
      <trkpt lat="48.75369" lon="2.55735">
        <ele>107</ele>
        <time>2014-05-25T10:45:42Z</time>
      </trkpt>
      <trkpt lat="48.75369" lon="2.55735">
        <ele>107</ele>
        <time>2014-05-25T10:45:43Z</time>
      </trkpt>
      <trkpt lat="48.75369" lon="2.55735">
        <ele>107</ele>
        <time>2014-05-25T10:45:44Z</time>
      </trkpt>
      <trkpt lat="48.75369" lon="2.55735">
        <ele>107</ele>
        <time>2014-05-25T10:45:45Z</time>
      </trkpt>
      <trkpt lat="48.75368" lon="2.55734">
        <ele>107</ele>
        <time>2014-05-25T10:45:46Z</time>
      </trkpt>
      <trkpt lat="48.75368" lon="2.55734">
        <ele>108</ele>
        <time>2014-05-25T10:45:47Z</time>
      </trkpt>
      <trkpt lat="48.75368" lon="2.55734">
        <ele>107</ele>
        <time>2014-05-25T10:45:48Z</time>
      </trkpt>
      <trkpt lat="48.75368" lon="2.55735">
        <ele>107</ele>
        <time>2014-05-25T10:45:49Z</time>
      </trkpt>
      <trkpt lat="48.75367" lon="2.55735">
        <ele>106</ele>
        <time>2014-05-25T10:45:50Z</time>
      </trkpt>
      <trkpt lat="48.75367" lon="2.55735">
        <ele>107</ele>
        <time>2014-05-25T10:45:51Z</time>
      </trkpt>
      <trkpt lat="48.75367" lon="2.55735">
        <ele>107</ele>
        <time>2014-05-25T10:45:52Z</time>
      </trkpt>
      <trkpt lat="48.75367" lon="2.55735">
        <ele>107</ele>
        <time>2014-05-25T10:45:53Z</time>
      </trkpt>
      <trkpt lat="48.75367" lon="2.55735">
        <ele>107</ele>
        <time>2014-05-25T10:45:54Z</time>
      </trkpt>
      <trkpt lat="48.75367" lon="2.55735">
        <ele>107</ele>
        <time>2014-05-25T10:45:55Z</time>
      </trkpt>
      <trkpt lat="48.75367" lon="2.55735">
        <ele>107</ele>
        <time>2014-05-25T10:45:56Z</time>
      </trkpt>
      <trkpt lat="48.75367" lon="2.55735">
        <ele>107</ele>
        <time>2014-05-25T10:45:57Z</time>
      </trkpt>
      <trkpt lat="48.75367" lon="2.55735">
        <ele>107</ele>
        <time>2014-05-25T10:45:58Z</time>
      </trkpt>
      <trkpt lat="48.75367" lon="2.55735">
        <ele>107</ele>
        <time>2014-05-25T10:45:59Z</time>
      </trkpt>
      <trkpt lat="48.75367" lon="2.55735">
        <ele>107</ele>
        <time>2014-05-25T10:46:00Z</time>
      </trkpt>
      <trkpt lat="48.75367" lon="2.55735">
        <ele>107</ele>
        <time>2014-05-25T10:46:01Z</time>
      </trkpt>
      <trkpt lat="48.75367" lon="2.55735">
        <ele>107</ele>
        <time>2014-05-25T10:46:02Z</time>
      </trkpt>
      <trkpt lat="48.75367" lon="2.55735">
        <ele>107</ele>
        <time>2014-05-25T10:46:03Z</time>
      </trkpt>
      <trkpt lat="48.75367" lon="2.55735">
        <ele>107</ele>
        <time>2014-05-25T10:46:04Z</time>
      </trkpt>
      <trkpt lat="48.75367" lon="2.55735">
        <ele>108</ele>
        <time>2014-05-25T10:46:05Z</time>
      </trkpt>
      <trkpt lat="48.75367" lon="2.55735">
        <ele>108</ele>
        <time>2014-05-25T10:46:06Z</time>
      </trkpt>
      <trkpt lat="48.75367" lon="2.55735">
        <ele>108</ele>
        <time>2014-05-25T10:46:07Z</time>
      </trkpt>
      <trkpt lat="48.75367" lon="2.55735">
        <ele>108</ele>
        <time>2014-05-25T10:46:08Z</time>
      </trkpt>
      <trkpt lat="48.75367" lon="2.55735">
        <ele>108</ele>
        <time>2014-05-25T10:46:09Z</time>
      </trkpt>
      <trkpt lat="48.75367" lon="2.55735">
        <ele>108</ele>
        <time>2014-05-25T10:46:10Z</time>
      </trkpt>
      <trkpt lat="48.75367" lon="2.55735">
        <ele>108</ele>
        <time>2014-05-25T10:46:11Z</time>
      </trkpt>
      <trkpt lat="48.75367" lon="2.55735">
        <ele>108</ele>
        <time>2014-05-25T10:46:12Z</time>
      </trkpt>
      <trkpt lat="48.75367" lon="2.55735">
        <ele>108</ele>
        <time>2014-05-25T10:46:13Z</time>
      </trkpt>
      <trkpt lat="48.75367" lon="2.55735">
        <ele>108</ele>
        <time>2014-05-25T10:46:14Z</time>
      </trkpt>
      <trkpt lat="48.75367" lon="2.55735">
        <ele>108</ele>
        <time>2014-05-25T10:46:15Z</time>
      </trkpt>
      <trkpt lat="48.75367" lon="2.55735">
        <ele>108</ele>
        <time>2014-05-25T10:46:16Z</time>
      </trkpt>
      <trkpt lat="48.75367" lon="2.55735">
        <ele>108</ele>
        <time>2014-05-25T10:46:17Z</time>
      </trkpt>
      <trkpt lat="48.75367" lon="2.55735">
        <ele>108</ele>
        <time>2014-05-25T10:46:18Z</time>
      </trkpt>
      <trkpt lat="48.75367" lon="2.55735">
        <ele>108</ele>
        <time>2014-05-25T10:46:19Z</time>
      </trkpt>
      <trkpt lat="48.75367" lon="2.55735">
        <ele>108</ele>
        <time>2014-05-25T10:46:20Z</time>
      </trkpt>
      <trkpt lat="48.75367" lon="2.55735">
        <ele>108</ele>
        <time>2014-05-25T10:46:21Z</time>
      </trkpt>
      <trkpt lat="48.75367" lon="2.55735">
        <ele>108</ele>
        <time>2014-05-25T10:46:22Z</time>
      </trkpt>
      <trkpt lat="48.75367" lon="2.55735">
        <ele>108</ele>
        <time>2014-05-25T10:46:23Z</time>
      </trkpt>
      <trkpt lat="48.75367" lon="2.55735">
        <ele>108</ele>
        <time>2014-05-25T10:46:24Z</time>
      </trkpt>
      <trkpt lat="48.75367" lon="2.55735">
        <ele>108</ele>
        <time>2014-05-25T10:46:25Z</time>
      </trkpt>
      <trkpt lat="48.75367" lon="2.55735">
        <ele>108</ele>
        <time>2014-05-25T10:46:26Z</time>
      </trkpt>
      <trkpt lat="48.75367" lon="2.55735">
        <ele>108</ele>
        <time>2014-05-25T10:46:27Z</time>
      </trkpt>
      <trkpt lat="48.75367" lon="2.55735">
        <ele>108</ele>
        <time>2014-05-25T10:46:28Z</time>
      </trkpt>
      <trkpt lat="48.75367" lon="2.55735">
        <ele>108</ele>
        <time>2014-05-25T10:46:29Z</time>
      </trkpt>
      <trkpt lat="48.75367" lon="2.55735">
        <ele>108</ele>
        <time>2014-05-25T10:46:30Z</time>
      </trkpt>
      <trkpt lat="48.75367" lon="2.55735">
        <ele>108</ele>
        <time>2014-05-25T10:46:31Z</time>
      </trkpt>
      <trkpt lat="48.75367" lon="2.55735">
        <ele>108</ele>
        <time>2014-05-25T10:46:32Z</time>
      </trkpt>
      <trkpt lat="48.75367" lon="2.55735">
        <ele>108</ele>
        <time>2014-05-25T10:46:33Z</time>
      </trkpt>
      <trkpt lat="48.75367" lon="2.55735">
        <ele>108</ele>
        <time>2014-05-25T10:46:34Z</time>
      </trkpt>
      <trkpt lat="48.75367" lon="2.55735">
        <ele>108</ele>
        <time>2014-05-25T10:46:35Z</time>
      </trkpt>
      <trkpt lat="48.75367" lon="2.55735">
        <ele>108</ele>
        <time>2014-05-25T10:46:36Z</time>
      </trkpt>
      <trkpt lat="48.75367" lon="2.55735">
        <ele>108</ele>
        <time>2014-05-25T10:46:37Z</time>
      </trkpt>
      <trkpt lat="48.75367" lon="2.55735">
        <ele>108</ele>
        <time>2014-05-25T10:46:38Z</time>
      </trkpt>
      <trkpt lat="48.75367" lon="2.55735">
        <ele>108</ele>
        <time>2014-05-25T10:46:39Z</time>
      </trkpt>
      <trkpt lat="48.75367" lon="2.55735">
        <ele>108</ele>
        <time>2014-05-25T10:46:40Z</time>
      </trkpt>
      <trkpt lat="48.75367" lon="2.55735">
        <ele>108</ele>
        <time>2014-05-25T10:46:41Z</time>
      </trkpt>
      <trkpt lat="48.75367" lon="2.55735">
        <ele>108</ele>
        <time>2014-05-25T10:46:42Z</time>
      </trkpt>
      <trkpt lat="48.75367" lon="2.55735">
        <ele>108</ele>
        <time>2014-05-25T10:46:43Z</time>
      </trkpt>
      <trkpt lat="48.75367" lon="2.55735">
        <ele>109</ele>
        <time>2014-05-25T10:46:44Z</time>
      </trkpt>
      <trkpt lat="48.75368" lon="2.55735">
        <ele>110</ele>
        <time>2014-05-25T10:46:45Z</time>
      </trkpt>
      <trkpt lat="48.75368" lon="2.55735">
        <ele>107</ele>
        <time>2014-05-25T10:46:46Z</time>
      </trkpt>
      <trkpt lat="48.75369" lon="2.55736">
        <ele>108</ele>
        <time>2014-05-25T10:46:47Z</time>
      </trkpt>
      <trkpt lat="48.7537" lon="2.55736">
        <ele>108</ele>
        <time>2014-05-25T10:46:48Z</time>
      </trkpt>
      <trkpt lat="48.7537" lon="2.55737">
        <ele>109</ele>
        <time>2014-05-25T10:46:49Z</time>
      </trkpt>
      <trkpt lat="48.75371" lon="2.55737">
        <ele>110</ele>
        <time>2014-05-25T10:46:50Z</time>
      </trkpt>
      <trkpt lat="48.75371" lon="2.55738">
        <ele>110</ele>
        <time>2014-05-25T10:46:51Z</time>
      </trkpt>
      <trkpt lat="48.75371" lon="2.55738">
        <ele>109</ele>
        <time>2014-05-25T10:46:52Z</time>
      </trkpt>
      <trkpt lat="48.75371" lon="2.55739">
        <ele>110</ele>
        <time>2014-05-25T10:46:53Z</time>
      </trkpt>
      <trkpt lat="48.75371" lon="2.55739">
        <ele>110</ele>
        <time>2014-05-25T10:46:54Z</time>
      </trkpt>
      <trkpt lat="48.75371" lon="2.55739">
        <ele>110</ele>
        <time>2014-05-25T10:46:55Z</time>
      </trkpt>
      <trkpt lat="48.75371" lon="2.55739">
        <ele>111</ele>
        <time>2014-05-25T10:46:56Z</time>
      </trkpt>
      <trkpt lat="48.75371" lon="2.55739">
        <ele>112</ele>
        <time>2014-05-25T10:46:57Z</time>
      </trkpt>
      <trkpt lat="48.75372" lon="2.55738">
        <ele>112</ele>
        <time>2014-05-25T10:46:58Z</time>
      </trkpt>
      <trkpt lat="48.75372" lon="2.55738">
        <ele>110</ele>
        <time>2014-05-25T10:46:59Z</time>
      </trkpt>
      <trkpt lat="48.75373" lon="2.55739">
        <ele>110</ele>
        <time>2014-05-25T10:47:00Z</time>
      </trkpt>
      <trkpt lat="48.75373" lon="2.5574">
        <ele>108</ele>
        <time>2014-05-25T10:47:01Z</time>
      </trkpt>
      <trkpt lat="48.75374" lon="2.55741">
        <ele>108</ele>
        <time>2014-05-25T10:47:02Z</time>
      </trkpt>
      <trkpt lat="48.75374" lon="2.55741">
        <ele>108</ele>
        <time>2014-05-25T10:47:03Z</time>
      </trkpt>
      <trkpt lat="48.75374" lon="2.55741">
        <ele>108</ele>
        <time>2014-05-25T10:47:04Z</time>
      </trkpt>
      <trkpt lat="48.75373" lon="2.55742">
        <ele>109</ele>
        <time>2014-05-25T10:47:05Z</time>
      </trkpt>
      <trkpt lat="48.75373" lon="2.55742">
        <ele>108</ele>
        <time>2014-05-25T10:47:06Z</time>
      </trkpt>
      <trkpt lat="48.75373" lon="2.55743">
        <ele>108</ele>
        <time>2014-05-25T10:47:07Z</time>
      </trkpt>
      <trkpt lat="48.75373" lon="2.55743">
        <ele>107</ele>
        <time>2014-05-25T10:47:08Z</time>
      </trkpt>
      <trkpt lat="48.75373" lon="2.55743">
        <ele>106</ele>
        <time>2014-05-25T10:47:09Z</time>
      </trkpt>
      <trkpt lat="48.75373" lon="2.55743">
        <ele>106</ele>
        <time>2014-05-25T10:47:10Z</time>
      </trkpt>
      <trkpt lat="48.75373" lon="2.55743">
        <ele>106</ele>
        <time>2014-05-25T10:47:11Z</time>
      </trkpt>
      <trkpt lat="48.75373" lon="2.55743">
        <ele>106</ele>
        <time>2014-05-25T10:47:12Z</time>
      </trkpt>
      <trkpt lat="48.75373" lon="2.55743">
        <ele>106</ele>
        <time>2014-05-25T10:47:13Z</time>
      </trkpt>
      <trkpt lat="48.75373" lon="2.55743">
        <ele>106</ele>
        <time>2014-05-25T10:47:14Z</time>
      </trkpt>
      <trkpt lat="48.75373" lon="2.55743">
        <ele>106</ele>
        <time>2014-05-25T10:47:15Z</time>
      </trkpt>
      <trkpt lat="48.75373" lon="2.55743">
        <ele>106</ele>
        <time>2014-05-25T10:47:16Z</time>
      </trkpt>
      <trkpt lat="48.75373" lon="2.55743">
        <ele>106</ele>
        <time>2014-05-25T10:47:17Z</time>
      </trkpt>
      <trkpt lat="48.75374" lon="2.55743">
        <ele>106</ele>
        <time>2014-05-25T10:47:18Z</time>
      </trkpt>
      <trkpt lat="48.75373" lon="2.55743">
        <ele>105</ele>
        <time>2014-05-25T10:47:19Z</time>
      </trkpt>
      <trkpt lat="48.75373" lon="2.55742">
        <ele>105</ele>
        <time>2014-05-25T10:47:20Z</time>
      </trkpt>
      <trkpt lat="48.75374" lon="2.55742">
        <ele>105</ele>
        <time>2014-05-25T10:47:21Z</time>
      </trkpt>
      <trkpt lat="48.75374" lon="2.55742">
        <ele>105</ele>
        <time>2014-05-25T10:47:22Z</time>
      </trkpt>
      <trkpt lat="48.75374" lon="2.55742">
        <ele>105</ele>
        <time>2014-05-25T10:47:23Z</time>
      </trkpt>
      <trkpt lat="48.75374" lon="2.55742">
        <ele>105</ele>
        <time>2014-05-25T10:47:24Z</time>
      </trkpt>
      <trkpt lat="48.75374" lon="2.55742">
        <ele>105</ele>
        <time>2014-05-25T10:47:25Z</time>
      </trkpt>
      <trkpt lat="48.75374" lon="2.55742">
        <ele>105</ele>
        <time>2014-05-25T10:47:26Z</time>
      </trkpt>
      <trkpt lat="48.75374" lon="2.55742">
        <ele>105</ele>
        <time>2014-05-25T10:47:27Z</time>
      </trkpt>
      <trkpt lat="48.75374" lon="2.55742">
        <ele>105</ele>
        <time>2014-05-25T10:47:28Z</time>
      </trkpt>
      <trkpt lat="48.75374" lon="2.55742">
        <ele>105</ele>
        <time>2014-05-25T10:47:29Z</time>
      </trkpt>
      <trkpt lat="48.75374" lon="2.55741">
        <ele>105</ele>
        <time>2014-05-25T10:47:30Z</time>
      </trkpt>
      <trkpt lat="48.75374" lon="2.55741">
        <ele>105</ele>
        <time>2014-05-25T10:47:31Z</time>
      </trkpt>
      <trkpt lat="48.75374" lon="2.55741">
        <ele>105</ele>
        <time>2014-05-25T10:47:32Z</time>
      </trkpt>
      <trkpt lat="48.75374" lon="2.55741">
        <ele>105</ele>
        <time>2014-05-25T10:47:33Z</time>
      </trkpt>
      <trkpt lat="48.75374" lon="2.55741">
        <ele>105</ele>
        <time>2014-05-25T10:47:34Z</time>
      </trkpt>
      <trkpt lat="48.75374" lon="2.55741">
        <ele>105</ele>
        <time>2014-05-25T10:47:35Z</time>
      </trkpt>
      <trkpt lat="48.75374" lon="2.55741">
        <ele>105</ele>
        <time>2014-05-25T10:47:36Z</time>
      </trkpt>
      <trkpt lat="48.75374" lon="2.55741">
        <ele>105</ele>
        <time>2014-05-25T10:47:37Z</time>
      </trkpt>
      <trkpt lat="48.75374" lon="2.55741">
        <ele>105</ele>
        <time>2014-05-25T10:47:38Z</time>
      </trkpt>
      <trkpt lat="48.75374" lon="2.55741">
        <ele>105</ele>
        <time>2014-05-25T10:47:39Z</time>
      </trkpt>
      <trkpt lat="48.75374" lon="2.55741">
        <ele>105</ele>
        <time>2014-05-25T10:47:40Z</time>
      </trkpt>
      <trkpt lat="48.75374" lon="2.55741">
        <ele>105</ele>
        <time>2014-05-25T10:47:41Z</time>
      </trkpt>
      <trkpt lat="48.75374" lon="2.5574">
        <ele>105</ele>
        <time>2014-05-25T10:47:42Z</time>
      </trkpt>
      <trkpt lat="48.75374" lon="2.5574">
        <ele>105</ele>
        <time>2014-05-25T10:47:43Z</time>
      </trkpt>
      <trkpt lat="48.75374" lon="2.5574">
        <ele>105</ele>
        <time>2014-05-25T10:47:44Z</time>
      </trkpt>
      <trkpt lat="48.75374" lon="2.5574">
        <ele>105</ele>
        <time>2014-05-25T10:47:45Z</time>
      </trkpt>
      <trkpt lat="48.75374" lon="2.5574">
        <ele>105</ele>
        <time>2014-05-25T10:47:46Z</time>
      </trkpt>
      <trkpt lat="48.75374" lon="2.5574">
        <ele>105</ele>
        <time>2014-05-25T10:47:47Z</time>
      </trkpt>
      <trkpt lat="48.75374" lon="2.55741">
        <ele>105</ele>
        <time>2014-05-25T10:47:48Z</time>
      </trkpt>
      <trkpt lat="48.75374" lon="2.55741">
        <ele>105</ele>
        <time>2014-05-25T10:47:49Z</time>
      </trkpt>
      <trkpt lat="48.75374" lon="2.55741">
        <ele>105</ele>
        <time>2014-05-25T10:47:50Z</time>
      </trkpt>
      <trkpt lat="48.75374" lon="2.55741">
        <ele>105</ele>
        <time>2014-05-25T10:47:51Z</time>
      </trkpt>
      <trkpt lat="48.75374" lon="2.55741">
        <ele>105</ele>
        <time>2014-05-25T10:47:52Z</time>
      </trkpt>
      <trkpt lat="48.75374" lon="2.55741">
        <ele>105</ele>
        <time>2014-05-25T10:47:53Z</time>
      </trkpt>
      <trkpt lat="48.75374" lon="2.55741">
        <ele>105</ele>
        <time>2014-05-25T10:47:54Z</time>
      </trkpt>
      <trkpt lat="48.75374" lon="2.55741">
        <ele>105</ele>
        <time>2014-05-25T10:47:55Z</time>
      </trkpt>
      <trkpt lat="48.75374" lon="2.55741">
        <ele>105</ele>
        <time>2014-05-25T10:47:56Z</time>
      </trkpt>
      <trkpt lat="48.75374" lon="2.55741">
        <ele>105</ele>
        <time>2014-05-25T10:47:57Z</time>
      </trkpt>
      <trkpt lat="48.75374" lon="2.55741">
        <ele>105</ele>
        <time>2014-05-25T10:47:58Z</time>
      </trkpt>
      <trkpt lat="48.75374" lon="2.55741">
        <ele>105</ele>
        <time>2014-05-25T10:47:59Z</time>
      </trkpt>
      <trkpt lat="48.75374" lon="2.55741">
        <ele>105</ele>
        <time>2014-05-25T10:48:00Z</time>
      </trkpt>
      <trkpt lat="48.75374" lon="2.55741">
        <ele>105</ele>
        <time>2014-05-25T10:48:01Z</time>
      </trkpt>
      <trkpt lat="48.75374" lon="2.55741">
        <ele>105</ele>
        <time>2014-05-25T10:48:02Z</time>
      </trkpt>
      <trkpt lat="48.75375" lon="2.55741">
        <ele>105</ele>
        <time>2014-05-25T10:48:03Z</time>
      </trkpt>
      <trkpt lat="48.75376" lon="2.55741">
        <ele>105</ele>
        <time>2014-05-25T10:48:04Z</time>
      </trkpt>
      <trkpt lat="48.75376" lon="2.55742">
        <ele>105</ele>
        <time>2014-05-25T10:48:05Z</time>
      </trkpt>
      <trkpt lat="48.75377" lon="2.55743">
        <ele>105</ele>
        <time>2014-05-25T10:48:06Z</time>
      </trkpt>
      <trkpt lat="48.75376" lon="2.55745">
        <ele>106</ele>
        <time>2014-05-25T10:48:07Z</time>
      </trkpt>
      <trkpt lat="48.75376" lon="2.55746">
        <ele>105</ele>
        <time>2014-05-25T10:48:08Z</time>
      </trkpt>
      <trkpt lat="48.75376" lon="2.55748">
        <ele>106</ele>
        <time>2014-05-25T10:48:09Z</time>
      </trkpt>
      <trkpt lat="48.75376" lon="2.55749">
        <ele>106</ele>
        <time>2014-05-25T10:48:10Z</time>
      </trkpt>
      <trkpt lat="48.75376" lon="2.55751">
        <ele>106</ele>
        <time>2014-05-25T10:48:11Z</time>
      </trkpt>
      <trkpt lat="48.75376" lon="2.55752">
        <ele>106</ele>
        <time>2014-05-25T10:48:12Z</time>
      </trkpt>
      <trkpt lat="48.75376" lon="2.55754">
        <ele>105</ele>
        <time>2014-05-25T10:48:13Z</time>
      </trkpt>
      <trkpt lat="48.75377" lon="2.55756">
        <ele>104</ele>
        <time>2014-05-25T10:48:14Z</time>
      </trkpt>
      <trkpt lat="48.75377" lon="2.55757">
        <ele>104</ele>
        <time>2014-05-25T10:48:15Z</time>
      </trkpt>
      <trkpt lat="48.75377" lon="2.55759">
        <ele>103</ele>
        <time>2014-05-25T10:48:16Z</time>
      </trkpt>
      <trkpt lat="48.75377" lon="2.55761">
        <ele>104</ele>
        <time>2014-05-25T10:48:17Z</time>
      </trkpt>
      <trkpt lat="48.75377" lon="2.55762">
        <ele>104</ele>
        <time>2014-05-25T10:48:18Z</time>
      </trkpt>
      <trkpt lat="48.75377" lon="2.55764">
        <ele>104</ele>
        <time>2014-05-25T10:48:19Z</time>
      </trkpt>
      <trkpt lat="48.75376" lon="2.55765">
        <ele>103</ele>
        <time>2014-05-25T10:48:20Z</time>
      </trkpt>
      <trkpt lat="48.75376" lon="2.55766">
        <ele>103</ele>
        <time>2014-05-25T10:48:21Z</time>
      </trkpt>
      <trkpt lat="48.75376" lon="2.55767">
        <ele>102</ele>
        <time>2014-05-25T10:48:22Z</time>
      </trkpt>
      <trkpt lat="48.75376" lon="2.55769">
        <ele>102</ele>
        <time>2014-05-25T10:48:23Z</time>
      </trkpt>
      <trkpt lat="48.75376" lon="2.55771">
        <ele>103</ele>
        <time>2014-05-25T10:48:24Z</time>
      </trkpt>
      <trkpt lat="48.75376" lon="2.55772">
        <ele>102</ele>
        <time>2014-05-25T10:48:25Z</time>
      </trkpt>
      <trkpt lat="48.75376" lon="2.55774">
        <ele>103</ele>
        <time>2014-05-25T10:48:26Z</time>
      </trkpt>
      <trkpt lat="48.75375" lon="2.55776">
        <ele>103</ele>
        <time>2014-05-25T10:48:27Z</time>
      </trkpt>
      <trkpt lat="48.75375" lon="2.55778">
        <ele>103</ele>
        <time>2014-05-25T10:48:28Z</time>
      </trkpt>
      <trkpt lat="48.75375" lon="2.55779">
        <ele>103</ele>
        <time>2014-05-25T10:48:29Z</time>
      </trkpt>
      <trkpt lat="48.75375" lon="2.55781">
        <ele>103</ele>
        <time>2014-05-25T10:48:30Z</time>
      </trkpt>
      <trkpt lat="48.75375" lon="2.55783">
        <ele>103</ele>
        <time>2014-05-25T10:48:31Z</time>
      </trkpt>
      <trkpt lat="48.75375" lon="2.55785">
        <ele>102</ele>
        <time>2014-05-25T10:48:32Z</time>
      </trkpt>
      <trkpt lat="48.75375" lon="2.55787">
        <ele>102</ele>
        <time>2014-05-25T10:48:33Z</time>
      </trkpt>
      <trkpt lat="48.75374" lon="2.55789">
        <ele>102</ele>
        <time>2014-05-25T10:48:34Z</time>
      </trkpt>
      <trkpt lat="48.75374" lon="2.55791">
        <ele>102</ele>
        <time>2014-05-25T10:48:35Z</time>
      </trkpt>
      <trkpt lat="48.75374" lon="2.55793">
        <ele>102</ele>
        <time>2014-05-25T10:48:36Z</time>
      </trkpt>
      <trkpt lat="48.75374" lon="2.55795">
        <ele>102</ele>
        <time>2014-05-25T10:48:37Z</time>
      </trkpt>
      <trkpt lat="48.75374" lon="2.55797">
        <ele>102</ele>
        <time>2014-05-25T10:48:38Z</time>
      </trkpt>
      <trkpt lat="48.75374" lon="2.55799">
        <ele>102</ele>
        <time>2014-05-25T10:48:39Z</time>
      </trkpt>
      <trkpt lat="48.75373" lon="2.55801">
        <ele>103</ele>
        <time>2014-05-25T10:48:40Z</time>
      </trkpt>
      <trkpt lat="48.75373" lon="2.55803">
        <ele>104</ele>
        <time>2014-05-25T10:48:41Z</time>
      </trkpt>
      <trkpt lat="48.75373" lon="2.55805">
        <ele>103</ele>
        <time>2014-05-25T10:48:42Z</time>
      </trkpt>
      <trkpt lat="48.75373" lon="2.55808">
        <ele>103</ele>
        <time>2014-05-25T10:48:43Z</time>
      </trkpt>
      <trkpt lat="48.75373" lon="2.5581">
        <ele>103</ele>
        <time>2014-05-25T10:48:44Z</time>
      </trkpt>
      <trkpt lat="48.75373" lon="2.55812">
        <ele>103</ele>
        <time>2014-05-25T10:48:45Z</time>
      </trkpt>
      <trkpt lat="48.75373" lon="2.55814">
        <ele>103</ele>
        <time>2014-05-25T10:48:46Z</time>
      </trkpt>
      <trkpt lat="48.75373" lon="2.55817">
        <ele>104</ele>
        <time>2014-05-25T10:48:47Z</time>
      </trkpt>
      <trkpt lat="48.75373" lon="2.55819">
        <ele>104</ele>
        <time>2014-05-25T10:48:48Z</time>
      </trkpt>
      <trkpt lat="48.75374" lon="2.55821">
        <ele>104</ele>
        <time>2014-05-25T10:48:49Z</time>
      </trkpt>
      <trkpt lat="48.75374" lon="2.55823">
        <ele>105</ele>
        <time>2014-05-25T10:48:50Z</time>
      </trkpt>
      <trkpt lat="48.75374" lon="2.55825">
        <ele>106</ele>
        <time>2014-05-25T10:48:51Z</time>
      </trkpt>
      <trkpt lat="48.75374" lon="2.55828">
        <ele>106</ele>
        <time>2014-05-25T10:48:52Z</time>
      </trkpt>
      <trkpt lat="48.75375" lon="2.5583">
        <ele>105</ele>
        <time>2014-05-25T10:48:53Z</time>
      </trkpt>
      <trkpt lat="48.75375" lon="2.55833">
        <ele>106</ele>
        <time>2014-05-25T10:48:54Z</time>
      </trkpt>
      <trkpt lat="48.75376" lon="2.55835">
        <ele>106</ele>
        <time>2014-05-25T10:48:55Z</time>
      </trkpt>
      <trkpt lat="48.75376" lon="2.55837">
        <ele>106</ele>
        <time>2014-05-25T10:48:56Z</time>
      </trkpt>
      <trkpt lat="48.75376" lon="2.55839">
        <ele>106</ele>
        <time>2014-05-25T10:48:57Z</time>
      </trkpt>
      <trkpt lat="48.75376" lon="2.55841">
        <ele>107</ele>
        <time>2014-05-25T10:48:58Z</time>
      </trkpt>
      <trkpt lat="48.75376" lon="2.55843">
        <ele>107</ele>
        <time>2014-05-25T10:48:59Z</time>
      </trkpt>
      <trkpt lat="48.75375" lon="2.55845">
        <ele>107</ele>
        <time>2014-05-25T10:49:00Z</time>
      </trkpt>
      <trkpt lat="48.75376" lon="2.55847">
        <ele>106</ele>
        <time>2014-05-25T10:49:01Z</time>
      </trkpt>
      <trkpt lat="48.75376" lon="2.55849">
        <ele>105</ele>
        <time>2014-05-25T10:49:02Z</time>
      </trkpt>
      <trkpt lat="48.75376" lon="2.55851">
        <ele>106</ele>
        <time>2014-05-25T10:49:03Z</time>
      </trkpt>
      <trkpt lat="48.75376" lon="2.55851">
        <ele>106</ele>
        <time>2014-05-25T10:49:04Z</time>
      </trkpt>
      <trkpt lat="48.75377" lon="2.55852">
        <ele>106</ele>
        <time>2014-05-25T10:49:05Z</time>
      </trkpt>
      <trkpt lat="48.75377" lon="2.55854">
        <ele>106</ele>
        <time>2014-05-25T10:49:06Z</time>
      </trkpt>
      <trkpt lat="48.75377" lon="2.55855">
        <ele>106</ele>
        <time>2014-05-25T10:49:07Z</time>
      </trkpt>
      <trkpt lat="48.75377" lon="2.55856">
        <ele>106</ele>
        <time>2014-05-25T10:49:08Z</time>
      </trkpt>
      <trkpt lat="48.75377" lon="2.55858">
        <ele>106</ele>
        <time>2014-05-25T10:49:09Z</time>
      </trkpt>
      <trkpt lat="48.75377" lon="2.5586">
        <ele>107</ele>
        <time>2014-05-25T10:49:10Z</time>
      </trkpt>
      <trkpt lat="48.75377" lon="2.55862">
        <ele>107</ele>
        <time>2014-05-25T10:49:11Z</time>
      </trkpt>
      <trkpt lat="48.75378" lon="2.55864">
        <ele>104</ele>
        <time>2014-05-25T10:49:12Z</time>
      </trkpt>
      <trkpt lat="48.75378" lon="2.55867">
        <ele>106</ele>
        <time>2014-05-25T10:49:13Z</time>
      </trkpt>
      <trkpt lat="48.75378" lon="2.55869">
        <ele>107</ele>
        <time>2014-05-25T10:49:14Z</time>
      </trkpt>
      <trkpt lat="48.75378" lon="2.55872">
        <ele>106</ele>
        <time>2014-05-25T10:49:15Z</time>
      </trkpt>
      <trkpt lat="48.75378" lon="2.55875">
        <ele>105</ele>
        <time>2014-05-25T10:49:16Z</time>
      </trkpt>
      <trkpt lat="48.75379" lon="2.55877">
        <ele>104</ele>
        <time>2014-05-25T10:49:17Z</time>
      </trkpt>
      <trkpt lat="48.75379" lon="2.5588">
        <ele>103</ele>
        <time>2014-05-25T10:49:18Z</time>
      </trkpt>
      <trkpt lat="48.7538" lon="2.55882">
        <ele>103</ele>
        <time>2014-05-25T10:49:19Z</time>
      </trkpt>
      <trkpt lat="48.7538" lon="2.55883">
        <ele>103</ele>
        <time>2014-05-25T10:49:20Z</time>
      </trkpt>
      <trkpt lat="48.7538" lon="2.55885">
        <ele>104</ele>
        <time>2014-05-25T10:49:21Z</time>
      </trkpt>
      <trkpt lat="48.7538" lon="2.55887">
        <ele>104</ele>
        <time>2014-05-25T10:49:22Z</time>
      </trkpt>
      <trkpt lat="48.7538" lon="2.55891">
        <ele>104</ele>
        <time>2014-05-25T10:49:23Z</time>
      </trkpt>
      <trkpt lat="48.7538" lon="2.55893">
        <ele>105</ele>
        <time>2014-05-25T10:49:24Z</time>
      </trkpt>
      <trkpt lat="48.7538" lon="2.55895">
        <ele>105</ele>
        <time>2014-05-25T10:49:25Z</time>
      </trkpt>
      <trkpt lat="48.7538" lon="2.55898">
        <ele>105</ele>
        <time>2014-05-25T10:49:26Z</time>
      </trkpt>
      <trkpt lat="48.7538" lon="2.55901">
        <ele>106</ele>
        <time>2014-05-25T10:49:27Z</time>
      </trkpt>
      <trkpt lat="48.7538" lon="2.55904">
        <ele>107</ele>
        <time>2014-05-25T10:49:28Z</time>
      </trkpt>
      <trkpt lat="48.7538" lon="2.55907">
        <ele>106</ele>
        <time>2014-05-25T10:49:29Z</time>
      </trkpt>
      <trkpt lat="48.75379" lon="2.5591">
        <ele>105</ele>
        <time>2014-05-25T10:49:30Z</time>
      </trkpt>
      <trkpt lat="48.75379" lon="2.55913">
        <ele>105</ele>
        <time>2014-05-25T10:49:31Z</time>
      </trkpt>
      <trkpt lat="48.75379" lon="2.55916">
        <ele>104</ele>
        <time>2014-05-25T10:49:32Z</time>
      </trkpt>
      <trkpt lat="48.75379" lon="2.55919">
        <ele>104</ele>
        <time>2014-05-25T10:49:33Z</time>
      </trkpt>
      <trkpt lat="48.75379" lon="2.55922">
        <ele>104</ele>
        <time>2014-05-25T10:49:34Z</time>
      </trkpt>
      <trkpt lat="48.75379" lon="2.55925">
        <ele>104</ele>
        <time>2014-05-25T10:49:35Z</time>
      </trkpt>
      <trkpt lat="48.75379" lon="2.55927">
        <ele>104</ele>
        <time>2014-05-25T10:49:36Z</time>
      </trkpt>
      <trkpt lat="48.75379" lon="2.5593">
        <ele>104</ele>
        <time>2014-05-25T10:49:37Z</time>
      </trkpt>
      <trkpt lat="48.75379" lon="2.55932">
        <ele>104</ele>
        <time>2014-05-25T10:49:38Z</time>
      </trkpt>
      <trkpt lat="48.75379" lon="2.55935">
        <ele>105</ele>
        <time>2014-05-25T10:49:39Z</time>
      </trkpt>
      <trkpt lat="48.7538" lon="2.55937">
        <ele>104</ele>
        <time>2014-05-25T10:49:40Z</time>
      </trkpt>
      <trkpt lat="48.7538" lon="2.55938">
        <ele>105</ele>
        <time>2014-05-25T10:49:41Z</time>
      </trkpt>
      <trkpt lat="48.7538" lon="2.55939">
        <ele>106</ele>
        <time>2014-05-25T10:49:42Z</time>
      </trkpt>
      <trkpt lat="48.7538" lon="2.5594">
        <ele>106</ele>
        <time>2014-05-25T10:49:43Z</time>
      </trkpt>
      <trkpt lat="48.7538" lon="2.55942">
        <ele>107</ele>
        <time>2014-05-25T10:49:44Z</time>
      </trkpt>
      <trkpt lat="48.75381" lon="2.55944">
        <ele>106</ele>
        <time>2014-05-25T10:49:45Z</time>
      </trkpt>
      <trkpt lat="48.75381" lon="2.55946">
        <ele>106</ele>
        <time>2014-05-25T10:49:46Z</time>
      </trkpt>
      <trkpt lat="48.75381" lon="2.55949">
        <ele>105</ele>
        <time>2014-05-25T10:49:47Z</time>
      </trkpt>
      <trkpt lat="48.75382" lon="2.55952">
        <ele>105</ele>
        <time>2014-05-25T10:49:48Z</time>
      </trkpt>
      <trkpt lat="48.75382" lon="2.55954">
        <ele>105</ele>
        <time>2014-05-25T10:49:49Z</time>
      </trkpt>
      <trkpt lat="48.75382" lon="2.55955">
        <ele>104</ele>
        <time>2014-05-25T10:49:50Z</time>
      </trkpt>
      <trkpt lat="48.75383" lon="2.55956">
        <ele>104</ele>
        <time>2014-05-25T10:49:51Z</time>
      </trkpt>
      <trkpt lat="48.75383" lon="2.55958">
        <ele>104</ele>
        <time>2014-05-25T10:49:52Z</time>
      </trkpt>
      <trkpt lat="48.75383" lon="2.5596">
        <ele>104</ele>
        <time>2014-05-25T10:49:53Z</time>
      </trkpt>
      <trkpt lat="48.75383" lon="2.55962">
        <ele>102</ele>
        <time>2014-05-25T10:49:54Z</time>
      </trkpt>
      <trkpt lat="48.75384" lon="2.55964">
        <ele>102</ele>
        <time>2014-05-25T10:49:55Z</time>
      </trkpt>
      <trkpt lat="48.75384" lon="2.55967">
        <ele>100</ele>
        <time>2014-05-25T10:49:56Z</time>
      </trkpt>
      <trkpt lat="48.75384" lon="2.55969">
        <ele>100</ele>
        <time>2014-05-25T10:49:57Z</time>
      </trkpt>
      <trkpt lat="48.75384" lon="2.55972">
        <ele>99</ele>
        <time>2014-05-25T10:49:58Z</time>
      </trkpt>
      <trkpt lat="48.75385" lon="2.55975">
        <ele>99</ele>
        <time>2014-05-25T10:49:59Z</time>
      </trkpt>
      <trkpt lat="48.75385" lon="2.55978">
        <ele>99</ele>
        <time>2014-05-25T10:50:00Z</time>
      </trkpt>
      <trkpt lat="48.75385" lon="2.55981">
        <ele>99</ele>
        <time>2014-05-25T10:50:01Z</time>
      </trkpt>
      <trkpt lat="48.75385" lon="2.55984">
        <ele>100</ele>
        <time>2014-05-25T10:50:02Z</time>
      </trkpt>
      <trkpt lat="48.75385" lon="2.55987">
        <ele>101</ele>
        <time>2014-05-25T10:50:03Z</time>
      </trkpt>
      <trkpt lat="48.75385" lon="2.55991">
        <ele>101</ele>
        <time>2014-05-25T10:50:04Z</time>
      </trkpt>
      <trkpt lat="48.75386" lon="2.55994">
        <ele>101</ele>
        <time>2014-05-25T10:50:05Z</time>
      </trkpt>
      <trkpt lat="48.75386" lon="2.55997">
        <ele>101</ele>
        <time>2014-05-25T10:50:06Z</time>
      </trkpt>
      <trkpt lat="48.75386" lon="2.56">
        <ele>103</ele>
        <time>2014-05-25T10:50:07Z</time>
      </trkpt>
      <trkpt lat="48.75386" lon="2.56003">
        <ele>102</ele>
        <time>2014-05-25T10:50:08Z</time>
      </trkpt>
      <trkpt lat="48.75386" lon="2.56006">
        <ele>103</ele>
        <time>2014-05-25T10:50:09Z</time>
      </trkpt>
      <trkpt lat="48.75385" lon="2.56007">
        <ele>104</ele>
        <time>2014-05-25T10:50:10Z</time>
      </trkpt>
      <trkpt lat="48.75385" lon="2.56009">
        <ele>104</ele>
        <time>2014-05-25T10:50:11Z</time>
      </trkpt>
      <trkpt lat="48.75385" lon="2.56009">
        <ele>105</ele>
        <time>2014-05-25T10:50:12Z</time>
      </trkpt>
      <trkpt lat="48.75385" lon="2.5601">
        <ele>105</ele>
        <time>2014-05-25T10:50:13Z</time>
      </trkpt>
      <trkpt lat="48.75385" lon="2.56011">
        <ele>105</ele>
        <time>2014-05-25T10:50:14Z</time>
      </trkpt>
      <trkpt lat="48.75385" lon="2.56011">
        <ele>105</ele>
        <time>2014-05-25T10:50:15Z</time>
      </trkpt>
      <trkpt lat="48.75385" lon="2.56012">
        <ele>105</ele>
        <time>2014-05-25T10:50:16Z</time>
      </trkpt>
      <trkpt lat="48.75385" lon="2.56014">
        <ele>106</ele>
        <time>2014-05-25T10:50:17Z</time>
      </trkpt>
      <trkpt lat="48.75385" lon="2.56015">
        <ele>107</ele>
        <time>2014-05-25T10:50:18Z</time>
      </trkpt>
      <trkpt lat="48.75386" lon="2.56016">
        <ele>107</ele>
        <time>2014-05-25T10:50:19Z</time>
      </trkpt>
      <trkpt lat="48.75386" lon="2.56018">
        <ele>108</ele>
        <time>2014-05-25T10:50:20Z</time>
      </trkpt>
      <trkpt lat="48.75386" lon="2.5602">
        <ele>108</ele>
        <time>2014-05-25T10:50:21Z</time>
      </trkpt>
      <trkpt lat="48.75386" lon="2.56024">
        <ele>105</ele>
        <time>2014-05-25T10:50:22Z</time>
      </trkpt>
      <trkpt lat="48.75386" lon="2.56028">
        <ele>106</ele>
        <time>2014-05-25T10:50:23Z</time>
      </trkpt>
      <trkpt lat="48.75386" lon="2.56031">
        <ele>104</ele>
        <time>2014-05-25T10:50:24Z</time>
      </trkpt>
      <trkpt lat="48.75386" lon="2.56035">
        <ele>105</ele>
        <time>2014-05-25T10:50:25Z</time>
      </trkpt>
      <trkpt lat="48.75387" lon="2.56039">
        <ele>104</ele>
        <time>2014-05-25T10:50:26Z</time>
      </trkpt>
      <trkpt lat="48.75387" lon="2.56042">
        <ele>103</ele>
        <time>2014-05-25T10:50:27Z</time>
      </trkpt>
      <trkpt lat="48.75388" lon="2.56046">
        <ele>102</ele>
        <time>2014-05-25T10:50:28Z</time>
      </trkpt>
      <trkpt lat="48.75388" lon="2.56049">
        <ele>100</ele>
        <time>2014-05-25T10:50:29Z</time>
      </trkpt>
      <trkpt lat="48.75388" lon="2.56053">
        <ele>99</ele>
        <time>2014-05-25T10:50:30Z</time>
      </trkpt>
      <trkpt lat="48.75388" lon="2.56056">
        <ele>99</ele>
        <time>2014-05-25T10:50:31Z</time>
      </trkpt>
      <trkpt lat="48.75389" lon="2.56059">
        <ele>98</ele>
        <time>2014-05-25T10:50:32Z</time>
      </trkpt>
      <trkpt lat="48.75389" lon="2.56063">
        <ele>96</ele>
        <time>2014-05-25T10:50:33Z</time>
      </trkpt>
      <trkpt lat="48.75389" lon="2.56066">
        <ele>96</ele>
        <time>2014-05-25T10:50:34Z</time>
      </trkpt>
      <trkpt lat="48.75389" lon="2.56068">
        <ele>96</ele>
        <time>2014-05-25T10:50:35Z</time>
      </trkpt>
      <trkpt lat="48.75389" lon="2.56069">
        <ele>96</ele>
        <time>2014-05-25T10:50:36Z</time>
      </trkpt>
      <trkpt lat="48.75389" lon="2.5607">
        <ele>95</ele>
        <time>2014-05-25T10:50:37Z</time>
      </trkpt>
      <trkpt lat="48.75389" lon="2.56071">
        <ele>96</ele>
        <time>2014-05-25T10:50:38Z</time>
      </trkpt>
      <trkpt lat="48.7539" lon="2.56073">
        <ele>94</ele>
        <time>2014-05-25T10:50:39Z</time>
      </trkpt>
      <trkpt lat="48.7539" lon="2.56075">
        <ele>93</ele>
        <time>2014-05-25T10:50:40Z</time>
      </trkpt>
      <trkpt lat="48.7539" lon="2.56077">
        <ele>94</ele>
        <time>2014-05-25T10:50:41Z</time>
      </trkpt>
      <trkpt lat="48.75391" lon="2.5608">
        <ele>94</ele>
        <time>2014-05-25T10:50:42Z</time>
      </trkpt>
      <trkpt lat="48.75391" lon="2.56082">
        <ele>94</ele>
        <time>2014-05-25T10:50:43Z</time>
      </trkpt>
      <trkpt lat="48.75391" lon="2.56084">
        <ele>91</ele>
        <time>2014-05-25T10:50:44Z</time>
      </trkpt>
      <trkpt lat="48.75391" lon="2.56087">
        <ele>91</ele>
        <time>2014-05-25T10:50:45Z</time>
      </trkpt>
      <trkpt lat="48.75391" lon="2.5609">
        <ele>92</ele>
        <time>2014-05-25T10:50:46Z</time>
      </trkpt>
      <trkpt lat="48.7539" lon="2.56093">
        <ele>92</ele>
        <time>2014-05-25T10:50:47Z</time>
      </trkpt>
      <trkpt lat="48.7539" lon="2.56096">
        <ele>94</ele>
        <time>2014-05-25T10:50:48Z</time>
      </trkpt>
      <trkpt lat="48.7539" lon="2.56099">
        <ele>95</ele>
        <time>2014-05-25T10:50:49Z</time>
      </trkpt>
      <trkpt lat="48.7539" lon="2.56102">
        <ele>96</ele>
        <time>2014-05-25T10:50:50Z</time>
      </trkpt>
      <trkpt lat="48.7539" lon="2.56104">
        <ele>96</ele>
        <time>2014-05-25T10:50:51Z</time>
      </trkpt>
      <trkpt lat="48.7539" lon="2.56107">
        <ele>95</ele>
        <time>2014-05-25T10:50:52Z</time>
      </trkpt>
      <trkpt lat="48.7539" lon="2.56109">
        <ele>96</ele>
        <time>2014-05-25T10:50:53Z</time>
      </trkpt>
      <trkpt lat="48.7539" lon="2.56112">
        <ele>96</ele>
        <time>2014-05-25T10:50:54Z</time>
      </trkpt>
      <trkpt lat="48.7539" lon="2.56115">
        <ele>97</ele>
        <time>2014-05-25T10:50:55Z</time>
      </trkpt>
      <trkpt lat="48.7539" lon="2.56117">
        <ele>98</ele>
        <time>2014-05-25T10:50:56Z</time>
      </trkpt>
      <trkpt lat="48.7539" lon="2.56119">
        <ele>98</ele>
        <time>2014-05-25T10:50:57Z</time>
      </trkpt>
      <trkpt lat="48.7539" lon="2.56122">
        <ele>100</ele>
        <time>2014-05-25T10:50:58Z</time>
      </trkpt>
      <trkpt lat="48.7539" lon="2.56123">
        <ele>100</ele>
        <time>2014-05-25T10:50:59Z</time>
      </trkpt>
      <trkpt lat="48.7539" lon="2.56125">
        <ele>100</ele>
        <time>2014-05-25T10:51:00Z</time>
      </trkpt>
      <trkpt lat="48.7539" lon="2.56126">
        <ele>101</ele>
        <time>2014-05-25T10:51:01Z</time>
      </trkpt>
      <trkpt lat="48.7539" lon="2.56128">
        <ele>101</ele>
        <time>2014-05-25T10:51:02Z</time>
      </trkpt>
      <trkpt lat="48.7539" lon="2.5613">
        <ele>101</ele>
        <time>2014-05-25T10:51:03Z</time>
      </trkpt>
      <trkpt lat="48.7539" lon="2.56132">
        <ele>102</ele>
        <time>2014-05-25T10:51:04Z</time>
      </trkpt>
      <trkpt lat="48.7539" lon="2.56133">
        <ele>104</ele>
        <time>2014-05-25T10:51:05Z</time>
      </trkpt>
      <trkpt lat="48.7539" lon="2.56135">
        <ele>103</ele>
        <time>2014-05-25T10:51:06Z</time>
      </trkpt>
      <trkpt lat="48.75391" lon="2.56137">
        <ele>102</ele>
        <time>2014-05-25T10:51:07Z</time>
      </trkpt>
      <trkpt lat="48.75391" lon="2.56139">
        <ele>102</ele>
        <time>2014-05-25T10:51:08Z</time>
      </trkpt>
      <trkpt lat="48.75392" lon="2.5614">
        <ele>102</ele>
        <time>2014-05-25T10:51:09Z</time>
      </trkpt>
      <trkpt lat="48.75392" lon="2.56143">
        <ele>101</ele>
        <time>2014-05-25T10:51:10Z</time>
      </trkpt>
      <trkpt lat="48.75392" lon="2.56145">
        <ele>101</ele>
        <time>2014-05-25T10:51:11Z</time>
      </trkpt>
      <trkpt lat="48.75392" lon="2.56148">
        <ele>101</ele>
        <time>2014-05-25T10:51:12Z</time>
      </trkpt>
      <trkpt lat="48.75393" lon="2.5615">
        <ele>101</ele>
        <time>2014-05-25T10:51:13Z</time>
      </trkpt>
      <trkpt lat="48.75393" lon="2.56153">
        <ele>100</ele>
        <time>2014-05-25T10:51:14Z</time>
      </trkpt>
      <trkpt lat="48.75393" lon="2.56156">
        <ele>100</ele>
        <time>2014-05-25T10:51:15Z</time>
      </trkpt>
      <trkpt lat="48.75393" lon="2.56159">
        <ele>99</ele>
        <time>2014-05-25T10:51:16Z</time>
      </trkpt>
      <trkpt lat="48.75393" lon="2.56161">
        <ele>100</ele>
        <time>2014-05-25T10:51:17Z</time>
      </trkpt>
      <trkpt lat="48.75393" lon="2.56164">
        <ele>101</ele>
        <time>2014-05-25T10:51:18Z</time>
      </trkpt>
      <trkpt lat="48.75393" lon="2.56166">
        <ele>101</ele>
        <time>2014-05-25T10:51:19Z</time>
      </trkpt>
      <trkpt lat="48.75393" lon="2.56169">
        <ele>102</ele>
        <time>2014-05-25T10:51:20Z</time>
      </trkpt>
      <trkpt lat="48.75393" lon="2.56171">
        <ele>101</ele>
        <time>2014-05-25T10:51:21Z</time>
      </trkpt>
      <trkpt lat="48.75394" lon="2.56173">
        <ele>101</ele>
        <time>2014-05-25T10:51:22Z</time>
      </trkpt>
      <trkpt lat="48.75394" lon="2.56176">
        <ele>100</ele>
        <time>2014-05-25T10:51:23Z</time>
      </trkpt>
      <trkpt lat="48.75394" lon="2.56179">
        <ele>100</ele>
        <time>2014-05-25T10:51:24Z</time>
      </trkpt>
      <trkpt lat="48.75394" lon="2.56181">
        <ele>100</ele>
        <time>2014-05-25T10:51:25Z</time>
      </trkpt>
      <trkpt lat="48.75394" lon="2.56184">
        <ele>100</ele>
        <time>2014-05-25T10:51:26Z</time>
      </trkpt>
      <trkpt lat="48.75394" lon="2.56186">
        <ele>99</ele>
        <time>2014-05-25T10:51:27Z</time>
      </trkpt>
      <trkpt lat="48.75394" lon="2.56189">
        <ele>99</ele>
        <time>2014-05-25T10:51:28Z</time>
      </trkpt>
      <trkpt lat="48.75394" lon="2.56191">
        <ele>99</ele>
        <time>2014-05-25T10:51:29Z</time>
      </trkpt>
      <trkpt lat="48.75394" lon="2.56193">
        <ele>99</ele>
        <time>2014-05-25T10:51:30Z</time>
      </trkpt>
      <trkpt lat="48.75394" lon="2.56195">
        <ele>100</ele>
        <time>2014-05-25T10:51:31Z</time>
      </trkpt>
      <trkpt lat="48.75394" lon="2.56197">
        <ele>101</ele>
        <time>2014-05-25T10:51:32Z</time>
      </trkpt>
      <trkpt lat="48.75394" lon="2.56199">
        <ele>102</ele>
        <time>2014-05-25T10:51:33Z</time>
      </trkpt>
      <trkpt lat="48.75394" lon="2.56201">
        <ele>100</ele>
        <time>2014-05-25T10:51:34Z</time>
      </trkpt>
      <trkpt lat="48.75394" lon="2.56203">
        <ele>102</ele>
        <time>2014-05-25T10:51:35Z</time>
      </trkpt>
      <trkpt lat="48.75394" lon="2.56206">
        <ele>100</ele>
        <time>2014-05-25T10:51:36Z</time>
      </trkpt>
      <trkpt lat="48.75393" lon="2.56209">
        <ele>99</ele>
        <time>2014-05-25T10:51:37Z</time>
      </trkpt>
      <trkpt lat="48.75393" lon="2.56212">
        <ele>99</ele>
        <time>2014-05-25T10:51:38Z</time>
      </trkpt>
      <trkpt lat="48.75393" lon="2.56214">
        <ele>99</ele>
        <time>2014-05-25T10:51:39Z</time>
      </trkpt>
      <trkpt lat="48.75393" lon="2.56217">
        <ele>101</ele>
        <time>2014-05-25T10:51:40Z</time>
      </trkpt>
      <trkpt lat="48.75394" lon="2.5622">
        <ele>101</ele>
        <time>2014-05-25T10:51:41Z</time>
      </trkpt>
      <trkpt lat="48.75394" lon="2.56223">
        <ele>101</ele>
        <time>2014-05-25T10:51:42Z</time>
      </trkpt>
      <trkpt lat="48.75394" lon="2.56225">
        <ele>102</ele>
        <time>2014-05-25T10:51:43Z</time>
      </trkpt>
      <trkpt lat="48.75394" lon="2.56227">
        <ele>104</ele>
        <time>2014-05-25T10:51:44Z</time>
      </trkpt>
      <trkpt lat="48.75394" lon="2.5623">
        <ele>104</ele>
        <time>2014-05-25T10:51:45Z</time>
      </trkpt>
      <trkpt lat="48.75394" lon="2.56232">
        <ele>103</ele>
        <time>2014-05-25T10:51:46Z</time>
      </trkpt>
      <trkpt lat="48.75394" lon="2.56234">
        <ele>103</ele>
        <time>2014-05-25T10:51:47Z</time>
      </trkpt>
      <trkpt lat="48.75394" lon="2.56236">
        <ele>102</ele>
        <time>2014-05-25T10:51:48Z</time>
      </trkpt>
      <trkpt lat="48.75394" lon="2.56239">
        <ele>103</ele>
        <time>2014-05-25T10:51:49Z</time>
      </trkpt>
      <trkpt lat="48.75394" lon="2.5624">
        <ele>103</ele>
        <time>2014-05-25T10:51:50Z</time>
      </trkpt>
      <trkpt lat="48.75394" lon="2.56242">
        <ele>103</ele>
        <time>2014-05-25T10:51:51Z</time>
      </trkpt>
      <trkpt lat="48.75394" lon="2.56243">
        <ele>103</ele>
        <time>2014-05-25T10:51:52Z</time>
      </trkpt>
      <trkpt lat="48.75394" lon="2.56245">
        <ele>104</ele>
        <time>2014-05-25T10:51:53Z</time>
      </trkpt>
      <trkpt lat="48.75394" lon="2.56247">
        <ele>103</ele>
        <time>2014-05-25T10:51:54Z</time>
      </trkpt>
      <trkpt lat="48.75394" lon="2.5625">
        <ele>103</ele>
        <time>2014-05-25T10:51:55Z</time>
      </trkpt>
      <trkpt lat="48.75393" lon="2.56252">
        <ele>104</ele>
        <time>2014-05-25T10:51:56Z</time>
      </trkpt>
      <trkpt lat="48.75393" lon="2.56255">
        <ele>104</ele>
        <time>2014-05-25T10:51:57Z</time>
      </trkpt>
      <trkpt lat="48.75393" lon="2.56258">
        <ele>104</ele>
        <time>2014-05-25T10:51:58Z</time>
      </trkpt>
      <trkpt lat="48.75393" lon="2.56261">
        <ele>105</ele>
        <time>2014-05-25T10:51:59Z</time>
      </trkpt>
      <trkpt lat="48.75393" lon="2.56263">
        <ele>106</ele>
        <time>2014-05-25T10:52:00Z</time>
      </trkpt>
      <trkpt lat="48.75392" lon="2.56266">
        <ele>106</ele>
        <time>2014-05-25T10:52:01Z</time>
      </trkpt>
      <trkpt lat="48.75392" lon="2.56269">
        <ele>106</ele>
        <time>2014-05-25T10:52:02Z</time>
      </trkpt>
      <trkpt lat="48.75392" lon="2.56271">
        <ele>106</ele>
        <time>2014-05-25T10:52:03Z</time>
      </trkpt>
      <trkpt lat="48.75392" lon="2.56274">
        <ele>106</ele>
        <time>2014-05-25T10:52:04Z</time>
      </trkpt>
      <trkpt lat="48.75392" lon="2.56276">
        <ele>106</ele>
        <time>2014-05-25T10:52:05Z</time>
      </trkpt>
      <trkpt lat="48.75393" lon="2.56278">
        <ele>107</ele>
        <time>2014-05-25T10:52:06Z</time>
      </trkpt>
      <trkpt lat="48.75393" lon="2.56281">
        <ele>107</ele>
        <time>2014-05-25T10:52:07Z</time>
      </trkpt>
      <trkpt lat="48.75393" lon="2.56283">
        <ele>108</ele>
        <time>2014-05-25T10:52:08Z</time>
      </trkpt>
      <trkpt lat="48.75393" lon="2.56285">
        <ele>108</ele>
        <time>2014-05-25T10:52:09Z</time>
      </trkpt>
      <trkpt lat="48.75393" lon="2.56287">
        <ele>109</ele>
        <time>2014-05-25T10:52:10Z</time>
      </trkpt>
      <trkpt lat="48.75393" lon="2.56289">
        <ele>109</ele>
        <time>2014-05-25T10:52:11Z</time>
      </trkpt>
      <trkpt lat="48.75393" lon="2.56291">
        <ele>110</ele>
        <time>2014-05-25T10:52:12Z</time>
      </trkpt>
      <trkpt lat="48.75393" lon="2.56293">
        <ele>110</ele>
        <time>2014-05-25T10:52:13Z</time>
      </trkpt>
      <trkpt lat="48.75394" lon="2.56295">
        <ele>110</ele>
        <time>2014-05-25T10:52:14Z</time>
      </trkpt>
      <trkpt lat="48.75393" lon="2.56297">
        <ele>111</ele>
        <time>2014-05-25T10:52:15Z</time>
      </trkpt>
      <trkpt lat="48.75393" lon="2.56299">
        <ele>110</ele>
        <time>2014-05-25T10:52:16Z</time>
      </trkpt>
      <trkpt lat="48.75393" lon="2.56302">
        <ele>111</ele>
        <time>2014-05-25T10:52:17Z</time>
      </trkpt>
      <trkpt lat="48.75393" lon="2.56304">
        <ele>111</ele>
        <time>2014-05-25T10:52:18Z</time>
      </trkpt>
      <trkpt lat="48.75393" lon="2.56306">
        <ele>110</ele>
        <time>2014-05-25T10:52:19Z</time>
      </trkpt>
      <trkpt lat="48.75393" lon="2.56308">
        <ele>110</ele>
        <time>2014-05-25T10:52:20Z</time>
      </trkpt>
      <trkpt lat="48.75392" lon="2.56309">
        <ele>109</ele>
        <time>2014-05-25T10:52:21Z</time>
      </trkpt>
      <trkpt lat="48.75393" lon="2.56311">
        <ele>108</ele>
        <time>2014-05-25T10:52:22Z</time>
      </trkpt>
      <trkpt lat="48.75393" lon="2.56314">
        <ele>108</ele>
        <time>2014-05-25T10:52:23Z</time>
      </trkpt>
      <trkpt lat="48.75393" lon="2.56317">
        <ele>107</ele>
        <time>2014-05-25T10:52:24Z</time>
      </trkpt>
      <trkpt lat="48.75394" lon="2.5632">
        <ele>106</ele>
        <time>2014-05-25T10:52:25Z</time>
      </trkpt>
      <trkpt lat="48.75394" lon="2.56323">
        <ele>105</ele>
        <time>2014-05-25T10:52:26Z</time>
      </trkpt>
      <trkpt lat="48.75395" lon="2.56326">
        <ele>105</ele>
        <time>2014-05-25T10:52:27Z</time>
      </trkpt>
      <trkpt lat="48.75395" lon="2.56329">
        <ele>106</ele>
        <time>2014-05-25T10:52:28Z</time>
      </trkpt>
      <trkpt lat="48.75395" lon="2.56332">
        <ele>107</ele>
        <time>2014-05-25T10:52:29Z</time>
      </trkpt>
      <trkpt lat="48.75396" lon="2.56335">
        <ele>108</ele>
        <time>2014-05-25T10:52:30Z</time>
      </trkpt>
      <trkpt lat="48.75396" lon="2.56336">
        <ele>108</ele>
        <time>2014-05-25T10:52:31Z</time>
      </trkpt>
      <trkpt lat="48.75397" lon="2.56337">
        <ele>109</ele>
        <time>2014-05-25T10:52:32Z</time>
      </trkpt>
      <trkpt lat="48.75397" lon="2.56338">
        <ele>109</ele>
        <time>2014-05-25T10:52:33Z</time>
      </trkpt>
      <trkpt lat="48.75397" lon="2.5634">
        <ele>110</ele>
        <time>2014-05-25T10:52:34Z</time>
      </trkpt>
      <trkpt lat="48.75397" lon="2.56341">
        <ele>111</ele>
        <time>2014-05-25T10:52:35Z</time>
      </trkpt>
      <trkpt lat="48.75397" lon="2.56343">
        <ele>112</ele>
        <time>2014-05-25T10:52:36Z</time>
      </trkpt>
      <trkpt lat="48.75397" lon="2.56345">
        <ele>113</ele>
        <time>2014-05-25T10:52:37Z</time>
      </trkpt>
      <trkpt lat="48.75397" lon="2.56347">
        <ele>114</ele>
        <time>2014-05-25T10:52:38Z</time>
      </trkpt>
      <trkpt lat="48.75397" lon="2.56349">
        <ele>115</ele>
        <time>2014-05-25T10:52:39Z</time>
      </trkpt>
      <trkpt lat="48.75397" lon="2.56351">
        <ele>114</ele>
        <time>2014-05-25T10:52:40Z</time>
      </trkpt>
      <trkpt lat="48.75397" lon="2.56354">
        <ele>113</ele>
        <time>2014-05-25T10:52:41Z</time>
      </trkpt>
      <trkpt lat="48.75397" lon="2.56357">
        <ele>112</ele>
        <time>2014-05-25T10:52:42Z</time>
      </trkpt>
      <trkpt lat="48.75398" lon="2.56359">
        <ele>112</ele>
        <time>2014-05-25T10:52:43Z</time>
      </trkpt>
      <trkpt lat="48.75398" lon="2.56362">
        <ele>112</ele>
        <time>2014-05-25T10:52:44Z</time>
      </trkpt>
      <trkpt lat="48.75399" lon="2.56364">
        <ele>113</ele>
        <time>2014-05-25T10:52:45Z</time>
      </trkpt>
      <trkpt lat="48.75399" lon="2.56365">
        <ele>113</ele>
        <time>2014-05-25T10:52:46Z</time>
      </trkpt>
      <trkpt lat="48.75399" lon="2.56367">
        <ele>113</ele>
        <time>2014-05-25T10:52:47Z</time>
      </trkpt>
      <trkpt lat="48.75399" lon="2.56369">
        <ele>112</ele>
        <time>2014-05-25T10:52:48Z</time>
      </trkpt>
      <trkpt lat="48.75399" lon="2.56371">
        <ele>112</ele>
        <time>2014-05-25T10:52:49Z</time>
      </trkpt>
      <trkpt lat="48.754" lon="2.56374">
        <ele>111</ele>
        <time>2014-05-25T10:52:50Z</time>
      </trkpt>
      <trkpt lat="48.754" lon="2.56376">
        <ele>112</ele>
        <time>2014-05-25T10:52:51Z</time>
      </trkpt>
      <trkpt lat="48.754" lon="2.56379">
        <ele>111</ele>
        <time>2014-05-25T10:52:52Z</time>
      </trkpt>
      <trkpt lat="48.754" lon="2.56382">
        <ele>110</ele>
        <time>2014-05-25T10:52:53Z</time>
      </trkpt>
      <trkpt lat="48.75401" lon="2.56384">
        <ele>110</ele>
        <time>2014-05-25T10:52:54Z</time>
      </trkpt>
      <trkpt lat="48.75401" lon="2.56387">
        <ele>110</ele>
        <time>2014-05-25T10:52:55Z</time>
      </trkpt>
      <trkpt lat="48.75401" lon="2.5639">
        <ele>109</ele>
        <time>2014-05-25T10:52:56Z</time>
      </trkpt>
      <trkpt lat="48.75401" lon="2.56393">
        <ele>109</ele>
        <time>2014-05-25T10:52:57Z</time>
      </trkpt>
      <trkpt lat="48.75401" lon="2.56396">
        <ele>107</ele>
        <time>2014-05-25T10:52:58Z</time>
      </trkpt>
      <trkpt lat="48.75402" lon="2.56399">
        <ele>105</ele>
        <time>2014-05-25T10:52:59Z</time>
      </trkpt>
      <trkpt lat="48.75402" lon="2.56401">
        <ele>105</ele>
        <time>2014-05-25T10:53:00Z</time>
      </trkpt>
      <trkpt lat="48.75402" lon="2.56403">
        <ele>106</ele>
        <time>2014-05-25T10:53:01Z</time>
      </trkpt>
      <trkpt lat="48.75402" lon="2.56405">
        <ele>106</ele>
        <time>2014-05-25T10:53:02Z</time>
      </trkpt>
      <trkpt lat="48.75402" lon="2.56406">
        <ele>105</ele>
        <time>2014-05-25T10:53:03Z</time>
      </trkpt>
      <trkpt lat="48.75402" lon="2.56408">
        <ele>105</ele>
        <time>2014-05-25T10:53:04Z</time>
      </trkpt>
      <trkpt lat="48.75402" lon="2.5641">
        <ele>106</ele>
        <time>2014-05-25T10:53:05Z</time>
      </trkpt>
      <trkpt lat="48.75402" lon="2.56413">
        <ele>105</ele>
        <time>2014-05-25T10:53:06Z</time>
      </trkpt>
      <trkpt lat="48.75402" lon="2.56416">
        <ele>106</ele>
        <time>2014-05-25T10:53:07Z</time>
      </trkpt>
      <trkpt lat="48.75402" lon="2.56418">
        <ele>107</ele>
        <time>2014-05-25T10:53:08Z</time>
      </trkpt>
      <trkpt lat="48.75402" lon="2.56422">
        <ele>107</ele>
        <time>2014-05-25T10:53:09Z</time>
      </trkpt>
      <trkpt lat="48.75402" lon="2.56425">
        <ele>107</ele>
        <time>2014-05-25T10:53:10Z</time>
      </trkpt>
      <trkpt lat="48.75402" lon="2.56428">
        <ele>107</ele>
        <time>2014-05-25T10:53:11Z</time>
      </trkpt>
      <trkpt lat="48.75403" lon="2.5643">
        <ele>107</ele>
        <time>2014-05-25T10:53:12Z</time>
      </trkpt>
      <trkpt lat="48.75403" lon="2.56433">
        <ele>107</ele>
        <time>2014-05-25T10:53:13Z</time>
      </trkpt>
      <trkpt lat="48.75403" lon="2.56436">
        <ele>108</ele>
        <time>2014-05-25T10:53:14Z</time>
      </trkpt>
      <trkpt lat="48.75403" lon="2.56437">
        <ele>109</ele>
        <time>2014-05-25T10:53:15Z</time>
      </trkpt>
      <trkpt lat="48.75403" lon="2.56439">
        <ele>109</ele>
        <time>2014-05-25T10:53:16Z</time>
      </trkpt>
      <trkpt lat="48.75403" lon="2.5644">
        <ele>110</ele>
        <time>2014-05-25T10:53:17Z</time>
      </trkpt>
      <trkpt lat="48.75403" lon="2.56442">
        <ele>108</ele>
        <time>2014-05-25T10:53:18Z</time>
      </trkpt>
      <trkpt lat="48.75403" lon="2.56444">
        <ele>109</ele>
        <time>2014-05-25T10:53:19Z</time>
      </trkpt>
      <trkpt lat="48.75402" lon="2.56446">
        <ele>109</ele>
        <time>2014-05-25T10:53:20Z</time>
      </trkpt>
      <trkpt lat="48.75402" lon="2.56448">
        <ele>109</ele>
        <time>2014-05-25T10:53:21Z</time>
      </trkpt>
      <trkpt lat="48.75402" lon="2.56451">
        <ele>110</ele>
        <time>2014-05-25T10:53:22Z</time>
      </trkpt>
      <trkpt lat="48.75402" lon="2.56454">
        <ele>110</ele>
        <time>2014-05-25T10:53:23Z</time>
      </trkpt>
      <trkpt lat="48.75401" lon="2.56457">
        <ele>110</ele>
        <time>2014-05-25T10:53:24Z</time>
      </trkpt>
      <trkpt lat="48.75401" lon="2.56459">
        <ele>110</ele>
        <time>2014-05-25T10:53:25Z</time>
      </trkpt>
      <trkpt lat="48.75401" lon="2.56461">
        <ele>111</ele>
        <time>2014-05-25T10:53:26Z</time>
      </trkpt>
      <trkpt lat="48.75401" lon="2.56462">
        <ele>111</ele>
        <time>2014-05-25T10:53:27Z</time>
      </trkpt>
      <trkpt lat="48.75401" lon="2.56462">
        <ele>111</ele>
        <time>2014-05-25T10:53:28Z</time>
      </trkpt>
      <trkpt lat="48.75401" lon="2.56464">
        <ele>111</ele>
        <time>2014-05-25T10:53:29Z</time>
      </trkpt>
      <trkpt lat="48.75402" lon="2.56466">
        <ele>111</ele>
        <time>2014-05-25T10:53:30Z</time>
      </trkpt>
      <trkpt lat="48.75402" lon="2.56468">
        <ele>110</ele>
        <time>2014-05-25T10:53:31Z</time>
      </trkpt>
      <trkpt lat="48.75402" lon="2.5647">
        <ele>112</ele>
        <time>2014-05-25T10:53:32Z</time>
      </trkpt>
      <trkpt lat="48.75403" lon="2.56471">
        <ele>112</ele>
        <time>2014-05-25T10:53:33Z</time>
      </trkpt>
      <trkpt lat="48.75403" lon="2.56472">
        <ele>112</ele>
        <time>2014-05-25T10:53:34Z</time>
      </trkpt>
      <trkpt lat="48.75403" lon="2.56473">
        <ele>112</ele>
        <time>2014-05-25T10:53:35Z</time>
      </trkpt>
      <trkpt lat="48.75403" lon="2.56474">
        <ele>111</ele>
        <time>2014-05-25T10:53:36Z</time>
      </trkpt>
      <trkpt lat="48.75403" lon="2.56474">
        <ele>111</ele>
        <time>2014-05-25T10:53:37Z</time>
      </trkpt>
      <trkpt lat="48.75403" lon="2.56475">
        <ele>111</ele>
        <time>2014-05-25T10:53:38Z</time>
      </trkpt>
      <trkpt lat="48.75403" lon="2.56476">
        <ele>111</ele>
        <time>2014-05-25T10:53:39Z</time>
      </trkpt>
      <trkpt lat="48.75403" lon="2.56476">
        <ele>111</ele>
        <time>2014-05-25T10:53:40Z</time>
      </trkpt>
      <trkpt lat="48.75402" lon="2.56477">
        <ele>110</ele>
        <time>2014-05-25T10:53:41Z</time>
      </trkpt>
      <trkpt lat="48.75402" lon="2.56479">
        <ele>108</ele>
        <time>2014-05-25T10:53:42Z</time>
      </trkpt>
      <trkpt lat="48.75402" lon="2.5648">
        <ele>107</ele>
        <time>2014-05-25T10:53:43Z</time>
      </trkpt>
      <trkpt lat="48.75402" lon="2.56482">
        <ele>107</ele>
        <time>2014-05-25T10:53:44Z</time>
      </trkpt>
      <trkpt lat="48.75402" lon="2.56484">
        <ele>107</ele>
        <time>2014-05-25T10:53:45Z</time>
      </trkpt>
      <trkpt lat="48.75402" lon="2.56486">
        <ele>105</ele>
        <time>2014-05-25T10:53:46Z</time>
      </trkpt>
      <trkpt lat="48.75402" lon="2.56489">
        <ele>105</ele>
        <time>2014-05-25T10:53:47Z</time>
      </trkpt>
      <trkpt lat="48.75402" lon="2.56491">
        <ele>104</ele>
        <time>2014-05-25T10:53:48Z</time>
      </trkpt>
      <trkpt lat="48.75402" lon="2.56495">
        <ele>104</ele>
        <time>2014-05-25T10:53:49Z</time>
      </trkpt>
      <trkpt lat="48.75402" lon="2.56497">
        <ele>104</ele>
        <time>2014-05-25T10:53:50Z</time>
      </trkpt>
      <trkpt lat="48.75402" lon="2.56498">
        <ele>104</ele>
        <time>2014-05-25T10:53:51Z</time>
      </trkpt>
      <trkpt lat="48.75402" lon="2.56501">
        <ele>103</ele>
        <time>2014-05-25T10:53:52Z</time>
      </trkpt>
      <trkpt lat="48.75402" lon="2.56503">
        <ele>101</ele>
        <time>2014-05-25T10:53:53Z</time>
      </trkpt>
      <trkpt lat="48.75402" lon="2.56505">
        <ele>101</ele>
        <time>2014-05-25T10:53:54Z</time>
      </trkpt>
      <trkpt lat="48.75403" lon="2.56508">
        <ele>100</ele>
        <time>2014-05-25T10:53:55Z</time>
      </trkpt>
      <trkpt lat="48.75403" lon="2.56511">
        <ele>99</ele>
        <time>2014-05-25T10:53:56Z</time>
      </trkpt>
      <trkpt lat="48.75404" lon="2.56514">
        <ele>99</ele>
        <time>2014-05-25T10:53:57Z</time>
      </trkpt>
      <trkpt lat="48.75404" lon="2.56516">
        <ele>99</ele>
        <time>2014-05-25T10:53:58Z</time>
      </trkpt>
      <trkpt lat="48.75404" lon="2.56519">
        <ele>101</ele>
        <time>2014-05-25T10:53:59Z</time>
      </trkpt>
      <trkpt lat="48.75404" lon="2.56522">
        <ele>101</ele>
        <time>2014-05-25T10:54:00Z</time>
      </trkpt>
      <trkpt lat="48.75403" lon="2.56525">
        <ele>100</ele>
        <time>2014-05-25T10:54:01Z</time>
      </trkpt>
      <trkpt lat="48.75403" lon="2.56527">
        <ele>100</ele>
        <time>2014-05-25T10:54:02Z</time>
      </trkpt>
      <trkpt lat="48.75403" lon="2.56529">
        <ele>100</ele>
        <time>2014-05-25T10:54:03Z</time>
      </trkpt>
      <trkpt lat="48.75403" lon="2.56531">
        <ele>101</ele>
        <time>2014-05-25T10:54:04Z</time>
      </trkpt>
      <trkpt lat="48.75403" lon="2.56533">
        <ele>102</ele>
        <time>2014-05-25T10:54:05Z</time>
      </trkpt>
      <trkpt lat="48.75403" lon="2.56535">
        <ele>102</ele>
        <time>2014-05-25T10:54:06Z</time>
      </trkpt>
      <trkpt lat="48.75403" lon="2.56536">
        <ele>102</ele>
        <time>2014-05-25T10:54:07Z</time>
      </trkpt>
      <trkpt lat="48.75403" lon="2.56537">
        <ele>102</ele>
        <time>2014-05-25T10:54:08Z</time>
      </trkpt>
      <trkpt lat="48.75403" lon="2.56538">
        <ele>103</ele>
        <time>2014-05-25T10:54:09Z</time>
      </trkpt>
      <trkpt lat="48.75403" lon="2.5654">
        <ele>101</ele>
        <time>2014-05-25T10:54:10Z</time>
      </trkpt>
      <trkpt lat="48.75403" lon="2.56542">
        <ele>102</ele>
        <time>2014-05-25T10:54:11Z</time>
      </trkpt>
      <trkpt lat="48.75403" lon="2.56544">
        <ele>101</ele>
        <time>2014-05-25T10:54:12Z</time>
      </trkpt>
      <trkpt lat="48.75402" lon="2.56546">
        <ele>100</ele>
        <time>2014-05-25T10:54:13Z</time>
      </trkpt>
      <trkpt lat="48.75402" lon="2.56548">
        <ele>100</ele>
        <time>2014-05-25T10:54:14Z</time>
      </trkpt>
      <trkpt lat="48.75402" lon="2.56551">
        <ele>98</ele>
        <time>2014-05-25T10:54:15Z</time>
      </trkpt>
      <trkpt lat="48.75403" lon="2.56554">
        <ele>97</ele>
        <time>2014-05-25T10:54:16Z</time>
      </trkpt>
      <trkpt lat="48.75403" lon="2.56555">
        <ele>97</ele>
        <time>2014-05-25T10:54:17Z</time>
      </trkpt>
      <trkpt lat="48.75404" lon="2.56557">
        <ele>96</ele>
        <time>2014-05-25T10:54:18Z</time>
      </trkpt>
      <trkpt lat="48.75404" lon="2.56558">
        <ele>96</ele>
        <time>2014-05-25T10:54:19Z</time>
      </trkpt>
      <trkpt lat="48.75404" lon="2.56559">
        <ele>96</ele>
        <time>2014-05-25T10:54:20Z</time>
      </trkpt>
      <trkpt lat="48.75405" lon="2.56561">
        <ele>95</ele>
        <time>2014-05-25T10:54:21Z</time>
      </trkpt>
      <trkpt lat="48.75405" lon="2.56562">
        <ele>95</ele>
        <time>2014-05-25T10:54:22Z</time>
      </trkpt>
      <trkpt lat="48.75405" lon="2.56563">
        <ele>95</ele>
        <time>2014-05-25T10:54:23Z</time>
      </trkpt>
      <trkpt lat="48.75405" lon="2.56565">
        <ele>96</ele>
        <time>2014-05-25T10:54:24Z</time>
      </trkpt>
      <trkpt lat="48.75405" lon="2.56566">
        <ele>97</ele>
        <time>2014-05-25T10:54:25Z</time>
      </trkpt>
      <trkpt lat="48.75405" lon="2.56567">
        <ele>97</ele>
        <time>2014-05-25T10:54:26Z</time>
      </trkpt>
      <trkpt lat="48.75405" lon="2.56569">
        <ele>96</ele>
        <time>2014-05-25T10:54:27Z</time>
      </trkpt>
      <trkpt lat="48.75405" lon="2.56571">
        <ele>93</ele>
        <time>2014-05-25T10:54:28Z</time>
      </trkpt>
      <trkpt lat="48.75405" lon="2.56574">
        <ele>93</ele>
        <time>2014-05-25T10:54:29Z</time>
      </trkpt>
      <trkpt lat="48.75405" lon="2.56577">
        <ele>93</ele>
        <time>2014-05-25T10:54:30Z</time>
      </trkpt>
      <trkpt lat="48.75406" lon="2.56584">
        <ele>91</ele>
        <time>2014-05-25T10:54:31Z</time>
      </trkpt>
      <trkpt lat="48.75406" lon="2.56587">
        <ele>91</ele>
        <time>2014-05-25T10:54:32Z</time>
      </trkpt>
      <trkpt lat="48.75406" lon="2.5659">
        <ele>91</ele>
        <time>2014-05-25T10:54:33Z</time>
      </trkpt>
      <trkpt lat="48.75406" lon="2.56592">
        <ele>91</ele>
        <time>2014-05-25T10:54:34Z</time>
      </trkpt>
      <trkpt lat="48.75406" lon="2.56595">
        <ele>93</ele>
        <time>2014-05-25T10:54:35Z</time>
      </trkpt>
      <trkpt lat="48.75407" lon="2.56598">
        <ele>92</ele>
        <time>2014-05-25T10:54:36Z</time>
      </trkpt>
      <trkpt lat="48.75408" lon="2.56601">
        <ele>91</ele>
        <time>2014-05-25T10:54:37Z</time>
      </trkpt>
      <trkpt lat="48.75408" lon="2.56602">
        <ele>92</ele>
        <time>2014-05-25T10:54:38Z</time>
      </trkpt>
      <trkpt lat="48.75408" lon="2.56604">
        <ele>91</ele>
        <time>2014-05-25T10:54:39Z</time>
      </trkpt>
      <trkpt lat="48.75408" lon="2.56605">
        <ele>92</ele>
        <time>2014-05-25T10:54:40Z</time>
      </trkpt>
      <trkpt lat="48.75408" lon="2.56607">
        <ele>92</ele>
        <time>2014-05-25T10:54:41Z</time>
      </trkpt>
      <trkpt lat="48.75408" lon="2.56609">
        <ele>92</ele>
        <time>2014-05-25T10:54:42Z</time>
      </trkpt>
      <trkpt lat="48.75408" lon="2.56612">
        <ele>93</ele>
        <time>2014-05-25T10:54:43Z</time>
      </trkpt>
      <trkpt lat="48.75408" lon="2.56615">
        <ele>92</ele>
        <time>2014-05-25T10:54:44Z</time>
      </trkpt>
      <trkpt lat="48.75408" lon="2.56618">
        <ele>92</ele>
        <time>2014-05-25T10:54:45Z</time>
      </trkpt>
      <trkpt lat="48.75408" lon="2.56622">
        <ele>92</ele>
        <time>2014-05-25T10:54:46Z</time>
      </trkpt>
      <trkpt lat="48.75408" lon="2.56625">
        <ele>94</ele>
        <time>2014-05-25T10:54:47Z</time>
      </trkpt>
      <trkpt lat="48.75408" lon="2.56629">
        <ele>94</ele>
        <time>2014-05-25T10:54:48Z</time>
      </trkpt>
      <trkpt lat="48.75409" lon="2.56632">
        <ele>93</ele>
        <time>2014-05-25T10:54:49Z</time>
      </trkpt>
      <trkpt lat="48.75409" lon="2.56636">
        <ele>93</ele>
        <time>2014-05-25T10:54:50Z</time>
      </trkpt>
      <trkpt lat="48.75409" lon="2.56639">
        <ele>93</ele>
        <time>2014-05-25T10:54:51Z</time>
      </trkpt>
      <trkpt lat="48.7541" lon="2.56642">
        <ele>93</ele>
        <time>2014-05-25T10:54:52Z</time>
      </trkpt>
      <trkpt lat="48.7541" lon="2.56646">
        <ele>92</ele>
        <time>2014-05-25T10:54:53Z</time>
      </trkpt>
      <trkpt lat="48.7541" lon="2.56649">
        <ele>92</ele>
        <time>2014-05-25T10:54:54Z</time>
      </trkpt>
      <trkpt lat="48.75411" lon="2.56652">
        <ele>90</ele>
        <time>2014-05-25T10:54:55Z</time>
      </trkpt>
      <trkpt lat="48.75411" lon="2.56655">
        <ele>91</ele>
        <time>2014-05-25T10:54:56Z</time>
      </trkpt>
      <trkpt lat="48.75411" lon="2.56659">
        <ele>90</ele>
        <time>2014-05-25T10:54:57Z</time>
      </trkpt>
      <trkpt lat="48.75412" lon="2.56661">
        <ele>89</ele>
        <time>2014-05-25T10:54:58Z</time>
      </trkpt>
      <trkpt lat="48.75412" lon="2.56664">
        <ele>90</ele>
        <time>2014-05-25T10:54:59Z</time>
      </trkpt>
      <trkpt lat="48.75412" lon="2.56666">
        <ele>90</ele>
        <time>2014-05-25T10:55:00Z</time>
      </trkpt>
      <trkpt lat="48.75413" lon="2.56669">
        <ele>90</ele>
        <time>2014-05-25T10:55:01Z</time>
      </trkpt>
      <trkpt lat="48.75413" lon="2.56671">
        <ele>90</ele>
        <time>2014-05-25T10:55:02Z</time>
      </trkpt>
      <trkpt lat="48.75413" lon="2.56674">
        <ele>92</ele>
        <time>2014-05-25T10:55:03Z</time>
      </trkpt>
      <trkpt lat="48.75413" lon="2.56676">
        <ele>94</ele>
        <time>2014-05-25T10:55:04Z</time>
      </trkpt>
      <trkpt lat="48.75413" lon="2.56678">
        <ele>96</ele>
        <time>2014-05-25T10:55:05Z</time>
      </trkpt>
      <trkpt lat="48.75414" lon="2.5668">
        <ele>96</ele>
        <time>2014-05-25T10:55:06Z</time>
      </trkpt>
      <trkpt lat="48.75414" lon="2.56681">
        <ele>96</ele>
        <time>2014-05-25T10:55:07Z</time>
      </trkpt>
      <trkpt lat="48.75414" lon="2.56684">
        <ele>95</ele>
        <time>2014-05-25T10:55:08Z</time>
      </trkpt>
      <trkpt lat="48.75414" lon="2.56686">
        <ele>96</ele>
        <time>2014-05-25T10:55:09Z</time>
      </trkpt>
      <trkpt lat="48.75414" lon="2.56689">
        <ele>97</ele>
        <time>2014-05-25T10:55:10Z</time>
      </trkpt>
      <trkpt lat="48.75414" lon="2.56691">
        <ele>111</ele>
        <time>2014-05-25T10:55:11Z</time>
      </trkpt>
      <trkpt lat="48.75414" lon="2.56693">
        <ele>109</ele>
        <time>2014-05-25T10:55:12Z</time>
      </trkpt>
      <trkpt lat="48.75414" lon="2.56696">
        <ele>107</ele>
        <time>2014-05-25T10:55:13Z</time>
      </trkpt>
      <trkpt lat="48.75414" lon="2.56699">
        <ele>105</ele>
        <time>2014-05-25T10:55:14Z</time>
      </trkpt>
      <trkpt lat="48.75414" lon="2.56701">
        <ele>104</ele>
        <time>2014-05-25T10:55:15Z</time>
      </trkpt>
      <trkpt lat="48.75414" lon="2.56704">
        <ele>103</ele>
        <time>2014-05-25T10:55:16Z</time>
      </trkpt>
      <trkpt lat="48.75414" lon="2.56706">
        <ele>103</ele>
        <time>2014-05-25T10:55:17Z</time>
      </trkpt>
      <trkpt lat="48.75414" lon="2.56709">
        <ele>104</ele>
        <time>2014-05-25T10:55:18Z</time>
      </trkpt>
      <trkpt lat="48.75413" lon="2.56711">
        <ele>103</ele>
        <time>2014-05-25T10:55:19Z</time>
      </trkpt>
      <trkpt lat="48.75413" lon="2.56714">
        <ele>104</ele>
        <time>2014-05-25T10:55:20Z</time>
      </trkpt>
      <trkpt lat="48.75413" lon="2.56717">
        <ele>105</ele>
        <time>2014-05-25T10:55:21Z</time>
      </trkpt>
      <trkpt lat="48.75412" lon="2.56719">
        <ele>106</ele>
        <time>2014-05-25T10:55:22Z</time>
      </trkpt>
      <trkpt lat="48.75412" lon="2.56722">
        <ele>106</ele>
        <time>2014-05-25T10:55:23Z</time>
      </trkpt>
      <trkpt lat="48.75412" lon="2.56724">
        <ele>105</ele>
        <time>2014-05-25T10:55:24Z</time>
      </trkpt>
      <trkpt lat="48.75412" lon="2.56727">
        <ele>105</ele>
        <time>2014-05-25T10:55:25Z</time>
      </trkpt>
      <trkpt lat="48.75412" lon="2.5673">
        <ele>105</ele>
        <time>2014-05-25T10:55:26Z</time>
      </trkpt>
      <trkpt lat="48.75412" lon="2.56732">
        <ele>105</ele>
        <time>2014-05-25T10:55:27Z</time>
      </trkpt>
      <trkpt lat="48.75412" lon="2.56734">
        <ele>105</ele>
        <time>2014-05-25T10:55:28Z</time>
      </trkpt>
      <trkpt lat="48.75412" lon="2.56736">
        <ele>107</ele>
        <time>2014-05-25T10:55:29Z</time>
      </trkpt>
      <trkpt lat="48.75412" lon="2.56738">
        <ele>105</ele>
        <time>2014-05-25T10:55:30Z</time>
      </trkpt>
      <trkpt lat="48.75412" lon="2.5674">
        <ele>105</ele>
        <time>2014-05-25T10:55:31Z</time>
      </trkpt>
      <trkpt lat="48.75412" lon="2.56743">
        <ele>104</ele>
        <time>2014-05-25T10:55:32Z</time>
      </trkpt>
      <trkpt lat="48.75412" lon="2.56745">
        <ele>104</ele>
        <time>2014-05-25T10:55:33Z</time>
      </trkpt>
      <trkpt lat="48.75412" lon="2.56747">
        <ele>105</ele>
        <time>2014-05-25T10:55:34Z</time>
      </trkpt>
      <trkpt lat="48.75412" lon="2.56749">
        <ele>105</ele>
        <time>2014-05-25T10:55:35Z</time>
      </trkpt>
      <trkpt lat="48.75412" lon="2.5675">
        <ele>105</ele>
        <time>2014-05-25T10:55:36Z</time>
      </trkpt>
      <trkpt lat="48.75412" lon="2.56752">
        <ele>105</ele>
        <time>2014-05-25T10:55:37Z</time>
      </trkpt>
      <trkpt lat="48.75412" lon="2.56754">
        <ele>105</ele>
        <time>2014-05-25T10:55:38Z</time>
      </trkpt>
      <trkpt lat="48.75412" lon="2.56756">
        <ele>105</ele>
        <time>2014-05-25T10:55:39Z</time>
      </trkpt>
      <trkpt lat="48.75412" lon="2.56759">
        <ele>105</ele>
        <time>2014-05-25T10:55:40Z</time>
      </trkpt>
      <trkpt lat="48.75413" lon="2.56761">
        <ele>106</ele>
        <time>2014-05-25T10:55:41Z</time>
      </trkpt>
      <trkpt lat="48.75413" lon="2.56763">
        <ele>106</ele>
        <time>2014-05-25T10:55:42Z</time>
      </trkpt>
      <trkpt lat="48.75414" lon="2.56766">
        <ele>107</ele>
        <time>2014-05-25T10:55:43Z</time>
      </trkpt>
      <trkpt lat="48.75414" lon="2.56768">
        <ele>106</ele>
        <time>2014-05-25T10:55:44Z</time>
      </trkpt>
      <trkpt lat="48.75415" lon="2.5677">
        <ele>107</ele>
        <time>2014-05-25T10:55:45Z</time>
      </trkpt>
      <trkpt lat="48.75415" lon="2.56772">
        <ele>107</ele>
        <time>2014-05-25T10:55:46Z</time>
      </trkpt>
      <trkpt lat="48.75415" lon="2.56775">
        <ele>107</ele>
        <time>2014-05-25T10:55:47Z</time>
      </trkpt>
      <trkpt lat="48.75415" lon="2.56777">
        <ele>108</ele>
        <time>2014-05-25T10:55:48Z</time>
      </trkpt>
      <trkpt lat="48.75415" lon="2.56779">
        <ele>109</ele>
        <time>2014-05-25T10:55:49Z</time>
      </trkpt>
      <trkpt lat="48.75415" lon="2.56782">
        <ele>109</ele>
        <time>2014-05-25T10:55:50Z</time>
      </trkpt>
      <trkpt lat="48.75415" lon="2.56784">
        <ele>110</ele>
        <time>2014-05-25T10:55:51Z</time>
      </trkpt>
      <trkpt lat="48.75415" lon="2.56787">
        <ele>110</ele>
        <time>2014-05-25T10:55:52Z</time>
      </trkpt>
      <trkpt lat="48.75415" lon="2.56789">
        <ele>110</ele>
        <time>2014-05-25T10:55:53Z</time>
      </trkpt>
      <trkpt lat="48.75415" lon="2.56792">
        <ele>110</ele>
        <time>2014-05-25T10:55:54Z</time>
      </trkpt>
      <trkpt lat="48.75415" lon="2.56795">
        <ele>111</ele>
        <time>2014-05-25T10:55:55Z</time>
      </trkpt>
      <trkpt lat="48.75415" lon="2.56798">
        <ele>111</ele>
        <time>2014-05-25T10:55:56Z</time>
      </trkpt>
      <trkpt lat="48.75415" lon="2.56801">
        <ele>110</ele>
        <time>2014-05-25T10:55:57Z</time>
      </trkpt>
      <trkpt lat="48.75415" lon="2.56804">
        <ele>109</ele>
        <time>2014-05-25T10:55:58Z</time>
      </trkpt>
      <trkpt lat="48.75415" lon="2.56806">
        <ele>109</ele>
        <time>2014-05-25T10:55:59Z</time>
      </trkpt>
      <trkpt lat="48.75415" lon="2.56809">
        <ele>108</ele>
        <time>2014-05-25T10:56:00Z</time>
      </trkpt>
      <trkpt lat="48.75415" lon="2.56812">
        <ele>107</ele>
        <time>2014-05-25T10:56:01Z</time>
      </trkpt>
      <trkpt lat="48.75415" lon="2.56814">
        <ele>107</ele>
        <time>2014-05-25T10:56:02Z</time>
      </trkpt>
      <trkpt lat="48.75415" lon="2.56817">
        <ele>108</ele>
        <time>2014-05-25T10:56:03Z</time>
      </trkpt>
      <trkpt lat="48.75415" lon="2.56819">
        <ele>108</ele>
        <time>2014-05-25T10:56:04Z</time>
      </trkpt>
      <trkpt lat="48.75415" lon="2.56822">
        <ele>108</ele>
        <time>2014-05-25T10:56:05Z</time>
      </trkpt>
      <trkpt lat="48.75415" lon="2.56824">
        <ele>108</ele>
        <time>2014-05-25T10:56:06Z</time>
      </trkpt>
      <trkpt lat="48.75415" lon="2.56827">
        <ele>107</ele>
        <time>2014-05-25T10:56:07Z</time>
      </trkpt>
      <trkpt lat="48.75415" lon="2.56829">
        <ele>106</ele>
        <time>2014-05-25T10:56:08Z</time>
      </trkpt>
      <trkpt lat="48.75415" lon="2.56832">
        <ele>105</ele>
        <time>2014-05-25T10:56:09Z</time>
      </trkpt>
      <trkpt lat="48.75415" lon="2.56834">
        <ele>103</ele>
        <time>2014-05-25T10:56:10Z</time>
      </trkpt>
      <trkpt lat="48.75415" lon="2.56837">
        <ele>102</ele>
        <time>2014-05-25T10:56:11Z</time>
      </trkpt>
      <trkpt lat="48.75415" lon="2.56839">
        <ele>104</ele>
        <time>2014-05-25T10:56:12Z</time>
      </trkpt>
      <trkpt lat="48.75415" lon="2.56842">
        <ele>104</ele>
        <time>2014-05-25T10:56:13Z</time>
      </trkpt>
      <trkpt lat="48.75414" lon="2.56844">
        <ele>104</ele>
        <time>2014-05-25T10:56:14Z</time>
      </trkpt>
      <trkpt lat="48.75414" lon="2.56846">
        <ele>104</ele>
        <time>2014-05-25T10:56:15Z</time>
      </trkpt>
      <trkpt lat="48.75414" lon="2.56848">
        <ele>105</ele>
        <time>2014-05-25T10:56:16Z</time>
      </trkpt>
      <trkpt lat="48.75414" lon="2.5685">
        <ele>106</ele>
        <time>2014-05-25T10:56:17Z</time>
      </trkpt>
      <trkpt lat="48.75414" lon="2.56851">
        <ele>106</ele>
        <time>2014-05-25T10:56:18Z</time>
      </trkpt>
      <trkpt lat="48.75414" lon="2.56853">
        <ele>107</ele>
        <time>2014-05-25T10:56:19Z</time>
      </trkpt>
      <trkpt lat="48.75414" lon="2.56854">
        <ele>108</ele>
        <time>2014-05-25T10:56:20Z</time>
      </trkpt>
      <trkpt lat="48.75415" lon="2.56855">
        <ele>109</ele>
        <time>2014-05-25T10:56:21Z</time>
      </trkpt>
      <trkpt lat="48.75415" lon="2.56856">
        <ele>109</ele>
        <time>2014-05-25T10:56:22Z</time>
      </trkpt>
      <trkpt lat="48.75415" lon="2.56857">
        <ele>109</ele>
        <time>2014-05-25T10:56:23Z</time>
      </trkpt>
      <trkpt lat="48.75415" lon="2.56859">
        <ele>110</ele>
        <time>2014-05-25T10:56:24Z</time>
      </trkpt>
      <trkpt lat="48.75416" lon="2.5686">
        <ele>109</ele>
        <time>2014-05-25T10:56:25Z</time>
      </trkpt>
      <trkpt lat="48.75415" lon="2.56863">
        <ele>108</ele>
        <time>2014-05-25T10:56:26Z</time>
      </trkpt>
      <trkpt lat="48.75415" lon="2.56865">
        <ele>107</ele>
        <time>2014-05-25T10:56:27Z</time>
      </trkpt>
      <trkpt lat="48.75415" lon="2.56867">
        <ele>106</ele>
        <time>2014-05-25T10:56:28Z</time>
      </trkpt>
      <trkpt lat="48.75414" lon="2.56868">
        <ele>105</ele>
        <time>2014-05-25T10:56:29Z</time>
      </trkpt>
      <trkpt lat="48.75413" lon="2.5687">
        <ele>105</ele>
        <time>2014-05-25T10:56:30Z</time>
      </trkpt>
      <trkpt lat="48.75412" lon="2.56871">
        <ele>104</ele>
        <time>2014-05-25T10:56:31Z</time>
      </trkpt>
      <trkpt lat="48.75411" lon="2.56872">
        <ele>103</ele>
        <time>2014-05-25T10:56:32Z</time>
      </trkpt>
      <trkpt lat="48.75411" lon="2.56872">
        <ele>101</ele>
        <time>2014-05-25T10:56:33Z</time>
      </trkpt>
      <trkpt lat="48.7541" lon="2.56872">
        <ele>101</ele>
        <time>2014-05-25T10:56:34Z</time>
      </trkpt>
      <trkpt lat="48.7541" lon="2.56872">
        <ele>101</ele>
        <time>2014-05-25T10:56:35Z</time>
      </trkpt>
      <trkpt lat="48.75409" lon="2.56871">
        <ele>102</ele>
        <time>2014-05-25T10:56:36Z</time>
      </trkpt>
      <trkpt lat="48.75408" lon="2.56871">
        <ele>102</ele>
        <time>2014-05-25T10:56:37Z</time>
      </trkpt>
      <trkpt lat="48.75408" lon="2.56871">
        <ele>102</ele>
        <time>2014-05-25T10:56:38Z</time>
      </trkpt>
      <trkpt lat="48.75407" lon="2.5687">
        <ele>102</ele>
        <time>2014-05-25T10:56:39Z</time>
      </trkpt>
      <trkpt lat="48.75406" lon="2.5687">
        <ele>102</ele>
        <time>2014-05-25T10:56:40Z</time>
      </trkpt>
      <trkpt lat="48.75405" lon="2.56869">
        <ele>102</ele>
        <time>2014-05-25T10:56:41Z</time>
      </trkpt>
      <trkpt lat="48.75404" lon="2.56869">
        <ele>102</ele>
        <time>2014-05-25T10:56:42Z</time>
      </trkpt>
      <trkpt lat="48.75403" lon="2.56868">
        <ele>102</ele>
        <time>2014-05-25T10:56:43Z</time>
      </trkpt>
      <trkpt lat="48.75402" lon="2.56868">
        <ele>103</ele>
        <time>2014-05-25T10:56:44Z</time>
      </trkpt>
      <trkpt lat="48.75401" lon="2.56868">
        <ele>104</ele>
        <time>2014-05-25T10:56:45Z</time>
      </trkpt>
      <trkpt lat="48.754" lon="2.56867">
        <ele>105</ele>
        <time>2014-05-25T10:56:46Z</time>
      </trkpt>
      <trkpt lat="48.75399" lon="2.56866">
        <ele>105</ele>
        <time>2014-05-25T10:56:47Z</time>
      </trkpt>
      <trkpt lat="48.75398" lon="2.56866">
        <ele>105</ele>
        <time>2014-05-25T10:56:48Z</time>
      </trkpt>
      <trkpt lat="48.75396" lon="2.56865">
        <ele>106</ele>
        <time>2014-05-25T10:56:49Z</time>
      </trkpt>
      <trkpt lat="48.75395" lon="2.56865">
        <ele>107</ele>
        <time>2014-05-25T10:56:50Z</time>
      </trkpt>
      <trkpt lat="48.75394" lon="2.56864">
        <ele>107</ele>
        <time>2014-05-25T10:56:51Z</time>
      </trkpt>
      <trkpt lat="48.75393" lon="2.56863">
        <ele>107</ele>
        <time>2014-05-25T10:56:52Z</time>
      </trkpt>
      <trkpt lat="48.75391" lon="2.56862">
        <ele>107</ele>
        <time>2014-05-25T10:56:53Z</time>
      </trkpt>
      <trkpt lat="48.7539" lon="2.56861">
        <ele>107</ele>
        <time>2014-05-25T10:56:54Z</time>
      </trkpt>
      <trkpt lat="48.75389" lon="2.5686">
        <ele>107</ele>
        <time>2014-05-25T10:56:55Z</time>
      </trkpt>
      <trkpt lat="48.75388" lon="2.56859">
        <ele>107</ele>
        <time>2014-05-25T10:56:56Z</time>
      </trkpt>
      <trkpt lat="48.75386" lon="2.56857">
        <ele>108</ele>
        <time>2014-05-25T10:56:57Z</time>
      </trkpt>
      <trkpt lat="48.75385" lon="2.56856">
        <ele>108</ele>
        <time>2014-05-25T10:56:58Z</time>
      </trkpt>
      <trkpt lat="48.75384" lon="2.56855">
        <ele>108</ele>
        <time>2014-05-25T10:56:59Z</time>
      </trkpt>
      <trkpt lat="48.75383" lon="2.56854">
        <ele>109</ele>
        <time>2014-05-25T10:57:00Z</time>
      </trkpt>
      <trkpt lat="48.75381" lon="2.56852">
        <ele>109</ele>
        <time>2014-05-25T10:57:01Z</time>
      </trkpt>
      <trkpt lat="48.7538" lon="2.56851">
        <ele>109</ele>
        <time>2014-05-25T10:57:02Z</time>
      </trkpt>
      <trkpt lat="48.75379" lon="2.5685">
        <ele>109</ele>
        <time>2014-05-25T10:57:03Z</time>
      </trkpt>
      <trkpt lat="48.75377" lon="2.56849">
        <ele>109</ele>
        <time>2014-05-25T10:57:04Z</time>
      </trkpt>
      <trkpt lat="48.75376" lon="2.56847">
        <ele>109</ele>
        <time>2014-05-25T10:57:05Z</time>
      </trkpt>
      <trkpt lat="48.75375" lon="2.56846">
        <ele>109</ele>
        <time>2014-05-25T10:57:06Z</time>
      </trkpt>
      <trkpt lat="48.75374" lon="2.56845">
        <ele>109</ele>
        <time>2014-05-25T10:57:07Z</time>
      </trkpt>
      <trkpt lat="48.75372" lon="2.56844">
        <ele>110</ele>
        <time>2014-05-25T10:57:08Z</time>
      </trkpt>
      <trkpt lat="48.75371" lon="2.56842">
        <ele>110</ele>
        <time>2014-05-25T10:57:09Z</time>
      </trkpt>
      <trkpt lat="48.7537" lon="2.56841">
        <ele>110</ele>
        <time>2014-05-25T10:57:10Z</time>
      </trkpt>
      <trkpt lat="48.75369" lon="2.5684">
        <ele>110</ele>
        <time>2014-05-25T10:57:11Z</time>
      </trkpt>
      <trkpt lat="48.75367" lon="2.56839">
        <ele>110</ele>
        <time>2014-05-25T10:57:12Z</time>
      </trkpt>
      <trkpt lat="48.75366" lon="2.56838">
        <ele>110</ele>
        <time>2014-05-25T10:57:13Z</time>
      </trkpt>
      <trkpt lat="48.75365" lon="2.56837">
        <ele>111</ele>
        <time>2014-05-25T10:57:14Z</time>
      </trkpt>
      <trkpt lat="48.75363" lon="2.56836">
        <ele>111</ele>
        <time>2014-05-25T10:57:15Z</time>
      </trkpt>
      <trkpt lat="48.75362" lon="2.56835">
        <ele>111</ele>
        <time>2014-05-25T10:57:16Z</time>
      </trkpt>
      <trkpt lat="48.75361" lon="2.56834">
        <ele>111</ele>
        <time>2014-05-25T10:57:17Z</time>
      </trkpt>
      <trkpt lat="48.7536" lon="2.56832">
        <ele>112</ele>
        <time>2014-05-25T10:57:18Z</time>
      </trkpt>
      <trkpt lat="48.75359" lon="2.56831">
        <ele>112</ele>
        <time>2014-05-25T10:57:19Z</time>
      </trkpt>
      <trkpt lat="48.75357" lon="2.5683">
        <ele>113</ele>
        <time>2014-05-25T10:57:20Z</time>
      </trkpt>
      <trkpt lat="48.75356" lon="2.56829">
        <ele>113</ele>
        <time>2014-05-25T10:57:21Z</time>
      </trkpt>
      <trkpt lat="48.75355" lon="2.56828">
        <ele>113</ele>
        <time>2014-05-25T10:57:22Z</time>
      </trkpt>
      <trkpt lat="48.75354" lon="2.56827">
        <ele>113</ele>
        <time>2014-05-25T10:57:23Z</time>
      </trkpt>
      <trkpt lat="48.75352" lon="2.56826">
        <ele>114</ele>
        <time>2014-05-25T10:57:24Z</time>
      </trkpt>
      <trkpt lat="48.75351" lon="2.56824">
        <ele>114</ele>
        <time>2014-05-25T10:57:25Z</time>
      </trkpt>
      <trkpt lat="48.7535" lon="2.56823">
        <ele>113</ele>
        <time>2014-05-25T10:57:26Z</time>
      </trkpt>
      <trkpt lat="48.75349" lon="2.56822">
        <ele>113</ele>
        <time>2014-05-25T10:57:27Z</time>
      </trkpt>
      <trkpt lat="48.75348" lon="2.56821">
        <ele>112</ele>
        <time>2014-05-25T10:57:28Z</time>
      </trkpt>
      <trkpt lat="48.75347" lon="2.5682">
        <ele>111</ele>
        <time>2014-05-25T10:57:29Z</time>
      </trkpt>
      <trkpt lat="48.75345" lon="2.56819">
        <ele>111</ele>
        <time>2014-05-25T10:57:30Z</time>
      </trkpt>
      <trkpt lat="48.75344" lon="2.56817">
        <ele>112</ele>
        <time>2014-05-25T10:57:31Z</time>
      </trkpt>
      <trkpt lat="48.75343" lon="2.56816">
        <ele>112</ele>
        <time>2014-05-25T10:57:32Z</time>
      </trkpt>
      <trkpt lat="48.75342" lon="2.56815">
        <ele>112</ele>
        <time>2014-05-25T10:57:33Z</time>
      </trkpt>
      <trkpt lat="48.75341" lon="2.56814">
        <ele>112</ele>
        <time>2014-05-25T10:57:34Z</time>
      </trkpt>
      <trkpt lat="48.7534" lon="2.56813">
        <ele>113</ele>
        <time>2014-05-25T10:57:35Z</time>
      </trkpt>
      <trkpt lat="48.75338" lon="2.56813">
        <ele>112</ele>
        <time>2014-05-25T10:57:36Z</time>
      </trkpt>
      <trkpt lat="48.75337" lon="2.56812">
        <ele>113</ele>
        <time>2014-05-25T10:57:37Z</time>
      </trkpt>
      <trkpt lat="48.75336" lon="2.56812">
        <ele>113</ele>
        <time>2014-05-25T10:57:38Z</time>
      </trkpt>
      <trkpt lat="48.75335" lon="2.5681">
        <ele>113</ele>
        <time>2014-05-25T10:57:39Z</time>
      </trkpt>
      <trkpt lat="48.75334" lon="2.56809">
        <ele>114</ele>
        <time>2014-05-25T10:57:40Z</time>
      </trkpt>
      <trkpt lat="48.75333" lon="2.56808">
        <ele>114</ele>
        <time>2014-05-25T10:57:41Z</time>
      </trkpt>
      <trkpt lat="48.75331" lon="2.56807">
        <ele>114</ele>
        <time>2014-05-25T10:57:42Z</time>
      </trkpt>
      <trkpt lat="48.7533" lon="2.56806">
        <ele>115</ele>
        <time>2014-05-25T10:57:43Z</time>
      </trkpt>
      <trkpt lat="48.75329" lon="2.56805">
        <ele>114</ele>
        <time>2014-05-25T10:57:44Z</time>
      </trkpt>
      <trkpt lat="48.75328" lon="2.56804">
        <ele>114</ele>
        <time>2014-05-25T10:57:45Z</time>
      </trkpt>
      <trkpt lat="48.75326" lon="2.56802">
        <ele>115</ele>
        <time>2014-05-25T10:57:46Z</time>
      </trkpt>
      <trkpt lat="48.75325" lon="2.56801">
        <ele>115</ele>
        <time>2014-05-25T10:57:47Z</time>
      </trkpt>
      <trkpt lat="48.75324" lon="2.568">
        <ele>114</ele>
        <time>2014-05-25T10:57:48Z</time>
      </trkpt>
      <trkpt lat="48.75323" lon="2.56798">
        <ele>115</ele>
        <time>2014-05-25T10:57:49Z</time>
      </trkpt>
      <trkpt lat="48.75321" lon="2.56797">
        <ele>115</ele>
        <time>2014-05-25T10:57:50Z</time>
      </trkpt>
      <trkpt lat="48.7532" lon="2.56796">
        <ele>115</ele>
        <time>2014-05-25T10:57:51Z</time>
      </trkpt>
      <trkpt lat="48.75319" lon="2.56794">
        <ele>114</ele>
        <time>2014-05-25T10:57:52Z</time>
      </trkpt>
      <trkpt lat="48.75318" lon="2.56793">
        <ele>114</ele>
        <time>2014-05-25T10:57:53Z</time>
      </trkpt>
      <trkpt lat="48.75317" lon="2.56791">
        <ele>114</ele>
        <time>2014-05-25T10:57:54Z</time>
      </trkpt>
      <trkpt lat="48.75315" lon="2.56789">
        <ele>114</ele>
        <time>2014-05-25T10:57:55Z</time>
      </trkpt>
      <trkpt lat="48.75314" lon="2.56788">
        <ele>114</ele>
        <time>2014-05-25T10:57:56Z</time>
      </trkpt>
      <trkpt lat="48.75313" lon="2.56787">
        <ele>114</ele>
        <time>2014-05-25T10:57:57Z</time>
      </trkpt>
      <trkpt lat="48.75312" lon="2.56785">
        <ele>114</ele>
        <time>2014-05-25T10:57:58Z</time>
      </trkpt>
      <trkpt lat="48.75311" lon="2.56784">
        <ele>114</ele>
        <time>2014-05-25T10:57:59Z</time>
      </trkpt>
      <trkpt lat="48.75309" lon="2.56783">
        <ele>114</ele>
        <time>2014-05-25T10:58:00Z</time>
      </trkpt>
      <trkpt lat="48.75308" lon="2.56781">
        <ele>113</ele>
        <time>2014-05-25T10:58:01Z</time>
      </trkpt>
      <trkpt lat="48.75307" lon="2.5678">
        <ele>114</ele>
        <time>2014-05-25T10:58:02Z</time>
      </trkpt>
      <trkpt lat="48.75306" lon="2.56779">
        <ele>115</ele>
        <time>2014-05-25T10:58:03Z</time>
      </trkpt>
      <trkpt lat="48.75304" lon="2.56778">
        <ele>115</ele>
        <time>2014-05-25T10:58:04Z</time>
      </trkpt>
      <trkpt lat="48.75303" lon="2.56777">
        <ele>116</ele>
        <time>2014-05-25T10:58:05Z</time>
      </trkpt>
      <trkpt lat="48.75302" lon="2.56776">
        <ele>115</ele>
        <time>2014-05-25T10:58:06Z</time>
      </trkpt>
      <trkpt lat="48.75301" lon="2.56775">
        <ele>115</ele>
        <time>2014-05-25T10:58:07Z</time>
      </trkpt>
      <trkpt lat="48.753" lon="2.56773">
        <ele>115</ele>
        <time>2014-05-25T10:58:08Z</time>
      </trkpt>
      <trkpt lat="48.75299" lon="2.56771">
        <ele>115</ele>
        <time>2014-05-25T10:58:09Z</time>
      </trkpt>
      <trkpt lat="48.75298" lon="2.5677">
        <ele>114</ele>
        <time>2014-05-25T10:58:10Z</time>
      </trkpt>
      <trkpt lat="48.75297" lon="2.56769">
        <ele>114</ele>
        <time>2014-05-25T10:58:11Z</time>
      </trkpt>
      <trkpt lat="48.75296" lon="2.56767">
        <ele>114</ele>
        <time>2014-05-25T10:58:12Z</time>
      </trkpt>
      <trkpt lat="48.75295" lon="2.56766">
        <ele>113</ele>
        <time>2014-05-25T10:58:13Z</time>
      </trkpt>
      <trkpt lat="48.75293" lon="2.56765">
        <ele>113</ele>
        <time>2014-05-25T10:58:14Z</time>
      </trkpt>
      <trkpt lat="48.75292" lon="2.56764">
        <ele>114</ele>
        <time>2014-05-25T10:58:15Z</time>
      </trkpt>
      <trkpt lat="48.75291" lon="2.56763">
        <ele>114</ele>
        <time>2014-05-25T10:58:16Z</time>
      </trkpt>
      <trkpt lat="48.7529" lon="2.56761">
        <ele>114</ele>
        <time>2014-05-25T10:58:17Z</time>
      </trkpt>
      <trkpt lat="48.75288" lon="2.5676">
        <ele>114</ele>
        <time>2014-05-25T10:58:18Z</time>
      </trkpt>
      <trkpt lat="48.75287" lon="2.56759">
        <ele>114</ele>
        <time>2014-05-25T10:58:19Z</time>
      </trkpt>
      <trkpt lat="48.75286" lon="2.56758">
        <ele>114</ele>
        <time>2014-05-25T10:58:20Z</time>
      </trkpt>
      <trkpt lat="48.75284" lon="2.56757">
        <ele>115</ele>
        <time>2014-05-25T10:58:21Z</time>
      </trkpt>
      <trkpt lat="48.75283" lon="2.56756">
        <ele>114</ele>
        <time>2014-05-25T10:58:22Z</time>
      </trkpt>
      <trkpt lat="48.75282" lon="2.56754">
        <ele>114</ele>
        <time>2014-05-25T10:58:23Z</time>
      </trkpt>
      <trkpt lat="48.75281" lon="2.56753">
        <ele>114</ele>
        <time>2014-05-25T10:58:24Z</time>
      </trkpt>
      <trkpt lat="48.7528" lon="2.56752">
        <ele>113</ele>
        <time>2014-05-25T10:58:25Z</time>
      </trkpt>
      <trkpt lat="48.75279" lon="2.5675">
        <ele>113</ele>
        <time>2014-05-25T10:58:26Z</time>
      </trkpt>
      <trkpt lat="48.75278" lon="2.56749">
        <ele>112</ele>
        <time>2014-05-25T10:58:27Z</time>
      </trkpt>
      <trkpt lat="48.75277" lon="2.56747">
        <ele>111</ele>
        <time>2014-05-25T10:58:28Z</time>
      </trkpt>
      <trkpt lat="48.75276" lon="2.56746">
        <ele>111</ele>
        <time>2014-05-25T10:58:29Z</time>
      </trkpt>
      <trkpt lat="48.75274" lon="2.56745">
        <ele>111</ele>
        <time>2014-05-25T10:58:30Z</time>
      </trkpt>
      <trkpt lat="48.75273" lon="2.56744">
        <ele>111</ele>
        <time>2014-05-25T10:58:31Z</time>
      </trkpt>
      <trkpt lat="48.75272" lon="2.56743">
        <ele>111</ele>
        <time>2014-05-25T10:58:32Z</time>
      </trkpt>
      <trkpt lat="48.75271" lon="2.56741">
        <ele>110</ele>
        <time>2014-05-25T10:58:33Z</time>
      </trkpt>
      <trkpt lat="48.75269" lon="2.5674">
        <ele>110</ele>
        <time>2014-05-25T10:58:34Z</time>
      </trkpt>
      <trkpt lat="48.75268" lon="2.56739">
        <ele>110</ele>
        <time>2014-05-25T10:58:35Z</time>
      </trkpt>
      <trkpt lat="48.75267" lon="2.56738">
        <ele>110</ele>
        <time>2014-05-25T10:58:36Z</time>
      </trkpt>
      <trkpt lat="48.75266" lon="2.56736">
        <ele>110</ele>
        <time>2014-05-25T10:58:37Z</time>
      </trkpt>
      <trkpt lat="48.75265" lon="2.56735">
        <ele>110</ele>
        <time>2014-05-25T10:58:38Z</time>
      </trkpt>
      <trkpt lat="48.75263" lon="2.56734">
        <ele>110</ele>
        <time>2014-05-25T10:58:39Z</time>
      </trkpt>
      <trkpt lat="48.75262" lon="2.56733">
        <ele>110</ele>
        <time>2014-05-25T10:58:40Z</time>
      </trkpt>
      <trkpt lat="48.75261" lon="2.56732">
        <ele>109</ele>
        <time>2014-05-25T10:58:41Z</time>
      </trkpt>
      <trkpt lat="48.75259" lon="2.56731">
        <ele>110</ele>
        <time>2014-05-25T10:58:42Z</time>
      </trkpt>
      <trkpt lat="48.75258" lon="2.5673">
        <ele>111</ele>
        <time>2014-05-25T10:58:43Z</time>
      </trkpt>
      <trkpt lat="48.75257" lon="2.56729">
        <ele>111</ele>
        <time>2014-05-25T10:58:44Z</time>
      </trkpt>
      <trkpt lat="48.75256" lon="2.56727">
        <ele>110</ele>
        <time>2014-05-25T10:58:45Z</time>
      </trkpt>
      <trkpt lat="48.75255" lon="2.56726">
        <ele>110</ele>
        <time>2014-05-25T10:58:46Z</time>
      </trkpt>
      <trkpt lat="48.75253" lon="2.56725">
        <ele>110</ele>
        <time>2014-05-25T10:58:47Z</time>
      </trkpt>
      <trkpt lat="48.75252" lon="2.56724">
        <ele>110</ele>
        <time>2014-05-25T10:58:48Z</time>
      </trkpt>
      <trkpt lat="48.75251" lon="2.56724">
        <ele>110</ele>
        <time>2014-05-25T10:58:49Z</time>
      </trkpt>
      <trkpt lat="48.7525" lon="2.56723">
        <ele>110</ele>
        <time>2014-05-25T10:58:50Z</time>
      </trkpt>
      <trkpt lat="48.75248" lon="2.56722">
        <ele>110</ele>
        <time>2014-05-25T10:58:51Z</time>
      </trkpt>
      <trkpt lat="48.75247" lon="2.5672">
        <ele>110</ele>
        <time>2014-05-25T10:58:52Z</time>
      </trkpt>
      <trkpt lat="48.75246" lon="2.56719">
        <ele>110</ele>
        <time>2014-05-25T10:58:53Z</time>
      </trkpt>
      <trkpt lat="48.75245" lon="2.56718">
        <ele>110</ele>
        <time>2014-05-25T10:58:54Z</time>
      </trkpt>
      <trkpt lat="48.75243" lon="2.56716">
        <ele>111</ele>
        <time>2014-05-25T10:58:55Z</time>
      </trkpt>
      <trkpt lat="48.75242" lon="2.56715">
        <ele>111</ele>
        <time>2014-05-25T10:58:56Z</time>
      </trkpt>
      <trkpt lat="48.75241" lon="2.56714">
        <ele>111</ele>
        <time>2014-05-25T10:58:57Z</time>
      </trkpt>
      <trkpt lat="48.7524" lon="2.56713">
        <ele>111</ele>
        <time>2014-05-25T10:58:58Z</time>
      </trkpt>
      <trkpt lat="48.75238" lon="2.56712">
        <ele>112</ele>
        <time>2014-05-25T10:58:59Z</time>
      </trkpt>
      <trkpt lat="48.75237" lon="2.5671">
        <ele>113</ele>
        <time>2014-05-25T10:59:00Z</time>
      </trkpt>
      <trkpt lat="48.75236" lon="2.56709">
        <ele>114</ele>
        <time>2014-05-25T10:59:01Z</time>
      </trkpt>
      <trkpt lat="48.75236" lon="2.56709">
        <ele>115</ele>
        <time>2014-05-25T10:59:02Z</time>
      </trkpt>
      <trkpt lat="48.75235" lon="2.56708">
        <ele>115</ele>
        <time>2014-05-25T10:59:03Z</time>
      </trkpt>
      <trkpt lat="48.75234" lon="2.56707">
        <ele>116</ele>
        <time>2014-05-25T10:59:04Z</time>
      </trkpt>
      <trkpt lat="48.75234" lon="2.56705">
        <ele>116</ele>
        <time>2014-05-25T10:59:05Z</time>
      </trkpt>
      <trkpt lat="48.75233" lon="2.56704">
        <ele>116</ele>
        <time>2014-05-25T10:59:06Z</time>
      </trkpt>
      <trkpt lat="48.75232" lon="2.56703">
        <ele>116</ele>
        <time>2014-05-25T10:59:07Z</time>
      </trkpt>
      <trkpt lat="48.75231" lon="2.56701">
        <ele>115</ele>
        <time>2014-05-25T10:59:08Z</time>
      </trkpt>
      <trkpt lat="48.7523" lon="2.567">
        <ele>115</ele>
        <time>2014-05-25T10:59:09Z</time>
      </trkpt>
      <trkpt lat="48.75229" lon="2.56699">
        <ele>114</ele>
        <time>2014-05-25T10:59:10Z</time>
      </trkpt>
      <trkpt lat="48.75228" lon="2.56698">
        <ele>113</ele>
        <time>2014-05-25T10:59:11Z</time>
      </trkpt>
      <trkpt lat="48.75227" lon="2.56696">
        <ele>113</ele>
        <time>2014-05-25T10:59:12Z</time>
      </trkpt>
      <trkpt lat="48.75225" lon="2.56695">
        <ele>113</ele>
        <time>2014-05-25T10:59:13Z</time>
      </trkpt>
      <trkpt lat="48.75224" lon="2.56694">
        <ele>112</ele>
        <time>2014-05-25T10:59:14Z</time>
      </trkpt>
      <trkpt lat="48.75222" lon="2.56693">
        <ele>113</ele>
        <time>2014-05-25T10:59:15Z</time>
      </trkpt>
      <trkpt lat="48.75221" lon="2.56692">
        <ele>113</ele>
        <time>2014-05-25T10:59:16Z</time>
      </trkpt>
      <trkpt lat="48.7522" lon="2.56691">
        <ele>114</ele>
        <time>2014-05-25T10:59:17Z</time>
      </trkpt>
      <trkpt lat="48.75219" lon="2.5669">
        <ele>113</ele>
        <time>2014-05-25T10:59:18Z</time>
      </trkpt>
      <trkpt lat="48.75217" lon="2.56689">
        <ele>113</ele>
        <time>2014-05-25T10:59:19Z</time>
      </trkpt>
      <trkpt lat="48.75216" lon="2.56688">
        <ele>112</ele>
        <time>2014-05-25T10:59:20Z</time>
      </trkpt>
      <trkpt lat="48.75215" lon="2.56686">
        <ele>112</ele>
        <time>2014-05-25T10:59:21Z</time>
      </trkpt>
      <trkpt lat="48.75214" lon="2.56685">
        <ele>111</ele>
        <time>2014-05-25T10:59:22Z</time>
      </trkpt>
      <trkpt lat="48.75213" lon="2.56684">
        <ele>111</ele>
        <time>2014-05-25T10:59:23Z</time>
      </trkpt>
      <trkpt lat="48.75211" lon="2.56682">
        <ele>111</ele>
        <time>2014-05-25T10:59:24Z</time>
      </trkpt>
      <trkpt lat="48.7521" lon="2.56681">
        <ele>110</ele>
        <time>2014-05-25T10:59:25Z</time>
      </trkpt>
      <trkpt lat="48.75209" lon="2.56679">
        <ele>108</ele>
        <time>2014-05-25T10:59:26Z</time>
      </trkpt>
      <trkpt lat="48.75207" lon="2.56678">
        <ele>107</ele>
        <time>2014-05-25T10:59:27Z</time>
      </trkpt>
      <trkpt lat="48.75206" lon="2.56676">
        <ele>109</ele>
        <time>2014-05-25T10:59:28Z</time>
      </trkpt>
      <trkpt lat="48.75204" lon="2.56675">
        <ele>108</ele>
        <time>2014-05-25T10:59:29Z</time>
      </trkpt>
      <trkpt lat="48.75203" lon="2.56674">
        <ele>107</ele>
        <time>2014-05-25T10:59:30Z</time>
      </trkpt>
      <trkpt lat="48.75202" lon="2.56672">
        <ele>107</ele>
        <time>2014-05-25T10:59:31Z</time>
      </trkpt>
      <trkpt lat="48.752" lon="2.5667">
        <ele>106</ele>
        <time>2014-05-25T10:59:32Z</time>
      </trkpt>
      <trkpt lat="48.75199" lon="2.56669">
        <ele>106</ele>
        <time>2014-05-25T10:59:33Z</time>
      </trkpt>
      <trkpt lat="48.75198" lon="2.56668">
        <ele>106</ele>
        <time>2014-05-25T10:59:34Z</time>
      </trkpt>
      <trkpt lat="48.75196" lon="2.56667">
        <ele>106</ele>
        <time>2014-05-25T10:59:35Z</time>
      </trkpt>
      <trkpt lat="48.75195" lon="2.56666">
        <ele>106</ele>
        <time>2014-05-25T10:59:36Z</time>
      </trkpt>
      <trkpt lat="48.75194" lon="2.56664">
        <ele>106</ele>
        <time>2014-05-25T10:59:37Z</time>
      </trkpt>
      <trkpt lat="48.75192" lon="2.56663">
        <ele>107</ele>
        <time>2014-05-25T10:59:38Z</time>
      </trkpt>
      <trkpt lat="48.75191" lon="2.56662">
        <ele>107</ele>
        <time>2014-05-25T10:59:39Z</time>
      </trkpt>
      <trkpt lat="48.75189" lon="2.56661">
        <ele>107</ele>
        <time>2014-05-25T10:59:40Z</time>
      </trkpt>
      <trkpt lat="48.75188" lon="2.5666">
        <ele>107</ele>
        <time>2014-05-25T10:59:41Z</time>
      </trkpt>
      <trkpt lat="48.75187" lon="2.56658">
        <ele>107</ele>
        <time>2014-05-25T10:59:42Z</time>
      </trkpt>
      <trkpt lat="48.75186" lon="2.56657">
        <ele>107</ele>
        <time>2014-05-25T10:59:43Z</time>
      </trkpt>
      <trkpt lat="48.75184" lon="2.56656">
        <ele>107</ele>
        <time>2014-05-25T10:59:44Z</time>
      </trkpt>
      <trkpt lat="48.75183" lon="2.56654">
        <ele>106</ele>
        <time>2014-05-25T10:59:45Z</time>
      </trkpt>
      <trkpt lat="48.75181" lon="2.56653">
        <ele>106</ele>
        <time>2014-05-25T10:59:46Z</time>
      </trkpt>
      <trkpt lat="48.7518" lon="2.56652">
        <ele>106</ele>
        <time>2014-05-25T10:59:47Z</time>
      </trkpt>
      <trkpt lat="48.75179" lon="2.5665">
        <ele>106</ele>
        <time>2014-05-25T10:59:48Z</time>
      </trkpt>
      <trkpt lat="48.75177" lon="2.56649">
        <ele>106</ele>
        <time>2014-05-25T10:59:49Z</time>
      </trkpt>
      <trkpt lat="48.75176" lon="2.56648">
        <ele>107</ele>
        <time>2014-05-25T10:59:50Z</time>
      </trkpt>
      <trkpt lat="48.75175" lon="2.56647">
        <ele>107</ele>
        <time>2014-05-25T10:59:51Z</time>
      </trkpt>
      <trkpt lat="48.75173" lon="2.56646">
        <ele>107</ele>
        <time>2014-05-25T10:59:52Z</time>
      </trkpt>
      <trkpt lat="48.75172" lon="2.56645">
        <ele>106</ele>
        <time>2014-05-25T10:59:53Z</time>
      </trkpt>
      <trkpt lat="48.75171" lon="2.56644">
        <ele>107</ele>
        <time>2014-05-25T10:59:54Z</time>
      </trkpt>
      <trkpt lat="48.7517" lon="2.56643">
        <ele>107</ele>
        <time>2014-05-25T10:59:55Z</time>
      </trkpt>
      <trkpt lat="48.75168" lon="2.56642">
        <ele>107</ele>
        <time>2014-05-25T10:59:56Z</time>
      </trkpt>
      <trkpt lat="48.75167" lon="2.56641">
        <ele>107</ele>
        <time>2014-05-25T10:59:57Z</time>
      </trkpt>
      <trkpt lat="48.75166" lon="2.5664">
        <ele>107</ele>
        <time>2014-05-25T10:59:58Z</time>
      </trkpt>
      <trkpt lat="48.75165" lon="2.56638">
        <ele>107</ele>
        <time>2014-05-25T10:59:59Z</time>
      </trkpt>
      <trkpt lat="48.75164" lon="2.56637">
        <ele>107</ele>
        <time>2014-05-25T11:00:00Z</time>
      </trkpt>
      <trkpt lat="48.75162" lon="2.56636">
        <ele>107</ele>
        <time>2014-05-25T11:00:01Z</time>
      </trkpt>
      <trkpt lat="48.75161" lon="2.56635">
        <ele>107</ele>
        <time>2014-05-25T11:00:02Z</time>
      </trkpt>
      <trkpt lat="48.7516" lon="2.56633">
        <ele>108</ele>
        <time>2014-05-25T11:00:03Z</time>
      </trkpt>
      <trkpt lat="48.75159" lon="2.56632">
        <ele>109</ele>
        <time>2014-05-25T11:00:04Z</time>
      </trkpt>
      <trkpt lat="48.75158" lon="2.56631">
        <ele>109</ele>
        <time>2014-05-25T11:00:05Z</time>
      </trkpt>
      <trkpt lat="48.75156" lon="2.5663">
        <ele>109</ele>
        <time>2014-05-25T11:00:06Z</time>
      </trkpt>
      <trkpt lat="48.75155" lon="2.56628">
        <ele>109</ele>
        <time>2014-05-25T11:00:07Z</time>
      </trkpt>
      <trkpt lat="48.75154" lon="2.56627">
        <ele>110</ele>
        <time>2014-05-25T11:00:08Z</time>
      </trkpt>
      <trkpt lat="48.75153" lon="2.56626">
        <ele>110</ele>
        <time>2014-05-25T11:00:09Z</time>
      </trkpt>
      <trkpt lat="48.75151" lon="2.56625">
        <ele>109</ele>
        <time>2014-05-25T11:00:10Z</time>
      </trkpt>
      <trkpt lat="48.7515" lon="2.56623">
        <ele>110</ele>
        <time>2014-05-25T11:00:11Z</time>
      </trkpt>
      <trkpt lat="48.75149" lon="2.56622">
        <ele>110</ele>
        <time>2014-05-25T11:00:12Z</time>
      </trkpt>
      <trkpt lat="48.75148" lon="2.56621">
        <ele>110</ele>
        <time>2014-05-25T11:00:13Z</time>
      </trkpt>
      <trkpt lat="48.75146" lon="2.56619">
        <ele>111</ele>
        <time>2014-05-25T11:00:14Z</time>
      </trkpt>
      <trkpt lat="48.75145" lon="2.56618">
        <ele>111</ele>
        <time>2014-05-25T11:00:15Z</time>
      </trkpt>
      <trkpt lat="48.75144" lon="2.56616">
        <ele>111</ele>
        <time>2014-05-25T11:00:16Z</time>
      </trkpt>
      <trkpt lat="48.75143" lon="2.56615">
        <ele>110</ele>
        <time>2014-05-25T11:00:17Z</time>
      </trkpt>
      <trkpt lat="48.75141" lon="2.56613">
        <ele>111</ele>
        <time>2014-05-25T11:00:18Z</time>
      </trkpt>
      <trkpt lat="48.7514" lon="2.56612">
        <ele>111</ele>
        <time>2014-05-25T11:00:19Z</time>
      </trkpt>
      <trkpt lat="48.75139" lon="2.56611">
        <ele>111</ele>
        <time>2014-05-25T11:00:20Z</time>
      </trkpt>
      <trkpt lat="48.75137" lon="2.5661">
        <ele>111</ele>
        <time>2014-05-25T11:00:21Z</time>
      </trkpt>
      <trkpt lat="48.75136" lon="2.56609">
        <ele>112</ele>
        <time>2014-05-25T11:00:22Z</time>
      </trkpt>
      <trkpt lat="48.75135" lon="2.56608">
        <ele>112</ele>
        <time>2014-05-25T11:00:23Z</time>
      </trkpt>
      <trkpt lat="48.75134" lon="2.56606">
        <ele>112</ele>
        <time>2014-05-25T11:00:24Z</time>
      </trkpt>
      <trkpt lat="48.75133" lon="2.56605">
        <ele>111</ele>
        <time>2014-05-25T11:00:25Z</time>
      </trkpt>
      <trkpt lat="48.75131" lon="2.56603">
        <ele>111</ele>
        <time>2014-05-25T11:00:26Z</time>
      </trkpt>
      <trkpt lat="48.7513" lon="2.56602">
        <ele>111</ele>
        <time>2014-05-25T11:00:27Z</time>
      </trkpt>
      <trkpt lat="48.75129" lon="2.56601">
        <ele>111</ele>
        <time>2014-05-25T11:00:28Z</time>
      </trkpt>
      <trkpt lat="48.75128" lon="2.566">
        <ele>111</ele>
        <time>2014-05-25T11:00:29Z</time>
      </trkpt>
      <trkpt lat="48.75127" lon="2.56599">
        <ele>111</ele>
        <time>2014-05-25T11:00:30Z</time>
      </trkpt>
      <trkpt lat="48.75125" lon="2.56598">
        <ele>112</ele>
        <time>2014-05-25T11:00:31Z</time>
      </trkpt>
      <trkpt lat="48.75124" lon="2.56597">
        <ele>113</ele>
        <time>2014-05-25T11:00:32Z</time>
      </trkpt>
      <trkpt lat="48.75123" lon="2.56596">
        <ele>114</ele>
        <time>2014-05-25T11:00:33Z</time>
      </trkpt>
      <trkpt lat="48.75122" lon="2.56595">
        <ele>114</ele>
        <time>2014-05-25T11:00:34Z</time>
      </trkpt>
      <trkpt lat="48.7512" lon="2.56594">
        <ele>115</ele>
        <time>2014-05-25T11:00:35Z</time>
      </trkpt>
      <trkpt lat="48.75119" lon="2.56593">
        <ele>115</ele>
        <time>2014-05-25T11:00:36Z</time>
      </trkpt>
      <trkpt lat="48.75118" lon="2.56591">
        <ele>114</ele>
        <time>2014-05-25T11:00:37Z</time>
      </trkpt>
      <trkpt lat="48.75117" lon="2.5659">
        <ele>114</ele>
        <time>2014-05-25T11:00:38Z</time>
      </trkpt>
      <trkpt lat="48.75115" lon="2.56589">
        <ele>114</ele>
        <time>2014-05-25T11:00:39Z</time>
      </trkpt>
      <trkpt lat="48.75114" lon="2.56588">
        <ele>115</ele>
        <time>2014-05-25T11:00:40Z</time>
      </trkpt>
      <trkpt lat="48.75113" lon="2.56587">
        <ele>115</ele>
        <time>2014-05-25T11:00:41Z</time>
      </trkpt>
      <trkpt lat="48.75112" lon="2.56586">
        <ele>115</ele>
        <time>2014-05-25T11:00:42Z</time>
      </trkpt>
      <trkpt lat="48.75111" lon="2.56585">
        <ele>114</ele>
        <time>2014-05-25T11:00:43Z</time>
      </trkpt>
      <trkpt lat="48.7511" lon="2.56584">
        <ele>115</ele>
        <time>2014-05-25T11:00:44Z</time>
      </trkpt>
      <trkpt lat="48.75109" lon="2.56583">
        <ele>115</ele>
        <time>2014-05-25T11:00:45Z</time>
      </trkpt>
      <trkpt lat="48.75107" lon="2.56581">
        <ele>115</ele>
        <time>2014-05-25T11:00:46Z</time>
      </trkpt>
      <trkpt lat="48.75106" lon="2.5658">
        <ele>114</ele>
        <time>2014-05-25T11:00:47Z</time>
      </trkpt>
      <trkpt lat="48.75105" lon="2.56579">
        <ele>114</ele>
        <time>2014-05-25T11:00:48Z</time>
      </trkpt>
      <trkpt lat="48.75104" lon="2.56577">
        <ele>114</ele>
        <time>2014-05-25T11:00:49Z</time>
      </trkpt>
      <trkpt lat="48.75103" lon="2.56576">
        <ele>113</ele>
        <time>2014-05-25T11:00:50Z</time>
      </trkpt>
      <trkpt lat="48.75102" lon="2.56574">
        <ele>114</ele>
        <time>2014-05-25T11:00:51Z</time>
      </trkpt>
      <trkpt lat="48.751" lon="2.56573">
        <ele>115</ele>
        <time>2014-05-25T11:00:52Z</time>
      </trkpt>
      <trkpt lat="48.75099" lon="2.56572">
        <ele>114</ele>
        <time>2014-05-25T11:00:53Z</time>
      </trkpt>
      <trkpt lat="48.75098" lon="2.56571">
        <ele>115</ele>
        <time>2014-05-25T11:00:54Z</time>
      </trkpt>
      <trkpt lat="48.75097" lon="2.56569">
        <ele>115</ele>
        <time>2014-05-25T11:00:55Z</time>
      </trkpt>
      <trkpt lat="48.75095" lon="2.56568">
        <ele>115</ele>
        <time>2014-05-25T11:00:56Z</time>
      </trkpt>
      <trkpt lat="48.75094" lon="2.56567">
        <ele>113</ele>
        <time>2014-05-25T11:00:57Z</time>
      </trkpt>
      <trkpt lat="48.75093" lon="2.56565">
        <ele>112</ele>
        <time>2014-05-25T11:00:58Z</time>
      </trkpt>
      <trkpt lat="48.75091" lon="2.56564">
        <ele>112</ele>
        <time>2014-05-25T11:00:59Z</time>
      </trkpt>
      <trkpt lat="48.7509" lon="2.56564">
        <ele>113</ele>
        <time>2014-05-25T11:01:00Z</time>
      </trkpt>
      <trkpt lat="48.75088" lon="2.56563">
        <ele>113</ele>
        <time>2014-05-25T11:01:01Z</time>
      </trkpt>
      <trkpt lat="48.75087" lon="2.56562">
        <ele>113</ele>
        <time>2014-05-25T11:01:02Z</time>
      </trkpt>
      <trkpt lat="48.75085" lon="2.5656">
        <ele>112</ele>
        <time>2014-05-25T11:01:03Z</time>
      </trkpt>
      <trkpt lat="48.75084" lon="2.56559">
        <ele>111</ele>
        <time>2014-05-25T11:01:04Z</time>
      </trkpt>
      <trkpt lat="48.75083" lon="2.56558">
        <ele>111</ele>
        <time>2014-05-25T11:01:05Z</time>
      </trkpt>
      <trkpt lat="48.75082" lon="2.56556">
        <ele>108</ele>
        <time>2014-05-25T11:01:06Z</time>
      </trkpt>
      <trkpt lat="48.7508" lon="2.56555">
        <ele>108</ele>
        <time>2014-05-25T11:01:07Z</time>
      </trkpt>
      <trkpt lat="48.75079" lon="2.56553">
        <ele>108</ele>
        <time>2014-05-25T11:01:08Z</time>
      </trkpt>
      <trkpt lat="48.75078" lon="2.56552">
        <ele>108</ele>
        <time>2014-05-25T11:01:09Z</time>
      </trkpt>
      <trkpt lat="48.75077" lon="2.56551">
        <ele>108</ele>
        <time>2014-05-25T11:01:10Z</time>
      </trkpt>
      <trkpt lat="48.75076" lon="2.5655">
        <ele>108</ele>
        <time>2014-05-25T11:01:11Z</time>
      </trkpt>
      <trkpt lat="48.75075" lon="2.56549">
        <ele>108</ele>
        <time>2014-05-25T11:01:12Z</time>
      </trkpt>
      <trkpt lat="48.75074" lon="2.56548">
        <ele>108</ele>
        <time>2014-05-25T11:01:13Z</time>
      </trkpt>
      <trkpt lat="48.75073" lon="2.56547">
        <ele>108</ele>
        <time>2014-05-25T11:01:14Z</time>
      </trkpt>
      <trkpt lat="48.75071" lon="2.56546">
        <ele>109</ele>
        <time>2014-05-25T11:01:15Z</time>
      </trkpt>
      <trkpt lat="48.7507" lon="2.56544">
        <ele>109</ele>
        <time>2014-05-25T11:01:16Z</time>
      </trkpt>
      <trkpt lat="48.75069" lon="2.56543">
        <ele>109</ele>
        <time>2014-05-25T11:01:17Z</time>
      </trkpt>
      <trkpt lat="48.75068" lon="2.56542">
        <ele>109</ele>
        <time>2014-05-25T11:01:18Z</time>
      </trkpt>
      <trkpt lat="48.75067" lon="2.5654">
        <ele>109</ele>
        <time>2014-05-25T11:01:19Z</time>
      </trkpt>
      <trkpt lat="48.75066" lon="2.56539">
        <ele>109</ele>
        <time>2014-05-25T11:01:20Z</time>
      </trkpt>
      <trkpt lat="48.75065" lon="2.56538">
        <ele>108</ele>
        <time>2014-05-25T11:01:21Z</time>
      </trkpt>
      <trkpt lat="48.75063" lon="2.56538">
        <ele>109</ele>
        <time>2014-05-25T11:01:22Z</time>
      </trkpt>
      <trkpt lat="48.75062" lon="2.56536">
        <ele>109</ele>
        <time>2014-05-25T11:01:23Z</time>
      </trkpt>
      <trkpt lat="48.75061" lon="2.56535">
        <ele>109</ele>
        <time>2014-05-25T11:01:24Z</time>
      </trkpt>
      <trkpt lat="48.7506" lon="2.56534">
        <ele>109</ele>
        <time>2014-05-25T11:01:25Z</time>
      </trkpt>
      <trkpt lat="48.75059" lon="2.56533">
        <ele>109</ele>
        <time>2014-05-25T11:01:26Z</time>
      </trkpt>
      <trkpt lat="48.75058" lon="2.56532">
        <ele>109</ele>
        <time>2014-05-25T11:01:27Z</time>
      </trkpt>
      <trkpt lat="48.75056" lon="2.5653">
        <ele>110</ele>
        <time>2014-05-25T11:01:28Z</time>
      </trkpt>
      <trkpt lat="48.75055" lon="2.56529">
        <ele>111</ele>
        <time>2014-05-25T11:01:29Z</time>
      </trkpt>
      <trkpt lat="48.75054" lon="2.56529">
        <ele>112</ele>
        <time>2014-05-25T11:01:30Z</time>
      </trkpt>
      <trkpt lat="48.75052" lon="2.56528">
        <ele>112</ele>
        <time>2014-05-25T11:01:31Z</time>
      </trkpt>
      <trkpt lat="48.75051" lon="2.56527">
        <ele>112</ele>
        <time>2014-05-25T11:01:32Z</time>
      </trkpt>
      <trkpt lat="48.75049" lon="2.56526">
        <ele>111</ele>
        <time>2014-05-25T11:01:33Z</time>
      </trkpt>
      <trkpt lat="48.75048" lon="2.56524">
        <ele>111</ele>
        <time>2014-05-25T11:01:34Z</time>
      </trkpt>
      <trkpt lat="48.75047" lon="2.56523">
        <ele>110</ele>
        <time>2014-05-25T11:01:35Z</time>
      </trkpt>
      <trkpt lat="48.75046" lon="2.56522">
        <ele>109</ele>
        <time>2014-05-25T11:01:36Z</time>
      </trkpt>
      <trkpt lat="48.75045" lon="2.56521">
        <ele>108</ele>
        <time>2014-05-25T11:01:37Z</time>
      </trkpt>
      <trkpt lat="48.75043" lon="2.5652">
        <ele>107</ele>
        <time>2014-05-25T11:01:38Z</time>
      </trkpt>
      <trkpt lat="48.75042" lon="2.56519">
        <ele>107</ele>
        <time>2014-05-25T11:01:39Z</time>
      </trkpt>
      <trkpt lat="48.75041" lon="2.56518">
        <ele>107</ele>
        <time>2014-05-25T11:01:40Z</time>
      </trkpt>
      <trkpt lat="48.7504" lon="2.56516">
        <ele>107</ele>
        <time>2014-05-25T11:01:41Z</time>
      </trkpt>
      <trkpt lat="48.75039" lon="2.56515">
        <ele>107</ele>
        <time>2014-05-25T11:01:42Z</time>
      </trkpt>
      <trkpt lat="48.75038" lon="2.56513">
        <ele>107</ele>
        <time>2014-05-25T11:01:43Z</time>
      </trkpt>
      <trkpt lat="48.75037" lon="2.56512">
        <ele>107</ele>
        <time>2014-05-25T11:01:44Z</time>
      </trkpt>
      <trkpt lat="48.75036" lon="2.5651">
        <ele>107</ele>
        <time>2014-05-25T11:01:45Z</time>
      </trkpt>
      <trkpt lat="48.75035" lon="2.56509">
        <ele>109</ele>
        <time>2014-05-25T11:01:46Z</time>
      </trkpt>
      <trkpt lat="48.75034" lon="2.56508">
        <ele>109</ele>
        <time>2014-05-25T11:01:47Z</time>
      </trkpt>
      <trkpt lat="48.75033" lon="2.56507">
        <ele>109</ele>
        <time>2014-05-25T11:01:48Z</time>
      </trkpt>
      <trkpt lat="48.75032" lon="2.56506">
        <ele>109</ele>
        <time>2014-05-25T11:01:49Z</time>
      </trkpt>
      <trkpt lat="48.75031" lon="2.56504">
        <ele>109</ele>
        <time>2014-05-25T11:01:50Z</time>
      </trkpt>
      <trkpt lat="48.7503" lon="2.56503">
        <ele>109</ele>
        <time>2014-05-25T11:01:51Z</time>
      </trkpt>
      <trkpt lat="48.75028" lon="2.56502">
        <ele>110</ele>
        <time>2014-05-25T11:01:52Z</time>
      </trkpt>
      <trkpt lat="48.75027" lon="2.565">
        <ele>110</ele>
        <time>2014-05-25T11:01:53Z</time>
      </trkpt>
      <trkpt lat="48.75026" lon="2.56499">
        <ele>111</ele>
        <time>2014-05-25T11:01:54Z</time>
      </trkpt>
      <trkpt lat="48.75024" lon="2.56498">
        <ele>110</ele>
        <time>2014-05-25T11:01:55Z</time>
      </trkpt>
      <trkpt lat="48.75023" lon="2.56497">
        <ele>110</ele>
        <time>2014-05-25T11:01:56Z</time>
      </trkpt>
      <trkpt lat="48.75021" lon="2.56496">
        <ele>110</ele>
        <time>2014-05-25T11:01:57Z</time>
      </trkpt>
      <trkpt lat="48.7502" lon="2.56495">
        <ele>110</ele>
        <time>2014-05-25T11:01:58Z</time>
      </trkpt>
      <trkpt lat="48.75019" lon="2.56493">
        <ele>111</ele>
        <time>2014-05-25T11:01:59Z</time>
      </trkpt>
      <trkpt lat="48.75017" lon="2.56492">
        <ele>111</ele>
        <time>2014-05-25T11:02:00Z</time>
      </trkpt>
      <trkpt lat="48.75016" lon="2.5649">
        <ele>112</ele>
        <time>2014-05-25T11:02:01Z</time>
      </trkpt>
      <trkpt lat="48.75015" lon="2.56489">
        <ele>113</ele>
        <time>2014-05-25T11:02:02Z</time>
      </trkpt>
      <trkpt lat="48.75013" lon="2.56488">
        <ele>112</ele>
        <time>2014-05-25T11:02:03Z</time>
      </trkpt>
      <trkpt lat="48.75012" lon="2.56487">
        <ele>113</ele>
        <time>2014-05-25T11:02:04Z</time>
      </trkpt>
      <trkpt lat="48.7501" lon="2.56485">
        <ele>113</ele>
        <time>2014-05-25T11:02:05Z</time>
      </trkpt>
      <trkpt lat="48.75009" lon="2.56484">
        <ele>113</ele>
        <time>2014-05-25T11:02:06Z</time>
      </trkpt>
      <trkpt lat="48.75008" lon="2.56483">
        <ele>113</ele>
        <time>2014-05-25T11:02:07Z</time>
      </trkpt>
      <trkpt lat="48.75006" lon="2.56482">
        <ele>113</ele>
        <time>2014-05-25T11:02:08Z</time>
      </trkpt>
      <trkpt lat="48.75005" lon="2.5648">
        <ele>113</ele>
        <time>2014-05-25T11:02:09Z</time>
      </trkpt>
      <trkpt lat="48.75004" lon="2.56479">
        <ele>112</ele>
        <time>2014-05-25T11:02:10Z</time>
      </trkpt>
      <trkpt lat="48.75003" lon="2.56478">
        <ele>112</ele>
        <time>2014-05-25T11:02:11Z</time>
      </trkpt>
      <trkpt lat="48.75001" lon="2.56476">
        <ele>112</ele>
        <time>2014-05-25T11:02:12Z</time>
      </trkpt>
      <trkpt lat="48.75" lon="2.56475">
        <ele>112</ele>
        <time>2014-05-25T11:02:13Z</time>
      </trkpt>
      <trkpt lat="48.74999" lon="2.56473">
        <ele>112</ele>
        <time>2014-05-25T11:02:14Z</time>
      </trkpt>
      <trkpt lat="48.74998" lon="2.56472">
        <ele>113</ele>
        <time>2014-05-25T11:02:15Z</time>
      </trkpt>
      <trkpt lat="48.74997" lon="2.5647">
        <ele>114</ele>
        <time>2014-05-25T11:02:16Z</time>
      </trkpt>
      <trkpt lat="48.74995" lon="2.56469">
        <ele>114</ele>
        <time>2014-05-25T11:02:17Z</time>
      </trkpt>
      <trkpt lat="48.74994" lon="2.56468">
        <ele>115</ele>
        <time>2014-05-25T11:02:18Z</time>
      </trkpt>
      <trkpt lat="48.74993" lon="2.56467">
        <ele>115</ele>
        <time>2014-05-25T11:02:19Z</time>
      </trkpt>
      <trkpt lat="48.74992" lon="2.56466">
        <ele>115</ele>
        <time>2014-05-25T11:02:20Z</time>
      </trkpt>
      <trkpt lat="48.74991" lon="2.56464">
        <ele>114</ele>
        <time>2014-05-25T11:02:21Z</time>
      </trkpt>
      <trkpt lat="48.7499" lon="2.56463">
        <ele>114</ele>
        <time>2014-05-25T11:02:22Z</time>
      </trkpt>
      <trkpt lat="48.74988" lon="2.56462">
        <ele>114</ele>
        <time>2014-05-25T11:02:23Z</time>
      </trkpt>
      <trkpt lat="48.74987" lon="2.5646">
        <ele>113</ele>
        <time>2014-05-25T11:02:24Z</time>
      </trkpt>
      <trkpt lat="48.74986" lon="2.56459">
        <ele>113</ele>
        <time>2014-05-25T11:02:25Z</time>
      </trkpt>
      <trkpt lat="48.74984" lon="2.56457">
        <ele>114</ele>
        <time>2014-05-25T11:02:26Z</time>
      </trkpt>
      <trkpt lat="48.74983" lon="2.56456">
        <ele>114</ele>
        <time>2014-05-25T11:02:27Z</time>
      </trkpt>
      <trkpt lat="48.74982" lon="2.56455">
        <ele>115</ele>
        <time>2014-05-25T11:02:28Z</time>
      </trkpt>
      <trkpt lat="48.74981" lon="2.56454">
        <ele>116</ele>
        <time>2014-05-25T11:02:29Z</time>
      </trkpt>
      <trkpt lat="48.74979" lon="2.56453">
        <ele>115</ele>
        <time>2014-05-25T11:02:30Z</time>
      </trkpt>
      <trkpt lat="48.74978" lon="2.56451">
        <ele>117</ele>
        <time>2014-05-25T11:02:31Z</time>
      </trkpt>
      <trkpt lat="48.74977" lon="2.5645">
        <ele>117</ele>
        <time>2014-05-25T11:02:32Z</time>
      </trkpt>
      <trkpt lat="48.74976" lon="2.56449">
        <ele>118</ele>
        <time>2014-05-25T11:02:33Z</time>
      </trkpt>
      <trkpt lat="48.74975" lon="2.56449">
        <ele>118</ele>
        <time>2014-05-25T11:02:34Z</time>
      </trkpt>
      <trkpt lat="48.74974" lon="2.56448">
        <ele>118</ele>
        <time>2014-05-25T11:02:35Z</time>
      </trkpt>
      <trkpt lat="48.74973" lon="2.56447">
        <ele>117</ele>
        <time>2014-05-25T11:02:36Z</time>
      </trkpt>
      <trkpt lat="48.74972" lon="2.56446">
        <ele>118</ele>
        <time>2014-05-25T11:02:37Z</time>
      </trkpt>
      <trkpt lat="48.74971" lon="2.56445">
        <ele>118</ele>
        <time>2014-05-25T11:02:38Z</time>
      </trkpt>
      <trkpt lat="48.74969" lon="2.56444">
        <ele>114</ele>
        <time>2014-05-25T11:02:39Z</time>
      </trkpt>
      <trkpt lat="48.74968" lon="2.56442">
        <ele>115</ele>
        <time>2014-05-25T11:02:40Z</time>
      </trkpt>
      <trkpt lat="48.74966" lon="2.56441">
        <ele>115</ele>
        <time>2014-05-25T11:02:41Z</time>
      </trkpt>
      <trkpt lat="48.74965" lon="2.5644">
        <ele>115</ele>
        <time>2014-05-25T11:02:42Z</time>
      </trkpt>
      <trkpt lat="48.74964" lon="2.56438">
        <ele>115</ele>
        <time>2014-05-25T11:02:43Z</time>
      </trkpt>
      <trkpt lat="48.74962" lon="2.56437">
        <ele>116</ele>
        <time>2014-05-25T11:02:44Z</time>
      </trkpt>
      <trkpt lat="48.74961" lon="2.56436">
        <ele>116</ele>
        <time>2014-05-25T11:02:45Z</time>
      </trkpt>
      <trkpt lat="48.74959" lon="2.56434">
        <ele>116</ele>
        <time>2014-05-25T11:02:46Z</time>
      </trkpt>
      <trkpt lat="48.74958" lon="2.56433">
        <ele>117</ele>
        <time>2014-05-25T11:02:47Z</time>
      </trkpt>
      <trkpt lat="48.74957" lon="2.56432">
        <ele>118</ele>
        <time>2014-05-25T11:02:48Z</time>
      </trkpt>
      <trkpt lat="48.74955" lon="2.56431">
        <ele>118</ele>
        <time>2014-05-25T11:02:49Z</time>
      </trkpt>
      <trkpt lat="48.74954" lon="2.56429">
        <ele>119</ele>
        <time>2014-05-25T11:02:50Z</time>
      </trkpt>
      <trkpt lat="48.74952" lon="2.56428">
        <ele>119</ele>
        <time>2014-05-25T11:02:51Z</time>
      </trkpt>
      <trkpt lat="48.74951" lon="2.56427">
        <ele>119</ele>
        <time>2014-05-25T11:02:52Z</time>
      </trkpt>
      <trkpt lat="48.7495" lon="2.56426">
        <ele>120</ele>
        <time>2014-05-25T11:02:53Z</time>
      </trkpt>
      <trkpt lat="48.74948" lon="2.56424">
        <ele>120</ele>
        <time>2014-05-25T11:02:54Z</time>
      </trkpt>
      <trkpt lat="48.74947" lon="2.56423">
        <ele>120</ele>
        <time>2014-05-25T11:02:55Z</time>
      </trkpt>
      <trkpt lat="48.74946" lon="2.56422">
        <ele>119</ele>
        <time>2014-05-25T11:02:56Z</time>
      </trkpt>
      <trkpt lat="48.74944" lon="2.5642">
        <ele>118</ele>
        <time>2014-05-25T11:02:57Z</time>
      </trkpt>
      <trkpt lat="48.74943" lon="2.56419">
        <ele>118</ele>
        <time>2014-05-25T11:02:58Z</time>
      </trkpt>
      <trkpt lat="48.74942" lon="2.56418">
        <ele>118</ele>
        <time>2014-05-25T11:02:59Z</time>
      </trkpt>
      <trkpt lat="48.74941" lon="2.56416">
        <ele>118</ele>
        <time>2014-05-25T11:03:00Z</time>
      </trkpt>
      <trkpt lat="48.7494" lon="2.56415">
        <ele>118</ele>
        <time>2014-05-25T11:03:01Z</time>
      </trkpt>
      <trkpt lat="48.74938" lon="2.56414">
        <ele>118</ele>
        <time>2014-05-25T11:03:02Z</time>
      </trkpt>
      <trkpt lat="48.74937" lon="2.56412">
        <ele>119</ele>
        <time>2014-05-25T11:03:03Z</time>
      </trkpt>
      <trkpt lat="48.74936" lon="2.56411">
        <ele>119</ele>
        <time>2014-05-25T11:03:04Z</time>
      </trkpt>
      <trkpt lat="48.74934" lon="2.5641">
        <ele>118</ele>
        <time>2014-05-25T11:03:05Z</time>
      </trkpt>
      <trkpt lat="48.74933" lon="2.56409">
        <ele>118</ele>
        <time>2014-05-25T11:03:06Z</time>
      </trkpt>
      <trkpt lat="48.74932" lon="2.56408">
        <ele>118</ele>
        <time>2014-05-25T11:03:07Z</time>
      </trkpt>
      <trkpt lat="48.74931" lon="2.56407">
        <ele>118</ele>
        <time>2014-05-25T11:03:08Z</time>
      </trkpt>
      <trkpt lat="48.74929" lon="2.56406">
        <ele>118</ele>
        <time>2014-05-25T11:03:09Z</time>
      </trkpt>
      <trkpt lat="48.74928" lon="2.56404">
        <ele>118</ele>
        <time>2014-05-25T11:03:10Z</time>
      </trkpt>
      <trkpt lat="48.74927" lon="2.56403">
        <ele>117</ele>
        <time>2014-05-25T11:03:11Z</time>
      </trkpt>
      <trkpt lat="48.74926" lon="2.56402">
        <ele>117</ele>
        <time>2014-05-25T11:03:12Z</time>
      </trkpt>
      <trkpt lat="48.74924" lon="2.56401">
        <ele>116</ele>
        <time>2014-05-25T11:03:13Z</time>
      </trkpt>
      <trkpt lat="48.74923" lon="2.564">
        <ele>115</ele>
        <time>2014-05-25T11:03:14Z</time>
      </trkpt>
      <trkpt lat="48.74922" lon="2.56398">
        <ele>115</ele>
        <time>2014-05-25T11:03:15Z</time>
      </trkpt>
      <trkpt lat="48.74921" lon="2.56397">
        <ele>115</ele>
        <time>2014-05-25T11:03:16Z</time>
      </trkpt>
      <trkpt lat="48.7492" lon="2.56396">
        <ele>115</ele>
        <time>2014-05-25T11:03:17Z</time>
      </trkpt>
      <trkpt lat="48.74919" lon="2.56394">
        <ele>115</ele>
        <time>2014-05-25T11:03:18Z</time>
      </trkpt>
      <trkpt lat="48.74917" lon="2.56393">
        <ele>115</ele>
        <time>2014-05-25T11:03:19Z</time>
      </trkpt>
      <trkpt lat="48.74916" lon="2.56392">
        <ele>114</ele>
        <time>2014-05-25T11:03:20Z</time>
      </trkpt>
      <trkpt lat="48.74915" lon="2.56391">
        <ele>115</ele>
        <time>2014-05-25T11:03:21Z</time>
      </trkpt>
      <trkpt lat="48.74914" lon="2.56389">
        <ele>115</ele>
        <time>2014-05-25T11:03:22Z</time>
      </trkpt>
      <trkpt lat="48.74912" lon="2.56388">
        <ele>116</ele>
        <time>2014-05-25T11:03:23Z</time>
      </trkpt>
      <trkpt lat="48.74911" lon="2.56387">
        <ele>115</ele>
        <time>2014-05-25T11:03:24Z</time>
      </trkpt>
      <trkpt lat="48.7491" lon="2.56386">
        <ele>114</ele>
        <time>2014-05-25T11:03:25Z</time>
      </trkpt>
      <trkpt lat="48.74909" lon="2.56384">
        <ele>114</ele>
        <time>2014-05-25T11:03:26Z</time>
      </trkpt>
      <trkpt lat="48.74908" lon="2.56383">
        <ele>114</ele>
        <time>2014-05-25T11:03:27Z</time>
      </trkpt>
      <trkpt lat="48.74907" lon="2.56382">
        <ele>114</ele>
        <time>2014-05-25T11:03:28Z</time>
      </trkpt>
      <trkpt lat="48.74906" lon="2.5638">
        <ele>114</ele>
        <time>2014-05-25T11:03:29Z</time>
      </trkpt>
      <trkpt lat="48.74905" lon="2.56379">
        <ele>114</ele>
        <time>2014-05-25T11:03:30Z</time>
      </trkpt>
      <trkpt lat="48.74904" lon="2.56378">
        <ele>114</ele>
        <time>2014-05-25T11:03:31Z</time>
      </trkpt>
      <trkpt lat="48.74902" lon="2.56377">
        <ele>115</ele>
        <time>2014-05-25T11:03:32Z</time>
      </trkpt>
      <trkpt lat="48.74901" lon="2.56376">
        <ele>115</ele>
        <time>2014-05-25T11:03:33Z</time>
      </trkpt>
      <trkpt lat="48.749" lon="2.56374">
        <ele>115</ele>
        <time>2014-05-25T11:03:34Z</time>
      </trkpt>
      <trkpt lat="48.74899" lon="2.56373">
        <ele>114</ele>
        <time>2014-05-25T11:03:35Z</time>
      </trkpt>
      <trkpt lat="48.74897" lon="2.56372">
        <ele>114</ele>
        <time>2014-05-25T11:03:36Z</time>
      </trkpt>
      <trkpt lat="48.74896" lon="2.5637">
        <ele>113</ele>
        <time>2014-05-25T11:03:37Z</time>
      </trkpt>
      <trkpt lat="48.74895" lon="2.56369">
        <ele>114</ele>
        <time>2014-05-25T11:03:38Z</time>
      </trkpt>
      <trkpt lat="48.74894" lon="2.56367">
        <ele>114</ele>
        <time>2014-05-25T11:03:39Z</time>
      </trkpt>
      <trkpt lat="48.74892" lon="2.56366">
        <ele>114</ele>
        <time>2014-05-25T11:03:40Z</time>
      </trkpt>
      <trkpt lat="48.74891" lon="2.56365">
        <ele>114</ele>
        <time>2014-05-25T11:03:41Z</time>
      </trkpt>
      <trkpt lat="48.74889" lon="2.56364">
        <ele>114</ele>
        <time>2014-05-25T11:03:42Z</time>
      </trkpt>
      <trkpt lat="48.74888" lon="2.56363">
        <ele>114</ele>
        <time>2014-05-25T11:03:43Z</time>
      </trkpt>
      <trkpt lat="48.74886" lon="2.56362">
        <ele>114</ele>
        <time>2014-05-25T11:03:44Z</time>
      </trkpt>
      <trkpt lat="48.74885" lon="2.56361">
        <ele>114</ele>
        <time>2014-05-25T11:03:45Z</time>
      </trkpt>
      <trkpt lat="48.74884" lon="2.56359">
        <ele>114</ele>
        <time>2014-05-25T11:03:46Z</time>
      </trkpt>
      <trkpt lat="48.74882" lon="2.56358">
        <ele>114</ele>
        <time>2014-05-25T11:03:47Z</time>
      </trkpt>
      <trkpt lat="48.74881" lon="2.56357">
        <ele>115</ele>
        <time>2014-05-25T11:03:48Z</time>
      </trkpt>
      <trkpt lat="48.7488" lon="2.56356">
        <ele>115</ele>
        <time>2014-05-25T11:03:49Z</time>
      </trkpt>
      <trkpt lat="48.74878" lon="2.56354">
        <ele>115</ele>
        <time>2014-05-25T11:03:50Z</time>
      </trkpt>
      <trkpt lat="48.74877" lon="2.56353">
        <ele>114</ele>
        <time>2014-05-25T11:03:51Z</time>
      </trkpt>
      <trkpt lat="48.74876" lon="2.56351">
        <ele>114</ele>
        <time>2014-05-25T11:03:52Z</time>
      </trkpt>
      <trkpt lat="48.74875" lon="2.5635">
        <ele>114</ele>
        <time>2014-05-25T11:03:53Z</time>
      </trkpt>
      <trkpt lat="48.74873" lon="2.56348">
        <ele>114</ele>
        <time>2014-05-25T11:03:54Z</time>
      </trkpt>
      <trkpt lat="48.74872" lon="2.56346">
        <ele>114</ele>
        <time>2014-05-25T11:03:55Z</time>
      </trkpt>
      <trkpt lat="48.74871" lon="2.56345">
        <ele>115</ele>
        <time>2014-05-25T11:03:56Z</time>
      </trkpt>
      <trkpt lat="48.74869" lon="2.56344">
        <ele>115</ele>
        <time>2014-05-25T11:03:57Z</time>
      </trkpt>
      <trkpt lat="48.74868" lon="2.56343">
        <ele>114</ele>
        <time>2014-05-25T11:03:58Z</time>
      </trkpt>
      <trkpt lat="48.74867" lon="2.56342">
        <ele>114</ele>
        <time>2014-05-25T11:03:59Z</time>
      </trkpt>
      <trkpt lat="48.74865" lon="2.56341">
        <ele>115</ele>
        <time>2014-05-25T11:04:00Z</time>
      </trkpt>
      <trkpt lat="48.74864" lon="2.5634">
        <ele>113</ele>
        <time>2014-05-25T11:04:01Z</time>
      </trkpt>
      <trkpt lat="48.74863" lon="2.56338">
        <ele>113</ele>
        <time>2014-05-25T11:04:02Z</time>
      </trkpt>
      <trkpt lat="48.74862" lon="2.56337">
        <ele>112</ele>
        <time>2014-05-25T11:04:03Z</time>
      </trkpt>
      <trkpt lat="48.7486" lon="2.56336">
        <ele>113</ele>
        <time>2014-05-25T11:04:04Z</time>
      </trkpt>
      <trkpt lat="48.74859" lon="2.56336">
        <ele>112</ele>
        <time>2014-05-25T11:04:05Z</time>
      </trkpt>
      <trkpt lat="48.74857" lon="2.56334">
        <ele>112</ele>
        <time>2014-05-25T11:04:06Z</time>
      </trkpt>
      <trkpt lat="48.74856" lon="2.56333">
        <ele>113</ele>
        <time>2014-05-25T11:04:07Z</time>
      </trkpt>
      <trkpt lat="48.74855" lon="2.56332">
        <ele>113</ele>
        <time>2014-05-25T11:04:08Z</time>
      </trkpt>
      <trkpt lat="48.74853" lon="2.5633">
        <ele>114</ele>
        <time>2014-05-25T11:04:09Z</time>
      </trkpt>
      <trkpt lat="48.74852" lon="2.56329">
        <ele>115</ele>
        <time>2014-05-25T11:04:10Z</time>
      </trkpt>
      <trkpt lat="48.74851" lon="2.56328">
        <ele>114</ele>
        <time>2014-05-25T11:04:11Z</time>
      </trkpt>
      <trkpt lat="48.7485" lon="2.56326">
        <ele>114</ele>
        <time>2014-05-25T11:04:12Z</time>
      </trkpt>
      <trkpt lat="48.74849" lon="2.56325">
        <ele>114</ele>
        <time>2014-05-25T11:04:13Z</time>
      </trkpt>
      <trkpt lat="48.74848" lon="2.56323">
        <ele>113</ele>
        <time>2014-05-25T11:04:14Z</time>
      </trkpt>
      <trkpt lat="48.74847" lon="2.56322">
        <ele>112</ele>
        <time>2014-05-25T11:04:15Z</time>
      </trkpt>
      <trkpt lat="48.74846" lon="2.56321">
        <ele>113</ele>
        <time>2014-05-25T11:04:16Z</time>
      </trkpt>
      <trkpt lat="48.74845" lon="2.5632">
        <ele>112</ele>
        <time>2014-05-25T11:04:17Z</time>
      </trkpt>
      <trkpt lat="48.74843" lon="2.56319">
        <ele>112</ele>
        <time>2014-05-25T11:04:18Z</time>
      </trkpt>
      <trkpt lat="48.74842" lon="2.56317">
        <ele>112</ele>
        <time>2014-05-25T11:04:19Z</time>
      </trkpt>
      <trkpt lat="48.74841" lon="2.56316">
        <ele>112</ele>
        <time>2014-05-25T11:04:20Z</time>
      </trkpt>
      <trkpt lat="48.7484" lon="2.56314">
        <ele>112</ele>
        <time>2014-05-25T11:04:21Z</time>
      </trkpt>
      <trkpt lat="48.74839" lon="2.56313">
        <ele>112</ele>
        <time>2014-05-25T11:04:22Z</time>
      </trkpt>
      <trkpt lat="48.74837" lon="2.56311">
        <ele>111</ele>
        <time>2014-05-25T11:04:23Z</time>
      </trkpt>
      <trkpt lat="48.74836" lon="2.5631">
        <ele>112</ele>
        <time>2014-05-25T11:04:24Z</time>
      </trkpt>
      <trkpt lat="48.74835" lon="2.56309">
        <ele>112</ele>
        <time>2014-05-25T11:04:25Z</time>
      </trkpt>
      <trkpt lat="48.74833" lon="2.56307">
        <ele>112</ele>
        <time>2014-05-25T11:04:26Z</time>
      </trkpt>
      <trkpt lat="48.74832" lon="2.56306">
        <ele>111</ele>
        <time>2014-05-25T11:04:27Z</time>
      </trkpt>
      <trkpt lat="48.7483" lon="2.56304">
        <ele>111</ele>
        <time>2014-05-25T11:04:28Z</time>
      </trkpt>
      <trkpt lat="48.74829" lon="2.56303">
        <ele>111</ele>
        <time>2014-05-25T11:04:29Z</time>
      </trkpt>
      <trkpt lat="48.74828" lon="2.56301">
        <ele>111</ele>
        <time>2014-05-25T11:04:30Z</time>
      </trkpt>
      <trkpt lat="48.74826" lon="2.563">
        <ele>112</ele>
        <time>2014-05-25T11:04:31Z</time>
      </trkpt>
      <trkpt lat="48.74825" lon="2.56299">
        <ele>112</ele>
        <time>2014-05-25T11:04:32Z</time>
      </trkpt>
      <trkpt lat="48.74823" lon="2.56298">
        <ele>113</ele>
        <time>2014-05-25T11:04:33Z</time>
      </trkpt>
      <trkpt lat="48.74822" lon="2.56297">
        <ele>114</ele>
        <time>2014-05-25T11:04:34Z</time>
      </trkpt>
      <trkpt lat="48.74821" lon="2.56296">
        <ele>113</ele>
        <time>2014-05-25T11:04:35Z</time>
      </trkpt>
      <trkpt lat="48.74819" lon="2.56294">
        <ele>113</ele>
        <time>2014-05-25T11:04:36Z</time>
      </trkpt>
      <trkpt lat="48.74818" lon="2.56293">
        <ele>112</ele>
        <time>2014-05-25T11:04:37Z</time>
      </trkpt>
      <trkpt lat="48.74817" lon="2.56292">
        <ele>113</ele>
        <time>2014-05-25T11:04:38Z</time>
      </trkpt>
      <trkpt lat="48.74816" lon="2.5629">
        <ele>112</ele>
        <time>2014-05-25T11:04:39Z</time>
      </trkpt>
      <trkpt lat="48.74814" lon="2.56288">
        <ele>112</ele>
        <time>2014-05-25T11:04:40Z</time>
      </trkpt>
      <trkpt lat="48.74813" lon="2.56287">
        <ele>113</ele>
        <time>2014-05-25T11:04:41Z</time>
      </trkpt>
      <trkpt lat="48.74812" lon="2.56286">
        <ele>112</ele>
        <time>2014-05-25T11:04:42Z</time>
      </trkpt>
      <trkpt lat="48.74811" lon="2.56284">
        <ele>112</ele>
        <time>2014-05-25T11:04:43Z</time>
      </trkpt>
      <trkpt lat="48.74809" lon="2.56283">
        <ele>112</ele>
        <time>2014-05-25T11:04:44Z</time>
      </trkpt>
      <trkpt lat="48.74808" lon="2.56282">
        <ele>112</ele>
        <time>2014-05-25T11:04:45Z</time>
      </trkpt>
      <trkpt lat="48.74807" lon="2.56281">
        <ele>112</ele>
        <time>2014-05-25T11:04:46Z</time>
      </trkpt>
      <trkpt lat="48.74806" lon="2.56279">
        <ele>112</ele>
        <time>2014-05-25T11:04:47Z</time>
      </trkpt>
      <trkpt lat="48.74805" lon="2.56278">
        <ele>111</ele>
        <time>2014-05-25T11:04:48Z</time>
      </trkpt>
      <trkpt lat="48.74803" lon="2.56277">
        <ele>111</ele>
        <time>2014-05-25T11:04:49Z</time>
      </trkpt>
      <trkpt lat="48.74802" lon="2.56275">
        <ele>111</ele>
        <time>2014-05-25T11:04:50Z</time>
      </trkpt>
      <trkpt lat="48.74801" lon="2.56274">
        <ele>111</ele>
        <time>2014-05-25T11:04:51Z</time>
      </trkpt>
      <trkpt lat="48.74799" lon="2.56273">
        <ele>111</ele>
        <time>2014-05-25T11:04:52Z</time>
      </trkpt>
      <trkpt lat="48.74798" lon="2.56272">
        <ele>111</ele>
        <time>2014-05-25T11:04:53Z</time>
      </trkpt>
      <trkpt lat="48.74797" lon="2.5627">
        <ele>110</ele>
        <time>2014-05-25T11:04:54Z</time>
      </trkpt>
      <trkpt lat="48.74796" lon="2.56269">
        <ele>110</ele>
        <time>2014-05-25T11:04:55Z</time>
      </trkpt>
      <trkpt lat="48.74794" lon="2.56268">
        <ele>110</ele>
        <time>2014-05-25T11:04:56Z</time>
      </trkpt>
      <trkpt lat="48.74793" lon="2.56267">
        <ele>110</ele>
        <time>2014-05-25T11:04:57Z</time>
      </trkpt>
      <trkpt lat="48.74792" lon="2.56267">
        <ele>111</ele>
        <time>2014-05-25T11:04:58Z</time>
      </trkpt>
      <trkpt lat="48.74791" lon="2.56266">
        <ele>111</ele>
        <time>2014-05-25T11:04:59Z</time>
      </trkpt>
      <trkpt lat="48.74789" lon="2.56265">
        <ele>110</ele>
        <time>2014-05-25T11:05:00Z</time>
      </trkpt>
      <trkpt lat="48.74788" lon="2.56264">
        <ele>110</ele>
        <time>2014-05-25T11:05:01Z</time>
      </trkpt>
      <trkpt lat="48.74787" lon="2.56262">
        <ele>109</ele>
        <time>2014-05-25T11:05:02Z</time>
      </trkpt>
      <trkpt lat="48.74786" lon="2.56261">
        <ele>108</ele>
        <time>2014-05-25T11:05:03Z</time>
      </trkpt>
      <trkpt lat="48.74785" lon="2.5626">
        <ele>107</ele>
        <time>2014-05-25T11:05:04Z</time>
      </trkpt>
      <trkpt lat="48.74784" lon="2.56259">
        <ele>107</ele>
        <time>2014-05-25T11:05:05Z</time>
      </trkpt>
      <trkpt lat="48.74783" lon="2.56257">
        <ele>108</ele>
        <time>2014-05-25T11:05:06Z</time>
      </trkpt>
      <trkpt lat="48.74782" lon="2.56256">
        <ele>108</ele>
        <time>2014-05-25T11:05:07Z</time>
      </trkpt>
      <trkpt lat="48.7478" lon="2.56255">
        <ele>109</ele>
        <time>2014-05-25T11:05:08Z</time>
      </trkpt>
      <trkpt lat="48.74779" lon="2.56254">
        <ele>108</ele>
        <time>2014-05-25T11:05:09Z</time>
      </trkpt>
      <trkpt lat="48.74778" lon="2.56253">
        <ele>107</ele>
        <time>2014-05-25T11:05:10Z</time>
      </trkpt>
      <trkpt lat="48.74777" lon="2.56251">
        <ele>105</ele>
        <time>2014-05-25T11:05:11Z</time>
      </trkpt>
      <trkpt lat="48.74776" lon="2.56249">
        <ele>105</ele>
        <time>2014-05-25T11:05:12Z</time>
      </trkpt>
      <trkpt lat="48.74774" lon="2.56248">
        <ele>104</ele>
        <time>2014-05-25T11:05:13Z</time>
      </trkpt>
      <trkpt lat="48.74773" lon="2.56245">
        <ele>104</ele>
        <time>2014-05-25T11:05:14Z</time>
      </trkpt>
      <trkpt lat="48.74773" lon="2.56243">
        <ele>104</ele>
        <time>2014-05-25T11:05:15Z</time>
      </trkpt>
      <trkpt lat="48.74772" lon="2.56242">
        <ele>103</ele>
        <time>2014-05-25T11:05:16Z</time>
      </trkpt>
      <trkpt lat="48.74771" lon="2.5624">
        <ele>103</ele>
        <time>2014-05-25T11:05:17Z</time>
      </trkpt>
      <trkpt lat="48.7477" lon="2.56238">
        <ele>103</ele>
        <time>2014-05-25T11:05:18Z</time>
      </trkpt>
      <trkpt lat="48.74769" lon="2.56236">
        <ele>102</ele>
        <time>2014-05-25T11:05:19Z</time>
      </trkpt>
      <trkpt lat="48.74768" lon="2.56233">
        <ele>101</ele>
        <time>2014-05-25T11:05:20Z</time>
      </trkpt>
      <trkpt lat="48.74768" lon="2.56231">
        <ele>101</ele>
        <time>2014-05-25T11:05:21Z</time>
      </trkpt>
      <trkpt lat="48.74767" lon="2.56229">
        <ele>102</ele>
        <time>2014-05-25T11:05:22Z</time>
      </trkpt>
      <trkpt lat="48.74766" lon="2.56228">
        <ele>102</ele>
        <time>2014-05-25T11:05:23Z</time>
      </trkpt>
      <trkpt lat="48.74765" lon="2.56226">
        <ele>101</ele>
        <time>2014-05-25T11:05:24Z</time>
      </trkpt>
      <trkpt lat="48.74764" lon="2.56224">
        <ele>101</ele>
        <time>2014-05-25T11:05:25Z</time>
      </trkpt>
      <trkpt lat="48.74763" lon="2.56222">
        <ele>101</ele>
        <time>2014-05-25T11:05:26Z</time>
      </trkpt>
      <trkpt lat="48.74762" lon="2.5622">
        <ele>100</ele>
        <time>2014-05-25T11:05:27Z</time>
      </trkpt>
      <trkpt lat="48.7476" lon="2.56218">
        <ele>101</ele>
        <time>2014-05-25T11:05:28Z</time>
      </trkpt>
      <trkpt lat="48.74759" lon="2.56217">
        <ele>102</ele>
        <time>2014-05-25T11:05:29Z</time>
      </trkpt>
      <trkpt lat="48.74758" lon="2.56216">
        <ele>101</ele>
        <time>2014-05-25T11:05:30Z</time>
      </trkpt>
      <trkpt lat="48.74757" lon="2.56214">
        <ele>101</ele>
        <time>2014-05-25T11:05:31Z</time>
      </trkpt>
      <trkpt lat="48.74755" lon="2.56212">
        <ele>102</ele>
        <time>2014-05-25T11:05:32Z</time>
      </trkpt>
      <trkpt lat="48.74754" lon="2.56211">
        <ele>102</ele>
        <time>2014-05-25T11:05:33Z</time>
      </trkpt>
      <trkpt lat="48.74753" lon="2.5621">
        <ele>102</ele>
        <time>2014-05-25T11:05:34Z</time>
      </trkpt>
      <trkpt lat="48.74751" lon="2.56209">
        <ele>102</ele>
        <time>2014-05-25T11:05:35Z</time>
      </trkpt>
      <trkpt lat="48.7475" lon="2.56208">
        <ele>102</ele>
        <time>2014-05-25T11:05:36Z</time>
      </trkpt>
      <trkpt lat="48.74749" lon="2.56207">
        <ele>103</ele>
        <time>2014-05-25T11:05:37Z</time>
      </trkpt>
      <trkpt lat="48.74747" lon="2.56206">
        <ele>103</ele>
        <time>2014-05-25T11:05:38Z</time>
      </trkpt>
      <trkpt lat="48.74746" lon="2.56206">
        <ele>103</ele>
        <time>2014-05-25T11:05:39Z</time>
      </trkpt>
      <trkpt lat="48.74745" lon="2.56205">
        <ele>103</ele>
        <time>2014-05-25T11:05:40Z</time>
      </trkpt>
      <trkpt lat="48.74743" lon="2.56204">
        <ele>103</ele>
        <time>2014-05-25T11:05:41Z</time>
      </trkpt>
      <trkpt lat="48.74742" lon="2.56204">
        <ele>103</ele>
        <time>2014-05-25T11:05:42Z</time>
      </trkpt>
      <trkpt lat="48.7474" lon="2.56204">
        <ele>103</ele>
        <time>2014-05-25T11:05:43Z</time>
      </trkpt>
      <trkpt lat="48.74739" lon="2.56203">
        <ele>103</ele>
        <time>2014-05-25T11:05:44Z</time>
      </trkpt>
      <trkpt lat="48.74738" lon="2.56203">
        <ele>103</ele>
        <time>2014-05-25T11:05:45Z</time>
      </trkpt>
      <trkpt lat="48.74736" lon="2.56202">
        <ele>103</ele>
        <time>2014-05-25T11:05:46Z</time>
      </trkpt>
      <trkpt lat="48.74735" lon="2.56202">
        <ele>103</ele>
        <time>2014-05-25T11:05:47Z</time>
      </trkpt>
      <trkpt lat="48.74733" lon="2.56202">
        <ele>103</ele>
        <time>2014-05-25T11:05:48Z</time>
      </trkpt>
      <trkpt lat="48.74732" lon="2.56201">
        <ele>103</ele>
        <time>2014-05-25T11:05:49Z</time>
      </trkpt>
      <trkpt lat="48.7473" lon="2.56201">
        <ele>103</ele>
        <time>2014-05-25T11:05:50Z</time>
      </trkpt>
      <trkpt lat="48.74729" lon="2.562">
        <ele>103</ele>
        <time>2014-05-25T11:05:51Z</time>
      </trkpt>
      <trkpt lat="48.74728" lon="2.562">
        <ele>103</ele>
        <time>2014-05-25T11:05:52Z</time>
      </trkpt>
      <trkpt lat="48.74726" lon="2.56199">
        <ele>102</ele>
        <time>2014-05-25T11:05:53Z</time>
      </trkpt>
      <trkpt lat="48.74725" lon="2.56198">
        <ele>103</ele>
        <time>2014-05-25T11:05:54Z</time>
      </trkpt>
      <trkpt lat="48.74723" lon="2.56198">
        <ele>103</ele>
        <time>2014-05-25T11:05:55Z</time>
      </trkpt>
      <trkpt lat="48.74722" lon="2.56197">
        <ele>103</ele>
        <time>2014-05-25T11:05:56Z</time>
      </trkpt>
      <trkpt lat="48.74721" lon="2.56196">
        <ele>103</ele>
        <time>2014-05-25T11:05:57Z</time>
      </trkpt>
      <trkpt lat="48.7472" lon="2.56195">
        <ele>104</ele>
        <time>2014-05-25T11:05:58Z</time>
      </trkpt>
      <trkpt lat="48.74719" lon="2.56194">
        <ele>103</ele>
        <time>2014-05-25T11:05:59Z</time>
      </trkpt>
      <trkpt lat="48.74718" lon="2.56193">
        <ele>103</ele>
        <time>2014-05-25T11:06:00Z</time>
      </trkpt>
      <trkpt lat="48.74716" lon="2.56191">
        <ele>103</ele>
        <time>2014-05-25T11:06:01Z</time>
      </trkpt>
      <trkpt lat="48.74715" lon="2.5619">
        <ele>104</ele>
        <time>2014-05-25T11:06:02Z</time>
      </trkpt>
      <trkpt lat="48.74714" lon="2.56189">
        <ele>104</ele>
        <time>2014-05-25T11:06:03Z</time>
      </trkpt>
      <trkpt lat="48.74713" lon="2.56188">
        <ele>103</ele>
        <time>2014-05-25T11:06:04Z</time>
      </trkpt>
      <trkpt lat="48.74712" lon="2.56187">
        <ele>103</ele>
        <time>2014-05-25T11:06:05Z</time>
      </trkpt>
      <trkpt lat="48.7471" lon="2.56186">
        <ele>103</ele>
        <time>2014-05-25T11:06:06Z</time>
      </trkpt>
      <trkpt lat="48.74709" lon="2.56185">
        <ele>103</ele>
        <time>2014-05-25T11:06:07Z</time>
      </trkpt>
      <trkpt lat="48.74708" lon="2.56184">
        <ele>103</ele>
        <time>2014-05-25T11:06:08Z</time>
      </trkpt>
      <trkpt lat="48.74707" lon="2.56183">
        <ele>103</ele>
        <time>2014-05-25T11:06:09Z</time>
      </trkpt>
      <trkpt lat="48.74707" lon="2.56182">
        <ele>103</ele>
        <time>2014-05-25T11:06:10Z</time>
      </trkpt>
      <trkpt lat="48.74705" lon="2.56181">
        <ele>103</ele>
        <time>2014-05-25T11:06:11Z</time>
      </trkpt>
      <trkpt lat="48.74704" lon="2.5618">
        <ele>103</ele>
        <time>2014-05-25T11:06:12Z</time>
      </trkpt>
      <trkpt lat="48.74703" lon="2.56179">
        <ele>102</ele>
        <time>2014-05-25T11:06:13Z</time>
      </trkpt>
      <trkpt lat="48.74702" lon="2.56177">
        <ele>101</ele>
        <time>2014-05-25T11:06:14Z</time>
      </trkpt>
      <trkpt lat="48.74701" lon="2.56176">
        <ele>102</ele>
        <time>2014-05-25T11:06:15Z</time>
      </trkpt>
      <trkpt lat="48.747" lon="2.56175">
        <ele>103</ele>
        <time>2014-05-25T11:06:16Z</time>
      </trkpt>
      <trkpt lat="48.74699" lon="2.56174">
        <ele>103</ele>
        <time>2014-05-25T11:06:17Z</time>
      </trkpt>
      <trkpt lat="48.74698" lon="2.56172">
        <ele>102</ele>
        <time>2014-05-25T11:06:18Z</time>
      </trkpt>
      <trkpt lat="48.74697" lon="2.56171">
        <ele>102</ele>
        <time>2014-05-25T11:06:19Z</time>
      </trkpt>
      <trkpt lat="48.74695" lon="2.5617">
        <ele>102</ele>
        <time>2014-05-25T11:06:20Z</time>
      </trkpt>
      <trkpt lat="48.74694" lon="2.56168">
        <ele>102</ele>
        <time>2014-05-25T11:06:21Z</time>
      </trkpt>
      <trkpt lat="48.74693" lon="2.56167">
        <ele>102</ele>
        <time>2014-05-25T11:06:22Z</time>
      </trkpt>
      <trkpt lat="48.74692" lon="2.56166">
        <ele>102</ele>
        <time>2014-05-25T11:06:23Z</time>
      </trkpt>
      <trkpt lat="48.74691" lon="2.56164">
        <ele>102</ele>
        <time>2014-05-25T11:06:24Z</time>
      </trkpt>
      <trkpt lat="48.74689" lon="2.56163">
        <ele>102</ele>
        <time>2014-05-25T11:06:25Z</time>
      </trkpt>
      <trkpt lat="48.74688" lon="2.56162">
        <ele>102</ele>
        <time>2014-05-25T11:06:26Z</time>
      </trkpt>
      <trkpt lat="48.74687" lon="2.5616">
        <ele>102</ele>
        <time>2014-05-25T11:06:27Z</time>
      </trkpt>
      <trkpt lat="48.74686" lon="2.56159">
        <ele>102</ele>
        <time>2014-05-25T11:06:28Z</time>
      </trkpt>
      <trkpt lat="48.74684" lon="2.56158">
        <ele>102</ele>
        <time>2014-05-25T11:06:29Z</time>
      </trkpt>
      <trkpt lat="48.74683" lon="2.56157">
        <ele>101</ele>
        <time>2014-05-25T11:06:30Z</time>
      </trkpt>
      <trkpt lat="48.74682" lon="2.56155">
        <ele>101</ele>
        <time>2014-05-25T11:06:31Z</time>
      </trkpt>
      <trkpt lat="48.74681" lon="2.56154">
        <ele>102</ele>
        <time>2014-05-25T11:06:32Z</time>
      </trkpt>
      <trkpt lat="48.7468" lon="2.56153">
        <ele>102</ele>
        <time>2014-05-25T11:06:33Z</time>
      </trkpt>
      <trkpt lat="48.74678" lon="2.56151">
        <ele>102</ele>
        <time>2014-05-25T11:06:34Z</time>
      </trkpt>
      <trkpt lat="48.74677" lon="2.5615">
        <ele>102</ele>
        <time>2014-05-25T11:06:35Z</time>
      </trkpt>
      <trkpt lat="48.74676" lon="2.56149">
        <ele>103</ele>
        <time>2014-05-25T11:06:36Z</time>
      </trkpt>
      <trkpt lat="48.74675" lon="2.56147">
        <ele>103</ele>
        <time>2014-05-25T11:06:37Z</time>
      </trkpt>
      <trkpt lat="48.74674" lon="2.56146">
        <ele>103</ele>
        <time>2014-05-25T11:06:38Z</time>
      </trkpt>
      <trkpt lat="48.74672" lon="2.56144">
        <ele>103</ele>
        <time>2014-05-25T11:06:39Z</time>
      </trkpt>
      <trkpt lat="48.74671" lon="2.56143">
        <ele>104</ele>
        <time>2014-05-25T11:06:40Z</time>
      </trkpt>
      <trkpt lat="48.74669" lon="2.56141">
        <ele>103</ele>
        <time>2014-05-25T11:06:41Z</time>
      </trkpt>
      <trkpt lat="48.74668" lon="2.5614">
        <ele>103</ele>
        <time>2014-05-25T11:06:42Z</time>
      </trkpt>
      <trkpt lat="48.74667" lon="2.56139">
        <ele>103</ele>
        <time>2014-05-25T11:06:43Z</time>
      </trkpt>
      <trkpt lat="48.74665" lon="2.56137">
        <ele>103</ele>
        <time>2014-05-25T11:06:44Z</time>
      </trkpt>
      <trkpt lat="48.74664" lon="2.56136">
        <ele>103</ele>
        <time>2014-05-25T11:06:45Z</time>
      </trkpt>
      <trkpt lat="48.74663" lon="2.56135">
        <ele>104</ele>
        <time>2014-05-25T11:06:46Z</time>
      </trkpt>
      <trkpt lat="48.74661" lon="2.56134">
        <ele>104</ele>
        <time>2014-05-25T11:06:47Z</time>
      </trkpt>
      <trkpt lat="48.7466" lon="2.56133">
        <ele>104</ele>
        <time>2014-05-25T11:06:48Z</time>
      </trkpt>
      <trkpt lat="48.74659" lon="2.56131">
        <ele>104</ele>
        <time>2014-05-25T11:06:49Z</time>
      </trkpt>
      <trkpt lat="48.74657" lon="2.5613">
        <ele>105</ele>
        <time>2014-05-25T11:06:50Z</time>
      </trkpt>
      <trkpt lat="48.74656" lon="2.5613">
        <ele>105</ele>
        <time>2014-05-25T11:06:51Z</time>
      </trkpt>
      <trkpt lat="48.74655" lon="2.56128">
        <ele>105</ele>
        <time>2014-05-25T11:06:52Z</time>
      </trkpt>
      <trkpt lat="48.74653" lon="2.56127">
        <ele>104</ele>
        <time>2014-05-25T11:06:53Z</time>
      </trkpt>
      <trkpt lat="48.74652" lon="2.56126">
        <ele>105</ele>
        <time>2014-05-25T11:06:54Z</time>
      </trkpt>
      <trkpt lat="48.7465" lon="2.56125">
        <ele>105</ele>
        <time>2014-05-25T11:06:55Z</time>
      </trkpt>
      <trkpt lat="48.74649" lon="2.56124">
        <ele>105</ele>
        <time>2014-05-25T11:06:56Z</time>
      </trkpt>
      <trkpt lat="48.74648" lon="2.56122">
        <ele>105</ele>
        <time>2014-05-25T11:06:57Z</time>
      </trkpt>
      <trkpt lat="48.74647" lon="2.56121">
        <ele>105</ele>
        <time>2014-05-25T11:06:58Z</time>
      </trkpt>
      <trkpt lat="48.74646" lon="2.5612">
        <ele>106</ele>
        <time>2014-05-25T11:06:59Z</time>
      </trkpt>
      <trkpt lat="48.74645" lon="2.56119">
        <ele>107</ele>
        <time>2014-05-25T11:07:00Z</time>
      </trkpt>
      <trkpt lat="48.74643" lon="2.56117">
        <ele>106</ele>
        <time>2014-05-25T11:07:01Z</time>
      </trkpt>
      <trkpt lat="48.74642" lon="2.56116">
        <ele>106</ele>
        <time>2014-05-25T11:07:02Z</time>
      </trkpt>
      <trkpt lat="48.74641" lon="2.56115">
        <ele>106</ele>
        <time>2014-05-25T11:07:03Z</time>
      </trkpt>
      <trkpt lat="48.7464" lon="2.56113">
        <ele>107</ele>
        <time>2014-05-25T11:07:04Z</time>
      </trkpt>
      <trkpt lat="48.74639" lon="2.56112">
        <ele>107</ele>
        <time>2014-05-25T11:07:05Z</time>
      </trkpt>
      <trkpt lat="48.74638" lon="2.56111">
        <ele>107</ele>
        <time>2014-05-25T11:07:06Z</time>
      </trkpt>
      <trkpt lat="48.74637" lon="2.56109">
        <ele>107</ele>
        <time>2014-05-25T11:07:07Z</time>
      </trkpt>
      <trkpt lat="48.74635" lon="2.56108">
        <ele>107</ele>
        <time>2014-05-25T11:07:08Z</time>
      </trkpt>
      <trkpt lat="48.74634" lon="2.56107">
        <ele>108</ele>
        <time>2014-05-25T11:07:09Z</time>
      </trkpt>
      <trkpt lat="48.74633" lon="2.56106">
        <ele>108</ele>
        <time>2014-05-25T11:07:10Z</time>
      </trkpt>
      <trkpt lat="48.74632" lon="2.56105">
        <ele>108</ele>
        <time>2014-05-25T11:07:11Z</time>
      </trkpt>
      <trkpt lat="48.74631" lon="2.56104">
        <ele>108</ele>
        <time>2014-05-25T11:07:12Z</time>
      </trkpt>
      <trkpt lat="48.7463" lon="2.56103">
        <ele>108</ele>
        <time>2014-05-25T11:07:13Z</time>
      </trkpt>
      <trkpt lat="48.74628" lon="2.56101">
        <ele>109</ele>
        <time>2014-05-25T11:07:14Z</time>
      </trkpt>
      <trkpt lat="48.74627" lon="2.561">
        <ele>109</ele>
        <time>2014-05-25T11:07:15Z</time>
      </trkpt>
      <trkpt lat="48.74626" lon="2.56099">
        <ele>108</ele>
        <time>2014-05-25T11:07:16Z</time>
      </trkpt>
      <trkpt lat="48.74625" lon="2.56097">
        <ele>108</ele>
        <time>2014-05-25T11:07:17Z</time>
      </trkpt>
      <trkpt lat="48.74624" lon="2.56096">
        <ele>108</ele>
        <time>2014-05-25T11:07:18Z</time>
      </trkpt>
      <trkpt lat="48.74623" lon="2.56095">
        <ele>109</ele>
        <time>2014-05-25T11:07:19Z</time>
      </trkpt>
      <trkpt lat="48.74622" lon="2.56094">
        <ele>109</ele>
        <time>2014-05-25T11:07:20Z</time>
      </trkpt>
      <trkpt lat="48.74621" lon="2.56093">
        <ele>110</ele>
        <time>2014-05-25T11:07:21Z</time>
      </trkpt>
      <trkpt lat="48.74619" lon="2.56091">
        <ele>110</ele>
        <time>2014-05-25T11:07:22Z</time>
      </trkpt>
      <trkpt lat="48.74618" lon="2.5609">
        <ele>110</ele>
        <time>2014-05-25T11:07:23Z</time>
      </trkpt>
      <trkpt lat="48.74617" lon="2.56089">
        <ele>110</ele>
        <time>2014-05-25T11:07:24Z</time>
      </trkpt>
      <trkpt lat="48.74615" lon="2.56088">
        <ele>109</ele>
        <time>2014-05-25T11:07:25Z</time>
      </trkpt>
      <trkpt lat="48.74614" lon="2.56087">
        <ele>110</ele>
        <time>2014-05-25T11:07:26Z</time>
      </trkpt>
      <trkpt lat="48.74613" lon="2.56085">
        <ele>111</ele>
        <time>2014-05-25T11:07:27Z</time>
      </trkpt>
      <trkpt lat="48.74612" lon="2.56084">
        <ele>111</ele>
        <time>2014-05-25T11:07:28Z</time>
      </trkpt>
      <trkpt lat="48.74611" lon="2.56083">
        <ele>112</ele>
        <time>2014-05-25T11:07:29Z</time>
      </trkpt>
      <trkpt lat="48.7461" lon="2.56082">
        <ele>111</ele>
        <time>2014-05-25T11:07:30Z</time>
      </trkpt>
      <trkpt lat="48.74609" lon="2.5608">
        <ele>111</ele>
        <time>2014-05-25T11:07:31Z</time>
      </trkpt>
      <trkpt lat="48.74608" lon="2.56079">
        <ele>111</ele>
        <time>2014-05-25T11:07:32Z</time>
      </trkpt>
      <trkpt lat="48.74607" lon="2.56078">
        <ele>111</ele>
        <time>2014-05-25T11:07:33Z</time>
      </trkpt>
      <trkpt lat="48.74605" lon="2.56076">
        <ele>111</ele>
        <time>2014-05-25T11:07:34Z</time>
      </trkpt>
      <trkpt lat="48.74604" lon="2.56075">
        <ele>111</ele>
        <time>2014-05-25T11:07:35Z</time>
      </trkpt>
      <trkpt lat="48.74603" lon="2.56073">
        <ele>111</ele>
        <time>2014-05-25T11:07:36Z</time>
      </trkpt>
      <trkpt lat="48.74601" lon="2.56072">
        <ele>111</ele>
        <time>2014-05-25T11:07:37Z</time>
      </trkpt>
      <trkpt lat="48.746" lon="2.5607">
        <ele>111</ele>
        <time>2014-05-25T11:07:38Z</time>
      </trkpt>
      <trkpt lat="48.74599" lon="2.56068">
        <ele>111</ele>
        <time>2014-05-25T11:07:39Z</time>
      </trkpt>
      <trkpt lat="48.74598" lon="2.56067">
        <ele>112</ele>
        <time>2014-05-25T11:07:40Z</time>
      </trkpt>
      <trkpt lat="48.74597" lon="2.56065">
        <ele>113</ele>
        <time>2014-05-25T11:07:41Z</time>
      </trkpt>
      <trkpt lat="48.74596" lon="2.56064">
        <ele>114</ele>
        <time>2014-05-25T11:07:42Z</time>
      </trkpt>
      <trkpt lat="48.74595" lon="2.56062">
        <ele>114</ele>
        <time>2014-05-25T11:07:43Z</time>
      </trkpt>
      <trkpt lat="48.74595" lon="2.56061">
        <ele>114</ele>
        <time>2014-05-25T11:07:44Z</time>
      </trkpt>
      <trkpt lat="48.74594" lon="2.56059">
        <ele>113</ele>
        <time>2014-05-25T11:07:45Z</time>
      </trkpt>
      <trkpt lat="48.74594" lon="2.56057">
        <ele>112</ele>
        <time>2014-05-25T11:07:46Z</time>
      </trkpt>
      <trkpt lat="48.74593" lon="2.56055">
        <ele>112</ele>
        <time>2014-05-25T11:07:47Z</time>
      </trkpt>
      <trkpt lat="48.74592" lon="2.56053">
        <ele>112</ele>
        <time>2014-05-25T11:07:48Z</time>
      </trkpt>
      <trkpt lat="48.74592" lon="2.56051">
        <ele>113</ele>
        <time>2014-05-25T11:07:49Z</time>
      </trkpt>
      <trkpt lat="48.74591" lon="2.56049">
        <ele>113</ele>
        <time>2014-05-25T11:07:50Z</time>
      </trkpt>
      <trkpt lat="48.74591" lon="2.56047">
        <ele>114</ele>
        <time>2014-05-25T11:07:51Z</time>
      </trkpt>
      <trkpt lat="48.7459" lon="2.56045">
        <ele>115</ele>
        <time>2014-05-25T11:07:52Z</time>
      </trkpt>
      <trkpt lat="48.7459" lon="2.56043">
        <ele>115</ele>
        <time>2014-05-25T11:07:53Z</time>
      </trkpt>
      <trkpt lat="48.74589" lon="2.56041">
        <ele>115</ele>
        <time>2014-05-25T11:07:54Z</time>
      </trkpt>
      <trkpt lat="48.74588" lon="2.56039">
        <ele>114</ele>
        <time>2014-05-25T11:07:55Z</time>
      </trkpt>
      <trkpt lat="48.74587" lon="2.56037">
        <ele>114</ele>
        <time>2014-05-25T11:07:56Z</time>
      </trkpt>
      <trkpt lat="48.74586" lon="2.56035">
        <ele>114</ele>
        <time>2014-05-25T11:07:57Z</time>
      </trkpt>
      <trkpt lat="48.74586" lon="2.56032">
        <ele>113</ele>
        <time>2014-05-25T11:07:58Z</time>
      </trkpt>
      <trkpt lat="48.74585" lon="2.5603">
        <ele>113</ele>
        <time>2014-05-25T11:07:59Z</time>
      </trkpt>
      <trkpt lat="48.74584" lon="2.56028">
        <ele>113</ele>
        <time>2014-05-25T11:08:00Z</time>
      </trkpt>
      <trkpt lat="48.74583" lon="2.56026">
        <ele>113</ele>
        <time>2014-05-25T11:08:01Z</time>
      </trkpt>
      <trkpt lat="48.74583" lon="2.56024">
        <ele>113</ele>
        <time>2014-05-25T11:08:02Z</time>
      </trkpt>
      <trkpt lat="48.74582" lon="2.56022">
        <ele>114</ele>
        <time>2014-05-25T11:08:03Z</time>
      </trkpt>
      <trkpt lat="48.74582" lon="2.5602">
        <ele>115</ele>
        <time>2014-05-25T11:08:04Z</time>
      </trkpt>
      <trkpt lat="48.74582" lon="2.56018">
        <ele>115</ele>
        <time>2014-05-25T11:08:05Z</time>
      </trkpt>
      <trkpt lat="48.74582" lon="2.56016">
        <ele>114</ele>
        <time>2014-05-25T11:08:06Z</time>
      </trkpt>
      <trkpt lat="48.74582" lon="2.56014">
        <ele>114</ele>
        <time>2014-05-25T11:08:07Z</time>
      </trkpt>
      <trkpt lat="48.74582" lon="2.56011">
        <ele>113</ele>
        <time>2014-05-25T11:08:08Z</time>
      </trkpt>
      <trkpt lat="48.74582" lon="2.56009">
        <ele>112</ele>
        <time>2014-05-25T11:08:09Z</time>
      </trkpt>
      <trkpt lat="48.74582" lon="2.56006">
        <ele>112</ele>
        <time>2014-05-25T11:08:10Z</time>
      </trkpt>
      <trkpt lat="48.74582" lon="2.56004">
        <ele>112</ele>
        <time>2014-05-25T11:08:11Z</time>
      </trkpt>
      <trkpt lat="48.74581" lon="2.56001">
        <ele>111</ele>
        <time>2014-05-25T11:08:12Z</time>
      </trkpt>
      <trkpt lat="48.74581" lon="2.55999">
        <ele>111</ele>
        <time>2014-05-25T11:08:13Z</time>
      </trkpt>
      <trkpt lat="48.74581" lon="2.55996">
        <ele>111</ele>
        <time>2014-05-25T11:08:14Z</time>
      </trkpt>
      <trkpt lat="48.74581" lon="2.55994">
        <ele>113</ele>
        <time>2014-05-25T11:08:15Z</time>
      </trkpt>
      <trkpt lat="48.7458" lon="2.55992">
        <ele>114</ele>
        <time>2014-05-25T11:08:16Z</time>
      </trkpt>
      <trkpt lat="48.7458" lon="2.5599">
        <ele>115</ele>
        <time>2014-05-25T11:08:17Z</time>
      </trkpt>
      <trkpt lat="48.74581" lon="2.55988">
        <ele>117</ele>
        <time>2014-05-25T11:08:18Z</time>
      </trkpt>
      <trkpt lat="48.74581" lon="2.55987">
        <ele>117</ele>
        <time>2014-05-25T11:08:19Z</time>
      </trkpt>
      <trkpt lat="48.74581" lon="2.55984">
        <ele>116</ele>
        <time>2014-05-25T11:08:20Z</time>
      </trkpt>
      <trkpt lat="48.74581" lon="2.55982">
        <ele>116</ele>
        <time>2014-05-25T11:08:21Z</time>
      </trkpt>
      <trkpt lat="48.7458" lon="2.5598">
        <ele>117</ele>
        <time>2014-05-25T11:08:22Z</time>
      </trkpt>
      <trkpt lat="48.7458" lon="2.55977">
        <ele>117</ele>
        <time>2014-05-25T11:08:23Z</time>
      </trkpt>
      <trkpt lat="48.74579" lon="2.55975">
        <ele>117</ele>
        <time>2014-05-25T11:08:24Z</time>
      </trkpt>
      <trkpt lat="48.74579" lon="2.55972">
        <ele>117</ele>
        <time>2014-05-25T11:08:25Z</time>
      </trkpt>
      <trkpt lat="48.74578" lon="2.5597">
        <ele>117</ele>
        <time>2014-05-25T11:08:26Z</time>
      </trkpt>
      <trkpt lat="48.74578" lon="2.55968">
        <ele>116</ele>
        <time>2014-05-25T11:08:27Z</time>
      </trkpt>
      <trkpt lat="48.74578" lon="2.55965">
        <ele>117</ele>
        <time>2014-05-25T11:08:28Z</time>
      </trkpt>
      <trkpt lat="48.74577" lon="2.55963">
        <ele>117</ele>
        <time>2014-05-25T11:08:29Z</time>
      </trkpt>
      <trkpt lat="48.74576" lon="2.55961">
        <ele>116</ele>
        <time>2014-05-25T11:08:30Z</time>
      </trkpt>
      <trkpt lat="48.74576" lon="2.55959">
        <ele>115</ele>
        <time>2014-05-25T11:08:31Z</time>
      </trkpt>
      <trkpt lat="48.74576" lon="2.55957">
        <ele>116</ele>
        <time>2014-05-25T11:08:32Z</time>
      </trkpt>
      <trkpt lat="48.74575" lon="2.55955">
        <ele>116</ele>
        <time>2014-05-25T11:08:33Z</time>
      </trkpt>
      <trkpt lat="48.74574" lon="2.55953">
        <ele>116</ele>
        <time>2014-05-25T11:08:34Z</time>
      </trkpt>
      <trkpt lat="48.74574" lon="2.5595">
        <ele>116</ele>
        <time>2014-05-25T11:08:35Z</time>
      </trkpt>
      <trkpt lat="48.74573" lon="2.55948">
        <ele>117</ele>
        <time>2014-05-25T11:08:36Z</time>
      </trkpt>
      <trkpt lat="48.74573" lon="2.55946">
        <ele>118</ele>
        <time>2014-05-25T11:08:37Z</time>
      </trkpt>
      <trkpt lat="48.74572" lon="2.55944">
        <ele>118</ele>
        <time>2014-05-25T11:08:38Z</time>
      </trkpt>
      <trkpt lat="48.74572" lon="2.55941">
        <ele>118</ele>
        <time>2014-05-25T11:08:39Z</time>
      </trkpt>
      <trkpt lat="48.74572" lon="2.55939">
        <ele>119</ele>
        <time>2014-05-25T11:08:40Z</time>
      </trkpt>
      <trkpt lat="48.74572" lon="2.55937">
        <ele>118</ele>
        <time>2014-05-25T11:08:41Z</time>
      </trkpt>
      <trkpt lat="48.74572" lon="2.55935">
        <ele>118</ele>
        <time>2014-05-25T11:08:42Z</time>
      </trkpt>
      <trkpt lat="48.74571" lon="2.55933">
        <ele>118</ele>
        <time>2014-05-25T11:08:43Z</time>
      </trkpt>
      <trkpt lat="48.74571" lon="2.55931">
        <ele>118</ele>
        <time>2014-05-25T11:08:44Z</time>
      </trkpt>
      <trkpt lat="48.74571" lon="2.55929">
        <ele>117</ele>
        <time>2014-05-25T11:08:45Z</time>
      </trkpt>
      <trkpt lat="48.74571" lon="2.55927">
        <ele>116</ele>
        <time>2014-05-25T11:08:46Z</time>
      </trkpt>
      <trkpt lat="48.74571" lon="2.55925">
        <ele>116</ele>
        <time>2014-05-25T11:08:47Z</time>
      </trkpt>
      <trkpt lat="48.74571" lon="2.55922">
        <ele>115</ele>
        <time>2014-05-25T11:08:48Z</time>
      </trkpt>
      <trkpt lat="48.74571" lon="2.5592">
        <ele>115</ele>
        <time>2014-05-25T11:08:49Z</time>
      </trkpt>
      <trkpt lat="48.7457" lon="2.55918">
        <ele>115</ele>
        <time>2014-05-25T11:08:50Z</time>
      </trkpt>
      <trkpt lat="48.7457" lon="2.55915">
        <ele>115</ele>
        <time>2014-05-25T11:08:51Z</time>
      </trkpt>
      <trkpt lat="48.74569" lon="2.55913">
        <ele>113</ele>
        <time>2014-05-25T11:08:52Z</time>
      </trkpt>
      <trkpt lat="48.74569" lon="2.55911">
        <ele>111</ele>
        <time>2014-05-25T11:08:53Z</time>
      </trkpt>
      <trkpt lat="48.74569" lon="2.55908">
        <ele>112</ele>
        <time>2014-05-25T11:08:54Z</time>
      </trkpt>
      <trkpt lat="48.74569" lon="2.55906">
        <ele>110</ele>
        <time>2014-05-25T11:08:55Z</time>
      </trkpt>
      <trkpt lat="48.74569" lon="2.55903">
        <ele>109</ele>
        <time>2014-05-25T11:08:56Z</time>
      </trkpt>
      <trkpt lat="48.74568" lon="2.55901">
        <ele>108</ele>
        <time>2014-05-25T11:08:57Z</time>
      </trkpt>
      <trkpt lat="48.74568" lon="2.55899">
        <ele>107</ele>
        <time>2014-05-25T11:08:58Z</time>
      </trkpt>
      <trkpt lat="48.74567" lon="2.55896">
        <ele>105</ele>
        <time>2014-05-25T11:08:59Z</time>
      </trkpt>
      <trkpt lat="48.74567" lon="2.55894">
        <ele>104</ele>
        <time>2014-05-25T11:09:00Z</time>
      </trkpt>
      <trkpt lat="48.74567" lon="2.55892">
        <ele>103</ele>
        <time>2014-05-25T11:09:01Z</time>
      </trkpt>
      <trkpt lat="48.74568" lon="2.55889">
        <ele>103</ele>
        <time>2014-05-25T11:09:02Z</time>
      </trkpt>
      <trkpt lat="48.74568" lon="2.55887">
        <ele>103</ele>
        <time>2014-05-25T11:09:03Z</time>
      </trkpt>
      <trkpt lat="48.74568" lon="2.55885">
        <ele>102</ele>
        <time>2014-05-25T11:09:04Z</time>
      </trkpt>
      <trkpt lat="48.74569" lon="2.55883">
        <ele>103</ele>
        <time>2014-05-25T11:09:05Z</time>
      </trkpt>
      <trkpt lat="48.74569" lon="2.55881">
        <ele>104</ele>
        <time>2014-05-25T11:09:06Z</time>
      </trkpt>
      <trkpt lat="48.7457" lon="2.55879">
        <ele>104</ele>
        <time>2014-05-25T11:09:07Z</time>
      </trkpt>
      <trkpt lat="48.74571" lon="2.55877">
        <ele>105</ele>
        <time>2014-05-25T11:09:08Z</time>
      </trkpt>
      <trkpt lat="48.74571" lon="2.55876">
        <ele>105</ele>
        <time>2014-05-25T11:09:09Z</time>
      </trkpt>
      <trkpt lat="48.74572" lon="2.55874">
        <ele>105</ele>
        <time>2014-05-25T11:09:10Z</time>
      </trkpt>
      <trkpt lat="48.74573" lon="2.55872">
        <ele>106</ele>
        <time>2014-05-25T11:09:11Z</time>
      </trkpt>
      <trkpt lat="48.74574" lon="2.5587">
        <ele>107</ele>
        <time>2014-05-25T11:09:12Z</time>
      </trkpt>
      <trkpt lat="48.74575" lon="2.55868">
        <ele>108</ele>
        <time>2014-05-25T11:09:13Z</time>
      </trkpt>
      <trkpt lat="48.74576" lon="2.55866">
        <ele>108</ele>
        <time>2014-05-25T11:09:14Z</time>
      </trkpt>
      <trkpt lat="48.74576" lon="2.55865">
        <ele>108</ele>
        <time>2014-05-25T11:09:15Z</time>
      </trkpt>
      <trkpt lat="48.74577" lon="2.55863">
        <ele>109</ele>
        <time>2014-05-25T11:09:16Z</time>
      </trkpt>
      <trkpt lat="48.74578" lon="2.55862">
        <ele>109</ele>
        <time>2014-05-25T11:09:17Z</time>
      </trkpt>
      <trkpt lat="48.74579" lon="2.5586">
        <ele>110</ele>
        <time>2014-05-25T11:09:18Z</time>
      </trkpt>
      <trkpt lat="48.74579" lon="2.55859">
        <ele>111</ele>
        <time>2014-05-25T11:09:19Z</time>
      </trkpt>
      <trkpt lat="48.7458" lon="2.55858">
        <ele>111</ele>
        <time>2014-05-25T11:09:20Z</time>
      </trkpt>
      <trkpt lat="48.74581" lon="2.55857">
        <ele>112</ele>
        <time>2014-05-25T11:09:21Z</time>
      </trkpt>
      <trkpt lat="48.74582" lon="2.55856">
        <ele>111</ele>
        <time>2014-05-25T11:09:22Z</time>
      </trkpt>
      <trkpt lat="48.74582" lon="2.55855">
        <ele>112</ele>
        <time>2014-05-25T11:09:23Z</time>
      </trkpt>
      <trkpt lat="48.74583" lon="2.55853">
        <ele>112</ele>
        <time>2014-05-25T11:09:24Z</time>
      </trkpt>
      <trkpt lat="48.74584" lon="2.55852">
        <ele>112</ele>
        <time>2014-05-25T11:09:25Z</time>
      </trkpt>
      <trkpt lat="48.74585" lon="2.55851">
        <ele>113</ele>
        <time>2014-05-25T11:09:26Z</time>
      </trkpt>
      <trkpt lat="48.74586" lon="2.5585">
        <ele>113</ele>
        <time>2014-05-25T11:09:27Z</time>
      </trkpt>
      <trkpt lat="48.74586" lon="2.55848">
        <ele>113</ele>
        <time>2014-05-25T11:09:28Z</time>
      </trkpt>
      <trkpt lat="48.74587" lon="2.55847">
        <ele>114</ele>
        <time>2014-05-25T11:09:29Z</time>
      </trkpt>
      <trkpt lat="48.74588" lon="2.55846">
        <ele>114</ele>
        <time>2014-05-25T11:09:30Z</time>
      </trkpt>
      <trkpt lat="48.74589" lon="2.55845">
        <ele>114</ele>
        <time>2014-05-25T11:09:31Z</time>
      </trkpt>
      <trkpt lat="48.74589" lon="2.55843">
        <ele>115</ele>
        <time>2014-05-25T11:09:32Z</time>
      </trkpt>
      <trkpt lat="48.7459" lon="2.55842">
        <ele>114</ele>
        <time>2014-05-25T11:09:33Z</time>
      </trkpt>
      <trkpt lat="48.74591" lon="2.5584">
        <ele>114</ele>
        <time>2014-05-25T11:09:34Z</time>
      </trkpt>
      <trkpt lat="48.74592" lon="2.55838">
        <ele>115</ele>
        <time>2014-05-25T11:09:35Z</time>
      </trkpt>
      <trkpt lat="48.74593" lon="2.55836">
        <ele>115</ele>
        <time>2014-05-25T11:09:36Z</time>
      </trkpt>
      <trkpt lat="48.74594" lon="2.55834">
        <ele>115</ele>
        <time>2014-05-25T11:09:37Z</time>
      </trkpt>
      <trkpt lat="48.74594" lon="2.55832">
        <ele>115</ele>
        <time>2014-05-25T11:09:38Z</time>
      </trkpt>
      <trkpt lat="48.74595" lon="2.55831">
        <ele>116</ele>
        <time>2014-05-25T11:09:39Z</time>
      </trkpt>
      <trkpt lat="48.74596" lon="2.55829">
        <ele>116</ele>
        <time>2014-05-25T11:09:40Z</time>
      </trkpt>
      <trkpt lat="48.74597" lon="2.55827">
        <ele>116</ele>
        <time>2014-05-25T11:09:41Z</time>
      </trkpt>
      <trkpt lat="48.74598" lon="2.55826">
        <ele>115</ele>
        <time>2014-05-25T11:09:42Z</time>
      </trkpt>
      <trkpt lat="48.74599" lon="2.55824">
        <ele>116</ele>
        <time>2014-05-25T11:09:43Z</time>
      </trkpt>
      <trkpt lat="48.746" lon="2.55823">
        <ele>117</ele>
        <time>2014-05-25T11:09:44Z</time>
      </trkpt>
      <trkpt lat="48.74601" lon="2.55821">
        <ele>116</ele>
        <time>2014-05-25T11:09:45Z</time>
      </trkpt>
      <trkpt lat="48.74602" lon="2.5582">
        <ele>116</ele>
        <time>2014-05-25T11:09:46Z</time>
      </trkpt>
      <trkpt lat="48.74603" lon="2.55818">
        <ele>116</ele>
        <time>2014-05-25T11:09:47Z</time>
      </trkpt>
      <trkpt lat="48.74604" lon="2.55817">
        <ele>117</ele>
        <time>2014-05-25T11:09:48Z</time>
      </trkpt>
      <trkpt lat="48.74604" lon="2.55815">
        <ele>117</ele>
        <time>2014-05-25T11:09:49Z</time>
      </trkpt>
      <trkpt lat="48.74605" lon="2.55814">
        <ele>117</ele>
        <time>2014-05-25T11:09:50Z</time>
      </trkpt>
      <trkpt lat="48.74606" lon="2.55812">
        <ele>117</ele>
        <time>2014-05-25T11:09:51Z</time>
      </trkpt>
      <trkpt lat="48.74607" lon="2.55811">
        <ele>117</ele>
        <time>2014-05-25T11:09:52Z</time>
      </trkpt>
      <trkpt lat="48.74608" lon="2.55809">
        <ele>117</ele>
        <time>2014-05-25T11:09:53Z</time>
      </trkpt>
      <trkpt lat="48.74609" lon="2.55808">
        <ele>117</ele>
        <time>2014-05-25T11:09:54Z</time>
      </trkpt>
      <trkpt lat="48.7461" lon="2.55806">
        <ele>115</ele>
        <time>2014-05-25T11:09:55Z</time>
      </trkpt>
      <trkpt lat="48.74611" lon="2.55805">
        <ele>115</ele>
        <time>2014-05-25T11:09:56Z</time>
      </trkpt>
      <trkpt lat="48.74612" lon="2.55803">
        <ele>114</ele>
        <time>2014-05-25T11:09:57Z</time>
      </trkpt>
      <trkpt lat="48.74612" lon="2.55801">
        <ele>114</ele>
        <time>2014-05-25T11:09:58Z</time>
      </trkpt>
      <trkpt lat="48.74613" lon="2.55799">
        <ele>114</ele>
        <time>2014-05-25T11:09:59Z</time>
      </trkpt>
      <trkpt lat="48.74614" lon="2.55797">
        <ele>114</ele>
        <time>2014-05-25T11:10:00Z</time>
      </trkpt>
      <trkpt lat="48.74615" lon="2.55795">
        <ele>114</ele>
        <time>2014-05-25T11:10:01Z</time>
      </trkpt>
      <trkpt lat="48.74615" lon="2.55793">
        <ele>115</ele>
        <time>2014-05-25T11:10:02Z</time>
      </trkpt>
      <trkpt lat="48.74616" lon="2.55791">
        <ele>115</ele>
        <time>2014-05-25T11:10:03Z</time>
      </trkpt>
      <trkpt lat="48.74617" lon="2.5579">
        <ele>115</ele>
        <time>2014-05-25T11:10:04Z</time>
      </trkpt>
      <trkpt lat="48.74618" lon="2.55788">
        <ele>114</ele>
        <time>2014-05-25T11:10:05Z</time>
      </trkpt>
      <trkpt lat="48.74619" lon="2.55787">
        <ele>114</ele>
        <time>2014-05-25T11:10:06Z</time>
      </trkpt>
      <trkpt lat="48.7462" lon="2.55785">
        <ele>114</ele>
        <time>2014-05-25T11:10:07Z</time>
      </trkpt>
      <trkpt lat="48.74621" lon="2.55784">
        <ele>115</ele>
        <time>2014-05-25T11:10:08Z</time>
      </trkpt>
      <trkpt lat="48.74622" lon="2.55783">
        <ele>114</ele>
        <time>2014-05-25T11:10:09Z</time>
      </trkpt>
      <trkpt lat="48.74623" lon="2.55782">
        <ele>114</ele>
        <time>2014-05-25T11:10:10Z</time>
      </trkpt>
      <trkpt lat="48.74624" lon="2.55781">
        <ele>114</ele>
        <time>2014-05-25T11:10:11Z</time>
      </trkpt>
      <trkpt lat="48.74625" lon="2.55779">
        <ele>114</ele>
        <time>2014-05-25T11:10:12Z</time>
      </trkpt>
      <trkpt lat="48.74626" lon="2.55778">
        <ele>114</ele>
        <time>2014-05-25T11:10:13Z</time>
      </trkpt>
      <trkpt lat="48.74627" lon="2.55776">
        <ele>114</ele>
        <time>2014-05-25T11:10:14Z</time>
      </trkpt>
      <trkpt lat="48.74628" lon="2.55774">
        <ele>114</ele>
        <time>2014-05-25T11:10:15Z</time>
      </trkpt>
      <trkpt lat="48.74629" lon="2.55772">
        <ele>113</ele>
        <time>2014-05-25T11:10:16Z</time>
      </trkpt>
      <trkpt lat="48.7463" lon="2.55771">
        <ele>112</ele>
        <time>2014-05-25T11:10:17Z</time>
      </trkpt>
      <trkpt lat="48.74631" lon="2.55769">
        <ele>112</ele>
        <time>2014-05-25T11:10:18Z</time>
      </trkpt>
      <trkpt lat="48.74632" lon="2.55767">
        <ele>112</ele>
        <time>2014-05-25T11:10:19Z</time>
      </trkpt>
      <trkpt lat="48.74633" lon="2.55765">
        <ele>111</ele>
        <time>2014-05-25T11:10:20Z</time>
      </trkpt>
      <trkpt lat="48.74634" lon="2.55764">
        <ele>112</ele>
        <time>2014-05-25T11:10:21Z</time>
      </trkpt>
      <trkpt lat="48.74635" lon="2.55762">
        <ele>113</ele>
        <time>2014-05-25T11:10:22Z</time>
      </trkpt>
      <trkpt lat="48.74636" lon="2.5576">
        <ele>113</ele>
        <time>2014-05-25T11:10:23Z</time>
      </trkpt>
      <trkpt lat="48.74638" lon="2.55759">
        <ele>112</ele>
        <time>2014-05-25T11:10:24Z</time>
      </trkpt>
      <trkpt lat="48.74639" lon="2.55757">
        <ele>112</ele>
        <time>2014-05-25T11:10:25Z</time>
      </trkpt>
      <trkpt lat="48.7464" lon="2.55755">
        <ele>112</ele>
        <time>2014-05-25T11:10:26Z</time>
      </trkpt>
      <trkpt lat="48.7464" lon="2.55754">
        <ele>112</ele>
        <time>2014-05-25T11:10:27Z</time>
      </trkpt>
      <trkpt lat="48.74641" lon="2.55752">
        <ele>112</ele>
        <time>2014-05-25T11:10:28Z</time>
      </trkpt>
      <trkpt lat="48.74642" lon="2.55751">
        <ele>112</ele>
        <time>2014-05-25T11:10:29Z</time>
      </trkpt>
      <trkpt lat="48.74643" lon="2.55749">
        <ele>113</ele>
        <time>2014-05-25T11:10:30Z</time>
      </trkpt>
      <trkpt lat="48.74644" lon="2.55748">
        <ele>112</ele>
        <time>2014-05-25T11:10:31Z</time>
      </trkpt>
      <trkpt lat="48.74645" lon="2.55746">
        <ele>112</ele>
        <time>2014-05-25T11:10:32Z</time>
      </trkpt>
      <trkpt lat="48.74646" lon="2.55744">
        <ele>112</ele>
        <time>2014-05-25T11:10:33Z</time>
      </trkpt>
      <trkpt lat="48.74647" lon="2.55742">
        <ele>111</ele>
        <time>2014-05-25T11:10:34Z</time>
      </trkpt>
      <trkpt lat="48.74648" lon="2.5574">
        <ele>110</ele>
        <time>2014-05-25T11:10:35Z</time>
      </trkpt>
      <trkpt lat="48.74649" lon="2.55738">
        <ele>110</ele>
        <time>2014-05-25T11:10:36Z</time>
      </trkpt>
      <trkpt lat="48.74649" lon="2.55736">
        <ele>110</ele>
        <time>2014-05-25T11:10:37Z</time>
      </trkpt>
      <trkpt lat="48.7465" lon="2.55734">
        <ele>109</ele>
        <time>2014-05-25T11:10:38Z</time>
      </trkpt>
      <trkpt lat="48.74651" lon="2.55732">
        <ele>110</ele>
        <time>2014-05-25T11:10:39Z</time>
      </trkpt>
      <trkpt lat="48.74652" lon="2.5573">
        <ele>111</ele>
        <time>2014-05-25T11:10:40Z</time>
      </trkpt>
      <trkpt lat="48.74653" lon="2.55728">
        <ele>111</ele>
        <time>2014-05-25T11:10:41Z</time>
      </trkpt>
      <trkpt lat="48.74654" lon="2.55726">
        <ele>110</ele>
        <time>2014-05-25T11:10:42Z</time>
      </trkpt>
      <trkpt lat="48.74655" lon="2.55725">
        <ele>110</ele>
        <time>2014-05-25T11:10:43Z</time>
      </trkpt>
      <trkpt lat="48.74656" lon="2.55723">
        <ele>110</ele>
        <time>2014-05-25T11:10:44Z</time>
      </trkpt>
      <trkpt lat="48.74657" lon="2.55721">
        <ele>109</ele>
        <time>2014-05-25T11:10:45Z</time>
      </trkpt>
      <trkpt lat="48.74658" lon="2.55719">
        <ele>110</ele>
        <time>2014-05-25T11:10:46Z</time>
      </trkpt>
      <trkpt lat="48.74658" lon="2.55717">
        <ele>110</ele>
        <time>2014-05-25T11:10:47Z</time>
      </trkpt>
      <trkpt lat="48.74659" lon="2.55715">
        <ele>111</ele>
        <time>2014-05-25T11:10:48Z</time>
      </trkpt>
      <trkpt lat="48.7466" lon="2.55714">
        <ele>110</ele>
        <time>2014-05-25T11:10:49Z</time>
      </trkpt>
      <trkpt lat="48.74661" lon="2.55712">
        <ele>109</ele>
        <time>2014-05-25T11:10:50Z</time>
      </trkpt>
      <trkpt lat="48.74662" lon="2.5571">
        <ele>109</ele>
        <time>2014-05-25T11:10:51Z</time>
      </trkpt>
      <trkpt lat="48.74663" lon="2.55708">
        <ele>109</ele>
        <time>2014-05-25T11:10:52Z</time>
      </trkpt>
      <trkpt lat="48.74663" lon="2.55706">
        <ele>109</ele>
        <time>2014-05-25T11:10:53Z</time>
      </trkpt>
      <trkpt lat="48.74664" lon="2.55705">
        <ele>108</ele>
        <time>2014-05-25T11:10:54Z</time>
      </trkpt>
      <trkpt lat="48.74665" lon="2.55703">
        <ele>107</ele>
        <time>2014-05-25T11:10:55Z</time>
      </trkpt>
      <trkpt lat="48.74665" lon="2.55701">
        <ele>108</ele>
        <time>2014-05-25T11:10:56Z</time>
      </trkpt>
      <trkpt lat="48.74666" lon="2.55699">
        <ele>108</ele>
        <time>2014-05-25T11:10:57Z</time>
      </trkpt>
      <trkpt lat="48.74666" lon="2.55697">
        <ele>108</ele>
        <time>2014-05-25T11:10:58Z</time>
      </trkpt>
      <trkpt lat="48.74666" lon="2.55695">
        <ele>107</ele>
        <time>2014-05-25T11:10:59Z</time>
      </trkpt>
      <trkpt lat="48.74667" lon="2.55693">
        <ele>106</ele>
        <time>2014-05-25T11:11:00Z</time>
      </trkpt>
      <trkpt lat="48.74668" lon="2.55692">
        <ele>106</ele>
        <time>2014-05-25T11:11:01Z</time>
      </trkpt>
      <trkpt lat="48.74668" lon="2.5569">
        <ele>106</ele>
        <time>2014-05-25T11:11:02Z</time>
      </trkpt>
      <trkpt lat="48.74669" lon="2.55688">
        <ele>106</ele>
        <time>2014-05-25T11:11:03Z</time>
      </trkpt>
      <trkpt lat="48.7467" lon="2.55687">
        <ele>106</ele>
        <time>2014-05-25T11:11:04Z</time>
      </trkpt>
      <trkpt lat="48.74671" lon="2.55685">
        <ele>106</ele>
        <time>2014-05-25T11:11:05Z</time>
      </trkpt>
      <trkpt lat="48.74671" lon="2.55683">
        <ele>106</ele>
        <time>2014-05-25T11:11:06Z</time>
      </trkpt>
      <trkpt lat="48.74672" lon="2.55681">
        <ele>105</ele>
        <time>2014-05-25T11:11:07Z</time>
      </trkpt>
      <trkpt lat="48.74672" lon="2.55679">
        <ele>103</ele>
        <time>2014-05-25T11:11:08Z</time>
      </trkpt>
      <trkpt lat="48.74672" lon="2.55677">
        <ele>103</ele>
        <time>2014-05-25T11:11:09Z</time>
      </trkpt>
      <trkpt lat="48.74671" lon="2.55675">
        <ele>103</ele>
        <time>2014-05-25T11:11:10Z</time>
      </trkpt>
      <trkpt lat="48.74671" lon="2.55673">
        <ele>102</ele>
        <time>2014-05-25T11:11:11Z</time>
      </trkpt>
      <trkpt lat="48.7467" lon="2.55671">
        <ele>102</ele>
        <time>2014-05-25T11:11:12Z</time>
      </trkpt>
      <trkpt lat="48.7467" lon="2.5567">
        <ele>102</ele>
        <time>2014-05-25T11:11:13Z</time>
      </trkpt>
      <trkpt lat="48.74669" lon="2.55668">
        <ele>102</ele>
        <time>2014-05-25T11:11:14Z</time>
      </trkpt>
      <trkpt lat="48.74668" lon="2.55666">
        <ele>101</ele>
        <time>2014-05-25T11:11:15Z</time>
      </trkpt>
      <trkpt lat="48.74668" lon="2.55665">
        <ele>100</ele>
        <time>2014-05-25T11:11:16Z</time>
      </trkpt>
      <trkpt lat="48.74667" lon="2.55664">
        <ele>100</ele>
        <time>2014-05-25T11:11:17Z</time>
      </trkpt>
      <trkpt lat="48.74666" lon="2.55663">
        <ele>101</ele>
        <time>2014-05-25T11:11:18Z</time>
      </trkpt>
      <trkpt lat="48.74666" lon="2.55662">
        <ele>102</ele>
        <time>2014-05-25T11:11:19Z</time>
      </trkpt>
      <trkpt lat="48.74665" lon="2.55661">
        <ele>101</ele>
        <time>2014-05-25T11:11:20Z</time>
      </trkpt>
      <trkpt lat="48.74664" lon="2.55659">
        <ele>101</ele>
        <time>2014-05-25T11:11:21Z</time>
      </trkpt>
      <trkpt lat="48.74664" lon="2.55658">
        <ele>101</ele>
        <time>2014-05-25T11:11:22Z</time>
      </trkpt>
      <trkpt lat="48.74663" lon="2.55657">
        <ele>101</ele>
        <time>2014-05-25T11:11:23Z</time>
      </trkpt>
      <trkpt lat="48.74662" lon="2.55655">
        <ele>102</ele>
        <time>2014-05-25T11:11:24Z</time>
      </trkpt>
      <trkpt lat="48.74661" lon="2.55654">
        <ele>102</ele>
        <time>2014-05-25T11:11:25Z</time>
      </trkpt>
      <trkpt lat="48.7466" lon="2.55653">
        <ele>102</ele>
        <time>2014-05-25T11:11:26Z</time>
      </trkpt>
      <trkpt lat="48.74659" lon="2.55651">
        <ele>101</ele>
        <time>2014-05-25T11:11:27Z</time>
      </trkpt>
      <trkpt lat="48.74658" lon="2.5565">
        <ele>100</ele>
        <time>2014-05-25T11:11:28Z</time>
      </trkpt>
      <trkpt lat="48.74657" lon="2.55649">
        <ele>101</ele>
        <time>2014-05-25T11:11:29Z</time>
      </trkpt>
      <trkpt lat="48.74656" lon="2.55648">
        <ele>101</ele>
        <time>2014-05-25T11:11:30Z</time>
      </trkpt>
      <trkpt lat="48.74654" lon="2.55647">
        <ele>102</ele>
        <time>2014-05-25T11:11:31Z</time>
      </trkpt>
      <trkpt lat="48.74653" lon="2.55646">
        <ele>101</ele>
        <time>2014-05-25T11:11:32Z</time>
      </trkpt>
      <trkpt lat="48.74652" lon="2.55645">
        <ele>100</ele>
        <time>2014-05-25T11:11:33Z</time>
      </trkpt>
      <trkpt lat="48.7465" lon="2.55644">
        <ele>100</ele>
        <time>2014-05-25T11:11:34Z</time>
      </trkpt>
      <trkpt lat="48.74649" lon="2.55643">
        <ele>100</ele>
        <time>2014-05-25T11:11:35Z</time>
      </trkpt>
      <trkpt lat="48.74648" lon="2.55642">
        <ele>100</ele>
        <time>2014-05-25T11:11:36Z</time>
      </trkpt>
      <trkpt lat="48.74647" lon="2.55641">
        <ele>100</ele>
        <time>2014-05-25T11:11:37Z</time>
      </trkpt>
      <trkpt lat="48.74645" lon="2.5564">
        <ele>99</ele>
        <time>2014-05-25T11:11:38Z</time>
      </trkpt>
      <trkpt lat="48.74644" lon="2.55639">
        <ele>99</ele>
        <time>2014-05-25T11:11:39Z</time>
      </trkpt>
      <trkpt lat="48.74643" lon="2.55637">
        <ele>99</ele>
        <time>2014-05-25T11:11:40Z</time>
      </trkpt>
      <trkpt lat="48.74642" lon="2.55635">
        <ele>98</ele>
        <time>2014-05-25T11:11:41Z</time>
      </trkpt>
      <trkpt lat="48.74642" lon="2.55633">
        <ele>98</ele>
        <time>2014-05-25T11:11:42Z</time>
      </trkpt>
      <trkpt lat="48.74642" lon="2.5563">
        <ele>98</ele>
        <time>2014-05-25T11:11:43Z</time>
      </trkpt>
      <trkpt lat="48.74642" lon="2.55628">
        <ele>98</ele>
        <time>2014-05-25T11:11:44Z</time>
      </trkpt>
      <trkpt lat="48.74642" lon="2.55626">
        <ele>99</ele>
        <time>2014-05-25T11:11:45Z</time>
      </trkpt>
      <trkpt lat="48.74642" lon="2.55624">
        <ele>99</ele>
        <time>2014-05-25T11:11:46Z</time>
      </trkpt>
      <trkpt lat="48.74643" lon="2.55623">
        <ele>100</ele>
        <time>2014-05-25T11:11:47Z</time>
      </trkpt>
      <trkpt lat="48.74643" lon="2.55621">
        <ele>100</ele>
        <time>2014-05-25T11:11:48Z</time>
      </trkpt>
      <trkpt lat="48.74644" lon="2.55619">
        <ele>100</ele>
        <time>2014-05-25T11:11:49Z</time>
      </trkpt>
      <trkpt lat="48.74644" lon="2.55617">
        <ele>100</ele>
        <time>2014-05-25T11:11:50Z</time>
      </trkpt>
      <trkpt lat="48.74645" lon="2.55615">
        <ele>100</ele>
        <time>2014-05-25T11:11:51Z</time>
      </trkpt>
      <trkpt lat="48.74645" lon="2.55613">
        <ele>100</ele>
        <time>2014-05-25T11:11:52Z</time>
      </trkpt>
      <trkpt lat="48.74645" lon="2.55611">
        <ele>100</ele>
        <time>2014-05-25T11:11:53Z</time>
      </trkpt>
      <trkpt lat="48.74645" lon="2.55608">
        <ele>100</ele>
        <time>2014-05-25T11:11:54Z</time>
      </trkpt>
      <trkpt lat="48.74646" lon="2.55606">
        <ele>101</ele>
        <time>2014-05-25T11:11:55Z</time>
      </trkpt>
      <trkpt lat="48.74646" lon="2.55604">
        <ele>100</ele>
        <time>2014-05-25T11:11:56Z</time>
      </trkpt>
      <trkpt lat="48.74646" lon="2.55602">
        <ele>101</ele>
        <time>2014-05-25T11:11:57Z</time>
      </trkpt>
      <trkpt lat="48.74647" lon="2.556">
        <ele>101</ele>
        <time>2014-05-25T11:11:58Z</time>
      </trkpt>
      <trkpt lat="48.74647" lon="2.55598">
        <ele>102</ele>
        <time>2014-05-25T11:11:59Z</time>
      </trkpt>
      <trkpt lat="48.74647" lon="2.55596">
        <ele>103</ele>
        <time>2014-05-25T11:12:00Z</time>
      </trkpt>
      <trkpt lat="48.74647" lon="2.55595">
        <ele>103</ele>
        <time>2014-05-25T11:12:01Z</time>
      </trkpt>
      <trkpt lat="48.74648" lon="2.55593">
        <ele>103</ele>
        <time>2014-05-25T11:12:02Z</time>
      </trkpt>
      <trkpt lat="48.74648" lon="2.55591">
        <ele>103</ele>
        <time>2014-05-25T11:12:03Z</time>
      </trkpt>
      <trkpt lat="48.74649" lon="2.55589">
        <ele>102</ele>
        <time>2014-05-25T11:12:04Z</time>
      </trkpt>
      <trkpt lat="48.7465" lon="2.55587">
        <ele>102</ele>
        <time>2014-05-25T11:12:05Z</time>
      </trkpt>
      <trkpt lat="48.7465" lon="2.55585">
        <ele>101</ele>
        <time>2014-05-25T11:12:06Z</time>
      </trkpt>
      <trkpt lat="48.7465" lon="2.55583">
        <ele>101</ele>
        <time>2014-05-25T11:12:07Z</time>
      </trkpt>
      <trkpt lat="48.7465" lon="2.55581">
        <ele>101</ele>
        <time>2014-05-25T11:12:08Z</time>
      </trkpt>
      <trkpt lat="48.7465" lon="2.55579">
        <ele>102</ele>
        <time>2014-05-25T11:12:09Z</time>
      </trkpt>
      <trkpt lat="48.74651" lon="2.55577">
        <ele>102</ele>
        <time>2014-05-25T11:12:10Z</time>
      </trkpt>
      <trkpt lat="48.74651" lon="2.55575">
        <ele>102</ele>
        <time>2014-05-25T11:12:11Z</time>
      </trkpt>
      <trkpt lat="48.74651" lon="2.55573">
        <ele>101</ele>
        <time>2014-05-25T11:12:12Z</time>
      </trkpt>
      <trkpt lat="48.74651" lon="2.55571">
        <ele>101</ele>
        <time>2014-05-25T11:12:13Z</time>
      </trkpt>
      <trkpt lat="48.74652" lon="2.55568">
        <ele>101</ele>
        <time>2014-05-25T11:12:14Z</time>
      </trkpt>
      <trkpt lat="48.74652" lon="2.55566">
        <ele>102</ele>
        <time>2014-05-25T11:12:15Z</time>
      </trkpt>
      <trkpt lat="48.74652" lon="2.55564">
        <ele>102</ele>
        <time>2014-05-25T11:12:16Z</time>
      </trkpt>
      <trkpt lat="48.74653" lon="2.55562">
        <ele>102</ele>
        <time>2014-05-25T11:12:17Z</time>
      </trkpt>
      <trkpt lat="48.74653" lon="2.5556">
        <ele>101</ele>
        <time>2014-05-25T11:12:18Z</time>
      </trkpt>
      <trkpt lat="48.74654" lon="2.55557">
        <ele>101</ele>
        <time>2014-05-25T11:12:19Z</time>
      </trkpt>
      <trkpt lat="48.74654" lon="2.55555">
        <ele>103</ele>
        <time>2014-05-25T11:12:20Z</time>
      </trkpt>
      <trkpt lat="48.74654" lon="2.55553">
        <ele>102</ele>
        <time>2014-05-25T11:12:21Z</time>
      </trkpt>
      <trkpt lat="48.74655" lon="2.55551">
        <ele>101</ele>
        <time>2014-05-25T11:12:22Z</time>
      </trkpt>
      <trkpt lat="48.74655" lon="2.55549">
        <ele>101</ele>
        <time>2014-05-25T11:12:23Z</time>
      </trkpt>
      <trkpt lat="48.74655" lon="2.55547">
        <ele>100</ele>
        <time>2014-05-25T11:12:24Z</time>
      </trkpt>
      <trkpt lat="48.74655" lon="2.55544">
        <ele>100</ele>
        <time>2014-05-25T11:12:25Z</time>
      </trkpt>
      <trkpt lat="48.74655" lon="2.55542">
        <ele>101</ele>
        <time>2014-05-25T11:12:26Z</time>
      </trkpt>
      <trkpt lat="48.74656" lon="2.55541">
        <ele>102</ele>
        <time>2014-05-25T11:12:27Z</time>
      </trkpt>
      <trkpt lat="48.74656" lon="2.55539">
        <ele>103</ele>
        <time>2014-05-25T11:12:28Z</time>
      </trkpt>
      <trkpt lat="48.74656" lon="2.55537">
        <ele>104</ele>
        <time>2014-05-25T11:12:29Z</time>
      </trkpt>
      <trkpt lat="48.74656" lon="2.55535">
        <ele>103</ele>
        <time>2014-05-25T11:12:30Z</time>
      </trkpt>
      <trkpt lat="48.74657" lon="2.55533">
        <ele>103</ele>
        <time>2014-05-25T11:12:31Z</time>
      </trkpt>
      <trkpt lat="48.74657" lon="2.55532">
        <ele>104</ele>
        <time>2014-05-25T11:12:32Z</time>
      </trkpt>
      <trkpt lat="48.74658" lon="2.5553">
        <ele>103</ele>
        <time>2014-05-25T11:12:33Z</time>
      </trkpt>
      <trkpt lat="48.74659" lon="2.55528">
        <ele>103</ele>
        <time>2014-05-25T11:12:34Z</time>
      </trkpt>
      <trkpt lat="48.74659" lon="2.55526">
        <ele>103</ele>
        <time>2014-05-25T11:12:35Z</time>
      </trkpt>
      <trkpt lat="48.7466" lon="2.55524">
        <ele>102</ele>
        <time>2014-05-25T11:12:36Z</time>
      </trkpt>
      <trkpt lat="48.7466" lon="2.55522">
        <ele>102</ele>
        <time>2014-05-25T11:12:37Z</time>
      </trkpt>
      <trkpt lat="48.74661" lon="2.5552">
        <ele>102</ele>
        <time>2014-05-25T11:12:38Z</time>
      </trkpt>
      <trkpt lat="48.74661" lon="2.55518">
        <ele>101</ele>
        <time>2014-05-25T11:12:39Z</time>
      </trkpt>
      <trkpt lat="48.74662" lon="2.55515">
        <ele>101</ele>
        <time>2014-05-25T11:12:40Z</time>
      </trkpt>
      <trkpt lat="48.74663" lon="2.55513">
        <ele>101</ele>
        <time>2014-05-25T11:12:41Z</time>
      </trkpt>
      <trkpt lat="48.74663" lon="2.55511">
        <ele>102</ele>
        <time>2014-05-25T11:12:42Z</time>
      </trkpt>
      <trkpt lat="48.74668" lon="2.55494">
        <ele>104</ele>
        <time>2014-05-25T11:12:50Z</time>
      </trkpt>
      <trkpt lat="48.74668" lon="2.55492">
        <ele>102</ele>
        <time>2014-05-25T11:12:51Z</time>
      </trkpt>
      <trkpt lat="48.74668" lon="2.55491">
        <ele>102</ele>
        <time>2014-05-25T11:12:52Z</time>
      </trkpt>
      <trkpt lat="48.74669" lon="2.55489">
        <ele>103</ele>
        <time>2014-05-25T11:12:53Z</time>
      </trkpt>
      <trkpt lat="48.74669" lon="2.55487">
        <ele>104</ele>
        <time>2014-05-25T11:12:54Z</time>
      </trkpt>
      <trkpt lat="48.7467" lon="2.55485">
        <ele>104</ele>
        <time>2014-05-25T11:12:55Z</time>
      </trkpt>
      <trkpt lat="48.7467" lon="2.55483">
        <ele>104</ele>
        <time>2014-05-25T11:12:56Z</time>
      </trkpt>
      <trkpt lat="48.74671" lon="2.5548">
        <ele>104</ele>
        <time>2014-05-25T11:12:57Z</time>
      </trkpt>
      <trkpt lat="48.74671" lon="2.55478">
        <ele>105</ele>
        <time>2014-05-25T11:12:58Z</time>
      </trkpt>
      <trkpt lat="48.74672" lon="2.55475">
        <ele>105</ele>
        <time>2014-05-25T11:12:59Z</time>
      </trkpt>
      <trkpt lat="48.74672" lon="2.55473">
        <ele>105</ele>
        <time>2014-05-25T11:13:00Z</time>
      </trkpt>
      <trkpt lat="48.74673" lon="2.55471">
        <ele>104</ele>
        <time>2014-05-25T11:13:01Z</time>
      </trkpt>
      <trkpt lat="48.74673" lon="2.55468">
        <ele>105</ele>
        <time>2014-05-25T11:13:02Z</time>
      </trkpt>
      <trkpt lat="48.74674" lon="2.55466">
        <ele>105</ele>
        <time>2014-05-25T11:13:03Z</time>
      </trkpt>
      <trkpt lat="48.74674" lon="2.55463">
        <ele>105</ele>
        <time>2014-05-25T11:13:04Z</time>
      </trkpt>
      <trkpt lat="48.74675" lon="2.55461">
        <ele>105</ele>
        <time>2014-05-25T11:13:05Z</time>
      </trkpt>
      <trkpt lat="48.74676" lon="2.55459">
        <ele>105</ele>
        <time>2014-05-25T11:13:06Z</time>
      </trkpt>
      <trkpt lat="48.74676" lon="2.55457">
        <ele>106</ele>
        <time>2014-05-25T11:13:07Z</time>
      </trkpt>
      <trkpt lat="48.74677" lon="2.55455">
        <ele>106</ele>
        <time>2014-05-25T11:13:08Z</time>
      </trkpt>
      <trkpt lat="48.74678" lon="2.55453">
        <ele>106</ele>
        <time>2014-05-25T11:13:09Z</time>
      </trkpt>
      <trkpt lat="48.74678" lon="2.5545">
        <ele>106</ele>
        <time>2014-05-25T11:13:10Z</time>
      </trkpt>
      <trkpt lat="48.74678" lon="2.55448">
        <ele>106</ele>
        <time>2014-05-25T11:13:11Z</time>
      </trkpt>
      <trkpt lat="48.74679" lon="2.55446">
        <ele>105</ele>
        <time>2014-05-25T11:13:12Z</time>
      </trkpt>
      <trkpt lat="48.74679" lon="2.55444">
        <ele>106</ele>
        <time>2014-05-25T11:13:13Z</time>
      </trkpt>
      <trkpt lat="48.74679" lon="2.55441">
        <ele>106</ele>
        <time>2014-05-25T11:13:14Z</time>
      </trkpt>
      <trkpt lat="48.7468" lon="2.55439">
        <ele>106</ele>
        <time>2014-05-25T11:13:15Z</time>
      </trkpt>
      <trkpt lat="48.7468" lon="2.55437">
        <ele>104</ele>
        <time>2014-05-25T11:13:16Z</time>
      </trkpt>
      <trkpt lat="48.7468" lon="2.55435">
        <ele>104</ele>
        <time>2014-05-25T11:13:17Z</time>
      </trkpt>
      <trkpt lat="48.74681" lon="2.55433">
        <ele>105</ele>
        <time>2014-05-25T11:13:18Z</time>
      </trkpt>
      <trkpt lat="48.74681" lon="2.5543">
        <ele>104</ele>
        <time>2014-05-25T11:13:19Z</time>
      </trkpt>
      <trkpt lat="48.74681" lon="2.55428">
        <ele>105</ele>
        <time>2014-05-25T11:13:20Z</time>
      </trkpt>
      <trkpt lat="48.74682" lon="2.55426">
        <ele>105</ele>
        <time>2014-05-25T11:13:21Z</time>
      </trkpt>
      <trkpt lat="48.74683" lon="2.55424">
        <ele>105</ele>
        <time>2014-05-25T11:13:22Z</time>
      </trkpt>
      <trkpt lat="48.74683" lon="2.55422">
        <ele>105</ele>
        <time>2014-05-25T11:13:23Z</time>
      </trkpt>
      <trkpt lat="48.74683" lon="2.55419">
        <ele>106</ele>
        <time>2014-05-25T11:13:24Z</time>
      </trkpt>
      <trkpt lat="48.74684" lon="2.55417">
        <ele>105</ele>
        <time>2014-05-25T11:13:25Z</time>
      </trkpt>
      <trkpt lat="48.74684" lon="2.55415">
        <ele>105</ele>
        <time>2014-05-25T11:13:26Z</time>
      </trkpt>
      <trkpt lat="48.74684" lon="2.55413">
        <ele>104</ele>
        <time>2014-05-25T11:13:27Z</time>
      </trkpt>
      <trkpt lat="48.74684" lon="2.55411">
        <ele>104</ele>
        <time>2014-05-25T11:13:28Z</time>
      </trkpt>
      <trkpt lat="48.74684" lon="2.55409">
        <ele>105</ele>
        <time>2014-05-25T11:13:29Z</time>
      </trkpt>
      <trkpt lat="48.74684" lon="2.55407">
        <ele>103</ele>
        <time>2014-05-25T11:13:30Z</time>
      </trkpt>
      <trkpt lat="48.74684" lon="2.55405">
        <ele>103</ele>
        <time>2014-05-25T11:13:31Z</time>
      </trkpt>
      <trkpt lat="48.74685" lon="2.55402">
        <ele>103</ele>
        <time>2014-05-25T11:13:32Z</time>
      </trkpt>
      <trkpt lat="48.74685" lon="2.554">
        <ele>102</ele>
        <time>2014-05-25T11:13:33Z</time>
      </trkpt>
      <trkpt lat="48.74686" lon="2.55398">
        <ele>101</ele>
        <time>2014-05-25T11:13:34Z</time>
      </trkpt>
      <trkpt lat="48.74687" lon="2.55396">
        <ele>100</ele>
        <time>2014-05-25T11:13:35Z</time>
      </trkpt>
      <trkpt lat="48.74687" lon="2.55394">
        <ele>100</ele>
        <time>2014-05-25T11:13:36Z</time>
      </trkpt>
      <trkpt lat="48.74688" lon="2.55392">
        <ele>102</ele>
        <time>2014-05-25T11:13:37Z</time>
      </trkpt>
      <trkpt lat="48.74688" lon="2.5539">
        <ele>102</ele>
        <time>2014-05-25T11:13:38Z</time>
      </trkpt>
      <trkpt lat="48.74688" lon="2.55388">
        <ele>103</ele>
        <time>2014-05-25T11:13:39Z</time>
      </trkpt>
      <trkpt lat="48.74689" lon="2.55386">
        <ele>104</ele>
        <time>2014-05-25T11:13:40Z</time>
      </trkpt>
      <trkpt lat="48.74689" lon="2.55384">
        <ele>104</ele>
        <time>2014-05-25T11:13:41Z</time>
      </trkpt>
      <trkpt lat="48.7469" lon="2.55382">
        <ele>106</ele>
        <time>2014-05-25T11:13:42Z</time>
      </trkpt>
      <trkpt lat="48.7469" lon="2.5538">
        <ele>106</ele>
        <time>2014-05-25T11:13:43Z</time>
      </trkpt>
      <trkpt lat="48.7469" lon="2.55378">
        <ele>106</ele>
        <time>2014-05-25T11:13:44Z</time>
      </trkpt>
      <trkpt lat="48.7469" lon="2.55376">
        <ele>108</ele>
        <time>2014-05-25T11:13:45Z</time>
      </trkpt>
      <trkpt lat="48.74691" lon="2.55374">
        <ele>108</ele>
        <time>2014-05-25T11:13:46Z</time>
      </trkpt>
      <trkpt lat="48.74691" lon="2.55372">
        <ele>108</ele>
        <time>2014-05-25T11:13:47Z</time>
      </trkpt>
      <trkpt lat="48.74692" lon="2.5537">
        <ele>108</ele>
        <time>2014-05-25T11:13:48Z</time>
      </trkpt>
      <trkpt lat="48.74693" lon="2.55368">
        <ele>108</ele>
        <time>2014-05-25T11:13:49Z</time>
      </trkpt>
      <trkpt lat="48.74694" lon="2.55366">
        <ele>108</ele>
        <time>2014-05-25T11:13:50Z</time>
      </trkpt>
      <trkpt lat="48.74695" lon="2.55364">
        <ele>108</ele>
        <time>2014-05-25T11:13:51Z</time>
      </trkpt>
      <trkpt lat="48.74695" lon="2.55362">
        <ele>108</ele>
        <time>2014-05-25T11:13:52Z</time>
      </trkpt>
      <trkpt lat="48.74695" lon="2.5536">
        <ele>108</ele>
        <time>2014-05-25T11:13:53Z</time>
      </trkpt>
      <trkpt lat="48.74696" lon="2.55358">
        <ele>108</ele>
        <time>2014-05-25T11:13:54Z</time>
      </trkpt>
      <trkpt lat="48.74696" lon="2.55356">
        <ele>108</ele>
        <time>2014-05-25T11:13:55Z</time>
      </trkpt>
      <trkpt lat="48.74697" lon="2.55354">
        <ele>109</ele>
        <time>2014-05-25T11:13:56Z</time>
      </trkpt>
      <trkpt lat="48.74698" lon="2.55352">
        <ele>108</ele>
        <time>2014-05-25T11:13:57Z</time>
      </trkpt>
      <trkpt lat="48.74699" lon="2.5535">
        <ele>108</ele>
        <time>2014-05-25T11:13:58Z</time>
      </trkpt>
      <trkpt lat="48.74699" lon="2.55348">
        <ele>108</ele>
        <time>2014-05-25T11:13:59Z</time>
      </trkpt>
      <trkpt lat="48.74699" lon="2.55345">
        <ele>109</ele>
        <time>2014-05-25T11:14:00Z</time>
      </trkpt>
      <trkpt lat="48.747" lon="2.55343">
        <ele>109</ele>
        <time>2014-05-25T11:14:01Z</time>
      </trkpt>
      <trkpt lat="48.74701" lon="2.55341">
        <ele>109</ele>
        <time>2014-05-25T11:14:02Z</time>
      </trkpt>
      <trkpt lat="48.74701" lon="2.55339">
        <ele>109</ele>
        <time>2014-05-25T11:14:03Z</time>
      </trkpt>
      <trkpt lat="48.74702" lon="2.55337">
        <ele>110</ele>
        <time>2014-05-25T11:14:04Z</time>
      </trkpt>
      <trkpt lat="48.74702" lon="2.55335">
        <ele>111</ele>
        <time>2014-05-25T11:14:05Z</time>
      </trkpt>
      <trkpt lat="48.74702" lon="2.55333">
        <ele>112</ele>
        <time>2014-05-25T11:14:06Z</time>
      </trkpt>
      <trkpt lat="48.74703" lon="2.55331">
        <ele>112</ele>
        <time>2014-05-25T11:14:07Z</time>
      </trkpt>
      <trkpt lat="48.74703" lon="2.55329">
        <ele>112</ele>
        <time>2014-05-25T11:14:08Z</time>
      </trkpt>
      <trkpt lat="48.74704" lon="2.55327">
        <ele>113</ele>
        <time>2014-05-25T11:14:09Z</time>
      </trkpt>
      <trkpt lat="48.74704" lon="2.55325">
        <ele>113</ele>
        <time>2014-05-25T11:14:10Z</time>
      </trkpt>
      <trkpt lat="48.74704" lon="2.55323">
        <ele>113</ele>
        <time>2014-05-25T11:14:11Z</time>
      </trkpt>
      <trkpt lat="48.74705" lon="2.55322">
        <ele>113</ele>
        <time>2014-05-25T11:14:12Z</time>
      </trkpt>
      <trkpt lat="48.74705" lon="2.5532">
        <ele>114</ele>
        <time>2014-05-25T11:14:13Z</time>
      </trkpt>
      <trkpt lat="48.74706" lon="2.55318">
        <ele>113</ele>
        <time>2014-05-25T11:14:14Z</time>
      </trkpt>
      <trkpt lat="48.74706" lon="2.55316">
        <ele>112</ele>
        <time>2014-05-25T11:14:15Z</time>
      </trkpt>
      <trkpt lat="48.74706" lon="2.55314">
        <ele>112</ele>
        <time>2014-05-25T11:14:16Z</time>
      </trkpt>
      <trkpt lat="48.74707" lon="2.55311">
        <ele>112</ele>
        <time>2014-05-25T11:14:17Z</time>
      </trkpt>
      <trkpt lat="48.74707" lon="2.55309">
        <ele>110</ele>
        <time>2014-05-25T11:14:18Z</time>
      </trkpt>
      <trkpt lat="48.74707" lon="2.55307">
        <ele>109</ele>
        <time>2014-05-25T11:14:19Z</time>
      </trkpt>
      <trkpt lat="48.74708" lon="2.55305">
        <ele>110</ele>
        <time>2014-05-25T11:14:20Z</time>
      </trkpt>
      <trkpt lat="48.74708" lon="2.55303">
        <ele>110</ele>
        <time>2014-05-25T11:14:21Z</time>
      </trkpt>
      <trkpt lat="48.74709" lon="2.553">
        <ele>110</ele>
        <time>2014-05-25T11:14:22Z</time>
      </trkpt>
      <trkpt lat="48.74709" lon="2.55298">
        <ele>110</ele>
        <time>2014-05-25T11:14:23Z</time>
      </trkpt>
      <trkpt lat="48.7471" lon="2.55296">
        <ele>109</ele>
        <time>2014-05-25T11:14:24Z</time>
      </trkpt>
      <trkpt lat="48.74711" lon="2.55294">
        <ele>109</ele>
        <time>2014-05-25T11:14:25Z</time>
      </trkpt>
      <trkpt lat="48.74711" lon="2.55292">
        <ele>108</ele>
        <time>2014-05-25T11:14:26Z</time>
      </trkpt>
      <trkpt lat="48.74712" lon="2.5529">
        <ele>108</ele>
        <time>2014-05-25T11:14:27Z</time>
      </trkpt>
      <trkpt lat="48.74712" lon="2.55288">
        <ele>107</ele>
        <time>2014-05-25T11:14:28Z</time>
      </trkpt>
      <trkpt lat="48.74713" lon="2.55286">
        <ele>107</ele>
        <time>2014-05-25T11:14:29Z</time>
      </trkpt>
      <trkpt lat="48.74713" lon="2.55283">
        <ele>107</ele>
        <time>2014-05-25T11:14:30Z</time>
      </trkpt>
      <trkpt lat="48.74714" lon="2.55281">
        <ele>107</ele>
        <time>2014-05-25T11:14:31Z</time>
      </trkpt>
      <trkpt lat="48.74714" lon="2.55279">
        <ele>107</ele>
        <time>2014-05-25T11:14:32Z</time>
      </trkpt>
      <trkpt lat="48.74714" lon="2.55277">
        <ele>107</ele>
        <time>2014-05-25T11:14:33Z</time>
      </trkpt>
      <trkpt lat="48.74714" lon="2.55275">
        <ele>107</ele>
        <time>2014-05-25T11:14:34Z</time>
      </trkpt>
      <trkpt lat="48.74715" lon="2.55272">
        <ele>107</ele>
        <time>2014-05-25T11:14:35Z</time>
      </trkpt>
      <trkpt lat="48.74715" lon="2.5527">
        <ele>106</ele>
        <time>2014-05-25T11:14:36Z</time>
      </trkpt>
      <trkpt lat="48.74715" lon="2.55268">
        <ele>107</ele>
        <time>2014-05-25T11:14:37Z</time>
      </trkpt>
      <trkpt lat="48.74716" lon="2.55265">
        <ele>108</ele>
        <time>2014-05-25T11:14:38Z</time>
      </trkpt>
      <trkpt lat="48.74716" lon="2.55263">
        <ele>108</ele>
        <time>2014-05-25T11:14:39Z</time>
      </trkpt>
      <trkpt lat="48.74717" lon="2.55261">
        <ele>107</ele>
        <time>2014-05-25T11:14:40Z</time>
      </trkpt>
      <trkpt lat="48.74717" lon="2.55259">
        <ele>107</ele>
        <time>2014-05-25T11:14:41Z</time>
      </trkpt>
      <trkpt lat="48.74717" lon="2.55257">
        <ele>108</ele>
        <time>2014-05-25T11:14:42Z</time>
      </trkpt>
      <trkpt lat="48.74717" lon="2.55254">
        <ele>108</ele>
        <time>2014-05-25T11:14:43Z</time>
      </trkpt>
      <trkpt lat="48.74717" lon="2.55252">
        <ele>107</ele>
        <time>2014-05-25T11:14:44Z</time>
      </trkpt>
      <trkpt lat="48.74717" lon="2.5525">
        <ele>107</ele>
        <time>2014-05-25T11:14:45Z</time>
      </trkpt>
      <trkpt lat="48.74718" lon="2.55248">
        <ele>107</ele>
        <time>2014-05-25T11:14:46Z</time>
      </trkpt>
      <trkpt lat="48.74718" lon="2.55246">
        <ele>106</ele>
        <time>2014-05-25T11:14:47Z</time>
      </trkpt>
      <trkpt lat="48.74719" lon="2.55244">
        <ele>106</ele>
        <time>2014-05-25T11:14:48Z</time>
      </trkpt>
      <trkpt lat="48.74719" lon="2.55242">
        <ele>106</ele>
        <time>2014-05-25T11:14:49Z</time>
      </trkpt>
      <trkpt lat="48.7472" lon="2.5524">
        <ele>105</ele>
        <time>2014-05-25T11:14:50Z</time>
      </trkpt>
      <trkpt lat="48.7472" lon="2.55238">
        <ele>103</ele>
        <time>2014-05-25T11:14:51Z</time>
      </trkpt>
      <trkpt lat="48.7472" lon="2.55236">
        <ele>104</ele>
        <time>2014-05-25T11:14:52Z</time>
      </trkpt>
      <trkpt lat="48.7472" lon="2.55234">
        <ele>104</ele>
        <time>2014-05-25T11:14:53Z</time>
      </trkpt>
      <trkpt lat="48.7472" lon="2.55232">
        <ele>103</ele>
        <time>2014-05-25T11:14:54Z</time>
      </trkpt>
      <trkpt lat="48.74721" lon="2.5523">
        <ele>101</ele>
        <time>2014-05-25T11:14:55Z</time>
      </trkpt>
      <trkpt lat="48.74721" lon="2.55228">
        <ele>102</ele>
        <time>2014-05-25T11:14:56Z</time>
      </trkpt>
      <trkpt lat="48.74722" lon="2.55226">
        <ele>102</ele>
        <time>2014-05-25T11:14:57Z</time>
      </trkpt>
      <trkpt lat="48.74722" lon="2.55224">
        <ele>103</ele>
        <time>2014-05-25T11:14:58Z</time>
      </trkpt>
      <trkpt lat="48.74723" lon="2.55222">
        <ele>103</ele>
        <time>2014-05-25T11:14:59Z</time>
      </trkpt>
      <trkpt lat="48.74723" lon="2.5522">
        <ele>102</ele>
        <time>2014-05-25T11:15:00Z</time>
      </trkpt>
      <trkpt lat="48.74724" lon="2.55218">
        <ele>103</ele>
        <time>2014-05-25T11:15:01Z</time>
      </trkpt>
      <trkpt lat="48.74725" lon="2.55216">
        <ele>103</ele>
        <time>2014-05-25T11:15:02Z</time>
      </trkpt>
      <trkpt lat="48.74725" lon="2.55213">
        <ele>103</ele>
        <time>2014-05-25T11:15:03Z</time>
      </trkpt>
      <trkpt lat="48.74726" lon="2.55211">
        <ele>102</ele>
        <time>2014-05-25T11:15:04Z</time>
      </trkpt>
      <trkpt lat="48.74726" lon="2.55209">
        <ele>103</ele>
        <time>2014-05-25T11:15:05Z</time>
      </trkpt>
      <trkpt lat="48.74726" lon="2.55207">
        <ele>103</ele>
        <time>2014-05-25T11:15:06Z</time>
      </trkpt>
      <trkpt lat="48.74726" lon="2.55205">
        <ele>104</ele>
        <time>2014-05-25T11:15:07Z</time>
      </trkpt>
      <trkpt lat="48.74727" lon="2.55204">
        <ele>104</ele>
        <time>2014-05-25T11:15:08Z</time>
      </trkpt>
      <trkpt lat="48.74727" lon="2.55202">
        <ele>103</ele>
        <time>2014-05-25T11:15:09Z</time>
      </trkpt>
      <trkpt lat="48.74728" lon="2.552">
        <ele>104</ele>
        <time>2014-05-25T11:15:10Z</time>
      </trkpt>
      <trkpt lat="48.74729" lon="2.55199">
        <ele>103</ele>
        <time>2014-05-25T11:15:11Z</time>
      </trkpt>
      <trkpt lat="48.74729" lon="2.55196">
        <ele>103</ele>
        <time>2014-05-25T11:15:12Z</time>
      </trkpt>
      <trkpt lat="48.7473" lon="2.55194">
        <ele>103</ele>
        <time>2014-05-25T11:15:13Z</time>
      </trkpt>
      <trkpt lat="48.74731" lon="2.55192">
        <ele>103</ele>
        <time>2014-05-25T11:15:14Z</time>
      </trkpt>
      <trkpt lat="48.74732" lon="2.5519">
        <ele>104</ele>
        <time>2014-05-25T11:15:15Z</time>
      </trkpt>
      <trkpt lat="48.74733" lon="2.55187">
        <ele>104</ele>
        <time>2014-05-25T11:15:16Z</time>
      </trkpt>
      <trkpt lat="48.74733" lon="2.55185">
        <ele>105</ele>
        <time>2014-05-25T11:15:17Z</time>
      </trkpt>
      <trkpt lat="48.74734" lon="2.55182">
        <ele>105</ele>
        <time>2014-05-25T11:15:18Z</time>
      </trkpt>
      <trkpt lat="48.74734" lon="2.5518">
        <ele>105</ele>
        <time>2014-05-25T11:15:19Z</time>
      </trkpt>
      <trkpt lat="48.74735" lon="2.55178">
        <ele>104</ele>
        <time>2014-05-25T11:15:20Z</time>
      </trkpt>
      <trkpt lat="48.74735" lon="2.55175">
        <ele>105</ele>
        <time>2014-05-25T11:15:21Z</time>
      </trkpt>
      <trkpt lat="48.74736" lon="2.55173">
        <ele>106</ele>
        <time>2014-05-25T11:15:22Z</time>
      </trkpt>
      <trkpt lat="48.74737" lon="2.55171">
        <ele>107</ele>
        <time>2014-05-25T11:15:23Z</time>
      </trkpt>
      <trkpt lat="48.74737" lon="2.55169">
        <ele>108</ele>
        <time>2014-05-25T11:15:24Z</time>
      </trkpt>
      <trkpt lat="48.74737" lon="2.55167">
        <ele>108</ele>
        <time>2014-05-25T11:15:25Z</time>
      </trkpt>
      <trkpt lat="48.74737" lon="2.55165">
        <ele>108</ele>
        <time>2014-05-25T11:15:26Z</time>
      </trkpt>
      <trkpt lat="48.74738" lon="2.55163">
        <ele>108</ele>
        <time>2014-05-25T11:15:27Z</time>
      </trkpt>
      <trkpt lat="48.74738" lon="2.55161">
        <ele>109</ele>
        <time>2014-05-25T11:15:28Z</time>
      </trkpt>
      <trkpt lat="48.74738" lon="2.5516">
        <ele>109</ele>
        <time>2014-05-25T11:15:29Z</time>
      </trkpt>
      <trkpt lat="48.74739" lon="2.55158">
        <ele>109</ele>
        <time>2014-05-25T11:15:30Z</time>
      </trkpt>
      <trkpt lat="48.74739" lon="2.55156">
        <ele>109</ele>
        <time>2014-05-25T11:15:31Z</time>
      </trkpt>
      <trkpt lat="48.7474" lon="2.55153">
        <ele>108</ele>
        <time>2014-05-25T11:15:32Z</time>
      </trkpt>
      <trkpt lat="48.7474" lon="2.55151">
        <ele>108</ele>
        <time>2014-05-25T11:15:33Z</time>
      </trkpt>
      <trkpt lat="48.7474" lon="2.55149">
        <ele>108</ele>
        <time>2014-05-25T11:15:34Z</time>
      </trkpt>
      <trkpt lat="48.74741" lon="2.55147">
        <ele>108</ele>
        <time>2014-05-25T11:15:35Z</time>
      </trkpt>
      <trkpt lat="48.74741" lon="2.55145">
        <ele>108</ele>
        <time>2014-05-25T11:15:36Z</time>
      </trkpt>
      <trkpt lat="48.74742" lon="2.55143">
        <ele>108</ele>
        <time>2014-05-25T11:15:37Z</time>
      </trkpt>
      <trkpt lat="48.74743" lon="2.55141">
        <ele>108</ele>
        <time>2014-05-25T11:15:38Z</time>
      </trkpt>
      <trkpt lat="48.74743" lon="2.55138">
        <ele>108</ele>
        <time>2014-05-25T11:15:39Z</time>
      </trkpt>
      <trkpt lat="48.74743" lon="2.55136">
        <ele>108</ele>
        <time>2014-05-25T11:15:40Z</time>
      </trkpt>
      <trkpt lat="48.74744" lon="2.55134">
        <ele>108</ele>
        <time>2014-05-25T11:15:41Z</time>
      </trkpt>
      <trkpt lat="48.74744" lon="2.55132">
        <ele>108</ele>
        <time>2014-05-25T11:15:42Z</time>
      </trkpt>
      <trkpt lat="48.74744" lon="2.5513">
        <ele>108</ele>
        <time>2014-05-25T11:15:43Z</time>
      </trkpt>
      <trkpt lat="48.74745" lon="2.55128">
        <ele>108</ele>
        <time>2014-05-25T11:15:44Z</time>
      </trkpt>
      <trkpt lat="48.74745" lon="2.55125">
        <ele>108</ele>
        <time>2014-05-25T11:15:45Z</time>
      </trkpt>
      <trkpt lat="48.74746" lon="2.55123">
        <ele>108</ele>
        <time>2014-05-25T11:15:46Z</time>
      </trkpt>
      <trkpt lat="48.74746" lon="2.55121">
        <ele>109</ele>
        <time>2014-05-25T11:15:47Z</time>
      </trkpt>
      <trkpt lat="48.74747" lon="2.55119">
        <ele>109</ele>
        <time>2014-05-25T11:15:48Z</time>
      </trkpt>
      <trkpt lat="48.74747" lon="2.55117">
        <ele>109</ele>
        <time>2014-05-25T11:15:49Z</time>
      </trkpt>
      <trkpt lat="48.74748" lon="2.55114">
        <ele>109</ele>
        <time>2014-05-25T11:15:50Z</time>
      </trkpt>
      <trkpt lat="48.74748" lon="2.55112">
        <ele>108</ele>
        <time>2014-05-25T11:15:51Z</time>
      </trkpt>
      <trkpt lat="48.74749" lon="2.5511">
        <ele>109</ele>
        <time>2014-05-25T11:15:52Z</time>
      </trkpt>
      <trkpt lat="48.74749" lon="2.55107">
        <ele>108</ele>
        <time>2014-05-25T11:15:53Z</time>
      </trkpt>
      <trkpt lat="48.7475" lon="2.55105">
        <ele>108</ele>
        <time>2014-05-25T11:15:54Z</time>
      </trkpt>
      <trkpt lat="48.7475" lon="2.55103">
        <ele>108</ele>
        <time>2014-05-25T11:15:55Z</time>
      </trkpt>
      <trkpt lat="48.74751" lon="2.55101">
        <ele>108</ele>
        <time>2014-05-25T11:15:56Z</time>
      </trkpt>
      <trkpt lat="48.74751" lon="2.55098">
        <ele>108</ele>
        <time>2014-05-25T11:15:57Z</time>
      </trkpt>
      <trkpt lat="48.74752" lon="2.55096">
        <ele>107</ele>
        <time>2014-05-25T11:15:58Z</time>
      </trkpt>
      <trkpt lat="48.74752" lon="2.55094">
        <ele>106</ele>
        <time>2014-05-25T11:15:59Z</time>
      </trkpt>
      <trkpt lat="48.74752" lon="2.55092">
        <ele>107</ele>
        <time>2014-05-25T11:16:00Z</time>
      </trkpt>
      <trkpt lat="48.74753" lon="2.5509">
        <ele>107</ele>
        <time>2014-05-25T11:16:01Z</time>
      </trkpt>
      <trkpt lat="48.74753" lon="2.55088">
        <ele>107</ele>
        <time>2014-05-25T11:16:02Z</time>
      </trkpt>
      <trkpt lat="48.74754" lon="2.55086">
        <ele>107</ele>
        <time>2014-05-25T11:16:03Z</time>
      </trkpt>
      <trkpt lat="48.74755" lon="2.55084">
        <ele>106</ele>
        <time>2014-05-25T11:16:04Z</time>
      </trkpt>
      <trkpt lat="48.74755" lon="2.55082">
        <ele>105</ele>
        <time>2014-05-25T11:16:05Z</time>
      </trkpt>
      <trkpt lat="48.74756" lon="2.5508">
        <ele>105</ele>
        <time>2014-05-25T11:16:06Z</time>
      </trkpt>
      <trkpt lat="48.74756" lon="2.55078">
        <ele>105</ele>
        <time>2014-05-25T11:16:07Z</time>
      </trkpt>
      <trkpt lat="48.74756" lon="2.55076">
        <ele>106</ele>
        <time>2014-05-25T11:16:08Z</time>
      </trkpt>
      <trkpt lat="48.74757" lon="2.55074">
        <ele>106</ele>
        <time>2014-05-25T11:16:09Z</time>
      </trkpt>
      <trkpt lat="48.74757" lon="2.55072">
        <ele>106</ele>
        <time>2014-05-25T11:16:10Z</time>
      </trkpt>
      <trkpt lat="48.74757" lon="2.5507">
        <ele>106</ele>
        <time>2014-05-25T11:16:11Z</time>
      </trkpt>
      <trkpt lat="48.74758" lon="2.55068">
        <ele>107</ele>
        <time>2014-05-25T11:16:12Z</time>
      </trkpt>
      <trkpt lat="48.74758" lon="2.55067">
        <ele>107</ele>
        <time>2014-05-25T11:16:13Z</time>
      </trkpt>
      <trkpt lat="48.74759" lon="2.55064">
        <ele>106</ele>
        <time>2014-05-25T11:16:14Z</time>
      </trkpt>
      <trkpt lat="48.74759" lon="2.55062">
        <ele>106</ele>
        <time>2014-05-25T11:16:15Z</time>
      </trkpt>
      <trkpt lat="48.7476" lon="2.5506">
        <ele>106</ele>
        <time>2014-05-25T11:16:16Z</time>
      </trkpt>
      <trkpt lat="48.7476" lon="2.55058">
        <ele>107</ele>
        <time>2014-05-25T11:16:17Z</time>
      </trkpt>
      <trkpt lat="48.7476" lon="2.55056">
        <ele>107</ele>
        <time>2014-05-25T11:16:18Z</time>
      </trkpt>
      <trkpt lat="48.74761" lon="2.55054">
        <ele>107</ele>
        <time>2014-05-25T11:16:19Z</time>
      </trkpt>
      <trkpt lat="48.74761" lon="2.55052">
        <ele>107</ele>
        <time>2014-05-25T11:16:20Z</time>
      </trkpt>
      <trkpt lat="48.74762" lon="2.5505">
        <ele>108</ele>
        <time>2014-05-25T11:16:21Z</time>
      </trkpt>
      <trkpt lat="48.74762" lon="2.55048">
        <ele>108</ele>
        <time>2014-05-25T11:16:22Z</time>
      </trkpt>
      <trkpt lat="48.74762" lon="2.55046">
        <ele>108</ele>
        <time>2014-05-25T11:16:23Z</time>
      </trkpt>
      <trkpt lat="48.74763" lon="2.55044">
        <ele>109</ele>
        <time>2014-05-25T11:16:24Z</time>
      </trkpt>
      <trkpt lat="48.74763" lon="2.55042">
        <ele>109</ele>
        <time>2014-05-25T11:16:25Z</time>
      </trkpt>
      <trkpt lat="48.74764" lon="2.5504">
        <ele>109</ele>
        <time>2014-05-25T11:16:26Z</time>
      </trkpt>
      <trkpt lat="48.74764" lon="2.55038">
        <ele>110</ele>
        <time>2014-05-25T11:16:27Z</time>
      </trkpt>
      <trkpt lat="48.74764" lon="2.55036">
        <ele>110</ele>
        <time>2014-05-25T11:16:28Z</time>
      </trkpt>
      <trkpt lat="48.74765" lon="2.55034">
        <ele>110</ele>
        <time>2014-05-25T11:16:29Z</time>
      </trkpt>
      <trkpt lat="48.74765" lon="2.55032">
        <ele>110</ele>
        <time>2014-05-25T11:16:30Z</time>
      </trkpt>
      <trkpt lat="48.74766" lon="2.5503">
        <ele>110</ele>
        <time>2014-05-25T11:16:31Z</time>
      </trkpt>
      <trkpt lat="48.74766" lon="2.55028">
        <ele>111</ele>
        <time>2014-05-25T11:16:32Z</time>
      </trkpt>
      <trkpt lat="48.74766" lon="2.55026">
        <ele>112</ele>
        <time>2014-05-25T11:16:33Z</time>
      </trkpt>
      <trkpt lat="48.74767" lon="2.55024">
        <ele>112</ele>
        <time>2014-05-25T11:16:34Z</time>
      </trkpt>
      <trkpt lat="48.74767" lon="2.55022">
        <ele>112</ele>
        <time>2014-05-25T11:16:35Z</time>
      </trkpt>
      <trkpt lat="48.74768" lon="2.55019">
        <ele>112</ele>
        <time>2014-05-25T11:16:36Z</time>
      </trkpt>
      <trkpt lat="48.74769" lon="2.55017">
        <ele>112</ele>
        <time>2014-05-25T11:16:37Z</time>
      </trkpt>
      <trkpt lat="48.74769" lon="2.55015">
        <ele>112</ele>
        <time>2014-05-25T11:16:38Z</time>
      </trkpt>
      <trkpt lat="48.7477" lon="2.55012">
        <ele>111</ele>
        <time>2014-05-25T11:16:39Z</time>
      </trkpt>
      <trkpt lat="48.7477" lon="2.5501">
        <ele>112</ele>
        <time>2014-05-25T11:16:40Z</time>
      </trkpt>
      <trkpt lat="48.74771" lon="2.55008">
        <ele>112</ele>
        <time>2014-05-25T11:16:41Z</time>
      </trkpt>
      <trkpt lat="48.74771" lon="2.55006">
        <ele>112</ele>
        <time>2014-05-25T11:16:42Z</time>
      </trkpt>
      <trkpt lat="48.74772" lon="2.55003">
        <ele>113</ele>
        <time>2014-05-25T11:16:43Z</time>
      </trkpt>
      <trkpt lat="48.74772" lon="2.55001">
        <ele>113</ele>
        <time>2014-05-25T11:16:44Z</time>
      </trkpt>
      <trkpt lat="48.74772" lon="2.54999">
        <ele>114</ele>
        <time>2014-05-25T11:16:45Z</time>
      </trkpt>
      <trkpt lat="48.74773" lon="2.54997">
        <ele>113</ele>
        <time>2014-05-25T11:16:46Z</time>
      </trkpt>
      <trkpt lat="48.74774" lon="2.54994">
        <ele>112</ele>
        <time>2014-05-25T11:16:47Z</time>
      </trkpt>
      <trkpt lat="48.74774" lon="2.54992">
        <ele>112</ele>
        <time>2014-05-25T11:16:48Z</time>
      </trkpt>
      <trkpt lat="48.74774" lon="2.54991">
        <ele>112</ele>
        <time>2014-05-25T11:16:49Z</time>
      </trkpt>
      <trkpt lat="48.74775" lon="2.54989">
        <ele>112</ele>
        <time>2014-05-25T11:16:50Z</time>
      </trkpt>
      <trkpt lat="48.74775" lon="2.54987">
        <ele>113</ele>
        <time>2014-05-25T11:16:51Z</time>
      </trkpt>
      <trkpt lat="48.74776" lon="2.54985">
        <ele>112</ele>
        <time>2014-05-25T11:16:52Z</time>
      </trkpt>
      <trkpt lat="48.74777" lon="2.54982">
        <ele>111</ele>
        <time>2014-05-25T11:16:53Z</time>
      </trkpt>
      <trkpt lat="48.74777" lon="2.5498">
        <ele>111</ele>
        <time>2014-05-25T11:16:54Z</time>
      </trkpt>
      <trkpt lat="48.74778" lon="2.54978">
        <ele>110</ele>
        <time>2014-05-25T11:16:55Z</time>
      </trkpt>
      <trkpt lat="48.74778" lon="2.54976">
        <ele>109</ele>
        <time>2014-05-25T11:16:56Z</time>
      </trkpt>
      <trkpt lat="48.74779" lon="2.54974">
        <ele>109</ele>
        <time>2014-05-25T11:16:57Z</time>
      </trkpt>
      <trkpt lat="48.74779" lon="2.54971">
        <ele>109</ele>
        <time>2014-05-25T11:16:58Z</time>
      </trkpt>
      <trkpt lat="48.7478" lon="2.54969">
        <ele>109</ele>
        <time>2014-05-25T11:16:59Z</time>
      </trkpt>
      <trkpt lat="48.7478" lon="2.54967">
        <ele>109</ele>
        <time>2014-05-25T11:17:00Z</time>
      </trkpt>
      <trkpt lat="48.74781" lon="2.54964">
        <ele>109</ele>
        <time>2014-05-25T11:17:01Z</time>
      </trkpt>
      <trkpt lat="48.74781" lon="2.54962">
        <ele>108</ele>
        <time>2014-05-25T11:17:02Z</time>
      </trkpt>
      <trkpt lat="48.74782" lon="2.5496">
        <ele>108</ele>
        <time>2014-05-25T11:17:03Z</time>
      </trkpt>
      <trkpt lat="48.74782" lon="2.54957">
        <ele>109</ele>
        <time>2014-05-25T11:17:04Z</time>
      </trkpt>
      <trkpt lat="48.74783" lon="2.54956">
        <ele>110</ele>
        <time>2014-05-25T11:17:05Z</time>
      </trkpt>
      <trkpt lat="48.74784" lon="2.54954">
        <ele>110</ele>
        <time>2014-05-25T11:17:06Z</time>
      </trkpt>
      <trkpt lat="48.74784" lon="2.54952">
        <ele>111</ele>
        <time>2014-05-25T11:17:07Z</time>
      </trkpt>
      <trkpt lat="48.74784" lon="2.5495">
        <ele>111</ele>
        <time>2014-05-25T11:17:08Z</time>
      </trkpt>
      <trkpt lat="48.74784" lon="2.54948">
        <ele>112</ele>
        <time>2014-05-25T11:17:09Z</time>
      </trkpt>
      <trkpt lat="48.74785" lon="2.54946">
        <ele>112</ele>
        <time>2014-05-25T11:17:10Z</time>
      </trkpt>
      <trkpt lat="48.74785" lon="2.54944">
        <ele>112</ele>
        <time>2014-05-25T11:17:11Z</time>
      </trkpt>
      <trkpt lat="48.74785" lon="2.54942">
        <ele>113</ele>
        <time>2014-05-25T11:17:12Z</time>
      </trkpt>
      <trkpt lat="48.74785" lon="2.54942">
        <ele>113</ele>
        <time>2014-05-25T11:17:13Z</time>
      </trkpt>
      <trkpt lat="48.74785" lon="2.54941">
        <ele>113</ele>
        <time>2014-05-25T11:17:14Z</time>
      </trkpt>
      <trkpt lat="48.74785" lon="2.54939">
        <ele>114</ele>
        <time>2014-05-25T11:17:15Z</time>
      </trkpt>
      <trkpt lat="48.74785" lon="2.54937">
        <ele>114</ele>
        <time>2014-05-25T11:17:16Z</time>
      </trkpt>
      <trkpt lat="48.74786" lon="2.54936">
        <ele>111</ele>
        <time>2014-05-25T11:17:17Z</time>
      </trkpt>
      <trkpt lat="48.74785" lon="2.54934">
        <ele>110</ele>
        <time>2014-05-25T11:17:18Z</time>
      </trkpt>
      <trkpt lat="48.74786" lon="2.54932">
        <ele>109</ele>
        <time>2014-05-25T11:17:19Z</time>
      </trkpt>
      <trkpt lat="48.74786" lon="2.5493">
        <ele>110</ele>
        <time>2014-05-25T11:17:20Z</time>
      </trkpt>
      <trkpt lat="48.74786" lon="2.54928">
        <ele>111</ele>
        <time>2014-05-25T11:17:21Z</time>
      </trkpt>
      <trkpt lat="48.74786" lon="2.54927">
        <ele>113</ele>
        <time>2014-05-25T11:17:22Z</time>
      </trkpt>
      <trkpt lat="48.74786" lon="2.54925">
        <ele>114</ele>
        <time>2014-05-25T11:17:23Z</time>
      </trkpt>
      <trkpt lat="48.74786" lon="2.54923">
        <ele>113</ele>
        <time>2014-05-25T11:17:24Z</time>
      </trkpt>
      <trkpt lat="48.74786" lon="2.54922">
        <ele>114</ele>
        <time>2014-05-25T11:17:25Z</time>
      </trkpt>
      <trkpt lat="48.74787" lon="2.5492">
        <ele>113</ele>
        <time>2014-05-25T11:17:26Z</time>
      </trkpt>
      <trkpt lat="48.74787" lon="2.54918">
        <ele>113</ele>
        <time>2014-05-25T11:17:27Z</time>
      </trkpt>
      <trkpt lat="48.74787" lon="2.54917">
        <ele>113</ele>
        <time>2014-05-25T11:17:28Z</time>
      </trkpt>
      <trkpt lat="48.74788" lon="2.54915">
        <ele>113</ele>
        <time>2014-05-25T11:17:29Z</time>
      </trkpt>
      <trkpt lat="48.74788" lon="2.54913">
        <ele>111</ele>
        <time>2014-05-25T11:17:30Z</time>
      </trkpt>
      <trkpt lat="48.74789" lon="2.5491">
        <ele>111</ele>
        <time>2014-05-25T11:17:31Z</time>
      </trkpt>
      <trkpt lat="48.74789" lon="2.54908">
        <ele>111</ele>
        <time>2014-05-25T11:17:32Z</time>
      </trkpt>
      <trkpt lat="48.7479" lon="2.54906">
        <ele>111</ele>
        <time>2014-05-25T11:17:33Z</time>
      </trkpt>
      <trkpt lat="48.74791" lon="2.54904">
        <ele>112</ele>
        <time>2014-05-25T11:17:34Z</time>
      </trkpt>
      <trkpt lat="48.74791" lon="2.54901">
        <ele>112</ele>
        <time>2014-05-25T11:17:35Z</time>
      </trkpt>
      <trkpt lat="48.74792" lon="2.54899">
        <ele>111</ele>
        <time>2014-05-25T11:17:36Z</time>
      </trkpt>
      <trkpt lat="48.74792" lon="2.54897">
        <ele>111</ele>
        <time>2014-05-25T11:17:37Z</time>
      </trkpt>
      <trkpt lat="48.74793" lon="2.54895">
        <ele>112</ele>
        <time>2014-05-25T11:17:38Z</time>
      </trkpt>
      <trkpt lat="48.74794" lon="2.54893">
        <ele>113</ele>
        <time>2014-05-25T11:17:39Z</time>
      </trkpt>
      <trkpt lat="48.74794" lon="2.5489">
        <ele>112</ele>
        <time>2014-05-25T11:17:40Z</time>
      </trkpt>
      <trkpt lat="48.74795" lon="2.54888">
        <ele>111</ele>
        <time>2014-05-25T11:17:41Z</time>
      </trkpt>
      <trkpt lat="48.74796" lon="2.54886">
        <ele>111</ele>
        <time>2014-05-25T11:17:42Z</time>
      </trkpt>
      <trkpt lat="48.74796" lon="2.54883">
        <ele>110</ele>
        <time>2014-05-25T11:17:43Z</time>
      </trkpt>
      <trkpt lat="48.74801" lon="2.54865">
        <ele>108</ele>
        <time>2014-05-25T11:17:50Z</time>
      </trkpt>
      <trkpt lat="48.74802" lon="2.54862">
        <ele>107</ele>
        <time>2014-05-25T11:17:52Z</time>
      </trkpt>
      <trkpt lat="48.74803" lon="2.54859">
        <ele>106</ele>
        <time>2014-05-25T11:17:53Z</time>
      </trkpt>
      <trkpt lat="48.74803" lon="2.54857">
        <ele>106</ele>
        <time>2014-05-25T11:17:54Z</time>
      </trkpt>
      <trkpt lat="48.74804" lon="2.54855">
        <ele>106</ele>
        <time>2014-05-25T11:17:55Z</time>
      </trkpt>
      <trkpt lat="48.74805" lon="2.54853">
        <ele>106</ele>
        <time>2014-05-25T11:17:56Z</time>
      </trkpt>
      <trkpt lat="48.74805" lon="2.5485">
        <ele>106</ele>
        <time>2014-05-25T11:17:57Z</time>
      </trkpt>
      <trkpt lat="48.74806" lon="2.54848">
        <ele>106</ele>
        <time>2014-05-25T11:17:58Z</time>
      </trkpt>
      <trkpt lat="48.74806" lon="2.54846">
        <ele>106</ele>
        <time>2014-05-25T11:17:59Z</time>
      </trkpt>
      <trkpt lat="48.74806" lon="2.54843">
        <ele>106</ele>
        <time>2014-05-25T11:18:00Z</time>
      </trkpt>
      <trkpt lat="48.74807" lon="2.54841">
        <ele>106</ele>
        <time>2014-05-25T11:18:01Z</time>
      </trkpt>
      <trkpt lat="48.74808" lon="2.54839">
        <ele>106</ele>
        <time>2014-05-25T11:18:02Z</time>
      </trkpt>
      <trkpt lat="48.74808" lon="2.54837">
        <ele>107</ele>
        <time>2014-05-25T11:18:03Z</time>
      </trkpt>
      <trkpt lat="48.74809" lon="2.54835">
        <ele>106</ele>
        <time>2014-05-25T11:18:04Z</time>
      </trkpt>
      <trkpt lat="48.74809" lon="2.54832">
        <ele>106</ele>
        <time>2014-05-25T11:18:05Z</time>
      </trkpt>
      <trkpt lat="48.7481" lon="2.5483">
        <ele>107</ele>
        <time>2014-05-25T11:18:06Z</time>
      </trkpt>
      <trkpt lat="48.7481" lon="2.54828">
        <ele>106</ele>
        <time>2014-05-25T11:18:07Z</time>
      </trkpt>
      <trkpt lat="48.74811" lon="2.54826">
        <ele>106</ele>
        <time>2014-05-25T11:18:08Z</time>
      </trkpt>
      <trkpt lat="48.74811" lon="2.54824">
        <ele>107</ele>
        <time>2014-05-25T11:18:09Z</time>
      </trkpt>
      <trkpt lat="48.74811" lon="2.54821">
        <ele>106</ele>
        <time>2014-05-25T11:18:10Z</time>
      </trkpt>
      <trkpt lat="48.74812" lon="2.54819">
        <ele>106</ele>
        <time>2014-05-25T11:18:11Z</time>
      </trkpt>
      <trkpt lat="48.74812" lon="2.54817">
        <ele>106</ele>
        <time>2014-05-25T11:18:12Z</time>
      </trkpt>
      <trkpt lat="48.74813" lon="2.54815">
        <ele>106</ele>
        <time>2014-05-25T11:18:13Z</time>
      </trkpt>
      <trkpt lat="48.74813" lon="2.54813">
        <ele>106</ele>
        <time>2014-05-25T11:18:14Z</time>
      </trkpt>
      <trkpt lat="48.74813" lon="2.54811">
        <ele>106</ele>
        <time>2014-05-25T11:18:15Z</time>
      </trkpt>
      <trkpt lat="48.74814" lon="2.54809">
        <ele>106</ele>
        <time>2014-05-25T11:18:16Z</time>
      </trkpt>
      <trkpt lat="48.74814" lon="2.54807">
        <ele>106</ele>
        <time>2014-05-25T11:18:17Z</time>
      </trkpt>
      <trkpt lat="48.74815" lon="2.54806">
        <ele>107</ele>
        <time>2014-05-25T11:18:18Z</time>
      </trkpt>
      <trkpt lat="48.74815" lon="2.54803">
        <ele>106</ele>
        <time>2014-05-25T11:18:19Z</time>
      </trkpt>
      <trkpt lat="48.74816" lon="2.54801">
        <ele>106</ele>
        <time>2014-05-25T11:18:20Z</time>
      </trkpt>
      <trkpt lat="48.74816" lon="2.54799">
        <ele>107</ele>
        <time>2014-05-25T11:18:21Z</time>
      </trkpt>
      <trkpt lat="48.74816" lon="2.54797">
        <ele>106</ele>
        <time>2014-05-25T11:18:22Z</time>
      </trkpt>
      <trkpt lat="48.74817" lon="2.54795">
        <ele>107</ele>
        <time>2014-05-25T11:18:23Z</time>
      </trkpt>
      <trkpt lat="48.74817" lon="2.54793">
        <ele>106</ele>
        <time>2014-05-25T11:18:24Z</time>
      </trkpt>
      <trkpt lat="48.74817" lon="2.54791">
        <ele>106</ele>
        <time>2014-05-25T11:18:25Z</time>
      </trkpt>
      <trkpt lat="48.74818" lon="2.54788">
        <ele>107</ele>
        <time>2014-05-25T11:18:26Z</time>
      </trkpt>
      <trkpt lat="48.74818" lon="2.54786">
        <ele>106</ele>
        <time>2014-05-25T11:18:27Z</time>
      </trkpt>
      <trkpt lat="48.74818" lon="2.54784">
        <ele>106</ele>
        <time>2014-05-25T11:18:28Z</time>
      </trkpt>
      <trkpt lat="48.74819" lon="2.54782">
        <ele>106</ele>
        <time>2014-05-25T11:18:29Z</time>
      </trkpt>
      <trkpt lat="48.7482" lon="2.5478">
        <ele>106</ele>
        <time>2014-05-25T11:18:30Z</time>
      </trkpt>
      <trkpt lat="48.7482" lon="2.54777">
        <ele>107</ele>
        <time>2014-05-25T11:18:31Z</time>
      </trkpt>
      <trkpt lat="48.74821" lon="2.54775">
        <ele>107</ele>
        <time>2014-05-25T11:18:32Z</time>
      </trkpt>
      <trkpt lat="48.74821" lon="2.54773">
        <ele>107</ele>
        <time>2014-05-25T11:18:33Z</time>
      </trkpt>
      <trkpt lat="48.74822" lon="2.54771">
        <ele>107</ele>
        <time>2014-05-25T11:18:34Z</time>
      </trkpt>
      <trkpt lat="48.74822" lon="2.54769">
        <ele>107</ele>
        <time>2014-05-25T11:18:35Z</time>
      </trkpt>
      <trkpt lat="48.74822" lon="2.54767">
        <ele>107</ele>
        <time>2014-05-25T11:18:36Z</time>
      </trkpt>
      <trkpt lat="48.74823" lon="2.54765">
        <ele>108</ele>
        <time>2014-05-25T11:18:37Z</time>
      </trkpt>
      <trkpt lat="48.74823" lon="2.54763">
        <ele>108</ele>
        <time>2014-05-25T11:18:38Z</time>
      </trkpt>
      <trkpt lat="48.74823" lon="2.54761">
        <ele>108</ele>
        <time>2014-05-25T11:18:39Z</time>
      </trkpt>
      <trkpt lat="48.74824" lon="2.54759">
        <ele>108</ele>
        <time>2014-05-25T11:18:40Z</time>
      </trkpt>
      <trkpt lat="48.74824" lon="2.54756">
        <ele>110</ele>
        <time>2014-05-25T11:18:41Z</time>
      </trkpt>
      <trkpt lat="48.74825" lon="2.54754">
        <ele>110</ele>
        <time>2014-05-25T11:18:42Z</time>
      </trkpt>
      <trkpt lat="48.74825" lon="2.54752">
        <ele>109</ele>
        <time>2014-05-25T11:18:43Z</time>
      </trkpt>
      <trkpt lat="48.74825" lon="2.5475">
        <ele>109</ele>
        <time>2014-05-25T11:18:44Z</time>
      </trkpt>
      <trkpt lat="48.74826" lon="2.54747">
        <ele>109</ele>
        <time>2014-05-25T11:18:45Z</time>
      </trkpt>
      <trkpt lat="48.74826" lon="2.54745">
        <ele>109</ele>
        <time>2014-05-25T11:18:46Z</time>
      </trkpt>
      <trkpt lat="48.74826" lon="2.54743">
        <ele>110</ele>
        <time>2014-05-25T11:18:47Z</time>
      </trkpt>
      <trkpt lat="48.74827" lon="2.54741">
        <ele>111</ele>
        <time>2014-05-25T11:18:48Z</time>
      </trkpt>
      <trkpt lat="48.74827" lon="2.54739">
        <ele>111</ele>
        <time>2014-05-25T11:18:49Z</time>
      </trkpt>
      <trkpt lat="48.74827" lon="2.54737">
        <ele>110</ele>
        <time>2014-05-25T11:18:50Z</time>
      </trkpt>
      <trkpt lat="48.74828" lon="2.54734">
        <ele>109</ele>
        <time>2014-05-25T11:18:51Z</time>
      </trkpt>
      <trkpt lat="48.74828" lon="2.54732">
        <ele>109</ele>
        <time>2014-05-25T11:18:52Z</time>
      </trkpt>
      <trkpt lat="48.74829" lon="2.5473">
        <ele>109</ele>
        <time>2014-05-25T11:18:53Z</time>
      </trkpt>
      <trkpt lat="48.74829" lon="2.54728">
        <ele>109</ele>
        <time>2014-05-25T11:18:54Z</time>
      </trkpt>
      <trkpt lat="48.7483" lon="2.54726">
        <ele>109</ele>
        <time>2014-05-25T11:18:55Z</time>
      </trkpt>
      <trkpt lat="48.7483" lon="2.54724">
        <ele>109</ele>
        <time>2014-05-25T11:18:56Z</time>
      </trkpt>
      <trkpt lat="48.7483" lon="2.54722">
        <ele>109</ele>
        <time>2014-05-25T11:18:57Z</time>
      </trkpt>
      <trkpt lat="48.74831" lon="2.54719">
        <ele>108</ele>
        <time>2014-05-25T11:18:58Z</time>
      </trkpt>
      <trkpt lat="48.74831" lon="2.54717">
        <ele>108</ele>
        <time>2014-05-25T11:18:59Z</time>
      </trkpt>
      <trkpt lat="48.74831" lon="2.54716">
        <ele>109</ele>
        <time>2014-05-25T11:19:00Z</time>
      </trkpt>
      <trkpt lat="48.74831" lon="2.54714">
        <ele>108</ele>
        <time>2014-05-25T11:19:01Z</time>
      </trkpt>
      <trkpt lat="48.74832" lon="2.54712">
        <ele>108</ele>
        <time>2014-05-25T11:19:02Z</time>
      </trkpt>
      <trkpt lat="48.74832" lon="2.5471">
        <ele>107</ele>
        <time>2014-05-25T11:19:03Z</time>
      </trkpt>
      <trkpt lat="48.74833" lon="2.54708">
        <ele>107</ele>
        <time>2014-05-25T11:19:04Z</time>
      </trkpt>
      <trkpt lat="48.74833" lon="2.54706">
        <ele>108</ele>
        <time>2014-05-25T11:19:05Z</time>
      </trkpt>
      <trkpt lat="48.74834" lon="2.54704">
        <ele>108</ele>
        <time>2014-05-25T11:19:06Z</time>
      </trkpt>
      <trkpt lat="48.74834" lon="2.54702">
        <ele>108</ele>
        <time>2014-05-25T11:19:07Z</time>
      </trkpt>
      <trkpt lat="48.74834" lon="2.547">
        <ele>108</ele>
        <time>2014-05-25T11:19:08Z</time>
      </trkpt>
      <trkpt lat="48.74835" lon="2.54698">
        <ele>108</ele>
        <time>2014-05-25T11:19:09Z</time>
      </trkpt>
      <trkpt lat="48.74835" lon="2.54696">
        <ele>108</ele>
        <time>2014-05-25T11:19:10Z</time>
      </trkpt>
      <trkpt lat="48.74836" lon="2.54694">
        <ele>108</ele>
        <time>2014-05-25T11:19:11Z</time>
      </trkpt>
      <trkpt lat="48.74837" lon="2.54692">
        <ele>108</ele>
        <time>2014-05-25T11:19:12Z</time>
      </trkpt>
      <trkpt lat="48.74837" lon="2.5469">
        <ele>108</ele>
        <time>2014-05-25T11:19:13Z</time>
      </trkpt>
      <trkpt lat="48.74838" lon="2.54687">
        <ele>108</ele>
        <time>2014-05-25T11:19:14Z</time>
      </trkpt>
      <trkpt lat="48.74838" lon="2.54685">
        <ele>108</ele>
        <time>2014-05-25T11:19:15Z</time>
      </trkpt>
      <trkpt lat="48.74838" lon="2.54683">
        <ele>108</ele>
        <time>2014-05-25T11:19:16Z</time>
      </trkpt>
      <trkpt lat="48.74839" lon="2.54681">
        <ele>108</ele>
        <time>2014-05-25T11:19:17Z</time>
      </trkpt>
      <trkpt lat="48.74839" lon="2.54679">
        <ele>108</ele>
        <time>2014-05-25T11:19:18Z</time>
      </trkpt>
      <trkpt lat="48.7484" lon="2.54677">
        <ele>108</ele>
        <time>2014-05-25T11:19:19Z</time>
      </trkpt>
      <trkpt lat="48.7484" lon="2.54675">
        <ele>108</ele>
        <time>2014-05-25T11:19:20Z</time>
      </trkpt>
      <trkpt lat="48.74841" lon="2.54673">
        <ele>108</ele>
        <time>2014-05-25T11:19:21Z</time>
      </trkpt>
      <trkpt lat="48.74842" lon="2.54671">
        <ele>108</ele>
        <time>2014-05-25T11:19:22Z</time>
      </trkpt>
      <trkpt lat="48.74842" lon="2.54669">
        <ele>108</ele>
        <time>2014-05-25T11:19:23Z</time>
      </trkpt>
      <trkpt lat="48.74843" lon="2.54666">
        <ele>108</ele>
        <time>2014-05-25T11:19:24Z</time>
      </trkpt>
      <trkpt lat="48.74843" lon="2.54664">
        <ele>108</ele>
        <time>2014-05-25T11:19:25Z</time>
      </trkpt>
      <trkpt lat="48.74844" lon="2.54662">
        <ele>107</ele>
        <time>2014-05-25T11:19:26Z</time>
      </trkpt>
      <trkpt lat="48.74844" lon="2.5466">
        <ele>108</ele>
        <time>2014-05-25T11:19:27Z</time>
      </trkpt>
      <trkpt lat="48.74844" lon="2.54658">
        <ele>108</ele>
        <time>2014-05-25T11:19:28Z</time>
      </trkpt>
      <trkpt lat="48.74845" lon="2.54656">
        <ele>108</ele>
        <time>2014-05-25T11:19:29Z</time>
      </trkpt>
      <trkpt lat="48.74845" lon="2.54654">
        <ele>108</ele>
        <time>2014-05-25T11:19:30Z</time>
      </trkpt>
      <trkpt lat="48.74846" lon="2.54652">
        <ele>108</ele>
        <time>2014-05-25T11:19:31Z</time>
      </trkpt>
      <trkpt lat="48.74846" lon="2.5465">
        <ele>107</ele>
        <time>2014-05-25T11:19:32Z</time>
      </trkpt>
      <trkpt lat="48.74847" lon="2.54648">
        <ele>107</ele>
        <time>2014-05-25T11:19:33Z</time>
      </trkpt>
      <trkpt lat="48.74847" lon="2.54646">
        <ele>107</ele>
        <time>2014-05-25T11:19:34Z</time>
      </trkpt>
      <trkpt lat="48.74848" lon="2.54644">
        <ele>107</ele>
        <time>2014-05-25T11:19:35Z</time>
      </trkpt>
      <trkpt lat="48.74848" lon="2.54642">
        <ele>108</ele>
        <time>2014-05-25T11:19:36Z</time>
      </trkpt>
      <trkpt lat="48.74848" lon="2.54639">
        <ele>107</ele>
        <time>2014-05-25T11:19:37Z</time>
      </trkpt>
      <trkpt lat="48.74849" lon="2.54637">
        <ele>107</ele>
        <time>2014-05-25T11:19:38Z</time>
      </trkpt>
      <trkpt lat="48.74849" lon="2.54635">
        <ele>106</ele>
        <time>2014-05-25T11:19:39Z</time>
      </trkpt>
      <trkpt lat="48.74849" lon="2.54633">
        <ele>107</ele>
        <time>2014-05-25T11:19:40Z</time>
      </trkpt>
      <trkpt lat="48.7485" lon="2.54631">
        <ele>107</ele>
        <time>2014-05-25T11:19:41Z</time>
      </trkpt>
      <trkpt lat="48.7485" lon="2.54629">
        <ele>106</ele>
        <time>2014-05-25T11:19:42Z</time>
      </trkpt>
      <trkpt lat="48.7485" lon="2.54627">
        <ele>107</ele>
        <time>2014-05-25T11:19:43Z</time>
      </trkpt>
      <trkpt lat="48.7485" lon="2.54625">
        <ele>107</ele>
        <time>2014-05-25T11:19:44Z</time>
      </trkpt>
      <trkpt lat="48.74851" lon="2.54623">
        <ele>108</ele>
        <time>2014-05-25T11:19:45Z</time>
      </trkpt>
      <trkpt lat="48.74851" lon="2.54621">
        <ele>108</ele>
        <time>2014-05-25T11:19:46Z</time>
      </trkpt>
      <trkpt lat="48.74851" lon="2.54619">
        <ele>109</ele>
        <time>2014-05-25T11:19:47Z</time>
      </trkpt>
      <trkpt lat="48.74852" lon="2.54617">
        <ele>108</ele>
        <time>2014-05-25T11:19:48Z</time>
      </trkpt>
      <trkpt lat="48.74852" lon="2.54615">
        <ele>109</ele>
        <time>2014-05-25T11:19:49Z</time>
      </trkpt>
      <trkpt lat="48.74852" lon="2.54613">
        <ele>109</ele>
        <time>2014-05-25T11:19:50Z</time>
      </trkpt>
      <trkpt lat="48.74853" lon="2.54613">
        <ele>110</ele>
        <time>2014-05-25T11:19:51Z</time>
      </trkpt>
      <trkpt lat="48.74853" lon="2.54612">
        <ele>110</ele>
        <time>2014-05-25T11:19:52Z</time>
      </trkpt>
      <trkpt lat="48.74853" lon="2.54611">
        <ele>110</ele>
        <time>2014-05-25T11:19:53Z</time>
      </trkpt>
      <trkpt lat="48.74854" lon="2.54609">
        <ele>110</ele>
        <time>2014-05-25T11:19:54Z</time>
      </trkpt>
      <trkpt lat="48.74854" lon="2.54607">
        <ele>109</ele>
        <time>2014-05-25T11:19:55Z</time>
      </trkpt>
      <trkpt lat="48.74855" lon="2.54605">
        <ele>109</ele>
        <time>2014-05-25T11:19:56Z</time>
      </trkpt>
      <trkpt lat="48.74855" lon="2.54603">
        <ele>108</ele>
        <time>2014-05-25T11:19:57Z</time>
      </trkpt>
      <trkpt lat="48.74856" lon="2.54601">
        <ele>110</ele>
        <time>2014-05-25T11:19:58Z</time>
      </trkpt>
      <trkpt lat="48.74856" lon="2.54599">
        <ele>110</ele>
        <time>2014-05-25T11:19:59Z</time>
      </trkpt>
      <trkpt lat="48.74856" lon="2.54597">
        <ele>111</ele>
        <time>2014-05-25T11:20:00Z</time>
      </trkpt>
      <trkpt lat="48.74856" lon="2.54595">
        <ele>111</ele>
        <time>2014-05-25T11:20:01Z</time>
      </trkpt>
      <trkpt lat="48.74857" lon="2.54593">
        <ele>111</ele>
        <time>2014-05-25T11:20:02Z</time>
      </trkpt>
      <trkpt lat="48.74857" lon="2.54591">
        <ele>110</ele>
        <time>2014-05-25T11:20:03Z</time>
      </trkpt>
      <trkpt lat="48.74857" lon="2.54588">
        <ele>110</ele>
        <time>2014-05-25T11:20:04Z</time>
      </trkpt>
      <trkpt lat="48.74858" lon="2.54586">
        <ele>110</ele>
        <time>2014-05-25T11:20:05Z</time>
      </trkpt>
      <trkpt lat="48.74858" lon="2.54584">
        <ele>109</ele>
        <time>2014-05-25T11:20:06Z</time>
      </trkpt>
      <trkpt lat="48.74859" lon="2.54582">
        <ele>109</ele>
        <time>2014-05-25T11:20:07Z</time>
      </trkpt>
      <trkpt lat="48.74859" lon="2.5458">
        <ele>109</ele>
        <time>2014-05-25T11:20:08Z</time>
      </trkpt>
      <trkpt lat="48.7486" lon="2.54577">
        <ele>109</ele>
        <time>2014-05-25T11:20:09Z</time>
      </trkpt>
      <trkpt lat="48.74861" lon="2.54575">
        <ele>109</ele>
        <time>2014-05-25T11:20:10Z</time>
      </trkpt>
      <trkpt lat="48.74861" lon="2.54573">
        <ele>109</ele>
        <time>2014-05-25T11:20:11Z</time>
      </trkpt>
      <trkpt lat="48.74862" lon="2.54571">
        <ele>109</ele>
        <time>2014-05-25T11:20:12Z</time>
      </trkpt>
      <trkpt lat="48.74862" lon="2.54568">
        <ele>109</ele>
        <time>2014-05-25T11:20:13Z</time>
      </trkpt>
      <trkpt lat="48.74863" lon="2.54566">
        <ele>110</ele>
        <time>2014-05-25T11:20:14Z</time>
      </trkpt>
      <trkpt lat="48.74863" lon="2.54564">
        <ele>111</ele>
        <time>2014-05-25T11:20:15Z</time>
      </trkpt>
      <trkpt lat="48.74863" lon="2.54562">
        <ele>111</ele>
        <time>2014-05-25T11:20:16Z</time>
      </trkpt>
      <trkpt lat="48.74863" lon="2.5456">
        <ele>111</ele>
        <time>2014-05-25T11:20:17Z</time>
      </trkpt>
      <trkpt lat="48.74864" lon="2.54558">
        <ele>111</ele>
        <time>2014-05-25T11:20:18Z</time>
      </trkpt>
      <trkpt lat="48.74864" lon="2.54557">
        <ele>111</ele>
        <time>2014-05-25T11:20:19Z</time>
      </trkpt>
      <trkpt lat="48.74864" lon="2.54555">
        <ele>111</ele>
        <time>2014-05-25T11:20:20Z</time>
      </trkpt>
      <trkpt lat="48.74865" lon="2.54553">
        <ele>111</ele>
        <time>2014-05-25T11:20:21Z</time>
      </trkpt>
      <trkpt lat="48.74865" lon="2.54551">
        <ele>110</ele>
        <time>2014-05-25T11:20:22Z</time>
      </trkpt>
      <trkpt lat="48.74866" lon="2.54549">
        <ele>110</ele>
        <time>2014-05-25T11:20:23Z</time>
      </trkpt>
      <trkpt lat="48.74866" lon="2.54546">
        <ele>109</ele>
        <time>2014-05-25T11:20:24Z</time>
      </trkpt>
      <trkpt lat="48.74867" lon="2.54544">
        <ele>109</ele>
        <time>2014-05-25T11:20:25Z</time>
      </trkpt>
      <trkpt lat="48.74867" lon="2.54541">
        <ele>108</ele>
        <time>2014-05-25T11:20:26Z</time>
      </trkpt>
      <trkpt lat="48.74868" lon="2.54539">
        <ele>108</ele>
        <time>2014-05-25T11:20:27Z</time>
      </trkpt>
      <trkpt lat="48.74869" lon="2.54536">
        <ele>108</ele>
        <time>2014-05-25T11:20:28Z</time>
      </trkpt>
      <trkpt lat="48.74869" lon="2.54534">
        <ele>108</ele>
        <time>2014-05-25T11:20:29Z</time>
      </trkpt>
      <trkpt lat="48.7487" lon="2.54532">
        <ele>109</ele>
        <time>2014-05-25T11:20:30Z</time>
      </trkpt>
      <trkpt lat="48.7487" lon="2.54529">
        <ele>110</ele>
        <time>2014-05-25T11:20:31Z</time>
      </trkpt>
      <trkpt lat="48.7487" lon="2.54527">
        <ele>110</ele>
        <time>2014-05-25T11:20:32Z</time>
      </trkpt>
      <trkpt lat="48.74871" lon="2.54525">
        <ele>110</ele>
        <time>2014-05-25T11:20:33Z</time>
      </trkpt>
      <trkpt lat="48.74871" lon="2.54523">
        <ele>110</ele>
        <time>2014-05-25T11:20:34Z</time>
      </trkpt>
      <trkpt lat="48.74872" lon="2.54521">
        <ele>111</ele>
        <time>2014-05-25T11:20:35Z</time>
      </trkpt>
      <trkpt lat="48.74872" lon="2.54519">
        <ele>111</ele>
        <time>2014-05-25T11:20:36Z</time>
      </trkpt>
      <trkpt lat="48.74873" lon="2.54517">
        <ele>112</ele>
        <time>2014-05-25T11:20:37Z</time>
      </trkpt>
      <trkpt lat="48.74873" lon="2.54515">
        <ele>112</ele>
        <time>2014-05-25T11:20:38Z</time>
      </trkpt>
      <trkpt lat="48.74873" lon="2.54513">
        <ele>112</ele>
        <time>2014-05-25T11:20:39Z</time>
      </trkpt>
      <trkpt lat="48.74874" lon="2.54512">
        <ele>111</ele>
        <time>2014-05-25T11:20:40Z</time>
      </trkpt>
      <trkpt lat="48.74875" lon="2.5451">
        <ele>111</ele>
        <time>2014-05-25T11:20:41Z</time>
      </trkpt>
      <trkpt lat="48.74875" lon="2.54508">
        <ele>111</ele>
        <time>2014-05-25T11:20:42Z</time>
      </trkpt>
      <trkpt lat="48.74876" lon="2.54506">
        <ele>110</ele>
        <time>2014-05-25T11:20:43Z</time>
      </trkpt>
      <trkpt lat="48.74876" lon="2.54504">
        <ele>111</ele>
        <time>2014-05-25T11:20:44Z</time>
      </trkpt>
      <trkpt lat="48.74877" lon="2.54502">
        <ele>110</ele>
        <time>2014-05-25T11:20:45Z</time>
      </trkpt>
      <trkpt lat="48.74877" lon="2.54499">
        <ele>109</ele>
        <time>2014-05-25T11:20:46Z</time>
      </trkpt>
      <trkpt lat="48.74878" lon="2.54497">
        <ele>110</ele>
        <time>2014-05-25T11:20:47Z</time>
      </trkpt>
      <trkpt lat="48.74878" lon="2.54494">
        <ele>109</ele>
        <time>2014-05-25T11:20:48Z</time>
      </trkpt>
      <trkpt lat="48.74879" lon="2.54492">
        <ele>109</ele>
        <time>2014-05-25T11:20:49Z</time>
      </trkpt>
      <trkpt lat="48.74879" lon="2.5449">
        <ele>110</ele>
        <time>2014-05-25T11:20:50Z</time>
      </trkpt>
      <trkpt lat="48.7488" lon="2.54487">
        <ele>109</ele>
        <time>2014-05-25T11:20:51Z</time>
      </trkpt>
      <trkpt lat="48.7488" lon="2.54485">
        <ele>109</ele>
        <time>2014-05-25T11:20:52Z</time>
      </trkpt>
      <trkpt lat="48.74881" lon="2.54483">
        <ele>108</ele>
        <time>2014-05-25T11:20:53Z</time>
      </trkpt>
      <trkpt lat="48.74881" lon="2.54481">
        <ele>108</ele>
        <time>2014-05-25T11:20:54Z</time>
      </trkpt>
      <trkpt lat="48.74881" lon="2.54479">
        <ele>108</ele>
        <time>2014-05-25T11:20:55Z</time>
      </trkpt>
      <trkpt lat="48.74882" lon="2.54476">
        <ele>108</ele>
        <time>2014-05-25T11:20:56Z</time>
      </trkpt>
      <trkpt lat="48.74883" lon="2.54474">
        <ele>109</ele>
        <time>2014-05-25T11:20:57Z</time>
      </trkpt>
      <trkpt lat="48.74883" lon="2.54472">
        <ele>109</ele>
        <time>2014-05-25T11:20:58Z</time>
      </trkpt>
      <trkpt lat="48.74884" lon="2.54469">
        <ele>110</ele>
        <time>2014-05-25T11:20:59Z</time>
      </trkpt>
      <trkpt lat="48.74885" lon="2.54467">
        <ele>110</ele>
        <time>2014-05-25T11:21:00Z</time>
      </trkpt>
      <trkpt lat="48.74885" lon="2.54465">
        <ele>111</ele>
        <time>2014-05-25T11:21:01Z</time>
      </trkpt>
      <trkpt lat="48.74886" lon="2.54463">
        <ele>110</ele>
        <time>2014-05-25T11:21:02Z</time>
      </trkpt>
      <trkpt lat="48.74886" lon="2.54461">
        <ele>110</ele>
        <time>2014-05-25T11:21:03Z</time>
      </trkpt>
      <trkpt lat="48.74887" lon="2.54458">
        <ele>111</ele>
        <time>2014-05-25T11:21:04Z</time>
      </trkpt>
      <trkpt lat="48.74887" lon="2.54456">
        <ele>111</ele>
        <time>2014-05-25T11:21:05Z</time>
      </trkpt>
      <trkpt lat="48.74887" lon="2.54454">
        <ele>112</ele>
        <time>2014-05-25T11:21:06Z</time>
      </trkpt>
      <trkpt lat="48.74888" lon="2.54452">
        <ele>112</ele>
        <time>2014-05-25T11:21:07Z</time>
      </trkpt>
      <trkpt lat="48.74888" lon="2.5445">
        <ele>112</ele>
        <time>2014-05-25T11:21:08Z</time>
      </trkpt>
      <trkpt lat="48.74888" lon="2.54448">
        <ele>111</ele>
        <time>2014-05-25T11:21:09Z</time>
      </trkpt>
      <trkpt lat="48.74889" lon="2.54446">
        <ele>112</ele>
        <time>2014-05-25T11:21:10Z</time>
      </trkpt>
      <trkpt lat="48.74889" lon="2.54443">
        <ele>112</ele>
        <time>2014-05-25T11:21:11Z</time>
      </trkpt>
      <trkpt lat="48.7489" lon="2.54441">
        <ele>111</ele>
        <time>2014-05-25T11:21:12Z</time>
      </trkpt>
      <trkpt lat="48.7489" lon="2.54438">
        <ele>111</ele>
        <time>2014-05-25T11:21:13Z</time>
      </trkpt>
      <trkpt lat="48.74891" lon="2.54436">
        <ele>110</ele>
        <time>2014-05-25T11:21:14Z</time>
      </trkpt>
      <trkpt lat="48.74891" lon="2.54433">
        <ele>110</ele>
        <time>2014-05-25T11:21:15Z</time>
      </trkpt>
      <trkpt lat="48.74892" lon="2.54431">
        <ele>110</ele>
        <time>2014-05-25T11:21:16Z</time>
      </trkpt>
      <trkpt lat="48.74892" lon="2.54428">
        <ele>109</ele>
        <time>2014-05-25T11:21:17Z</time>
      </trkpt>
      <trkpt lat="48.74892" lon="2.54426">
        <ele>109</ele>
        <time>2014-05-25T11:21:18Z</time>
      </trkpt>
      <trkpt lat="48.74892" lon="2.54424">
        <ele>110</ele>
        <time>2014-05-25T11:21:19Z</time>
      </trkpt>
      <trkpt lat="48.74893" lon="2.54422">
        <ele>109</ele>
        <time>2014-05-25T11:21:20Z</time>
      </trkpt>
      <trkpt lat="48.74893" lon="2.54419">
        <ele>109</ele>
        <time>2014-05-25T11:21:21Z</time>
      </trkpt>
      <trkpt lat="48.74893" lon="2.54417">
        <ele>110</ele>
        <time>2014-05-25T11:21:22Z</time>
      </trkpt>
      <trkpt lat="48.74894" lon="2.54415">
        <ele>109</ele>
        <time>2014-05-25T11:21:23Z</time>
      </trkpt>
      <trkpt lat="48.74895" lon="2.54413">
        <ele>109</ele>
        <time>2014-05-25T11:21:24Z</time>
      </trkpt>
      <trkpt lat="48.74896" lon="2.54411">
        <ele>108</ele>
        <time>2014-05-25T11:21:25Z</time>
      </trkpt>
      <trkpt lat="48.74896" lon="2.54409">
        <ele>108</ele>
        <time>2014-05-25T11:21:26Z</time>
      </trkpt>
      <trkpt lat="48.74897" lon="2.54407">
        <ele>107</ele>
        <time>2014-05-25T11:21:27Z</time>
      </trkpt>
      <trkpt lat="48.74897" lon="2.54405">
        <ele>108</ele>
        <time>2014-05-25T11:21:28Z</time>
      </trkpt>
      <trkpt lat="48.74898" lon="2.54403">
        <ele>108</ele>
        <time>2014-05-25T11:21:29Z</time>
      </trkpt>
      <trkpt lat="48.74898" lon="2.54401">
        <ele>108</ele>
        <time>2014-05-25T11:21:30Z</time>
      </trkpt>
      <trkpt lat="48.74898" lon="2.54399">
        <ele>109</ele>
        <time>2014-05-25T11:21:31Z</time>
      </trkpt>
      <trkpt lat="48.74899" lon="2.54397">
        <ele>108</ele>
        <time>2014-05-25T11:21:32Z</time>
      </trkpt>
      <trkpt lat="48.74899" lon="2.54395">
        <ele>109</ele>
        <time>2014-05-25T11:21:33Z</time>
      </trkpt>
      <trkpt lat="48.74899" lon="2.54393">
        <ele>110</ele>
        <time>2014-05-25T11:21:34Z</time>
      </trkpt>
      <trkpt lat="48.74899" lon="2.54392">
        <ele>109</ele>
        <time>2014-05-25T11:21:35Z</time>
      </trkpt>
      <trkpt lat="48.749" lon="2.5439">
        <ele>110</ele>
        <time>2014-05-25T11:21:36Z</time>
      </trkpt>
      <trkpt lat="48.749" lon="2.54388">
        <ele>109</ele>
        <time>2014-05-25T11:21:37Z</time>
      </trkpt>
      <trkpt lat="48.749" lon="2.54386">
        <ele>109</ele>
        <time>2014-05-25T11:21:38Z</time>
      </trkpt>
      <trkpt lat="48.74901" lon="2.54384">
        <ele>109</ele>
        <time>2014-05-25T11:21:39Z</time>
      </trkpt>
      <trkpt lat="48.74901" lon="2.54382">
        <ele>109</ele>
        <time>2014-05-25T11:21:40Z</time>
      </trkpt>
      <trkpt lat="48.74902" lon="2.5438">
        <ele>108</ele>
        <time>2014-05-25T11:21:41Z</time>
      </trkpt>
      <trkpt lat="48.74902" lon="2.54378">
        <ele>108</ele>
        <time>2014-05-25T11:21:42Z</time>
      </trkpt>
      <trkpt lat="48.74902" lon="2.54376">
        <ele>108</ele>
        <time>2014-05-25T11:21:43Z</time>
      </trkpt>
      <trkpt lat="48.74903" lon="2.54374">
        <ele>108</ele>
        <time>2014-05-25T11:21:44Z</time>
      </trkpt>
      <trkpt lat="48.74903" lon="2.54372">
        <ele>108</ele>
        <time>2014-05-25T11:21:45Z</time>
      </trkpt>
      <trkpt lat="48.74904" lon="2.5437">
        <ele>107</ele>
        <time>2014-05-25T11:21:46Z</time>
      </trkpt>
      <trkpt lat="48.74904" lon="2.54367">
        <ele>108</ele>
        <time>2014-05-25T11:21:47Z</time>
      </trkpt>
      <trkpt lat="48.74905" lon="2.54365">
        <ele>108</ele>
        <time>2014-05-25T11:21:48Z</time>
      </trkpt>
      <trkpt lat="48.74905" lon="2.54363">
        <ele>108</ele>
        <time>2014-05-25T11:21:49Z</time>
      </trkpt>
      <trkpt lat="48.74906" lon="2.54361">
        <ele>108</ele>
        <time>2014-05-25T11:21:50Z</time>
      </trkpt>
      <trkpt lat="48.74906" lon="2.54359">
        <ele>110</ele>
        <time>2014-05-25T11:21:51Z</time>
      </trkpt>
      <trkpt lat="48.74906" lon="2.54357">
        <ele>110</ele>
        <time>2014-05-25T11:21:52Z</time>
      </trkpt>
      <trkpt lat="48.74907" lon="2.54355">
        <ele>111</ele>
        <time>2014-05-25T11:21:53Z</time>
      </trkpt>
      <trkpt lat="48.74907" lon="2.54354">
        <ele>110</ele>
        <time>2014-05-25T11:21:54Z</time>
      </trkpt>
      <trkpt lat="48.74907" lon="2.54352">
        <ele>111</ele>
        <time>2014-05-25T11:21:55Z</time>
      </trkpt>
      <trkpt lat="48.74907" lon="2.54351">
        <ele>112</ele>
        <time>2014-05-25T11:21:56Z</time>
      </trkpt>
      <trkpt lat="48.74908" lon="2.54349">
        <ele>112</ele>
        <time>2014-05-25T11:21:57Z</time>
      </trkpt>
      <trkpt lat="48.74908" lon="2.54348">
        <ele>112</ele>
        <time>2014-05-25T11:21:58Z</time>
      </trkpt>
      <trkpt lat="48.74908" lon="2.54346">
        <ele>113</ele>
        <time>2014-05-25T11:21:59Z</time>
      </trkpt>
      <trkpt lat="48.74909" lon="2.54345">
        <ele>112</ele>
        <time>2014-05-25T11:22:00Z</time>
      </trkpt>
      <trkpt lat="48.74909" lon="2.54342">
        <ele>111</ele>
        <time>2014-05-25T11:22:01Z</time>
      </trkpt>
      <trkpt lat="48.74909" lon="2.5434">
        <ele>111</ele>
        <time>2014-05-25T11:22:02Z</time>
      </trkpt>
      <trkpt lat="48.7491" lon="2.54338">
        <ele>110</ele>
        <time>2014-05-25T11:22:03Z</time>
      </trkpt>
      <trkpt lat="48.74911" lon="2.54336">
        <ele>111</ele>
        <time>2014-05-25T11:22:04Z</time>
      </trkpt>
      <trkpt lat="48.74912" lon="2.54334">
        <ele>110</ele>
        <time>2014-05-25T11:22:05Z</time>
      </trkpt>
      <trkpt lat="48.74913" lon="2.54332">
        <ele>110</ele>
        <time>2014-05-25T11:22:06Z</time>
      </trkpt>
      <trkpt lat="48.74913" lon="2.54329">
        <ele>109</ele>
        <time>2014-05-25T11:22:07Z</time>
      </trkpt>
      <trkpt lat="48.74914" lon="2.54327">
        <ele>109</ele>
        <time>2014-05-25T11:22:08Z</time>
      </trkpt>
      <trkpt lat="48.74915" lon="2.54324">
        <ele>109</ele>
        <time>2014-05-25T11:22:09Z</time>
      </trkpt>
      <trkpt lat="48.74915" lon="2.54322">
        <ele>110</ele>
        <time>2014-05-25T11:22:10Z</time>
      </trkpt>
      <trkpt lat="48.74916" lon="2.5432">
        <ele>110</ele>
        <time>2014-05-25T11:22:11Z</time>
      </trkpt>
      <trkpt lat="48.74917" lon="2.54317">
        <ele>110</ele>
        <time>2014-05-25T11:22:12Z</time>
      </trkpt>
      <trkpt lat="48.74917" lon="2.54315">
        <ele>110</ele>
        <time>2014-05-25T11:22:13Z</time>
      </trkpt>
      <trkpt lat="48.74918" lon="2.54313">
        <ele>109</ele>
        <time>2014-05-25T11:22:14Z</time>
      </trkpt>
      <trkpt lat="48.74918" lon="2.5431">
        <ele>108</ele>
        <time>2014-05-25T11:22:15Z</time>
      </trkpt>
      <trkpt lat="48.74919" lon="2.54308">
        <ele>109</ele>
        <time>2014-05-25T11:22:16Z</time>
      </trkpt>
      <trkpt lat="48.7492" lon="2.54305">
        <ele>109</ele>
        <time>2014-05-25T11:22:17Z</time>
      </trkpt>
      <trkpt lat="48.7492" lon="2.54303">
        <ele>110</ele>
        <time>2014-05-25T11:22:18Z</time>
      </trkpt>
      <trkpt lat="48.7492" lon="2.54301">
        <ele>110</ele>
        <time>2014-05-25T11:22:19Z</time>
      </trkpt>
      <trkpt lat="48.74921" lon="2.54298">
        <ele>110</ele>
        <time>2014-05-25T11:22:20Z</time>
      </trkpt>
      <trkpt lat="48.74921" lon="2.54296">
        <ele>111</ele>
        <time>2014-05-25T11:22:21Z</time>
      </trkpt>
      <trkpt lat="48.74921" lon="2.54294">
        <ele>112</ele>
        <time>2014-05-25T11:22:22Z</time>
      </trkpt>
      <trkpt lat="48.74922" lon="2.54292">
        <ele>112</ele>
        <time>2014-05-25T11:22:23Z</time>
      </trkpt>
      <trkpt lat="48.74923" lon="2.5429">
        <ele>113</ele>
        <time>2014-05-25T11:22:24Z</time>
      </trkpt>
      <trkpt lat="48.74923" lon="2.54288">
        <ele>113</ele>
        <time>2014-05-25T11:22:25Z</time>
      </trkpt>
      <trkpt lat="48.74924" lon="2.54286">
        <ele>113</ele>
        <time>2014-05-25T11:22:26Z</time>
      </trkpt>
      <trkpt lat="48.74924" lon="2.54285">
        <ele>113</ele>
        <time>2014-05-25T11:22:27Z</time>
      </trkpt>
      <trkpt lat="48.74924" lon="2.54283">
        <ele>112</ele>
        <time>2014-05-25T11:22:28Z</time>
      </trkpt>
      <trkpt lat="48.74924" lon="2.54281">
        <ele>112</ele>
        <time>2014-05-25T11:22:29Z</time>
      </trkpt>
      <trkpt lat="48.74924" lon="2.5428">
        <ele>112</ele>
        <time>2014-05-25T11:22:30Z</time>
      </trkpt>
      <trkpt lat="48.74925" lon="2.54278">
        <ele>113</ele>
        <time>2014-05-25T11:22:31Z</time>
      </trkpt>
      <trkpt lat="48.74925" lon="2.54276">
        <ele>113</ele>
        <time>2014-05-25T11:22:32Z</time>
      </trkpt>
      <trkpt lat="48.74926" lon="2.54275">
        <ele>113</ele>
        <time>2014-05-25T11:22:33Z</time>
      </trkpt>
      <trkpt lat="48.74926" lon="2.54273">
        <ele>113</ele>
        <time>2014-05-25T11:22:34Z</time>
      </trkpt>
      <trkpt lat="48.74927" lon="2.54271">
        <ele>112</ele>
        <time>2014-05-25T11:22:35Z</time>
      </trkpt>
      <trkpt lat="48.74927" lon="2.54269">
        <ele>112</ele>
        <time>2014-05-25T11:22:36Z</time>
      </trkpt>
      <trkpt lat="48.74928" lon="2.54267">
        <ele>112</ele>
        <time>2014-05-25T11:22:37Z</time>
      </trkpt>
      <trkpt lat="48.74928" lon="2.54265">
        <ele>111</ele>
        <time>2014-05-25T11:22:38Z</time>
      </trkpt>
      <trkpt lat="48.74929" lon="2.54262">
        <ele>112</ele>
        <time>2014-05-25T11:22:39Z</time>
      </trkpt>
      <trkpt lat="48.74929" lon="2.5426">
        <ele>112</ele>
        <time>2014-05-25T11:22:40Z</time>
      </trkpt>
      <trkpt lat="48.74929" lon="2.54259">
        <ele>113</ele>
        <time>2014-05-25T11:22:41Z</time>
      </trkpt>
      <trkpt lat="48.7493" lon="2.54257">
        <ele>114</ele>
        <time>2014-05-25T11:22:42Z</time>
      </trkpt>
      <trkpt lat="48.7493" lon="2.54255">
        <ele>116</ele>
        <time>2014-05-25T11:22:43Z</time>
      </trkpt>
      <trkpt lat="48.7493" lon="2.54254">
        <ele>116</ele>
        <time>2014-05-25T11:22:44Z</time>
      </trkpt>
      <trkpt lat="48.7493" lon="2.54252">
        <ele>116</ele>
        <time>2014-05-25T11:22:45Z</time>
      </trkpt>
      <trkpt lat="48.74931" lon="2.5425">
        <ele>117</ele>
        <time>2014-05-25T11:22:46Z</time>
      </trkpt>
      <trkpt lat="48.74931" lon="2.54249">
        <ele>117</ele>
        <time>2014-05-25T11:22:47Z</time>
      </trkpt>
      <trkpt lat="48.74932" lon="2.54247">
        <ele>116</ele>
        <time>2014-05-25T11:22:48Z</time>
      </trkpt>
      <trkpt lat="48.74932" lon="2.54245">
        <ele>115</ele>
        <time>2014-05-25T11:22:49Z</time>
      </trkpt>
      <trkpt lat="48.74933" lon="2.54242">
        <ele>115</ele>
        <time>2014-05-25T11:22:50Z</time>
      </trkpt>
      <trkpt lat="48.74933" lon="2.5424">
        <ele>115</ele>
        <time>2014-05-25T11:22:51Z</time>
      </trkpt>
      <trkpt lat="48.74933" lon="2.54238">
        <ele>114</ele>
        <time>2014-05-25T11:22:52Z</time>
      </trkpt>
      <trkpt lat="48.74934" lon="2.54236">
        <ele>113</ele>
        <time>2014-05-25T11:22:53Z</time>
      </trkpt>
      <trkpt lat="48.74934" lon="2.54233">
        <ele>113</ele>
        <time>2014-05-25T11:22:54Z</time>
      </trkpt>
      <trkpt lat="48.74935" lon="2.54231">
        <ele>112</ele>
        <time>2014-05-25T11:22:55Z</time>
      </trkpt>
      <trkpt lat="48.74936" lon="2.54229">
        <ele>111</ele>
        <time>2014-05-25T11:22:56Z</time>
      </trkpt>
      <trkpt lat="48.74936" lon="2.54226">
        <ele>109</ele>
        <time>2014-05-25T11:22:57Z</time>
      </trkpt>
      <trkpt lat="48.74937" lon="2.54224">
        <ele>109</ele>
        <time>2014-05-25T11:22:58Z</time>
      </trkpt>
      <trkpt lat="48.74938" lon="2.54221">
        <ele>106</ele>
        <time>2014-05-25T11:22:59Z</time>
      </trkpt>
      <trkpt lat="48.74939" lon="2.54218">
        <ele>107</ele>
        <time>2014-05-25T11:23:00Z</time>
      </trkpt>
      <trkpt lat="48.7494" lon="2.54215">
        <ele>107</ele>
        <time>2014-05-25T11:23:01Z</time>
      </trkpt>
      <trkpt lat="48.7494" lon="2.54212">
        <ele>107</ele>
        <time>2014-05-25T11:23:02Z</time>
      </trkpt>
      <trkpt lat="48.74941" lon="2.5421">
        <ele>107</ele>
        <time>2014-05-25T11:23:03Z</time>
      </trkpt>
      <trkpt lat="48.74941" lon="2.54207">
        <ele>106</ele>
        <time>2014-05-25T11:23:04Z</time>
      </trkpt>
      <trkpt lat="48.74942" lon="2.54204">
        <ele>105</ele>
        <time>2014-05-25T11:23:05Z</time>
      </trkpt>
      <trkpt lat="48.74942" lon="2.54201">
        <ele>105</ele>
        <time>2014-05-25T11:23:06Z</time>
      </trkpt>
      <trkpt lat="48.74943" lon="2.54198">
        <ele>103</ele>
        <time>2014-05-25T11:23:07Z</time>
      </trkpt>
      <trkpt lat="48.74943" lon="2.54196">
        <ele>103</ele>
        <time>2014-05-25T11:23:08Z</time>
      </trkpt>
      <trkpt lat="48.74944" lon="2.54193">
        <ele>103</ele>
        <time>2014-05-25T11:23:09Z</time>
      </trkpt>
      <trkpt lat="48.74944" lon="2.54191">
        <ele>102</ele>
        <time>2014-05-25T11:23:10Z</time>
      </trkpt>
      <trkpt lat="48.74945" lon="2.54188">
        <ele>100</ele>
        <time>2014-05-25T11:23:11Z</time>
      </trkpt>
      <trkpt lat="48.74946" lon="2.54186">
        <ele>100</ele>
        <time>2014-05-25T11:23:12Z</time>
      </trkpt>
      <trkpt lat="48.74946" lon="2.54183">
        <ele>99</ele>
        <time>2014-05-25T11:23:13Z</time>
      </trkpt>
      <trkpt lat="48.74947" lon="2.54181">
        <ele>99</ele>
        <time>2014-05-25T11:23:14Z</time>
      </trkpt>
      <trkpt lat="48.74948" lon="2.54178">
        <ele>99</ele>
        <time>2014-05-25T11:23:15Z</time>
      </trkpt>
      <trkpt lat="48.74948" lon="2.54176">
        <ele>99</ele>
        <time>2014-05-25T11:23:16Z</time>
      </trkpt>
      <trkpt lat="48.74948" lon="2.54173">
        <ele>98</ele>
        <time>2014-05-25T11:23:17Z</time>
      </trkpt>
      <trkpt lat="48.74949" lon="2.54171">
        <ele>98</ele>
        <time>2014-05-25T11:23:18Z</time>
      </trkpt>
      <trkpt lat="48.74949" lon="2.54169">
        <ele>99</ele>
        <time>2014-05-25T11:23:19Z</time>
      </trkpt>
      <trkpt lat="48.7495" lon="2.54166">
        <ele>99</ele>
        <time>2014-05-25T11:23:20Z</time>
      </trkpt>
      <trkpt lat="48.7495" lon="2.54164">
        <ele>98</ele>
        <time>2014-05-25T11:23:21Z</time>
      </trkpt>
      <trkpt lat="48.74951" lon="2.54162">
        <ele>98</ele>
        <time>2014-05-25T11:23:22Z</time>
      </trkpt>
      <trkpt lat="48.74951" lon="2.54159">
        <ele>97</ele>
        <time>2014-05-25T11:23:23Z</time>
      </trkpt>
      <trkpt lat="48.74952" lon="2.54157">
        <ele>97</ele>
        <time>2014-05-25T11:23:24Z</time>
      </trkpt>
      <trkpt lat="48.74952" lon="2.54155">
        <ele>97</ele>
        <time>2014-05-25T11:23:25Z</time>
      </trkpt>
      <trkpt lat="48.74952" lon="2.54153">
        <ele>97</ele>
        <time>2014-05-25T11:23:26Z</time>
      </trkpt>
      <trkpt lat="48.74953" lon="2.54151">
        <ele>97</ele>
        <time>2014-05-25T11:23:27Z</time>
      </trkpt>
      <trkpt lat="48.74953" lon="2.54149">
        <ele>97</ele>
        <time>2014-05-25T11:23:28Z</time>
      </trkpt>
      <trkpt lat="48.74954" lon="2.54146">
        <ele>97</ele>
        <time>2014-05-25T11:23:29Z</time>
      </trkpt>
      <trkpt lat="48.74954" lon="2.54144">
        <ele>96</ele>
        <time>2014-05-25T11:23:30Z</time>
      </trkpt>
      <trkpt lat="48.74955" lon="2.54142">
        <ele>96</ele>
        <time>2014-05-25T11:23:31Z</time>
      </trkpt>
      <trkpt lat="48.74955" lon="2.54139">
        <ele>95</ele>
        <time>2014-05-25T11:23:32Z</time>
      </trkpt>
      <trkpt lat="48.74956" lon="2.54137">
        <ele>96</ele>
        <time>2014-05-25T11:23:33Z</time>
      </trkpt>
      <trkpt lat="48.74956" lon="2.54135">
        <ele>96</ele>
        <time>2014-05-25T11:23:34Z</time>
      </trkpt>
      <trkpt lat="48.74956" lon="2.54133">
        <ele>97</ele>
        <time>2014-05-25T11:23:35Z</time>
      </trkpt>
      <trkpt lat="48.74957" lon="2.54131">
        <ele>97</ele>
        <time>2014-05-25T11:23:36Z</time>
      </trkpt>
      <trkpt lat="48.74957" lon="2.54128">
        <ele>97</ele>
        <time>2014-05-25T11:23:37Z</time>
      </trkpt>
      <trkpt lat="48.74957" lon="2.54126">
        <ele>97</ele>
        <time>2014-05-25T11:23:38Z</time>
      </trkpt>
      <trkpt lat="48.74958" lon="2.54124">
        <ele>97</ele>
        <time>2014-05-25T11:23:39Z</time>
      </trkpt>
      <trkpt lat="48.74958" lon="2.54122">
        <ele>97</ele>
        <time>2014-05-25T11:23:40Z</time>
      </trkpt>
      <trkpt lat="48.74958" lon="2.5412">
        <ele>97</ele>
        <time>2014-05-25T11:23:41Z</time>
      </trkpt>
      <trkpt lat="48.74959" lon="2.54118">
        <ele>97</ele>
        <time>2014-05-25T11:23:42Z</time>
      </trkpt>
      <trkpt lat="48.74959" lon="2.54115">
        <ele>98</ele>
        <time>2014-05-25T11:23:43Z</time>
      </trkpt>
      <trkpt lat="48.7496" lon="2.54113">
        <ele>98</ele>
        <time>2014-05-25T11:23:44Z</time>
      </trkpt>
      <trkpt lat="48.7496" lon="2.54111">
        <ele>98</ele>
        <time>2014-05-25T11:23:45Z</time>
      </trkpt>
      <trkpt lat="48.74961" lon="2.54109">
        <ele>98</ele>
        <time>2014-05-25T11:23:46Z</time>
      </trkpt>
      <trkpt lat="48.74962" lon="2.54107">
        <ele>98</ele>
        <time>2014-05-25T11:23:47Z</time>
      </trkpt>
      <trkpt lat="48.74962" lon="2.54105">
        <ele>99</ele>
        <time>2014-05-25T11:23:48Z</time>
      </trkpt>
      <trkpt lat="48.74962" lon="2.54103">
        <ele>99</ele>
        <time>2014-05-25T11:23:49Z</time>
      </trkpt>
      <trkpt lat="48.74963" lon="2.54101">
        <ele>99</ele>
        <time>2014-05-25T11:23:50Z</time>
      </trkpt>
      <trkpt lat="48.74963" lon="2.54099">
        <ele>99</ele>
        <time>2014-05-25T11:23:51Z</time>
      </trkpt>
      <trkpt lat="48.74964" lon="2.54097">
        <ele>99</ele>
        <time>2014-05-25T11:23:52Z</time>
      </trkpt>
      <trkpt lat="48.74964" lon="2.54095">
        <ele>100</ele>
        <time>2014-05-25T11:23:53Z</time>
      </trkpt>
      <trkpt lat="48.74965" lon="2.54093">
        <ele>100</ele>
        <time>2014-05-25T11:23:54Z</time>
      </trkpt>
      <trkpt lat="48.74965" lon="2.54091">
        <ele>100</ele>
        <time>2014-05-25T11:23:55Z</time>
      </trkpt>
      <trkpt lat="48.74965" lon="2.54089">
        <ele>100</ele>
        <time>2014-05-25T11:23:56Z</time>
      </trkpt>
      <trkpt lat="48.74966" lon="2.54087">
        <ele>99</ele>
        <time>2014-05-25T11:23:57Z</time>
      </trkpt>
      <trkpt lat="48.74966" lon="2.54085">
        <ele>99</ele>
        <time>2014-05-25T11:23:58Z</time>
      </trkpt>
      <trkpt lat="48.74967" lon="2.54083">
        <ele>99</ele>
        <time>2014-05-25T11:23:59Z</time>
      </trkpt>
      <trkpt lat="48.74967" lon="2.54081">
        <ele>100</ele>
        <time>2014-05-25T11:24:00Z</time>
      </trkpt>
      <trkpt lat="48.74967" lon="2.54079">
        <ele>100</ele>
        <time>2014-05-25T11:24:01Z</time>
      </trkpt>
      <trkpt lat="48.74967" lon="2.54077">
        <ele>100</ele>
        <time>2014-05-25T11:24:02Z</time>
      </trkpt>
      <trkpt lat="48.74967" lon="2.54075">
        <ele>101</ele>
        <time>2014-05-25T11:24:03Z</time>
      </trkpt>
      <trkpt lat="48.74967" lon="2.54073">
        <ele>101</ele>
        <time>2014-05-25T11:24:04Z</time>
      </trkpt>
      <trkpt lat="48.74967" lon="2.54071">
        <ele>101</ele>
        <time>2014-05-25T11:24:05Z</time>
      </trkpt>
      <trkpt lat="48.74966" lon="2.54069">
        <ele>101</ele>
        <time>2014-05-25T11:24:06Z</time>
      </trkpt>
      <trkpt lat="48.74966" lon="2.54067">
        <ele>100</ele>
        <time>2014-05-25T11:24:07Z</time>
      </trkpt>
      <trkpt lat="48.74967" lon="2.54065">
        <ele>99</ele>
        <time>2014-05-25T11:24:08Z</time>
      </trkpt>
      <trkpt lat="48.74967" lon="2.54063">
        <ele>98</ele>
        <time>2014-05-25T11:24:09Z</time>
      </trkpt>
      <trkpt lat="48.74967" lon="2.54061">
        <ele>98</ele>
        <time>2014-05-25T11:24:10Z</time>
      </trkpt>
      <trkpt lat="48.74968" lon="2.54059">
        <ele>98</ele>
        <time>2014-05-25T11:24:11Z</time>
      </trkpt>
      <trkpt lat="48.74968" lon="2.54057">
        <ele>98</ele>
        <time>2014-05-25T11:24:12Z</time>
      </trkpt>
      <trkpt lat="48.74969" lon="2.54055">
        <ele>97</ele>
        <time>2014-05-25T11:24:13Z</time>
      </trkpt>
      <trkpt lat="48.74969" lon="2.54052">
        <ele>96</ele>
        <time>2014-05-25T11:24:14Z</time>
      </trkpt>
      <trkpt lat="48.7497" lon="2.5405">
        <ele>96</ele>
        <time>2014-05-25T11:24:15Z</time>
      </trkpt>
      <trkpt lat="48.7497" lon="2.54048">
        <ele>96</ele>
        <time>2014-05-25T11:24:16Z</time>
      </trkpt>
      <trkpt lat="48.74971" lon="2.54046">
        <ele>97</ele>
        <time>2014-05-25T11:24:17Z</time>
      </trkpt>
      <trkpt lat="48.74971" lon="2.54044">
        <ele>97</ele>
        <time>2014-05-25T11:24:18Z</time>
      </trkpt>
      <trkpt lat="48.74972" lon="2.54042">
        <ele>97</ele>
        <time>2014-05-25T11:24:19Z</time>
      </trkpt>
      <trkpt lat="48.74972" lon="2.5404">
        <ele>97</ele>
        <time>2014-05-25T11:24:20Z</time>
      </trkpt>
      <trkpt lat="48.74973" lon="2.54038">
        <ele>98</ele>
        <time>2014-05-25T11:24:21Z</time>
      </trkpt>
      <trkpt lat="48.74973" lon="2.54036">
        <ele>98</ele>
        <time>2014-05-25T11:24:22Z</time>
      </trkpt>
      <trkpt lat="48.74973" lon="2.54034">
        <ele>99</ele>
        <time>2014-05-25T11:24:23Z</time>
      </trkpt>
      <trkpt lat="48.74973" lon="2.54032">
        <ele>99</ele>
        <time>2014-05-25T11:24:24Z</time>
      </trkpt>
      <trkpt lat="48.74973" lon="2.5403">
        <ele>99</ele>
        <time>2014-05-25T11:24:25Z</time>
      </trkpt>
      <trkpt lat="48.74973" lon="2.54028">
        <ele>100</ele>
        <time>2014-05-25T11:24:26Z</time>
      </trkpt>
      <trkpt lat="48.74972" lon="2.54026">
        <ele>101</ele>
        <time>2014-05-25T11:24:27Z</time>
      </trkpt>
      <trkpt lat="48.74972" lon="2.54024">
        <ele>101</ele>
        <time>2014-05-25T11:24:28Z</time>
      </trkpt>
      <trkpt lat="48.74971" lon="2.54023">
        <ele>101</ele>
        <time>2014-05-25T11:24:29Z</time>
      </trkpt>
      <trkpt lat="48.7497" lon="2.54022">
        <ele>101</ele>
        <time>2014-05-25T11:24:30Z</time>
      </trkpt>
      <trkpt lat="48.74969" lon="2.54021">
        <ele>102</ele>
        <time>2014-05-25T11:24:31Z</time>
      </trkpt>
      <trkpt lat="48.74968" lon="2.5402">
        <ele>102</ele>
        <time>2014-05-25T11:24:32Z</time>
      </trkpt>
      <trkpt lat="48.74967" lon="2.54019">
        <ele>102</ele>
        <time>2014-05-25T11:24:33Z</time>
      </trkpt>
      <trkpt lat="48.74967" lon="2.54017">
        <ele>103</ele>
        <time>2014-05-25T11:24:34Z</time>
      </trkpt>
      <trkpt lat="48.74966" lon="2.54016">
        <ele>104</ele>
        <time>2014-05-25T11:24:35Z</time>
      </trkpt>
      <trkpt lat="48.74965" lon="2.54014">
        <ele>104</ele>
        <time>2014-05-25T11:24:36Z</time>
      </trkpt>
      <trkpt lat="48.74965" lon="2.54013">
        <ele>105</ele>
        <time>2014-05-25T11:24:37Z</time>
      </trkpt>
      <trkpt lat="48.74964" lon="2.54011">
        <ele>104</ele>
        <time>2014-05-25T11:24:38Z</time>
      </trkpt>
      <trkpt lat="48.74964" lon="2.5401">
        <ele>104</ele>
        <time>2014-05-25T11:24:39Z</time>
      </trkpt>
      <trkpt lat="48.74963" lon="2.54009">
        <ele>104</ele>
        <time>2014-05-25T11:24:40Z</time>
      </trkpt>
      <trkpt lat="48.74962" lon="2.54008">
        <ele>103</ele>
        <time>2014-05-25T11:24:41Z</time>
      </trkpt>
      <trkpt lat="48.74961" lon="2.54007">
        <ele>104</ele>
        <time>2014-05-25T11:24:42Z</time>
      </trkpt>
      <trkpt lat="48.7496" lon="2.54007">
        <ele>104</ele>
        <time>2014-05-25T11:24:43Z</time>
      </trkpt>
      <trkpt lat="48.74959" lon="2.54007">
        <ele>104</ele>
        <time>2014-05-25T11:24:44Z</time>
      </trkpt>
      <trkpt lat="48.74958" lon="2.54006">
        <ele>104</ele>
        <time>2014-05-25T11:24:45Z</time>
      </trkpt>
      <trkpt lat="48.74957" lon="2.54005">
        <ele>104</ele>
        <time>2014-05-25T11:24:46Z</time>
      </trkpt>
      <trkpt lat="48.74956" lon="2.54005">
        <ele>104</ele>
        <time>2014-05-25T11:24:47Z</time>
      </trkpt>
      <trkpt lat="48.74955" lon="2.54004">
        <ele>104</ele>
        <time>2014-05-25T11:24:48Z</time>
      </trkpt>
      <trkpt lat="48.74954" lon="2.54002">
        <ele>103</ele>
        <time>2014-05-25T11:24:49Z</time>
      </trkpt>
      <trkpt lat="48.74953" lon="2.54001">
        <ele>101</ele>
        <time>2014-05-25T11:24:50Z</time>
      </trkpt>
      <trkpt lat="48.74952" lon="2.54">
        <ele>101</ele>
        <time>2014-05-25T11:24:51Z</time>
      </trkpt>
      <trkpt lat="48.74951" lon="2.53999">
        <ele>101</ele>
        <time>2014-05-25T11:24:52Z</time>
      </trkpt>
      <trkpt lat="48.74951" lon="2.53998">
        <ele>101</ele>
        <time>2014-05-25T11:24:53Z</time>
      </trkpt>
      <trkpt lat="48.74951" lon="2.53996">
        <ele>100</ele>
        <time>2014-05-25T11:24:54Z</time>
      </trkpt>
      <trkpt lat="48.74952" lon="2.53995">
        <ele>100</ele>
        <time>2014-05-25T11:24:55Z</time>
      </trkpt>
      <trkpt lat="48.74952" lon="2.53994">
        <ele>100</ele>
        <time>2014-05-25T11:24:56Z</time>
      </trkpt>
      <trkpt lat="48.74952" lon="2.53992">
        <ele>99</ele>
        <time>2014-05-25T11:24:57Z</time>
      </trkpt>
      <trkpt lat="48.74952" lon="2.5399">
        <ele>98</ele>
        <time>2014-05-25T11:24:58Z</time>
      </trkpt>
      <trkpt lat="48.74952" lon="2.53988">
        <ele>99</ele>
        <time>2014-05-25T11:24:59Z</time>
      </trkpt>
      <trkpt lat="48.74953" lon="2.53986">
        <ele>99</ele>
        <time>2014-05-25T11:25:00Z</time>
      </trkpt>
      <trkpt lat="48.74953" lon="2.53984">
        <ele>98</ele>
        <time>2014-05-25T11:25:01Z</time>
      </trkpt>
      <trkpt lat="48.74953" lon="2.53982">
        <ele>98</ele>
        <time>2014-05-25T11:25:02Z</time>
      </trkpt>
      <trkpt lat="48.74954" lon="2.5398">
        <ele>98</ele>
        <time>2014-05-25T11:25:03Z</time>
      </trkpt>
      <trkpt lat="48.74954" lon="2.53978">
        <ele>98</ele>
        <time>2014-05-25T11:25:04Z</time>
      </trkpt>
      <trkpt lat="48.74955" lon="2.53976">
        <ele>98</ele>
        <time>2014-05-25T11:25:05Z</time>
      </trkpt>
      <trkpt lat="48.74955" lon="2.53974">
        <ele>98</ele>
        <time>2014-05-25T11:25:06Z</time>
      </trkpt>
      <trkpt lat="48.74956" lon="2.53972">
        <ele>98</ele>
        <time>2014-05-25T11:25:07Z</time>
      </trkpt>
      <trkpt lat="48.74956" lon="2.53969">
        <ele>98</ele>
        <time>2014-05-25T11:25:08Z</time>
      </trkpt>
      <trkpt lat="48.74957" lon="2.53967">
        <ele>98</ele>
        <time>2014-05-25T11:25:09Z</time>
      </trkpt>
      <trkpt lat="48.74957" lon="2.53965">
        <ele>97</ele>
        <time>2014-05-25T11:25:10Z</time>
      </trkpt>
      <trkpt lat="48.74958" lon="2.53963">
        <ele>96</ele>
        <time>2014-05-25T11:25:11Z</time>
      </trkpt>
      <trkpt lat="48.74958" lon="2.53961">
        <ele>96</ele>
        <time>2014-05-25T11:25:12Z</time>
      </trkpt>
      <trkpt lat="48.74959" lon="2.53959">
        <ele>95</ele>
        <time>2014-05-25T11:25:13Z</time>
      </trkpt>
      <trkpt lat="48.74959" lon="2.53957">
        <ele>95</ele>
        <time>2014-05-25T11:25:14Z</time>
      </trkpt>
      <trkpt lat="48.74959" lon="2.53955">
        <ele>94</ele>
        <time>2014-05-25T11:25:15Z</time>
      </trkpt>
      <trkpt lat="48.7496" lon="2.53953">
        <ele>94</ele>
        <time>2014-05-25T11:25:16Z</time>
      </trkpt>
      <trkpt lat="48.7496" lon="2.53951">
        <ele>94</ele>
        <time>2014-05-25T11:25:17Z</time>
      </trkpt>
      <trkpt lat="48.7496" lon="2.53949">
        <ele>93</ele>
        <time>2014-05-25T11:25:18Z</time>
      </trkpt>
      <trkpt lat="48.74961" lon="2.53947">
        <ele>94</ele>
        <time>2014-05-25T11:25:19Z</time>
      </trkpt>
      <trkpt lat="48.74961" lon="2.53945">
        <ele>94</ele>
        <time>2014-05-25T11:25:20Z</time>
      </trkpt>
      <trkpt lat="48.74961" lon="2.53943">
        <ele>94</ele>
        <time>2014-05-25T11:25:21Z</time>
      </trkpt>
      <trkpt lat="48.74961" lon="2.53941">
        <ele>94</ele>
        <time>2014-05-25T11:25:22Z</time>
      </trkpt>
      <trkpt lat="48.74961" lon="2.53939">
        <ele>94</ele>
        <time>2014-05-25T11:25:23Z</time>
      </trkpt>
      <trkpt lat="48.74962" lon="2.53937">
        <ele>94</ele>
        <time>2014-05-25T11:25:24Z</time>
      </trkpt>
      <trkpt lat="48.74962" lon="2.53935">
        <ele>96</ele>
        <time>2014-05-25T11:25:25Z</time>
      </trkpt>
      <trkpt lat="48.74962" lon="2.53933">
        <ele>95</ele>
        <time>2014-05-25T11:25:26Z</time>
      </trkpt>
      <trkpt lat="48.74963" lon="2.53931">
        <ele>95</ele>
        <time>2014-05-25T11:25:27Z</time>
      </trkpt>
      <trkpt lat="48.74963" lon="2.53929">
        <ele>94</ele>
        <time>2014-05-25T11:25:28Z</time>
      </trkpt>
      <trkpt lat="48.74964" lon="2.53927">
        <ele>94</ele>
        <time>2014-05-25T11:25:29Z</time>
      </trkpt>
      <trkpt lat="48.74964" lon="2.53925">
        <ele>95</ele>
        <time>2014-05-25T11:25:30Z</time>
      </trkpt>
      <trkpt lat="48.74964" lon="2.53923">
        <ele>94</ele>
        <time>2014-05-25T11:25:31Z</time>
      </trkpt>
      <trkpt lat="48.74965" lon="2.53921">
        <ele>94</ele>
        <time>2014-05-25T11:25:32Z</time>
      </trkpt>
      <trkpt lat="48.74965" lon="2.53919">
        <ele>93</ele>
        <time>2014-05-25T11:25:33Z</time>
      </trkpt>
      <trkpt lat="48.74966" lon="2.53917">
        <ele>93</ele>
        <time>2014-05-25T11:25:34Z</time>
      </trkpt>
      <trkpt lat="48.74966" lon="2.53915">
        <ele>94</ele>
        <time>2014-05-25T11:25:35Z</time>
      </trkpt>
      <trkpt lat="48.74967" lon="2.53913">
        <ele>93</ele>
        <time>2014-05-25T11:25:36Z</time>
      </trkpt>
      <trkpt lat="48.74967" lon="2.53911">
        <ele>94</ele>
        <time>2014-05-25T11:25:37Z</time>
      </trkpt>
      <trkpt lat="48.74967" lon="2.53908">
        <ele>95</ele>
        <time>2014-05-25T11:25:38Z</time>
      </trkpt>
      <trkpt lat="48.74967" lon="2.53906">
        <ele>95</ele>
        <time>2014-05-25T11:25:39Z</time>
      </trkpt>
      <trkpt lat="48.74968" lon="2.53904">
        <ele>95</ele>
        <time>2014-05-25T11:25:40Z</time>
      </trkpt>
      <trkpt lat="48.74968" lon="2.53902">
        <ele>95</ele>
        <time>2014-05-25T11:25:41Z</time>
      </trkpt>
      <trkpt lat="48.74968" lon="2.539">
        <ele>96</ele>
        <time>2014-05-25T11:25:42Z</time>
      </trkpt>
      <trkpt lat="48.74969" lon="2.53898">
        <ele>96</ele>
        <time>2014-05-25T11:25:43Z</time>
      </trkpt>
      <trkpt lat="48.74969" lon="2.53896">
        <ele>97</ele>
        <time>2014-05-25T11:25:44Z</time>
      </trkpt>
      <trkpt lat="48.74969" lon="2.53894">
        <ele>97</ele>
        <time>2014-05-25T11:25:45Z</time>
      </trkpt>
      <trkpt lat="48.7497" lon="2.53892">
        <ele>97</ele>
        <time>2014-05-25T11:25:46Z</time>
      </trkpt>
      <trkpt lat="48.7497" lon="2.53889">
        <ele>96</ele>
        <time>2014-05-25T11:25:47Z</time>
      </trkpt>
      <trkpt lat="48.7497" lon="2.53887">
        <ele>96</ele>
        <time>2014-05-25T11:25:48Z</time>
      </trkpt>
      <trkpt lat="48.74971" lon="2.53885">
        <ele>97</ele>
        <time>2014-05-25T11:25:49Z</time>
      </trkpt>
      <trkpt lat="48.74971" lon="2.53883">
        <ele>97</ele>
        <time>2014-05-25T11:25:50Z</time>
      </trkpt>
      <trkpt lat="48.74971" lon="2.53881">
        <ele>96</ele>
        <time>2014-05-25T11:25:51Z</time>
      </trkpt>
      <trkpt lat="48.74972" lon="2.53878">
        <ele>95</ele>
        <time>2014-05-25T11:25:52Z</time>
      </trkpt>
      <trkpt lat="48.74972" lon="2.53876">
        <ele>95</ele>
        <time>2014-05-25T11:25:53Z</time>
      </trkpt>
      <trkpt lat="48.74972" lon="2.53874">
        <ele>95</ele>
        <time>2014-05-25T11:25:54Z</time>
      </trkpt>
      <trkpt lat="48.74973" lon="2.53872">
        <ele>95</ele>
        <time>2014-05-25T11:25:55Z</time>
      </trkpt>
      <trkpt lat="48.74973" lon="2.5387">
        <ele>95</ele>
        <time>2014-05-25T11:25:56Z</time>
      </trkpt>
      <trkpt lat="48.74974" lon="2.53867">
        <ele>95</ele>
        <time>2014-05-25T11:25:57Z</time>
      </trkpt>
      <trkpt lat="48.74974" lon="2.53865">
        <ele>96</ele>
        <time>2014-05-25T11:25:58Z</time>
      </trkpt>
      <trkpt lat="48.74974" lon="2.53863">
        <ele>95</ele>
        <time>2014-05-25T11:25:59Z</time>
      </trkpt>
      <trkpt lat="48.74975" lon="2.53861">
        <ele>95</ele>
        <time>2014-05-25T11:26:00Z</time>
      </trkpt>
      <trkpt lat="48.74975" lon="2.53859">
        <ele>96</ele>
        <time>2014-05-25T11:26:01Z</time>
      </trkpt>
      <trkpt lat="48.74975" lon="2.53857">
        <ele>95</ele>
        <time>2014-05-25T11:26:02Z</time>
      </trkpt>
      <trkpt lat="48.74976" lon="2.53855">
        <ele>96</ele>
        <time>2014-05-25T11:26:03Z</time>
      </trkpt>
      <trkpt lat="48.74976" lon="2.53853">
        <ele>96</ele>
        <time>2014-05-25T11:26:04Z</time>
      </trkpt>
      <trkpt lat="48.74977" lon="2.53851">
        <ele>96</ele>
        <time>2014-05-25T11:26:05Z</time>
      </trkpt>
      <trkpt lat="48.74977" lon="2.53849">
        <ele>96</ele>
        <time>2014-05-25T11:26:06Z</time>
      </trkpt>
      <trkpt lat="48.74977" lon="2.53847">
        <ele>96</ele>
        <time>2014-05-25T11:26:07Z</time>
      </trkpt>
      <trkpt lat="48.74978" lon="2.53845">
        <ele>96</ele>
        <time>2014-05-25T11:26:08Z</time>
      </trkpt>
      <trkpt lat="48.74978" lon="2.53843">
        <ele>96</ele>
        <time>2014-05-25T11:26:09Z</time>
      </trkpt>
      <trkpt lat="48.74978" lon="2.53841">
        <ele>96</ele>
        <time>2014-05-25T11:26:10Z</time>
      </trkpt>
      <trkpt lat="48.74979" lon="2.53839">
        <ele>95</ele>
        <time>2014-05-25T11:26:11Z</time>
      </trkpt>
      <trkpt lat="48.74979" lon="2.53837">
        <ele>95</ele>
        <time>2014-05-25T11:26:12Z</time>
      </trkpt>
      <trkpt lat="48.7498" lon="2.53835">
        <ele>95</ele>
        <time>2014-05-25T11:26:13Z</time>
      </trkpt>
      <trkpt lat="48.7498" lon="2.53833">
        <ele>95</ele>
        <time>2014-05-25T11:26:14Z</time>
      </trkpt>
      <trkpt lat="48.74981" lon="2.53832">
        <ele>95</ele>
        <time>2014-05-25T11:26:15Z</time>
      </trkpt>
      <trkpt lat="48.74981" lon="2.5383">
        <ele>95</ele>
        <time>2014-05-25T11:26:16Z</time>
      </trkpt>
      <trkpt lat="48.74982" lon="2.53828">
        <ele>95</ele>
        <time>2014-05-25T11:26:17Z</time>
      </trkpt>
      <trkpt lat="48.74982" lon="2.53826">
        <ele>95</ele>
        <time>2014-05-25T11:26:18Z</time>
      </trkpt>
      <trkpt lat="48.74983" lon="2.53824">
        <ele>95</ele>
        <time>2014-05-25T11:26:19Z</time>
      </trkpt>
      <trkpt lat="48.74984" lon="2.53823">
        <ele>95</ele>
        <time>2014-05-25T11:26:20Z</time>
      </trkpt>
      <trkpt lat="48.74984" lon="2.53821">
        <ele>95</ele>
        <time>2014-05-25T11:26:21Z</time>
      </trkpt>
      <trkpt lat="48.74985" lon="2.53819">
        <ele>95</ele>
        <time>2014-05-25T11:26:22Z</time>
      </trkpt>
      <trkpt lat="48.74985" lon="2.53817">
        <ele>95</ele>
        <time>2014-05-25T11:26:23Z</time>
      </trkpt>
      <trkpt lat="48.74985" lon="2.53815">
        <ele>95</ele>
        <time>2014-05-25T11:26:24Z</time>
      </trkpt>
      <trkpt lat="48.74986" lon="2.53813">
        <ele>95</ele>
        <time>2014-05-25T11:26:25Z</time>
      </trkpt>
      <trkpt lat="48.74986" lon="2.53811">
        <ele>95</ele>
        <time>2014-05-25T11:26:26Z</time>
      </trkpt>
      <trkpt lat="48.74986" lon="2.5381">
        <ele>95</ele>
        <time>2014-05-25T11:26:27Z</time>
      </trkpt>
      <trkpt lat="48.74987" lon="2.53808">
        <ele>95</ele>
        <time>2014-05-25T11:26:28Z</time>
      </trkpt>
      <trkpt lat="48.74987" lon="2.53806">
        <ele>95</ele>
        <time>2014-05-25T11:26:29Z</time>
      </trkpt>
      <trkpt lat="48.74987" lon="2.53804">
        <ele>95</ele>
        <time>2014-05-25T11:26:30Z</time>
      </trkpt>
      <trkpt lat="48.74988" lon="2.53802">
        <ele>95</ele>
        <time>2014-05-25T11:26:31Z</time>
      </trkpt>
      <trkpt lat="48.74988" lon="2.53801">
        <ele>95</ele>
        <time>2014-05-25T11:26:32Z</time>
      </trkpt>
      <trkpt lat="48.74989" lon="2.53799">
        <ele>95</ele>
        <time>2014-05-25T11:26:33Z</time>
      </trkpt>
      <trkpt lat="48.74989" lon="2.53797">
        <ele>95</ele>
        <time>2014-05-25T11:26:34Z</time>
      </trkpt>
      <trkpt lat="48.74989" lon="2.53795">
        <ele>96</ele>
        <time>2014-05-25T11:26:35Z</time>
      </trkpt>
      <trkpt lat="48.7499" lon="2.53793">
        <ele>95</ele>
        <time>2014-05-25T11:26:36Z</time>
      </trkpt>
      <trkpt lat="48.74991" lon="2.53791">
        <ele>95</ele>
        <time>2014-05-25T11:26:37Z</time>
      </trkpt>
      <trkpt lat="48.74991" lon="2.53789">
        <ele>95</ele>
        <time>2014-05-25T11:26:38Z</time>
      </trkpt>
      <trkpt lat="48.74991" lon="2.53787">
        <ele>95</ele>
        <time>2014-05-25T11:26:39Z</time>
      </trkpt>
      <trkpt lat="48.74992" lon="2.53786">
        <ele>95</ele>
        <time>2014-05-25T11:26:40Z</time>
      </trkpt>
      <trkpt lat="48.74992" lon="2.53784">
        <ele>95</ele>
        <time>2014-05-25T11:26:41Z</time>
      </trkpt>
      <trkpt lat="48.74993" lon="2.53782">
        <ele>95</ele>
        <time>2014-05-25T11:26:42Z</time>
      </trkpt>
      <trkpt lat="48.74993" lon="2.5378">
        <ele>94</ele>
        <time>2014-05-25T11:26:43Z</time>
      </trkpt>
      <trkpt lat="48.74994" lon="2.53778">
        <ele>94</ele>
        <time>2014-05-25T11:26:44Z</time>
      </trkpt>
      <trkpt lat="48.74994" lon="2.53776">
        <ele>94</ele>
        <time>2014-05-25T11:26:45Z</time>
      </trkpt>
      <trkpt lat="48.74995" lon="2.53774">
        <ele>94</ele>
        <time>2014-05-25T11:26:46Z</time>
      </trkpt>
      <trkpt lat="48.74995" lon="2.53772">
        <ele>94</ele>
        <time>2014-05-25T11:26:47Z</time>
      </trkpt>
      <trkpt lat="48.74996" lon="2.5377">
        <ele>95</ele>
        <time>2014-05-25T11:26:48Z</time>
      </trkpt>
      <trkpt lat="48.74996" lon="2.53768">
        <ele>95</ele>
        <time>2014-05-25T11:26:49Z</time>
      </trkpt>
      <trkpt lat="48.74996" lon="2.53766">
        <ele>94</ele>
        <time>2014-05-25T11:26:50Z</time>
      </trkpt>
      <trkpt lat="48.74996" lon="2.53764">
        <ele>95</ele>
        <time>2014-05-25T11:26:51Z</time>
      </trkpt>
      <trkpt lat="48.74997" lon="2.53762">
        <ele>95</ele>
        <time>2014-05-25T11:26:52Z</time>
      </trkpt>
      <trkpt lat="48.74997" lon="2.5376">
        <ele>94</ele>
        <time>2014-05-25T11:26:53Z</time>
      </trkpt>
      <trkpt lat="48.74998" lon="2.53758">
        <ele>95</ele>
        <time>2014-05-25T11:26:54Z</time>
      </trkpt>
      <trkpt lat="48.74998" lon="2.53758">
        <ele>95</ele>
        <time>2014-05-25T11:26:55Z</time>
      </trkpt>
      <trkpt lat="48.74998" lon="2.53758">
        <ele>95</ele>
        <time>2014-05-25T11:26:56Z</time>
      </trkpt>
      <trkpt lat="48.74998" lon="2.53757">
        <ele>95</ele>
        <time>2014-05-25T11:26:57Z</time>
      </trkpt>
      <trkpt lat="48.74998" lon="2.53756">
        <ele>95</ele>
        <time>2014-05-25T11:26:58Z</time>
      </trkpt>
      <trkpt lat="48.74998" lon="2.53754">
        <ele>96</ele>
        <time>2014-05-25T11:26:59Z</time>
      </trkpt>
      <trkpt lat="48.74997" lon="2.53751">
        <ele>97</ele>
        <time>2014-05-25T11:27:00Z</time>
      </trkpt>
      <trkpt lat="48.74997" lon="2.53749">
        <ele>97</ele>
        <time>2014-05-25T11:27:01Z</time>
      </trkpt>
      <trkpt lat="48.74997" lon="2.53747">
        <ele>97</ele>
        <time>2014-05-25T11:27:02Z</time>
      </trkpt>
      <trkpt lat="48.74996" lon="2.53745">
        <ele>97</ele>
        <time>2014-05-25T11:27:03Z</time>
      </trkpt>
      <trkpt lat="48.74996" lon="2.53744">
        <ele>98</ele>
        <time>2014-05-25T11:27:04Z</time>
      </trkpt>
      <trkpt lat="48.74995" lon="2.53742">
        <ele>98</ele>
        <time>2014-05-25T11:27:05Z</time>
      </trkpt>
      <trkpt lat="48.74994" lon="2.5374">
        <ele>98</ele>
        <time>2014-05-25T11:27:06Z</time>
      </trkpt>
      <trkpt lat="48.74994" lon="2.53738">
        <ele>98</ele>
        <time>2014-05-25T11:27:07Z</time>
      </trkpt>
      <trkpt lat="48.74994" lon="2.53736">
        <ele>99</ele>
        <time>2014-05-25T11:27:08Z</time>
      </trkpt>
      <trkpt lat="48.74994" lon="2.53734">
        <ele>98</ele>
        <time>2014-05-25T11:27:09Z</time>
      </trkpt>
      <trkpt lat="48.74994" lon="2.53732">
        <ele>98</ele>
        <time>2014-05-25T11:27:10Z</time>
      </trkpt>
      <trkpt lat="48.74995" lon="2.53731">
        <ele>98</ele>
        <time>2014-05-25T11:27:11Z</time>
      </trkpt>
      <trkpt lat="48.74995" lon="2.53729">
        <ele>98</ele>
        <time>2014-05-25T11:27:12Z</time>
      </trkpt>
      <trkpt lat="48.74996" lon="2.53727">
        <ele>98</ele>
        <time>2014-05-25T11:27:13Z</time>
      </trkpt>
      <trkpt lat="48.74997" lon="2.53725">
        <ele>98</ele>
        <time>2014-05-25T11:27:14Z</time>
      </trkpt>
      <trkpt lat="48.74997" lon="2.53723">
        <ele>97</ele>
        <time>2014-05-25T11:27:15Z</time>
      </trkpt>
      <trkpt lat="48.74997" lon="2.53722">
        <ele>98</ele>
        <time>2014-05-25T11:27:16Z</time>
      </trkpt>
      <trkpt lat="48.74997" lon="2.5372">
        <ele>98</ele>
        <time>2014-05-25T11:27:17Z</time>
      </trkpt>
      <trkpt lat="48.74997" lon="2.53718">
        <ele>98</ele>
        <time>2014-05-25T11:27:18Z</time>
      </trkpt>
      <trkpt lat="48.74998" lon="2.53716">
        <ele>98</ele>
        <time>2014-05-25T11:27:19Z</time>
      </trkpt>
      <trkpt lat="48.74998" lon="2.53714">
        <ele>98</ele>
        <time>2014-05-25T11:27:20Z</time>
      </trkpt>
      <trkpt lat="48.74998" lon="2.53712">
        <ele>97</ele>
        <time>2014-05-25T11:27:21Z</time>
      </trkpt>
      <trkpt lat="48.74999" lon="2.5371">
        <ele>97</ele>
        <time>2014-05-25T11:27:22Z</time>
      </trkpt>
      <trkpt lat="48.74999" lon="2.53708">
        <ele>97</ele>
        <time>2014-05-25T11:27:23Z</time>
      </trkpt>
      <trkpt lat="48.74999" lon="2.53706">
        <ele>98</ele>
        <time>2014-05-25T11:27:24Z</time>
      </trkpt>
      <trkpt lat="48.75" lon="2.53704">
        <ele>97</ele>
        <time>2014-05-25T11:27:25Z</time>
      </trkpt>
      <trkpt lat="48.75" lon="2.53702">
        <ele>98</ele>
        <time>2014-05-25T11:27:26Z</time>
      </trkpt>
      <trkpt lat="48.75001" lon="2.537">
        <ele>97</ele>
        <time>2014-05-25T11:27:27Z</time>
      </trkpt>
      <trkpt lat="48.75001" lon="2.53698">
        <ele>97</ele>
        <time>2014-05-25T11:27:28Z</time>
      </trkpt>
      <trkpt lat="48.75001" lon="2.53696">
        <ele>97</ele>
        <time>2014-05-25T11:27:29Z</time>
      </trkpt>
      <trkpt lat="48.75002" lon="2.53694">
        <ele>97</ele>
        <time>2014-05-25T11:27:30Z</time>
      </trkpt>
      <trkpt lat="48.75002" lon="2.53692">
        <ele>97</ele>
        <time>2014-05-25T11:27:31Z</time>
      </trkpt>
      <trkpt lat="48.75003" lon="2.5369">
        <ele>97</ele>
        <time>2014-05-25T11:27:32Z</time>
      </trkpt>
      <trkpt lat="48.75003" lon="2.53688">
        <ele>97</ele>
        <time>2014-05-25T11:27:33Z</time>
      </trkpt>
      <trkpt lat="48.75004" lon="2.53686">
        <ele>98</ele>
        <time>2014-05-25T11:27:34Z</time>
      </trkpt>
      <trkpt lat="48.75004" lon="2.53684">
        <ele>98</ele>
        <time>2014-05-25T11:27:35Z</time>
      </trkpt>
      <trkpt lat="48.75005" lon="2.53682">
        <ele>97</ele>
        <time>2014-05-25T11:27:36Z</time>
      </trkpt>
      <trkpt lat="48.75006" lon="2.53679">
        <ele>97</ele>
        <time>2014-05-25T11:27:37Z</time>
      </trkpt>
      <trkpt lat="48.75006" lon="2.53677">
        <ele>98</ele>
        <time>2014-05-25T11:27:38Z</time>
      </trkpt>
      <trkpt lat="48.75006" lon="2.53675">
        <ele>98</ele>
        <time>2014-05-25T11:27:39Z</time>
      </trkpt>
      <trkpt lat="48.75007" lon="2.53673">
        <ele>97</ele>
        <time>2014-05-25T11:27:40Z</time>
      </trkpt>
      <trkpt lat="48.75007" lon="2.53671">
        <ele>97</ele>
        <time>2014-05-25T11:27:41Z</time>
      </trkpt>
      <trkpt lat="48.75007" lon="2.53669">
        <ele>98</ele>
        <time>2014-05-25T11:27:42Z</time>
      </trkpt>
      <trkpt lat="48.75008" lon="2.53667">
        <ele>98</ele>
        <time>2014-05-25T11:27:43Z</time>
      </trkpt>
      <trkpt lat="48.75008" lon="2.53665">
        <ele>97</ele>
        <time>2014-05-25T11:27:44Z</time>
      </trkpt>
      <trkpt lat="48.75008" lon="2.53663">
        <ele>97</ele>
        <time>2014-05-25T11:27:45Z</time>
      </trkpt>
      <trkpt lat="48.75008" lon="2.53661">
        <ele>97</ele>
        <time>2014-05-25T11:27:46Z</time>
      </trkpt>
      <trkpt lat="48.75009" lon="2.53659">
        <ele>96</ele>
        <time>2014-05-25T11:27:47Z</time>
      </trkpt>
      <trkpt lat="48.75009" lon="2.53657">
        <ele>97</ele>
        <time>2014-05-25T11:27:48Z</time>
      </trkpt>
      <trkpt lat="48.7501" lon="2.53655">
        <ele>97</ele>
        <time>2014-05-25T11:27:49Z</time>
      </trkpt>
      <trkpt lat="48.7501" lon="2.53653">
        <ele>97</ele>
        <time>2014-05-25T11:27:50Z</time>
      </trkpt>
      <trkpt lat="48.75011" lon="2.53651">
        <ele>97</ele>
        <time>2014-05-25T11:27:51Z</time>
      </trkpt>
      <trkpt lat="48.75011" lon="2.53649">
        <ele>96</ele>
        <time>2014-05-25T11:27:52Z</time>
      </trkpt>
      <trkpt lat="48.75012" lon="2.53646">
        <ele>97</ele>
        <time>2014-05-25T11:27:53Z</time>
      </trkpt>
      <trkpt lat="48.75012" lon="2.53644">
        <ele>97</ele>
        <time>2014-05-25T11:27:54Z</time>
      </trkpt>
      <trkpt lat="48.75012" lon="2.53642">
        <ele>97</ele>
        <time>2014-05-25T11:27:55Z</time>
      </trkpt>
      <trkpt lat="48.75013" lon="2.5364">
        <ele>97</ele>
        <time>2014-05-25T11:27:56Z</time>
      </trkpt>
      <trkpt lat="48.75013" lon="2.53638">
        <ele>97</ele>
        <time>2014-05-25T11:27:57Z</time>
      </trkpt>
      <trkpt lat="48.75014" lon="2.53636">
        <ele>97</ele>
        <time>2014-05-25T11:27:58Z</time>
      </trkpt>
      <trkpt lat="48.75015" lon="2.53634">
        <ele>97</ele>
        <time>2014-05-25T11:27:59Z</time>
      </trkpt>
      <trkpt lat="48.75015" lon="2.53632">
        <ele>96</ele>
        <time>2014-05-25T11:28:00Z</time>
      </trkpt>
      <trkpt lat="48.75016" lon="2.5363">
        <ele>96</ele>
        <time>2014-05-25T11:28:01Z</time>
      </trkpt>
      <trkpt lat="48.75017" lon="2.53628">
        <ele>96</ele>
        <time>2014-05-25T11:28:02Z</time>
      </trkpt>
      <trkpt lat="48.75017" lon="2.53626">
        <ele>96</ele>
        <time>2014-05-25T11:28:03Z</time>
      </trkpt>
      <trkpt lat="48.75018" lon="2.53624">
        <ele>96</ele>
        <time>2014-05-25T11:28:04Z</time>
      </trkpt>
      <trkpt lat="48.75018" lon="2.53622">
        <ele>96</ele>
        <time>2014-05-25T11:28:05Z</time>
      </trkpt>
      <trkpt lat="48.75019" lon="2.5362">
        <ele>96</ele>
        <time>2014-05-25T11:28:06Z</time>
      </trkpt>
      <trkpt lat="48.75019" lon="2.53618">
        <ele>96</ele>
        <time>2014-05-25T11:28:07Z</time>
      </trkpt>
      <trkpt lat="48.7502" lon="2.53616">
        <ele>96</ele>
        <time>2014-05-25T11:28:08Z</time>
      </trkpt>
      <trkpt lat="48.7502" lon="2.53614">
        <ele>95</ele>
        <time>2014-05-25T11:28:09Z</time>
      </trkpt>
      <trkpt lat="48.75021" lon="2.53612">
        <ele>96</ele>
        <time>2014-05-25T11:28:10Z</time>
      </trkpt>
      <trkpt lat="48.75021" lon="2.5361">
        <ele>95</ele>
        <time>2014-05-25T11:28:11Z</time>
      </trkpt>
      <trkpt lat="48.75022" lon="2.53608">
        <ele>95</ele>
        <time>2014-05-25T11:28:12Z</time>
      </trkpt>
      <trkpt lat="48.75023" lon="2.53605">
        <ele>95</ele>
        <time>2014-05-25T11:28:13Z</time>
      </trkpt>
      <trkpt lat="48.75023" lon="2.53603">
        <ele>96</ele>
        <time>2014-05-25T11:28:14Z</time>
      </trkpt>
      <trkpt lat="48.75024" lon="2.53601">
        <ele>96</ele>
        <time>2014-05-25T11:28:15Z</time>
      </trkpt>
      <trkpt lat="48.75024" lon="2.53599">
        <ele>96</ele>
        <time>2014-05-25T11:28:16Z</time>
      </trkpt>
      <trkpt lat="48.75025" lon="2.53597">
        <ele>96</ele>
        <time>2014-05-25T11:28:17Z</time>
      </trkpt>
      <trkpt lat="48.75025" lon="2.53595">
        <ele>96</ele>
        <time>2014-05-25T11:28:18Z</time>
      </trkpt>
      <trkpt lat="48.75025" lon="2.53592">
        <ele>96</ele>
        <time>2014-05-25T11:28:19Z</time>
      </trkpt>
      <trkpt lat="48.75026" lon="2.5359">
        <ele>96</ele>
        <time>2014-05-25T11:28:20Z</time>
      </trkpt>
      <trkpt lat="48.75026" lon="2.53588">
        <ele>96</ele>
        <time>2014-05-25T11:28:21Z</time>
      </trkpt>
      <trkpt lat="48.75026" lon="2.53586">
        <ele>95</ele>
        <time>2014-05-25T11:28:22Z</time>
      </trkpt>
      <trkpt lat="48.75027" lon="2.53583">
        <ele>95</ele>
        <time>2014-05-25T11:28:23Z</time>
      </trkpt>
      <trkpt lat="48.75027" lon="2.53581">
        <ele>95</ele>
        <time>2014-05-25T11:28:24Z</time>
      </trkpt>
      <trkpt lat="48.75027" lon="2.53579">
        <ele>95</ele>
        <time>2014-05-25T11:28:25Z</time>
      </trkpt>
      <trkpt lat="48.75027" lon="2.53577">
        <ele>95</ele>
        <time>2014-05-25T11:28:26Z</time>
      </trkpt>
      <trkpt lat="48.75027" lon="2.53575">
        <ele>94</ele>
        <time>2014-05-25T11:28:27Z</time>
      </trkpt>
      <trkpt lat="48.75028" lon="2.53573">
        <ele>95</ele>
        <time>2014-05-25T11:28:28Z</time>
      </trkpt>
      <trkpt lat="48.75028" lon="2.5357">
        <ele>94</ele>
        <time>2014-05-25T11:28:29Z</time>
      </trkpt>
      <trkpt lat="48.75029" lon="2.53568">
        <ele>94</ele>
        <time>2014-05-25T11:28:30Z</time>
      </trkpt>
      <trkpt lat="48.75029" lon="2.53566">
        <ele>94</ele>
        <time>2014-05-25T11:28:31Z</time>
      </trkpt>
      <trkpt lat="48.7503" lon="2.53564">
        <ele>94</ele>
        <time>2014-05-25T11:28:32Z</time>
      </trkpt>
      <trkpt lat="48.7503" lon="2.53562">
        <ele>94</ele>
        <time>2014-05-25T11:28:33Z</time>
      </trkpt>
      <trkpt lat="48.7503" lon="2.53559">
        <ele>93</ele>
        <time>2014-05-25T11:28:34Z</time>
      </trkpt>
      <trkpt lat="48.75031" lon="2.53557">
        <ele>93</ele>
        <time>2014-05-25T11:28:35Z</time>
      </trkpt>
      <trkpt lat="48.75031" lon="2.53555">
        <ele>93</ele>
        <time>2014-05-25T11:28:36Z</time>
      </trkpt>
      <trkpt lat="48.75031" lon="2.53552">
        <ele>93</ele>
        <time>2014-05-25T11:28:37Z</time>
      </trkpt>
      <trkpt lat="48.75032" lon="2.5355">
        <ele>94</ele>
        <time>2014-05-25T11:28:38Z</time>
      </trkpt>
      <trkpt lat="48.75032" lon="2.53548">
        <ele>94</ele>
        <time>2014-05-25T11:28:39Z</time>
      </trkpt>
      <trkpt lat="48.75033" lon="2.53546">
        <ele>94</ele>
        <time>2014-05-25T11:28:40Z</time>
      </trkpt>
      <trkpt lat="48.75033" lon="2.53544">
        <ele>94</ele>
        <time>2014-05-25T11:28:41Z</time>
      </trkpt>
      <trkpt lat="48.75034" lon="2.53541">
        <ele>94</ele>
        <time>2014-05-25T11:28:42Z</time>
      </trkpt>
      <trkpt lat="48.75035" lon="2.53539">
        <ele>94</ele>
        <time>2014-05-25T11:28:43Z</time>
      </trkpt>
      <trkpt lat="48.75035" lon="2.53537">
        <ele>95</ele>
        <time>2014-05-25T11:28:44Z</time>
      </trkpt>
      <trkpt lat="48.75035" lon="2.53535">
        <ele>95</ele>
        <time>2014-05-25T11:28:45Z</time>
      </trkpt>
      <trkpt lat="48.75036" lon="2.53533">
        <ele>94</ele>
        <time>2014-05-25T11:28:46Z</time>
      </trkpt>
      <trkpt lat="48.75037" lon="2.5353">
        <ele>94</ele>
        <time>2014-05-25T11:28:47Z</time>
      </trkpt>
      <trkpt lat="48.75037" lon="2.53528">
        <ele>94</ele>
        <time>2014-05-25T11:28:48Z</time>
      </trkpt>
      <trkpt lat="48.75037" lon="2.53526">
        <ele>95</ele>
        <time>2014-05-25T11:28:49Z</time>
      </trkpt>
      <trkpt lat="48.75037" lon="2.53524">
        <ele>95</ele>
        <time>2014-05-25T11:28:50Z</time>
      </trkpt>
      <trkpt lat="48.75038" lon="2.53521">
        <ele>95</ele>
        <time>2014-05-25T11:28:51Z</time>
      </trkpt>
      <trkpt lat="48.75038" lon="2.53519">
        <ele>95</ele>
        <time>2014-05-25T11:28:52Z</time>
      </trkpt>
      <trkpt lat="48.75038" lon="2.53517">
        <ele>95</ele>
        <time>2014-05-25T11:28:53Z</time>
      </trkpt>
      <trkpt lat="48.75039" lon="2.53515">
        <ele>95</ele>
        <time>2014-05-25T11:28:54Z</time>
      </trkpt>
      <trkpt lat="48.75039" lon="2.53512">
        <ele>96</ele>
        <time>2014-05-25T11:28:55Z</time>
      </trkpt>
      <trkpt lat="48.75039" lon="2.5351">
        <ele>96</ele>
        <time>2014-05-25T11:28:56Z</time>
      </trkpt>
      <trkpt lat="48.7504" lon="2.53508">
        <ele>96</ele>
        <time>2014-05-25T11:28:57Z</time>
      </trkpt>
      <trkpt lat="48.7504" lon="2.53506">
        <ele>96</ele>
        <time>2014-05-25T11:28:58Z</time>
      </trkpt>
      <trkpt lat="48.75041" lon="2.53503">
        <ele>96</ele>
        <time>2014-05-25T11:28:59Z</time>
      </trkpt>
      <trkpt lat="48.75041" lon="2.53501">
        <ele>96</ele>
        <time>2014-05-25T11:29:00Z</time>
      </trkpt>
      <trkpt lat="48.75041" lon="2.53499">
        <ele>96</ele>
        <time>2014-05-25T11:29:01Z</time>
      </trkpt>
      <trkpt lat="48.75042" lon="2.53497">
        <ele>96</ele>
        <time>2014-05-25T11:29:02Z</time>
      </trkpt>
      <trkpt lat="48.75042" lon="2.53495">
        <ele>96</ele>
        <time>2014-05-25T11:29:03Z</time>
      </trkpt>
      <trkpt lat="48.75042" lon="2.53492">
        <ele>96</ele>
        <time>2014-05-25T11:29:04Z</time>
      </trkpt>
      <trkpt lat="48.75043" lon="2.5349">
        <ele>96</ele>
        <time>2014-05-25T11:29:05Z</time>
      </trkpt>
      <trkpt lat="48.75043" lon="2.53488">
        <ele>96</ele>
        <time>2014-05-25T11:29:06Z</time>
      </trkpt>
      <trkpt lat="48.75044" lon="2.53486">
        <ele>95</ele>
        <time>2014-05-25T11:29:07Z</time>
      </trkpt>
      <trkpt lat="48.75044" lon="2.53484">
        <ele>95</ele>
        <time>2014-05-25T11:29:08Z</time>
      </trkpt>
      <trkpt lat="48.75045" lon="2.53482">
        <ele>96</ele>
        <time>2014-05-25T11:29:09Z</time>
      </trkpt>
      <trkpt lat="48.75045" lon="2.5348">
        <ele>96</ele>
        <time>2014-05-25T11:29:10Z</time>
      </trkpt>
      <trkpt lat="48.75046" lon="2.53478">
        <ele>96</ele>
        <time>2014-05-25T11:29:11Z</time>
      </trkpt>
      <trkpt lat="48.75047" lon="2.53475">
        <ele>95</ele>
        <time>2014-05-25T11:29:12Z</time>
      </trkpt>
      <trkpt lat="48.75047" lon="2.53473">
        <ele>96</ele>
        <time>2014-05-25T11:29:13Z</time>
      </trkpt>
      <trkpt lat="48.75048" lon="2.53471">
        <ele>95</ele>
        <time>2014-05-25T11:29:14Z</time>
      </trkpt>
      <trkpt lat="48.75048" lon="2.53469">
        <ele>95</ele>
        <time>2014-05-25T11:29:15Z</time>
      </trkpt>
      <trkpt lat="48.75049" lon="2.53467">
        <ele>95</ele>
        <time>2014-05-25T11:29:16Z</time>
      </trkpt>
      <trkpt lat="48.75049" lon="2.53465">
        <ele>95</ele>
        <time>2014-05-25T11:29:17Z</time>
      </trkpt>
      <trkpt lat="48.75049" lon="2.53463">
        <ele>95</ele>
        <time>2014-05-25T11:29:18Z</time>
      </trkpt>
      <trkpt lat="48.7505" lon="2.53461">
        <ele>95</ele>
        <time>2014-05-25T11:29:19Z</time>
      </trkpt>
      <trkpt lat="48.7505" lon="2.53459">
        <ele>95</ele>
        <time>2014-05-25T11:29:20Z</time>
      </trkpt>
      <trkpt lat="48.75051" lon="2.53456">
        <ele>95</ele>
        <time>2014-05-25T11:29:21Z</time>
      </trkpt>
      <trkpt lat="48.75051" lon="2.53454">
        <ele>95</ele>
        <time>2014-05-25T11:29:22Z</time>
      </trkpt>
      <trkpt lat="48.75052" lon="2.53452">
        <ele>95</ele>
        <time>2014-05-25T11:29:23Z</time>
      </trkpt>
      <trkpt lat="48.75052" lon="2.5345">
        <ele>95</ele>
        <time>2014-05-25T11:29:24Z</time>
      </trkpt>
      <trkpt lat="48.75052" lon="2.53447">
        <ele>95</ele>
        <time>2014-05-25T11:29:25Z</time>
      </trkpt>
      <trkpt lat="48.75053" lon="2.53445">
        <ele>94</ele>
        <time>2014-05-25T11:29:26Z</time>
      </trkpt>
      <trkpt lat="48.75053" lon="2.53443">
        <ele>94</ele>
        <time>2014-05-25T11:29:27Z</time>
      </trkpt>
      <trkpt lat="48.75054" lon="2.53441">
        <ele>94</ele>
        <time>2014-05-25T11:29:28Z</time>
      </trkpt>
      <trkpt lat="48.75055" lon="2.53438">
        <ele>94</ele>
        <time>2014-05-25T11:29:29Z</time>
      </trkpt>
      <trkpt lat="48.75055" lon="2.53436">
        <ele>94</ele>
        <time>2014-05-25T11:29:30Z</time>
      </trkpt>
      <trkpt lat="48.75056" lon="2.53434">
        <ele>94</ele>
        <time>2014-05-25T11:29:31Z</time>
      </trkpt>
      <trkpt lat="48.75056" lon="2.53432">
        <ele>95</ele>
        <time>2014-05-25T11:29:32Z</time>
      </trkpt>
      <trkpt lat="48.75056" lon="2.53429">
        <ele>94</ele>
        <time>2014-05-25T11:29:33Z</time>
      </trkpt>
      <trkpt lat="48.75057" lon="2.53427">
        <ele>95</ele>
        <time>2014-05-25T11:29:34Z</time>
      </trkpt>
      <trkpt lat="48.75057" lon="2.53425">
        <ele>95</ele>
        <time>2014-05-25T11:29:35Z</time>
      </trkpt>
      <trkpt lat="48.75058" lon="2.53423">
        <ele>95</ele>
        <time>2014-05-25T11:29:36Z</time>
      </trkpt>
      <trkpt lat="48.75058" lon="2.5342">
        <ele>95</ele>
        <time>2014-05-25T11:29:37Z</time>
      </trkpt>
      <trkpt lat="48.75058" lon="2.53418">
        <ele>95</ele>
        <time>2014-05-25T11:29:38Z</time>
      </trkpt>
      <trkpt lat="48.75059" lon="2.53416">
        <ele>95</ele>
        <time>2014-05-25T11:29:39Z</time>
      </trkpt>
      <trkpt lat="48.75059" lon="2.53413">
        <ele>95</ele>
        <time>2014-05-25T11:29:40Z</time>
      </trkpt>
      <trkpt lat="48.7506" lon="2.53411">
        <ele>95</ele>
        <time>2014-05-25T11:29:41Z</time>
      </trkpt>
      <trkpt lat="48.7506" lon="2.53409">
        <ele>95</ele>
        <time>2014-05-25T11:29:42Z</time>
      </trkpt>
      <trkpt lat="48.75061" lon="2.53407">
        <ele>95</ele>
        <time>2014-05-25T11:29:43Z</time>
      </trkpt>
      <trkpt lat="48.75061" lon="2.53404">
        <ele>95</ele>
        <time>2014-05-25T11:29:44Z</time>
      </trkpt>
      <trkpt lat="48.75061" lon="2.53402">
        <ele>95</ele>
        <time>2014-05-25T11:29:45Z</time>
      </trkpt>
      <trkpt lat="48.75062" lon="2.534">
        <ele>95</ele>
        <time>2014-05-25T11:29:46Z</time>
      </trkpt>
      <trkpt lat="48.75062" lon="2.53397">
        <ele>96</ele>
        <time>2014-05-25T11:29:47Z</time>
      </trkpt>
      <trkpt lat="48.75063" lon="2.53395">
        <ele>96</ele>
        <time>2014-05-25T11:29:48Z</time>
      </trkpt>
      <trkpt lat="48.75063" lon="2.53393">
        <ele>96</ele>
        <time>2014-05-25T11:29:49Z</time>
      </trkpt>
      <trkpt lat="48.75064" lon="2.53391">
        <ele>96</ele>
        <time>2014-05-25T11:29:50Z</time>
      </trkpt>
      <trkpt lat="48.75064" lon="2.53389">
        <ele>96</ele>
        <time>2014-05-25T11:29:51Z</time>
      </trkpt>
      <trkpt lat="48.75065" lon="2.53387">
        <ele>96</ele>
        <time>2014-05-25T11:29:52Z</time>
      </trkpt>
      <trkpt lat="48.75065" lon="2.53385">
        <ele>96</ele>
        <time>2014-05-25T11:29:53Z</time>
      </trkpt>
      <trkpt lat="48.75066" lon="2.53383">
        <ele>95</ele>
        <time>2014-05-25T11:29:54Z</time>
      </trkpt>
      <trkpt lat="48.75067" lon="2.53381">
        <ele>95</ele>
        <time>2014-05-25T11:29:55Z</time>
      </trkpt>
      <trkpt lat="48.75068" lon="2.53379">
        <ele>96</ele>
        <time>2014-05-25T11:29:56Z</time>
      </trkpt>
      <trkpt lat="48.75068" lon="2.53377">
        <ele>96</ele>
        <time>2014-05-25T11:29:57Z</time>
      </trkpt>
      <trkpt lat="48.75069" lon="2.53375">
        <ele>95</ele>
        <time>2014-05-25T11:29:58Z</time>
      </trkpt>
      <trkpt lat="48.75069" lon="2.53373">
        <ele>95</ele>
        <time>2014-05-25T11:29:59Z</time>
      </trkpt>
      <trkpt lat="48.7507" lon="2.53371">
        <ele>95</ele>
        <time>2014-05-25T11:30:00Z</time>
      </trkpt>
      <trkpt lat="48.75071" lon="2.53369">
        <ele>95</ele>
        <time>2014-05-25T11:30:01Z</time>
      </trkpt>
      <trkpt lat="48.75071" lon="2.53367">
        <ele>95</ele>
        <time>2014-05-25T11:30:02Z</time>
      </trkpt>
      <trkpt lat="48.75072" lon="2.53365">
        <ele>95</ele>
        <time>2014-05-25T11:30:03Z</time>
      </trkpt>
      <trkpt lat="48.75072" lon="2.53363">
        <ele>95</ele>
        <time>2014-05-25T11:30:04Z</time>
      </trkpt>
      <trkpt lat="48.75072" lon="2.53361">
        <ele>97</ele>
        <time>2014-05-25T11:30:05Z</time>
      </trkpt>
      <trkpt lat="48.75073" lon="2.53359">
        <ele>96</ele>
        <time>2014-05-25T11:30:06Z</time>
      </trkpt>
      <trkpt lat="48.75073" lon="2.53357">
        <ele>96</ele>
        <time>2014-05-25T11:30:07Z</time>
      </trkpt>
      <trkpt lat="48.75073" lon="2.53355">
        <ele>97</ele>
        <time>2014-05-25T11:30:08Z</time>
      </trkpt>
      <trkpt lat="48.75073" lon="2.53353">
        <ele>97</ele>
        <time>2014-05-25T11:30:09Z</time>
      </trkpt>
      <trkpt lat="48.75074" lon="2.53351">
        <ele>96</ele>
        <time>2014-05-25T11:30:10Z</time>
      </trkpt>
      <trkpt lat="48.75075" lon="2.53349">
        <ele>96</ele>
        <time>2014-05-25T11:30:11Z</time>
      </trkpt>
      <trkpt lat="48.75075" lon="2.53347">
        <ele>96</ele>
        <time>2014-05-25T11:30:12Z</time>
      </trkpt>
      <trkpt lat="48.75076" lon="2.53345">
        <ele>96</ele>
        <time>2014-05-25T11:30:13Z</time>
      </trkpt>
      <trkpt lat="48.75076" lon="2.53343">
        <ele>96</ele>
        <time>2014-05-25T11:30:14Z</time>
      </trkpt>
      <trkpt lat="48.75076" lon="2.53341">
        <ele>96</ele>
        <time>2014-05-25T11:30:15Z</time>
      </trkpt>
      <trkpt lat="48.75077" lon="2.53339">
        <ele>95</ele>
        <time>2014-05-25T11:30:16Z</time>
      </trkpt>
      <trkpt lat="48.75077" lon="2.53337">
        <ele>95</ele>
        <time>2014-05-25T11:30:17Z</time>
      </trkpt>
      <trkpt lat="48.75078" lon="2.53335">
        <ele>95</ele>
        <time>2014-05-25T11:30:18Z</time>
      </trkpt>
      <trkpt lat="48.75078" lon="2.53333">
        <ele>95</ele>
        <time>2014-05-25T11:30:19Z</time>
      </trkpt>
      <trkpt lat="48.75079" lon="2.53331">
        <ele>95</ele>
        <time>2014-05-25T11:30:20Z</time>
      </trkpt>
      <trkpt lat="48.75079" lon="2.53328">
        <ele>95</ele>
        <time>2014-05-25T11:30:21Z</time>
      </trkpt>
      <trkpt lat="48.75079" lon="2.53326">
        <ele>95</ele>
        <time>2014-05-25T11:30:22Z</time>
      </trkpt>
      <trkpt lat="48.7508" lon="2.53324">
        <ele>95</ele>
        <time>2014-05-25T11:30:23Z</time>
      </trkpt>
      <trkpt lat="48.7508" lon="2.53322">
        <ele>95</ele>
        <time>2014-05-25T11:30:24Z</time>
      </trkpt>
      <trkpt lat="48.75081" lon="2.5332">
        <ele>95</ele>
        <time>2014-05-25T11:30:25Z</time>
      </trkpt>
      <trkpt lat="48.75081" lon="2.53317">
        <ele>95</ele>
        <time>2014-05-25T11:30:26Z</time>
      </trkpt>
      <trkpt lat="48.75082" lon="2.53315">
        <ele>94</ele>
        <time>2014-05-25T11:30:27Z</time>
      </trkpt>
      <trkpt lat="48.75082" lon="2.53313">
        <ele>94</ele>
        <time>2014-05-25T11:30:28Z</time>
      </trkpt>
      <trkpt lat="48.75083" lon="2.53311">
        <ele>94</ele>
        <time>2014-05-25T11:30:29Z</time>
      </trkpt>
      <trkpt lat="48.75083" lon="2.53308">
        <ele>93</ele>
        <time>2014-05-25T11:30:30Z</time>
      </trkpt>
      <trkpt lat="48.75083" lon="2.53306">
        <ele>93</ele>
        <time>2014-05-25T11:30:31Z</time>
      </trkpt>
      <trkpt lat="48.75084" lon="2.53304">
        <ele>93</ele>
        <time>2014-05-25T11:30:32Z</time>
      </trkpt>
      <trkpt lat="48.75084" lon="2.53302">
        <ele>93</ele>
        <time>2014-05-25T11:30:33Z</time>
      </trkpt>
      <trkpt lat="48.75084" lon="2.533">
        <ele>93</ele>
        <time>2014-05-25T11:30:34Z</time>
      </trkpt>
      <trkpt lat="48.75085" lon="2.53297">
        <ele>93</ele>
        <time>2014-05-25T11:30:35Z</time>
      </trkpt>
      <trkpt lat="48.75085" lon="2.53295">
        <ele>93</ele>
        <time>2014-05-25T11:30:36Z</time>
      </trkpt>
      <trkpt lat="48.75086" lon="2.53293">
        <ele>93</ele>
        <time>2014-05-25T11:30:37Z</time>
      </trkpt>
      <trkpt lat="48.75086" lon="2.53291">
        <ele>93</ele>
        <time>2014-05-25T11:30:38Z</time>
      </trkpt>
      <trkpt lat="48.75087" lon="2.53289">
        <ele>93</ele>
        <time>2014-05-25T11:30:39Z</time>
      </trkpt>
      <trkpt lat="48.75088" lon="2.53287">
        <ele>93</ele>
        <time>2014-05-25T11:30:40Z</time>
      </trkpt>
      <trkpt lat="48.75088" lon="2.53285">
        <ele>93</ele>
        <time>2014-05-25T11:30:41Z</time>
      </trkpt>
      <trkpt lat="48.75089" lon="2.53283">
        <ele>94</ele>
        <time>2014-05-25T11:30:42Z</time>
      </trkpt>
      <trkpt lat="48.75089" lon="2.53281">
        <ele>94</ele>
        <time>2014-05-25T11:30:43Z</time>
      </trkpt>
      <trkpt lat="48.75089" lon="2.53279">
        <ele>94</ele>
        <time>2014-05-25T11:30:44Z</time>
      </trkpt>
      <trkpt lat="48.75089" lon="2.53277">
        <ele>95</ele>
        <time>2014-05-25T11:30:45Z</time>
      </trkpt>
      <trkpt lat="48.75088" lon="2.53275">
        <ele>95</ele>
        <time>2014-05-25T11:30:46Z</time>
      </trkpt>
      <trkpt lat="48.75088" lon="2.53272">
        <ele>95</ele>
        <time>2014-05-25T11:30:47Z</time>
      </trkpt>
      <trkpt lat="48.75089" lon="2.5327">
        <ele>95</ele>
        <time>2014-05-25T11:30:48Z</time>
      </trkpt>
      <trkpt lat="48.75089" lon="2.53268">
        <ele>95</ele>
        <time>2014-05-25T11:30:49Z</time>
      </trkpt>
      <trkpt lat="48.75089" lon="2.53267">
        <ele>95</ele>
        <time>2014-05-25T11:30:50Z</time>
      </trkpt>
      <trkpt lat="48.7509" lon="2.53265">
        <ele>95</ele>
        <time>2014-05-25T11:30:51Z</time>
      </trkpt>
      <trkpt lat="48.7509" lon="2.53263">
        <ele>95</ele>
        <time>2014-05-25T11:30:52Z</time>
      </trkpt>
      <trkpt lat="48.7509" lon="2.53261">
        <ele>96</ele>
        <time>2014-05-25T11:30:53Z</time>
      </trkpt>
      <trkpt lat="48.7509" lon="2.53259">
        <ele>96</ele>
        <time>2014-05-25T11:30:54Z</time>
      </trkpt>
      <trkpt lat="48.7509" lon="2.53258">
        <ele>96</ele>
        <time>2014-05-25T11:30:55Z</time>
      </trkpt>
      <trkpt lat="48.75091" lon="2.53256">
        <ele>95</ele>
        <time>2014-05-25T11:30:56Z</time>
      </trkpt>
      <trkpt lat="48.75091" lon="2.53254">
        <ele>95</ele>
        <time>2014-05-25T11:30:57Z</time>
      </trkpt>
      <trkpt lat="48.75092" lon="2.53252">
        <ele>95</ele>
        <time>2014-05-25T11:30:58Z</time>
      </trkpt>
      <trkpt lat="48.75092" lon="2.5325">
        <ele>95</ele>
        <time>2014-05-25T11:30:59Z</time>
      </trkpt>
      <trkpt lat="48.75093" lon="2.53249">
        <ele>95</ele>
        <time>2014-05-25T11:31:00Z</time>
      </trkpt>
      <trkpt lat="48.75093" lon="2.53247">
        <ele>95</ele>
        <time>2014-05-25T11:31:01Z</time>
      </trkpt>
      <trkpt lat="48.75094" lon="2.53245">
        <ele>95</ele>
        <time>2014-05-25T11:31:02Z</time>
      </trkpt>
      <trkpt lat="48.75095" lon="2.53244">
        <ele>95</ele>
        <time>2014-05-25T11:31:03Z</time>
      </trkpt>
      <trkpt lat="48.75096" lon="2.53243">
        <ele>96</ele>
        <time>2014-05-25T11:31:04Z</time>
      </trkpt>
      <trkpt lat="48.75098" lon="2.53241">
        <ele>96</ele>
        <time>2014-05-25T11:31:05Z</time>
      </trkpt>
      <trkpt lat="48.75098" lon="2.5324">
        <ele>95</ele>
        <time>2014-05-25T11:31:06Z</time>
      </trkpt>
      <trkpt lat="48.75099" lon="2.53238">
        <ele>95</ele>
        <time>2014-05-25T11:31:07Z</time>
      </trkpt>
      <trkpt lat="48.75099" lon="2.53236">
        <ele>95</ele>
        <time>2014-05-25T11:31:08Z</time>
      </trkpt>
      <trkpt lat="48.751" lon="2.53233">
        <ele>95</ele>
        <time>2014-05-25T11:31:09Z</time>
      </trkpt>
      <trkpt lat="48.751" lon="2.53231">
        <ele>95</ele>
        <time>2014-05-25T11:31:10Z</time>
      </trkpt>
      <trkpt lat="48.751" lon="2.53229">
        <ele>95</ele>
        <time>2014-05-25T11:31:11Z</time>
      </trkpt>
      <trkpt lat="48.75101" lon="2.53227">
        <ele>95</ele>
        <time>2014-05-25T11:31:12Z</time>
      </trkpt>
      <trkpt lat="48.75101" lon="2.53225">
        <ele>95</ele>
        <time>2014-05-25T11:31:13Z</time>
      </trkpt>
      <trkpt lat="48.75102" lon="2.53222">
        <ele>94</ele>
        <time>2014-05-25T11:31:14Z</time>
      </trkpt>
      <trkpt lat="48.75102" lon="2.5322">
        <ele>94</ele>
        <time>2014-05-25T11:31:15Z</time>
      </trkpt>
      <trkpt lat="48.75103" lon="2.53218">
        <ele>94</ele>
        <time>2014-05-25T11:31:16Z</time>
      </trkpt>
      <trkpt lat="48.75103" lon="2.53216">
        <ele>93</ele>
        <time>2014-05-25T11:31:17Z</time>
      </trkpt>
      <trkpt lat="48.75104" lon="2.53214">
        <ele>93</ele>
        <time>2014-05-25T11:31:18Z</time>
      </trkpt>
      <trkpt lat="48.75104" lon="2.53211">
        <ele>93</ele>
        <time>2014-05-25T11:31:19Z</time>
      </trkpt>
      <trkpt lat="48.75105" lon="2.53209">
        <ele>93</ele>
        <time>2014-05-25T11:31:20Z</time>
      </trkpt>
      <trkpt lat="48.75105" lon="2.53207">
        <ele>93</ele>
        <time>2014-05-25T11:31:21Z</time>
      </trkpt>
      <trkpt lat="48.75106" lon="2.53205">
        <ele>93</ele>
        <time>2014-05-25T11:31:22Z</time>
      </trkpt>
      <trkpt lat="48.75106" lon="2.53203">
        <ele>93</ele>
        <time>2014-05-25T11:31:23Z</time>
      </trkpt>
      <trkpt lat="48.75107" lon="2.532">
        <ele>93</ele>
        <time>2014-05-25T11:31:24Z</time>
      </trkpt>
      <trkpt lat="48.75107" lon="2.53198">
        <ele>94</ele>
        <time>2014-05-25T11:31:25Z</time>
      </trkpt>
      <trkpt lat="48.75108" lon="2.53196">
        <ele>94</ele>
        <time>2014-05-25T11:31:26Z</time>
      </trkpt>
      <trkpt lat="48.75108" lon="2.53194">
        <ele>94</ele>
        <time>2014-05-25T11:31:27Z</time>
      </trkpt>
      <trkpt lat="48.75108" lon="2.53192">
        <ele>94</ele>
        <time>2014-05-25T11:31:28Z</time>
      </trkpt>
      <trkpt lat="48.75109" lon="2.5319">
        <ele>94</ele>
        <time>2014-05-25T11:31:29Z</time>
      </trkpt>
      <trkpt lat="48.75109" lon="2.53188">
        <ele>94</ele>
        <time>2014-05-25T11:31:30Z</time>
      </trkpt>
      <trkpt lat="48.7511" lon="2.53185">
        <ele>94</ele>
        <time>2014-05-25T11:31:31Z</time>
      </trkpt>
      <trkpt lat="48.7511" lon="2.53183">
        <ele>95</ele>
        <time>2014-05-25T11:31:32Z</time>
      </trkpt>
      <trkpt lat="48.7511" lon="2.53181">
        <ele>94</ele>
        <time>2014-05-25T11:31:33Z</time>
      </trkpt>
      <trkpt lat="48.75111" lon="2.53179">
        <ele>94</ele>
        <time>2014-05-25T11:31:34Z</time>
      </trkpt>
      <trkpt lat="48.75111" lon="2.53177">
        <ele>94</ele>
        <time>2014-05-25T11:31:35Z</time>
      </trkpt>
      <trkpt lat="48.75112" lon="2.53175">
        <ele>94</ele>
        <time>2014-05-25T11:31:36Z</time>
      </trkpt>
      <trkpt lat="48.75112" lon="2.53172">
        <ele>94</ele>
        <time>2014-05-25T11:31:37Z</time>
      </trkpt>
      <trkpt lat="48.75112" lon="2.5317">
        <ele>94</ele>
        <time>2014-05-25T11:31:38Z</time>
      </trkpt>
      <trkpt lat="48.75112" lon="2.53168">
        <ele>94</ele>
        <time>2014-05-25T11:31:39Z</time>
      </trkpt>
      <trkpt lat="48.75112" lon="2.53166">
        <ele>94</ele>
        <time>2014-05-25T11:31:40Z</time>
      </trkpt>
      <trkpt lat="48.75112" lon="2.53164">
        <ele>94</ele>
        <time>2014-05-25T11:31:41Z</time>
      </trkpt>
      <trkpt lat="48.75113" lon="2.53162">
        <ele>94</ele>
        <time>2014-05-25T11:31:42Z</time>
      </trkpt>
      <trkpt lat="48.75113" lon="2.5316">
        <ele>94</ele>
        <time>2014-05-25T11:31:43Z</time>
      </trkpt>
      <trkpt lat="48.75114" lon="2.53157">
        <ele>94</ele>
        <time>2014-05-25T11:31:44Z</time>
      </trkpt>
      <trkpt lat="48.75114" lon="2.53155">
        <ele>94</ele>
        <time>2014-05-25T11:31:45Z</time>
      </trkpt>
      <trkpt lat="48.75114" lon="2.53153">
        <ele>94</ele>
        <time>2014-05-25T11:31:46Z</time>
      </trkpt>
      <trkpt lat="48.75115" lon="2.53151">
        <ele>94</ele>
        <time>2014-05-25T11:31:47Z</time>
      </trkpt>
      <trkpt lat="48.75116" lon="2.53149">
        <ele>94</ele>
        <time>2014-05-25T11:31:48Z</time>
      </trkpt>
      <trkpt lat="48.75117" lon="2.53147">
        <ele>94</ele>
        <time>2014-05-25T11:31:49Z</time>
      </trkpt>
      <trkpt lat="48.75117" lon="2.53145">
        <ele>94</ele>
        <time>2014-05-25T11:31:50Z</time>
      </trkpt>
      <trkpt lat="48.75118" lon="2.53143">
        <ele>94</ele>
        <time>2014-05-25T11:31:51Z</time>
      </trkpt>
      <trkpt lat="48.75118" lon="2.53141">
        <ele>94</ele>
        <time>2014-05-25T11:31:52Z</time>
      </trkpt>
      <trkpt lat="48.75119" lon="2.53139">
        <ele>93</ele>
        <time>2014-05-25T11:31:53Z</time>
      </trkpt>
      <trkpt lat="48.75119" lon="2.53137">
        <ele>94</ele>
        <time>2014-05-25T11:31:54Z</time>
      </trkpt>
      <trkpt lat="48.7512" lon="2.53135">
        <ele>94</ele>
        <time>2014-05-25T11:31:55Z</time>
      </trkpt>
      <trkpt lat="48.7512" lon="2.53132">
        <ele>94</ele>
        <time>2014-05-25T11:31:56Z</time>
      </trkpt>
      <trkpt lat="48.75121" lon="2.5313">
        <ele>94</ele>
        <time>2014-05-25T11:31:57Z</time>
      </trkpt>
      <trkpt lat="48.75121" lon="2.53128">
        <ele>94</ele>
        <time>2014-05-25T11:31:58Z</time>
      </trkpt>
      <trkpt lat="48.75122" lon="2.53126">
        <ele>94</ele>
        <time>2014-05-25T11:31:59Z</time>
      </trkpt>
      <trkpt lat="48.75122" lon="2.53124">
        <ele>94</ele>
        <time>2014-05-25T11:32:00Z</time>
      </trkpt>
      <trkpt lat="48.75123" lon="2.53122">
        <ele>94</ele>
        <time>2014-05-25T11:32:01Z</time>
      </trkpt>
      <trkpt lat="48.75123" lon="2.5312">
        <ele>94</ele>
        <time>2014-05-25T11:32:02Z</time>
      </trkpt>
      <trkpt lat="48.75123" lon="2.53118">
        <ele>94</ele>
        <time>2014-05-25T11:32:03Z</time>
      </trkpt>
      <trkpt lat="48.75124" lon="2.53116">
        <ele>94</ele>
        <time>2014-05-25T11:32:04Z</time>
      </trkpt>
      <trkpt lat="48.75124" lon="2.53114">
        <ele>94</ele>
        <time>2014-05-25T11:32:05Z</time>
      </trkpt>
      <trkpt lat="48.75125" lon="2.53112">
        <ele>95</ele>
        <time>2014-05-25T11:32:06Z</time>
      </trkpt>
      <trkpt lat="48.75125" lon="2.5311">
        <ele>95</ele>
        <time>2014-05-25T11:32:07Z</time>
      </trkpt>
      <trkpt lat="48.75125" lon="2.53108">
        <ele>95</ele>
        <time>2014-05-25T11:32:08Z</time>
      </trkpt>
      <trkpt lat="48.75126" lon="2.53106">
        <ele>95</ele>
        <time>2014-05-25T11:32:09Z</time>
      </trkpt>
      <trkpt lat="48.75126" lon="2.53104">
        <ele>96</ele>
        <time>2014-05-25T11:32:10Z</time>
      </trkpt>
      <trkpt lat="48.75126" lon="2.53102">
        <ele>95</ele>
        <time>2014-05-25T11:32:11Z</time>
      </trkpt>
      <trkpt lat="48.75127" lon="2.53099">
        <ele>96</ele>
        <time>2014-05-25T11:32:12Z</time>
      </trkpt>
      <trkpt lat="48.75127" lon="2.53097">
        <ele>95</ele>
        <time>2014-05-25T11:32:13Z</time>
      </trkpt>
      <trkpt lat="48.75127" lon="2.53095">
        <ele>95</ele>
        <time>2014-05-25T11:32:14Z</time>
      </trkpt>
      <trkpt lat="48.75128" lon="2.53093">
        <ele>95</ele>
        <time>2014-05-25T11:32:15Z</time>
      </trkpt>
      <trkpt lat="48.75128" lon="2.53091">
        <ele>95</ele>
        <time>2014-05-25T11:32:16Z</time>
      </trkpt>
      <trkpt lat="48.75129" lon="2.53089">
        <ele>95</ele>
        <time>2014-05-25T11:32:17Z</time>
      </trkpt>
      <trkpt lat="48.75129" lon="2.53087">
        <ele>95</ele>
        <time>2014-05-25T11:32:18Z</time>
      </trkpt>
      <trkpt lat="48.7513" lon="2.53085">
        <ele>95</ele>
        <time>2014-05-25T11:32:19Z</time>
      </trkpt>
      <trkpt lat="48.7513" lon="2.53083">
        <ele>95</ele>
        <time>2014-05-25T11:32:20Z</time>
      </trkpt>
      <trkpt lat="48.7513" lon="2.53081">
        <ele>95</ele>
        <time>2014-05-25T11:32:21Z</time>
      </trkpt>
      <trkpt lat="48.75131" lon="2.53078">
        <ele>96</ele>
        <time>2014-05-25T11:32:22Z</time>
      </trkpt>
      <trkpt lat="48.75131" lon="2.53076">
        <ele>96</ele>
        <time>2014-05-25T11:32:23Z</time>
      </trkpt>
      <trkpt lat="48.75132" lon="2.53074">
        <ele>95</ele>
        <time>2014-05-25T11:32:24Z</time>
      </trkpt>
      <trkpt lat="48.75132" lon="2.53072">
        <ele>95</ele>
        <time>2014-05-25T11:32:25Z</time>
      </trkpt>
      <trkpt lat="48.75133" lon="2.5307">
        <ele>95</ele>
        <time>2014-05-25T11:32:26Z</time>
      </trkpt>
      <trkpt lat="48.75133" lon="2.53068">
        <ele>95</ele>
        <time>2014-05-25T11:32:27Z</time>
      </trkpt>
      <trkpt lat="48.75134" lon="2.53066">
        <ele>95</ele>
        <time>2014-05-25T11:32:28Z</time>
      </trkpt>
      <trkpt lat="48.75134" lon="2.53064">
        <ele>95</ele>
        <time>2014-05-25T11:32:29Z</time>
      </trkpt>
      <trkpt lat="48.75135" lon="2.53062">
        <ele>95</ele>
        <time>2014-05-25T11:32:30Z</time>
      </trkpt>
      <trkpt lat="48.75135" lon="2.53061">
        <ele>95</ele>
        <time>2014-05-25T11:32:31Z</time>
      </trkpt>
      <trkpt lat="48.75136" lon="2.53059">
        <ele>95</ele>
        <time>2014-05-25T11:32:32Z</time>
      </trkpt>
      <trkpt lat="48.75136" lon="2.53057">
        <ele>96</ele>
        <time>2014-05-25T11:32:33Z</time>
      </trkpt>
      <trkpt lat="48.75136" lon="2.53055">
        <ele>96</ele>
        <time>2014-05-25T11:32:34Z</time>
      </trkpt>
      <trkpt lat="48.75137" lon="2.53053">
        <ele>96</ele>
        <time>2014-05-25T11:32:35Z</time>
      </trkpt>
      <trkpt lat="48.75137" lon="2.53051">
        <ele>96</ele>
        <time>2014-05-25T11:32:36Z</time>
      </trkpt>
      <trkpt lat="48.75137" lon="2.53049">
        <ele>95</ele>
        <time>2014-05-25T11:32:37Z</time>
      </trkpt>
      <trkpt lat="48.75138" lon="2.53047">
        <ele>95</ele>
        <time>2014-05-25T11:32:38Z</time>
      </trkpt>
      <trkpt lat="48.75138" lon="2.53045">
        <ele>95</ele>
        <time>2014-05-25T11:32:39Z</time>
      </trkpt>
      <trkpt lat="48.75139" lon="2.53043">
        <ele>95</ele>
        <time>2014-05-25T11:32:40Z</time>
      </trkpt>
      <trkpt lat="48.75139" lon="2.53041">
        <ele>95</ele>
        <time>2014-05-25T11:32:41Z</time>
      </trkpt>
      <trkpt lat="48.75139" lon="2.53039">
        <ele>95</ele>
        <time>2014-05-25T11:32:42Z</time>
      </trkpt>
      <trkpt lat="48.7514" lon="2.53037">
        <ele>95</ele>
        <time>2014-05-25T11:32:43Z</time>
      </trkpt>
      <trkpt lat="48.7514" lon="2.53035">
        <ele>95</ele>
        <time>2014-05-25T11:32:44Z</time>
      </trkpt>
      <trkpt lat="48.75141" lon="2.53033">
        <ele>96</ele>
        <time>2014-05-25T11:32:45Z</time>
      </trkpt>
      <trkpt lat="48.75141" lon="2.53031">
        <ele>96</ele>
        <time>2014-05-25T11:32:46Z</time>
      </trkpt>
      <trkpt lat="48.75142" lon="2.53029">
        <ele>96</ele>
        <time>2014-05-25T11:32:47Z</time>
      </trkpt>
      <trkpt lat="48.75142" lon="2.53028">
        <ele>96</ele>
        <time>2014-05-25T11:32:48Z</time>
      </trkpt>
      <trkpt lat="48.75143" lon="2.53026">
        <ele>96</ele>
        <time>2014-05-25T11:32:49Z</time>
      </trkpt>
      <trkpt lat="48.75143" lon="2.53024">
        <ele>96</ele>
        <time>2014-05-25T11:32:50Z</time>
      </trkpt>
      <trkpt lat="48.75143" lon="2.53022">
        <ele>96</ele>
        <time>2014-05-25T11:32:51Z</time>
      </trkpt>
      <trkpt lat="48.75144" lon="2.5302">
        <ele>96</ele>
        <time>2014-05-25T11:32:52Z</time>
      </trkpt>
      <trkpt lat="48.75144" lon="2.53018">
        <ele>95</ele>
        <time>2014-05-25T11:32:53Z</time>
      </trkpt>
      <trkpt lat="48.75145" lon="2.53016">
        <ele>95</ele>
        <time>2014-05-25T11:32:54Z</time>
      </trkpt>
      <trkpt lat="48.75145" lon="2.53014">
        <ele>95</ele>
        <time>2014-05-25T11:32:55Z</time>
      </trkpt>
      <trkpt lat="48.75146" lon="2.53012">
        <ele>95</ele>
        <time>2014-05-25T11:32:56Z</time>
      </trkpt>
      <trkpt lat="48.75146" lon="2.5301">
        <ele>95</ele>
        <time>2014-05-25T11:32:57Z</time>
      </trkpt>
      <trkpt lat="48.75147" lon="2.53008">
        <ele>95</ele>
        <time>2014-05-25T11:32:58Z</time>
      </trkpt>
      <trkpt lat="48.75147" lon="2.53006">
        <ele>95</ele>
        <time>2014-05-25T11:32:59Z</time>
      </trkpt>
      <trkpt lat="48.75148" lon="2.53004">
        <ele>95</ele>
        <time>2014-05-25T11:33:00Z</time>
      </trkpt>
      <trkpt lat="48.75148" lon="2.53002">
        <ele>95</ele>
        <time>2014-05-25T11:33:01Z</time>
      </trkpt>
      <trkpt lat="48.75149" lon="2.53">
        <ele>95</ele>
        <time>2014-05-25T11:33:02Z</time>
      </trkpt>
      <trkpt lat="48.75149" lon="2.52998">
        <ele>95</ele>
        <time>2014-05-25T11:33:03Z</time>
      </trkpt>
      <trkpt lat="48.7515" lon="2.52996">
        <ele>96</ele>
        <time>2014-05-25T11:33:04Z</time>
      </trkpt>
      <trkpt lat="48.7515" lon="2.52994">
        <ele>96</ele>
        <time>2014-05-25T11:33:05Z</time>
      </trkpt>
      <trkpt lat="48.75151" lon="2.52992">
        <ele>95</ele>
        <time>2014-05-25T11:33:06Z</time>
      </trkpt>
      <trkpt lat="48.75151" lon="2.52989">
        <ele>95</ele>
        <time>2014-05-25T11:33:07Z</time>
      </trkpt>
      <trkpt lat="48.75152" lon="2.52987">
        <ele>95</ele>
        <time>2014-05-25T11:33:08Z</time>
      </trkpt>
      <trkpt lat="48.75153" lon="2.52985">
        <ele>94</ele>
        <time>2014-05-25T11:33:09Z</time>
      </trkpt>
      <trkpt lat="48.75153" lon="2.52983">
        <ele>94</ele>
        <time>2014-05-25T11:33:10Z</time>
      </trkpt>
      <trkpt lat="48.75154" lon="2.52981">
        <ele>93</ele>
        <time>2014-05-25T11:33:11Z</time>
      </trkpt>
      <trkpt lat="48.75154" lon="2.52979">
        <ele>94</ele>
        <time>2014-05-25T11:33:12Z</time>
      </trkpt>
      <trkpt lat="48.75155" lon="2.52977">
        <ele>94</ele>
        <time>2014-05-25T11:33:13Z</time>
      </trkpt>
      <trkpt lat="48.75155" lon="2.52975">
        <ele>94</ele>
        <time>2014-05-25T11:33:14Z</time>
      </trkpt>
      <trkpt lat="48.75156" lon="2.52973">
        <ele>94</ele>
        <time>2014-05-25T11:33:15Z</time>
      </trkpt>
      <trkpt lat="48.75156" lon="2.52971">
        <ele>95</ele>
        <time>2014-05-25T11:33:16Z</time>
      </trkpt>
      <trkpt lat="48.75157" lon="2.52969">
        <ele>95</ele>
        <time>2014-05-25T11:33:17Z</time>
      </trkpt>
      <trkpt lat="48.75157" lon="2.52966">
        <ele>95</ele>
        <time>2014-05-25T11:33:18Z</time>
      </trkpt>
      <trkpt lat="48.75157" lon="2.52964">
        <ele>95</ele>
        <time>2014-05-25T11:33:19Z</time>
      </trkpt>
      <trkpt lat="48.75157" lon="2.52962">
        <ele>95</ele>
        <time>2014-05-25T11:33:20Z</time>
      </trkpt>
      <trkpt lat="48.75158" lon="2.5296">
        <ele>95</ele>
        <time>2014-05-25T11:33:21Z</time>
      </trkpt>
      <trkpt lat="48.75158" lon="2.52958">
        <ele>95</ele>
        <time>2014-05-25T11:33:22Z</time>
      </trkpt>
      <trkpt lat="48.75159" lon="2.52956">
        <ele>95</ele>
        <time>2014-05-25T11:33:23Z</time>
      </trkpt>
      <trkpt lat="48.75159" lon="2.52954">
        <ele>95</ele>
        <time>2014-05-25T11:33:24Z</time>
      </trkpt>
      <trkpt lat="48.75159" lon="2.52952">
        <ele>95</ele>
        <time>2014-05-25T11:33:25Z</time>
      </trkpt>
      <trkpt lat="48.7516" lon="2.5295">
        <ele>95</ele>
        <time>2014-05-25T11:33:26Z</time>
      </trkpt>
      <trkpt lat="48.7516" lon="2.52948">
        <ele>95</ele>
        <time>2014-05-25T11:33:27Z</time>
      </trkpt>
      <trkpt lat="48.7516" lon="2.52946">
        <ele>95</ele>
        <time>2014-05-25T11:33:28Z</time>
      </trkpt>
      <trkpt lat="48.75161" lon="2.52944">
        <ele>95</ele>
        <time>2014-05-25T11:33:29Z</time>
      </trkpt>
      <trkpt lat="48.75161" lon="2.52942">
        <ele>95</ele>
        <time>2014-05-25T11:33:30Z</time>
      </trkpt>
      <trkpt lat="48.75161" lon="2.5294">
        <ele>96</ele>
        <time>2014-05-25T11:33:31Z</time>
      </trkpt>
      <trkpt lat="48.75162" lon="2.52937">
        <ele>96</ele>
        <time>2014-05-25T11:33:32Z</time>
      </trkpt>
      <trkpt lat="48.75162" lon="2.52935">
        <ele>96</ele>
        <time>2014-05-25T11:33:33Z</time>
      </trkpt>
      <trkpt lat="48.75162" lon="2.52933">
        <ele>96</ele>
        <time>2014-05-25T11:33:34Z</time>
      </trkpt>
      <trkpt lat="48.75163" lon="2.52931">
        <ele>96</ele>
        <time>2014-05-25T11:33:35Z</time>
      </trkpt>
      <trkpt lat="48.75163" lon="2.52929">
        <ele>96</ele>
        <time>2014-05-25T11:33:36Z</time>
      </trkpt>
      <trkpt lat="48.75163" lon="2.52927">
        <ele>96</ele>
        <time>2014-05-25T11:33:37Z</time>
      </trkpt>
      <trkpt lat="48.75164" lon="2.52925">
        <ele>97</ele>
        <time>2014-05-25T11:33:38Z</time>
      </trkpt>
      <trkpt lat="48.75164" lon="2.52923">
        <ele>96</ele>
        <time>2014-05-25T11:33:39Z</time>
      </trkpt>
      <trkpt lat="48.75164" lon="2.52921">
        <ele>97</ele>
        <time>2014-05-25T11:33:40Z</time>
      </trkpt>
      <trkpt lat="48.75165" lon="2.52918">
        <ele>96</ele>
        <time>2014-05-25T11:33:41Z</time>
      </trkpt>
      <trkpt lat="48.75165" lon="2.52916">
        <ele>96</ele>
        <time>2014-05-25T11:33:42Z</time>
      </trkpt>
      <trkpt lat="48.75166" lon="2.52914">
        <ele>95</ele>
        <time>2014-05-25T11:33:43Z</time>
      </trkpt>
      <trkpt lat="48.75166" lon="2.52912">
        <ele>95</ele>
        <time>2014-05-25T11:33:44Z</time>
      </trkpt>
      <trkpt lat="48.75167" lon="2.52909">
        <ele>95</ele>
        <time>2014-05-25T11:33:45Z</time>
      </trkpt>
      <trkpt lat="48.75167" lon="2.52907">
        <ele>95</ele>
        <time>2014-05-25T11:33:46Z</time>
      </trkpt>
      <trkpt lat="48.75168" lon="2.52905">
        <ele>95</ele>
        <time>2014-05-25T11:33:47Z</time>
      </trkpt>
      <trkpt lat="48.75168" lon="2.52903">
        <ele>95</ele>
        <time>2014-05-25T11:33:48Z</time>
      </trkpt>
      <trkpt lat="48.75168" lon="2.52901">
        <ele>95</ele>
        <time>2014-05-25T11:33:49Z</time>
      </trkpt>
      <trkpt lat="48.75169" lon="2.52898">
        <ele>95</ele>
        <time>2014-05-25T11:33:50Z</time>
      </trkpt>
      <trkpt lat="48.75169" lon="2.52896">
        <ele>95</ele>
        <time>2014-05-25T11:33:51Z</time>
      </trkpt>
      <trkpt lat="48.7517" lon="2.52894">
        <ele>95</ele>
        <time>2014-05-25T11:33:52Z</time>
      </trkpt>
      <trkpt lat="48.7517" lon="2.52892">
        <ele>95</ele>
        <time>2014-05-25T11:33:53Z</time>
      </trkpt>
      <trkpt lat="48.75171" lon="2.52889">
        <ele>95</ele>
        <time>2014-05-25T11:33:54Z</time>
      </trkpt>
      <trkpt lat="48.75171" lon="2.52887">
        <ele>95</ele>
        <time>2014-05-25T11:33:55Z</time>
      </trkpt>
      <trkpt lat="48.75171" lon="2.52885">
        <ele>95</ele>
        <time>2014-05-25T11:33:56Z</time>
      </trkpt>
      <trkpt lat="48.75172" lon="2.52883">
        <ele>95</ele>
        <time>2014-05-25T11:33:57Z</time>
      </trkpt>
      <trkpt lat="48.75172" lon="2.52881">
        <ele>95</ele>
        <time>2014-05-25T11:33:58Z</time>
      </trkpt>
      <trkpt lat="48.75173" lon="2.52879">
        <ele>95</ele>
        <time>2014-05-25T11:33:59Z</time>
      </trkpt>
      <trkpt lat="48.75173" lon="2.52877">
        <ele>95</ele>
        <time>2014-05-25T11:34:00Z</time>
      </trkpt>
      <trkpt lat="48.75174" lon="2.52875">
        <ele>95</ele>
        <time>2014-05-25T11:34:01Z</time>
      </trkpt>
      <trkpt lat="48.75174" lon="2.52873">
        <ele>95</ele>
        <time>2014-05-25T11:34:02Z</time>
      </trkpt>
      <trkpt lat="48.75174" lon="2.52871">
        <ele>95</ele>
        <time>2014-05-25T11:34:03Z</time>
      </trkpt>
      <trkpt lat="48.75175" lon="2.52869">
        <ele>95</ele>
        <time>2014-05-25T11:34:04Z</time>
      </trkpt>
      <trkpt lat="48.75175" lon="2.52866">
        <ele>95</ele>
        <time>2014-05-25T11:34:05Z</time>
      </trkpt>
      <trkpt lat="48.75176" lon="2.52864">
        <ele>95</ele>
        <time>2014-05-25T11:34:06Z</time>
      </trkpt>
      <trkpt lat="48.75176" lon="2.52862">
        <ele>95</ele>
        <time>2014-05-25T11:34:07Z</time>
      </trkpt>
      <trkpt lat="48.75176" lon="2.5286">
        <ele>96</ele>
        <time>2014-05-25T11:34:08Z</time>
      </trkpt>
      <trkpt lat="48.75177" lon="2.52858">
        <ele>96</ele>
        <time>2014-05-25T11:34:09Z</time>
      </trkpt>
      <trkpt lat="48.75177" lon="2.52856">
        <ele>96</ele>
        <time>2014-05-25T11:34:10Z</time>
      </trkpt>
      <trkpt lat="48.75178" lon="2.52854">
        <ele>96</ele>
        <time>2014-05-25T11:34:11Z</time>
      </trkpt>
      <trkpt lat="48.75178" lon="2.52852">
        <ele>96</ele>
        <time>2014-05-25T11:34:12Z</time>
      </trkpt>
      <trkpt lat="48.75178" lon="2.5285">
        <ele>96</ele>
        <time>2014-05-25T11:34:13Z</time>
      </trkpt>
      <trkpt lat="48.75179" lon="2.52848">
        <ele>96</ele>
        <time>2014-05-25T11:34:14Z</time>
      </trkpt>
      <trkpt lat="48.75179" lon="2.52846">
        <ele>96</ele>
        <time>2014-05-25T11:34:15Z</time>
      </trkpt>
      <trkpt lat="48.75179" lon="2.52844">
        <ele>97</ele>
        <time>2014-05-25T11:34:16Z</time>
      </trkpt>
      <trkpt lat="48.7518" lon="2.52842">
        <ele>97</ele>
        <time>2014-05-25T11:34:17Z</time>
      </trkpt>
      <trkpt lat="48.7518" lon="2.5284">
        <ele>97</ele>
        <time>2014-05-25T11:34:18Z</time>
      </trkpt>
      <trkpt lat="48.75181" lon="2.52838">
        <ele>97</ele>
        <time>2014-05-25T11:34:19Z</time>
      </trkpt>
      <trkpt lat="48.75181" lon="2.52836">
        <ele>97</ele>
        <time>2014-05-25T11:34:20Z</time>
      </trkpt>
      <trkpt lat="48.75181" lon="2.52834">
        <ele>97</ele>
        <time>2014-05-25T11:34:21Z</time>
      </trkpt>
      <trkpt lat="48.75182" lon="2.52832">
        <ele>97</ele>
        <time>2014-05-25T11:34:22Z</time>
      </trkpt>
      <trkpt lat="48.75182" lon="2.5283">
        <ele>97</ele>
        <time>2014-05-25T11:34:23Z</time>
      </trkpt>
      <trkpt lat="48.75183" lon="2.52828">
        <ele>97</ele>
        <time>2014-05-25T11:34:24Z</time>
      </trkpt>
      <trkpt lat="48.75183" lon="2.52826">
        <ele>97</ele>
        <time>2014-05-25T11:34:25Z</time>
      </trkpt>
      <trkpt lat="48.75184" lon="2.52824">
        <ele>97</ele>
        <time>2014-05-25T11:34:26Z</time>
      </trkpt>
      <trkpt lat="48.75184" lon="2.52822">
        <ele>97</ele>
        <time>2014-05-25T11:34:27Z</time>
      </trkpt>
      <trkpt lat="48.75184" lon="2.5282">
        <ele>96</ele>
        <time>2014-05-25T11:34:28Z</time>
      </trkpt>
      <trkpt lat="48.75185" lon="2.52818">
        <ele>96</ele>
        <time>2014-05-25T11:34:29Z</time>
      </trkpt>
      <trkpt lat="48.75186" lon="2.52816">
        <ele>95</ele>
        <time>2014-05-25T11:34:30Z</time>
      </trkpt>
      <trkpt lat="48.75186" lon="2.52813">
        <ele>95</ele>
        <time>2014-05-25T11:34:31Z</time>
      </trkpt>
      <trkpt lat="48.75187" lon="2.52811">
        <ele>95</ele>
        <time>2014-05-25T11:34:32Z</time>
      </trkpt>
      <trkpt lat="48.75187" lon="2.52809">
        <ele>95</ele>
        <time>2014-05-25T11:34:33Z</time>
      </trkpt>
      <trkpt lat="48.75188" lon="2.52807">
        <ele>95</ele>
        <time>2014-05-25T11:34:34Z</time>
      </trkpt>
      <trkpt lat="48.75188" lon="2.52804">
        <ele>95</ele>
        <time>2014-05-25T11:34:35Z</time>
      </trkpt>
      <trkpt lat="48.75189" lon="2.52802">
        <ele>95</ele>
        <time>2014-05-25T11:34:36Z</time>
      </trkpt>
      <trkpt lat="48.75189" lon="2.528">
        <ele>95</ele>
        <time>2014-05-25T11:34:37Z</time>
      </trkpt>
      <trkpt lat="48.7519" lon="2.52798">
        <ele>95</ele>
        <time>2014-05-25T11:34:38Z</time>
      </trkpt>
      <trkpt lat="48.7519" lon="2.52796">
        <ele>95</ele>
        <time>2014-05-25T11:34:39Z</time>
      </trkpt>
      <trkpt lat="48.75191" lon="2.52794">
        <ele>95</ele>
        <time>2014-05-25T11:34:40Z</time>
      </trkpt>
      <trkpt lat="48.75191" lon="2.52791">
        <ele>95</ele>
        <time>2014-05-25T11:34:41Z</time>
      </trkpt>
      <trkpt lat="48.75191" lon="2.52789">
        <ele>95</ele>
        <time>2014-05-25T11:34:42Z</time>
      </trkpt>
      <trkpt lat="48.75192" lon="2.52787">
        <ele>95</ele>
        <time>2014-05-25T11:34:43Z</time>
      </trkpt>
      <trkpt lat="48.75192" lon="2.52785">
        <ele>95</ele>
        <time>2014-05-25T11:34:44Z</time>
      </trkpt>
      <trkpt lat="48.75193" lon="2.52783">
        <ele>95</ele>
        <time>2014-05-25T11:34:45Z</time>
      </trkpt>
      <trkpt lat="48.75193" lon="2.52781">
        <ele>95</ele>
        <time>2014-05-25T11:34:46Z</time>
      </trkpt>
      <trkpt lat="48.75193" lon="2.52779">
        <ele>95</ele>
        <time>2014-05-25T11:34:47Z</time>
      </trkpt>
      <trkpt lat="48.75194" lon="2.52776">
        <ele>95</ele>
        <time>2014-05-25T11:34:48Z</time>
      </trkpt>
      <trkpt lat="48.75194" lon="2.52774">
        <ele>95</ele>
        <time>2014-05-25T11:34:49Z</time>
      </trkpt>
      <trkpt lat="48.75195" lon="2.52772">
        <ele>95</ele>
        <time>2014-05-25T11:34:50Z</time>
      </trkpt>
      <trkpt lat="48.75195" lon="2.5277">
        <ele>95</ele>
        <time>2014-05-25T11:34:51Z</time>
      </trkpt>
      <trkpt lat="48.75196" lon="2.52768">
        <ele>95</ele>
        <time>2014-05-25T11:34:52Z</time>
      </trkpt>
      <trkpt lat="48.75196" lon="2.52766">
        <ele>95</ele>
        <time>2014-05-25T11:34:53Z</time>
      </trkpt>
      <trkpt lat="48.75197" lon="2.52764">
        <ele>94</ele>
        <time>2014-05-25T11:34:54Z</time>
      </trkpt>
      <trkpt lat="48.75197" lon="2.52762">
        <ele>94</ele>
        <time>2014-05-25T11:34:55Z</time>
      </trkpt>
      <trkpt lat="48.75198" lon="2.5276">
        <ele>94</ele>
        <time>2014-05-25T11:34:56Z</time>
      </trkpt>
      <trkpt lat="48.75198" lon="2.52757">
        <ele>94</ele>
        <time>2014-05-25T11:34:57Z</time>
      </trkpt>
      <trkpt lat="48.75198" lon="2.52755">
        <ele>94</ele>
        <time>2014-05-25T11:34:58Z</time>
      </trkpt>
      <trkpt lat="48.75199" lon="2.52753">
        <ele>95</ele>
        <time>2014-05-25T11:34:59Z</time>
      </trkpt>
      <trkpt lat="48.75199" lon="2.52751">
        <ele>94</ele>
        <time>2014-05-25T11:35:00Z</time>
      </trkpt>
      <trkpt lat="48.752" lon="2.52749">
        <ele>94</ele>
        <time>2014-05-25T11:35:01Z</time>
      </trkpt>
      <trkpt lat="48.752" lon="2.52746">
        <ele>95</ele>
        <time>2014-05-25T11:35:02Z</time>
      </trkpt>
      <trkpt lat="48.75201" lon="2.52744">
        <ele>95</ele>
        <time>2014-05-25T11:35:03Z</time>
      </trkpt>
      <trkpt lat="48.75201" lon="2.52742">
        <ele>95</ele>
        <time>2014-05-25T11:35:04Z</time>
      </trkpt>
      <trkpt lat="48.75202" lon="2.52739">
        <ele>94</ele>
        <time>2014-05-25T11:35:05Z</time>
      </trkpt>
      <trkpt lat="48.75202" lon="2.52737">
        <ele>95</ele>
        <time>2014-05-25T11:35:06Z</time>
      </trkpt>
      <trkpt lat="48.75203" lon="2.52735">
        <ele>94</ele>
        <time>2014-05-25T11:35:07Z</time>
      </trkpt>
      <trkpt lat="48.75203" lon="2.52732">
        <ele>94</ele>
        <time>2014-05-25T11:35:08Z</time>
      </trkpt>
      <trkpt lat="48.75204" lon="2.5273">
        <ele>94</ele>
        <time>2014-05-25T11:35:09Z</time>
      </trkpt>
      <trkpt lat="48.75204" lon="2.52728">
        <ele>94</ele>
        <time>2014-05-25T11:35:10Z</time>
      </trkpt>
      <trkpt lat="48.75205" lon="2.52726">
        <ele>94</ele>
        <time>2014-05-25T11:35:11Z</time>
      </trkpt>
      <trkpt lat="48.75205" lon="2.52724">
        <ele>94</ele>
        <time>2014-05-25T11:35:12Z</time>
      </trkpt>
      <trkpt lat="48.75205" lon="2.52721">
        <ele>94</ele>
        <time>2014-05-25T11:35:13Z</time>
      </trkpt>
      <trkpt lat="48.75206" lon="2.52719">
        <ele>94</ele>
        <time>2014-05-25T11:35:14Z</time>
      </trkpt>
      <trkpt lat="48.75206" lon="2.52717">
        <ele>95</ele>
        <time>2014-05-25T11:35:15Z</time>
      </trkpt>
      <trkpt lat="48.75206" lon="2.52715">
        <ele>95</ele>
        <time>2014-05-25T11:35:16Z</time>
      </trkpt>
      <trkpt lat="48.75207" lon="2.52713">
        <ele>95</ele>
        <time>2014-05-25T11:35:17Z</time>
      </trkpt>
      <trkpt lat="48.75207" lon="2.52711">
        <ele>95</ele>
        <time>2014-05-25T11:35:18Z</time>
      </trkpt>
      <trkpt lat="48.75208" lon="2.52709">
        <ele>95</ele>
        <time>2014-05-25T11:35:19Z</time>
      </trkpt>
      <trkpt lat="48.75208" lon="2.52707">
        <ele>95</ele>
        <time>2014-05-25T11:35:20Z</time>
      </trkpt>
      <trkpt lat="48.75209" lon="2.52705">
        <ele>94</ele>
        <time>2014-05-25T11:35:21Z</time>
      </trkpt>
      <trkpt lat="48.75209" lon="2.52703">
        <ele>94</ele>
        <time>2014-05-25T11:35:22Z</time>
      </trkpt>
      <trkpt lat="48.7521" lon="2.52701">
        <ele>94</ele>
        <time>2014-05-25T11:35:23Z</time>
      </trkpt>
      <trkpt lat="48.7521" lon="2.52699">
        <ele>94</ele>
        <time>2014-05-25T11:35:24Z</time>
      </trkpt>
      <trkpt lat="48.7521" lon="2.52696">
        <ele>94</ele>
        <time>2014-05-25T11:35:25Z</time>
      </trkpt>
      <trkpt lat="48.75211" lon="2.52694">
        <ele>94</ele>
        <time>2014-05-25T11:35:26Z</time>
      </trkpt>
      <trkpt lat="48.75211" lon="2.52692">
        <ele>94</ele>
        <time>2014-05-25T11:35:27Z</time>
      </trkpt>
      <trkpt lat="48.75211" lon="2.5269">
        <ele>94</ele>
        <time>2014-05-25T11:35:28Z</time>
      </trkpt>
      <trkpt lat="48.75212" lon="2.52688">
        <ele>94</ele>
        <time>2014-05-25T11:35:29Z</time>
      </trkpt>
      <trkpt lat="48.75212" lon="2.52686">
        <ele>94</ele>
        <time>2014-05-25T11:35:30Z</time>
      </trkpt>
      <trkpt lat="48.75213" lon="2.52683">
        <ele>94</ele>
        <time>2014-05-25T11:35:31Z</time>
      </trkpt>
      <trkpt lat="48.75213" lon="2.52681">
        <ele>94</ele>
        <time>2014-05-25T11:35:32Z</time>
      </trkpt>
      <trkpt lat="48.75214" lon="2.52679">
        <ele>94</ele>
        <time>2014-05-25T11:35:33Z</time>
      </trkpt>
      <trkpt lat="48.75214" lon="2.52677">
        <ele>94</ele>
        <time>2014-05-25T11:35:34Z</time>
      </trkpt>
      <trkpt lat="48.75215" lon="2.52675">
        <ele>94</ele>
        <time>2014-05-25T11:35:35Z</time>
      </trkpt>
      <trkpt lat="48.75215" lon="2.52672">
        <ele>94</ele>
        <time>2014-05-25T11:35:36Z</time>
      </trkpt>
      <trkpt lat="48.75216" lon="2.5267">
        <ele>94</ele>
        <time>2014-05-25T11:35:37Z</time>
      </trkpt>
      <trkpt lat="48.75216" lon="2.52668">
        <ele>94</ele>
        <time>2014-05-25T11:35:38Z</time>
      </trkpt>
      <trkpt lat="48.75217" lon="2.52666">
        <ele>94</ele>
        <time>2014-05-25T11:35:39Z</time>
      </trkpt>
      <trkpt lat="48.75217" lon="2.52664">
        <ele>94</ele>
        <time>2014-05-25T11:35:40Z</time>
      </trkpt>
      <trkpt lat="48.75218" lon="2.52662">
        <ele>94</ele>
        <time>2014-05-25T11:35:41Z</time>
      </trkpt>
      <trkpt lat="48.75218" lon="2.52659">
        <ele>94</ele>
        <time>2014-05-25T11:35:42Z</time>
      </trkpt>
      <trkpt lat="48.75218" lon="2.52657">
        <ele>94</ele>
        <time>2014-05-25T11:35:43Z</time>
      </trkpt>
      <trkpt lat="48.75219" lon="2.52655">
        <ele>94</ele>
        <time>2014-05-25T11:35:44Z</time>
      </trkpt>
      <trkpt lat="48.75219" lon="2.52653">
        <ele>94</ele>
        <time>2014-05-25T11:35:45Z</time>
      </trkpt>
      <trkpt lat="48.7522" lon="2.52651">
        <ele>94</ele>
        <time>2014-05-25T11:35:46Z</time>
      </trkpt>
      <trkpt lat="48.7522" lon="2.52649">
        <ele>95</ele>
        <time>2014-05-25T11:35:47Z</time>
      </trkpt>
      <trkpt lat="48.75221" lon="2.52647">
        <ele>95</ele>
        <time>2014-05-25T11:35:48Z</time>
      </trkpt>
      <trkpt lat="48.75221" lon="2.52645">
        <ele>95</ele>
        <time>2014-05-25T11:35:49Z</time>
      </trkpt>
      <trkpt lat="48.75221" lon="2.52643">
        <ele>95</ele>
        <time>2014-05-25T11:35:50Z</time>
      </trkpt>
      <trkpt lat="48.75222" lon="2.52641">
        <ele>96</ele>
        <time>2014-05-25T11:35:51Z</time>
      </trkpt>
      <trkpt lat="48.75222" lon="2.52638">
        <ele>96</ele>
        <time>2014-05-25T11:35:52Z</time>
      </trkpt>
      <trkpt lat="48.75222" lon="2.52636">
        <ele>96</ele>
        <time>2014-05-25T11:35:53Z</time>
      </trkpt>
      <trkpt lat="48.75222" lon="2.52634">
        <ele>96</ele>
        <time>2014-05-25T11:35:54Z</time>
      </trkpt>
      <trkpt lat="48.75222" lon="2.52632">
        <ele>96</ele>
        <time>2014-05-25T11:35:55Z</time>
      </trkpt>
      <trkpt lat="48.75223" lon="2.52629">
        <ele>95</ele>
        <time>2014-05-25T11:35:56Z</time>
      </trkpt>
      <trkpt lat="48.75223" lon="2.52627">
        <ele>95</ele>
        <time>2014-05-25T11:35:57Z</time>
      </trkpt>
      <trkpt lat="48.75223" lon="2.52625">
        <ele>95</ele>
        <time>2014-05-25T11:35:58Z</time>
      </trkpt>
      <trkpt lat="48.75223" lon="2.52623">
        <ele>95</ele>
        <time>2014-05-25T11:35:59Z</time>
      </trkpt>
      <trkpt lat="48.75223" lon="2.52621">
        <ele>96</ele>
        <time>2014-05-25T11:36:00Z</time>
      </trkpt>
      <trkpt lat="48.75223" lon="2.52619">
        <ele>96</ele>
        <time>2014-05-25T11:36:01Z</time>
      </trkpt>
      <trkpt lat="48.75223" lon="2.52617">
        <ele>96</ele>
        <time>2014-05-25T11:36:02Z</time>
      </trkpt>
      <trkpt lat="48.75223" lon="2.52615">
        <ele>95</ele>
        <time>2014-05-25T11:36:03Z</time>
      </trkpt>
      <trkpt lat="48.75223" lon="2.52613">
        <ele>96</ele>
        <time>2014-05-25T11:36:04Z</time>
      </trkpt>
      <trkpt lat="48.75223" lon="2.5261">
        <ele>95</ele>
        <time>2014-05-25T11:36:05Z</time>
      </trkpt>
      <trkpt lat="48.75223" lon="2.52608">
        <ele>94</ele>
        <time>2014-05-25T11:36:06Z</time>
      </trkpt>
      <trkpt lat="48.75224" lon="2.52606">
        <ele>94</ele>
        <time>2014-05-25T11:36:07Z</time>
      </trkpt>
      <trkpt lat="48.75224" lon="2.52604">
        <ele>94</ele>
        <time>2014-05-25T11:36:08Z</time>
      </trkpt>
      <trkpt lat="48.75224" lon="2.52602">
        <ele>94</ele>
        <time>2014-05-25T11:36:09Z</time>
      </trkpt>
      <trkpt lat="48.75225" lon="2.526">
        <ele>94</ele>
        <time>2014-05-25T11:36:10Z</time>
      </trkpt>
      <trkpt lat="48.75225" lon="2.52598">
        <ele>94</ele>
        <time>2014-05-25T11:36:11Z</time>
      </trkpt>
      <trkpt lat="48.75225" lon="2.52596">
        <ele>96</ele>
        <time>2014-05-25T11:36:12Z</time>
      </trkpt>
      <trkpt lat="48.75226" lon="2.52594">
        <ele>96</ele>
        <time>2014-05-25T11:36:13Z</time>
      </trkpt>
      <trkpt lat="48.75226" lon="2.52592">
        <ele>95</ele>
        <time>2014-05-25T11:36:14Z</time>
      </trkpt>
      <trkpt lat="48.75226" lon="2.52591">
        <ele>96</ele>
        <time>2014-05-25T11:36:15Z</time>
      </trkpt>
      <trkpt lat="48.75227" lon="2.52589">
        <ele>96</ele>
        <time>2014-05-25T11:36:16Z</time>
      </trkpt>
      <trkpt lat="48.75227" lon="2.52587">
        <ele>97</ele>
        <time>2014-05-25T11:36:17Z</time>
      </trkpt>
      <trkpt lat="48.75228" lon="2.52586">
        <ele>97</ele>
        <time>2014-05-25T11:36:18Z</time>
      </trkpt>
      <trkpt lat="48.75229" lon="2.52584">
        <ele>97</ele>
        <time>2014-05-25T11:36:19Z</time>
      </trkpt>
      <trkpt lat="48.75229" lon="2.52582">
        <ele>97</ele>
        <time>2014-05-25T11:36:20Z</time>
      </trkpt>
      <trkpt lat="48.7523" lon="2.5258">
        <ele>97</ele>
        <time>2014-05-25T11:36:21Z</time>
      </trkpt>
      <trkpt lat="48.7523" lon="2.52578">
        <ele>97</ele>
        <time>2014-05-25T11:36:22Z</time>
      </trkpt>
      <trkpt lat="48.7523" lon="2.52576">
        <ele>97</ele>
        <time>2014-05-25T11:36:23Z</time>
      </trkpt>
      <trkpt lat="48.75231" lon="2.52574">
        <ele>97</ele>
        <time>2014-05-25T11:36:24Z</time>
      </trkpt>
      <trkpt lat="48.75231" lon="2.52572">
        <ele>97</ele>
        <time>2014-05-25T11:36:25Z</time>
      </trkpt>
      <trkpt lat="48.75232" lon="2.52569">
        <ele>96</ele>
        <time>2014-05-25T11:36:26Z</time>
      </trkpt>
      <trkpt lat="48.75232" lon="2.52567">
        <ele>97</ele>
        <time>2014-05-25T11:36:27Z</time>
      </trkpt>
      <trkpt lat="48.75232" lon="2.52565">
        <ele>97</ele>
        <time>2014-05-25T11:36:28Z</time>
      </trkpt>
      <trkpt lat="48.75232" lon="2.52563">
        <ele>97</ele>
        <time>2014-05-25T11:36:29Z</time>
      </trkpt>
      <trkpt lat="48.75232" lon="2.5256">
        <ele>97</ele>
        <time>2014-05-25T11:36:30Z</time>
      </trkpt>
      <trkpt lat="48.75233" lon="2.52558">
        <ele>97</ele>
        <time>2014-05-25T11:36:31Z</time>
      </trkpt>
      <trkpt lat="48.75233" lon="2.52556">
        <ele>97</ele>
        <time>2014-05-25T11:36:32Z</time>
      </trkpt>
      <trkpt lat="48.75233" lon="2.52554">
        <ele>97</ele>
        <time>2014-05-25T11:36:33Z</time>
      </trkpt>
      <trkpt lat="48.75233" lon="2.52551">
        <ele>97</ele>
        <time>2014-05-25T11:36:34Z</time>
      </trkpt>
      <trkpt lat="48.75234" lon="2.52549">
        <ele>97</ele>
        <time>2014-05-25T11:36:35Z</time>
      </trkpt>
      <trkpt lat="48.75234" lon="2.52547">
        <ele>97</ele>
        <time>2014-05-25T11:36:36Z</time>
      </trkpt>
      <trkpt lat="48.75234" lon="2.52544">
        <ele>97</ele>
        <time>2014-05-25T11:36:37Z</time>
      </trkpt>
      <trkpt lat="48.75235" lon="2.52542">
        <ele>97</ele>
        <time>2014-05-25T11:36:38Z</time>
      </trkpt>
      <trkpt lat="48.75235" lon="2.5254">
        <ele>97</ele>
        <time>2014-05-25T11:36:39Z</time>
      </trkpt>
      <trkpt lat="48.75235" lon="2.52538">
        <ele>97</ele>
        <time>2014-05-25T11:36:40Z</time>
      </trkpt>
      <trkpt lat="48.75235" lon="2.52535">
        <ele>97</ele>
        <time>2014-05-25T11:36:41Z</time>
      </trkpt>
      <trkpt lat="48.75236" lon="2.52533">
        <ele>96</ele>
        <time>2014-05-25T11:36:42Z</time>
      </trkpt>
      <trkpt lat="48.75236" lon="2.5253">
        <ele>96</ele>
        <time>2014-05-25T11:36:43Z</time>
      </trkpt>
      <trkpt lat="48.75236" lon="2.52528">
        <ele>96</ele>
        <time>2014-05-25T11:36:44Z</time>
      </trkpt>
      <trkpt lat="48.75236" lon="2.52526">
        <ele>96</ele>
        <time>2014-05-25T11:36:45Z</time>
      </trkpt>
      <trkpt lat="48.75237" lon="2.52523">
        <ele>96</ele>
        <time>2014-05-25T11:36:46Z</time>
      </trkpt>
      <trkpt lat="48.75237" lon="2.52521">
        <ele>96</ele>
        <time>2014-05-25T11:36:47Z</time>
      </trkpt>
      <trkpt lat="48.75237" lon="2.52519">
        <ele>96</ele>
        <time>2014-05-25T11:36:48Z</time>
      </trkpt>
      <trkpt lat="48.75237" lon="2.52516">
        <ele>96</ele>
        <time>2014-05-25T11:36:49Z</time>
      </trkpt>
      <trkpt lat="48.75237" lon="2.52514">
        <ele>96</ele>
        <time>2014-05-25T11:36:50Z</time>
      </trkpt>
      <trkpt lat="48.75238" lon="2.52512">
        <ele>96</ele>
        <time>2014-05-25T11:36:51Z</time>
      </trkpt>
      <trkpt lat="48.75238" lon="2.5251">
        <ele>96</ele>
        <time>2014-05-25T11:36:52Z</time>
      </trkpt>
      <trkpt lat="48.75238" lon="2.52508">
        <ele>96</ele>
        <time>2014-05-25T11:36:53Z</time>
      </trkpt>
      <trkpt lat="48.75238" lon="2.52505">
        <ele>96</ele>
        <time>2014-05-25T11:36:54Z</time>
      </trkpt>
      <trkpt lat="48.75238" lon="2.52503">
        <ele>96</ele>
        <time>2014-05-25T11:36:55Z</time>
      </trkpt>
      <trkpt lat="48.75238" lon="2.52501">
        <ele>96</ele>
        <time>2014-05-25T11:36:56Z</time>
      </trkpt>
      <trkpt lat="48.75238" lon="2.52499">
        <ele>96</ele>
        <time>2014-05-25T11:36:57Z</time>
      </trkpt>
      <trkpt lat="48.75239" lon="2.52497">
        <ele>96</ele>
        <time>2014-05-25T11:36:58Z</time>
      </trkpt>
      <trkpt lat="48.75239" lon="2.52494">
        <ele>96</ele>
        <time>2014-05-25T11:36:59Z</time>
      </trkpt>
      <trkpt lat="48.75239" lon="2.52492">
        <ele>96</ele>
        <time>2014-05-25T11:37:00Z</time>
      </trkpt>
      <trkpt lat="48.75239" lon="2.5249">
        <ele>96</ele>
        <time>2014-05-25T11:37:01Z</time>
      </trkpt>
      <trkpt lat="48.75239" lon="2.52488">
        <ele>97</ele>
        <time>2014-05-25T11:37:02Z</time>
      </trkpt>
      <trkpt lat="48.75239" lon="2.52486">
        <ele>96</ele>
        <time>2014-05-25T11:37:03Z</time>
      </trkpt>
      <trkpt lat="48.75239" lon="2.52483">
        <ele>97</ele>
        <time>2014-05-25T11:37:04Z</time>
      </trkpt>
      <trkpt lat="48.75239" lon="2.52481">
        <ele>96</ele>
        <time>2014-05-25T11:37:05Z</time>
      </trkpt>
      <trkpt lat="48.7524" lon="2.52479">
        <ele>96</ele>
        <time>2014-05-25T11:37:06Z</time>
      </trkpt>
      <trkpt lat="48.7524" lon="2.52477">
        <ele>96</ele>
        <time>2014-05-25T11:37:07Z</time>
      </trkpt>
      <trkpt lat="48.7524" lon="2.52475">
        <ele>96</ele>
        <time>2014-05-25T11:37:08Z</time>
      </trkpt>
      <trkpt lat="48.7524" lon="2.52473">
        <ele>96</ele>
        <time>2014-05-25T11:37:09Z</time>
      </trkpt>
      <trkpt lat="48.75241" lon="2.5247">
        <ele>95</ele>
        <time>2014-05-25T11:37:10Z</time>
      </trkpt>
      <trkpt lat="48.75241" lon="2.52468">
        <ele>96</ele>
        <time>2014-05-25T11:37:11Z</time>
      </trkpt>
      <trkpt lat="48.75241" lon="2.52466">
        <ele>96</ele>
        <time>2014-05-25T11:37:12Z</time>
      </trkpt>
      <trkpt lat="48.75241" lon="2.52464">
        <ele>97</ele>
        <time>2014-05-25T11:37:13Z</time>
      </trkpt>
      <trkpt lat="48.75241" lon="2.52462">
        <ele>96</ele>
        <time>2014-05-25T11:37:14Z</time>
      </trkpt>
      <trkpt lat="48.75241" lon="2.52459">
        <ele>97</ele>
        <time>2014-05-25T11:37:15Z</time>
      </trkpt>
      <trkpt lat="48.75241" lon="2.52457">
        <ele>97</ele>
        <time>2014-05-25T11:37:16Z</time>
      </trkpt>
      <trkpt lat="48.75242" lon="2.52455">
        <ele>97</ele>
        <time>2014-05-25T11:37:17Z</time>
      </trkpt>
      <trkpt lat="48.75242" lon="2.52453">
        <ele>97</ele>
        <time>2014-05-25T11:37:18Z</time>
      </trkpt>
      <trkpt lat="48.75242" lon="2.52451">
        <ele>98</ele>
        <time>2014-05-25T11:37:19Z</time>
      </trkpt>
      <trkpt lat="48.75242" lon="2.52448">
        <ele>98</ele>
        <time>2014-05-25T11:37:20Z</time>
      </trkpt>
      <trkpt lat="48.75243" lon="2.52446">
        <ele>98</ele>
        <time>2014-05-25T11:37:21Z</time>
      </trkpt>
      <trkpt lat="48.75243" lon="2.52444">
        <ele>98</ele>
        <time>2014-05-25T11:37:22Z</time>
      </trkpt>
      <trkpt lat="48.75243" lon="2.52441">
        <ele>98</ele>
        <time>2014-05-25T11:37:23Z</time>
      </trkpt>
      <trkpt lat="48.75243" lon="2.52439">
        <ele>98</ele>
        <time>2014-05-25T11:37:24Z</time>
      </trkpt>
      <trkpt lat="48.75243" lon="2.52437">
        <ele>98</ele>
        <time>2014-05-25T11:37:25Z</time>
      </trkpt>
      <trkpt lat="48.75244" lon="2.52435">
        <ele>98</ele>
        <time>2014-05-25T11:37:26Z</time>
      </trkpt>
      <trkpt lat="48.75244" lon="2.52433">
        <ele>98</ele>
        <time>2014-05-25T11:37:27Z</time>
      </trkpt>
      <trkpt lat="48.75244" lon="2.52431">
        <ele>98</ele>
        <time>2014-05-25T11:37:28Z</time>
      </trkpt>
      <trkpt lat="48.75244" lon="2.52428">
        <ele>98</ele>
        <time>2014-05-25T11:37:29Z</time>
      </trkpt>
      <trkpt lat="48.75245" lon="2.52426">
        <ele>98</ele>
        <time>2014-05-25T11:37:30Z</time>
      </trkpt>
      <trkpt lat="48.75245" lon="2.52424">
        <ele>98</ele>
        <time>2014-05-25T11:37:31Z</time>
      </trkpt>
      <trkpt lat="48.75246" lon="2.52422">
        <ele>98</ele>
        <time>2014-05-25T11:37:32Z</time>
      </trkpt>
      <trkpt lat="48.75246" lon="2.5242">
        <ele>97</ele>
        <time>2014-05-25T11:37:33Z</time>
      </trkpt>
      <trkpt lat="48.75246" lon="2.52417">
        <ele>97</ele>
        <time>2014-05-25T11:37:34Z</time>
      </trkpt>
      <trkpt lat="48.75246" lon="2.52415">
        <ele>97</ele>
        <time>2014-05-25T11:37:35Z</time>
      </trkpt>
      <trkpt lat="48.75246" lon="2.52413">
        <ele>97</ele>
        <time>2014-05-25T11:37:36Z</time>
      </trkpt>
      <trkpt lat="48.75247" lon="2.52411">
        <ele>97</ele>
        <time>2014-05-25T11:37:37Z</time>
      </trkpt>
      <trkpt lat="48.75247" lon="2.52408">
        <ele>97</ele>
        <time>2014-05-25T11:37:38Z</time>
      </trkpt>
      <trkpt lat="48.75247" lon="2.52406">
        <ele>98</ele>
        <time>2014-05-25T11:37:39Z</time>
      </trkpt>
      <trkpt lat="48.75248" lon="2.52404">
        <ele>97</ele>
        <time>2014-05-25T11:37:40Z</time>
      </trkpt>
      <trkpt lat="48.75248" lon="2.52402">
        <ele>98</ele>
        <time>2014-05-25T11:37:41Z</time>
      </trkpt>
      <trkpt lat="48.75248" lon="2.52399">
        <ele>98</ele>
        <time>2014-05-25T11:37:42Z</time>
      </trkpt>
      <trkpt lat="48.75249" lon="2.52397">
        <ele>98</ele>
        <time>2014-05-25T11:37:43Z</time>
      </trkpt>
      <trkpt lat="48.75249" lon="2.52395">
        <ele>97</ele>
        <time>2014-05-25T11:37:44Z</time>
      </trkpt>
      <trkpt lat="48.75249" lon="2.52393">
        <ele>97</ele>
        <time>2014-05-25T11:37:45Z</time>
      </trkpt>
      <trkpt lat="48.75249" lon="2.5239">
        <ele>97</ele>
        <time>2014-05-25T11:37:46Z</time>
      </trkpt>
      <trkpt lat="48.75249" lon="2.52388">
        <ele>97</ele>
        <time>2014-05-25T11:37:47Z</time>
      </trkpt>
      <trkpt lat="48.7525" lon="2.52386">
        <ele>97</ele>
        <time>2014-05-25T11:37:48Z</time>
      </trkpt>
      <trkpt lat="48.75251" lon="2.52385">
        <ele>97</ele>
        <time>2014-05-25T11:37:49Z</time>
      </trkpt>
      <trkpt lat="48.75252" lon="2.52383">
        <ele>97</ele>
        <time>2014-05-25T11:37:50Z</time>
      </trkpt>
      <trkpt lat="48.75253" lon="2.52381">
        <ele>97</ele>
        <time>2014-05-25T11:37:51Z</time>
      </trkpt>
      <trkpt lat="48.75253" lon="2.52379">
        <ele>96</ele>
        <time>2014-05-25T11:37:52Z</time>
      </trkpt>
      <trkpt lat="48.75254" lon="2.52377">
        <ele>96</ele>
        <time>2014-05-25T11:37:53Z</time>
      </trkpt>
      <trkpt lat="48.75255" lon="2.52376">
        <ele>97</ele>
        <time>2014-05-25T11:37:54Z</time>
      </trkpt>
      <trkpt lat="48.75256" lon="2.52374">
        <ele>97</ele>
        <time>2014-05-25T11:37:55Z</time>
      </trkpt>
      <trkpt lat="48.75257" lon="2.52372">
        <ele>96</ele>
        <time>2014-05-25T11:37:56Z</time>
      </trkpt>
      <trkpt lat="48.75258" lon="2.5237">
        <ele>96</ele>
        <time>2014-05-25T11:37:57Z</time>
      </trkpt>
      <trkpt lat="48.75258" lon="2.52368">
        <ele>96</ele>
        <time>2014-05-25T11:37:58Z</time>
      </trkpt>
      <trkpt lat="48.75259" lon="2.52367">
        <ele>96</ele>
        <time>2014-05-25T11:37:59Z</time>
      </trkpt>
      <trkpt lat="48.7526" lon="2.52365">
        <ele>96</ele>
        <time>2014-05-25T11:38:00Z</time>
      </trkpt>
      <trkpt lat="48.75261" lon="2.52364">
        <ele>96</ele>
        <time>2014-05-25T11:38:01Z</time>
      </trkpt>
      <trkpt lat="48.75262" lon="2.52362">
        <ele>96</ele>
        <time>2014-05-25T11:38:02Z</time>
      </trkpt>
      <trkpt lat="48.75263" lon="2.5236">
        <ele>96</ele>
        <time>2014-05-25T11:38:03Z</time>
      </trkpt>
      <trkpt lat="48.75264" lon="2.52359">
        <ele>96</ele>
        <time>2014-05-25T11:38:04Z</time>
      </trkpt>
      <trkpt lat="48.75265" lon="2.52357">
        <ele>96</ele>
        <time>2014-05-25T11:38:05Z</time>
      </trkpt>
      <trkpt lat="48.75266" lon="2.52355">
        <ele>96</ele>
        <time>2014-05-25T11:38:06Z</time>
      </trkpt>
      <trkpt lat="48.75266" lon="2.52353">
        <ele>97</ele>
        <time>2014-05-25T11:38:07Z</time>
      </trkpt>
      <trkpt lat="48.75267" lon="2.52351">
        <ele>97</ele>
        <time>2014-05-25T11:38:08Z</time>
      </trkpt>
      <trkpt lat="48.75268" lon="2.5235">
        <ele>96</ele>
        <time>2014-05-25T11:38:09Z</time>
      </trkpt>
      <trkpt lat="48.75269" lon="2.52348">
        <ele>96</ele>
        <time>2014-05-25T11:38:10Z</time>
      </trkpt>
      <trkpt lat="48.7527" lon="2.52346">
        <ele>97</ele>
        <time>2014-05-25T11:38:11Z</time>
      </trkpt>
      <trkpt lat="48.75271" lon="2.52345">
        <ele>97</ele>
        <time>2014-05-25T11:38:12Z</time>
      </trkpt>
      <trkpt lat="48.75271" lon="2.52343">
        <ele>97</ele>
        <time>2014-05-25T11:38:13Z</time>
      </trkpt>
      <trkpt lat="48.75272" lon="2.52341">
        <ele>98</ele>
        <time>2014-05-25T11:38:14Z</time>
      </trkpt>
      <trkpt lat="48.75273" lon="2.52339">
        <ele>98</ele>
        <time>2014-05-25T11:38:15Z</time>
      </trkpt>
      <trkpt lat="48.75274" lon="2.52338">
        <ele>98</ele>
        <time>2014-05-25T11:38:16Z</time>
      </trkpt>
      <trkpt lat="48.75275" lon="2.52336">
        <ele>98</ele>
        <time>2014-05-25T11:38:17Z</time>
      </trkpt>
      <trkpt lat="48.75276" lon="2.52334">
        <ele>98</ele>
        <time>2014-05-25T11:38:18Z</time>
      </trkpt>
      <trkpt lat="48.75276" lon="2.52333">
        <ele>98</ele>
        <time>2014-05-25T11:38:19Z</time>
      </trkpt>
      <trkpt lat="48.75277" lon="2.52331">
        <ele>98</ele>
        <time>2014-05-25T11:38:20Z</time>
      </trkpt>
      <trkpt lat="48.75278" lon="2.52329">
        <ele>98</ele>
        <time>2014-05-25T11:38:21Z</time>
      </trkpt>
      <trkpt lat="48.75279" lon="2.52328">
        <ele>98</ele>
        <time>2014-05-25T11:38:22Z</time>
      </trkpt>
      <trkpt lat="48.7528" lon="2.52327">
        <ele>97</ele>
        <time>2014-05-25T11:38:23Z</time>
      </trkpt>
      <trkpt lat="48.75281" lon="2.52325">
        <ele>97</ele>
        <time>2014-05-25T11:38:24Z</time>
      </trkpt>
      <trkpt lat="48.75282" lon="2.52324">
        <ele>97</ele>
        <time>2014-05-25T11:38:25Z</time>
      </trkpt>
      <trkpt lat="48.75283" lon="2.52322">
        <ele>96</ele>
        <time>2014-05-25T11:38:26Z</time>
      </trkpt>
      <trkpt lat="48.75284" lon="2.52321">
        <ele>96</ele>
        <time>2014-05-25T11:38:27Z</time>
      </trkpt>
      <trkpt lat="48.75285" lon="2.52319">
        <ele>95</ele>
        <time>2014-05-25T11:38:28Z</time>
      </trkpt>
      <trkpt lat="48.75286" lon="2.52318">
        <ele>95</ele>
        <time>2014-05-25T11:38:29Z</time>
      </trkpt>
      <trkpt lat="48.75287" lon="2.52316">
        <ele>96</ele>
        <time>2014-05-25T11:38:30Z</time>
      </trkpt>
      <trkpt lat="48.75288" lon="2.52315">
        <ele>96</ele>
        <time>2014-05-25T11:38:31Z</time>
      </trkpt>
      <trkpt lat="48.75289" lon="2.52313">
        <ele>96</ele>
        <time>2014-05-25T11:38:32Z</time>
      </trkpt>
      <trkpt lat="48.7529" lon="2.52312">
        <ele>96</ele>
        <time>2014-05-25T11:38:33Z</time>
      </trkpt>
      <trkpt lat="48.75291" lon="2.5231">
        <ele>96</ele>
        <time>2014-05-25T11:38:34Z</time>
      </trkpt>
      <trkpt lat="48.75292" lon="2.52309">
        <ele>97</ele>
        <time>2014-05-25T11:38:35Z</time>
      </trkpt>
      <trkpt lat="48.75293" lon="2.52307">
        <ele>97</ele>
        <time>2014-05-25T11:38:36Z</time>
      </trkpt>
      <trkpt lat="48.75294" lon="2.52305">
        <ele>97</ele>
        <time>2014-05-25T11:38:37Z</time>
      </trkpt>
      <trkpt lat="48.75295" lon="2.52304">
        <ele>97</ele>
        <time>2014-05-25T11:38:38Z</time>
      </trkpt>
      <trkpt lat="48.75296" lon="2.52302">
        <ele>97</ele>
        <time>2014-05-25T11:38:39Z</time>
      </trkpt>
      <trkpt lat="48.75297" lon="2.52301">
        <ele>97</ele>
        <time>2014-05-25T11:38:40Z</time>
      </trkpt>
      <trkpt lat="48.75298" lon="2.52299">
        <ele>97</ele>
        <time>2014-05-25T11:38:41Z</time>
      </trkpt>
      <trkpt lat="48.75299" lon="2.52298">
        <ele>97</ele>
        <time>2014-05-25T11:38:42Z</time>
      </trkpt>
      <trkpt lat="48.753" lon="2.52296">
        <ele>98</ele>
        <time>2014-05-25T11:38:43Z</time>
      </trkpt>
      <trkpt lat="48.75301" lon="2.52295">
        <ele>97</ele>
        <time>2014-05-25T11:38:44Z</time>
      </trkpt>
      <trkpt lat="48.75302" lon="2.52293">
        <ele>97</ele>
        <time>2014-05-25T11:38:45Z</time>
      </trkpt>
      <trkpt lat="48.75302" lon="2.52292">
        <ele>97</ele>
        <time>2014-05-25T11:38:46Z</time>
      </trkpt>
      <trkpt lat="48.75302" lon="2.5229">
        <ele>97</ele>
        <time>2014-05-25T11:38:47Z</time>
      </trkpt>
      <trkpt lat="48.75301" lon="2.52288">
        <ele>97</ele>
        <time>2014-05-25T11:38:48Z</time>
      </trkpt>
      <trkpt lat="48.75301" lon="2.52287">
        <ele>96</ele>
        <time>2014-05-25T11:38:49Z</time>
      </trkpt>
      <trkpt lat="48.753" lon="2.52286">
        <ele>96</ele>
        <time>2014-05-25T11:38:50Z</time>
      </trkpt>
      <trkpt lat="48.75298" lon="2.52285">
        <ele>96</ele>
        <time>2014-05-25T11:38:51Z</time>
      </trkpt>
      <trkpt lat="48.75297" lon="2.52284">
        <ele>97</ele>
        <time>2014-05-25T11:38:52Z</time>
      </trkpt>
      <trkpt lat="48.75297" lon="2.52283">
        <ele>97</ele>
        <time>2014-05-25T11:38:53Z</time>
      </trkpt>
      <trkpt lat="48.75296" lon="2.52282">
        <ele>97</ele>
        <time>2014-05-25T11:38:54Z</time>
      </trkpt>
      <trkpt lat="48.75295" lon="2.52282">
        <ele>97</ele>
        <time>2014-05-25T11:38:55Z</time>
      </trkpt>
      <trkpt lat="48.75294" lon="2.52281">
        <ele>97</ele>
        <time>2014-05-25T11:38:56Z</time>
      </trkpt>
      <trkpt lat="48.75293" lon="2.5228">
        <ele>97</ele>
        <time>2014-05-25T11:38:57Z</time>
      </trkpt>
      <trkpt lat="48.75293" lon="2.5228">
        <ele>97</ele>
        <time>2014-05-25T11:38:58Z</time>
      </trkpt>
      <trkpt lat="48.75293" lon="2.5228">
        <ele>97</ele>
        <time>2014-05-25T11:38:59Z</time>
      </trkpt>
      <trkpt lat="48.75293" lon="2.5228">
        <ele>98</ele>
        <time>2014-05-25T11:39:00Z</time>
      </trkpt>
      <trkpt lat="48.75293" lon="2.5228">
        <ele>98</ele>
        <time>2014-05-25T11:39:01Z</time>
      </trkpt>
      <trkpt lat="48.75293" lon="2.5228">
        <ele>98</ele>
        <time>2014-05-25T11:39:02Z</time>
      </trkpt>
      <trkpt lat="48.75293" lon="2.52279">
        <ele>98</ele>
        <time>2014-05-25T11:39:03Z</time>
      </trkpt>
      <trkpt lat="48.75293" lon="2.52279">
        <ele>98</ele>
        <time>2014-05-25T11:39:04Z</time>
      </trkpt>
      <trkpt lat="48.75293" lon="2.52279">
        <ele>98</ele>
        <time>2014-05-25T11:39:05Z</time>
      </trkpt>
      <trkpt lat="48.75293" lon="2.52279">
        <ele>98</ele>
        <time>2014-05-25T11:39:06Z</time>
      </trkpt>
      <trkpt lat="48.75293" lon="2.52279">
        <ele>98</ele>
        <time>2014-05-25T11:39:07Z</time>
      </trkpt>
      <trkpt lat="48.75293" lon="2.52279">
        <ele>98</ele>
        <time>2014-05-25T11:39:08Z</time>
      </trkpt>
      <trkpt lat="48.75293" lon="2.52279">
        <ele>96</ele>
        <time>2014-05-25T11:39:09Z</time>
      </trkpt>
      <trkpt lat="48.75293" lon="2.52279">
        <ele>96</ele>
        <time>2014-05-25T11:39:10Z</time>
      </trkpt>
      <trkpt lat="48.75293" lon="2.52279">
        <ele>96</ele>
        <time>2014-05-25T11:39:11Z</time>
      </trkpt>
      <trkpt lat="48.75293" lon="2.52279">
        <ele>96</ele>
        <time>2014-05-25T11:39:12Z</time>
      </trkpt>
      <trkpt lat="48.75293" lon="2.52279">
        <ele>96</ele>
        <time>2014-05-25T11:39:13Z</time>
      </trkpt>
      <trkpt lat="48.75293" lon="2.5228">
        <ele>96</ele>
        <time>2014-05-25T11:39:14Z</time>
      </trkpt>
      <trkpt lat="48.75293" lon="2.5228">
        <ele>96</ele>
        <time>2014-05-25T11:39:15Z</time>
      </trkpt>
      <trkpt lat="48.75294" lon="2.5228">
        <ele>96</ele>
        <time>2014-05-25T11:39:16Z</time>
      </trkpt>
      <trkpt lat="48.75293" lon="2.5228">
        <ele>96</ele>
        <time>2014-05-25T11:39:17Z</time>
      </trkpt>
      <trkpt lat="48.75293" lon="2.5228">
        <ele>96</ele>
        <time>2014-05-25T11:39:18Z</time>
      </trkpt>
      <trkpt lat="48.75293" lon="2.5228">
        <ele>96</ele>
        <time>2014-05-25T11:39:19Z</time>
      </trkpt>
      <trkpt lat="48.75293" lon="2.5228">
        <ele>96</ele>
        <time>2014-05-25T11:39:20Z</time>
      </trkpt>
      <trkpt lat="48.75293" lon="2.5228">
        <ele>97</ele>
        <time>2014-05-25T11:39:21Z</time>
      </trkpt>
      <trkpt lat="48.75293" lon="2.5228">
        <ele>97</ele>
        <time>2014-05-25T11:39:22Z</time>
      </trkpt>
      <trkpt lat="48.75293" lon="2.5228">
        <ele>97</ele>
        <time>2014-05-25T11:39:23Z</time>
      </trkpt>
      <trkpt lat="48.75293" lon="2.5228">
        <ele>97</ele>
        <time>2014-05-25T11:39:24Z</time>
      </trkpt>
      <trkpt lat="48.75293" lon="2.5228">
        <ele>97</ele>
        <time>2014-05-25T11:39:25Z</time>
      </trkpt>
      <trkpt lat="48.75293" lon="2.5228">
        <ele>97</ele>
        <time>2014-05-25T11:39:26Z</time>
      </trkpt>
      <trkpt lat="48.75293" lon="2.5228">
        <ele>97</ele>
        <time>2014-05-25T11:39:27Z</time>
      </trkpt>
      <trkpt lat="48.75293" lon="2.5228">
        <ele>97</ele>
        <time>2014-05-25T11:39:28Z</time>
      </trkpt>
      <trkpt lat="48.75293" lon="2.5228">
        <ele>97</ele>
        <time>2014-05-25T11:39:29Z</time>
      </trkpt>
      <trkpt lat="48.75293" lon="2.5228">
        <ele>97</ele>
        <time>2014-05-25T11:39:30Z</time>
      </trkpt>
      <trkpt lat="48.75293" lon="2.5228">
        <ele>97</ele>
        <time>2014-05-25T11:39:31Z</time>
      </trkpt>
      <trkpt lat="48.75293" lon="2.5228">
        <ele>97</ele>
        <time>2014-05-25T11:39:32Z</time>
      </trkpt>
      <trkpt lat="48.75293" lon="2.5228">
        <ele>97</ele>
        <time>2014-05-25T11:39:33Z</time>
      </trkpt>
      <trkpt lat="48.75293" lon="2.5228">
        <ele>97</ele>
        <time>2014-05-25T11:39:34Z</time>
      </trkpt>
      <trkpt lat="48.75293" lon="2.5228">
        <ele>97</ele>
        <time>2014-05-25T11:39:35Z</time>
      </trkpt>
      <trkpt lat="48.75293" lon="2.5228">
        <ele>97</ele>
        <time>2014-05-25T11:39:36Z</time>
      </trkpt>
      <trkpt lat="48.75293" lon="2.5228">
        <ele>97</ele>
        <time>2014-05-25T11:39:37Z</time>
      </trkpt>
      <trkpt lat="48.75293" lon="2.5228">
        <ele>97</ele>
        <time>2014-05-25T11:39:38Z</time>
      </trkpt>
      <trkpt lat="48.75293" lon="2.5228">
        <ele>97</ele>
        <time>2014-05-25T11:39:39Z</time>
      </trkpt>
      <trkpt lat="48.75293" lon="2.5228">
        <ele>97</ele>
        <time>2014-05-25T11:39:40Z</time>
      </trkpt>
      <trkpt lat="48.75293" lon="2.5228">
        <ele>97</ele>
        <time>2014-05-25T11:39:41Z</time>
      </trkpt>
      <trkpt lat="48.75293" lon="2.5228">
        <ele>97</ele>
        <time>2014-05-25T11:39:42Z</time>
      </trkpt>
      <trkpt lat="48.75293" lon="2.5228">
        <ele>97</ele>
        <time>2014-05-25T11:39:43Z</time>
      </trkpt>
      <trkpt lat="48.75293" lon="2.5228">
        <ele>97</ele>
        <time>2014-05-25T11:39:44Z</time>
      </trkpt>
      <trkpt lat="48.75293" lon="2.5228">
        <ele>97</ele>
        <time>2014-05-25T11:39:45Z</time>
      </trkpt>
      <trkpt lat="48.75293" lon="2.5228">
        <ele>97</ele>
        <time>2014-05-25T11:39:46Z</time>
      </trkpt>
      <trkpt lat="48.75293" lon="2.5228">
        <ele>97</ele>
        <time>2014-05-25T11:39:47Z</time>
      </trkpt>
      <trkpt lat="48.75293" lon="2.5228">
        <ele>97</ele>
        <time>2014-05-25T11:39:48Z</time>
      </trkpt>
      <trkpt lat="48.75293" lon="2.5228">
        <ele>97</ele>
        <time>2014-05-25T11:39:49Z</time>
      </trkpt>
      <trkpt lat="48.75293" lon="2.5228">
        <ele>97</ele>
        <time>2014-05-25T11:39:50Z</time>
      </trkpt>
      <trkpt lat="48.75293" lon="2.5228">
        <ele>97</ele>
        <time>2014-05-25T11:39:51Z</time>
      </trkpt>
      <trkpt lat="48.75293" lon="2.5228">
        <ele>97</ele>
        <time>2014-05-25T11:39:52Z</time>
      </trkpt>
      <trkpt lat="48.75293" lon="2.5228">
        <ele>97</ele>
        <time>2014-05-25T11:39:53Z</time>
      </trkpt>
      <trkpt lat="48.75293" lon="2.5228">
        <ele>97</ele>
        <time>2014-05-25T11:39:54Z</time>
      </trkpt>
      <trkpt lat="48.75293" lon="2.5228">
        <ele>97</ele>
        <time>2014-05-25T11:39:55Z</time>
      </trkpt>
      <trkpt lat="48.75293" lon="2.5228">
        <ele>97</ele>
        <time>2014-05-25T11:39:56Z</time>
      </trkpt>
      <trkpt lat="48.75293" lon="2.5228">
        <ele>97</ele>
        <time>2014-05-25T11:39:57Z</time>
      </trkpt>
      <trkpt lat="48.75293" lon="2.5228">
        <ele>97</ele>
        <time>2014-05-25T11:39:58Z</time>
      </trkpt>
      <trkpt lat="48.75293" lon="2.5228">
        <ele>97</ele>
        <time>2014-05-25T11:39:59Z</time>
      </trkpt>
      <trkpt lat="48.75293" lon="2.5228">
        <ele>97</ele>
        <time>2014-05-25T11:40:00Z</time>
      </trkpt>
      <trkpt lat="48.75293" lon="2.5228">
        <ele>97</ele>
        <time>2014-05-25T11:40:01Z</time>
      </trkpt>
      <trkpt lat="48.75293" lon="2.5228">
        <ele>97</ele>
        <time>2014-05-25T11:40:02Z</time>
      </trkpt>
      <trkpt lat="48.75293" lon="2.5228">
        <ele>97</ele>
        <time>2014-05-25T11:40:03Z</time>
      </trkpt>
      <trkpt lat="48.75293" lon="2.5228">
        <ele>97</ele>
        <time>2014-05-25T11:40:04Z</time>
      </trkpt>
      <trkpt lat="48.75293" lon="2.5228">
        <ele>97</ele>
        <time>2014-05-25T11:40:05Z</time>
      </trkpt>
      <trkpt lat="48.75293" lon="2.5228">
        <ele>97</ele>
        <time>2014-05-25T11:40:06Z</time>
      </trkpt>
      <trkpt lat="48.75293" lon="2.5228">
        <ele>97</ele>
        <time>2014-05-25T11:40:07Z</time>
      </trkpt>
      <trkpt lat="48.75293" lon="2.5228">
        <ele>97</ele>
        <time>2014-05-25T11:40:08Z</time>
      </trkpt>
      <trkpt lat="48.75293" lon="2.5228">
        <ele>97</ele>
        <time>2014-05-25T11:40:09Z</time>
      </trkpt>
      <trkpt lat="48.75293" lon="2.5228">
        <ele>97</ele>
        <time>2014-05-25T11:40:10Z</time>
      </trkpt>
      <trkpt lat="48.75293" lon="2.5228">
        <ele>97</ele>
        <time>2014-05-25T11:40:11Z</time>
      </trkpt>
      <trkpt lat="48.75293" lon="2.5228">
        <ele>97</ele>
        <time>2014-05-25T11:40:12Z</time>
      </trkpt>
      <trkpt lat="48.75293" lon="2.5228">
        <ele>97</ele>
        <time>2014-05-25T11:40:13Z</time>
      </trkpt>
      <trkpt lat="48.75293" lon="2.5228">
        <ele>97</ele>
        <time>2014-05-25T11:40:14Z</time>
      </trkpt>
      <trkpt lat="48.75293" lon="2.5228">
        <ele>97</ele>
        <time>2014-05-25T11:40:15Z</time>
      </trkpt>
      <trkpt lat="48.75293" lon="2.5228">
        <ele>97</ele>
        <time>2014-05-25T11:40:16Z</time>
      </trkpt>
      <trkpt lat="48.75293" lon="2.5228">
        <ele>97</ele>
        <time>2014-05-25T11:40:17Z</time>
      </trkpt>
      <trkpt lat="48.75293" lon="2.5228">
        <ele>97</ele>
        <time>2014-05-25T11:40:18Z</time>
      </trkpt>
      <trkpt lat="48.75293" lon="2.5228">
        <ele>97</ele>
        <time>2014-05-25T11:40:19Z</time>
      </trkpt>
      <trkpt lat="48.75293" lon="2.5228">
        <ele>97</ele>
        <time>2014-05-25T11:40:20Z</time>
      </trkpt>
      <trkpt lat="48.75293" lon="2.5228">
        <ele>97</ele>
        <time>2014-05-25T11:40:21Z</time>
      </trkpt>
      <trkpt lat="48.75293" lon="2.5228">
        <ele>97</ele>
        <time>2014-05-25T11:40:22Z</time>
      </trkpt>
      <trkpt lat="48.75293" lon="2.5228">
        <ele>97</ele>
        <time>2014-05-25T11:40:23Z</time>
      </trkpt>
      <trkpt lat="48.75293" lon="2.5228">
        <ele>97</ele>
        <time>2014-05-25T11:40:24Z</time>
      </trkpt>
      <trkpt lat="48.75293" lon="2.5228">
        <ele>97</ele>
        <time>2014-05-25T11:40:25Z</time>
      </trkpt>
      <trkpt lat="48.75293" lon="2.5228">
        <ele>97</ele>
        <time>2014-05-25T11:40:26Z</time>
      </trkpt>
      <trkpt lat="48.75293" lon="2.5228">
        <ele>97</ele>
        <time>2014-05-25T11:40:27Z</time>
      </trkpt>
      <trkpt lat="48.75293" lon="2.5228">
        <ele>97</ele>
        <time>2014-05-25T11:40:28Z</time>
      </trkpt>
      <trkpt lat="48.75293" lon="2.5228">
        <ele>97</ele>
        <time>2014-05-25T11:40:29Z</time>
      </trkpt>
      <trkpt lat="48.75293" lon="2.5228">
        <ele>97</ele>
        <time>2014-05-25T11:40:30Z</time>
      </trkpt>
      <trkpt lat="48.75293" lon="2.5228">
        <ele>97</ele>
        <time>2014-05-25T11:40:31Z</time>
      </trkpt>
      <trkpt lat="48.75293" lon="2.5228">
        <ele>97</ele>
        <time>2014-05-25T11:40:32Z</time>
      </trkpt>
      <trkpt lat="48.75293" lon="2.5228">
        <ele>97</ele>
        <time>2014-05-25T11:40:33Z</time>
      </trkpt>
      <trkpt lat="48.75293" lon="2.5228">
        <ele>97</ele>
        <time>2014-05-25T11:40:34Z</time>
      </trkpt>
      <trkpt lat="48.75293" lon="2.5228">
        <ele>97</ele>
        <time>2014-05-25T11:40:35Z</time>
      </trkpt>
      <trkpt lat="48.75293" lon="2.5228">
        <ele>97</ele>
        <time>2014-05-25T11:40:36Z</time>
      </trkpt>
      <trkpt lat="48.75293" lon="2.5228">
        <ele>97</ele>
        <time>2014-05-25T11:40:37Z</time>
      </trkpt>
      <trkpt lat="48.75293" lon="2.5228">
        <ele>97</ele>
        <time>2014-05-25T11:40:38Z</time>
      </trkpt>
      <trkpt lat="48.75293" lon="2.5228">
        <ele>97</ele>
        <time>2014-05-25T11:40:39Z</time>
      </trkpt>
      <trkpt lat="48.75293" lon="2.5228">
        <ele>97</ele>
        <time>2014-05-25T11:40:40Z</time>
      </trkpt>
      <trkpt lat="48.75293" lon="2.5228">
        <ele>97</ele>
        <time>2014-05-25T11:40:41Z</time>
      </trkpt>
      <trkpt lat="48.75293" lon="2.5228">
        <ele>97</ele>
        <time>2014-05-25T11:40:42Z</time>
      </trkpt>
      <trkpt lat="48.75293" lon="2.5228">
        <ele>97</ele>
        <time>2014-05-25T11:40:43Z</time>
      </trkpt>
      <trkpt lat="48.75293" lon="2.5228">
        <ele>97</ele>
        <time>2014-05-25T11:40:44Z</time>
      </trkpt>
      <trkpt lat="48.75293" lon="2.5228">
        <ele>97</ele>
        <time>2014-05-25T11:40:45Z</time>
      </trkpt>
      <trkpt lat="48.75293" lon="2.5228">
        <ele>97</ele>
        <time>2014-05-25T11:40:46Z</time>
      </trkpt>
      <trkpt lat="48.75293" lon="2.5228">
        <ele>97</ele>
        <time>2014-05-25T11:40:47Z</time>
      </trkpt>
      <trkpt lat="48.75293" lon="2.5228">
        <ele>97</ele>
        <time>2014-05-25T11:40:48Z</time>
      </trkpt>
      <trkpt lat="48.75293" lon="2.5228">
        <ele>97</ele>
        <time>2014-05-25T11:40:49Z</time>
      </trkpt>
      <trkpt lat="48.75293" lon="2.5228">
        <ele>97</ele>
        <time>2014-05-25T11:40:50Z</time>
      </trkpt>
      <trkpt lat="48.75293" lon="2.5228">
        <ele>97</ele>
        <time>2014-05-25T11:40:51Z</time>
      </trkpt>
      <trkpt lat="48.75293" lon="2.5228">
        <ele>97</ele>
        <time>2014-05-25T11:40:52Z</time>
      </trkpt>
      <trkpt lat="48.75293" lon="2.5228">
        <ele>97</ele>
        <time>2014-05-25T11:40:53Z</time>
      </trkpt>
      <trkpt lat="48.75293" lon="2.5228">
        <ele>97</ele>
        <time>2014-05-25T11:40:54Z</time>
      </trkpt>
      <trkpt lat="48.75293" lon="2.5228">
        <ele>97</ele>
        <time>2014-05-25T11:40:55Z</time>
      </trkpt>
      <trkpt lat="48.75293" lon="2.5228">
        <ele>97</ele>
        <time>2014-05-25T11:40:56Z</time>
      </trkpt>
      <trkpt lat="48.75293" lon="2.5228">
        <ele>97</ele>
        <time>2014-05-25T11:40:57Z</time>
      </trkpt>
      <trkpt lat="48.75293" lon="2.5228">
        <ele>97</ele>
        <time>2014-05-25T11:40:58Z</time>
      </trkpt>
      <trkpt lat="48.75293" lon="2.5228">
        <ele>97</ele>
        <time>2014-05-25T11:40:59Z</time>
      </trkpt>
      <trkpt lat="48.75293" lon="2.5228">
        <ele>97</ele>
        <time>2014-05-25T11:41:00Z</time>
      </trkpt>
      <trkpt lat="48.75293" lon="2.5228">
        <ele>97</ele>
        <time>2014-05-25T11:41:01Z</time>
      </trkpt>
      <trkpt lat="48.75293" lon="2.5228">
        <ele>97</ele>
        <time>2014-05-25T11:41:02Z</time>
      </trkpt>
      <trkpt lat="48.75293" lon="2.5228">
        <ele>97</ele>
        <time>2014-05-25T11:41:03Z</time>
      </trkpt>
      <trkpt lat="48.75293" lon="2.5228">
        <ele>97</ele>
        <time>2014-05-25T11:41:04Z</time>
      </trkpt>
      <trkpt lat="48.75293" lon="2.5228">
        <ele>97</ele>
        <time>2014-05-25T11:41:05Z</time>
      </trkpt>
      <trkpt lat="48.75293" lon="2.5228">
        <ele>97</ele>
        <time>2014-05-25T11:41:06Z</time>
      </trkpt>
      <trkpt lat="48.75293" lon="2.5228">
        <ele>97</ele>
        <time>2014-05-25T11:41:07Z</time>
      </trkpt>
      <trkpt lat="48.75293" lon="2.5228">
        <ele>97</ele>
        <time>2014-05-25T11:41:08Z</time>
      </trkpt>
      <trkpt lat="48.75293" lon="2.5228">
        <ele>97</ele>
        <time>2014-05-25T11:41:09Z</time>
      </trkpt>
      <trkpt lat="48.75293" lon="2.5228">
        <ele>97</ele>
        <time>2014-05-25T11:41:10Z</time>
      </trkpt>
      <trkpt lat="48.75293" lon="2.5228">
        <ele>97</ele>
        <time>2014-05-25T11:41:11Z</time>
      </trkpt>
      <trkpt lat="48.75293" lon="2.5228">
        <ele>97</ele>
        <time>2014-05-25T11:41:12Z</time>
      </trkpt>
      <trkpt lat="48.75293" lon="2.5228">
        <ele>97</ele>
        <time>2014-05-25T11:41:13Z</time>
      </trkpt>
      <trkpt lat="48.75293" lon="2.5228">
        <ele>97</ele>
        <time>2014-05-25T11:41:14Z</time>
      </trkpt>
      <trkpt lat="48.75293" lon="2.5228">
        <ele>97</ele>
        <time>2014-05-25T11:41:15Z</time>
      </trkpt>
      <trkpt lat="48.75293" lon="2.5228">
        <ele>97</ele>
        <time>2014-05-25T11:41:16Z</time>
      </trkpt>
      <trkpt lat="48.75293" lon="2.5228">
        <ele>97</ele>
        <time>2014-05-25T11:41:17Z</time>
      </trkpt>
      <trkpt lat="48.75293" lon="2.5228">
        <ele>97</ele>
        <time>2014-05-25T11:41:18Z</time>
      </trkpt>
      <trkpt lat="48.75293" lon="2.5228">
        <ele>97</ele>
        <time>2014-05-25T11:41:19Z</time>
      </trkpt>
      <trkpt lat="48.75293" lon="2.5228">
        <ele>97</ele>
        <time>2014-05-25T11:41:20Z</time>
      </trkpt>
      <trkpt lat="48.75293" lon="2.5228">
        <ele>97</ele>
        <time>2014-05-25T11:41:21Z</time>
      </trkpt>
      <trkpt lat="48.75293" lon="2.5228">
        <ele>97</ele>
        <time>2014-05-25T11:41:22Z</time>
      </trkpt>
      <trkpt lat="48.75293" lon="2.5228">
        <ele>97</ele>
        <time>2014-05-25T11:41:23Z</time>
      </trkpt>
      <trkpt lat="48.75293" lon="2.5228">
        <ele>97</ele>
        <time>2014-05-25T11:41:24Z</time>
      </trkpt>
      <trkpt lat="48.75293" lon="2.5228">
        <ele>97</ele>
        <time>2014-05-25T11:41:25Z</time>
      </trkpt>
      <trkpt lat="48.75293" lon="2.5228">
        <ele>97</ele>
        <time>2014-05-25T11:41:26Z</time>
      </trkpt>
      <trkpt lat="48.75293" lon="2.5228">
        <ele>97</ele>
        <time>2014-05-25T11:41:27Z</time>
      </trkpt>
      <trkpt lat="48.75293" lon="2.5228">
        <ele>97</ele>
        <time>2014-05-25T11:41:28Z</time>
      </trkpt>
      <trkpt lat="48.75293" lon="2.5228">
        <ele>97</ele>
        <time>2014-05-25T11:41:29Z</time>
      </trkpt>
      <trkpt lat="48.75293" lon="2.5228">
        <ele>97</ele>
        <time>2014-05-25T11:41:30Z</time>
      </trkpt>
      <trkpt lat="48.75293" lon="2.5228">
        <ele>97</ele>
        <time>2014-05-25T11:41:31Z</time>
      </trkpt>
      <trkpt lat="48.75293" lon="2.5228">
        <ele>97</ele>
        <time>2014-05-25T11:41:32Z</time>
      </trkpt>
      <trkpt lat="48.75293" lon="2.5228">
        <ele>97</ele>
        <time>2014-05-25T11:41:33Z</time>
      </trkpt>
      <trkpt lat="48.75293" lon="2.5228">
        <ele>97</ele>
        <time>2014-05-25T11:41:34Z</time>
      </trkpt>
      <trkpt lat="48.75293" lon="2.5228">
        <ele>97</ele>
        <time>2014-05-25T11:41:35Z</time>
      </trkpt>
      <trkpt lat="48.75293" lon="2.5228">
        <ele>97</ele>
        <time>2014-05-25T11:41:36Z</time>
      </trkpt>
      <trkpt lat="48.75293" lon="2.5228">
        <ele>97</ele>
        <time>2014-05-25T11:41:37Z</time>
      </trkpt>
      <trkpt lat="48.75293" lon="2.5228">
        <ele>97</ele>
        <time>2014-05-25T11:41:38Z</time>
      </trkpt>
      <trkpt lat="48.75293" lon="2.5228">
        <ele>97</ele>
        <time>2014-05-25T11:41:39Z</time>
      </trkpt>
      <trkpt lat="48.75293" lon="2.5228">
        <ele>97</ele>
        <time>2014-05-25T11:41:40Z</time>
      </trkpt>
      <trkpt lat="48.75293" lon="2.5228">
        <ele>97</ele>
        <time>2014-05-25T11:41:41Z</time>
      </trkpt>
      <trkpt lat="48.75293" lon="2.5228">
        <ele>97</ele>
        <time>2014-05-25T11:41:42Z</time>
      </trkpt>
      <trkpt lat="48.75293" lon="2.5228">
        <ele>97</ele>
        <time>2014-05-25T11:41:43Z</time>
      </trkpt>
      <trkpt lat="48.75293" lon="2.5228">
        <ele>97</ele>
        <time>2014-05-25T11:41:44Z</time>
      </trkpt>
      <trkpt lat="48.75293" lon="2.5228">
        <ele>97</ele>
        <time>2014-05-25T11:41:45Z</time>
      </trkpt>
      <trkpt lat="48.75293" lon="2.5228">
        <ele>97</ele>
        <time>2014-05-25T11:41:46Z</time>
      </trkpt>
      <trkpt lat="48.75293" lon="2.5228">
        <ele>97</ele>
        <time>2014-05-25T11:41:47Z</time>
      </trkpt>
      <trkpt lat="48.75293" lon="2.5228">
        <ele>97</ele>
        <time>2014-05-25T11:41:48Z</time>
      </trkpt>
      <trkpt lat="48.75293" lon="2.5228">
        <ele>97</ele>
        <time>2014-05-25T11:41:49Z</time>
      </trkpt>
      <trkpt lat="48.75293" lon="2.5228">
        <ele>97</ele>
        <time>2014-05-25T11:41:50Z</time>
      </trkpt>
      <trkpt lat="48.75293" lon="2.5228">
        <ele>97</ele>
        <time>2014-05-25T11:41:51Z</time>
      </trkpt>
      <trkpt lat="48.75293" lon="2.5228">
        <ele>97</ele>
        <time>2014-05-25T11:41:52Z</time>
      </trkpt>
      <trkpt lat="48.75293" lon="2.5228">
        <ele>97</ele>
        <time>2014-05-25T11:41:53Z</time>
      </trkpt>
      <trkpt lat="48.75293" lon="2.5228">
        <ele>97</ele>
        <time>2014-05-25T11:41:54Z</time>
      </trkpt>
      <trkpt lat="48.75293" lon="2.5228">
        <ele>97</ele>
        <time>2014-05-25T11:41:55Z</time>
      </trkpt>
      <trkpt lat="48.75293" lon="2.5228">
        <ele>97</ele>
        <time>2014-05-25T11:41:56Z</time>
      </trkpt>
      <trkpt lat="48.75293" lon="2.5228">
        <ele>97</ele>
        <time>2014-05-25T11:41:57Z</time>
      </trkpt>
      <trkpt lat="48.75293" lon="2.5228">
        <ele>97</ele>
        <time>2014-05-25T11:41:58Z</time>
      </trkpt>
      <trkpt lat="48.75293" lon="2.5228">
        <ele>97</ele>
        <time>2014-05-25T11:41:59Z</time>
      </trkpt>
      <trkpt lat="48.75293" lon="2.5228">
        <ele>97</ele>
        <time>2014-05-25T11:42:00Z</time>
      </trkpt>
      <trkpt lat="48.75293" lon="2.5228">
        <ele>97</ele>
        <time>2014-05-25T11:42:01Z</time>
      </trkpt>
      <trkpt lat="48.75293" lon="2.5228">
        <ele>97</ele>
        <time>2014-05-25T11:42:02Z</time>
      </trkpt>
      <trkpt lat="48.75293" lon="2.5228">
        <ele>97</ele>
        <time>2014-05-25T11:42:03Z</time>
      </trkpt>
      <trkpt lat="48.75293" lon="2.5228">
        <ele>97</ele>
        <time>2014-05-25T11:42:04Z</time>
      </trkpt>
      <trkpt lat="48.75293" lon="2.5228">
        <ele>97</ele>
        <time>2014-05-25T11:42:05Z</time>
      </trkpt>
      <trkpt lat="48.75293" lon="2.5228">
        <ele>97</ele>
        <time>2014-05-25T11:42:06Z</time>
      </trkpt>
      <trkpt lat="48.75293" lon="2.5228">
        <ele>97</ele>
        <time>2014-05-25T11:42:07Z</time>
      </trkpt>
      <trkpt lat="48.75293" lon="2.5228">
        <ele>97</ele>
        <time>2014-05-25T11:42:08Z</time>
      </trkpt>
      <trkpt lat="48.75293" lon="2.5228">
        <ele>97</ele>
        <time>2014-05-25T11:42:09Z</time>
      </trkpt>
      <trkpt lat="48.75293" lon="2.5228">
        <ele>97</ele>
        <time>2014-05-25T11:42:10Z</time>
      </trkpt>
      <trkpt lat="48.75293" lon="2.5228">
        <ele>97</ele>
        <time>2014-05-25T11:42:11Z</time>
      </trkpt>
      <trkpt lat="48.75293" lon="2.5228">
        <ele>97</ele>
        <time>2014-05-25T11:42:12Z</time>
      </trkpt>
      <trkpt lat="48.75293" lon="2.5228">
        <ele>97</ele>
        <time>2014-05-25T11:42:13Z</time>
      </trkpt>
      <trkpt lat="48.75293" lon="2.5228">
        <ele>97</ele>
        <time>2014-05-25T11:42:14Z</time>
      </trkpt>
      <trkpt lat="48.75293" lon="2.5228">
        <ele>97</ele>
        <time>2014-05-25T11:42:15Z</time>
      </trkpt>
      <trkpt lat="48.75293" lon="2.5228">
        <ele>97</ele>
        <time>2014-05-25T11:42:16Z</time>
      </trkpt>
      <trkpt lat="48.75293" lon="2.5228">
        <ele>97</ele>
        <time>2014-05-25T11:42:17Z</time>
      </trkpt>
      <trkpt lat="48.75293" lon="2.5228">
        <ele>97</ele>
        <time>2014-05-25T11:42:18Z</time>
      </trkpt>
      <trkpt lat="48.75293" lon="2.5228">
        <ele>97</ele>
        <time>2014-05-25T11:42:19Z</time>
      </trkpt>
      <trkpt lat="48.75293" lon="2.5228">
        <ele>97</ele>
        <time>2014-05-25T11:42:20Z</time>
      </trkpt>
      <trkpt lat="48.75293" lon="2.5228">
        <ele>97</ele>
        <time>2014-05-25T11:42:21Z</time>
      </trkpt>
      <trkpt lat="48.75293" lon="2.5228">
        <ele>97</ele>
        <time>2014-05-25T11:42:22Z</time>
      </trkpt>
      <trkpt lat="48.75293" lon="2.5228">
        <ele>97</ele>
        <time>2014-05-25T11:42:23Z</time>
      </trkpt>
      <trkpt lat="48.75293" lon="2.5228">
        <ele>97</ele>
        <time>2014-05-25T11:42:24Z</time>
      </trkpt>
      <trkpt lat="48.75293" lon="2.5228">
        <ele>97</ele>
        <time>2014-05-25T11:42:25Z</time>
      </trkpt>
      <trkpt lat="48.75293" lon="2.5228">
        <ele>97</ele>
        <time>2014-05-25T11:42:26Z</time>
      </trkpt>
      <trkpt lat="48.75293" lon="2.5228">
        <ele>97</ele>
        <time>2014-05-25T11:42:27Z</time>
      </trkpt>
      <trkpt lat="48.75293" lon="2.5228">
        <ele>97</ele>
        <time>2014-05-25T11:42:28Z</time>
      </trkpt>
      <trkpt lat="48.75293" lon="2.5228">
        <ele>97</ele>
        <time>2014-05-25T11:42:29Z</time>
      </trkpt>
      <trkpt lat="48.75293" lon="2.5228">
        <ele>97</ele>
        <time>2014-05-25T11:42:30Z</time>
      </trkpt>
      <trkpt lat="48.75293" lon="2.5228">
        <ele>97</ele>
        <time>2014-05-25T11:42:31Z</time>
      </trkpt>
      <trkpt lat="48.75293" lon="2.5228">
        <ele>97</ele>
        <time>2014-05-25T11:42:32Z</time>
      </trkpt>
      <trkpt lat="48.75293" lon="2.5228">
        <ele>97</ele>
        <time>2014-05-25T11:42:33Z</time>
      </trkpt>
      <trkpt lat="48.75293" lon="2.5228">
        <ele>97</ele>
        <time>2014-05-25T11:42:34Z</time>
      </trkpt>
      <trkpt lat="48.75293" lon="2.5228">
        <ele>97</ele>
        <time>2014-05-25T11:42:35Z</time>
      </trkpt>
      <trkpt lat="48.75293" lon="2.5228">
        <ele>97</ele>
        <time>2014-05-25T11:42:36Z</time>
      </trkpt>
      <trkpt lat="48.75293" lon="2.5228">
        <ele>97</ele>
        <time>2014-05-25T11:42:37Z</time>
      </trkpt>
      <trkpt lat="48.75293" lon="2.52281">
        <ele>97</ele>
        <time>2014-05-25T11:42:38Z</time>
      </trkpt>
      <trkpt lat="48.75293" lon="2.52281">
        <ele>97</ele>
        <time>2014-05-25T11:42:39Z</time>
      </trkpt>
      <trkpt lat="48.75293" lon="2.52281">
        <ele>97</ele>
        <time>2014-05-25T11:42:40Z</time>
      </trkpt>
      <trkpt lat="48.75293" lon="2.52281">
        <ele>97</ele>
        <time>2014-05-25T11:42:41Z</time>
      </trkpt>
      <trkpt lat="48.75293" lon="2.52281">
        <ele>97</ele>
        <time>2014-05-25T11:42:42Z</time>
      </trkpt>
      <trkpt lat="48.75293" lon="2.52281">
        <ele>97</ele>
        <time>2014-05-25T11:42:43Z</time>
      </trkpt>
      <trkpt lat="48.75293" lon="2.52281">
        <ele>97</ele>
        <time>2014-05-25T11:42:44Z</time>
      </trkpt>
      <trkpt lat="48.75293" lon="2.52281">
        <ele>97</ele>
        <time>2014-05-25T11:42:45Z</time>
      </trkpt>
      <trkpt lat="48.75293" lon="2.5228">
        <ele>97</ele>
        <time>2014-05-25T11:42:46Z</time>
      </trkpt>
      <trkpt lat="48.75293" lon="2.5228">
        <ele>97</ele>
        <time>2014-05-25T11:42:47Z</time>
      </trkpt>
      <trkpt lat="48.75293" lon="2.5228">
        <ele>97</ele>
        <time>2014-05-25T11:42:48Z</time>
      </trkpt>
      <trkpt lat="48.75293" lon="2.5228">
        <ele>97</ele>
        <time>2014-05-25T11:42:49Z</time>
      </trkpt>
      <trkpt lat="48.75293" lon="2.5228">
        <ele>97</ele>
        <time>2014-05-25T11:42:50Z</time>
      </trkpt>
      <trkpt lat="48.75293" lon="2.5228">
        <ele>97</ele>
        <time>2014-05-25T11:42:51Z</time>
      </trkpt>
      <trkpt lat="48.75293" lon="2.5228">
        <ele>97</ele>
        <time>2014-05-25T11:42:52Z</time>
      </trkpt>
      <trkpt lat="48.75293" lon="2.5228">
        <ele>97</ele>
        <time>2014-05-25T11:42:53Z</time>
      </trkpt>
      <trkpt lat="48.75293" lon="2.5228">
        <ele>97</ele>
        <time>2014-05-25T11:42:54Z</time>
      </trkpt>
      <trkpt lat="48.75293" lon="2.5228">
        <ele>97</ele>
        <time>2014-05-25T11:42:55Z</time>
      </trkpt>
      <trkpt lat="48.75293" lon="2.5228">
        <ele>97</ele>
        <time>2014-05-25T11:42:56Z</time>
      </trkpt>
      <trkpt lat="48.75293" lon="2.5228">
        <ele>97</ele>
        <time>2014-05-25T11:42:57Z</time>
      </trkpt>
      <trkpt lat="48.75293" lon="2.5228">
        <ele>97</ele>
        <time>2014-05-25T11:42:58Z</time>
      </trkpt>
      <trkpt lat="48.75293" lon="2.5228">
        <ele>97</ele>
        <time>2014-05-25T11:42:59Z</time>
      </trkpt>
      <trkpt lat="48.75293" lon="2.5228">
        <ele>97</ele>
        <time>2014-05-25T11:43:00Z</time>
      </trkpt>
      <trkpt lat="48.75293" lon="2.5228">
        <ele>97</ele>
        <time>2014-05-25T11:43:01Z</time>
      </trkpt>
      <trkpt lat="48.75293" lon="2.5228">
        <ele>97</ele>
        <time>2014-05-25T11:43:02Z</time>
      </trkpt>
      <trkpt lat="48.75293" lon="2.5228">
        <ele>97</ele>
        <time>2014-05-25T11:43:03Z</time>
      </trkpt>
      <trkpt lat="48.75293" lon="2.5228">
        <ele>97</ele>
        <time>2014-05-25T11:43:04Z</time>
      </trkpt>
      <trkpt lat="48.75293" lon="2.5228">
        <ele>97</ele>
        <time>2014-05-25T11:43:05Z</time>
      </trkpt>
      <trkpt lat="48.75293" lon="2.5228">
        <ele>97</ele>
        <time>2014-05-25T11:43:06Z</time>
      </trkpt>
      <trkpt lat="48.75293" lon="2.5228">
        <ele>97</ele>
        <time>2014-05-25T11:43:07Z</time>
      </trkpt>
      <trkpt lat="48.75293" lon="2.5228">
        <ele>97</ele>
        <time>2014-05-25T11:43:08Z</time>
      </trkpt>
      <trkpt lat="48.75293" lon="2.5228">
        <ele>97</ele>
        <time>2014-05-25T11:43:09Z</time>
      </trkpt>
      <trkpt lat="48.75293" lon="2.5228">
        <ele>97</ele>
        <time>2014-05-25T11:43:10Z</time>
      </trkpt>
      <trkpt lat="48.75293" lon="2.5228">
        <ele>97</ele>
        <time>2014-05-25T11:43:11Z</time>
      </trkpt>
      <trkpt lat="48.75293" lon="2.5228">
        <ele>97</ele>
        <time>2014-05-25T11:43:12Z</time>
      </trkpt>
      <trkpt lat="48.75293" lon="2.5228">
        <ele>97</ele>
        <time>2014-05-25T11:43:13Z</time>
      </trkpt>
      <trkpt lat="48.75293" lon="2.5228">
        <ele>97</ele>
        <time>2014-05-25T11:43:14Z</time>
      </trkpt>
      <trkpt lat="48.75293" lon="2.5228">
        <ele>97</ele>
        <time>2014-05-25T11:43:15Z</time>
      </trkpt>
      <trkpt lat="48.75293" lon="2.5228">
        <ele>97</ele>
        <time>2014-05-25T11:43:16Z</time>
      </trkpt>
      <trkpt lat="48.75293" lon="2.5228">
        <ele>97</ele>
        <time>2014-05-25T11:43:17Z</time>
      </trkpt>
      <trkpt lat="48.75293" lon="2.5228">
        <ele>97</ele>
        <time>2014-05-25T11:43:18Z</time>
      </trkpt>
      <trkpt lat="48.75293" lon="2.5228">
        <ele>97</ele>
        <time>2014-05-25T11:43:19Z</time>
      </trkpt>
      <trkpt lat="48.75293" lon="2.5228">
        <ele>97</ele>
        <time>2014-05-25T11:43:20Z</time>
      </trkpt>
      <trkpt lat="48.75293" lon="2.5228">
        <ele>97</ele>
        <time>2014-05-25T11:43:21Z</time>
      </trkpt>
      <trkpt lat="48.75293" lon="2.5228">
        <ele>97</ele>
        <time>2014-05-25T11:43:22Z</time>
      </trkpt>
      <trkpt lat="48.75293" lon="2.5228">
        <ele>97</ele>
        <time>2014-05-25T11:43:23Z</time>
      </trkpt>
      <trkpt lat="48.75293" lon="2.5228">
        <ele>97</ele>
        <time>2014-05-25T11:43:24Z</time>
      </trkpt>
      <trkpt lat="48.75293" lon="2.5228">
        <ele>97</ele>
        <time>2014-05-25T11:43:25Z</time>
      </trkpt>
      <trkpt lat="48.75293" lon="2.5228">
        <ele>97</ele>
        <time>2014-05-25T11:43:26Z</time>
      </trkpt>
      <trkpt lat="48.75293" lon="2.5228">
        <ele>97</ele>
        <time>2014-05-25T11:43:27Z</time>
      </trkpt>
      <trkpt lat="48.75293" lon="2.5228">
        <ele>97</ele>
        <time>2014-05-25T11:43:28Z</time>
      </trkpt>
      <trkpt lat="48.75293" lon="2.5228">
        <ele>97</ele>
        <time>2014-05-25T11:43:29Z</time>
      </trkpt>
      <trkpt lat="48.75293" lon="2.5228">
        <ele>97</ele>
        <time>2014-05-25T11:43:30Z</time>
      </trkpt>
      <trkpt lat="48.75293" lon="2.5228">
        <ele>97</ele>
        <time>2014-05-25T11:43:31Z</time>
      </trkpt>
      <trkpt lat="48.75293" lon="2.5228">
        <ele>97</ele>
        <time>2014-05-25T11:43:32Z</time>
      </trkpt>
      <trkpt lat="48.75293" lon="2.5228">
        <ele>97</ele>
        <time>2014-05-25T11:43:33Z</time>
      </trkpt>
      <trkpt lat="48.75293" lon="2.5228">
        <ele>97</ele>
        <time>2014-05-25T11:43:34Z</time>
      </trkpt>
      <trkpt lat="48.75293" lon="2.5228">
        <ele>97</ele>
        <time>2014-05-25T11:43:35Z</time>
      </trkpt>
      <trkpt lat="48.75293" lon="2.5228">
        <ele>97</ele>
        <time>2014-05-25T11:43:36Z</time>
      </trkpt>
      <trkpt lat="48.75293" lon="2.5228">
        <ele>97</ele>
        <time>2014-05-25T11:43:37Z</time>
      </trkpt>
      <trkpt lat="48.75293" lon="2.5228">
        <ele>97</ele>
        <time>2014-05-25T11:43:38Z</time>
      </trkpt>
      <trkpt lat="48.75293" lon="2.5228">
        <ele>97</ele>
        <time>2014-05-25T11:43:39Z</time>
      </trkpt>
      <trkpt lat="48.75293" lon="2.5228">
        <ele>97</ele>
        <time>2014-05-25T11:43:40Z</time>
      </trkpt>
      <trkpt lat="48.75293" lon="2.5228">
        <ele>97</ele>
        <time>2014-05-25T11:43:41Z</time>
      </trkpt>
      <trkpt lat="48.75293" lon="2.5228">
        <ele>97</ele>
        <time>2014-05-25T11:43:42Z</time>
      </trkpt>
      <trkpt lat="48.75293" lon="2.5228">
        <ele>97</ele>
        <time>2014-05-25T11:43:43Z</time>
      </trkpt>
      <trkpt lat="48.75293" lon="2.5228">
        <ele>97</ele>
        <time>2014-05-25T11:43:44Z</time>
      </trkpt>
      <trkpt lat="48.75293" lon="2.5228">
        <ele>97</ele>
        <time>2014-05-25T11:43:45Z</time>
      </trkpt>
      <trkpt lat="48.75293" lon="2.5228">
        <ele>97</ele>
        <time>2014-05-25T11:43:46Z</time>
      </trkpt>
      <trkpt lat="48.75293" lon="2.5228">
        <ele>97</ele>
        <time>2014-05-25T11:43:47Z</time>
      </trkpt>
      <trkpt lat="48.75293" lon="2.5228">
        <ele>97</ele>
        <time>2014-05-25T11:43:48Z</time>
      </trkpt>
      <trkpt lat="48.75293" lon="2.5228">
        <ele>97</ele>
        <time>2014-05-25T11:43:49Z</time>
      </trkpt>
      <trkpt lat="48.75293" lon="2.5228">
        <ele>97</ele>
        <time>2014-05-25T11:43:50Z</time>
      </trkpt>
      <trkpt lat="48.75293" lon="2.5228">
        <ele>97</ele>
        <time>2014-05-25T11:43:51Z</time>
      </trkpt>
      <trkpt lat="48.75293" lon="2.5228">
        <ele>97</ele>
        <time>2014-05-25T11:43:52Z</time>
      </trkpt>
      <trkpt lat="48.75293" lon="2.5228">
        <ele>97</ele>
        <time>2014-05-25T11:43:53Z</time>
      </trkpt>
      <trkpt lat="48.75293" lon="2.5228">
        <ele>97</ele>
        <time>2014-05-25T11:43:54Z</time>
      </trkpt>
      <trkpt lat="48.75293" lon="2.5228">
        <ele>97</ele>
        <time>2014-05-25T11:43:55Z</time>
      </trkpt>
      <trkpt lat="48.75293" lon="2.5228">
        <ele>97</ele>
        <time>2014-05-25T11:43:56Z</time>
      </trkpt>
      <trkpt lat="48.75293" lon="2.5228">
        <ele>97</ele>
        <time>2014-05-25T11:43:57Z</time>
      </trkpt>
      <trkpt lat="48.75293" lon="2.5228">
        <ele>97</ele>
        <time>2014-05-25T11:43:58Z</time>
      </trkpt>
      <trkpt lat="48.75293" lon="2.5228">
        <ele>97</ele>
        <time>2014-05-25T11:43:59Z</time>
      </trkpt>
      <trkpt lat="48.75293" lon="2.5228">
        <ele>97</ele>
        <time>2014-05-25T11:44:00Z</time>
      </trkpt>
      <trkpt lat="48.75293" lon="2.5228">
        <ele>97</ele>
        <time>2014-05-25T11:44:01Z</time>
      </trkpt>
      <trkpt lat="48.75293" lon="2.5228">
        <ele>97</ele>
        <time>2014-05-25T11:44:02Z</time>
      </trkpt>
      <trkpt lat="48.75293" lon="2.5228">
        <ele>97</ele>
        <time>2014-05-25T11:44:03Z</time>
      </trkpt>
      <trkpt lat="48.75293" lon="2.5228">
        <ele>97</ele>
        <time>2014-05-25T11:44:04Z</time>
      </trkpt>
      <trkpt lat="48.75293" lon="2.5228">
        <ele>97</ele>
        <time>2014-05-25T11:44:05Z</time>
      </trkpt>
      <trkpt lat="48.75293" lon="2.5228">
        <ele>97</ele>
        <time>2014-05-25T11:44:06Z</time>
      </trkpt>
      <trkpt lat="48.75293" lon="2.5228">
        <ele>97</ele>
        <time>2014-05-25T11:44:07Z</time>
      </trkpt>
      <trkpt lat="48.75293" lon="2.5228">
        <ele>97</ele>
        <time>2014-05-25T11:44:08Z</time>
      </trkpt>
      <trkpt lat="48.75293" lon="2.5228">
        <ele>97</ele>
        <time>2014-05-25T11:44:09Z</time>
      </trkpt>
      <trkpt lat="48.75293" lon="2.5228">
        <ele>97</ele>
        <time>2014-05-25T11:44:10Z</time>
      </trkpt>
      <trkpt lat="48.75293" lon="2.5228">
        <ele>97</ele>
        <time>2014-05-25T11:44:11Z</time>
      </trkpt>
      <trkpt lat="48.75293" lon="2.5228">
        <ele>97</ele>
        <time>2014-05-25T11:44:12Z</time>
      </trkpt>
      <trkpt lat="48.75293" lon="2.5228">
        <ele>97</ele>
        <time>2014-05-25T11:44:13Z</time>
      </trkpt>
      <trkpt lat="48.75293" lon="2.5228">
        <ele>97</ele>
        <time>2014-05-25T11:44:14Z</time>
      </trkpt>
      <trkpt lat="48.75293" lon="2.5228">
        <ele>97</ele>
        <time>2014-05-25T11:44:15Z</time>
      </trkpt>
      <trkpt lat="48.75293" lon="2.5228">
        <ele>97</ele>
        <time>2014-05-25T11:44:16Z</time>
      </trkpt>
      <trkpt lat="48.75293" lon="2.5228">
        <ele>97</ele>
        <time>2014-05-25T11:44:17Z</time>
      </trkpt>
      <trkpt lat="48.75293" lon="2.5228">
        <ele>97</ele>
        <time>2014-05-25T11:44:18Z</time>
      </trkpt>
      <trkpt lat="48.75293" lon="2.5228">
        <ele>97</ele>
        <time>2014-05-25T11:44:19Z</time>
      </trkpt>
      <trkpt lat="48.75293" lon="2.5228">
        <ele>97</ele>
        <time>2014-05-25T11:44:20Z</time>
      </trkpt>
      <trkpt lat="48.75293" lon="2.5228">
        <ele>97</ele>
        <time>2014-05-25T11:44:21Z</time>
      </trkpt>
      <trkpt lat="48.75293" lon="2.5228">
        <ele>97</ele>
        <time>2014-05-25T11:44:22Z</time>
      </trkpt>
      <trkpt lat="48.75293" lon="2.5228">
        <ele>97</ele>
        <time>2014-05-25T11:44:23Z</time>
      </trkpt>
      <trkpt lat="48.75293" lon="2.5228">
        <ele>97</ele>
        <time>2014-05-25T11:44:24Z</time>
      </trkpt>
      <trkpt lat="48.75293" lon="2.5228">
        <ele>97</ele>
        <time>2014-05-25T11:44:25Z</time>
      </trkpt>
      <trkpt lat="48.75293" lon="2.5228">
        <ele>97</ele>
        <time>2014-05-25T11:44:26Z</time>
      </trkpt>
      <trkpt lat="48.75293" lon="2.5228">
        <ele>97</ele>
        <time>2014-05-25T11:44:27Z</time>
      </trkpt>
      <trkpt lat="48.75293" lon="2.5228">
        <ele>97</ele>
        <time>2014-05-25T11:44:28Z</time>
      </trkpt>
      <trkpt lat="48.75293" lon="2.5228">
        <ele>97</ele>
        <time>2014-05-25T11:44:29Z</time>
      </trkpt>
      <trkpt lat="48.75293" lon="2.5228">
        <ele>97</ele>
        <time>2014-05-25T11:44:30Z</time>
      </trkpt>
      <trkpt lat="48.75293" lon="2.5228">
        <ele>97</ele>
        <time>2014-05-25T11:44:31Z</time>
      </trkpt>
      <trkpt lat="48.75293" lon="2.5228">
        <ele>97</ele>
        <time>2014-05-25T11:44:32Z</time>
      </trkpt>
      <trkpt lat="48.75293" lon="2.5228">
        <ele>97</ele>
        <time>2014-05-25T11:44:33Z</time>
      </trkpt>
      <trkpt lat="48.75293" lon="2.5228">
        <ele>97</ele>
        <time>2014-05-25T11:44:34Z</time>
      </trkpt>
      <trkpt lat="48.75293" lon="2.5228">
        <ele>97</ele>
        <time>2014-05-25T11:44:35Z</time>
      </trkpt>
      <trkpt lat="48.75293" lon="2.5228">
        <ele>97</ele>
        <time>2014-05-25T11:44:36Z</time>
      </trkpt>
      <trkpt lat="48.75293" lon="2.5228">
        <ele>97</ele>
        <time>2014-05-25T11:44:37Z</time>
      </trkpt>
      <trkpt lat="48.75293" lon="2.5228">
        <ele>97</ele>
        <time>2014-05-25T11:44:38Z</time>
      </trkpt>
      <trkpt lat="48.75293" lon="2.5228">
        <ele>97</ele>
        <time>2014-05-25T11:44:39Z</time>
      </trkpt>
      <trkpt lat="48.75293" lon="2.5228">
        <ele>97</ele>
        <time>2014-05-25T11:44:40Z</time>
      </trkpt>
      <trkpt lat="48.75293" lon="2.5228">
        <ele>97</ele>
        <time>2014-05-25T11:44:41Z</time>
      </trkpt>
      <trkpt lat="48.75293" lon="2.5228">
        <ele>97</ele>
        <time>2014-05-25T11:44:42Z</time>
      </trkpt>
      <trkpt lat="48.75293" lon="2.5228">
        <ele>97</ele>
        <time>2014-05-25T11:44:43Z</time>
      </trkpt>
      <trkpt lat="48.75293" lon="2.5228">
        <ele>97</ele>
        <time>2014-05-25T11:44:44Z</time>
      </trkpt>
      <trkpt lat="48.75293" lon="2.5228">
        <ele>97</ele>
        <time>2014-05-25T11:44:45Z</time>
      </trkpt>
      <trkpt lat="48.75293" lon="2.5228">
        <ele>97</ele>
        <time>2014-05-25T11:44:46Z</time>
      </trkpt>
      <trkpt lat="48.75293" lon="2.5228">
        <ele>97</ele>
        <time>2014-05-25T11:44:47Z</time>
      </trkpt>
      <trkpt lat="48.75293" lon="2.5228">
        <ele>97</ele>
        <time>2014-05-25T11:44:48Z</time>
      </trkpt>
      <trkpt lat="48.75293" lon="2.5228">
        <ele>97</ele>
        <time>2014-05-25T11:44:49Z</time>
      </trkpt>
      <trkpt lat="48.75293" lon="2.5228">
        <ele>97</ele>
        <time>2014-05-25T11:44:50Z</time>
      </trkpt>
      <trkpt lat="48.75293" lon="2.5228">
        <ele>97</ele>
        <time>2014-05-25T11:44:51Z</time>
      </trkpt>
      <trkpt lat="48.75293" lon="2.5228">
        <ele>97</ele>
        <time>2014-05-25T11:44:52Z</time>
      </trkpt>
      <trkpt lat="48.75293" lon="2.5228">
        <ele>97</ele>
        <time>2014-05-25T11:44:53Z</time>
      </trkpt>
      <trkpt lat="48.75293" lon="2.5228">
        <ele>97</ele>
        <time>2014-05-25T11:44:54Z</time>
      </trkpt>
      <trkpt lat="48.75293" lon="2.5228">
        <ele>97</ele>
        <time>2014-05-25T11:44:55Z</time>
      </trkpt>
      <trkpt lat="48.75293" lon="2.5228">
        <ele>97</ele>
        <time>2014-05-25T11:44:56Z</time>
      </trkpt>
      <trkpt lat="48.75293" lon="2.5228">
        <ele>97</ele>
        <time>2014-05-25T11:44:57Z</time>
      </trkpt>
      <trkpt lat="48.75293" lon="2.5228">
        <ele>97</ele>
        <time>2014-05-25T11:44:58Z</time>
      </trkpt>
      <trkpt lat="48.75293" lon="2.5228">
        <ele>97</ele>
        <time>2014-05-25T11:44:59Z</time>
      </trkpt>
      <trkpt lat="48.75293" lon="2.5228">
        <ele>97</ele>
        <time>2014-05-25T11:45:00Z</time>
      </trkpt>
      <trkpt lat="48.75293" lon="2.5228">
        <ele>97</ele>
        <time>2014-05-25T11:45:01Z</time>
      </trkpt>
      <trkpt lat="48.75293" lon="2.5228">
        <ele>97</ele>
        <time>2014-05-25T11:45:02Z</time>
      </trkpt>
      <trkpt lat="48.75293" lon="2.5228">
        <ele>97</ele>
        <time>2014-05-25T11:45:03Z</time>
      </trkpt>
      <trkpt lat="48.75293" lon="2.5228">
        <ele>97</ele>
        <time>2014-05-25T11:45:04Z</time>
      </trkpt>
      <trkpt lat="48.75293" lon="2.5228">
        <ele>97</ele>
        <time>2014-05-25T11:45:05Z</time>
      </trkpt>
      <trkpt lat="48.75293" lon="2.5228">
        <ele>97</ele>
        <time>2014-05-25T11:45:06Z</time>
      </trkpt>
      <trkpt lat="48.75293" lon="2.5228">
        <ele>97</ele>
        <time>2014-05-25T11:45:07Z</time>
      </trkpt>
      <trkpt lat="48.75293" lon="2.5228">
        <ele>97</ele>
        <time>2014-05-25T11:45:08Z</time>
      </trkpt>
      <trkpt lat="48.75293" lon="2.5228">
        <ele>97</ele>
        <time>2014-05-25T11:45:09Z</time>
      </trkpt>
      <trkpt lat="48.75293" lon="2.5228">
        <ele>97</ele>
        <time>2014-05-25T11:45:10Z</time>
      </trkpt>
      <trkpt lat="48.75293" lon="2.5228">
        <ele>97</ele>
        <time>2014-05-25T11:45:11Z</time>
      </trkpt>
      <trkpt lat="48.75293" lon="2.5228">
        <ele>97</ele>
        <time>2014-05-25T11:45:12Z</time>
      </trkpt>
      <trkpt lat="48.75293" lon="2.5228">
        <ele>97</ele>
        <time>2014-05-25T11:45:13Z</time>
      </trkpt>
      <trkpt lat="48.75293" lon="2.5228">
        <ele>97</ele>
        <time>2014-05-25T11:45:14Z</time>
      </trkpt>
      <trkpt lat="48.75293" lon="2.5228">
        <ele>97</ele>
        <time>2014-05-25T11:45:15Z</time>
      </trkpt>
      <trkpt lat="48.75293" lon="2.5228">
        <ele>97</ele>
        <time>2014-05-25T11:45:16Z</time>
      </trkpt>
      <trkpt lat="48.75293" lon="2.5228">
        <ele>97</ele>
        <time>2014-05-25T11:45:17Z</time>
      </trkpt>
      <trkpt lat="48.75293" lon="2.5228">
        <ele>97</ele>
        <time>2014-05-25T11:45:18Z</time>
      </trkpt>
      <trkpt lat="48.75293" lon="2.5228">
        <ele>97</ele>
        <time>2014-05-25T11:45:19Z</time>
      </trkpt>
      <trkpt lat="48.75293" lon="2.5228">
        <ele>97</ele>
        <time>2014-05-25T11:45:20Z</time>
      </trkpt>
      <trkpt lat="48.75294" lon="2.5228">
        <ele>97</ele>
        <time>2014-05-25T11:45:21Z</time>
      </trkpt>
      <trkpt lat="48.75294" lon="2.5228">
        <ele>97</ele>
        <time>2014-05-25T11:45:22Z</time>
      </trkpt>
      <trkpt lat="48.75294" lon="2.5228">
        <ele>97</ele>
        <time>2014-05-25T11:45:23Z</time>
      </trkpt>
      <trkpt lat="48.75294" lon="2.5228">
        <ele>97</ele>
        <time>2014-05-25T11:45:24Z</time>
      </trkpt>
      <trkpt lat="48.75294" lon="2.5228">
        <ele>97</ele>
        <time>2014-05-25T11:45:25Z</time>
      </trkpt>
      <trkpt lat="48.75294" lon="2.5228">
        <ele>97</ele>
        <time>2014-05-25T11:45:26Z</time>
      </trkpt>
      <trkpt lat="48.75294" lon="2.5228">
        <ele>97</ele>
        <time>2014-05-25T11:45:27Z</time>
      </trkpt>
      <trkpt lat="48.75294" lon="2.5228">
        <ele>97</ele>
        <time>2014-05-25T11:45:28Z</time>
      </trkpt>
      <trkpt lat="48.75294" lon="2.5228">
        <ele>97</ele>
        <time>2014-05-25T11:45:29Z</time>
      </trkpt>
      <trkpt lat="48.75294" lon="2.5228">
        <ele>97</ele>
        <time>2014-05-25T11:45:30Z</time>
      </trkpt>
      <trkpt lat="48.75294" lon="2.5228">
        <ele>97</ele>
        <time>2014-05-25T11:45:31Z</time>
      </trkpt>
      <trkpt lat="48.75294" lon="2.5228">
        <ele>97</ele>
        <time>2014-05-25T11:45:32Z</time>
      </trkpt>
      <trkpt lat="48.75294" lon="2.5228">
        <ele>97</ele>
        <time>2014-05-25T11:45:33Z</time>
      </trkpt>
      <trkpt lat="48.75294" lon="2.5228">
        <ele>97</ele>
        <time>2014-05-25T11:45:34Z</time>
      </trkpt>
      <trkpt lat="48.75294" lon="2.5228">
        <ele>97</ele>
        <time>2014-05-25T11:45:35Z</time>
      </trkpt>
      <trkpt lat="48.75294" lon="2.5228">
        <ele>97</ele>
        <time>2014-05-25T11:45:36Z</time>
      </trkpt>
      <trkpt lat="48.75294" lon="2.5228">
        <ele>97</ele>
        <time>2014-05-25T11:45:37Z</time>
      </trkpt>
      <trkpt lat="48.75294" lon="2.5228">
        <ele>97</ele>
        <time>2014-05-25T11:45:38Z</time>
      </trkpt>
      <trkpt lat="48.75294" lon="2.5228">
        <ele>97</ele>
        <time>2014-05-25T11:45:39Z</time>
      </trkpt>
      <trkpt lat="48.75294" lon="2.5228">
        <ele>97</ele>
        <time>2014-05-25T11:45:40Z</time>
      </trkpt>
      <trkpt lat="48.75294" lon="2.5228">
        <ele>97</ele>
        <time>2014-05-25T11:45:41Z</time>
      </trkpt>
      <trkpt lat="48.75294" lon="2.5228">
        <ele>97</ele>
        <time>2014-05-25T11:45:42Z</time>
      </trkpt>
      <trkpt lat="48.75294" lon="2.5228">
        <ele>97</ele>
        <time>2014-05-25T11:45:43Z</time>
      </trkpt>
      <trkpt lat="48.75294" lon="2.5228">
        <ele>97</ele>
        <time>2014-05-25T11:45:44Z</time>
      </trkpt>
      <trkpt lat="48.75294" lon="2.5228">
        <ele>97</ele>
        <time>2014-05-25T11:45:45Z</time>
      </trkpt>
      <trkpt lat="48.75294" lon="2.5228">
        <ele>97</ele>
        <time>2014-05-25T11:45:46Z</time>
      </trkpt>
      <trkpt lat="48.75294" lon="2.5228">
        <ele>97</ele>
        <time>2014-05-25T11:45:47Z</time>
      </trkpt>
      <trkpt lat="48.75294" lon="2.5228">
        <ele>97</ele>
        <time>2014-05-25T11:45:48Z</time>
      </trkpt>
      <trkpt lat="48.75294" lon="2.5228">
        <ele>97</ele>
        <time>2014-05-25T11:45:49Z</time>
      </trkpt>
      <trkpt lat="48.75294" lon="2.5228">
        <ele>97</ele>
        <time>2014-05-25T11:45:50Z</time>
      </trkpt>
      <trkpt lat="48.75294" lon="2.5228">
        <ele>97</ele>
        <time>2014-05-25T11:45:51Z</time>
      </trkpt>
      <trkpt lat="48.75294" lon="2.5228">
        <ele>97</ele>
        <time>2014-05-25T11:45:52Z</time>
      </trkpt>
      <trkpt lat="48.75294" lon="2.5228">
        <ele>97</ele>
        <time>2014-05-25T11:45:53Z</time>
      </trkpt>
      <trkpt lat="48.75294" lon="2.5228">
        <ele>97</ele>
        <time>2014-05-25T11:45:54Z</time>
      </trkpt>
      <trkpt lat="48.75294" lon="2.5228">
        <ele>97</ele>
        <time>2014-05-25T11:45:55Z</time>
      </trkpt>
      <trkpt lat="48.75294" lon="2.5228">
        <ele>97</ele>
        <time>2014-05-25T11:45:56Z</time>
      </trkpt>
      <trkpt lat="48.75294" lon="2.5228">
        <ele>97</ele>
        <time>2014-05-25T11:45:57Z</time>
      </trkpt>
      <trkpt lat="48.75294" lon="2.5228">
        <ele>97</ele>
        <time>2014-05-25T11:45:58Z</time>
      </trkpt>
      <trkpt lat="48.75294" lon="2.5228">
        <ele>97</ele>
        <time>2014-05-25T11:45:59Z</time>
      </trkpt>
      <trkpt lat="48.75294" lon="2.5228">
        <ele>97</ele>
        <time>2014-05-25T11:46:00Z</time>
      </trkpt>
      <trkpt lat="48.75294" lon="2.5228">
        <ele>97</ele>
        <time>2014-05-25T11:46:01Z</time>
      </trkpt>
      <trkpt lat="48.75294" lon="2.5228">
        <ele>97</ele>
        <time>2014-05-25T11:46:02Z</time>
      </trkpt>
      <trkpt lat="48.75294" lon="2.5228">
        <ele>97</ele>
        <time>2014-05-25T11:46:03Z</time>
      </trkpt>
      <trkpt lat="48.75294" lon="2.5228">
        <ele>97</ele>
        <time>2014-05-25T11:46:04Z</time>
      </trkpt>
      <trkpt lat="48.75294" lon="2.5228">
        <ele>97</ele>
        <time>2014-05-25T11:46:05Z</time>
      </trkpt>
      <trkpt lat="48.75294" lon="2.5228">
        <ele>97</ele>
        <time>2014-05-25T11:46:06Z</time>
      </trkpt>
      <trkpt lat="48.75294" lon="2.5228">
        <ele>97</ele>
        <time>2014-05-25T11:46:07Z</time>
      </trkpt>
      <trkpt lat="48.75294" lon="2.5228">
        <ele>97</ele>
        <time>2014-05-25T11:46:08Z</time>
      </trkpt>
      <trkpt lat="48.75294" lon="2.5228">
        <ele>97</ele>
        <time>2014-05-25T11:46:09Z</time>
      </trkpt>
      <trkpt lat="48.75294" lon="2.5228">
        <ele>97</ele>
        <time>2014-05-25T11:46:10Z</time>
      </trkpt>
      <trkpt lat="48.75294" lon="2.5228">
        <ele>97</ele>
        <time>2014-05-25T11:46:11Z</time>
      </trkpt>
      <trkpt lat="48.75294" lon="2.5228">
        <ele>97</ele>
        <time>2014-05-25T11:46:12Z</time>
      </trkpt>
      <trkpt lat="48.75294" lon="2.5228">
        <ele>97</ele>
        <time>2014-05-25T11:46:13Z</time>
      </trkpt>
      <trkpt lat="48.75294" lon="2.5228">
        <ele>97</ele>
        <time>2014-05-25T11:46:14Z</time>
      </trkpt>
      <trkpt lat="48.75294" lon="2.5228">
        <ele>97</ele>
        <time>2014-05-25T11:46:15Z</time>
      </trkpt>
      <trkpt lat="48.75294" lon="2.5228">
        <ele>97</ele>
        <time>2014-05-25T11:46:16Z</time>
      </trkpt>
      <trkpt lat="48.75294" lon="2.5228">
        <ele>97</ele>
        <time>2014-05-25T11:46:17Z</time>
      </trkpt>
      <trkpt lat="48.75294" lon="2.5228">
        <ele>97</ele>
        <time>2014-05-25T11:46:18Z</time>
      </trkpt>
      <trkpt lat="48.75294" lon="2.5228">
        <ele>97</ele>
        <time>2014-05-25T11:46:19Z</time>
      </trkpt>
      <trkpt lat="48.75294" lon="2.5228">
        <ele>97</ele>
        <time>2014-05-25T11:46:20Z</time>
      </trkpt>
      <trkpt lat="48.75294" lon="2.5228">
        <ele>97</ele>
        <time>2014-05-25T11:46:21Z</time>
      </trkpt>
      <trkpt lat="48.75294" lon="2.5228">
        <ele>97</ele>
        <time>2014-05-25T11:46:22Z</time>
      </trkpt>
      <trkpt lat="48.75294" lon="2.5228">
        <ele>97</ele>
        <time>2014-05-25T11:46:23Z</time>
      </trkpt>
      <trkpt lat="48.75294" lon="2.5228">
        <ele>97</ele>
        <time>2014-05-25T11:46:24Z</time>
      </trkpt>
      <trkpt lat="48.75294" lon="2.5228">
        <ele>97</ele>
        <time>2014-05-25T11:46:25Z</time>
      </trkpt>
      <trkpt lat="48.75294" lon="2.5228">
        <ele>97</ele>
        <time>2014-05-25T11:46:26Z</time>
      </trkpt>
      <trkpt lat="48.75294" lon="2.5228">
        <ele>97</ele>
        <time>2014-05-25T11:46:27Z</time>
      </trkpt>
      <trkpt lat="48.75294" lon="2.5228">
        <ele>97</ele>
        <time>2014-05-25T11:46:28Z</time>
      </trkpt>
      <trkpt lat="48.75294" lon="2.5228">
        <ele>97</ele>
        <time>2014-05-25T11:46:29Z</time>
      </trkpt>
      <trkpt lat="48.75294" lon="2.5228">
        <ele>97</ele>
        <time>2014-05-25T11:46:30Z</time>
      </trkpt>
      <trkpt lat="48.75294" lon="2.5228">
        <ele>97</ele>
        <time>2014-05-25T11:46:31Z</time>
      </trkpt>
      <trkpt lat="48.75294" lon="2.5228">
        <ele>97</ele>
        <time>2014-05-25T11:46:32Z</time>
      </trkpt>
      <trkpt lat="48.75294" lon="2.5228">
        <ele>97</ele>
        <time>2014-05-25T11:46:33Z</time>
      </trkpt>
      <trkpt lat="48.75294" lon="2.5228">
        <ele>97</ele>
        <time>2014-05-25T11:46:34Z</time>
      </trkpt>
      <trkpt lat="48.75294" lon="2.5228">
        <ele>97</ele>
        <time>2014-05-25T11:46:35Z</time>
      </trkpt>
      <trkpt lat="48.75294" lon="2.5228">
        <ele>97</ele>
        <time>2014-05-25T11:46:36Z</time>
      </trkpt>
      <trkpt lat="48.75294" lon="2.5228">
        <ele>97</ele>
        <time>2014-05-25T11:46:37Z</time>
      </trkpt>
      <trkpt lat="48.75294" lon="2.5228">
        <ele>97</ele>
        <time>2014-05-25T11:46:38Z</time>
      </trkpt>
      <trkpt lat="48.75294" lon="2.5228">
        <ele>97</ele>
        <time>2014-05-25T11:46:39Z</time>
      </trkpt>
      <trkpt lat="48.75294" lon="2.5228">
        <ele>97</ele>
        <time>2014-05-25T11:46:40Z</time>
      </trkpt>
      <trkpt lat="48.75294" lon="2.5228">
        <ele>97</ele>
        <time>2014-05-25T11:46:41Z</time>
      </trkpt>
      <trkpt lat="48.75294" lon="2.5228">
        <ele>97</ele>
        <time>2014-05-25T11:46:42Z</time>
      </trkpt>
      <trkpt lat="48.75294" lon="2.5228">
        <ele>97</ele>
        <time>2014-05-25T11:46:43Z</time>
      </trkpt>
      <trkpt lat="48.75294" lon="2.5228">
        <ele>97</ele>
        <time>2014-05-25T11:46:44Z</time>
      </trkpt>
      <trkpt lat="48.75294" lon="2.5228">
        <ele>97</ele>
        <time>2014-05-25T11:46:45Z</time>
      </trkpt>
      <trkpt lat="48.75294" lon="2.5228">
        <ele>97</ele>
        <time>2014-05-25T11:46:46Z</time>
      </trkpt>
      <trkpt lat="48.75294" lon="2.5228">
        <ele>97</ele>
        <time>2014-05-25T11:46:47Z</time>
      </trkpt>
      <trkpt lat="48.75294" lon="2.5228">
        <ele>97</ele>
        <time>2014-05-25T11:46:48Z</time>
      </trkpt>
      <trkpt lat="48.75294" lon="2.5228">
        <ele>97</ele>
        <time>2014-05-25T11:46:49Z</time>
      </trkpt>
      <trkpt lat="48.75294" lon="2.5228">
        <ele>97</ele>
        <time>2014-05-25T11:46:50Z</time>
      </trkpt>
      <trkpt lat="48.75294" lon="2.5228">
        <ele>97</ele>
        <time>2014-05-25T11:46:51Z</time>
      </trkpt>
      <trkpt lat="48.75294" lon="2.5228">
        <ele>97</ele>
        <time>2014-05-25T11:46:52Z</time>
      </trkpt>
      <trkpt lat="48.75294" lon="2.5228">
        <ele>97</ele>
        <time>2014-05-25T11:46:53Z</time>
      </trkpt>
      <trkpt lat="48.75294" lon="2.5228">
        <ele>97</ele>
        <time>2014-05-25T11:46:54Z</time>
      </trkpt>
      <trkpt lat="48.75294" lon="2.5228">
        <ele>97</ele>
        <time>2014-05-25T11:46:55Z</time>
      </trkpt>
      <trkpt lat="48.75294" lon="2.5228">
        <ele>97</ele>
        <time>2014-05-25T11:46:56Z</time>
      </trkpt>
      <trkpt lat="48.75294" lon="2.5228">
        <ele>97</ele>
        <time>2014-05-25T11:46:57Z</time>
      </trkpt>
      <trkpt lat="48.75294" lon="2.5228">
        <ele>97</ele>
        <time>2014-05-25T11:46:58Z</time>
      </trkpt>
      <trkpt lat="48.75294" lon="2.5228">
        <ele>97</ele>
        <time>2014-05-25T11:46:59Z</time>
      </trkpt>
      <trkpt lat="48.75294" lon="2.5228">
        <ele>97</ele>
        <time>2014-05-25T11:47:00Z</time>
      </trkpt>
      <trkpt lat="48.75294" lon="2.5228">
        <ele>97</ele>
        <time>2014-05-25T11:47:01Z</time>
      </trkpt>
      <trkpt lat="48.75294" lon="2.5228">
        <ele>97</ele>
        <time>2014-05-25T11:47:02Z</time>
      </trkpt>
      <trkpt lat="48.75294" lon="2.5228">
        <ele>97</ele>
        <time>2014-05-25T11:47:03Z</time>
      </trkpt>
      <trkpt lat="48.75294" lon="2.5228">
        <ele>97</ele>
        <time>2014-05-25T11:47:04Z</time>
      </trkpt>
      <trkpt lat="48.75294" lon="2.5228">
        <ele>97</ele>
        <time>2014-05-25T11:47:05Z</time>
      </trkpt>
      <trkpt lat="48.75294" lon="2.5228">
        <ele>97</ele>
        <time>2014-05-25T11:47:06Z</time>
      </trkpt>
      <trkpt lat="48.75294" lon="2.5228">
        <ele>97</ele>
        <time>2014-05-25T11:47:07Z</time>
      </trkpt>
      <trkpt lat="48.75294" lon="2.5228">
        <ele>97</ele>
        <time>2014-05-25T11:47:08Z</time>
      </trkpt>
      <trkpt lat="48.75294" lon="2.5228">
        <ele>97</ele>
        <time>2014-05-25T11:47:09Z</time>
      </trkpt>
      <trkpt lat="48.75294" lon="2.5228">
        <ele>97</ele>
        <time>2014-05-25T11:47:10Z</time>
      </trkpt>
      <trkpt lat="48.75294" lon="2.5228">
        <ele>97</ele>
        <time>2014-05-25T11:47:11Z</time>
      </trkpt>
      <trkpt lat="48.75294" lon="2.5228">
        <ele>97</ele>
        <time>2014-05-25T11:47:12Z</time>
      </trkpt>
      <trkpt lat="48.75294" lon="2.5228">
        <ele>97</ele>
        <time>2014-05-25T11:47:13Z</time>
      </trkpt>
      <trkpt lat="48.75294" lon="2.5228">
        <ele>97</ele>
        <time>2014-05-25T11:47:14Z</time>
      </trkpt>
      <trkpt lat="48.75294" lon="2.5228">
        <ele>97</ele>
        <time>2014-05-25T11:47:15Z</time>
      </trkpt>
      <trkpt lat="48.75294" lon="2.5228">
        <ele>97</ele>
        <time>2014-05-25T11:47:16Z</time>
      </trkpt>
      <trkpt lat="48.75294" lon="2.5228">
        <ele>97</ele>
        <time>2014-05-25T11:47:17Z</time>
      </trkpt>
      <trkpt lat="48.75294" lon="2.5228">
        <ele>97</ele>
        <time>2014-05-25T11:47:18Z</time>
      </trkpt>
      <trkpt lat="48.75294" lon="2.5228">
        <ele>97</ele>
        <time>2014-05-25T11:47:19Z</time>
      </trkpt>
      <trkpt lat="48.75294" lon="2.5228">
        <ele>97</ele>
        <time>2014-05-25T11:47:20Z</time>
      </trkpt>
      <trkpt lat="48.75294" lon="2.5228">
        <ele>97</ele>
        <time>2014-05-25T11:47:21Z</time>
      </trkpt>
      <trkpt lat="48.75294" lon="2.5228">
        <ele>97</ele>
        <time>2014-05-25T11:47:22Z</time>
      </trkpt>
      <trkpt lat="48.75294" lon="2.5228">
        <ele>97</ele>
        <time>2014-05-25T11:47:23Z</time>
      </trkpt>
      <trkpt lat="48.75294" lon="2.5228">
        <ele>97</ele>
        <time>2014-05-25T11:47:24Z</time>
      </trkpt>
      <trkpt lat="48.75294" lon="2.5228">
        <ele>97</ele>
        <time>2014-05-25T11:47:25Z</time>
      </trkpt>
      <trkpt lat="48.75294" lon="2.5228">
        <ele>97</ele>
        <time>2014-05-25T11:47:26Z</time>
      </trkpt>
      <trkpt lat="48.75294" lon="2.5228">
        <ele>97</ele>
        <time>2014-05-25T11:47:27Z</time>
      </trkpt>
      <trkpt lat="48.75294" lon="2.5228">
        <ele>97</ele>
        <time>2014-05-25T11:47:28Z</time>
      </trkpt>
      <trkpt lat="48.75294" lon="2.5228">
        <ele>97</ele>
        <time>2014-05-25T11:47:29Z</time>
      </trkpt>
      <trkpt lat="48.75294" lon="2.5228">
        <ele>97</ele>
        <time>2014-05-25T11:47:30Z</time>
      </trkpt>
      <trkpt lat="48.75294" lon="2.5228">
        <ele>97</ele>
        <time>2014-05-25T11:47:31Z</time>
      </trkpt>
      <trkpt lat="48.75294" lon="2.5228">
        <ele>97</ele>
        <time>2014-05-25T11:47:32Z</time>
      </trkpt>
      <trkpt lat="48.75294" lon="2.5228">
        <ele>97</ele>
        <time>2014-05-25T11:47:33Z</time>
      </trkpt>
      <trkpt lat="48.75294" lon="2.5228">
        <ele>97</ele>
        <time>2014-05-25T11:47:34Z</time>
      </trkpt>
      <trkpt lat="48.75294" lon="2.5228">
        <ele>97</ele>
        <time>2014-05-25T11:47:35Z</time>
      </trkpt>
      <trkpt lat="48.75294" lon="2.5228">
        <ele>97</ele>
        <time>2014-05-25T11:47:36Z</time>
      </trkpt>
      <trkpt lat="48.75294" lon="2.5228">
        <ele>97</ele>
        <time>2014-05-25T11:47:37Z</time>
      </trkpt>
      <trkpt lat="48.75294" lon="2.5228">
        <ele>97</ele>
        <time>2014-05-25T11:47:38Z</time>
      </trkpt>
      <trkpt lat="48.75294" lon="2.5228">
        <ele>97</ele>
        <time>2014-05-25T11:47:39Z</time>
      </trkpt>
      <trkpt lat="48.75294" lon="2.5228">
        <ele>97</ele>
        <time>2014-05-25T11:47:40Z</time>
      </trkpt>
      <trkpt lat="48.75294" lon="2.5228">
        <ele>97</ele>
        <time>2014-05-25T11:47:41Z</time>
      </trkpt>
      <trkpt lat="48.75294" lon="2.5228">
        <ele>97</ele>
        <time>2014-05-25T11:47:42Z</time>
      </trkpt>
      <trkpt lat="48.75294" lon="2.5228">
        <ele>97</ele>
        <time>2014-05-25T11:47:43Z</time>
      </trkpt>
      <trkpt lat="48.75294" lon="2.5228">
        <ele>97</ele>
        <time>2014-05-25T11:47:44Z</time>
      </trkpt>
      <trkpt lat="48.75294" lon="2.5228">
        <ele>97</ele>
        <time>2014-05-25T11:47:45Z</time>
      </trkpt>
      <trkpt lat="48.75294" lon="2.5228">
        <ele>97</ele>
        <time>2014-05-25T11:47:46Z</time>
      </trkpt>
      <trkpt lat="48.75294" lon="2.5228">
        <ele>97</ele>
        <time>2014-05-25T11:47:47Z</time>
      </trkpt>
      <trkpt lat="48.75294" lon="2.5228">
        <ele>97</ele>
        <time>2014-05-25T11:47:48Z</time>
      </trkpt>
      <trkpt lat="48.75294" lon="2.5228">
        <ele>97</ele>
        <time>2014-05-25T11:47:49Z</time>
      </trkpt>
      <trkpt lat="48.75294" lon="2.5228">
        <ele>97</ele>
        <time>2014-05-25T11:47:50Z</time>
      </trkpt>
      <trkpt lat="48.75294" lon="2.5228">
        <ele>97</ele>
        <time>2014-05-25T11:47:51Z</time>
      </trkpt>
      <trkpt lat="48.75294" lon="2.5228">
        <ele>97</ele>
        <time>2014-05-25T11:47:52Z</time>
      </trkpt>
      <trkpt lat="48.75294" lon="2.5228">
        <ele>97</ele>
        <time>2014-05-25T11:47:53Z</time>
      </trkpt>
      <trkpt lat="48.75294" lon="2.5228">
        <ele>97</ele>
        <time>2014-05-25T11:47:54Z</time>
      </trkpt>
      <trkpt lat="48.75294" lon="2.5228">
        <ele>97</ele>
        <time>2014-05-25T11:47:55Z</time>
      </trkpt>
      <trkpt lat="48.75294" lon="2.5228">
        <ele>97</ele>
        <time>2014-05-25T11:47:56Z</time>
      </trkpt>
      <trkpt lat="48.75294" lon="2.5228">
        <ele>97</ele>
        <time>2014-05-25T11:47:57Z</time>
      </trkpt>
      <trkpt lat="48.75294" lon="2.5228">
        <ele>97</ele>
        <time>2014-05-25T11:47:58Z</time>
      </trkpt>
      <trkpt lat="48.75294" lon="2.5228">
        <ele>97</ele>
        <time>2014-05-25T11:47:59Z</time>
      </trkpt>
      <trkpt lat="48.75294" lon="2.5228">
        <ele>97</ele>
        <time>2014-05-25T11:48:00Z</time>
      </trkpt>
      <trkpt lat="48.75294" lon="2.5228">
        <ele>97</ele>
        <time>2014-05-25T11:48:01Z</time>
      </trkpt>
      <trkpt lat="48.75294" lon="2.5228">
        <ele>97</ele>
        <time>2014-05-25T11:48:02Z</time>
      </trkpt>
      <trkpt lat="48.75294" lon="2.5228">
        <ele>97</ele>
        <time>2014-05-25T11:48:03Z</time>
      </trkpt>
      <trkpt lat="48.75294" lon="2.5228">
        <ele>97</ele>
        <time>2014-05-25T11:48:04Z</time>
      </trkpt>
      <trkpt lat="48.75294" lon="2.5228">
        <ele>97</ele>
        <time>2014-05-25T11:48:05Z</time>
      </trkpt>
      <trkpt lat="48.75294" lon="2.5228">
        <ele>97</ele>
        <time>2014-05-25T11:48:06Z</time>
      </trkpt>
      <trkpt lat="48.75294" lon="2.5228">
        <ele>97</ele>
        <time>2014-05-25T11:48:07Z</time>
      </trkpt>
      <trkpt lat="48.75294" lon="2.5228">
        <ele>97</ele>
        <time>2014-05-25T11:48:08Z</time>
      </trkpt>
      <trkpt lat="48.75294" lon="2.5228">
        <ele>97</ele>
        <time>2014-05-25T11:48:09Z</time>
      </trkpt>
      <trkpt lat="48.75294" lon="2.5228">
        <ele>97</ele>
        <time>2014-05-25T11:48:10Z</time>
      </trkpt>
      <trkpt lat="48.75294" lon="2.5228">
        <ele>97</ele>
        <time>2014-05-25T11:48:11Z</time>
      </trkpt>
      <trkpt lat="48.75294" lon="2.5228">
        <ele>97</ele>
        <time>2014-05-25T11:48:12Z</time>
      </trkpt>
      <trkpt lat="48.75294" lon="2.5228">
        <ele>97</ele>
        <time>2014-05-25T11:48:13Z</time>
      </trkpt>
      <trkpt lat="48.75294" lon="2.5228">
        <ele>97</ele>
        <time>2014-05-25T11:48:14Z</time>
      </trkpt>
      <trkpt lat="48.75294" lon="2.5228">
        <ele>97</ele>
        <time>2014-05-25T11:48:15Z</time>
      </trkpt>
      <trkpt lat="48.75294" lon="2.5228">
        <ele>97</ele>
        <time>2014-05-25T11:48:16Z</time>
      </trkpt>
      <trkpt lat="48.75294" lon="2.5228">
        <ele>97</ele>
        <time>2014-05-25T11:48:17Z</time>
      </trkpt>
      <trkpt lat="48.75294" lon="2.5228">
        <ele>97</ele>
        <time>2014-05-25T11:48:18Z</time>
      </trkpt>
      <trkpt lat="48.75294" lon="2.5228">
        <ele>97</ele>
        <time>2014-05-25T11:48:19Z</time>
      </trkpt>
      <trkpt lat="48.75294" lon="2.5228">
        <ele>97</ele>
        <time>2014-05-25T11:48:20Z</time>
      </trkpt>
      <trkpt lat="48.75294" lon="2.5228">
        <ele>97</ele>
        <time>2014-05-25T11:48:21Z</time>
      </trkpt>
      <trkpt lat="48.75294" lon="2.5228">
        <ele>97</ele>
        <time>2014-05-25T11:48:22Z</time>
      </trkpt>
      <trkpt lat="48.75294" lon="2.5228">
        <ele>97</ele>
        <time>2014-05-25T11:48:23Z</time>
      </trkpt>
      <trkpt lat="48.75294" lon="2.5228">
        <ele>97</ele>
        <time>2014-05-25T11:48:24Z</time>
      </trkpt>
      <trkpt lat="48.75294" lon="2.5228">
        <ele>97</ele>
        <time>2014-05-25T11:48:25Z</time>
      </trkpt>
      <trkpt lat="48.75294" lon="2.5228">
        <ele>97</ele>
        <time>2014-05-25T11:48:26Z</time>
      </trkpt>
      <trkpt lat="48.75294" lon="2.5228">
        <ele>97</ele>
        <time>2014-05-25T11:48:27Z</time>
      </trkpt>
      <trkpt lat="48.75294" lon="2.5228">
        <ele>97</ele>
        <time>2014-05-25T11:48:28Z</time>
      </trkpt>
      <trkpt lat="48.75294" lon="2.5228">
        <ele>97</ele>
        <time>2014-05-25T11:48:29Z</time>
      </trkpt>
      <trkpt lat="48.75294" lon="2.5228">
        <ele>97</ele>
        <time>2014-05-25T11:48:30Z</time>
      </trkpt>
      <trkpt lat="48.75294" lon="2.5228">
        <ele>97</ele>
        <time>2014-05-25T11:48:31Z</time>
      </trkpt>
      <trkpt lat="48.75294" lon="2.5228">
        <ele>97</ele>
        <time>2014-05-25T11:48:32Z</time>
      </trkpt>
      <trkpt lat="48.75294" lon="2.5228">
        <ele>97</ele>
        <time>2014-05-25T11:48:33Z</time>
      </trkpt>
      <trkpt lat="48.75294" lon="2.5228">
        <ele>97</ele>
        <time>2014-05-25T11:48:34Z</time>
      </trkpt>
      <trkpt lat="48.75294" lon="2.5228">
        <ele>97</ele>
        <time>2014-05-25T11:48:35Z</time>
      </trkpt>
      <trkpt lat="48.75294" lon="2.5228">
        <ele>97</ele>
        <time>2014-05-25T11:48:36Z</time>
      </trkpt>
      <trkpt lat="48.75294" lon="2.5228">
        <ele>97</ele>
        <time>2014-05-25T11:48:37Z</time>
      </trkpt>
      <trkpt lat="48.75294" lon="2.5228">
        <ele>97</ele>
        <time>2014-05-25T11:48:38Z</time>
      </trkpt>
      <trkpt lat="48.75294" lon="2.5228">
        <ele>97</ele>
        <time>2014-05-25T11:48:39Z</time>
      </trkpt>
      <trkpt lat="48.75294" lon="2.5228">
        <ele>97</ele>
        <time>2014-05-25T11:48:40Z</time>
      </trkpt>
      <trkpt lat="48.75294" lon="2.5228">
        <ele>97</ele>
        <time>2014-05-25T11:48:41Z</time>
      </trkpt>
      <trkpt lat="48.75294" lon="2.5228">
        <ele>97</ele>
        <time>2014-05-25T11:48:42Z</time>
      </trkpt>
      <trkpt lat="48.75294" lon="2.5228">
        <ele>97</ele>
        <time>2014-05-25T11:48:43Z</time>
      </trkpt>
      <trkpt lat="48.75294" lon="2.5228">
        <ele>97</ele>
        <time>2014-05-25T11:48:44Z</time>
      </trkpt>
      <trkpt lat="48.75294" lon="2.5228">
        <ele>97</ele>
        <time>2014-05-25T11:48:45Z</time>
      </trkpt>
      <trkpt lat="48.75294" lon="2.5228">
        <ele>97</ele>
        <time>2014-05-25T11:48:46Z</time>
      </trkpt>
      <trkpt lat="48.75294" lon="2.5228">
        <ele>97</ele>
        <time>2014-05-25T11:48:47Z</time>
      </trkpt>
      <trkpt lat="48.75294" lon="2.5228">
        <ele>97</ele>
        <time>2014-05-25T11:48:48Z</time>
      </trkpt>
      <trkpt lat="48.75294" lon="2.5228">
        <ele>97</ele>
        <time>2014-05-25T11:48:49Z</time>
      </trkpt>
      <trkpt lat="48.75294" lon="2.5228">
        <ele>97</ele>
        <time>2014-05-25T11:48:50Z</time>
      </trkpt>
      <trkpt lat="48.75294" lon="2.5228">
        <ele>97</ele>
        <time>2014-05-25T11:48:51Z</time>
      </trkpt>
      <trkpt lat="48.75294" lon="2.5228">
        <ele>97</ele>
        <time>2014-05-25T11:48:52Z</time>
      </trkpt>
      <trkpt lat="48.75294" lon="2.5228">
        <ele>97</ele>
        <time>2014-05-25T11:48:53Z</time>
      </trkpt>
      <trkpt lat="48.75294" lon="2.5228">
        <ele>97</ele>
        <time>2014-05-25T11:48:54Z</time>
      </trkpt>
      <trkpt lat="48.75294" lon="2.5228">
        <ele>97</ele>
        <time>2014-05-25T11:48:55Z</time>
      </trkpt>
      <trkpt lat="48.75294" lon="2.5228">
        <ele>97</ele>
        <time>2014-05-25T11:48:56Z</time>
      </trkpt>
      <trkpt lat="48.75294" lon="2.5228">
        <ele>97</ele>
        <time>2014-05-25T11:48:57Z</time>
      </trkpt>
      <trkpt lat="48.75294" lon="2.5228">
        <ele>97</ele>
        <time>2014-05-25T11:48:58Z</time>
      </trkpt>
      <trkpt lat="48.75294" lon="2.5228">
        <ele>97</ele>
        <time>2014-05-25T11:48:59Z</time>
      </trkpt>
      <trkpt lat="48.75294" lon="2.5228">
        <ele>97</ele>
        <time>2014-05-25T11:49:00Z</time>
      </trkpt>
      <trkpt lat="48.75294" lon="2.5228">
        <ele>97</ele>
        <time>2014-05-25T11:49:01Z</time>
      </trkpt>
      <trkpt lat="48.75294" lon="2.5228">
        <ele>97</ele>
        <time>2014-05-25T11:49:02Z</time>
      </trkpt>
      <trkpt lat="48.75294" lon="2.5228">
        <ele>97</ele>
        <time>2014-05-25T11:49:03Z</time>
      </trkpt>
      <trkpt lat="48.75294" lon="2.5228">
        <ele>97</ele>
        <time>2014-05-25T11:49:04Z</time>
      </trkpt>
      <trkpt lat="48.75294" lon="2.5228">
        <ele>97</ele>
        <time>2014-05-25T11:49:05Z</time>
      </trkpt>
      <trkpt lat="48.75294" lon="2.5228">
        <ele>97</ele>
        <time>2014-05-25T11:49:06Z</time>
      </trkpt>
      <trkpt lat="48.75294" lon="2.5228">
        <ele>97</ele>
        <time>2014-05-25T11:49:07Z</time>
      </trkpt>
      <trkpt lat="48.75294" lon="2.5228">
        <ele>97</ele>
        <time>2014-05-25T11:49:08Z</time>
      </trkpt>
      <trkpt lat="48.75294" lon="2.5228">
        <ele>97</ele>
        <time>2014-05-25T11:49:09Z</time>
      </trkpt>
      <trkpt lat="48.75294" lon="2.5228">
        <ele>97</ele>
        <time>2014-05-25T11:49:10Z</time>
      </trkpt>
      <trkpt lat="48.75294" lon="2.5228">
        <ele>97</ele>
        <time>2014-05-25T11:49:11Z</time>
      </trkpt>
      <trkpt lat="48.75294" lon="2.5228">
        <ele>97</ele>
        <time>2014-05-25T11:49:12Z</time>
      </trkpt>
      <trkpt lat="48.75294" lon="2.5228">
        <ele>97</ele>
        <time>2014-05-25T11:49:13Z</time>
      </trkpt>
      <trkpt lat="48.75294" lon="2.5228">
        <ele>97</ele>
        <time>2014-05-25T11:49:14Z</time>
      </trkpt>
      <trkpt lat="48.75294" lon="2.5228">
        <ele>97</ele>
        <time>2014-05-25T11:49:15Z</time>
      </trkpt>
      <trkpt lat="48.75294" lon="2.5228">
        <ele>97</ele>
        <time>2014-05-25T11:49:16Z</time>
      </trkpt>
      <trkpt lat="48.75294" lon="2.5228">
        <ele>97</ele>
        <time>2014-05-25T11:49:17Z</time>
      </trkpt>
      <trkpt lat="48.75294" lon="2.5228">
        <ele>97</ele>
        <time>2014-05-25T11:49:18Z</time>
      </trkpt>
      <trkpt lat="48.75294" lon="2.5228">
        <ele>97</ele>
        <time>2014-05-25T11:49:19Z</time>
      </trkpt>
      <trkpt lat="48.75294" lon="2.5228">
        <ele>97</ele>
        <time>2014-05-25T11:49:20Z</time>
      </trkpt>
      <trkpt lat="48.75294" lon="2.5228">
        <ele>97</ele>
        <time>2014-05-25T11:49:21Z</time>
      </trkpt>
      <trkpt lat="48.75294" lon="2.5228">
        <ele>97</ele>
        <time>2014-05-25T11:49:22Z</time>
      </trkpt>
      <trkpt lat="48.75294" lon="2.5228">
        <ele>97</ele>
        <time>2014-05-25T11:49:23Z</time>
      </trkpt>
      <trkpt lat="48.75294" lon="2.5228">
        <ele>97</ele>
        <time>2014-05-25T11:49:24Z</time>
      </trkpt>
      <trkpt lat="48.75294" lon="2.5228">
        <ele>97</ele>
        <time>2014-05-25T11:49:25Z</time>
      </trkpt>
      <trkpt lat="48.75294" lon="2.5228">
        <ele>97</ele>
        <time>2014-05-25T11:49:26Z</time>
      </trkpt>
      <trkpt lat="48.75294" lon="2.5228">
        <ele>97</ele>
        <time>2014-05-25T11:49:27Z</time>
      </trkpt>
      <trkpt lat="48.75294" lon="2.5228">
        <ele>97</ele>
        <time>2014-05-25T11:49:28Z</time>
      </trkpt>
      <trkpt lat="48.75294" lon="2.5228">
        <ele>97</ele>
        <time>2014-05-25T11:49:29Z</time>
      </trkpt>
      <trkpt lat="48.75294" lon="2.5228">
        <ele>97</ele>
        <time>2014-05-25T11:49:30Z</time>
      </trkpt>
      <trkpt lat="48.75294" lon="2.5228">
        <ele>97</ele>
        <time>2014-05-25T11:49:31Z</time>
      </trkpt>
      <trkpt lat="48.75294" lon="2.5228">
        <ele>97</ele>
        <time>2014-05-25T11:49:32Z</time>
      </trkpt>
      <trkpt lat="48.75294" lon="2.5228">
        <ele>97</ele>
        <time>2014-05-25T11:49:33Z</time>
      </trkpt>
      <trkpt lat="48.75294" lon="2.5228">
        <ele>97</ele>
        <time>2014-05-25T11:49:34Z</time>
      </trkpt>
      <trkpt lat="48.75294" lon="2.5228">
        <ele>97</ele>
        <time>2014-05-25T11:49:35Z</time>
      </trkpt>
      <trkpt lat="48.75294" lon="2.5228">
        <ele>97</ele>
        <time>2014-05-25T11:49:36Z</time>
      </trkpt>
      <trkpt lat="48.75294" lon="2.5228">
        <ele>97</ele>
        <time>2014-05-25T11:49:37Z</time>
      </trkpt>
      <trkpt lat="48.75294" lon="2.5228">
        <ele>97</ele>
        <time>2014-05-25T11:49:38Z</time>
      </trkpt>
      <trkpt lat="48.75294" lon="2.5228">
        <ele>97</ele>
        <time>2014-05-25T11:49:39Z</time>
      </trkpt>
      <trkpt lat="48.75294" lon="2.5228">
        <ele>97</ele>
        <time>2014-05-25T11:49:40Z</time>
      </trkpt>
      <trkpt lat="48.75294" lon="2.5228">
        <ele>97</ele>
        <time>2014-05-25T11:49:41Z</time>
      </trkpt>
      <trkpt lat="48.75294" lon="2.5228">
        <ele>97</ele>
        <time>2014-05-25T11:49:42Z</time>
      </trkpt>
      <trkpt lat="48.75294" lon="2.5228">
        <ele>97</ele>
        <time>2014-05-25T11:49:43Z</time>
      </trkpt>
      <trkpt lat="48.75294" lon="2.5228">
        <ele>97</ele>
        <time>2014-05-25T11:49:44Z</time>
      </trkpt>
      <trkpt lat="48.75294" lon="2.5228">
        <ele>97</ele>
        <time>2014-05-25T11:49:45Z</time>
      </trkpt>
      <trkpt lat="48.75294" lon="2.5228">
        <ele>97</ele>
        <time>2014-05-25T11:49:46Z</time>
      </trkpt>
      <trkpt lat="48.75294" lon="2.5228">
        <ele>97</ele>
        <time>2014-05-25T11:49:47Z</time>
      </trkpt>
      <trkpt lat="48.75294" lon="2.5228">
        <ele>97</ele>
        <time>2014-05-25T11:49:48Z</time>
      </trkpt>
      <trkpt lat="48.75294" lon="2.5228">
        <ele>97</ele>
        <time>2014-05-25T11:49:49Z</time>
      </trkpt>
      <trkpt lat="48.75294" lon="2.5228">
        <ele>97</ele>
        <time>2014-05-25T11:49:50Z</time>
      </trkpt>
      <trkpt lat="48.75294" lon="2.5228">
        <ele>97</ele>
        <time>2014-05-25T11:49:51Z</time>
      </trkpt>
      <trkpt lat="48.75294" lon="2.5228">
        <ele>97</ele>
        <time>2014-05-25T11:49:52Z</time>
      </trkpt>
      <trkpt lat="48.75294" lon="2.5228">
        <ele>97</ele>
        <time>2014-05-25T11:49:53Z</time>
      </trkpt>
      <trkpt lat="48.75294" lon="2.5228">
        <ele>97</ele>
        <time>2014-05-25T11:49:54Z</time>
      </trkpt>
      <trkpt lat="48.75294" lon="2.5228">
        <ele>97</ele>
        <time>2014-05-25T11:49:55Z</time>
      </trkpt>
      <trkpt lat="48.75294" lon="2.5228">
        <ele>97</ele>
        <time>2014-05-25T11:49:56Z</time>
      </trkpt>
      <trkpt lat="48.75294" lon="2.5228">
        <ele>97</ele>
        <time>2014-05-25T11:49:57Z</time>
      </trkpt>
      <trkpt lat="48.75294" lon="2.5228">
        <ele>97</ele>
        <time>2014-05-25T11:49:58Z</time>
      </trkpt>
      <trkpt lat="48.75294" lon="2.5228">
        <ele>97</ele>
        <time>2014-05-25T11:49:59Z</time>
      </trkpt>
      <trkpt lat="48.75294" lon="2.5228">
        <ele>97</ele>
        <time>2014-05-25T11:50:00Z</time>
      </trkpt>
      <trkpt lat="48.75294" lon="2.5228">
        <ele>97</ele>
        <time>2014-05-25T11:50:01Z</time>
      </trkpt>
      <trkpt lat="48.75294" lon="2.5228">
        <ele>97</ele>
        <time>2014-05-25T11:50:02Z</time>
      </trkpt>
      <trkpt lat="48.75294" lon="2.5228">
        <ele>97</ele>
        <time>2014-05-25T11:50:03Z</time>
      </trkpt>
      <trkpt lat="48.75294" lon="2.5228">
        <ele>97</ele>
        <time>2014-05-25T11:50:04Z</time>
      </trkpt>
      <trkpt lat="48.75294" lon="2.5228">
        <ele>97</ele>
        <time>2014-05-25T11:50:05Z</time>
      </trkpt>
      <trkpt lat="48.75294" lon="2.5228">
        <ele>97</ele>
        <time>2014-05-25T11:50:06Z</time>
      </trkpt>
      <trkpt lat="48.75294" lon="2.5228">
        <ele>97</ele>
        <time>2014-05-25T11:50:07Z</time>
      </trkpt>
      <trkpt lat="48.75294" lon="2.5228">
        <ele>97</ele>
        <time>2014-05-25T11:50:08Z</time>
      </trkpt>
      <trkpt lat="48.75294" lon="2.5228">
        <ele>97</ele>
        <time>2014-05-25T11:50:09Z</time>
      </trkpt>
      <trkpt lat="48.75294" lon="2.5228">
        <ele>97</ele>
        <time>2014-05-25T11:50:10Z</time>
      </trkpt>
      <trkpt lat="48.75294" lon="2.5228">
        <ele>97</ele>
        <time>2014-05-25T11:50:11Z</time>
      </trkpt>
      <trkpt lat="48.75294" lon="2.5228">
        <ele>97</ele>
        <time>2014-05-25T11:50:12Z</time>
      </trkpt>
      <trkpt lat="48.75294" lon="2.5228">
        <ele>97</ele>
        <time>2014-05-25T11:50:13Z</time>
      </trkpt>
      <trkpt lat="48.75294" lon="2.5228">
        <ele>97</ele>
        <time>2014-05-25T11:50:14Z</time>
      </trkpt>
      <trkpt lat="48.75294" lon="2.5228">
        <ele>97</ele>
        <time>2014-05-25T11:50:15Z</time>
      </trkpt>
      <trkpt lat="48.75294" lon="2.5228">
        <ele>97</ele>
        <time>2014-05-25T11:50:16Z</time>
      </trkpt>
      <trkpt lat="48.75294" lon="2.5228">
        <ele>97</ele>
        <time>2014-05-25T11:50:17Z</time>
      </trkpt>
      <trkpt lat="48.75294" lon="2.5228">
        <ele>97</ele>
        <time>2014-05-25T11:50:18Z</time>
      </trkpt>
      <trkpt lat="48.75294" lon="2.5228">
        <ele>97</ele>
        <time>2014-05-25T11:50:19Z</time>
      </trkpt>
      <trkpt lat="48.75294" lon="2.5228">
        <ele>97</ele>
        <time>2014-05-25T11:50:20Z</time>
      </trkpt>
      <trkpt lat="48.75294" lon="2.5228">
        <ele>97</ele>
        <time>2014-05-25T11:50:21Z</time>
      </trkpt>
      <trkpt lat="48.75294" lon="2.5228">
        <ele>97</ele>
        <time>2014-05-25T11:50:22Z</time>
      </trkpt>
      <trkpt lat="48.75294" lon="2.5228">
        <ele>97</ele>
        <time>2014-05-25T11:50:23Z</time>
      </trkpt>
      <trkpt lat="48.75294" lon="2.5228">
        <ele>97</ele>
        <time>2014-05-25T11:50:24Z</time>
      </trkpt>
      <trkpt lat="48.75294" lon="2.5228">
        <ele>97</ele>
        <time>2014-05-25T11:50:25Z</time>
      </trkpt>
      <trkpt lat="48.75294" lon="2.5228">
        <ele>97</ele>
        <time>2014-05-25T11:50:26Z</time>
      </trkpt>
      <trkpt lat="48.75294" lon="2.5228">
        <ele>97</ele>
        <time>2014-05-25T11:50:27Z</time>
      </trkpt>
      <trkpt lat="48.75294" lon="2.5228">
        <ele>97</ele>
        <time>2014-05-25T11:50:28Z</time>
      </trkpt>
      <trkpt lat="48.75294" lon="2.5228">
        <ele>97</ele>
        <time>2014-05-25T11:50:29Z</time>
      </trkpt>
      <trkpt lat="48.75294" lon="2.5228">
        <ele>97</ele>
        <time>2014-05-25T11:50:30Z</time>
      </trkpt>
      <trkpt lat="48.75294" lon="2.5228">
        <ele>97</ele>
        <time>2014-05-25T11:50:31Z</time>
      </trkpt>
      <trkpt lat="48.75294" lon="2.5228">
        <ele>97</ele>
        <time>2014-05-25T11:50:32Z</time>
      </trkpt>
      <trkpt lat="48.75294" lon="2.5228">
        <ele>97</ele>
        <time>2014-05-25T11:50:33Z</time>
      </trkpt>
      <trkpt lat="48.75294" lon="2.5228">
        <ele>97</ele>
        <time>2014-05-25T11:50:34Z</time>
      </trkpt>
      <trkpt lat="48.75294" lon="2.5228">
        <ele>97</ele>
        <time>2014-05-25T11:50:35Z</time>
      </trkpt>
      <trkpt lat="48.75294" lon="2.5228">
        <ele>97</ele>
        <time>2014-05-25T11:50:36Z</time>
      </trkpt>
      <trkpt lat="48.75294" lon="2.5228">
        <ele>97</ele>
        <time>2014-05-25T11:50:37Z</time>
      </trkpt>
      <trkpt lat="48.75294" lon="2.5228">
        <ele>97</ele>
        <time>2014-05-25T11:50:38Z</time>
      </trkpt>
      <trkpt lat="48.75294" lon="2.5228">
        <ele>97</ele>
        <time>2014-05-25T11:50:39Z</time>
      </trkpt>
      <trkpt lat="48.75294" lon="2.5228">
        <ele>97</ele>
        <time>2014-05-25T11:50:40Z</time>
      </trkpt>
      <trkpt lat="48.75294" lon="2.5228">
        <ele>97</ele>
        <time>2014-05-25T11:50:41Z</time>
      </trkpt>
      <trkpt lat="48.75294" lon="2.5228">
        <ele>97</ele>
        <time>2014-05-25T11:50:42Z</time>
      </trkpt>
      <trkpt lat="48.75294" lon="2.5228">
        <ele>97</ele>
        <time>2014-05-25T11:50:43Z</time>
      </trkpt>
      <trkpt lat="48.75294" lon="2.5228">
        <ele>97</ele>
        <time>2014-05-25T11:50:44Z</time>
      </trkpt>
      <trkpt lat="48.75294" lon="2.5228">
        <ele>97</ele>
        <time>2014-05-25T11:50:45Z</time>
      </trkpt>
      <trkpt lat="48.75294" lon="2.5228">
        <ele>97</ele>
        <time>2014-05-25T11:50:46Z</time>
      </trkpt>
      <trkpt lat="48.75294" lon="2.5228">
        <ele>97</ele>
        <time>2014-05-25T11:50:47Z</time>
      </trkpt>
      <trkpt lat="48.75294" lon="2.5228">
        <ele>97</ele>
        <time>2014-05-25T11:50:48Z</time>
      </trkpt>
      <trkpt lat="48.75294" lon="2.5228">
        <ele>97</ele>
        <time>2014-05-25T11:50:49Z</time>
      </trkpt>
      <trkpt lat="48.75294" lon="2.5228">
        <ele>97</ele>
        <time>2014-05-25T11:50:50Z</time>
      </trkpt>
      <trkpt lat="48.75294" lon="2.5228">
        <ele>97</ele>
        <time>2014-05-25T11:50:51Z</time>
      </trkpt>
      <trkpt lat="48.75294" lon="2.5228">
        <ele>97</ele>
        <time>2014-05-25T11:50:52Z</time>
      </trkpt>
      <trkpt lat="48.75294" lon="2.5228">
        <ele>97</ele>
        <time>2014-05-25T11:50:53Z</time>
      </trkpt>
      <trkpt lat="48.75294" lon="2.5228">
        <ele>97</ele>
        <time>2014-05-25T11:50:54Z</time>
      </trkpt>
      <trkpt lat="48.75294" lon="2.5228">
        <ele>97</ele>
        <time>2014-05-25T11:50:55Z</time>
      </trkpt>
      <trkpt lat="48.75294" lon="2.5228">
        <ele>97</ele>
        <time>2014-05-25T11:50:56Z</time>
      </trkpt>
      <trkpt lat="48.75294" lon="2.5228">
        <ele>97</ele>
        <time>2014-05-25T11:50:57Z</time>
      </trkpt>
      <trkpt lat="48.75294" lon="2.5228">
        <ele>97</ele>
        <time>2014-05-25T11:50:58Z</time>
      </trkpt>
      <trkpt lat="48.75294" lon="2.5228">
        <ele>97</ele>
        <time>2014-05-25T11:50:59Z</time>
      </trkpt>
      <trkpt lat="48.75294" lon="2.5228">
        <ele>97</ele>
        <time>2014-05-25T11:51:00Z</time>
      </trkpt>
      <trkpt lat="48.75294" lon="2.5228">
        <ele>97</ele>
        <time>2014-05-25T11:51:01Z</time>
      </trkpt>
      <trkpt lat="48.75294" lon="2.5228">
        <ele>97</ele>
        <time>2014-05-25T11:51:02Z</time>
      </trkpt>
      <trkpt lat="48.75294" lon="2.5228">
        <ele>97</ele>
        <time>2014-05-25T11:51:03Z</time>
      </trkpt>
      <trkpt lat="48.75294" lon="2.5228">
        <ele>97</ele>
        <time>2014-05-25T11:51:04Z</time>
      </trkpt>
      <trkpt lat="48.75294" lon="2.5228">
        <ele>97</ele>
        <time>2014-05-25T11:51:05Z</time>
      </trkpt>
      <trkpt lat="48.75294" lon="2.5228">
        <ele>97</ele>
        <time>2014-05-25T11:51:06Z</time>
      </trkpt>
      <trkpt lat="48.75294" lon="2.5228">
        <ele>97</ele>
        <time>2014-05-25T11:51:07Z</time>
      </trkpt>
      <trkpt lat="48.75294" lon="2.5228">
        <ele>97</ele>
        <time>2014-05-25T11:51:08Z</time>
      </trkpt>
      <trkpt lat="48.75294" lon="2.5228">
        <ele>97</ele>
        <time>2014-05-25T11:51:09Z</time>
      </trkpt>
      <trkpt lat="48.75294" lon="2.5228">
        <ele>97</ele>
        <time>2014-05-25T11:51:10Z</time>
      </trkpt>
      <trkpt lat="48.75294" lon="2.5228">
        <ele>97</ele>
        <time>2014-05-25T11:51:11Z</time>
      </trkpt>
      <trkpt lat="48.75294" lon="2.5228">
        <ele>97</ele>
        <time>2014-05-25T11:51:12Z</time>
      </trkpt>
      <trkpt lat="48.75294" lon="2.5228">
        <ele>97</ele>
        <time>2014-05-25T11:51:13Z</time>
      </trkpt>
      <trkpt lat="48.75294" lon="2.5228">
        <ele>97</ele>
        <time>2014-05-25T11:51:14Z</time>
      </trkpt>
      <trkpt lat="48.75294" lon="2.5228">
        <ele>97</ele>
        <time>2014-05-25T11:51:15Z</time>
      </trkpt>
      <trkpt lat="48.75294" lon="2.5228">
        <ele>97</ele>
        <time>2014-05-25T11:51:16Z</time>
      </trkpt>
      <trkpt lat="48.75294" lon="2.5228">
        <ele>97</ele>
        <time>2014-05-25T11:51:17Z</time>
      </trkpt>
      <trkpt lat="48.75294" lon="2.5228">
        <ele>97</ele>
        <time>2014-05-25T11:51:18Z</time>
      </trkpt>
      <trkpt lat="48.75294" lon="2.5228">
        <ele>97</ele>
        <time>2014-05-25T11:51:19Z</time>
      </trkpt>
      <trkpt lat="48.75294" lon="2.5228">
        <ele>97</ele>
        <time>2014-05-25T11:51:20Z</time>
      </trkpt>
      <trkpt lat="48.75294" lon="2.5228">
        <ele>97</ele>
        <time>2014-05-25T11:51:21Z</time>
      </trkpt>
      <trkpt lat="48.75294" lon="2.5228">
        <ele>97</ele>
        <time>2014-05-25T11:51:22Z</time>
      </trkpt>
      <trkpt lat="48.75294" lon="2.5228">
        <ele>97</ele>
        <time>2014-05-25T11:51:23Z</time>
      </trkpt>
      <trkpt lat="48.75294" lon="2.5228">
        <ele>97</ele>
        <time>2014-05-25T11:51:24Z</time>
      </trkpt>
      <trkpt lat="48.75294" lon="2.5228">
        <ele>97</ele>
        <time>2014-05-25T11:51:25Z</time>
      </trkpt>
      <trkpt lat="48.75294" lon="2.5228">
        <ele>97</ele>
        <time>2014-05-25T11:51:26Z</time>
      </trkpt>
      <trkpt lat="48.75294" lon="2.5228">
        <ele>97</ele>
        <time>2014-05-25T11:51:27Z</time>
      </trkpt>
      <trkpt lat="48.75294" lon="2.5228">
        <ele>97</ele>
        <time>2014-05-25T11:51:28Z</time>
      </trkpt>
      <trkpt lat="48.75294" lon="2.5228">
        <ele>97</ele>
        <time>2014-05-25T11:51:29Z</time>
      </trkpt>
      <trkpt lat="48.75294" lon="2.5228">
        <ele>97</ele>
        <time>2014-05-25T11:51:30Z</time>
      </trkpt>
      <trkpt lat="48.75294" lon="2.5228">
        <ele>97</ele>
        <time>2014-05-25T11:51:31Z</time>
      </trkpt>
      <trkpt lat="48.75294" lon="2.5228">
        <ele>97</ele>
        <time>2014-05-25T11:51:32Z</time>
      </trkpt>
      <trkpt lat="48.75294" lon="2.5228">
        <ele>97</ele>
        <time>2014-05-25T11:51:33Z</time>
      </trkpt>
      <trkpt lat="48.75294" lon="2.5228">
        <ele>97</ele>
        <time>2014-05-25T11:51:34Z</time>
      </trkpt>
      <trkpt lat="48.75294" lon="2.5228">
        <ele>97</ele>
        <time>2014-05-25T11:51:35Z</time>
      </trkpt>
      <trkpt lat="48.75294" lon="2.5228">
        <ele>97</ele>
        <time>2014-05-25T11:51:36Z</time>
      </trkpt>
      <trkpt lat="48.75294" lon="2.5228">
        <ele>97</ele>
        <time>2014-05-25T11:51:37Z</time>
      </trkpt>
      <trkpt lat="48.75294" lon="2.5228">
        <ele>97</ele>
        <time>2014-05-25T11:51:38Z</time>
      </trkpt>
      <trkpt lat="48.75294" lon="2.5228">
        <ele>97</ele>
        <time>2014-05-25T11:51:39Z</time>
      </trkpt>
      <trkpt lat="48.75294" lon="2.5228">
        <ele>97</ele>
        <time>2014-05-25T11:51:40Z</time>
      </trkpt>
      <trkpt lat="48.75294" lon="2.5228">
        <ele>97</ele>
        <time>2014-05-25T11:51:41Z</time>
      </trkpt>
      <trkpt lat="48.75294" lon="2.5228">
        <ele>97</ele>
        <time>2014-05-25T11:51:42Z</time>
      </trkpt>
      <trkpt lat="48.75294" lon="2.5228">
        <ele>97</ele>
        <time>2014-05-25T11:51:43Z</time>
      </trkpt>
      <trkpt lat="48.75294" lon="2.5228">
        <ele>97</ele>
        <time>2014-05-25T11:51:44Z</time>
      </trkpt>
      <trkpt lat="48.75294" lon="2.5228">
        <ele>97</ele>
        <time>2014-05-25T11:51:45Z</time>
      </trkpt>
      <trkpt lat="48.75294" lon="2.5228">
        <ele>97</ele>
        <time>2014-05-25T11:51:46Z</time>
      </trkpt>
      <trkpt lat="48.75294" lon="2.5228">
        <ele>97</ele>
        <time>2014-05-25T11:51:47Z</time>
      </trkpt>
      <trkpt lat="48.75294" lon="2.5228">
        <ele>97</ele>
        <time>2014-05-25T11:51:48Z</time>
      </trkpt>
      <trkpt lat="48.75294" lon="2.5228">
        <ele>97</ele>
        <time>2014-05-25T11:51:49Z</time>
      </trkpt>
      <trkpt lat="48.75294" lon="2.5228">
        <ele>97</ele>
        <time>2014-05-25T11:51:50Z</time>
      </trkpt>
      <trkpt lat="48.75294" lon="2.5228">
        <ele>97</ele>
        <time>2014-05-25T11:51:51Z</time>
      </trkpt>
      <trkpt lat="48.75294" lon="2.5228">
        <ele>97</ele>
        <time>2014-05-25T11:51:52Z</time>
      </trkpt>
      <trkpt lat="48.75294" lon="2.5228">
        <ele>97</ele>
        <time>2014-05-25T11:51:53Z</time>
      </trkpt>
      <trkpt lat="48.75294" lon="2.5228">
        <ele>97</ele>
        <time>2014-05-25T11:51:54Z</time>
      </trkpt>
      <trkpt lat="48.75294" lon="2.5228">
        <ele>97</ele>
        <time>2014-05-25T11:51:55Z</time>
      </trkpt>
      <trkpt lat="48.75294" lon="2.5228">
        <ele>97</ele>
        <time>2014-05-25T11:51:56Z</time>
      </trkpt>
      <trkpt lat="48.75294" lon="2.5228">
        <ele>97</ele>
        <time>2014-05-25T11:51:57Z</time>
      </trkpt>
      <trkpt lat="48.75294" lon="2.5228">
        <ele>97</ele>
        <time>2014-05-25T11:51:58Z</time>
      </trkpt>
      <trkpt lat="48.75294" lon="2.5228">
        <ele>97</ele>
        <time>2014-05-25T11:51:59Z</time>
      </trkpt>
      <trkpt lat="48.75294" lon="2.5228">
        <ele>97</ele>
        <time>2014-05-25T11:52:00Z</time>
      </trkpt>
      <trkpt lat="48.75294" lon="2.5228">
        <ele>97</ele>
        <time>2014-05-25T11:52:01Z</time>
      </trkpt>
      <trkpt lat="48.75294" lon="2.5228">
        <ele>97</ele>
        <time>2014-05-25T11:52:02Z</time>
      </trkpt>
      <trkpt lat="48.75294" lon="2.5228">
        <ele>97</ele>
        <time>2014-05-25T11:52:03Z</time>
      </trkpt>
      <trkpt lat="48.75294" lon="2.5228">
        <ele>97</ele>
        <time>2014-05-25T11:52:04Z</time>
      </trkpt>
      <trkpt lat="48.75294" lon="2.5228">
        <ele>97</ele>
        <time>2014-05-25T11:52:05Z</time>
      </trkpt>
      <trkpt lat="48.75294" lon="2.5228">
        <ele>97</ele>
        <time>2014-05-25T11:52:06Z</time>
      </trkpt>
      <trkpt lat="48.75294" lon="2.5228">
        <ele>97</ele>
        <time>2014-05-25T11:52:07Z</time>
      </trkpt>
      <trkpt lat="48.75294" lon="2.5228">
        <ele>97</ele>
        <time>2014-05-25T11:52:08Z</time>
      </trkpt>
      <trkpt lat="48.75294" lon="2.5228">
        <ele>97</ele>
        <time>2014-05-25T11:52:09Z</time>
      </trkpt>
      <trkpt lat="48.75294" lon="2.5228">
        <ele>97</ele>
        <time>2014-05-25T11:52:10Z</time>
      </trkpt>
      <trkpt lat="48.75294" lon="2.5228">
        <ele>97</ele>
        <time>2014-05-25T11:52:11Z</time>
      </trkpt>
      <trkpt lat="48.75294" lon="2.5228">
        <ele>97</ele>
        <time>2014-05-25T11:52:12Z</time>
      </trkpt>
      <trkpt lat="48.75294" lon="2.5228">
        <ele>97</ele>
        <time>2014-05-25T11:52:13Z</time>
      </trkpt>
      <trkpt lat="48.75294" lon="2.5228">
        <ele>97</ele>
        <time>2014-05-25T11:52:14Z</time>
      </trkpt>
      <trkpt lat="48.75294" lon="2.5228">
        <ele>97</ele>
        <time>2014-05-25T11:52:15Z</time>
      </trkpt>
      <trkpt lat="48.75294" lon="2.5228">
        <ele>97</ele>
        <time>2014-05-25T11:52:16Z</time>
      </trkpt>
      <trkpt lat="48.75294" lon="2.5228">
        <ele>97</ele>
        <time>2014-05-25T11:52:17Z</time>
      </trkpt>
      <trkpt lat="48.75294" lon="2.5228">
        <ele>97</ele>
        <time>2014-05-25T11:52:18Z</time>
      </trkpt>
      <trkpt lat="48.75294" lon="2.5228">
        <ele>97</ele>
        <time>2014-05-25T11:52:19Z</time>
      </trkpt>
      <trkpt lat="48.75294" lon="2.5228">
        <ele>97</ele>
        <time>2014-05-25T11:52:20Z</time>
      </trkpt>
      <trkpt lat="48.75294" lon="2.5228">
        <ele>97</ele>
        <time>2014-05-25T11:52:21Z</time>
      </trkpt>
      <trkpt lat="48.75294" lon="2.5228">
        <ele>97</ele>
        <time>2014-05-25T11:52:22Z</time>
      </trkpt>
      <trkpt lat="48.75294" lon="2.5228">
        <ele>97</ele>
        <time>2014-05-25T11:52:23Z</time>
      </trkpt>
      <trkpt lat="48.75294" lon="2.5228">
        <ele>97</ele>
        <time>2014-05-25T11:52:24Z</time>
      </trkpt>
      <trkpt lat="48.75294" lon="2.5228">
        <ele>97</ele>
        <time>2014-05-25T11:52:25Z</time>
      </trkpt>
      <trkpt lat="48.75294" lon="2.5228">
        <ele>97</ele>
        <time>2014-05-25T11:52:26Z</time>
      </trkpt>
      <trkpt lat="48.75294" lon="2.5228">
        <ele>97</ele>
        <time>2014-05-25T11:52:27Z</time>
      </trkpt>
      <trkpt lat="48.75294" lon="2.5228">
        <ele>97</ele>
        <time>2014-05-25T11:52:28Z</time>
      </trkpt>
      <trkpt lat="48.75294" lon="2.5228">
        <ele>97</ele>
        <time>2014-05-25T11:52:29Z</time>
      </trkpt>
      <trkpt lat="48.75294" lon="2.5228">
        <ele>97</ele>
        <time>2014-05-25T11:52:30Z</time>
      </trkpt>
      <trkpt lat="48.75294" lon="2.5228">
        <ele>97</ele>
        <time>2014-05-25T11:52:31Z</time>
      </trkpt>
      <trkpt lat="48.75294" lon="2.5228">
        <ele>97</ele>
        <time>2014-05-25T11:52:32Z</time>
      </trkpt>
      <trkpt lat="48.75294" lon="2.5228">
        <ele>97</ele>
        <time>2014-05-25T11:52:33Z</time>
      </trkpt>
      <trkpt lat="48.75294" lon="2.5228">
        <ele>97</ele>
        <time>2014-05-25T11:52:34Z</time>
      </trkpt>
      <trkpt lat="48.75294" lon="2.5228">
        <ele>97</ele>
        <time>2014-05-25T11:52:35Z</time>
      </trkpt>
      <trkpt lat="48.75294" lon="2.5228">
        <ele>97</ele>
        <time>2014-05-25T11:52:36Z</time>
      </trkpt>
      <trkpt lat="48.75294" lon="2.5228">
        <ele>97</ele>
        <time>2014-05-25T11:52:37Z</time>
      </trkpt>
      <trkpt lat="48.75294" lon="2.5228">
        <ele>97</ele>
        <time>2014-05-25T11:52:38Z</time>
      </trkpt>
      <trkpt lat="48.75294" lon="2.5228">
        <ele>97</ele>
        <time>2014-05-25T11:52:39Z</time>
      </trkpt>
      <trkpt lat="48.75294" lon="2.5228">
        <ele>97</ele>
        <time>2014-05-25T11:52:40Z</time>
      </trkpt>
      <trkpt lat="48.75294" lon="2.5228">
        <ele>97</ele>
        <time>2014-05-25T11:52:41Z</time>
      </trkpt>
      <trkpt lat="48.75294" lon="2.5228">
        <ele>97</ele>
        <time>2014-05-25T11:52:42Z</time>
      </trkpt>
      <trkpt lat="48.75294" lon="2.5228">
        <ele>97</ele>
        <time>2014-05-25T11:52:43Z</time>
      </trkpt>
      <trkpt lat="48.75294" lon="2.5228">
        <ele>97</ele>
        <time>2014-05-25T11:52:44Z</time>
      </trkpt>
      <trkpt lat="48.75294" lon="2.5228">
        <ele>97</ele>
        <time>2014-05-25T11:52:45Z</time>
      </trkpt>
      <trkpt lat="48.75294" lon="2.5228">
        <ele>97</ele>
        <time>2014-05-25T11:52:46Z</time>
      </trkpt>
      <trkpt lat="48.75294" lon="2.5228">
        <ele>97</ele>
        <time>2014-05-25T11:52:47Z</time>
      </trkpt>
      <trkpt lat="48.75294" lon="2.5228">
        <ele>97</ele>
        <time>2014-05-25T11:52:48Z</time>
      </trkpt>
      <trkpt lat="48.75294" lon="2.5228">
        <ele>97</ele>
        <time>2014-05-25T11:52:49Z</time>
      </trkpt>
      <trkpt lat="48.75294" lon="2.5228">
        <ele>97</ele>
        <time>2014-05-25T11:52:50Z</time>
      </trkpt>
      <trkpt lat="48.75294" lon="2.5228">
        <ele>97</ele>
        <time>2014-05-25T11:52:51Z</time>
      </trkpt>
      <trkpt lat="48.75294" lon="2.5228">
        <ele>97</ele>
        <time>2014-05-25T11:52:52Z</time>
      </trkpt>
      <trkpt lat="48.75294" lon="2.5228">
        <ele>97</ele>
        <time>2014-05-25T11:52:53Z</time>
      </trkpt>
      <trkpt lat="48.75294" lon="2.5228">
        <ele>97</ele>
        <time>2014-05-25T11:52:54Z</time>
      </trkpt>
      <trkpt lat="48.75294" lon="2.5228">
        <ele>97</ele>
        <time>2014-05-25T11:52:55Z</time>
      </trkpt>
      <trkpt lat="48.75294" lon="2.5228">
        <ele>97</ele>
        <time>2014-05-25T11:52:56Z</time>
      </trkpt>
      <trkpt lat="48.75294" lon="2.5228">
        <ele>97</ele>
        <time>2014-05-25T11:52:57Z</time>
      </trkpt>
      <trkpt lat="48.75294" lon="2.5228">
        <ele>97</ele>
        <time>2014-05-25T11:52:58Z</time>
      </trkpt>
      <trkpt lat="48.75294" lon="2.5228">
        <ele>97</ele>
        <time>2014-05-25T11:52:59Z</time>
      </trkpt>
      <trkpt lat="48.75294" lon="2.5228">
        <ele>97</ele>
        <time>2014-05-25T11:53:00Z</time>
      </trkpt>
      <trkpt lat="48.75294" lon="2.5228">
        <ele>97</ele>
        <time>2014-05-25T11:53:01Z</time>
      </trkpt>
      <trkpt lat="48.75294" lon="2.5228">
        <ele>97</ele>
        <time>2014-05-25T11:53:02Z</time>
      </trkpt>
      <trkpt lat="48.75294" lon="2.5228">
        <ele>97</ele>
        <time>2014-05-25T11:53:03Z</time>
      </trkpt>
      <trkpt lat="48.75294" lon="2.5228">
        <ele>97</ele>
        <time>2014-05-25T11:53:04Z</time>
      </trkpt>
      <trkpt lat="48.75294" lon="2.5228">
        <ele>97</ele>
        <time>2014-05-25T11:53:05Z</time>
      </trkpt>
      <trkpt lat="48.75294" lon="2.5228">
        <ele>97</ele>
        <time>2014-05-25T11:53:06Z</time>
      </trkpt>
      <trkpt lat="48.75294" lon="2.5228">
        <ele>97</ele>
        <time>2014-05-25T11:53:07Z</time>
      </trkpt>
      <trkpt lat="48.75294" lon="2.5228">
        <ele>97</ele>
        <time>2014-05-25T11:53:08Z</time>
      </trkpt>
      <trkpt lat="48.75294" lon="2.5228">
        <ele>97</ele>
        <time>2014-05-25T11:53:09Z</time>
      </trkpt>
      <trkpt lat="48.75294" lon="2.5228">
        <ele>97</ele>
        <time>2014-05-25T11:53:10Z</time>
      </trkpt>
      <trkpt lat="48.75294" lon="2.5228">
        <ele>97</ele>
        <time>2014-05-25T11:53:11Z</time>
      </trkpt>
      <trkpt lat="48.75294" lon="2.5228">
        <ele>97</ele>
        <time>2014-05-25T11:53:12Z</time>
      </trkpt>
      <trkpt lat="48.75294" lon="2.5228">
        <ele>97</ele>
        <time>2014-05-25T11:53:13Z</time>
      </trkpt>
      <trkpt lat="48.75294" lon="2.5228">
        <ele>97</ele>
        <time>2014-05-25T11:53:14Z</time>
      </trkpt>
      <trkpt lat="48.75294" lon="2.5228">
        <ele>97</ele>
        <time>2014-05-25T11:53:15Z</time>
      </trkpt>
      <trkpt lat="48.75294" lon="2.5228">
        <ele>97</ele>
        <time>2014-05-25T11:53:16Z</time>
      </trkpt>
      <trkpt lat="48.75294" lon="2.5228">
        <ele>97</ele>
        <time>2014-05-25T11:53:17Z</time>
      </trkpt>
      <trkpt lat="48.75294" lon="2.5228">
        <ele>97</ele>
        <time>2014-05-25T11:53:18Z</time>
      </trkpt>
      <trkpt lat="48.75294" lon="2.5228">
        <ele>97</ele>
        <time>2014-05-25T11:53:19Z</time>
      </trkpt>
      <trkpt lat="48.75294" lon="2.5228">
        <ele>97</ele>
        <time>2014-05-25T11:53:20Z</time>
      </trkpt>
      <trkpt lat="48.75294" lon="2.5228">
        <ele>97</ele>
        <time>2014-05-25T11:53:21Z</time>
      </trkpt>
      <trkpt lat="48.75294" lon="2.5228">
        <ele>98</ele>
        <time>2014-05-25T11:53:22Z</time>
      </trkpt>
      <trkpt lat="48.75294" lon="2.5228">
        <ele>98</ele>
        <time>2014-05-25T11:53:23Z</time>
      </trkpt>
      <trkpt lat="48.75294" lon="2.5228">
        <ele>98</ele>
        <time>2014-05-25T11:53:24Z</time>
      </trkpt>
      <trkpt lat="48.75294" lon="2.5228">
        <ele>99</ele>
        <time>2014-05-25T11:53:25Z</time>
      </trkpt>
      <trkpt lat="48.75294" lon="2.52281">
        <ele>100</ele>
        <time>2014-05-25T11:53:26Z</time>
      </trkpt>
      <trkpt lat="48.75294" lon="2.52281">
        <ele>100</ele>
        <time>2014-05-25T11:53:27Z</time>
      </trkpt>
      <trkpt lat="48.75294" lon="2.52281">
        <ele>99</ele>
        <time>2014-05-25T11:53:28Z</time>
      </trkpt>
      <trkpt lat="48.75294" lon="2.52281">
        <ele>99</ele>
        <time>2014-05-25T11:53:29Z</time>
      </trkpt>
      <trkpt lat="48.75294" lon="2.52281">
        <ele>98</ele>
        <time>2014-05-25T11:53:30Z</time>
      </trkpt>
      <trkpt lat="48.75295" lon="2.52281">
        <ele>98</ele>
        <time>2014-05-25T11:53:31Z</time>
      </trkpt>
      <trkpt lat="48.75295" lon="2.52281">
        <ele>98</ele>
        <time>2014-05-25T11:53:32Z</time>
      </trkpt>
      <trkpt lat="48.75295" lon="2.52281">
        <ele>98</ele>
        <time>2014-05-25T11:53:33Z</time>
      </trkpt>
      <trkpt lat="48.75295" lon="2.52281">
        <ele>97</ele>
        <time>2014-05-25T11:53:34Z</time>
      </trkpt>
      <trkpt lat="48.75295" lon="2.52282">
        <ele>98</ele>
        <time>2014-05-25T11:53:35Z</time>
      </trkpt>
      <trkpt lat="48.75296" lon="2.52281">
        <ele>97</ele>
        <time>2014-05-25T11:53:36Z</time>
      </trkpt>
      <trkpt lat="48.75297" lon="2.52282">
        <ele>98</ele>
        <time>2014-05-25T11:53:37Z</time>
      </trkpt>
      <trkpt lat="48.75297" lon="2.52282">
        <ele>98</ele>
        <time>2014-05-25T11:53:38Z</time>
      </trkpt>
      <trkpt lat="48.75297" lon="2.52282">
        <ele>98</ele>
        <time>2014-05-25T11:53:39Z</time>
      </trkpt>
      <trkpt lat="48.75297" lon="2.52282">
        <ele>98</ele>
        <time>2014-05-25T11:53:40Z</time>
      </trkpt>
      <trkpt lat="48.75298" lon="2.52282">
        <ele>98</ele>
        <time>2014-05-25T11:53:41Z</time>
      </trkpt>
      <trkpt lat="48.75298" lon="2.52282">
        <ele>98</ele>
        <time>2014-05-25T11:53:42Z</time>
      </trkpt>
      <trkpt lat="48.75299" lon="2.52283">
        <ele>98</ele>
        <time>2014-05-25T11:53:43Z</time>
      </trkpt>
      <trkpt lat="48.75299" lon="2.52283">
        <ele>97</ele>
        <time>2014-05-25T11:53:44Z</time>
      </trkpt>
      <trkpt lat="48.75299" lon="2.52283">
        <ele>96</ele>
        <time>2014-05-25T11:53:45Z</time>
      </trkpt>
      <trkpt lat="48.753" lon="2.52284">
        <ele>97</ele>
        <time>2014-05-25T11:53:46Z</time>
      </trkpt>
      <trkpt lat="48.753" lon="2.52286">
        <ele>96</ele>
        <time>2014-05-25T11:53:47Z</time>
      </trkpt>
      <trkpt lat="48.75301" lon="2.52287">
        <ele>96</ele>
        <time>2014-05-25T11:53:48Z</time>
      </trkpt>
      <trkpt lat="48.75301" lon="2.52288">
        <ele>97</ele>
        <time>2014-05-25T11:53:49Z</time>
      </trkpt>
      <trkpt lat="48.75302" lon="2.52289">
        <ele>96</ele>
        <time>2014-05-25T11:53:50Z</time>
      </trkpt>
      <trkpt lat="48.75303" lon="2.5229">
        <ele>96</ele>
        <time>2014-05-25T11:53:51Z</time>
      </trkpt>
      <trkpt lat="48.75303" lon="2.52291">
        <ele>97</ele>
        <time>2014-05-25T11:53:52Z</time>
      </trkpt>
      <trkpt lat="48.75304" lon="2.52291">
        <ele>97</ele>
        <time>2014-05-25T11:53:53Z</time>
      </trkpt>
      <trkpt lat="48.75305" lon="2.52292">
        <ele>97</ele>
        <time>2014-05-25T11:53:54Z</time>
      </trkpt>
      <trkpt lat="48.75306" lon="2.52292">
        <ele>96</ele>
        <time>2014-05-25T11:53:55Z</time>
      </trkpt>
      <trkpt lat="48.75307" lon="2.52293">
        <ele>97</ele>
        <time>2014-05-25T11:53:56Z</time>
      </trkpt>
      <trkpt lat="48.75308" lon="2.52293">
        <ele>97</ele>
        <time>2014-05-25T11:53:57Z</time>
      </trkpt>
      <trkpt lat="48.75307" lon="2.52293">
        <ele>97</ele>
        <time>2014-05-25T11:53:58Z</time>
      </trkpt>
      <trkpt lat="48.75307" lon="2.52293">
        <ele>97</ele>
        <time>2014-05-25T11:53:59Z</time>
      </trkpt>
      <trkpt lat="48.75307" lon="2.52292">
        <ele>97</ele>
        <time>2014-05-25T11:54:00Z</time>
      </trkpt>
      <trkpt lat="48.75307" lon="2.52292">
        <ele>97</ele>
        <time>2014-05-25T11:54:01Z</time>
      </trkpt>
      <trkpt lat="48.75308" lon="2.52292">
        <ele>97</ele>
        <time>2014-05-25T11:54:02Z</time>
      </trkpt>
      <trkpt lat="48.75308" lon="2.52292">
        <ele>96</ele>
        <time>2014-05-25T11:54:03Z</time>
      </trkpt>
      <trkpt lat="48.75308" lon="2.52291">
        <ele>96</ele>
        <time>2014-05-25T11:54:04Z</time>
      </trkpt>
      <trkpt lat="48.75309" lon="2.52289">
        <ele>96</ele>
        <time>2014-05-25T11:54:05Z</time>
      </trkpt>
      <trkpt lat="48.75309" lon="2.52287">
        <ele>96</ele>
        <time>2014-05-25T11:54:06Z</time>
      </trkpt>
      <trkpt lat="48.75309" lon="2.52286">
        <ele>97</ele>
        <time>2014-05-25T11:54:07Z</time>
      </trkpt>
      <trkpt lat="48.7531" lon="2.52284">
        <ele>96</ele>
        <time>2014-05-25T11:54:08Z</time>
      </trkpt>
      <trkpt lat="48.7531" lon="2.52283">
        <ele>97</ele>
        <time>2014-05-25T11:54:09Z</time>
      </trkpt>
      <trkpt lat="48.75311" lon="2.52281">
        <ele>98</ele>
        <time>2014-05-25T11:54:10Z</time>
      </trkpt>
      <trkpt lat="48.75312" lon="2.5228">
        <ele>98</ele>
        <time>2014-05-25T11:54:11Z</time>
      </trkpt>
      <trkpt lat="48.75313" lon="2.52278">
        <ele>98</ele>
        <time>2014-05-25T11:54:12Z</time>
      </trkpt>
      <trkpt lat="48.75313" lon="2.52276">
        <ele>99</ele>
        <time>2014-05-25T11:54:13Z</time>
      </trkpt>
      <trkpt lat="48.75314" lon="2.52274">
        <ele>98</ele>
        <time>2014-05-25T11:54:14Z</time>
      </trkpt>
      <trkpt lat="48.75314" lon="2.52272">
        <ele>98</ele>
        <time>2014-05-25T11:54:15Z</time>
      </trkpt>
      <trkpt lat="48.75314" lon="2.52269">
        <ele>98</ele>
        <time>2014-05-25T11:54:16Z</time>
      </trkpt>
      <trkpt lat="48.75314" lon="2.52267">
        <ele>98</ele>
        <time>2014-05-25T11:54:17Z</time>
      </trkpt>
      <trkpt lat="48.75314" lon="2.52265">
        <ele>97</ele>
        <time>2014-05-25T11:54:18Z</time>
      </trkpt>
      <trkpt lat="48.75314" lon="2.52263">
        <ele>97</ele>
        <time>2014-05-25T11:54:19Z</time>
      </trkpt>
      <trkpt lat="48.75315" lon="2.52261">
        <ele>97</ele>
        <time>2014-05-25T11:54:20Z</time>
      </trkpt>
      <trkpt lat="48.75315" lon="2.52259">
        <ele>97</ele>
        <time>2014-05-25T11:54:21Z</time>
      </trkpt>
      <trkpt lat="48.75315" lon="2.52257">
        <ele>97</ele>
        <time>2014-05-25T11:54:22Z</time>
      </trkpt>
      <trkpt lat="48.75315" lon="2.52254">
        <ele>97</ele>
        <time>2014-05-25T11:54:23Z</time>
      </trkpt>
      <trkpt lat="48.75315" lon="2.52252">
        <ele>97</ele>
        <time>2014-05-25T11:54:24Z</time>
      </trkpt>
      <trkpt lat="48.75315" lon="2.5225">
        <ele>97</ele>
        <time>2014-05-25T11:54:25Z</time>
      </trkpt>
      <trkpt lat="48.75315" lon="2.52248">
        <ele>98</ele>
        <time>2014-05-25T11:54:26Z</time>
      </trkpt>
      <trkpt lat="48.75315" lon="2.52245">
        <ele>97</ele>
        <time>2014-05-25T11:54:27Z</time>
      </trkpt>
      <trkpt lat="48.75315" lon="2.52243">
        <ele>98</ele>
        <time>2014-05-25T11:54:28Z</time>
      </trkpt>
      <trkpt lat="48.75315" lon="2.52241">
        <ele>97</ele>
        <time>2014-05-25T11:54:29Z</time>
      </trkpt>
      <trkpt lat="48.75315" lon="2.52239">
        <ele>98</ele>
        <time>2014-05-25T11:54:30Z</time>
      </trkpt>
      <trkpt lat="48.75314" lon="2.52237">
        <ele>97</ele>
        <time>2014-05-25T11:54:31Z</time>
      </trkpt>
      <trkpt lat="48.75314" lon="2.52235">
        <ele>98</ele>
        <time>2014-05-25T11:54:32Z</time>
      </trkpt>
      <trkpt lat="48.75313" lon="2.52233">
        <ele>99</ele>
        <time>2014-05-25T11:54:33Z</time>
      </trkpt>
      <trkpt lat="48.75313" lon="2.52231">
        <ele>99</ele>
        <time>2014-05-25T11:54:34Z</time>
      </trkpt>
      <trkpt lat="48.75312" lon="2.52229">
        <ele>99</ele>
        <time>2014-05-25T11:54:35Z</time>
      </trkpt>
      <trkpt lat="48.75312" lon="2.52227">
        <ele>99</ele>
        <time>2014-05-25T11:54:36Z</time>
      </trkpt>
      <trkpt lat="48.75312" lon="2.52225">
        <ele>99</ele>
        <time>2014-05-25T11:54:37Z</time>
      </trkpt>
      <trkpt lat="48.75312" lon="2.52222">
        <ele>99</ele>
        <time>2014-05-25T11:54:38Z</time>
      </trkpt>
      <trkpt lat="48.75312" lon="2.5222">
        <ele>99</ele>
        <time>2014-05-25T11:54:39Z</time>
      </trkpt>
      <trkpt lat="48.75313" lon="2.52217">
        <ele>98</ele>
        <time>2014-05-25T11:54:40Z</time>
      </trkpt>
      <trkpt lat="48.75313" lon="2.52214">
        <ele>98</ele>
        <time>2014-05-25T11:54:41Z</time>
      </trkpt>
      <trkpt lat="48.75313" lon="2.52211">
        <ele>98</ele>
        <time>2014-05-25T11:54:42Z</time>
      </trkpt>
      <trkpt lat="48.75313" lon="2.52208">
        <ele>97</ele>
        <time>2014-05-25T11:54:43Z</time>
      </trkpt>
      <trkpt lat="48.75313" lon="2.52206">
        <ele>98</ele>
        <time>2014-05-25T11:54:44Z</time>
      </trkpt>
      <trkpt lat="48.75313" lon="2.52203">
        <ele>98</ele>
        <time>2014-05-25T11:54:45Z</time>
      </trkpt>
      <trkpt lat="48.75313" lon="2.52201">
        <ele>98</ele>
        <time>2014-05-25T11:54:46Z</time>
      </trkpt>
      <trkpt lat="48.75312" lon="2.52199">
        <ele>98</ele>
        <time>2014-05-25T11:54:47Z</time>
      </trkpt>
      <trkpt lat="48.75311" lon="2.52197">
        <ele>98</ele>
        <time>2014-05-25T11:54:48Z</time>
      </trkpt>
      <trkpt lat="48.7531" lon="2.52196">
        <ele>98</ele>
        <time>2014-05-25T11:54:49Z</time>
      </trkpt>
      <trkpt lat="48.7531" lon="2.52194">
        <ele>98</ele>
        <time>2014-05-25T11:54:50Z</time>
      </trkpt>
      <trkpt lat="48.75309" lon="2.52193">
        <ele>98</ele>
        <time>2014-05-25T11:54:51Z</time>
      </trkpt>
      <trkpt lat="48.75309" lon="2.52192">
        <ele>98</ele>
        <time>2014-05-25T11:54:52Z</time>
      </trkpt>
      <trkpt lat="48.75308" lon="2.52191">
        <ele>99</ele>
        <time>2014-05-25T11:54:53Z</time>
      </trkpt>
      <trkpt lat="48.75309" lon="2.52191">
        <ele>99</ele>
        <time>2014-05-25T11:54:54Z</time>
      </trkpt>
      <trkpt lat="48.75308" lon="2.5219">
        <ele>98</ele>
        <time>2014-05-25T11:54:55Z</time>
      </trkpt>
      <trkpt lat="48.75308" lon="2.5219">
        <ele>98</ele>
        <time>2014-05-25T11:54:56Z</time>
      </trkpt>
      <trkpt lat="48.75308" lon="2.5219">
        <ele>98</ele>
        <time>2014-05-25T11:54:57Z</time>
      </trkpt>
      <trkpt lat="48.75308" lon="2.5219">
        <ele>98</ele>
        <time>2014-05-25T11:54:58Z</time>
      </trkpt>
      <trkpt lat="48.75308" lon="2.5219">
        <ele>98</ele>
        <time>2014-05-25T11:54:59Z</time>
      </trkpt>
      <trkpt lat="48.75308" lon="2.5219">
        <ele>97</ele>
        <time>2014-05-25T11:55:00Z</time>
      </trkpt>
      <trkpt lat="48.75308" lon="2.5219">
        <ele>97</ele>
        <time>2014-05-25T11:55:01Z</time>
      </trkpt>
      <trkpt lat="48.75308" lon="2.5219">
        <ele>97</ele>
        <time>2014-05-25T11:55:02Z</time>
      </trkpt>
      <trkpt lat="48.75308" lon="2.5219">
        <ele>97</ele>
        <time>2014-05-25T11:55:03Z</time>
      </trkpt>
      <trkpt lat="48.75308" lon="2.5219">
        <ele>97</ele>
        <time>2014-05-25T11:55:04Z</time>
      </trkpt>
      <trkpt lat="48.75308" lon="2.52189">
        <ele>97</ele>
        <time>2014-05-25T11:55:05Z</time>
      </trkpt>
      <trkpt lat="48.75308" lon="2.52189">
        <ele>97</ele>
        <time>2014-05-25T11:55:06Z</time>
      </trkpt>
      <trkpt lat="48.75307" lon="2.52189">
        <ele>97</ele>
        <time>2014-05-25T11:55:07Z</time>
      </trkpt>
      <trkpt lat="48.75307" lon="2.52189">
        <ele>97</ele>
        <time>2014-05-25T11:55:08Z</time>
      </trkpt>
      <trkpt lat="48.75307" lon="2.52189">
        <ele>97</ele>
        <time>2014-05-25T11:55:09Z</time>
      </trkpt>
      <trkpt lat="48.75307" lon="2.52189">
        <ele>97</ele>
        <time>2014-05-25T11:55:10Z</time>
      </trkpt>
      <trkpt lat="48.75307" lon="2.52189">
        <ele>97</ele>
        <time>2014-05-25T11:55:11Z</time>
      </trkpt>
      <trkpt lat="48.75307" lon="2.52189">
        <ele>97</ele>
        <time>2014-05-25T11:55:12Z</time>
      </trkpt>
      <trkpt lat="48.75307" lon="2.52189">
        <ele>97</ele>
        <time>2014-05-25T11:55:13Z</time>
      </trkpt>
      <trkpt lat="48.75307" lon="2.52189">
        <ele>97</ele>
        <time>2014-05-25T11:55:14Z</time>
      </trkpt>
      <trkpt lat="48.75307" lon="2.52189">
        <ele>97</ele>
        <time>2014-05-25T11:55:15Z</time>
      </trkpt>
      <trkpt lat="48.75307" lon="2.52189">
        <ele>97</ele>
        <time>2014-05-25T11:55:16Z</time>
      </trkpt>
      <trkpt lat="48.75307" lon="2.52189">
        <ele>97</ele>
        <time>2014-05-25T11:55:17Z</time>
      </trkpt>
      <trkpt lat="48.75307" lon="2.52189">
        <ele>97</ele>
        <time>2014-05-25T11:55:18Z</time>
      </trkpt>
      <trkpt lat="48.75307" lon="2.52189">
        <ele>98</ele>
        <time>2014-05-25T11:55:19Z</time>
      </trkpt>
      <trkpt lat="48.75307" lon="2.52189">
        <ele>98</ele>
        <time>2014-05-25T11:55:20Z</time>
      </trkpt>
      <trkpt lat="48.75306" lon="2.52189">
        <ele>98</ele>
        <time>2014-05-25T11:55:21Z</time>
      </trkpt>
      <trkpt lat="48.75306" lon="2.52189">
        <ele>98</ele>
        <time>2014-05-25T11:55:22Z</time>
      </trkpt>
      <trkpt lat="48.75306" lon="2.52189">
        <ele>98</ele>
        <time>2014-05-25T11:55:23Z</time>
      </trkpt>
      <trkpt lat="48.75306" lon="2.52189">
        <ele>98</ele>
        <time>2014-05-25T11:55:24Z</time>
      </trkpt>
      <trkpt lat="48.75305" lon="2.52189">
        <ele>98</ele>
        <time>2014-05-25T11:55:25Z</time>
      </trkpt>
      <trkpt lat="48.75306" lon="2.5219">
        <ele>147</ele>
        <time>2014-05-25T11:55:42Z</time>
      </trkpt>
      <trkpt lat="48.75306" lon="2.5219">
        <ele>99</ele>
        <time>2014-05-25T11:55:43Z</time>
      </trkpt>
      <trkpt lat="48.75306" lon="2.5219">
        <ele>99</ele>
        <time>2014-05-25T11:55:44Z</time>
      </trkpt>
      <trkpt lat="48.75306" lon="2.5219">
        <ele>99</ele>
        <time>2014-05-25T11:55:45Z</time>
      </trkpt>
      <trkpt lat="48.75306" lon="2.5219">
        <ele>99</ele>
        <time>2014-05-25T11:55:46Z</time>
      </trkpt>
      <trkpt lat="48.75306" lon="2.5219">
        <ele>99</ele>
        <time>2014-05-25T11:55:47Z</time>
      </trkpt>
      <trkpt lat="48.75306" lon="2.5219">
        <ele>99</ele>
        <time>2014-05-25T11:55:48Z</time>
      </trkpt>
      <trkpt lat="48.75306" lon="2.5219">
        <ele>99</ele>
        <time>2014-05-25T11:55:49Z</time>
      </trkpt>
      <trkpt lat="48.75306" lon="2.5219">
        <ele>99</ele>
        <time>2014-05-25T11:55:50Z</time>
      </trkpt>
      <trkpt lat="48.75306" lon="2.5219">
        <ele>99</ele>
        <time>2014-05-25T11:55:51Z</time>
      </trkpt>
      <trkpt lat="48.75306" lon="2.5219">
        <ele>100</ele>
        <time>2014-05-25T11:55:52Z</time>
      </trkpt>
      <trkpt lat="48.75306" lon="2.5219">
        <ele>99</ele>
        <time>2014-05-25T11:55:53Z</time>
      </trkpt>
      <trkpt lat="48.75306" lon="2.5219">
        <ele>99</ele>
        <time>2014-05-25T11:55:54Z</time>
      </trkpt>
      <trkpt lat="48.75306" lon="2.5219">
        <ele>99</ele>
        <time>2014-05-25T11:55:55Z</time>
      </trkpt>
      <trkpt lat="48.75306" lon="2.5219">
        <ele>98</ele>
        <time>2014-05-25T11:55:56Z</time>
      </trkpt>
      <trkpt lat="48.75306" lon="2.5219">
        <ele>99</ele>
        <time>2014-05-25T11:55:57Z</time>
      </trkpt>
      <trkpt lat="48.75306" lon="2.5219">
        <ele>99</ele>
        <time>2014-05-25T11:55:58Z</time>
      </trkpt>
      <trkpt lat="48.75306" lon="2.5219">
        <ele>99</ele>
        <time>2014-05-25T11:55:59Z</time>
      </trkpt>
      <trkpt lat="48.75306" lon="2.52191">
        <ele>99</ele>
        <time>2014-05-25T11:56:00Z</time>
      </trkpt>
      <trkpt lat="48.75307" lon="2.52191">
        <ele>98</ele>
        <time>2014-05-25T11:56:01Z</time>
      </trkpt>
      <trkpt lat="48.75307" lon="2.52191">
        <ele>98</ele>
        <time>2014-05-25T11:56:02Z</time>
      </trkpt>
      <trkpt lat="48.75307" lon="2.52191">
        <ele>98</ele>
        <time>2014-05-25T11:56:03Z</time>
      </trkpt>
      <trkpt lat="48.75307" lon="2.52191">
        <ele>99</ele>
        <time>2014-05-25T11:56:04Z</time>
      </trkpt>
      <trkpt lat="48.75307" lon="2.52191">
        <ele>99</ele>
        <time>2014-05-25T11:56:05Z</time>
      </trkpt>
      <trkpt lat="48.75307" lon="2.52191">
        <ele>99</ele>
        <time>2014-05-25T11:56:06Z</time>
      </trkpt>
      <trkpt lat="48.75307" lon="2.52191">
        <ele>99</ele>
        <time>2014-05-25T11:56:07Z</time>
      </trkpt>
      <trkpt lat="48.75307" lon="2.52191">
        <ele>99</ele>
        <time>2014-05-25T11:56:08Z</time>
      </trkpt>
      <trkpt lat="48.75307" lon="2.52191">
        <ele>99</ele>
        <time>2014-05-25T11:56:09Z</time>
      </trkpt>
      <trkpt lat="48.75307" lon="2.52191">
        <ele>99</ele>
        <time>2014-05-25T11:56:10Z</time>
      </trkpt>
      <trkpt lat="48.75307" lon="2.52191">
        <ele>99</ele>
        <time>2014-05-25T11:56:11Z</time>
      </trkpt>
      <trkpt lat="48.75307" lon="2.52191">
        <ele>99</ele>
        <time>2014-05-25T11:56:12Z</time>
      </trkpt>
      <trkpt lat="48.75307" lon="2.52191">
        <ele>99</ele>
        <time>2014-05-25T11:56:13Z</time>
      </trkpt>
      <trkpt lat="48.75307" lon="2.52191">
        <ele>98</ele>
        <time>2014-05-25T11:56:14Z</time>
      </trkpt>
      <trkpt lat="48.75307" lon="2.52191">
        <ele>98</ele>
        <time>2014-05-25T11:56:15Z</time>
      </trkpt>
      <trkpt lat="48.75307" lon="2.52191">
        <ele>98</ele>
        <time>2014-05-25T11:56:16Z</time>
      </trkpt>
      <trkpt lat="48.75307" lon="2.52191">
        <ele>98</ele>
        <time>2014-05-25T11:56:17Z</time>
      </trkpt>
      <trkpt lat="48.75307" lon="2.52191">
        <ele>98</ele>
        <time>2014-05-25T11:56:18Z</time>
      </trkpt>
      <trkpt lat="48.75307" lon="2.5219">
        <ele>97</ele>
        <time>2014-05-25T11:56:19Z</time>
      </trkpt>
      <trkpt lat="48.75308" lon="2.5219">
        <ele>98</ele>
        <time>2014-05-25T11:56:20Z</time>
      </trkpt>
      <trkpt lat="48.75308" lon="2.5219">
        <ele>98</ele>
        <time>2014-05-25T11:56:21Z</time>
      </trkpt>
      <trkpt lat="48.75308" lon="2.5219">
        <ele>98</ele>
        <time>2014-05-25T11:56:22Z</time>
      </trkpt>
      <trkpt lat="48.75308" lon="2.5219">
        <ele>98</ele>
        <time>2014-05-25T11:56:23Z</time>
      </trkpt>
      <trkpt lat="48.75308" lon="2.5219">
        <ele>98</ele>
        <time>2014-05-25T11:56:24Z</time>
      </trkpt>
      <trkpt lat="48.75308" lon="2.5219">
        <ele>98</ele>
        <time>2014-05-25T11:56:25Z</time>
      </trkpt>
      <trkpt lat="48.75308" lon="2.5219">
        <ele>97</ele>
        <time>2014-05-25T11:56:26Z</time>
      </trkpt>
      <trkpt lat="48.75308" lon="2.52189">
        <ele>97</ele>
        <time>2014-05-25T11:56:27Z</time>
      </trkpt>
      <trkpt lat="48.75308" lon="2.52189">
        <ele>98</ele>
        <time>2014-05-25T11:56:28Z</time>
      </trkpt>
      <trkpt lat="48.75307" lon="2.52189">
        <ele>98</ele>
        <time>2014-05-25T11:56:29Z</time>
      </trkpt>
      <trkpt lat="48.75307" lon="2.52189">
        <ele>98</ele>
        <time>2014-05-25T11:56:30Z</time>
      </trkpt>
      <trkpt lat="48.75307" lon="2.52189">
        <ele>98</ele>
        <time>2014-05-25T11:56:31Z</time>
      </trkpt>
      <trkpt lat="48.75307" lon="2.52189">
        <ele>98</ele>
        <time>2014-05-25T11:56:32Z</time>
      </trkpt>
      <trkpt lat="48.75307" lon="2.52188">
        <ele>98</ele>
        <time>2014-05-25T11:56:33Z</time>
      </trkpt>
      <trkpt lat="48.75306" lon="2.52188">
        <ele>98</ele>
        <time>2014-05-25T11:56:34Z</time>
      </trkpt>
      <trkpt lat="48.75306" lon="2.52188">
        <ele>98</ele>
        <time>2014-05-25T11:56:35Z</time>
      </trkpt>
      <trkpt lat="48.75306" lon="2.52188">
        <ele>98</ele>
        <time>2014-05-25T11:56:36Z</time>
      </trkpt>
      <trkpt lat="48.75306" lon="2.52188">
        <ele>98</ele>
        <time>2014-05-25T11:56:37Z</time>
      </trkpt>
      <trkpt lat="48.75306" lon="2.52188">
        <ele>98</ele>
        <time>2014-05-25T11:56:38Z</time>
      </trkpt>
      <trkpt lat="48.75306" lon="2.52187">
        <ele>98</ele>
        <time>2014-05-25T11:56:39Z</time>
      </trkpt>
      <trkpt lat="48.75306" lon="2.52187">
        <ele>98</ele>
        <time>2014-05-25T11:56:40Z</time>
      </trkpt>
      <trkpt lat="48.75306" lon="2.52187">
        <ele>98</ele>
        <time>2014-05-25T11:56:41Z</time>
      </trkpt>
      <trkpt lat="48.75306" lon="2.52187">
        <ele>98</ele>
        <time>2014-05-25T11:56:42Z</time>
      </trkpt>
      <trkpt lat="48.75306" lon="2.52187">
        <ele>98</ele>
        <time>2014-05-25T11:56:43Z</time>
      </trkpt>
      <trkpt lat="48.75306" lon="2.52187">
        <ele>98</ele>
        <time>2014-05-25T11:56:44Z</time>
      </trkpt>
      <trkpt lat="48.75306" lon="2.52187">
        <ele>98</ele>
        <time>2014-05-25T11:56:45Z</time>
      </trkpt>
      <trkpt lat="48.75306" lon="2.52187">
        <ele>98</ele>
        <time>2014-05-25T11:56:46Z</time>
      </trkpt>
      <trkpt lat="48.75306" lon="2.52187">
        <ele>98</ele>
        <time>2014-05-25T11:56:47Z</time>
      </trkpt>
      <trkpt lat="48.75306" lon="2.52187">
        <ele>98</ele>
        <time>2014-05-25T11:56:48Z</time>
      </trkpt>
      <trkpt lat="48.75306" lon="2.52187">
        <ele>98</ele>
        <time>2014-05-25T11:56:49Z</time>
      </trkpt>
      <trkpt lat="48.75306" lon="2.52187">
        <ele>98</ele>
        <time>2014-05-25T11:56:50Z</time>
      </trkpt>
      <trkpt lat="48.75306" lon="2.52187">
        <ele>98</ele>
        <time>2014-05-25T11:56:51Z</time>
      </trkpt>
      <trkpt lat="48.75306" lon="2.52187">
        <ele>98</ele>
        <time>2014-05-25T11:56:52Z</time>
      </trkpt>
      <trkpt lat="48.75306" lon="2.52187">
        <ele>98</ele>
        <time>2014-05-25T11:56:53Z</time>
      </trkpt>
      <trkpt lat="48.75306" lon="2.52187">
        <ele>98</ele>
        <time>2014-05-25T11:56:54Z</time>
      </trkpt>
      <trkpt lat="48.75306" lon="2.52187">
        <ele>98</ele>
        <time>2014-05-25T11:56:55Z</time>
      </trkpt>
      <trkpt lat="48.75306" lon="2.52187">
        <ele>98</ele>
        <time>2014-05-25T11:56:56Z</time>
      </trkpt>
      <trkpt lat="48.75306" lon="2.52187">
        <ele>98</ele>
        <time>2014-05-25T11:56:57Z</time>
      </trkpt>
      <trkpt lat="48.75306" lon="2.52187">
        <ele>98</ele>
        <time>2014-05-25T11:56:58Z</time>
      </trkpt>
      <trkpt lat="48.75306" lon="2.52187">
        <ele>98</ele>
        <time>2014-05-25T11:56:59Z</time>
      </trkpt>
      <trkpt lat="48.75306" lon="2.52187">
        <ele>98</ele>
        <time>2014-05-25T11:57:00Z</time>
      </trkpt>
      <trkpt lat="48.75306" lon="2.52187">
        <ele>98</ele>
        <time>2014-05-25T11:57:01Z</time>
      </trkpt>
      <trkpt lat="48.75306" lon="2.52187">
        <ele>98</ele>
        <time>2014-05-25T11:57:02Z</time>
      </trkpt>
      <trkpt lat="48.75306" lon="2.52187">
        <ele>98</ele>
        <time>2014-05-25T11:57:03Z</time>
      </trkpt>
      <trkpt lat="48.75306" lon="2.52187">
        <ele>98</ele>
        <time>2014-05-25T11:57:04Z</time>
      </trkpt>
      <trkpt lat="48.75306" lon="2.52187">
        <ele>98</ele>
        <time>2014-05-25T11:57:05Z</time>
      </trkpt>
      <trkpt lat="48.75306" lon="2.52187">
        <ele>98</ele>
        <time>2014-05-25T11:57:06Z</time>
      </trkpt>
      <trkpt lat="48.75306" lon="2.52187">
        <ele>98</ele>
        <time>2014-05-25T11:57:07Z</time>
      </trkpt>
      <trkpt lat="48.75306" lon="2.52187">
        <ele>98</ele>
        <time>2014-05-25T11:57:08Z</time>
      </trkpt>
      <trkpt lat="48.75306" lon="2.52187">
        <ele>98</ele>
        <time>2014-05-25T11:57:09Z</time>
      </trkpt>
      <trkpt lat="48.75306" lon="2.52187">
        <ele>98</ele>
        <time>2014-05-25T11:57:10Z</time>
      </trkpt>
      <trkpt lat="48.75306" lon="2.52187">
        <ele>98</ele>
        <time>2014-05-25T11:57:11Z</time>
      </trkpt>
      <trkpt lat="48.75306" lon="2.52187">
        <ele>98</ele>
        <time>2014-05-25T11:57:12Z</time>
      </trkpt>
      <trkpt lat="48.75306" lon="2.52187">
        <ele>98</ele>
        <time>2014-05-25T11:57:13Z</time>
      </trkpt>
      <trkpt lat="48.75306" lon="2.52187">
        <ele>98</ele>
        <time>2014-05-25T11:57:14Z</time>
      </trkpt>
      <trkpt lat="48.75306" lon="2.52187">
        <ele>98</ele>
        <time>2014-05-25T11:57:15Z</time>
      </trkpt>
      <trkpt lat="48.75306" lon="2.52187">
        <ele>98</ele>
        <time>2014-05-25T11:57:16Z</time>
      </trkpt>
      <trkpt lat="48.75306" lon="2.52187">
        <ele>98</ele>
        <time>2014-05-25T11:57:17Z</time>
      </trkpt>
      <trkpt lat="48.75306" lon="2.52187">
        <ele>98</ele>
        <time>2014-05-25T11:57:18Z</time>
      </trkpt>
      <trkpt lat="48.75306" lon="2.52187">
        <ele>98</ele>
        <time>2014-05-25T11:57:19Z</time>
      </trkpt>
      <trkpt lat="48.75306" lon="2.52187">
        <ele>98</ele>
        <time>2014-05-25T11:57:20Z</time>
      </trkpt>
      <trkpt lat="48.75306" lon="2.52187">
        <ele>98</ele>
        <time>2014-05-25T11:57:21Z</time>
      </trkpt>
      <trkpt lat="48.75306" lon="2.52187">
        <ele>98</ele>
        <time>2014-05-25T11:57:22Z</time>
      </trkpt>
      <trkpt lat="48.75306" lon="2.52187">
        <ele>98</ele>
        <time>2014-05-25T11:57:23Z</time>
      </trkpt>
      <trkpt lat="48.75306" lon="2.52187">
        <ele>98</ele>
        <time>2014-05-25T11:57:24Z</time>
      </trkpt>
      <trkpt lat="48.75306" lon="2.52187">
        <ele>98</ele>
        <time>2014-05-25T11:57:25Z</time>
      </trkpt>
      <trkpt lat="48.75306" lon="2.52187">
        <ele>98</ele>
        <time>2014-05-25T11:57:26Z</time>
      </trkpt>
      <trkpt lat="48.75306" lon="2.52187">
        <ele>98</ele>
        <time>2014-05-25T11:57:27Z</time>
      </trkpt>
      <trkpt lat="48.75306" lon="2.52187">
        <ele>98</ele>
        <time>2014-05-25T11:57:28Z</time>
      </trkpt>
      <trkpt lat="48.75306" lon="2.52187">
        <ele>98</ele>
        <time>2014-05-25T11:57:29Z</time>
      </trkpt>
      <trkpt lat="48.75306" lon="2.52187">
        <ele>98</ele>
        <time>2014-05-25T11:57:30Z</time>
      </trkpt>
      <trkpt lat="48.75306" lon="2.52187">
        <ele>98</ele>
        <time>2014-05-25T11:57:31Z</time>
      </trkpt>
      <trkpt lat="48.75306" lon="2.52187">
        <ele>98</ele>
        <time>2014-05-25T11:57:32Z</time>
      </trkpt>
      <trkpt lat="48.75306" lon="2.52187">
        <ele>98</ele>
        <time>2014-05-25T11:57:33Z</time>
      </trkpt>
      <trkpt lat="48.75306" lon="2.52187">
        <ele>98</ele>
        <time>2014-05-25T11:57:34Z</time>
      </trkpt>
      <trkpt lat="48.75306" lon="2.52187">
        <ele>98</ele>
        <time>2014-05-25T11:57:35Z</time>
      </trkpt>
      <trkpt lat="48.75306" lon="2.52187">
        <ele>98</ele>
        <time>2014-05-25T11:57:36Z</time>
      </trkpt>
      <trkpt lat="48.75306" lon="2.52187">
        <ele>98</ele>
        <time>2014-05-25T11:57:37Z</time>
      </trkpt>
      <trkpt lat="48.75306" lon="2.52187">
        <ele>98</ele>
        <time>2014-05-25T11:57:38Z</time>
      </trkpt>
      <trkpt lat="48.75306" lon="2.52187">
        <ele>98</ele>
        <time>2014-05-25T11:57:39Z</time>
      </trkpt>
      <trkpt lat="48.75306" lon="2.52187">
        <ele>98</ele>
        <time>2014-05-25T11:57:40Z</time>
      </trkpt>
      <trkpt lat="48.75306" lon="2.52187">
        <ele>98</ele>
        <time>2014-05-25T11:57:41Z</time>
      </trkpt>
      <trkpt lat="48.75306" lon="2.52187">
        <ele>98</ele>
        <time>2014-05-25T11:57:42Z</time>
      </trkpt>
      <trkpt lat="48.75306" lon="2.52187">
        <ele>98</ele>
        <time>2014-05-25T11:57:43Z</time>
      </trkpt>
      <trkpt lat="48.75306" lon="2.52187">
        <ele>98</ele>
        <time>2014-05-25T11:57:44Z</time>
      </trkpt>
      <trkpt lat="48.75306" lon="2.52187">
        <ele>98</ele>
        <time>2014-05-25T11:57:45Z</time>
      </trkpt>
      <trkpt lat="48.75306" lon="2.52187">
        <ele>98</ele>
        <time>2014-05-25T11:57:46Z</time>
      </trkpt>
      <trkpt lat="48.75306" lon="2.52187">
        <ele>98</ele>
        <time>2014-05-25T11:57:47Z</time>
      </trkpt>
      <trkpt lat="48.75306" lon="2.52187">
        <ele>98</ele>
        <time>2014-05-25T11:57:48Z</time>
      </trkpt>
      <trkpt lat="48.75306" lon="2.52187">
        <ele>98</ele>
        <time>2014-05-25T11:57:49Z</time>
      </trkpt>
      <trkpt lat="48.75306" lon="2.52187">
        <ele>98</ele>
        <time>2014-05-25T11:57:50Z</time>
      </trkpt>
      <trkpt lat="48.75306" lon="2.52187">
        <ele>98</ele>
        <time>2014-05-25T11:57:51Z</time>
      </trkpt>
      <trkpt lat="48.75306" lon="2.52187">
        <ele>98</ele>
        <time>2014-05-25T11:57:52Z</time>
      </trkpt>
      <trkpt lat="48.75306" lon="2.52187">
        <ele>98</ele>
        <time>2014-05-25T11:57:53Z</time>
      </trkpt>
      <trkpt lat="48.75306" lon="2.52187">
        <ele>98</ele>
        <time>2014-05-25T11:57:54Z</time>
      </trkpt>
      <trkpt lat="48.75306" lon="2.52187">
        <ele>98</ele>
        <time>2014-05-25T11:57:55Z</time>
      </trkpt>
      <trkpt lat="48.75306" lon="2.52187">
        <ele>98</ele>
        <time>2014-05-25T11:57:56Z</time>
      </trkpt>
      <trkpt lat="48.75306" lon="2.52187">
        <ele>98</ele>
        <time>2014-05-25T11:57:57Z</time>
      </trkpt>
      <trkpt lat="48.75306" lon="2.52187">
        <ele>98</ele>
        <time>2014-05-25T11:57:58Z</time>
      </trkpt>
      <trkpt lat="48.75306" lon="2.52187">
        <ele>98</ele>
        <time>2014-05-25T11:57:59Z</time>
      </trkpt>
      <trkpt lat="48.75306" lon="2.52187">
        <ele>98</ele>
        <time>2014-05-25T11:58:00Z</time>
      </trkpt>
      <trkpt lat="48.75306" lon="2.52187">
        <ele>98</ele>
        <time>2014-05-25T11:58:01Z</time>
      </trkpt>
      <trkpt lat="48.75306" lon="2.52187">
        <ele>98</ele>
        <time>2014-05-25T11:58:02Z</time>
      </trkpt>
      <trkpt lat="48.75306" lon="2.52187">
        <ele>98</ele>
        <time>2014-05-25T11:58:03Z</time>
      </trkpt>
      <trkpt lat="48.75306" lon="2.52187">
        <ele>98</ele>
        <time>2014-05-25T11:58:04Z</time>
      </trkpt>
      <trkpt lat="48.75306" lon="2.52188">
        <ele>98</ele>
        <time>2014-05-25T11:58:05Z</time>
      </trkpt>
      <trkpt lat="48.75306" lon="2.52188">
        <ele>98</ele>
        <time>2014-05-25T11:58:06Z</time>
      </trkpt>
      <trkpt lat="48.75306" lon="2.52188">
        <ele>98</ele>
        <time>2014-05-25T11:58:07Z</time>
      </trkpt>
      <trkpt lat="48.75306" lon="2.52188">
        <ele>98</ele>
        <time>2014-05-25T11:58:08Z</time>
      </trkpt>
      <trkpt lat="48.75306" lon="2.52188">
        <ele>98</ele>
        <time>2014-05-25T11:58:09Z</time>
      </trkpt>
      <trkpt lat="48.75306" lon="2.52188">
        <ele>98</ele>
        <time>2014-05-25T11:58:10Z</time>
      </trkpt>
      <trkpt lat="48.75306" lon="2.52188">
        <ele>98</ele>
        <time>2014-05-25T11:58:11Z</time>
      </trkpt>
      <trkpt lat="48.75306" lon="2.52188">
        <ele>98</ele>
        <time>2014-05-25T11:58:12Z</time>
      </trkpt>
      <trkpt lat="48.75306" lon="2.52188">
        <ele>98</ele>
        <time>2014-05-25T11:58:13Z</time>
      </trkpt>
      <trkpt lat="48.75306" lon="2.52188">
        <ele>98</ele>
        <time>2014-05-25T11:58:14Z</time>
      </trkpt>
      <trkpt lat="48.75306" lon="2.52188">
        <ele>98</ele>
        <time>2014-05-25T11:58:15Z</time>
      </trkpt>
      <trkpt lat="48.75306" lon="2.52188">
        <ele>98</ele>
        <time>2014-05-25T11:58:16Z</time>
      </trkpt>
      <trkpt lat="48.75306" lon="2.52188">
        <ele>98</ele>
        <time>2014-05-25T11:58:17Z</time>
      </trkpt>
      <trkpt lat="48.75306" lon="2.52188">
        <ele>98</ele>
        <time>2014-05-25T11:58:18Z</time>
      </trkpt>
      <trkpt lat="48.75306" lon="2.52188">
        <ele>98</ele>
        <time>2014-05-25T11:58:19Z</time>
      </trkpt>
      <trkpt lat="48.75306" lon="2.52188">
        <ele>98</ele>
        <time>2014-05-25T11:58:20Z</time>
      </trkpt>
      <trkpt lat="48.75306" lon="2.52188">
        <ele>98</ele>
        <time>2014-05-25T11:58:21Z</time>
      </trkpt>
      <trkpt lat="48.75306" lon="2.52188">
        <ele>98</ele>
        <time>2014-05-25T11:58:22Z</time>
      </trkpt>
      <trkpt lat="48.75306" lon="2.52188">
        <ele>98</ele>
        <time>2014-05-25T11:58:23Z</time>
      </trkpt>
      <trkpt lat="48.75306" lon="2.52187">
        <ele>98</ele>
        <time>2014-05-25T11:58:24Z</time>
      </trkpt>
      <trkpt lat="48.75306" lon="2.52188">
        <ele>98</ele>
        <time>2014-05-25T11:58:25Z</time>
      </trkpt>
      <trkpt lat="48.75306" lon="2.52187">
        <ele>98</ele>
        <time>2014-05-25T11:58:26Z</time>
      </trkpt>
      <trkpt lat="48.75306" lon="2.52187">
        <ele>98</ele>
        <time>2014-05-25T11:58:27Z</time>
      </trkpt>
      <trkpt lat="48.75306" lon="2.52187">
        <ele>98</ele>
        <time>2014-05-25T11:58:28Z</time>
      </trkpt>
      <trkpt lat="48.75306" lon="2.52187">
        <ele>98</ele>
        <time>2014-05-25T11:58:29Z</time>
      </trkpt>
      <trkpt lat="48.75306" lon="2.52187">
        <ele>98</ele>
        <time>2014-05-25T11:58:30Z</time>
      </trkpt>
      <trkpt lat="48.75306" lon="2.52187">
        <ele>98</ele>
        <time>2014-05-25T11:58:31Z</time>
      </trkpt>
      <trkpt lat="48.75306" lon="2.52187">
        <ele>98</ele>
        <time>2014-05-25T11:58:32Z</time>
      </trkpt>
      <trkpt lat="48.75306" lon="2.52187">
        <ele>98</ele>
        <time>2014-05-25T11:58:33Z</time>
      </trkpt>
      <trkpt lat="48.75306" lon="2.52187">
        <ele>98</ele>
        <time>2014-05-25T11:58:34Z</time>
      </trkpt>
      <trkpt lat="48.75306" lon="2.52187">
        <ele>98</ele>
        <time>2014-05-25T11:58:35Z</time>
      </trkpt>
      <trkpt lat="48.75306" lon="2.52187">
        <ele>98</ele>
        <time>2014-05-25T11:58:36Z</time>
      </trkpt>
      <trkpt lat="48.75306" lon="2.52187">
        <ele>98</ele>
        <time>2014-05-25T11:58:37Z</time>
      </trkpt>
      <trkpt lat="48.75306" lon="2.52187">
        <ele>98</ele>
        <time>2014-05-25T11:58:38Z</time>
      </trkpt>
      <trkpt lat="48.75306" lon="2.52187">
        <ele>98</ele>
        <time>2014-05-25T11:58:39Z</time>
      </trkpt>
      <trkpt lat="48.75306" lon="2.52187">
        <ele>98</ele>
        <time>2014-05-25T11:58:40Z</time>
      </trkpt>
      <trkpt lat="48.75306" lon="2.52187">
        <ele>98</ele>
        <time>2014-05-25T11:58:41Z</time>
      </trkpt>
      <trkpt lat="48.75306" lon="2.52187">
        <ele>98</ele>
        <time>2014-05-25T11:58:42Z</time>
      </trkpt>
      <trkpt lat="48.75306" lon="2.52187">
        <ele>98</ele>
        <time>2014-05-25T11:58:43Z</time>
      </trkpt>
      <trkpt lat="48.75306" lon="2.52187">
        <ele>98</ele>
        <time>2014-05-25T11:58:44Z</time>
      </trkpt>
      <trkpt lat="48.75306" lon="2.52187">
        <ele>98</ele>
        <time>2014-05-25T11:58:45Z</time>
      </trkpt>
      <trkpt lat="48.75306" lon="2.52187">
        <ele>98</ele>
        <time>2014-05-25T11:58:46Z</time>
      </trkpt>
      <trkpt lat="48.75306" lon="2.52187">
        <ele>98</ele>
        <time>2014-05-25T11:58:47Z</time>
      </trkpt>
      <trkpt lat="48.75306" lon="2.52187">
        <ele>98</ele>
        <time>2014-05-25T11:58:48Z</time>
      </trkpt>
      <trkpt lat="48.75306" lon="2.52187">
        <ele>98</ele>
        <time>2014-05-25T11:58:49Z</time>
      </trkpt>
      <trkpt lat="48.75306" lon="2.52187">
        <ele>98</ele>
        <time>2014-05-25T11:58:50Z</time>
      </trkpt>
      <trkpt lat="48.75306" lon="2.52187">
        <ele>98</ele>
        <time>2014-05-25T11:58:51Z</time>
      </trkpt>
      <trkpt lat="48.75306" lon="2.52187">
        <ele>98</ele>
        <time>2014-05-25T11:58:52Z</time>
      </trkpt>
      <trkpt lat="48.75306" lon="2.52187">
        <ele>98</ele>
        <time>2014-05-25T11:58:53Z</time>
      </trkpt>
      <trkpt lat="48.75306" lon="2.52187">
        <ele>98</ele>
        <time>2014-05-25T11:58:54Z</time>
      </trkpt>
      <trkpt lat="48.75306" lon="2.52187">
        <ele>98</ele>
        <time>2014-05-25T11:58:55Z</time>
      </trkpt>
      <trkpt lat="48.75306" lon="2.52187">
        <ele>98</ele>
        <time>2014-05-25T11:58:56Z</time>
      </trkpt>
      <trkpt lat="48.75306" lon="2.52187">
        <ele>98</ele>
        <time>2014-05-25T11:58:57Z</time>
      </trkpt>
      <trkpt lat="48.75306" lon="2.52187">
        <ele>98</ele>
        <time>2014-05-25T11:58:58Z</time>
      </trkpt>
      <trkpt lat="48.75306" lon="2.52187">
        <ele>98</ele>
        <time>2014-05-25T11:58:59Z</time>
      </trkpt>
      <trkpt lat="48.75306" lon="2.52187">
        <ele>98</ele>
        <time>2014-05-25T11:59:00Z</time>
      </trkpt>
      <trkpt lat="48.75306" lon="2.52187">
        <ele>98</ele>
        <time>2014-05-25T11:59:01Z</time>
      </trkpt>
      <trkpt lat="48.75306" lon="2.52187">
        <ele>98</ele>
        <time>2014-05-25T11:59:02Z</time>
      </trkpt>
      <trkpt lat="48.75306" lon="2.52187">
        <ele>98</ele>
        <time>2014-05-25T11:59:03Z</time>
      </trkpt>
      <trkpt lat="48.75306" lon="2.52187">
        <ele>98</ele>
        <time>2014-05-25T11:59:04Z</time>
      </trkpt>
      <trkpt lat="48.75306" lon="2.52187">
        <ele>98</ele>
        <time>2014-05-25T11:59:05Z</time>
      </trkpt>
      <trkpt lat="48.75306" lon="2.52187">
        <ele>98</ele>
        <time>2014-05-25T11:59:06Z</time>
      </trkpt>
      <trkpt lat="48.75306" lon="2.52187">
        <ele>98</ele>
        <time>2014-05-25T11:59:07Z</time>
      </trkpt>
      <trkpt lat="48.75306" lon="2.52187">
        <ele>98</ele>
        <time>2014-05-25T11:59:08Z</time>
      </trkpt>
      <trkpt lat="48.75306" lon="2.52187">
        <ele>98</ele>
        <time>2014-05-25T11:59:09Z</time>
      </trkpt>
      <trkpt lat="48.75306" lon="2.52187">
        <ele>98</ele>
        <time>2014-05-25T11:59:10Z</time>
      </trkpt>
      <trkpt lat="48.75306" lon="2.52187">
        <ele>98</ele>
        <time>2014-05-25T11:59:11Z</time>
      </trkpt>
      <trkpt lat="48.75306" lon="2.52187">
        <ele>98</ele>
        <time>2014-05-25T11:59:12Z</time>
      </trkpt>
      <trkpt lat="48.75306" lon="2.52187">
        <ele>98</ele>
        <time>2014-05-25T11:59:13Z</time>
      </trkpt>
      <trkpt lat="48.75306" lon="2.52187">
        <ele>98</ele>
        <time>2014-05-25T11:59:14Z</time>
      </trkpt>
      <trkpt lat="48.75306" lon="2.52187">
        <ele>98</ele>
        <time>2014-05-25T11:59:15Z</time>
      </trkpt>
      <trkpt lat="48.75306" lon="2.52187">
        <ele>98</ele>
        <time>2014-05-25T11:59:16Z</time>
      </trkpt>
      <trkpt lat="48.75306" lon="2.52187">
        <ele>98</ele>
        <time>2014-05-25T11:59:17Z</time>
      </trkpt>
      <trkpt lat="48.75306" lon="2.52187">
        <ele>98</ele>
        <time>2014-05-25T11:59:18Z</time>
      </trkpt>
      <trkpt lat="48.75306" lon="2.52187">
        <ele>98</ele>
        <time>2014-05-25T11:59:19Z</time>
      </trkpt>
      <trkpt lat="48.75306" lon="2.52187">
        <ele>98</ele>
        <time>2014-05-25T11:59:20Z</time>
      </trkpt>
      <trkpt lat="48.75306" lon="2.52187">
        <ele>98</ele>
        <time>2014-05-25T11:59:21Z</time>
      </trkpt>
      <trkpt lat="48.75306" lon="2.52187">
        <ele>98</ele>
        <time>2014-05-25T11:59:22Z</time>
      </trkpt>
      <trkpt lat="48.75306" lon="2.52187">
        <ele>98</ele>
        <time>2014-05-25T11:59:23Z</time>
      </trkpt>
      <trkpt lat="48.75306" lon="2.52187">
        <ele>98</ele>
        <time>2014-05-25T11:59:24Z</time>
      </trkpt>
      <trkpt lat="48.75306" lon="2.52187">
        <ele>98</ele>
        <time>2014-05-25T11:59:25Z</time>
      </trkpt>
      <trkpt lat="48.75306" lon="2.52187">
        <ele>98</ele>
        <time>2014-05-25T11:59:26Z</time>
      </trkpt>
      <trkpt lat="48.75306" lon="2.52187">
        <ele>98</ele>
        <time>2014-05-25T11:59:27Z</time>
      </trkpt>
      <trkpt lat="48.75306" lon="2.52187">
        <ele>98</ele>
        <time>2014-05-25T11:59:28Z</time>
      </trkpt>
      <trkpt lat="48.75306" lon="2.52187">
        <ele>98</ele>
        <time>2014-05-25T11:59:29Z</time>
      </trkpt>
      <trkpt lat="48.75306" lon="2.52187">
        <ele>98</ele>
        <time>2014-05-25T11:59:30Z</time>
      </trkpt>
      <trkpt lat="48.75306" lon="2.52187">
        <ele>98</ele>
        <time>2014-05-25T11:59:31Z</time>
      </trkpt>
      <trkpt lat="48.75306" lon="2.52187">
        <ele>98</ele>
        <time>2014-05-25T11:59:32Z</time>
      </trkpt>
      <trkpt lat="48.75306" lon="2.52187">
        <ele>98</ele>
        <time>2014-05-25T11:59:33Z</time>
      </trkpt>
      <trkpt lat="48.75306" lon="2.52187">
        <ele>98</ele>
        <time>2014-05-25T11:59:34Z</time>
      </trkpt>
      <trkpt lat="48.75306" lon="2.52187">
        <ele>98</ele>
        <time>2014-05-25T11:59:35Z</time>
      </trkpt>
      <trkpt lat="48.75306" lon="2.52187">
        <ele>98</ele>
        <time>2014-05-25T11:59:36Z</time>
      </trkpt>
      <trkpt lat="48.75306" lon="2.52187">
        <ele>98</ele>
        <time>2014-05-25T11:59:37Z</time>
      </trkpt>
      <trkpt lat="48.75306" lon="2.52187">
        <ele>98</ele>
        <time>2014-05-25T11:59:38Z</time>
      </trkpt>
      <trkpt lat="48.75306" lon="2.52187">
        <ele>98</ele>
        <time>2014-05-25T11:59:39Z</time>
      </trkpt>
      <trkpt lat="48.75306" lon="2.52187">
        <ele>98</ele>
        <time>2014-05-25T11:59:40Z</time>
      </trkpt>
      <trkpt lat="48.75306" lon="2.52187">
        <ele>98</ele>
        <time>2014-05-25T11:59:41Z</time>
      </trkpt>
      <trkpt lat="48.75306" lon="2.52187">
        <ele>98</ele>
        <time>2014-05-25T11:59:42Z</time>
      </trkpt>
      <trkpt lat="48.75306" lon="2.52187">
        <ele>98</ele>
        <time>2014-05-25T11:59:43Z</time>
      </trkpt>
      <trkpt lat="48.75306" lon="2.52187">
        <ele>98</ele>
        <time>2014-05-25T11:59:44Z</time>
      </trkpt>
      <trkpt lat="48.75306" lon="2.52187">
        <ele>98</ele>
        <time>2014-05-25T11:59:45Z</time>
      </trkpt>
      <trkpt lat="48.75306" lon="2.52187">
        <ele>98</ele>
        <time>2014-05-25T11:59:46Z</time>
      </trkpt>
      <trkpt lat="48.75306" lon="2.52187">
        <ele>98</ele>
        <time>2014-05-25T11:59:47Z</time>
      </trkpt>
      <trkpt lat="48.75306" lon="2.52187">
        <ele>98</ele>
        <time>2014-05-25T11:59:48Z</time>
      </trkpt>
      <trkpt lat="48.75306" lon="2.52187">
        <ele>98</ele>
        <time>2014-05-25T11:59:49Z</time>
      </trkpt>
      <trkpt lat="48.75306" lon="2.52187">
        <ele>98</ele>
        <time>2014-05-25T11:59:50Z</time>
      </trkpt>
      <trkpt lat="48.75306" lon="2.52187">
        <ele>98</ele>
        <time>2014-05-25T11:59:51Z</time>
      </trkpt>
      <trkpt lat="48.75306" lon="2.52187">
        <ele>98</ele>
        <time>2014-05-25T11:59:52Z</time>
      </trkpt>
      <trkpt lat="48.75306" lon="2.52187">
        <ele>98</ele>
        <time>2014-05-25T11:59:53Z</time>
      </trkpt>
      <trkpt lat="48.75306" lon="2.52187">
        <ele>98</ele>
        <time>2014-05-25T11:59:54Z</time>
      </trkpt>
      <trkpt lat="48.75306" lon="2.52187">
        <ele>98</ele>
        <time>2014-05-25T11:59:55Z</time>
      </trkpt>
      <trkpt lat="48.75306" lon="2.52187">
        <ele>98</ele>
        <time>2014-05-25T11:59:56Z</time>
      </trkpt>
      <trkpt lat="48.75306" lon="2.52187">
        <ele>98</ele>
        <time>2014-05-25T11:59:57Z</time>
      </trkpt>
      <trkpt lat="48.75306" lon="2.52187">
        <ele>98</ele>
        <time>2014-05-25T11:59:58Z</time>
      </trkpt>
      <trkpt lat="48.75306" lon="2.52187">
        <ele>98</ele>
        <time>2014-05-25T11:59:59Z</time>
      </trkpt>
      <trkpt lat="48.75306" lon="2.52187">
        <ele>98</ele>
        <time>2014-05-25T12:00:00Z</time>
      </trkpt>
      <trkpt lat="48.75306" lon="2.52187">
        <ele>98</ele>
        <time>2014-05-25T12:00:01Z</time>
      </trkpt>
      <trkpt lat="48.75306" lon="2.52187">
        <ele>98</ele>
        <time>2014-05-25T12:00:02Z</time>
      </trkpt>
      <trkpt lat="48.75306" lon="2.52187">
        <ele>98</ele>
        <time>2014-05-25T12:00:03Z</time>
      </trkpt>
      <trkpt lat="48.75306" lon="2.52187">
        <ele>98</ele>
        <time>2014-05-25T12:00:04Z</time>
      </trkpt>
      <trkpt lat="48.75306" lon="2.52187">
        <ele>98</ele>
        <time>2014-05-25T12:00:05Z</time>
      </trkpt>
      <trkpt lat="48.75306" lon="2.52187">
        <ele>98</ele>
        <time>2014-05-25T12:00:06Z</time>
      </trkpt>
      <trkpt lat="48.75306" lon="2.52187">
        <ele>98</ele>
        <time>2014-05-25T12:00:07Z</time>
      </trkpt>
      <trkpt lat="48.75306" lon="2.52187">
        <ele>98</ele>
        <time>2014-05-25T12:00:08Z</time>
      </trkpt>
      <trkpt lat="48.75306" lon="2.52187">
        <ele>98</ele>
        <time>2014-05-25T12:00:09Z</time>
      </trkpt>
      <trkpt lat="48.75306" lon="2.52187">
        <ele>98</ele>
        <time>2014-05-25T12:00:10Z</time>
      </trkpt>
      <trkpt lat="48.75306" lon="2.52187">
        <ele>98</ele>
        <time>2014-05-25T12:00:11Z</time>
      </trkpt>
      <trkpt lat="48.75306" lon="2.52187">
        <ele>98</ele>
        <time>2014-05-25T12:00:12Z</time>
      </trkpt>
      <trkpt lat="48.75306" lon="2.52187">
        <ele>98</ele>
        <time>2014-05-25T12:00:13Z</time>
      </trkpt>
      <trkpt lat="48.75306" lon="2.52187">
        <ele>98</ele>
        <time>2014-05-25T12:00:14Z</time>
      </trkpt>
      <trkpt lat="48.75306" lon="2.52187">
        <ele>98</ele>
        <time>2014-05-25T12:00:15Z</time>
      </trkpt>
      <trkpt lat="48.75306" lon="2.52187">
        <ele>98</ele>
        <time>2014-05-25T12:00:16Z</time>
      </trkpt>
      <trkpt lat="48.75306" lon="2.52187">
        <ele>98</ele>
        <time>2014-05-25T12:00:17Z</time>
      </trkpt>
      <trkpt lat="48.75306" lon="2.52187">
        <ele>98</ele>
        <time>2014-05-25T12:00:18Z</time>
      </trkpt>
      <trkpt lat="48.75306" lon="2.52187">
        <ele>98</ele>
        <time>2014-05-25T12:00:19Z</time>
      </trkpt>
      <trkpt lat="48.75306" lon="2.52187">
        <ele>98</ele>
        <time>2014-05-25T12:00:20Z</time>
      </trkpt>
      <trkpt lat="48.75306" lon="2.52187">
        <ele>98</ele>
        <time>2014-05-25T12:00:21Z</time>
      </trkpt>
      <trkpt lat="48.75306" lon="2.52187">
        <ele>98</ele>
        <time>2014-05-25T12:00:22Z</time>
      </trkpt>
      <trkpt lat="48.75306" lon="2.52187">
        <ele>98</ele>
        <time>2014-05-25T12:00:23Z</time>
      </trkpt>
      <trkpt lat="48.75306" lon="2.52187">
        <ele>98</ele>
        <time>2014-05-25T12:00:24Z</time>
      </trkpt>
      <trkpt lat="48.75306" lon="2.52187">
        <ele>98</ele>
        <time>2014-05-25T12:00:25Z</time>
      </trkpt>
      <trkpt lat="48.75306" lon="2.52187">
        <ele>98</ele>
        <time>2014-05-25T12:00:26Z</time>
      </trkpt>
      <trkpt lat="48.75306" lon="2.52187">
        <ele>98</ele>
        <time>2014-05-25T12:00:27Z</time>
      </trkpt>
      <trkpt lat="48.75306" lon="2.52187">
        <ele>98</ele>
        <time>2014-05-25T12:00:28Z</time>
      </trkpt>
      <trkpt lat="48.75306" lon="2.52187">
        <ele>98</ele>
        <time>2014-05-25T12:00:29Z</time>
      </trkpt>
      <trkpt lat="48.75306" lon="2.52187">
        <ele>98</ele>
        <time>2014-05-25T12:00:30Z</time>
      </trkpt>
      <trkpt lat="48.75306" lon="2.52187">
        <ele>98</ele>
        <time>2014-05-25T12:00:31Z</time>
      </trkpt>
      <trkpt lat="48.75306" lon="2.52187">
        <ele>98</ele>
        <time>2014-05-25T12:00:32Z</time>
      </trkpt>
      <trkpt lat="48.75306" lon="2.52187">
        <ele>98</ele>
        <time>2014-05-25T12:00:33Z</time>
      </trkpt>
      <trkpt lat="48.75306" lon="2.52187">
        <ele>98</ele>
        <time>2014-05-25T12:00:34Z</time>
      </trkpt>
      <trkpt lat="48.75306" lon="2.52187">
        <ele>98</ele>
        <time>2014-05-25T12:00:35Z</time>
      </trkpt>
      <trkpt lat="48.75306" lon="2.52187">
        <ele>98</ele>
        <time>2014-05-25T12:00:36Z</time>
      </trkpt>
      <trkpt lat="48.75306" lon="2.52187">
        <ele>98</ele>
        <time>2014-05-25T12:00:37Z</time>
      </trkpt>
      <trkpt lat="48.75306" lon="2.52187">
        <ele>98</ele>
        <time>2014-05-25T12:00:38Z</time>
      </trkpt>
      <trkpt lat="48.75306" lon="2.52187">
        <ele>98</ele>
        <time>2014-05-25T12:00:39Z</time>
      </trkpt>
      <trkpt lat="48.75306" lon="2.52187">
        <ele>98</ele>
        <time>2014-05-25T12:00:40Z</time>
      </trkpt>
      <trkpt lat="48.75306" lon="2.52187">
        <ele>98</ele>
        <time>2014-05-25T12:00:41Z</time>
      </trkpt>
      <trkpt lat="48.75306" lon="2.52187">
        <ele>98</ele>
        <time>2014-05-25T12:00:42Z</time>
      </trkpt>
      <trkpt lat="48.75306" lon="2.52187">
        <ele>98</ele>
        <time>2014-05-25T12:00:43Z</time>
      </trkpt>
      <trkpt lat="48.75306" lon="2.52187">
        <ele>98</ele>
        <time>2014-05-25T12:00:44Z</time>
      </trkpt>
      <trkpt lat="48.75306" lon="2.52187">
        <ele>98</ele>
        <time>2014-05-25T12:00:45Z</time>
      </trkpt>
      <trkpt lat="48.75306" lon="2.52187">
        <ele>98</ele>
        <time>2014-05-25T12:00:46Z</time>
      </trkpt>
      <trkpt lat="48.75306" lon="2.52187">
        <ele>98</ele>
        <time>2014-05-25T12:00:47Z</time>
      </trkpt>
      <trkpt lat="48.75306" lon="2.52187">
        <ele>98</ele>
        <time>2014-05-25T12:00:48Z</time>
      </trkpt>
      <trkpt lat="48.75306" lon="2.52187">
        <ele>98</ele>
        <time>2014-05-25T12:00:49Z</time>
      </trkpt>
      <trkpt lat="48.75306" lon="2.52187">
        <ele>98</ele>
        <time>2014-05-25T12:00:50Z</time>
      </trkpt>
      <trkpt lat="48.75306" lon="2.52187">
        <ele>98</ele>
        <time>2014-05-25T12:00:51Z</time>
      </trkpt>
      <trkpt lat="48.75306" lon="2.52187">
        <ele>98</ele>
        <time>2014-05-25T12:00:52Z</time>
      </trkpt>
      <trkpt lat="48.75306" lon="2.52187">
        <ele>98</ele>
        <time>2014-05-25T12:00:53Z</time>
      </trkpt>
      <trkpt lat="48.75306" lon="2.52187">
        <ele>98</ele>
        <time>2014-05-25T12:00:54Z</time>
      </trkpt>
      <trkpt lat="48.75306" lon="2.52187">
        <ele>98</ele>
        <time>2014-05-25T12:00:55Z</time>
      </trkpt>
      <trkpt lat="48.75306" lon="2.52187">
        <ele>98</ele>
        <time>2014-05-25T12:00:56Z</time>
      </trkpt>
      <trkpt lat="48.75306" lon="2.52187">
        <ele>98</ele>
        <time>2014-05-25T12:00:57Z</time>
      </trkpt>
      <trkpt lat="48.75306" lon="2.52187">
        <ele>98</ele>
        <time>2014-05-25T12:00:58Z</time>
      </trkpt>
      <trkpt lat="48.75306" lon="2.52187">
        <ele>98</ele>
        <time>2014-05-25T12:00:59Z</time>
      </trkpt>
      <trkpt lat="48.75306" lon="2.52187">
        <ele>98</ele>
        <time>2014-05-25T12:01:00Z</time>
      </trkpt>
      <trkpt lat="48.75306" lon="2.52187">
        <ele>98</ele>
        <time>2014-05-25T12:01:01Z</time>
      </trkpt>
      <trkpt lat="48.75306" lon="2.52187">
        <ele>98</ele>
        <time>2014-05-25T12:01:02Z</time>
      </trkpt>
      <trkpt lat="48.75306" lon="2.52187">
        <ele>98</ele>
        <time>2014-05-25T12:01:03Z</time>
      </trkpt>
      <trkpt lat="48.75306" lon="2.52187">
        <ele>98</ele>
        <time>2014-05-25T12:01:04Z</time>
      </trkpt>
      <trkpt lat="48.75306" lon="2.52187">
        <ele>98</ele>
        <time>2014-05-25T12:01:05Z</time>
      </trkpt>
      <trkpt lat="48.75306" lon="2.52187">
        <ele>98</ele>
        <time>2014-05-25T12:01:06Z</time>
      </trkpt>
      <trkpt lat="48.75306" lon="2.52187">
        <ele>98</ele>
        <time>2014-05-25T12:01:07Z</time>
      </trkpt>
      <trkpt lat="48.75306" lon="2.52187">
        <ele>98</ele>
        <time>2014-05-25T12:01:08Z</time>
      </trkpt>
      <trkpt lat="48.75306" lon="2.52187">
        <ele>98</ele>
        <time>2014-05-25T12:01:09Z</time>
      </trkpt>
      <trkpt lat="48.75306" lon="2.52187">
        <ele>98</ele>
        <time>2014-05-25T12:01:10Z</time>
      </trkpt>
      <trkpt lat="48.75306" lon="2.52187">
        <ele>98</ele>
        <time>2014-05-25T12:01:11Z</time>
      </trkpt>
      <trkpt lat="48.75306" lon="2.52187">
        <ele>98</ele>
        <time>2014-05-25T12:01:12Z</time>
      </trkpt>
      <trkpt lat="48.75306" lon="2.52187">
        <ele>98</ele>
        <time>2014-05-25T12:01:13Z</time>
      </trkpt>
      <trkpt lat="48.75306" lon="2.52187">
        <ele>98</ele>
        <time>2014-05-25T12:01:14Z</time>
      </trkpt>
      <trkpt lat="48.75306" lon="2.52187">
        <ele>98</ele>
        <time>2014-05-25T12:01:15Z</time>
      </trkpt>
      <trkpt lat="48.75306" lon="2.52187">
        <ele>98</ele>
        <time>2014-05-25T12:01:16Z</time>
      </trkpt>
      <trkpt lat="48.75306" lon="2.52187">
        <ele>98</ele>
        <time>2014-05-25T12:01:17Z</time>
      </trkpt>
      <trkpt lat="48.75306" lon="2.52187">
        <ele>98</ele>
        <time>2014-05-25T12:01:18Z</time>
      </trkpt>
      <trkpt lat="48.75306" lon="2.52187">
        <ele>98</ele>
        <time>2014-05-25T12:01:19Z</time>
      </trkpt>
      <trkpt lat="48.75306" lon="2.52187">
        <ele>98</ele>
        <time>2014-05-25T12:01:20Z</time>
      </trkpt>
      <trkpt lat="48.75306" lon="2.52187">
        <ele>98</ele>
        <time>2014-05-25T12:01:21Z</time>
      </trkpt>
      <trkpt lat="48.75306" lon="2.52187">
        <ele>98</ele>
        <time>2014-05-25T12:01:22Z</time>
      </trkpt>
      <trkpt lat="48.75306" lon="2.52187">
        <ele>98</ele>
        <time>2014-05-25T12:01:23Z</time>
      </trkpt>
      <trkpt lat="48.75306" lon="2.52187">
        <ele>98</ele>
        <time>2014-05-25T12:01:24Z</time>
      </trkpt>
      <trkpt lat="48.75306" lon="2.52187">
        <ele>98</ele>
        <time>2014-05-25T12:01:25Z</time>
      </trkpt>
      <trkpt lat="48.75306" lon="2.52187">
        <ele>98</ele>
        <time>2014-05-25T12:01:26Z</time>
      </trkpt>
      <trkpt lat="48.75306" lon="2.52187">
        <ele>98</ele>
        <time>2014-05-25T12:01:27Z</time>
      </trkpt>
      <trkpt lat="48.75306" lon="2.52187">
        <ele>98</ele>
        <time>2014-05-25T12:01:28Z</time>
      </trkpt>
      <trkpt lat="48.75306" lon="2.52187">
        <ele>98</ele>
        <time>2014-05-25T12:01:29Z</time>
      </trkpt>
      <trkpt lat="48.75306" lon="2.52187">
        <ele>98</ele>
        <time>2014-05-25T12:01:30Z</time>
      </trkpt>
      <trkpt lat="48.75306" lon="2.52187">
        <ele>98</ele>
        <time>2014-05-25T12:01:31Z</time>
      </trkpt>
      <trkpt lat="48.75306" lon="2.52187">
        <ele>98</ele>
        <time>2014-05-25T12:01:32Z</time>
      </trkpt>
      <trkpt lat="48.75306" lon="2.52187">
        <ele>98</ele>
        <time>2014-05-25T12:01:33Z</time>
      </trkpt>
      <trkpt lat="48.75306" lon="2.52187">
        <ele>98</ele>
        <time>2014-05-25T12:01:34Z</time>
      </trkpt>
      <trkpt lat="48.75306" lon="2.52187">
        <ele>98</ele>
        <time>2014-05-25T12:01:35Z</time>
      </trkpt>
      <trkpt lat="48.75306" lon="2.52187">
        <ele>98</ele>
        <time>2014-05-25T12:01:36Z</time>
      </trkpt>
      <trkpt lat="48.75306" lon="2.52187">
        <ele>98</ele>
        <time>2014-05-25T12:01:37Z</time>
      </trkpt>
      <trkpt lat="48.75306" lon="2.52187">
        <ele>98</ele>
        <time>2014-05-25T12:01:38Z</time>
      </trkpt>
      <trkpt lat="48.75306" lon="2.52187">
        <ele>98</ele>
        <time>2014-05-25T12:01:39Z</time>
      </trkpt>
      <trkpt lat="48.75306" lon="2.52187">
        <ele>98</ele>
        <time>2014-05-25T12:01:40Z</time>
      </trkpt>
      <trkpt lat="48.75306" lon="2.52187">
        <ele>98</ele>
        <time>2014-05-25T12:01:41Z</time>
      </trkpt>
      <trkpt lat="48.75306" lon="2.52187">
        <ele>98</ele>
        <time>2014-05-25T12:01:42Z</time>
      </trkpt>
      <trkpt lat="48.75306" lon="2.52187">
        <ele>98</ele>
        <time>2014-05-25T12:01:43Z</time>
      </trkpt>
      <trkpt lat="48.75306" lon="2.52187">
        <ele>98</ele>
        <time>2014-05-25T12:01:44Z</time>
      </trkpt>
      <trkpt lat="48.75306" lon="2.52187">
        <ele>98</ele>
        <time>2014-05-25T12:01:45Z</time>
      </trkpt>
      <trkpt lat="48.75306" lon="2.52187">
        <ele>98</ele>
        <time>2014-05-25T12:01:46Z</time>
      </trkpt>
      <trkpt lat="48.75306" lon="2.52187">
        <ele>98</ele>
        <time>2014-05-25T12:01:47Z</time>
      </trkpt>
      <trkpt lat="48.75306" lon="2.52187">
        <ele>98</ele>
        <time>2014-05-25T12:01:48Z</time>
      </trkpt>
      <trkpt lat="48.75306" lon="2.52187">
        <ele>98</ele>
        <time>2014-05-25T12:01:49Z</time>
      </trkpt>
      <trkpt lat="48.75306" lon="2.52187">
        <ele>98</ele>
        <time>2014-05-25T12:01:50Z</time>
      </trkpt>
      <trkpt lat="48.75306" lon="2.52187">
        <ele>98</ele>
        <time>2014-05-25T12:01:51Z</time>
      </trkpt>
      <trkpt lat="48.75306" lon="2.52187">
        <ele>98</ele>
        <time>2014-05-25T12:01:52Z</time>
      </trkpt>
      <trkpt lat="48.75306" lon="2.52187">
        <ele>98</ele>
        <time>2014-05-25T12:01:53Z</time>
      </trkpt>
      <trkpt lat="48.75306" lon="2.52187">
        <ele>98</ele>
        <time>2014-05-25T12:01:54Z</time>
      </trkpt>
      <trkpt lat="48.75306" lon="2.52187">
        <ele>98</ele>
        <time>2014-05-25T12:01:55Z</time>
      </trkpt>
      <trkpt lat="48.75306" lon="2.52187">
        <ele>98</ele>
        <time>2014-05-25T12:01:56Z</time>
      </trkpt>
      <trkpt lat="48.75306" lon="2.52187">
        <ele>98</ele>
        <time>2014-05-25T12:01:57Z</time>
      </trkpt>
      <trkpt lat="48.75306" lon="2.52187">
        <ele>98</ele>
        <time>2014-05-25T12:01:58Z</time>
      </trkpt>
      <trkpt lat="48.75306" lon="2.52187">
        <ele>98</ele>
        <time>2014-05-25T12:01:59Z</time>
      </trkpt>
      <trkpt lat="48.75306" lon="2.52187">
        <ele>98</ele>
        <time>2014-05-25T12:02:00Z</time>
      </trkpt>
      <trkpt lat="48.75306" lon="2.52187">
        <ele>98</ele>
        <time>2014-05-25T12:02:01Z</time>
      </trkpt>
      <trkpt lat="48.75306" lon="2.52187">
        <ele>98</ele>
        <time>2014-05-25T12:02:02Z</time>
      </trkpt>
      <trkpt lat="48.75306" lon="2.52187">
        <ele>98</ele>
        <time>2014-05-25T12:02:03Z</time>
      </trkpt>
      <trkpt lat="48.75306" lon="2.52187">
        <ele>98</ele>
        <time>2014-05-25T12:02:04Z</time>
      </trkpt>
      <trkpt lat="48.75306" lon="2.52187">
        <ele>98</ele>
        <time>2014-05-25T12:02:05Z</time>
      </trkpt>
      <trkpt lat="48.75306" lon="2.52187">
        <ele>98</ele>
        <time>2014-05-25T12:02:06Z</time>
      </trkpt>
      <trkpt lat="48.75306" lon="2.52187">
        <ele>98</ele>
        <time>2014-05-25T12:02:07Z</time>
      </trkpt>
      <trkpt lat="48.75306" lon="2.52187">
        <ele>98</ele>
        <time>2014-05-25T12:02:08Z</time>
      </trkpt>
      <trkpt lat="48.75306" lon="2.52187">
        <ele>98</ele>
        <time>2014-05-25T12:02:09Z</time>
      </trkpt>
      <trkpt lat="48.75306" lon="2.52187">
        <ele>98</ele>
        <time>2014-05-25T12:02:10Z</time>
      </trkpt>
      <trkpt lat="48.75306" lon="2.52187">
        <ele>98</ele>
        <time>2014-05-25T12:02:11Z</time>
      </trkpt>
      <trkpt lat="48.75306" lon="2.52187">
        <ele>98</ele>
        <time>2014-05-25T12:02:12Z</time>
      </trkpt>
      <trkpt lat="48.75306" lon="2.52187">
        <ele>98</ele>
        <time>2014-05-25T12:02:13Z</time>
      </trkpt>
      <trkpt lat="48.75306" lon="2.52187">
        <ele>98</ele>
        <time>2014-05-25T12:02:14Z</time>
      </trkpt>
      <trkpt lat="48.75306" lon="2.52187">
        <ele>98</ele>
        <time>2014-05-25T12:02:15Z</time>
      </trkpt>
      <trkpt lat="48.75306" lon="2.52187">
        <ele>98</ele>
        <time>2014-05-25T12:02:16Z</time>
      </trkpt>
      <trkpt lat="48.75306" lon="2.52187">
        <ele>98</ele>
        <time>2014-05-25T12:02:17Z</time>
      </trkpt>
      <trkpt lat="48.75306" lon="2.52187">
        <ele>98</ele>
        <time>2014-05-25T12:02:18Z</time>
      </trkpt>
      <trkpt lat="48.75306" lon="2.52187">
        <ele>98</ele>
        <time>2014-05-25T12:02:19Z</time>
      </trkpt>
      <trkpt lat="48.75306" lon="2.52187">
        <ele>98</ele>
        <time>2014-05-25T12:02:20Z</time>
      </trkpt>
      <trkpt lat="48.75306" lon="2.52187">
        <ele>98</ele>
        <time>2014-05-25T12:02:21Z</time>
      </trkpt>
      <trkpt lat="48.75306" lon="2.52187">
        <ele>98</ele>
        <time>2014-05-25T12:02:22Z</time>
      </trkpt>
      <trkpt lat="48.75306" lon="2.52187">
        <ele>98</ele>
        <time>2014-05-25T12:02:23Z</time>
      </trkpt>
      <trkpt lat="48.75306" lon="2.52187">
        <ele>98</ele>
        <time>2014-05-25T12:02:24Z</time>
      </trkpt>
      <trkpt lat="48.75306" lon="2.52187">
        <ele>98</ele>
        <time>2014-05-25T12:02:25Z</time>
      </trkpt>
      <trkpt lat="48.75306" lon="2.52187">
        <ele>98</ele>
        <time>2014-05-25T12:02:26Z</time>
      </trkpt>
      <trkpt lat="48.75306" lon="2.52187">
        <ele>98</ele>
        <time>2014-05-25T12:02:27Z</time>
      </trkpt>
      <trkpt lat="48.75306" lon="2.52187">
        <ele>98</ele>
        <time>2014-05-25T12:02:28Z</time>
      </trkpt>
      <trkpt lat="48.75306" lon="2.52187">
        <ele>98</ele>
        <time>2014-05-25T12:02:29Z</time>
      </trkpt>
      <trkpt lat="48.75306" lon="2.52187">
        <ele>98</ele>
        <time>2014-05-25T12:02:30Z</time>
      </trkpt>
      <trkpt lat="48.75306" lon="2.52187">
        <ele>98</ele>
        <time>2014-05-25T12:02:31Z</time>
      </trkpt>
      <trkpt lat="48.75306" lon="2.52187">
        <ele>98</ele>
        <time>2014-05-25T12:02:32Z</time>
      </trkpt>
      <trkpt lat="48.75306" lon="2.52187">
        <ele>98</ele>
        <time>2014-05-25T12:02:33Z</time>
      </trkpt>
      <trkpt lat="48.75306" lon="2.52187">
        <ele>98</ele>
        <time>2014-05-25T12:02:34Z</time>
      </trkpt>
      <trkpt lat="48.75306" lon="2.52187">
        <ele>98</ele>
        <time>2014-05-25T12:02:35Z</time>
      </trkpt>
      <trkpt lat="48.75306" lon="2.52187">
        <ele>98</ele>
        <time>2014-05-25T12:02:36Z</time>
      </trkpt>
      <trkpt lat="48.75306" lon="2.52187">
        <ele>98</ele>
        <time>2014-05-25T12:02:37Z</time>
      </trkpt>
      <trkpt lat="48.75306" lon="2.52187">
        <ele>98</ele>
        <time>2014-05-25T12:02:38Z</time>
      </trkpt>
      <trkpt lat="48.75306" lon="2.52187">
        <ele>98</ele>
        <time>2014-05-25T12:02:39Z</time>
      </trkpt>
      <trkpt lat="48.75306" lon="2.52187">
        <ele>98</ele>
        <time>2014-05-25T12:02:40Z</time>
      </trkpt>
      <trkpt lat="48.75306" lon="2.52187">
        <ele>98</ele>
        <time>2014-05-25T12:02:41Z</time>
      </trkpt>
      <trkpt lat="48.75306" lon="2.52187">
        <ele>98</ele>
        <time>2014-05-25T12:02:42Z</time>
      </trkpt>
      <trkpt lat="48.75306" lon="2.52187">
        <ele>98</ele>
        <time>2014-05-25T12:02:43Z</time>
      </trkpt>
      <trkpt lat="48.75306" lon="2.52187">
        <ele>98</ele>
        <time>2014-05-25T12:02:44Z</time>
      </trkpt>
      <trkpt lat="48.75306" lon="2.52187">
        <ele>98</ele>
        <time>2014-05-25T12:02:45Z</time>
      </trkpt>
      <trkpt lat="48.75306" lon="2.52187">
        <ele>98</ele>
        <time>2014-05-25T12:02:46Z</time>
      </trkpt>
      <trkpt lat="48.75306" lon="2.52187">
        <ele>98</ele>
        <time>2014-05-25T12:02:47Z</time>
      </trkpt>
      <trkpt lat="48.75306" lon="2.52187">
        <ele>98</ele>
        <time>2014-05-25T12:02:48Z</time>
      </trkpt>
      <trkpt lat="48.75306" lon="2.52187">
        <ele>98</ele>
        <time>2014-05-25T12:02:49Z</time>
      </trkpt>
      <trkpt lat="48.75306" lon="2.52187">
        <ele>98</ele>
        <time>2014-05-25T12:02:50Z</time>
      </trkpt>
      <trkpt lat="48.75306" lon="2.52187">
        <ele>98</ele>
        <time>2014-05-25T12:02:51Z</time>
      </trkpt>
      <trkpt lat="48.75306" lon="2.52187">
        <ele>98</ele>
        <time>2014-05-25T12:02:52Z</time>
      </trkpt>
      <trkpt lat="48.75306" lon="2.52187">
        <ele>98</ele>
        <time>2014-05-25T12:02:53Z</time>
      </trkpt>
      <trkpt lat="48.75306" lon="2.52187">
        <ele>98</ele>
        <time>2014-05-25T12:02:54Z</time>
      </trkpt>
      <trkpt lat="48.75306" lon="2.52187">
        <ele>98</ele>
        <time>2014-05-25T12:02:55Z</time>
      </trkpt>
      <trkpt lat="48.75306" lon="2.52187">
        <ele>98</ele>
        <time>2014-05-25T12:02:56Z</time>
      </trkpt>
      <trkpt lat="48.75306" lon="2.52187">
        <ele>98</ele>
        <time>2014-05-25T12:02:57Z</time>
      </trkpt>
      <trkpt lat="48.75306" lon="2.52187">
        <ele>98</ele>
        <time>2014-05-25T12:02:58Z</time>
      </trkpt>
      <trkpt lat="48.75306" lon="2.52187">
        <ele>98</ele>
        <time>2014-05-25T12:02:59Z</time>
      </trkpt>
      <trkpt lat="48.75306" lon="2.52187">
        <ele>98</ele>
        <time>2014-05-25T12:03:00Z</time>
      </trkpt>
      <trkpt lat="48.75306" lon="2.52187">
        <ele>98</ele>
        <time>2014-05-25T12:03:01Z</time>
      </trkpt>
      <trkpt lat="48.75306" lon="2.52187">
        <ele>98</ele>
        <time>2014-05-25T12:03:02Z</time>
      </trkpt>
      <trkpt lat="48.75306" lon="2.52187">
        <ele>98</ele>
        <time>2014-05-25T12:03:03Z</time>
      </trkpt>
      <trkpt lat="48.75306" lon="2.52187">
        <ele>98</ele>
        <time>2014-05-25T12:03:04Z</time>
      </trkpt>
      <trkpt lat="48.75306" lon="2.52187">
        <ele>98</ele>
        <time>2014-05-25T12:03:05Z</time>
      </trkpt>
      <trkpt lat="48.75306" lon="2.52187">
        <ele>98</ele>
        <time>2014-05-25T12:03:06Z</time>
      </trkpt>
      <trkpt lat="48.75306" lon="2.52187">
        <ele>98</ele>
        <time>2014-05-25T12:03:07Z</time>
      </trkpt>
      <trkpt lat="48.75306" lon="2.52187">
        <ele>98</ele>
        <time>2014-05-25T12:03:08Z</time>
      </trkpt>
      <trkpt lat="48.75306" lon="2.52187">
        <ele>98</ele>
        <time>2014-05-25T12:03:09Z</time>
      </trkpt>
      <trkpt lat="48.75306" lon="2.52187">
        <ele>98</ele>
        <time>2014-05-25T12:03:10Z</time>
      </trkpt>
      <trkpt lat="48.75306" lon="2.52187">
        <ele>98</ele>
        <time>2014-05-25T12:03:11Z</time>
      </trkpt>
      <trkpt lat="48.75306" lon="2.52187">
        <ele>98</ele>
        <time>2014-05-25T12:03:12Z</time>
      </trkpt>
      <trkpt lat="48.75306" lon="2.52187">
        <ele>98</ele>
        <time>2014-05-25T12:03:13Z</time>
      </trkpt>
      <trkpt lat="48.75306" lon="2.52187">
        <ele>98</ele>
        <time>2014-05-25T12:03:14Z</time>
      </trkpt>
      <trkpt lat="48.75306" lon="2.52187">
        <ele>98</ele>
        <time>2014-05-25T12:03:15Z</time>
      </trkpt>
      <trkpt lat="48.75306" lon="2.52187">
        <ele>98</ele>
        <time>2014-05-25T12:03:16Z</time>
      </trkpt>
      <trkpt lat="48.75306" lon="2.52187">
        <ele>98</ele>
        <time>2014-05-25T12:03:17Z</time>
      </trkpt>
      <trkpt lat="48.75306" lon="2.52187">
        <ele>98</ele>
        <time>2014-05-25T12:03:18Z</time>
      </trkpt>
      <trkpt lat="48.75306" lon="2.52187">
        <ele>98</ele>
        <time>2014-05-25T12:03:19Z</time>
      </trkpt>
      <trkpt lat="48.75306" lon="2.52187">
        <ele>98</ele>
        <time>2014-05-25T12:03:20Z</time>
      </trkpt>
      <trkpt lat="48.75306" lon="2.52187">
        <ele>98</ele>
        <time>2014-05-25T12:03:21Z</time>
      </trkpt>
      <trkpt lat="48.75306" lon="2.52187">
        <ele>98</ele>
        <time>2014-05-25T12:03:22Z</time>
      </trkpt>
      <trkpt lat="48.75306" lon="2.52187">
        <ele>98</ele>
        <time>2014-05-25T12:03:23Z</time>
      </trkpt>
      <trkpt lat="48.75306" lon="2.52187">
        <ele>98</ele>
        <time>2014-05-25T12:03:24Z</time>
      </trkpt>
      <trkpt lat="48.75306" lon="2.52187">
        <ele>98</ele>
        <time>2014-05-25T12:03:25Z</time>
      </trkpt>
      <trkpt lat="48.75306" lon="2.52187">
        <ele>98</ele>
        <time>2014-05-25T12:03:26Z</time>
      </trkpt>
      <trkpt lat="48.75306" lon="2.52187">
        <ele>98</ele>
        <time>2014-05-25T12:03:27Z</time>
      </trkpt>
      <trkpt lat="48.75306" lon="2.52187">
        <ele>98</ele>
        <time>2014-05-25T12:03:28Z</time>
      </trkpt>
      <trkpt lat="48.75306" lon="2.52187">
        <ele>98</ele>
        <time>2014-05-25T12:03:29Z</time>
      </trkpt>
      <trkpt lat="48.75306" lon="2.52187">
        <ele>98</ele>
        <time>2014-05-25T12:03:30Z</time>
      </trkpt>
      <trkpt lat="48.75306" lon="2.52187">
        <ele>98</ele>
        <time>2014-05-25T12:03:31Z</time>
      </trkpt>
      <trkpt lat="48.75306" lon="2.52187">
        <ele>98</ele>
        <time>2014-05-25T12:03:32Z</time>
      </trkpt>
      <trkpt lat="48.75306" lon="2.52187">
        <ele>98</ele>
        <time>2014-05-25T12:03:33Z</time>
      </trkpt>
      <trkpt lat="48.75306" lon="2.52187">
        <ele>98</ele>
        <time>2014-05-25T12:03:34Z</time>
      </trkpt>
      <trkpt lat="48.75306" lon="2.52187">
        <ele>98</ele>
        <time>2014-05-25T12:03:35Z</time>
      </trkpt>
      <trkpt lat="48.75306" lon="2.52187">
        <ele>98</ele>
        <time>2014-05-25T12:03:36Z</time>
      </trkpt>
      <trkpt lat="48.75306" lon="2.52187">
        <ele>98</ele>
        <time>2014-05-25T12:03:37Z</time>
      </trkpt>
      <trkpt lat="48.75306" lon="2.52187">
        <ele>98</ele>
        <time>2014-05-25T12:03:38Z</time>
      </trkpt>
      <trkpt lat="48.75306" lon="2.52187">
        <ele>98</ele>
        <time>2014-05-25T12:03:39Z</time>
      </trkpt>
      <trkpt lat="48.75306" lon="2.52187">
        <ele>98</ele>
        <time>2014-05-25T12:03:40Z</time>
      </trkpt>
      <trkpt lat="48.75306" lon="2.52187">
        <ele>98</ele>
        <time>2014-05-25T12:03:41Z</time>
      </trkpt>
      <trkpt lat="48.75306" lon="2.52187">
        <ele>98</ele>
        <time>2014-05-25T12:03:42Z</time>
      </trkpt>
      <trkpt lat="48.75306" lon="2.52187">
        <ele>98</ele>
        <time>2014-05-25T12:03:43Z</time>
      </trkpt>
      <trkpt lat="48.75306" lon="2.52187">
        <ele>98</ele>
        <time>2014-05-25T12:03:44Z</time>
      </trkpt>
      <trkpt lat="48.75306" lon="2.52187">
        <ele>98</ele>
        <time>2014-05-25T12:03:45Z</time>
      </trkpt>
      <trkpt lat="48.75306" lon="2.52187">
        <ele>98</ele>
        <time>2014-05-25T12:03:46Z</time>
      </trkpt>
      <trkpt lat="48.75306" lon="2.52187">
        <ele>98</ele>
        <time>2014-05-25T12:03:47Z</time>
      </trkpt>
      <trkpt lat="48.75306" lon="2.52187">
        <ele>98</ele>
        <time>2014-05-25T12:03:48Z</time>
      </trkpt>
      <trkpt lat="48.75306" lon="2.52187">
        <ele>98</ele>
        <time>2014-05-25T12:03:49Z</time>
      </trkpt>
      <trkpt lat="48.75306" lon="2.52187">
        <ele>98</ele>
        <time>2014-05-25T12:03:50Z</time>
      </trkpt>
      <trkpt lat="48.75306" lon="2.52187">
        <ele>98</ele>
        <time>2014-05-25T12:03:51Z</time>
      </trkpt>
      <trkpt lat="48.75306" lon="2.52187">
        <ele>98</ele>
        <time>2014-05-25T12:03:52Z</time>
      </trkpt>
      <trkpt lat="48.75306" lon="2.52187">
        <ele>98</ele>
        <time>2014-05-25T12:03:53Z</time>
      </trkpt>
      <trkpt lat="48.75306" lon="2.52187">
        <ele>98</ele>
        <time>2014-05-25T12:03:54Z</time>
      </trkpt>
      <trkpt lat="48.75306" lon="2.52187">
        <ele>98</ele>
        <time>2014-05-25T12:03:55Z</time>
      </trkpt>
      <trkpt lat="48.75306" lon="2.52187">
        <ele>98</ele>
        <time>2014-05-25T12:03:56Z</time>
      </trkpt>
      <trkpt lat="48.75306" lon="2.52187">
        <ele>98</ele>
        <time>2014-05-25T12:03:57Z</time>
      </trkpt>
      <trkpt lat="48.75306" lon="2.52187">
        <ele>98</ele>
        <time>2014-05-25T12:03:58Z</time>
      </trkpt>
      <trkpt lat="48.75306" lon="2.52187">
        <ele>98</ele>
        <time>2014-05-25T12:03:59Z</time>
      </trkpt>
      <trkpt lat="48.75306" lon="2.52187">
        <ele>98</ele>
        <time>2014-05-25T12:04:00Z</time>
      </trkpt>
      <trkpt lat="48.75306" lon="2.52187">
        <ele>98</ele>
        <time>2014-05-25T12:04:01Z</time>
      </trkpt>
      <trkpt lat="48.75306" lon="2.52187">
        <ele>98</ele>
        <time>2014-05-25T12:04:02Z</time>
      </trkpt>
      <trkpt lat="48.75306" lon="2.52187">
        <ele>98</ele>
        <time>2014-05-25T12:04:03Z</time>
      </trkpt>
      <trkpt lat="48.75306" lon="2.52187">
        <ele>98</ele>
        <time>2014-05-25T12:04:04Z</time>
      </trkpt>
      <trkpt lat="48.75306" lon="2.52187">
        <ele>98</ele>
        <time>2014-05-25T12:04:05Z</time>
      </trkpt>
      <trkpt lat="48.75306" lon="2.52187">
        <ele>98</ele>
        <time>2014-05-25T12:04:06Z</time>
      </trkpt>
      <trkpt lat="48.75306" lon="2.52187">
        <ele>98</ele>
        <time>2014-05-25T12:04:07Z</time>
      </trkpt>
      <trkpt lat="48.75306" lon="2.52187">
        <ele>98</ele>
        <time>2014-05-25T12:04:08Z</time>
      </trkpt>
      <trkpt lat="48.75306" lon="2.52187">
        <ele>98</ele>
        <time>2014-05-25T12:04:09Z</time>
      </trkpt>
      <trkpt lat="48.75306" lon="2.52187">
        <ele>98</ele>
        <time>2014-05-25T12:04:10Z</time>
      </trkpt>
      <trkpt lat="48.75306" lon="2.52187">
        <ele>98</ele>
        <time>2014-05-25T12:04:11Z</time>
      </trkpt>
      <trkpt lat="48.75306" lon="2.52187">
        <ele>98</ele>
        <time>2014-05-25T12:04:12Z</time>
      </trkpt>
      <trkpt lat="48.75306" lon="2.52187">
        <ele>98</ele>
        <time>2014-05-25T12:04:13Z</time>
      </trkpt>
      <trkpt lat="48.75306" lon="2.52187">
        <ele>98</ele>
        <time>2014-05-25T12:04:14Z</time>
      </trkpt>
      <trkpt lat="48.75306" lon="2.52187">
        <ele>98</ele>
        <time>2014-05-25T12:04:15Z</time>
      </trkpt>
      <trkpt lat="48.75306" lon="2.52187">
        <ele>98</ele>
        <time>2014-05-25T12:04:16Z</time>
      </trkpt>
      <trkpt lat="48.75306" lon="2.52187">
        <ele>98</ele>
        <time>2014-05-25T12:04:17Z</time>
      </trkpt>
      <trkpt lat="48.75306" lon="2.52187">
        <ele>98</ele>
        <time>2014-05-25T12:04:18Z</time>
      </trkpt>
      <trkpt lat="48.75306" lon="2.52187">
        <ele>98</ele>
        <time>2014-05-25T12:04:19Z</time>
      </trkpt>
      <trkpt lat="48.75306" lon="2.52187">
        <ele>98</ele>
        <time>2014-05-25T12:04:20Z</time>
      </trkpt>
      <trkpt lat="48.75306" lon="2.52187">
        <ele>98</ele>
        <time>2014-05-25T12:04:21Z</time>
      </trkpt>
      <trkpt lat="48.75306" lon="2.52187">
        <ele>98</ele>
        <time>2014-05-25T12:04:22Z</time>
      </trkpt>
      <trkpt lat="48.75306" lon="2.52187">
        <ele>98</ele>
        <time>2014-05-25T12:04:23Z</time>
      </trkpt>
      <trkpt lat="48.75306" lon="2.52187">
        <ele>98</ele>
        <time>2014-05-25T12:04:24Z</time>
      </trkpt>
      <trkpt lat="48.75306" lon="2.52187">
        <ele>98</ele>
        <time>2014-05-25T12:04:25Z</time>
      </trkpt>
      <trkpt lat="48.75306" lon="2.52187">
        <ele>98</ele>
        <time>2014-05-25T12:04:26Z</time>
      </trkpt>
      <trkpt lat="48.75306" lon="2.52187">
        <ele>98</ele>
        <time>2014-05-25T12:04:27Z</time>
      </trkpt>
      <trkpt lat="48.75306" lon="2.52187">
        <ele>98</ele>
        <time>2014-05-25T12:04:28Z</time>
      </trkpt>
      <trkpt lat="48.75306" lon="2.52187">
        <ele>98</ele>
        <time>2014-05-25T12:04:29Z</time>
      </trkpt>
      <trkpt lat="48.75306" lon="2.52187">
        <ele>98</ele>
        <time>2014-05-25T12:04:30Z</time>
      </trkpt>
      <trkpt lat="48.75306" lon="2.52187">
        <ele>98</ele>
        <time>2014-05-25T12:04:31Z</time>
      </trkpt>
      <trkpt lat="48.75306" lon="2.52187">
        <ele>98</ele>
        <time>2014-05-25T12:04:32Z</time>
      </trkpt>
      <trkpt lat="48.75306" lon="2.52187">
        <ele>98</ele>
        <time>2014-05-25T12:04:33Z</time>
      </trkpt>
      <trkpt lat="48.75306" lon="2.52187">
        <ele>98</ele>
        <time>2014-05-25T12:04:34Z</time>
      </trkpt>
      <trkpt lat="48.75306" lon="2.52187">
        <ele>98</ele>
        <time>2014-05-25T12:04:35Z</time>
      </trkpt>
      <trkpt lat="48.75306" lon="2.52187">
        <ele>98</ele>
        <time>2014-05-25T12:04:36Z</time>
      </trkpt>
      <trkpt lat="48.75306" lon="2.52187">
        <ele>98</ele>
        <time>2014-05-25T12:04:37Z</time>
      </trkpt>
      <trkpt lat="48.75306" lon="2.52187">
        <ele>98</ele>
        <time>2014-05-25T12:04:38Z</time>
      </trkpt>
      <trkpt lat="48.75306" lon="2.52187">
        <ele>98</ele>
        <time>2014-05-25T12:04:39Z</time>
      </trkpt>
      <trkpt lat="48.75306" lon="2.52187">
        <ele>98</ele>
        <time>2014-05-25T12:04:40Z</time>
      </trkpt>
      <trkpt lat="48.75306" lon="2.52187">
        <ele>98</ele>
        <time>2014-05-25T12:04:41Z</time>
      </trkpt>
      <trkpt lat="48.75306" lon="2.52187">
        <ele>98</ele>
        <time>2014-05-25T12:04:42Z</time>
      </trkpt>
      <trkpt lat="48.75306" lon="2.52187">
        <ele>98</ele>
        <time>2014-05-25T12:04:43Z</time>
      </trkpt>
      <trkpt lat="48.75306" lon="2.52187">
        <ele>98</ele>
        <time>2014-05-25T12:04:44Z</time>
      </trkpt>
      <trkpt lat="48.75306" lon="2.52187">
        <ele>98</ele>
        <time>2014-05-25T12:04:45Z</time>
      </trkpt>
      <trkpt lat="48.75306" lon="2.52187">
        <ele>98</ele>
        <time>2014-05-25T12:04:46Z</time>
      </trkpt>
      <trkpt lat="48.75306" lon="2.52187">
        <ele>98</ele>
        <time>2014-05-25T12:04:47Z</time>
      </trkpt>
      <trkpt lat="48.75306" lon="2.52187">
        <ele>98</ele>
        <time>2014-05-25T12:04:48Z</time>
      </trkpt>
      <trkpt lat="48.75306" lon="2.52187">
        <ele>98</ele>
        <time>2014-05-25T12:04:49Z</time>
      </trkpt>
      <trkpt lat="48.75306" lon="2.52187">
        <ele>98</ele>
        <time>2014-05-25T12:04:50Z</time>
      </trkpt>
      <trkpt lat="48.75306" lon="2.52187">
        <ele>98</ele>
        <time>2014-05-25T12:04:51Z</time>
      </trkpt>
      <trkpt lat="48.75306" lon="2.52187">
        <ele>98</ele>
        <time>2014-05-25T12:04:52Z</time>
      </trkpt>
      <trkpt lat="48.75306" lon="2.52187">
        <ele>98</ele>
        <time>2014-05-25T12:04:53Z</time>
      </trkpt>
      <trkpt lat="48.75306" lon="2.52187">
        <ele>98</ele>
        <time>2014-05-25T12:04:54Z</time>
      </trkpt>
      <trkpt lat="48.75306" lon="2.52187">
        <ele>98</ele>
        <time>2014-05-25T12:04:55Z</time>
      </trkpt>
      <trkpt lat="48.75306" lon="2.52187">
        <ele>98</ele>
        <time>2014-05-25T12:04:56Z</time>
      </trkpt>
      <trkpt lat="48.75306" lon="2.52187">
        <ele>98</ele>
        <time>2014-05-25T12:04:57Z</time>
      </trkpt>
      <trkpt lat="48.75306" lon="2.52187">
        <ele>98</ele>
        <time>2014-05-25T12:04:58Z</time>
      </trkpt>
      <trkpt lat="48.75306" lon="2.52187">
        <ele>98</ele>
        <time>2014-05-25T12:04:59Z</time>
      </trkpt>
      <trkpt lat="48.75306" lon="2.52187">
        <ele>98</ele>
        <time>2014-05-25T12:05:00Z</time>
      </trkpt>
      <trkpt lat="48.75306" lon="2.52187">
        <ele>98</ele>
        <time>2014-05-25T12:05:01Z</time>
      </trkpt>
      <trkpt lat="48.75306" lon="2.52187">
        <ele>98</ele>
        <time>2014-05-25T12:05:02Z</time>
      </trkpt>
      <trkpt lat="48.75306" lon="2.52187">
        <ele>98</ele>
        <time>2014-05-25T12:05:03Z</time>
      </trkpt>
      <trkpt lat="48.75306" lon="2.52187">
        <ele>98</ele>
        <time>2014-05-25T12:05:04Z</time>
      </trkpt>
      <trkpt lat="48.75306" lon="2.52187">
        <ele>98</ele>
        <time>2014-05-25T12:05:05Z</time>
      </trkpt>
      <trkpt lat="48.75306" lon="2.52187">
        <ele>98</ele>
        <time>2014-05-25T12:05:06Z</time>
      </trkpt>
      <trkpt lat="48.75306" lon="2.52187">
        <ele>98</ele>
        <time>2014-05-25T12:05:07Z</time>
      </trkpt>
      <trkpt lat="48.75306" lon="2.52187">
        <ele>98</ele>
        <time>2014-05-25T12:05:08Z</time>
      </trkpt>
      <trkpt lat="48.75306" lon="2.52187">
        <ele>98</ele>
        <time>2014-05-25T12:05:09Z</time>
      </trkpt>
      <trkpt lat="48.75306" lon="2.52187">
        <ele>98</ele>
        <time>2014-05-25T12:05:10Z</time>
      </trkpt>
      <trkpt lat="48.75306" lon="2.52187">
        <ele>98</ele>
        <time>2014-05-25T12:05:11Z</time>
      </trkpt>
      <trkpt lat="48.75306" lon="2.52187">
        <ele>98</ele>
        <time>2014-05-25T12:05:12Z</time>
      </trkpt>
      <trkpt lat="48.75306" lon="2.52187">
        <ele>98</ele>
        <time>2014-05-25T12:05:13Z</time>
      </trkpt>
      <trkpt lat="48.75306" lon="2.52187">
        <ele>98</ele>
        <time>2014-05-25T12:05:14Z</time>
      </trkpt>
      <trkpt lat="48.75306" lon="2.52187">
        <ele>98</ele>
        <time>2014-05-25T12:05:15Z</time>
      </trkpt>
      <trkpt lat="48.75306" lon="2.52187">
        <ele>98</ele>
        <time>2014-05-25T12:05:16Z</time>
      </trkpt>
      <trkpt lat="48.75306" lon="2.52187">
        <ele>98</ele>
        <time>2014-05-25T12:05:17Z</time>
      </trkpt>
      <trkpt lat="48.75306" lon="2.52187">
        <ele>98</ele>
        <time>2014-05-25T12:05:18Z</time>
      </trkpt>
      <trkpt lat="48.75306" lon="2.52187">
        <ele>98</ele>
        <time>2014-05-25T12:05:19Z</time>
      </trkpt>
      <trkpt lat="48.75306" lon="2.52187">
        <ele>98</ele>
        <time>2014-05-25T12:05:20Z</time>
      </trkpt>
      <trkpt lat="48.75306" lon="2.52187">
        <ele>98</ele>
        <time>2014-05-25T12:05:21Z</time>
      </trkpt>
      <trkpt lat="48.75306" lon="2.52187">
        <ele>98</ele>
        <time>2014-05-25T12:05:22Z</time>
      </trkpt>
      <trkpt lat="48.75306" lon="2.52187">
        <ele>98</ele>
        <time>2014-05-25T12:05:23Z</time>
      </trkpt>
      <trkpt lat="48.75306" lon="2.52187">
        <ele>98</ele>
        <time>2014-05-25T12:05:24Z</time>
      </trkpt>
      <trkpt lat="48.75306" lon="2.52187">
        <ele>98</ele>
        <time>2014-05-25T12:05:25Z</time>
      </trkpt>
      <trkpt lat="48.75306" lon="2.52187">
        <ele>98</ele>
        <time>2014-05-25T12:05:26Z</time>
      </trkpt>
      <trkpt lat="48.75306" lon="2.52187">
        <ele>98</ele>
        <time>2014-05-25T12:05:27Z</time>
      </trkpt>
      <trkpt lat="48.75306" lon="2.52187">
        <ele>98</ele>
        <time>2014-05-25T12:05:28Z</time>
      </trkpt>
      <trkpt lat="48.75306" lon="2.52187">
        <ele>98</ele>
        <time>2014-05-25T12:05:29Z</time>
      </trkpt>
      <trkpt lat="48.75306" lon="2.52187">
        <ele>98</ele>
        <time>2014-05-25T12:05:30Z</time>
      </trkpt>
      <trkpt lat="48.75306" lon="2.52187">
        <ele>98</ele>
        <time>2014-05-25T12:05:31Z</time>
      </trkpt>
      <trkpt lat="48.75306" lon="2.52187">
        <ele>98</ele>
        <time>2014-05-25T12:05:32Z</time>
      </trkpt>
      <trkpt lat="48.75306" lon="2.52187">
        <ele>98</ele>
        <time>2014-05-25T12:05:33Z</time>
      </trkpt>
      <trkpt lat="48.75306" lon="2.52187">
        <ele>98</ele>
        <time>2014-05-25T12:05:34Z</time>
      </trkpt>
      <trkpt lat="48.75306" lon="2.52187">
        <ele>98</ele>
        <time>2014-05-25T12:05:35Z</time>
      </trkpt>
      <trkpt lat="48.75306" lon="2.52187">
        <ele>98</ele>
        <time>2014-05-25T12:05:36Z</time>
      </trkpt>
      <trkpt lat="48.75306" lon="2.52187">
        <ele>98</ele>
        <time>2014-05-25T12:05:37Z</time>
      </trkpt>
      <trkpt lat="48.75306" lon="2.52187">
        <ele>98</ele>
        <time>2014-05-25T12:05:38Z</time>
      </trkpt>
      <trkpt lat="48.75306" lon="2.52187">
        <ele>98</ele>
        <time>2014-05-25T12:05:39Z</time>
      </trkpt>
      <trkpt lat="48.75306" lon="2.52187">
        <ele>98</ele>
        <time>2014-05-25T12:05:40Z</time>
      </trkpt>
      <trkpt lat="48.75305" lon="2.52186">
        <ele>99</ele>
        <time>2014-05-25T12:05:41Z</time>
      </trkpt>
      <trkpt lat="48.75304" lon="2.52185">
        <ele>102</ele>
        <time>2014-05-25T12:05:42Z</time>
      </trkpt>
      <trkpt lat="48.75303" lon="2.52184">
        <ele>102</ele>
        <time>2014-05-25T12:05:43Z</time>
      </trkpt>
      <trkpt lat="48.75303" lon="2.52183">
        <ele>105</ele>
        <time>2014-05-25T12:05:44Z</time>
      </trkpt>
      <trkpt lat="48.75301" lon="2.52181">
        <ele>103</ele>
        <time>2014-05-25T12:05:45Z</time>
      </trkpt>
      <trkpt lat="48.753" lon="2.52181">
        <ele>102</ele>
        <time>2014-05-25T12:05:46Z</time>
      </trkpt>
      <trkpt lat="48.75299" lon="2.5218">
        <ele>103</ele>
        <time>2014-05-25T12:05:47Z</time>
      </trkpt>
      <trkpt lat="48.75298" lon="2.52178">
        <ele>103</ele>
        <time>2014-05-25T12:05:48Z</time>
      </trkpt>
      <trkpt lat="48.75297" lon="2.52177">
        <ele>104</ele>
        <time>2014-05-25T12:05:49Z</time>
      </trkpt>
      <trkpt lat="48.75297" lon="2.52174">
        <ele>105</ele>
        <time>2014-05-25T12:05:50Z</time>
      </trkpt>
      <trkpt lat="48.75296" lon="2.52172">
        <ele>105</ele>
        <time>2014-05-25T12:05:51Z</time>
      </trkpt>
      <trkpt lat="48.75295" lon="2.5217">
        <ele>105</ele>
        <time>2014-05-25T12:05:52Z</time>
      </trkpt>
      <trkpt lat="48.75294" lon="2.52168">
        <ele>104</ele>
        <time>2014-05-25T12:05:53Z</time>
      </trkpt>
      <trkpt lat="48.75293" lon="2.52166">
        <ele>104</ele>
        <time>2014-05-25T12:05:54Z</time>
      </trkpt>
      <trkpt lat="48.75293" lon="2.52164">
        <ele>104</ele>
        <time>2014-05-25T12:05:55Z</time>
      </trkpt>
      <trkpt lat="48.75292" lon="2.52161">
        <ele>104</ele>
        <time>2014-05-25T12:05:56Z</time>
      </trkpt>
      <trkpt lat="48.75292" lon="2.52158">
        <ele>103</ele>
        <time>2014-05-25T12:05:57Z</time>
      </trkpt>
      <trkpt lat="48.75292" lon="2.52155">
        <ele>103</ele>
        <time>2014-05-25T12:05:58Z</time>
      </trkpt>
      <trkpt lat="48.75293" lon="2.52155">
        <ele>102</ele>
        <time>2014-05-25T12:05:59Z</time>
      </trkpt>
      <trkpt lat="48.75294" lon="2.52155">
        <ele>101</ele>
        <time>2014-05-25T12:06:00Z</time>
      </trkpt>
      <trkpt lat="48.75294" lon="2.52155">
        <ele>101</ele>
        <time>2014-05-25T12:06:01Z</time>
      </trkpt>
      <trkpt lat="48.75294" lon="2.52155">
        <ele>101</ele>
        <time>2014-05-25T12:06:02Z</time>
      </trkpt>
      <trkpt lat="48.75294" lon="2.52154">
        <ele>102</ele>
        <time>2014-05-25T12:06:03Z</time>
      </trkpt>
      <trkpt lat="48.75295" lon="2.52154">
        <ele>101</ele>
        <time>2014-05-25T12:06:04Z</time>
      </trkpt>
      <trkpt lat="48.75295" lon="2.52153">
        <ele>101</ele>
        <time>2014-05-25T12:06:05Z</time>
      </trkpt>
      <trkpt lat="48.75295" lon="2.52152">
        <ele>100</ele>
        <time>2014-05-25T12:06:06Z</time>
      </trkpt>
      <trkpt lat="48.75294" lon="2.5215">
        <ele>100</ele>
        <time>2014-05-25T12:06:07Z</time>
      </trkpt>
      <trkpt lat="48.75294" lon="2.52148">
        <ele>100</ele>
        <time>2014-05-25T12:06:08Z</time>
      </trkpt>
      <trkpt lat="48.75294" lon="2.52146">
        <ele>98</ele>
        <time>2014-05-25T12:06:09Z</time>
      </trkpt>
      <trkpt lat="48.75294" lon="2.52143">
        <ele>98</ele>
        <time>2014-05-25T12:06:10Z</time>
      </trkpt>
      <trkpt lat="48.75293" lon="2.52141">
        <ele>96</ele>
        <time>2014-05-25T12:06:11Z</time>
      </trkpt>
      <trkpt lat="48.75293" lon="2.52139">
        <ele>95</ele>
        <time>2014-05-25T12:06:12Z</time>
      </trkpt>
      <trkpt lat="48.75292" lon="2.52137">
        <ele>95</ele>
        <time>2014-05-25T12:06:13Z</time>
      </trkpt>
      <trkpt lat="48.75291" lon="2.52134">
        <ele>95</ele>
        <time>2014-05-25T12:06:14Z</time>
      </trkpt>
      <trkpt lat="48.7529" lon="2.52132">
        <ele>95</ele>
        <time>2014-05-25T12:06:15Z</time>
      </trkpt>
      <trkpt lat="48.75289" lon="2.5213">
        <ele>93</ele>
        <time>2014-05-25T12:06:16Z</time>
      </trkpt>
      <trkpt lat="48.75288" lon="2.52128">
        <ele>94</ele>
        <time>2014-05-25T12:06:17Z</time>
      </trkpt>
      <trkpt lat="48.75287" lon="2.52126">
        <ele>94</ele>
        <time>2014-05-25T12:06:18Z</time>
      </trkpt>
      <trkpt lat="48.75286" lon="2.52124">
        <ele>92</ele>
        <time>2014-05-25T12:06:19Z</time>
      </trkpt>
      <trkpt lat="48.75285" lon="2.52122">
        <ele>92</ele>
        <time>2014-05-25T12:06:20Z</time>
      </trkpt>
      <trkpt lat="48.75283" lon="2.5212">
        <ele>91</ele>
        <time>2014-05-25T12:06:21Z</time>
      </trkpt>
      <trkpt lat="48.75282" lon="2.52118">
        <ele>92</ele>
        <time>2014-05-25T12:06:22Z</time>
      </trkpt>
      <trkpt lat="48.75281" lon="2.52116">
        <ele>93</ele>
        <time>2014-05-25T12:06:23Z</time>
      </trkpt>
      <trkpt lat="48.7528" lon="2.52114">
        <ele>93</ele>
        <time>2014-05-25T12:06:24Z</time>
      </trkpt>
      <trkpt lat="48.75279" lon="2.52112">
        <ele>92</ele>
        <time>2014-05-25T12:06:25Z</time>
      </trkpt>
      <trkpt lat="48.75278" lon="2.5211">
        <ele>93</ele>
        <time>2014-05-25T12:06:26Z</time>
      </trkpt>
      <trkpt lat="48.75278" lon="2.52108">
        <ele>91</ele>
        <time>2014-05-25T12:06:27Z</time>
      </trkpt>
      <trkpt lat="48.75277" lon="2.52106">
        <ele>91</ele>
        <time>2014-05-25T12:06:28Z</time>
      </trkpt>
      <trkpt lat="48.75275" lon="2.52105">
        <ele>90</ele>
        <time>2014-05-25T12:06:29Z</time>
      </trkpt>
      <trkpt lat="48.75275" lon="2.52103">
        <ele>91</ele>
        <time>2014-05-25T12:06:30Z</time>
      </trkpt>
      <trkpt lat="48.75274" lon="2.52101">
        <ele>91</ele>
        <time>2014-05-25T12:06:31Z</time>
      </trkpt>
      <trkpt lat="48.75273" lon="2.52099">
        <ele>92</ele>
        <time>2014-05-25T12:06:32Z</time>
      </trkpt>
      <trkpt lat="48.75272" lon="2.52096">
        <ele>92</ele>
        <time>2014-05-25T12:06:33Z</time>
      </trkpt>
      <trkpt lat="48.7527" lon="2.52094">
        <ele>92</ele>
        <time>2014-05-25T12:06:34Z</time>
      </trkpt>
      <trkpt lat="48.7527" lon="2.52092">
        <ele>91</ele>
        <time>2014-05-25T12:06:35Z</time>
      </trkpt>
      <trkpt lat="48.75269" lon="2.5209">
        <ele>91</ele>
        <time>2014-05-25T12:06:36Z</time>
      </trkpt>
      <trkpt lat="48.75268" lon="2.52088">
        <ele>91</ele>
        <time>2014-05-25T12:06:37Z</time>
      </trkpt>
      <trkpt lat="48.75267" lon="2.52086">
        <ele>91</ele>
        <time>2014-05-25T12:06:38Z</time>
      </trkpt>
      <trkpt lat="48.75266" lon="2.52084">
        <ele>91</ele>
        <time>2014-05-25T12:06:39Z</time>
      </trkpt>
      <trkpt lat="48.75264" lon="2.52082">
        <ele>91</ele>
        <time>2014-05-25T12:06:40Z</time>
      </trkpt>
      <trkpt lat="48.75263" lon="2.5208">
        <ele>90</ele>
        <time>2014-05-25T12:06:41Z</time>
      </trkpt>
      <trkpt lat="48.75262" lon="2.52077">
        <ele>90</ele>
        <time>2014-05-25T12:06:42Z</time>
      </trkpt>
      <trkpt lat="48.75261" lon="2.52075">
        <ele>90</ele>
        <time>2014-05-25T12:06:43Z</time>
      </trkpt>
      <trkpt lat="48.7526" lon="2.52073">
        <ele>89</ele>
        <time>2014-05-25T12:06:44Z</time>
      </trkpt>
      <trkpt lat="48.75259" lon="2.52071">
        <ele>87</ele>
        <time>2014-05-25T12:06:45Z</time>
      </trkpt>
      <trkpt lat="48.75259" lon="2.52069">
        <ele>86</ele>
        <time>2014-05-25T12:06:46Z</time>
      </trkpt>
      <trkpt lat="48.75258" lon="2.52067">
        <ele>86</ele>
        <time>2014-05-25T12:06:47Z</time>
      </trkpt>
      <trkpt lat="48.75257" lon="2.52065">
        <ele>88</ele>
        <time>2014-05-25T12:06:48Z</time>
      </trkpt>
      <trkpt lat="48.75256" lon="2.52063">
        <ele>89</ele>
        <time>2014-05-25T12:06:49Z</time>
      </trkpt>
      <trkpt lat="48.75255" lon="2.52061">
        <ele>90</ele>
        <time>2014-05-25T12:06:50Z</time>
      </trkpt>
      <trkpt lat="48.75255" lon="2.52059">
        <ele>91</ele>
        <time>2014-05-25T12:06:51Z</time>
      </trkpt>
      <trkpt lat="48.75254" lon="2.52057">
        <ele>91</ele>
        <time>2014-05-25T12:06:52Z</time>
      </trkpt>
      <trkpt lat="48.75254" lon="2.52055">
        <ele>93</ele>
        <time>2014-05-25T12:06:53Z</time>
      </trkpt>
      <trkpt lat="48.75254" lon="2.52053">
        <ele>92</ele>
        <time>2014-05-25T12:06:54Z</time>
      </trkpt>
      <trkpt lat="48.75253" lon="2.52051">
        <ele>92</ele>
        <time>2014-05-25T12:06:55Z</time>
      </trkpt>
      <trkpt lat="48.75253" lon="2.52049">
        <ele>92</ele>
        <time>2014-05-25T12:06:56Z</time>
      </trkpt>
      <trkpt lat="48.75253" lon="2.52047">
        <ele>91</ele>
        <time>2014-05-25T12:06:57Z</time>
      </trkpt>
      <trkpt lat="48.75252" lon="2.52045">
        <ele>92</ele>
        <time>2014-05-25T12:06:58Z</time>
      </trkpt>
      <trkpt lat="48.75252" lon="2.52043">
        <ele>93</ele>
        <time>2014-05-25T12:06:59Z</time>
      </trkpt>
      <trkpt lat="48.75252" lon="2.52041">
        <ele>94</ele>
        <time>2014-05-25T12:07:00Z</time>
      </trkpt>
      <trkpt lat="48.75252" lon="2.52038">
        <ele>94</ele>
        <time>2014-05-25T12:07:01Z</time>
      </trkpt>
      <trkpt lat="48.75252" lon="2.52035">
        <ele>95</ele>
        <time>2014-05-25T12:07:02Z</time>
      </trkpt>
      <trkpt lat="48.75252" lon="2.52031">
        <ele>97</ele>
        <time>2014-05-25T12:07:03Z</time>
      </trkpt>
      <trkpt lat="48.75252" lon="2.52027">
        <ele>98</ele>
        <time>2014-05-25T12:07:04Z</time>
      </trkpt>
      <trkpt lat="48.75251" lon="2.52024">
        <ele>98</ele>
        <time>2014-05-25T12:07:05Z</time>
      </trkpt>
      <trkpt lat="48.75251" lon="2.5202">
        <ele>99</ele>
        <time>2014-05-25T12:07:06Z</time>
      </trkpt>
      <trkpt lat="48.75251" lon="2.52016">
        <ele>98</ele>
        <time>2014-05-25T12:07:07Z</time>
      </trkpt>
      <trkpt lat="48.75251" lon="2.52012">
        <ele>97</ele>
        <time>2014-05-25T12:07:08Z</time>
      </trkpt>
      <trkpt lat="48.7525" lon="2.52009">
        <ele>98</ele>
        <time>2014-05-25T12:07:09Z</time>
      </trkpt>
      <trkpt lat="48.75249" lon="2.52007">
        <ele>98</ele>
        <time>2014-05-25T12:07:10Z</time>
      </trkpt>
      <trkpt lat="48.75247" lon="2.52006">
        <ele>97</ele>
        <time>2014-05-25T12:07:11Z</time>
      </trkpt>
      <trkpt lat="48.75246" lon="2.52004">
        <ele>97</ele>
        <time>2014-05-25T12:07:12Z</time>
      </trkpt>
      <trkpt lat="48.75244" lon="2.52002">
        <ele>98</ele>
        <time>2014-05-25T12:07:13Z</time>
      </trkpt>
      <trkpt lat="48.75243" lon="2.52">
        <ele>99</ele>
        <time>2014-05-25T12:07:14Z</time>
      </trkpt>
      <trkpt lat="48.75242" lon="2.51998">
        <ele>98</ele>
        <time>2014-05-25T12:07:15Z</time>
      </trkpt>
      <trkpt lat="48.7524" lon="2.51997">
        <ele>98</ele>
        <time>2014-05-25T12:07:16Z</time>
      </trkpt>
      <trkpt lat="48.75239" lon="2.51995">
        <ele>99</ele>
        <time>2014-05-25T12:07:17Z</time>
      </trkpt>
      <trkpt lat="48.75238" lon="2.51993">
        <ele>98</ele>
        <time>2014-05-25T12:07:18Z</time>
      </trkpt>
      <trkpt lat="48.75237" lon="2.5199">
        <ele>96</ele>
        <time>2014-05-25T12:07:19Z</time>
      </trkpt>
      <trkpt lat="48.75237" lon="2.51988">
        <ele>98</ele>
        <time>2014-05-25T12:07:20Z</time>
      </trkpt>
      <trkpt lat="48.75235" lon="2.51986">
        <ele>98</ele>
        <time>2014-05-25T12:07:21Z</time>
      </trkpt>
      <trkpt lat="48.75234" lon="2.51984">
        <ele>98</ele>
        <time>2014-05-25T12:07:22Z</time>
      </trkpt>
      <trkpt lat="48.75233" lon="2.51982">
        <ele>99</ele>
        <time>2014-05-25T12:07:23Z</time>
      </trkpt>
      <trkpt lat="48.75232" lon="2.51979">
        <ele>99</ele>
        <time>2014-05-25T12:07:24Z</time>
      </trkpt>
      <trkpt lat="48.75232" lon="2.51977">
        <ele>100</ele>
        <time>2014-05-25T12:07:25Z</time>
      </trkpt>
      <trkpt lat="48.75231" lon="2.51974">
        <ele>94</ele>
        <time>2014-05-25T12:07:26Z</time>
      </trkpt>
      <trkpt lat="48.75231" lon="2.51971">
        <ele>97</ele>
        <time>2014-05-25T12:07:27Z</time>
      </trkpt>
      <trkpt lat="48.75231" lon="2.51968">
        <ele>98</ele>
        <time>2014-05-25T12:07:28Z</time>
      </trkpt>
      <trkpt lat="48.75232" lon="2.51966">
        <ele>99</ele>
        <time>2014-05-25T12:07:29Z</time>
      </trkpt>
      <trkpt lat="48.75233" lon="2.51964">
        <ele>100</ele>
        <time>2014-05-25T12:07:30Z</time>
      </trkpt>
      <trkpt lat="48.75235" lon="2.51962">
        <ele>101</ele>
        <time>2014-05-25T12:07:31Z</time>
      </trkpt>
      <trkpt lat="48.75236" lon="2.5196">
        <ele>102</ele>
        <time>2014-05-25T12:07:32Z</time>
      </trkpt>
      <trkpt lat="48.75237" lon="2.51959">
        <ele>101</ele>
        <time>2014-05-25T12:07:33Z</time>
      </trkpt>
      <trkpt lat="48.75238" lon="2.51957">
        <ele>101</ele>
        <time>2014-05-25T12:07:34Z</time>
      </trkpt>
      <trkpt lat="48.75239" lon="2.51955">
        <ele>100</ele>
        <time>2014-05-25T12:07:35Z</time>
      </trkpt>
      <trkpt lat="48.7524" lon="2.51953">
        <ele>100</ele>
        <time>2014-05-25T12:07:36Z</time>
      </trkpt>
      <trkpt lat="48.75241" lon="2.51951">
        <ele>100</ele>
        <time>2014-05-25T12:07:37Z</time>
      </trkpt>
      <trkpt lat="48.75242" lon="2.51949">
        <ele>99</ele>
        <time>2014-05-25T12:07:38Z</time>
      </trkpt>
      <trkpt lat="48.75242" lon="2.51947">
        <ele>99</ele>
        <time>2014-05-25T12:07:39Z</time>
      </trkpt>
      <trkpt lat="48.75243" lon="2.51945">
        <ele>99</ele>
        <time>2014-05-25T12:07:40Z</time>
      </trkpt>
      <trkpt lat="48.75244" lon="2.51943">
        <ele>98</ele>
        <time>2014-05-25T12:07:41Z</time>
      </trkpt>
      <trkpt lat="48.75245" lon="2.5194">
        <ele>99</ele>
        <time>2014-05-25T12:07:42Z</time>
      </trkpt>
      <trkpt lat="48.75245" lon="2.51937">
        <ele>100</ele>
        <time>2014-05-25T12:07:43Z</time>
      </trkpt>
      <trkpt lat="48.75245" lon="2.51935">
        <ele>100</ele>
        <time>2014-05-25T12:07:44Z</time>
      </trkpt>
      <trkpt lat="48.75246" lon="2.51933">
        <ele>98</ele>
        <time>2014-05-25T12:07:45Z</time>
      </trkpt>
      <trkpt lat="48.75246" lon="2.51931">
        <ele>98</ele>
        <time>2014-05-25T12:07:46Z</time>
      </trkpt>
      <trkpt lat="48.75246" lon="2.51929">
        <ele>98</ele>
        <time>2014-05-25T12:07:47Z</time>
      </trkpt>
      <trkpt lat="48.75246" lon="2.51926">
        <ele>98</ele>
        <time>2014-05-25T12:07:48Z</time>
      </trkpt>
      <trkpt lat="48.75247" lon="2.51924">
        <ele>99</ele>
        <time>2014-05-25T12:07:49Z</time>
      </trkpt>
      <trkpt lat="48.75248" lon="2.51921">
        <ele>99</ele>
        <time>2014-05-25T12:07:50Z</time>
      </trkpt>
      <trkpt lat="48.75249" lon="2.51919">
        <ele>98</ele>
        <time>2014-05-25T12:07:51Z</time>
      </trkpt>
      <trkpt lat="48.7525" lon="2.51917">
        <ele>97</ele>
        <time>2014-05-25T12:07:52Z</time>
      </trkpt>
      <trkpt lat="48.75251" lon="2.51916">
        <ele>96</ele>
        <time>2014-05-25T12:07:53Z</time>
      </trkpt>
      <trkpt lat="48.75251" lon="2.51914">
        <ele>96</ele>
        <time>2014-05-25T12:07:54Z</time>
      </trkpt>
      <trkpt lat="48.75252" lon="2.51912">
        <ele>96</ele>
        <time>2014-05-25T12:07:55Z</time>
      </trkpt>
      <trkpt lat="48.75253" lon="2.5191">
        <ele>96</ele>
        <time>2014-05-25T12:07:56Z</time>
      </trkpt>
      <trkpt lat="48.75254" lon="2.51909">
        <ele>96</ele>
        <time>2014-05-25T12:07:57Z</time>
      </trkpt>
      <trkpt lat="48.75255" lon="2.51907">
        <ele>96</ele>
        <time>2014-05-25T12:07:58Z</time>
      </trkpt>
      <trkpt lat="48.75256" lon="2.51906">
        <ele>95</ele>
        <time>2014-05-25T12:07:59Z</time>
      </trkpt>
      <trkpt lat="48.75256" lon="2.51904">
        <ele>93</ele>
        <time>2014-05-25T12:08:00Z</time>
      </trkpt>
      <trkpt lat="48.75257" lon="2.51902">
        <ele>95</ele>
        <time>2014-05-25T12:08:01Z</time>
      </trkpt>
      <trkpt lat="48.75257" lon="2.519">
        <ele>95</ele>
        <time>2014-05-25T12:08:02Z</time>
      </trkpt>
      <trkpt lat="48.75257" lon="2.51898">
        <ele>95</ele>
        <time>2014-05-25T12:08:03Z</time>
      </trkpt>
      <trkpt lat="48.75257" lon="2.51896">
        <ele>95</ele>
        <time>2014-05-25T12:08:04Z</time>
      </trkpt>
      <trkpt lat="48.75256" lon="2.51893">
        <ele>95</ele>
        <time>2014-05-25T12:08:05Z</time>
      </trkpt>
      <trkpt lat="48.75255" lon="2.51891">
        <ele>94</ele>
        <time>2014-05-25T12:08:06Z</time>
      </trkpt>
      <trkpt lat="48.75254" lon="2.51889">
        <ele>96</ele>
        <time>2014-05-25T12:08:07Z</time>
      </trkpt>
      <trkpt lat="48.75253" lon="2.51887">
        <ele>95</ele>
        <time>2014-05-25T12:08:08Z</time>
      </trkpt>
      <trkpt lat="48.75252" lon="2.51885">
        <ele>95</ele>
        <time>2014-05-25T12:08:09Z</time>
      </trkpt>
      <trkpt lat="48.75251" lon="2.51883">
        <ele>95</ele>
        <time>2014-05-25T12:08:10Z</time>
      </trkpt>
      <trkpt lat="48.7525" lon="2.5188">
        <ele>96</ele>
        <time>2014-05-25T12:08:11Z</time>
      </trkpt>
      <trkpt lat="48.7525" lon="2.51878">
        <ele>96</ele>
        <time>2014-05-25T12:08:12Z</time>
      </trkpt>
      <trkpt lat="48.75249" lon="2.51875">
        <ele>96</ele>
        <time>2014-05-25T12:08:13Z</time>
      </trkpt>
      <trkpt lat="48.75248" lon="2.51873">
        <ele>96</ele>
        <time>2014-05-25T12:08:14Z</time>
      </trkpt>
      <trkpt lat="48.75247" lon="2.51871">
        <ele>96</ele>
        <time>2014-05-25T12:08:15Z</time>
      </trkpt>
      <trkpt lat="48.75246" lon="2.51869">
        <ele>96</ele>
        <time>2014-05-25T12:08:16Z</time>
      </trkpt>
      <trkpt lat="48.75245" lon="2.51868">
        <ele>96</ele>
        <time>2014-05-25T12:08:17Z</time>
      </trkpt>
      <trkpt lat="48.75244" lon="2.51866">
        <ele>96</ele>
        <time>2014-05-25T12:08:18Z</time>
      </trkpt>
      <trkpt lat="48.75243" lon="2.51864">
        <ele>95</ele>
        <time>2014-05-25T12:08:19Z</time>
      </trkpt>
      <trkpt lat="48.75242" lon="2.51863">
        <ele>94</ele>
        <time>2014-05-25T12:08:20Z</time>
      </trkpt>
      <trkpt lat="48.75242" lon="2.51861">
        <ele>94</ele>
        <time>2014-05-25T12:08:21Z</time>
      </trkpt>
      <trkpt lat="48.75241" lon="2.51859">
        <ele>94</ele>
        <time>2014-05-25T12:08:22Z</time>
      </trkpt>
      <trkpt lat="48.75241" lon="2.51857">
        <ele>94</ele>
        <time>2014-05-25T12:08:23Z</time>
      </trkpt>
      <trkpt lat="48.7524" lon="2.51855">
        <ele>94</ele>
        <time>2014-05-25T12:08:24Z</time>
      </trkpt>
      <trkpt lat="48.75239" lon="2.51853">
        <ele>95</ele>
        <time>2014-05-25T12:08:25Z</time>
      </trkpt>
      <trkpt lat="48.75238" lon="2.51851">
        <ele>95</ele>
        <time>2014-05-25T12:08:26Z</time>
      </trkpt>
      <trkpt lat="48.75238" lon="2.51849">
        <ele>95</ele>
        <time>2014-05-25T12:08:27Z</time>
      </trkpt>
      <trkpt lat="48.75238" lon="2.51846">
        <ele>95</ele>
        <time>2014-05-25T12:08:28Z</time>
      </trkpt>
      <trkpt lat="48.75237" lon="2.51843">
        <ele>97</ele>
        <time>2014-05-25T12:08:29Z</time>
      </trkpt>
      <trkpt lat="48.75236" lon="2.5184">
        <ele>98</ele>
        <time>2014-05-25T12:08:30Z</time>
      </trkpt>
      <trkpt lat="48.75235" lon="2.51838">
        <ele>99</ele>
        <time>2014-05-25T12:08:31Z</time>
      </trkpt>
      <trkpt lat="48.75235" lon="2.51836">
        <ele>97</ele>
        <time>2014-05-25T12:08:32Z</time>
      </trkpt>
      <trkpt lat="48.75234" lon="2.51834">
        <ele>97</ele>
        <time>2014-05-25T12:08:33Z</time>
      </trkpt>
      <trkpt lat="48.75233" lon="2.51832">
        <ele>97</ele>
        <time>2014-05-25T12:08:34Z</time>
      </trkpt>
      <trkpt lat="48.75232" lon="2.5183">
        <ele>97</ele>
        <time>2014-05-25T12:08:35Z</time>
      </trkpt>
      <trkpt lat="48.75231" lon="2.51828">
        <ele>98</ele>
        <time>2014-05-25T12:08:36Z</time>
      </trkpt>
      <trkpt lat="48.7523" lon="2.51826">
        <ele>98</ele>
        <time>2014-05-25T12:08:37Z</time>
      </trkpt>
      <trkpt lat="48.75229" lon="2.51824">
        <ele>97</ele>
        <time>2014-05-25T12:08:38Z</time>
      </trkpt>
      <trkpt lat="48.75228" lon="2.51822">
        <ele>97</ele>
        <time>2014-05-25T12:08:39Z</time>
      </trkpt>
      <trkpt lat="48.75227" lon="2.5182">
        <ele>97</ele>
        <time>2014-05-25T12:08:40Z</time>
      </trkpt>
      <trkpt lat="48.75226" lon="2.51818">
        <ele>97</ele>
        <time>2014-05-25T12:08:41Z</time>
      </trkpt>
      <trkpt lat="48.75226" lon="2.51816">
        <ele>97</ele>
        <time>2014-05-25T12:08:42Z</time>
      </trkpt>
      <trkpt lat="48.75224" lon="2.51814">
        <ele>97</ele>
        <time>2014-05-25T12:08:43Z</time>
      </trkpt>
      <trkpt lat="48.75223" lon="2.51813">
        <ele>97</ele>
        <time>2014-05-25T12:08:44Z</time>
      </trkpt>
      <trkpt lat="48.75221" lon="2.51812">
        <ele>97</ele>
        <time>2014-05-25T12:08:45Z</time>
      </trkpt>
      <trkpt lat="48.7522" lon="2.51811">
        <ele>98</ele>
        <time>2014-05-25T12:08:46Z</time>
      </trkpt>
      <trkpt lat="48.75219" lon="2.51809">
        <ele>98</ele>
        <time>2014-05-25T12:08:47Z</time>
      </trkpt>
      <trkpt lat="48.75218" lon="2.51807">
        <ele>98</ele>
        <time>2014-05-25T12:08:48Z</time>
      </trkpt>
      <trkpt lat="48.75216" lon="2.51805">
        <ele>97</ele>
        <time>2014-05-25T12:08:49Z</time>
      </trkpt>
      <trkpt lat="48.75215" lon="2.51803">
        <ele>96</ele>
        <time>2014-05-25T12:08:50Z</time>
      </trkpt>
      <trkpt lat="48.75213" lon="2.51801">
        <ele>96</ele>
        <time>2014-05-25T12:08:51Z</time>
      </trkpt>
      <trkpt lat="48.75212" lon="2.51799">
        <ele>95</ele>
        <time>2014-05-25T12:08:52Z</time>
      </trkpt>
      <trkpt lat="48.75211" lon="2.51796">
        <ele>94</ele>
        <time>2014-05-25T12:08:53Z</time>
      </trkpt>
      <trkpt lat="48.75211" lon="2.51793">
        <ele>96</ele>
        <time>2014-05-25T12:08:54Z</time>
      </trkpt>
      <trkpt lat="48.7521" lon="2.51791">
        <ele>96</ele>
        <time>2014-05-25T12:08:55Z</time>
      </trkpt>
      <trkpt lat="48.7521" lon="2.51788">
        <ele>95</ele>
        <time>2014-05-25T12:08:56Z</time>
      </trkpt>
      <trkpt lat="48.75209" lon="2.51785">
        <ele>95</ele>
        <time>2014-05-25T12:08:57Z</time>
      </trkpt>
      <trkpt lat="48.75208" lon="2.51783">
        <ele>97</ele>
        <time>2014-05-25T12:08:58Z</time>
      </trkpt>
      <trkpt lat="48.75207" lon="2.51781">
        <ele>97</ele>
        <time>2014-05-25T12:08:59Z</time>
      </trkpt>
      <trkpt lat="48.75206" lon="2.51779">
        <ele>98</ele>
        <time>2014-05-25T12:09:00Z</time>
      </trkpt>
      <trkpt lat="48.75205" lon="2.51777">
        <ele>99</ele>
        <time>2014-05-25T12:09:01Z</time>
      </trkpt>
      <trkpt lat="48.75204" lon="2.51775">
        <ele>99</ele>
        <time>2014-05-25T12:09:02Z</time>
      </trkpt>
      <trkpt lat="48.75203" lon="2.51774">
        <ele>99</ele>
        <time>2014-05-25T12:09:03Z</time>
      </trkpt>
      <trkpt lat="48.75202" lon="2.51772">
        <ele>99</ele>
        <time>2014-05-25T12:09:04Z</time>
      </trkpt>
      <trkpt lat="48.75201" lon="2.51771">
        <ele>99</ele>
        <time>2014-05-25T12:09:05Z</time>
      </trkpt>
      <trkpt lat="48.752" lon="2.51769">
        <ele>98</ele>
        <time>2014-05-25T12:09:06Z</time>
      </trkpt>
      <trkpt lat="48.75199" lon="2.51767">
        <ele>100</ele>
        <time>2014-05-25T12:09:07Z</time>
      </trkpt>
      <trkpt lat="48.75198" lon="2.51765">
        <ele>100</ele>
        <time>2014-05-25T12:09:08Z</time>
      </trkpt>
      <trkpt lat="48.75197" lon="2.51764">
        <ele>99</ele>
        <time>2014-05-25T12:09:09Z</time>
      </trkpt>
      <trkpt lat="48.75196" lon="2.51761">
        <ele>99</ele>
        <time>2014-05-25T12:09:10Z</time>
      </trkpt>
      <trkpt lat="48.75195" lon="2.5176">
        <ele>99</ele>
        <time>2014-05-25T12:09:11Z</time>
      </trkpt>
      <trkpt lat="48.75194" lon="2.5176">
        <ele>99</ele>
        <time>2014-05-25T12:09:12Z</time>
      </trkpt>
      <trkpt lat="48.75192" lon="2.51759">
        <ele>98</ele>
        <time>2014-05-25T12:09:13Z</time>
      </trkpt>
      <trkpt lat="48.75191" lon="2.51758">
        <ele>97</ele>
        <time>2014-05-25T12:09:14Z</time>
      </trkpt>
      <trkpt lat="48.7519" lon="2.51757">
        <ele>98</ele>
        <time>2014-05-25T12:09:15Z</time>
      </trkpt>
      <trkpt lat="48.75188" lon="2.51756">
        <ele>98</ele>
        <time>2014-05-25T12:09:16Z</time>
      </trkpt>
      <trkpt lat="48.75187" lon="2.51754">
        <ele>98</ele>
        <time>2014-05-25T12:09:17Z</time>
      </trkpt>
      <trkpt lat="48.75186" lon="2.51754">
        <ele>98</ele>
        <time>2014-05-25T12:09:18Z</time>
      </trkpt>
      <trkpt lat="48.75184" lon="2.51753">
        <ele>98</ele>
        <time>2014-05-25T12:09:19Z</time>
      </trkpt>
      <trkpt lat="48.75183" lon="2.51752">
        <ele>98</ele>
        <time>2014-05-25T12:09:20Z</time>
      </trkpt>
      <trkpt lat="48.75182" lon="2.5175">
        <ele>99</ele>
        <time>2014-05-25T12:09:21Z</time>
      </trkpt>
      <trkpt lat="48.75181" lon="2.51749">
        <ele>99</ele>
        <time>2014-05-25T12:09:22Z</time>
      </trkpt>
      <trkpt lat="48.75179" lon="2.51748">
        <ele>99</ele>
        <time>2014-05-25T12:09:23Z</time>
      </trkpt>
      <trkpt lat="48.75178" lon="2.51746">
        <ele>99</ele>
        <time>2014-05-25T12:09:24Z</time>
      </trkpt>
      <trkpt lat="48.75177" lon="2.51745">
        <ele>99</ele>
        <time>2014-05-25T12:09:25Z</time>
      </trkpt>
      <trkpt lat="48.75176" lon="2.51744">
        <ele>99</ele>
        <time>2014-05-25T12:09:26Z</time>
      </trkpt>
      <trkpt lat="48.75175" lon="2.51742">
        <ele>99</ele>
        <time>2014-05-25T12:09:27Z</time>
      </trkpt>
      <trkpt lat="48.75174" lon="2.5174">
        <ele>98</ele>
        <time>2014-05-25T12:09:28Z</time>
      </trkpt>
      <trkpt lat="48.75173" lon="2.51738">
        <ele>99</ele>
        <time>2014-05-25T12:09:29Z</time>
      </trkpt>
      <trkpt lat="48.75171" lon="2.51737">
        <ele>99</ele>
        <time>2014-05-25T12:09:30Z</time>
      </trkpt>
      <trkpt lat="48.7517" lon="2.51735">
        <ele>99</ele>
        <time>2014-05-25T12:09:31Z</time>
      </trkpt>
      <trkpt lat="48.75169" lon="2.51733">
        <ele>99</ele>
        <time>2014-05-25T12:09:32Z</time>
      </trkpt>
      <trkpt lat="48.75168" lon="2.51731">
        <ele>99</ele>
        <time>2014-05-25T12:09:33Z</time>
      </trkpt>
      <trkpt lat="48.75168" lon="2.51729">
        <ele>100</ele>
        <time>2014-05-25T12:09:34Z</time>
      </trkpt>
      <trkpt lat="48.75168" lon="2.51726">
        <ele>100</ele>
        <time>2014-05-25T12:09:35Z</time>
      </trkpt>
      <trkpt lat="48.75168" lon="2.51723">
        <ele>102</ele>
        <time>2014-05-25T12:09:36Z</time>
      </trkpt>
      <trkpt lat="48.75169" lon="2.5172">
        <ele>102</ele>
        <time>2014-05-25T12:09:37Z</time>
      </trkpt>
      <trkpt lat="48.7517" lon="2.51718">
        <ele>103</ele>
        <time>2014-05-25T12:09:38Z</time>
      </trkpt>
      <trkpt lat="48.75171" lon="2.51715">
        <ele>102</ele>
        <time>2014-05-25T12:09:39Z</time>
      </trkpt>
      <trkpt lat="48.75172" lon="2.51713">
        <ele>102</ele>
        <time>2014-05-25T12:09:40Z</time>
      </trkpt>
      <trkpt lat="48.75174" lon="2.51711">
        <ele>101</ele>
        <time>2014-05-25T12:09:41Z</time>
      </trkpt>
      <trkpt lat="48.75175" lon="2.51709">
        <ele>101</ele>
        <time>2014-05-25T12:09:42Z</time>
      </trkpt>
      <trkpt lat="48.75176" lon="2.51707">
        <ele>101</ele>
        <time>2014-05-25T12:09:43Z</time>
      </trkpt>
      <trkpt lat="48.75178" lon="2.51705">
        <ele>100</ele>
        <time>2014-05-25T12:09:44Z</time>
      </trkpt>
      <trkpt lat="48.75179" lon="2.51703">
        <ele>99</ele>
        <time>2014-05-25T12:09:45Z</time>
      </trkpt>
      <trkpt lat="48.7518" lon="2.51701">
        <ele>98</ele>
        <time>2014-05-25T12:09:46Z</time>
      </trkpt>
      <trkpt lat="48.75181" lon="2.51699">
        <ele>99</ele>
        <time>2014-05-25T12:09:47Z</time>
      </trkpt>
      <trkpt lat="48.75182" lon="2.51698">
        <ele>99</ele>
        <time>2014-05-25T12:09:48Z</time>
      </trkpt>
      <trkpt lat="48.75183" lon="2.51696">
        <ele>99</ele>
        <time>2014-05-25T12:09:49Z</time>
      </trkpt>
      <trkpt lat="48.75184" lon="2.51694">
        <ele>100</ele>
        <time>2014-05-25T12:09:50Z</time>
      </trkpt>
      <trkpt lat="48.75184" lon="2.51692">
        <ele>100</ele>
        <time>2014-05-25T12:09:51Z</time>
      </trkpt>
      <trkpt lat="48.75185" lon="2.51691">
        <ele>100</ele>
        <time>2014-05-25T12:09:52Z</time>
      </trkpt>
      <trkpt lat="48.75186" lon="2.51688">
        <ele>100</ele>
        <time>2014-05-25T12:09:53Z</time>
      </trkpt>
      <trkpt lat="48.75187" lon="2.51687">
        <ele>98</ele>
        <time>2014-05-25T12:09:54Z</time>
      </trkpt>
      <trkpt lat="48.75188" lon="2.51685">
        <ele>97</ele>
        <time>2014-05-25T12:09:55Z</time>
      </trkpt>
      <trkpt lat="48.75189" lon="2.51683">
        <ele>96</ele>
        <time>2014-05-25T12:09:56Z</time>
      </trkpt>
      <trkpt lat="48.7519" lon="2.51681">
        <ele>96</ele>
        <time>2014-05-25T12:09:57Z</time>
      </trkpt>
      <trkpt lat="48.75191" lon="2.51679">
        <ele>96</ele>
        <time>2014-05-25T12:09:58Z</time>
      </trkpt>
      <trkpt lat="48.75192" lon="2.51677">
        <ele>95</ele>
        <time>2014-05-25T12:09:59Z</time>
      </trkpt>
      <trkpt lat="48.75192" lon="2.51675">
        <ele>95</ele>
        <time>2014-05-25T12:10:00Z</time>
      </trkpt>
      <trkpt lat="48.75193" lon="2.51673">
        <ele>95</ele>
        <time>2014-05-25T12:10:01Z</time>
      </trkpt>
      <trkpt lat="48.75195" lon="2.51671">
        <ele>95</ele>
        <time>2014-05-25T12:10:02Z</time>
      </trkpt>
      <trkpt lat="48.75196" lon="2.5167">
        <ele>95</ele>
        <time>2014-05-25T12:10:03Z</time>
      </trkpt>
      <trkpt lat="48.75197" lon="2.51668">
        <ele>94</ele>
        <time>2014-05-25T12:10:04Z</time>
      </trkpt>
      <trkpt lat="48.75198" lon="2.51667">
        <ele>93</ele>
        <time>2014-05-25T12:10:05Z</time>
      </trkpt>
      <trkpt lat="48.75199" lon="2.51665">
        <ele>94</ele>
        <time>2014-05-25T12:10:06Z</time>
      </trkpt>
      <trkpt lat="48.752" lon="2.51663">
        <ele>95</ele>
        <time>2014-05-25T12:10:07Z</time>
      </trkpt>
      <trkpt lat="48.75201" lon="2.51662">
        <ele>94</ele>
        <time>2014-05-25T12:10:08Z</time>
      </trkpt>
      <trkpt lat="48.75202" lon="2.51659">
        <ele>95</ele>
        <time>2014-05-25T12:10:09Z</time>
      </trkpt>
      <trkpt lat="48.75202" lon="2.51657">
        <ele>95</ele>
        <time>2014-05-25T12:10:10Z</time>
      </trkpt>
      <trkpt lat="48.75203" lon="2.51655">
        <ele>94</ele>
        <time>2014-05-25T12:10:11Z</time>
      </trkpt>
      <trkpt lat="48.75204" lon="2.51654">
        <ele>93</ele>
        <time>2014-05-25T12:10:12Z</time>
      </trkpt>
      <trkpt lat="48.75204" lon="2.51652">
        <ele>92</ele>
        <time>2014-05-25T12:10:13Z</time>
      </trkpt>
      <trkpt lat="48.75204" lon="2.51649">
        <ele>91</ele>
        <time>2014-05-25T12:10:14Z</time>
      </trkpt>
      <trkpt lat="48.75203" lon="2.51647">
        <ele>91</ele>
        <time>2014-05-25T12:10:15Z</time>
      </trkpt>
      <trkpt lat="48.75202" lon="2.51645">
        <ele>90</ele>
        <time>2014-05-25T12:10:16Z</time>
      </trkpt>
      <trkpt lat="48.75201" lon="2.51643">
        <ele>91</ele>
        <time>2014-05-25T12:10:17Z</time>
      </trkpt>
      <trkpt lat="48.752" lon="2.51641">
        <ele>91</ele>
        <time>2014-05-25T12:10:18Z</time>
      </trkpt>
      <trkpt lat="48.75198" lon="2.5164">
        <ele>92</ele>
        <time>2014-05-25T12:10:19Z</time>
      </trkpt>
      <trkpt lat="48.75196" lon="2.51638">
        <ele>93</ele>
        <time>2014-05-25T12:10:20Z</time>
      </trkpt>
      <trkpt lat="48.75194" lon="2.51637">
        <ele>92</ele>
        <time>2014-05-25T12:10:21Z</time>
      </trkpt>
      <trkpt lat="48.75193" lon="2.51636">
        <ele>93</ele>
        <time>2014-05-25T12:10:22Z</time>
      </trkpt>
      <trkpt lat="48.75191" lon="2.51634">
        <ele>93</ele>
        <time>2014-05-25T12:10:23Z</time>
      </trkpt>
      <trkpt lat="48.75189" lon="2.51632">
        <ele>93</ele>
        <time>2014-05-25T12:10:24Z</time>
      </trkpt>
      <trkpt lat="48.75188" lon="2.51631">
        <ele>93</ele>
        <time>2014-05-25T12:10:25Z</time>
      </trkpt>
      <trkpt lat="48.75187" lon="2.51629">
        <ele>94</ele>
        <time>2014-05-25T12:10:26Z</time>
      </trkpt>
      <trkpt lat="48.75185" lon="2.51627">
        <ele>94</ele>
        <time>2014-05-25T12:10:27Z</time>
      </trkpt>
      <trkpt lat="48.75184" lon="2.51625">
        <ele>93</ele>
        <time>2014-05-25T12:10:28Z</time>
      </trkpt>
      <trkpt lat="48.75183" lon="2.51624">
        <ele>93</ele>
        <time>2014-05-25T12:10:29Z</time>
      </trkpt>
      <trkpt lat="48.75182" lon="2.51622">
        <ele>92</ele>
        <time>2014-05-25T12:10:30Z</time>
      </trkpt>
      <trkpt lat="48.7518" lon="2.51621">
        <ele>92</ele>
        <time>2014-05-25T12:10:31Z</time>
      </trkpt>
      <trkpt lat="48.75179" lon="2.5162">
        <ele>91</ele>
        <time>2014-05-25T12:10:32Z</time>
      </trkpt>
      <trkpt lat="48.75177" lon="2.51619">
        <ele>89</ele>
        <time>2014-05-25T12:10:33Z</time>
      </trkpt>
      <trkpt lat="48.75176" lon="2.51617">
        <ele>91</ele>
        <time>2014-05-25T12:10:34Z</time>
      </trkpt>
      <trkpt lat="48.75175" lon="2.51616">
        <ele>91</ele>
        <time>2014-05-25T12:10:35Z</time>
      </trkpt>
      <trkpt lat="48.75174" lon="2.51614">
        <ele>91</ele>
        <time>2014-05-25T12:10:36Z</time>
      </trkpt>
      <trkpt lat="48.75172" lon="2.51613">
        <ele>92</ele>
        <time>2014-05-25T12:10:37Z</time>
      </trkpt>
      <trkpt lat="48.75171" lon="2.51612">
        <ele>94</ele>
        <time>2014-05-25T12:10:38Z</time>
      </trkpt>
      <trkpt lat="48.7517" lon="2.5161">
        <ele>94</ele>
        <time>2014-05-25T12:10:39Z</time>
      </trkpt>
      <trkpt lat="48.75169" lon="2.51608">
        <ele>93</ele>
        <time>2014-05-25T12:10:40Z</time>
      </trkpt>
      <trkpt lat="48.75168" lon="2.51607">
        <ele>94</ele>
        <time>2014-05-25T12:10:41Z</time>
      </trkpt>
      <trkpt lat="48.75167" lon="2.51605">
        <ele>95</ele>
        <time>2014-05-25T12:10:42Z</time>
      </trkpt>
      <trkpt lat="48.75166" lon="2.51603">
        <ele>95</ele>
        <time>2014-05-25T12:10:43Z</time>
      </trkpt>
      <trkpt lat="48.75164" lon="2.51601">
        <ele>94</ele>
        <time>2014-05-25T12:10:44Z</time>
      </trkpt>
      <trkpt lat="48.75163" lon="2.51599">
        <ele>95</ele>
        <time>2014-05-25T12:10:45Z</time>
      </trkpt>
      <trkpt lat="48.75162" lon="2.51598">
        <ele>93</ele>
        <time>2014-05-25T12:10:46Z</time>
      </trkpt>
      <trkpt lat="48.75161" lon="2.51597">
        <ele>93</ele>
        <time>2014-05-25T12:10:47Z</time>
      </trkpt>
      <trkpt lat="48.75159" lon="2.51596">
        <ele>93</ele>
        <time>2014-05-25T12:10:48Z</time>
      </trkpt>
      <trkpt lat="48.75158" lon="2.51594">
        <ele>92</ele>
        <time>2014-05-25T12:10:49Z</time>
      </trkpt>
      <trkpt lat="48.75157" lon="2.51593">
        <ele>92</ele>
        <time>2014-05-25T12:10:50Z</time>
      </trkpt>
      <trkpt lat="48.75155" lon="2.51592">
        <ele>92</ele>
        <time>2014-05-25T12:10:51Z</time>
      </trkpt>
      <trkpt lat="48.75154" lon="2.5159">
        <ele>92</ele>
        <time>2014-05-25T12:10:52Z</time>
      </trkpt>
      <trkpt lat="48.75153" lon="2.51589">
        <ele>91</ele>
        <time>2014-05-25T12:10:53Z</time>
      </trkpt>
      <trkpt lat="48.75152" lon="2.51588">
        <ele>90</ele>
        <time>2014-05-25T12:10:54Z</time>
      </trkpt>
      <trkpt lat="48.75151" lon="2.51587">
        <ele>91</ele>
        <time>2014-05-25T12:10:55Z</time>
      </trkpt>
      <trkpt lat="48.7515" lon="2.51585">
        <ele>91</ele>
        <time>2014-05-25T12:10:56Z</time>
      </trkpt>
      <trkpt lat="48.75149" lon="2.51584">
        <ele>91</ele>
        <time>2014-05-25T12:10:57Z</time>
      </trkpt>
      <trkpt lat="48.75148" lon="2.51582">
        <ele>90</ele>
        <time>2014-05-25T12:10:58Z</time>
      </trkpt>
      <trkpt lat="48.75147" lon="2.51581">
        <ele>90</ele>
        <time>2014-05-25T12:10:59Z</time>
      </trkpt>
      <trkpt lat="48.75145" lon="2.5158">
        <ele>91</ele>
        <time>2014-05-25T12:11:00Z</time>
      </trkpt>
      <trkpt lat="48.75145" lon="2.51579">
        <ele>91</ele>
        <time>2014-05-25T12:11:01Z</time>
      </trkpt>
      <trkpt lat="48.75143" lon="2.51577">
        <ele>92</ele>
        <time>2014-05-25T12:11:02Z</time>
      </trkpt>
      <trkpt lat="48.75142" lon="2.51576">
        <ele>93</ele>
        <time>2014-05-25T12:11:03Z</time>
      </trkpt>
      <trkpt lat="48.75141" lon="2.51575">
        <ele>94</ele>
        <time>2014-05-25T12:11:04Z</time>
      </trkpt>
      <trkpt lat="48.7514" lon="2.51574">
        <ele>93</ele>
        <time>2014-05-25T12:11:05Z</time>
      </trkpt>
      <trkpt lat="48.75139" lon="2.51573">
        <ele>94</ele>
        <time>2014-05-25T12:11:06Z</time>
      </trkpt>
      <trkpt lat="48.75138" lon="2.51571">
        <ele>95</ele>
        <time>2014-05-25T12:11:07Z</time>
      </trkpt>
      <trkpt lat="48.75136" lon="2.51571">
        <ele>96</ele>
        <time>2014-05-25T12:11:08Z</time>
      </trkpt>
      <trkpt lat="48.75135" lon="2.5157">
        <ele>95</ele>
        <time>2014-05-25T12:11:09Z</time>
      </trkpt>
      <trkpt lat="48.75133" lon="2.5157">
        <ele>94</ele>
        <time>2014-05-25T12:11:10Z</time>
      </trkpt>
      <trkpt lat="48.75132" lon="2.51569">
        <ele>92</ele>
        <time>2014-05-25T12:11:11Z</time>
      </trkpt>
      <trkpt lat="48.75131" lon="2.51568">
        <ele>92</ele>
        <time>2014-05-25T12:11:12Z</time>
      </trkpt>
      <trkpt lat="48.7513" lon="2.51566">
        <ele>92</ele>
        <time>2014-05-25T12:11:13Z</time>
      </trkpt>
      <trkpt lat="48.75129" lon="2.51564">
        <ele>92</ele>
        <time>2014-05-25T12:11:14Z</time>
      </trkpt>
      <trkpt lat="48.75127" lon="2.51563">
        <ele>93</ele>
        <time>2014-05-25T12:11:15Z</time>
      </trkpt>
      <trkpt lat="48.75126" lon="2.51562">
        <ele>93</ele>
        <time>2014-05-25T12:11:16Z</time>
      </trkpt>
      <trkpt lat="48.75125" lon="2.5156">
        <ele>94</ele>
        <time>2014-05-25T12:11:17Z</time>
      </trkpt>
      <trkpt lat="48.75124" lon="2.51559">
        <ele>95</ele>
        <time>2014-05-25T12:11:18Z</time>
      </trkpt>
      <trkpt lat="48.75122" lon="2.51557">
        <ele>95</ele>
        <time>2014-05-25T12:11:19Z</time>
      </trkpt>
      <trkpt lat="48.75121" lon="2.51556">
        <ele>96</ele>
        <time>2014-05-25T12:11:20Z</time>
      </trkpt>
      <trkpt lat="48.75119" lon="2.51554">
        <ele>96</ele>
        <time>2014-05-25T12:11:21Z</time>
      </trkpt>
      <trkpt lat="48.75118" lon="2.51552">
        <ele>95</ele>
        <time>2014-05-25T12:11:22Z</time>
      </trkpt>
      <trkpt lat="48.75116" lon="2.5155">
        <ele>95</ele>
        <time>2014-05-25T12:11:23Z</time>
      </trkpt>
      <trkpt lat="48.75115" lon="2.51549">
        <ele>94</ele>
        <time>2014-05-25T12:11:24Z</time>
      </trkpt>
      <trkpt lat="48.75114" lon="2.51547">
        <ele>92</ele>
        <time>2014-05-25T12:11:25Z</time>
      </trkpt>
      <trkpt lat="48.75113" lon="2.51545">
        <ele>92</ele>
        <time>2014-05-25T12:11:26Z</time>
      </trkpt>
      <trkpt lat="48.75112" lon="2.51543">
        <ele>93</ele>
        <time>2014-05-25T12:11:27Z</time>
      </trkpt>
      <trkpt lat="48.75111" lon="2.51542">
        <ele>92</ele>
        <time>2014-05-25T12:11:28Z</time>
      </trkpt>
      <trkpt lat="48.7511" lon="2.51542">
        <ele>90</ele>
        <time>2014-05-25T12:11:29Z</time>
      </trkpt>
      <trkpt lat="48.75109" lon="2.51541">
        <ele>91</ele>
        <time>2014-05-25T12:11:30Z</time>
      </trkpt>
      <trkpt lat="48.75108" lon="2.5154">
        <ele>92</ele>
        <time>2014-05-25T12:11:31Z</time>
      </trkpt>
      <trkpt lat="48.75107" lon="2.51539">
        <ele>93</ele>
        <time>2014-05-25T12:11:32Z</time>
      </trkpt>
      <trkpt lat="48.75106" lon="2.51539">
        <ele>93</ele>
        <time>2014-05-25T12:11:33Z</time>
      </trkpt>
      <trkpt lat="48.75105" lon="2.51538">
        <ele>94</ele>
        <time>2014-05-25T12:11:34Z</time>
      </trkpt>
      <trkpt lat="48.75104" lon="2.51539">
        <ele>94</ele>
        <time>2014-05-25T12:11:35Z</time>
      </trkpt>
      <trkpt lat="48.75105" lon="2.5154">
        <ele>95</ele>
        <time>2014-05-25T12:11:36Z</time>
      </trkpt>
      <trkpt lat="48.75104" lon="2.51541">
        <ele>95</ele>
        <time>2014-05-25T12:11:37Z</time>
      </trkpt>
      <trkpt lat="48.75104" lon="2.51542">
        <ele>95</ele>
        <time>2014-05-25T12:11:38Z</time>
      </trkpt>
      <trkpt lat="48.75104" lon="2.51544">
        <ele>95</ele>
        <time>2014-05-25T12:11:39Z</time>
      </trkpt>
      <trkpt lat="48.75104" lon="2.51545">
        <ele>96</ele>
        <time>2014-05-25T12:11:40Z</time>
      </trkpt>
      <trkpt lat="48.75104" lon="2.51546">
        <ele>96</ele>
        <time>2014-05-25T12:11:41Z</time>
      </trkpt>
      <trkpt lat="48.75104" lon="2.51547">
        <ele>95</ele>
        <time>2014-05-25T12:11:42Z</time>
      </trkpt>
      <trkpt lat="48.75104" lon="2.51548">
        <ele>96</ele>
        <time>2014-05-25T12:11:43Z</time>
      </trkpt>
      <trkpt lat="48.75103" lon="2.51547">
        <ele>95</ele>
        <time>2014-05-25T12:11:44Z</time>
      </trkpt>
    </trkseg>
  </trk>
</gpx>